<?xml version="1.0" encoding="UTF-8" standalone="no" ?>
<gpx xmlns="http://www.topografix.com/GPX/1/1" xmlns:xsi="http://www.w3.org/2001/XMLSchema-instance" xsi:schemaLocation="http://www.topografix.com/GPX/1/1 http://www.topografix.com/GPX/1/1/gpx.xsd" version="1.1" creator="VisuGPX - https://www.visugpx.com">
  <metadata>
    <name>tHiBaLdUs : La Bon Encontraise 2017</name>
    <desc><![CDATA[Rando VTT "La Bon Encontraise" : 40,5 kms pour 900m D ]]></desc>
  </metadata>
  <trk>
    <name><![CDATA[tHiBaLdUs : La Bon Encontraise 2017_1]]></name>
    <trkseg>
      <trkpt lat="44.18483" lon="0.67674">
        <ele>62</ele>
        <time>2017-04-30T06:54:20.000Z</time>
      </trkpt>
      <trkpt lat="44.18483" lon="0.67674">
        <ele>62</ele>
        <time>2017-04-30T06:54:21.000Z</time>
      </trkpt>
      <trkpt lat="44.18485" lon="0.67674">
        <ele>62</ele>
        <time>2017-04-30T06:54:22.000Z</time>
      </trkpt>
      <trkpt lat="44.18487" lon="0.67673">
        <ele>62</ele>
        <time>2017-04-30T06:54:23.000Z</time>
      </trkpt>
      <trkpt lat="44.18491" lon="0.67674">
        <ele>61</ele>
        <time>2017-04-30T06:54:24.000Z</time>
      </trkpt>
      <trkpt lat="44.18496" lon="0.67676">
        <ele>62</ele>
        <time>2017-04-30T06:54:25.000Z</time>
      </trkpt>
      <trkpt lat="44.185" lon="0.67677">
        <ele>62</ele>
        <time>2017-04-30T06:54:26.000Z</time>
      </trkpt>
      <trkpt lat="44.18505" lon="0.67677">
        <ele>62</ele>
        <time>2017-04-30T06:54:27.000Z</time>
      </trkpt>
      <trkpt lat="44.1851" lon="0.67676">
        <ele>61</ele>
        <time>2017-04-30T06:54:28.000Z</time>
      </trkpt>
      <trkpt lat="44.18514" lon="0.67675">
        <ele>61</ele>
        <time>2017-04-30T06:54:29.000Z</time>
      </trkpt>
      <trkpt lat="44.18519" lon="0.67673">
        <ele>61</ele>
        <time>2017-04-30T06:54:30.000Z</time>
      </trkpt>
      <trkpt lat="44.18524" lon="0.67671">
        <ele>61</ele>
        <time>2017-04-30T06:54:31.000Z</time>
      </trkpt>
      <trkpt lat="44.18528" lon="0.67668">
        <ele>61</ele>
        <time>2017-04-30T06:54:32.000Z</time>
      </trkpt>
      <trkpt lat="44.18533" lon="0.67667">
        <ele>61</ele>
        <time>2017-04-30T06:54:33.000Z</time>
      </trkpt>
      <trkpt lat="44.18538" lon="0.67665">
        <ele>61</ele>
        <time>2017-04-30T06:54:34.000Z</time>
      </trkpt>
      <trkpt lat="44.18543" lon="0.67664">
        <ele>61</ele>
        <time>2017-04-30T06:54:35.000Z</time>
      </trkpt>
      <trkpt lat="44.18548" lon="0.67663">
        <ele>61</ele>
        <time>2017-04-30T06:54:36.000Z</time>
      </trkpt>
      <trkpt lat="44.18552" lon="0.67661">
        <ele>61</ele>
        <time>2017-04-30T06:54:37.000Z</time>
      </trkpt>
      <trkpt lat="44.18557" lon="0.6766">
        <ele>61</ele>
        <time>2017-04-30T06:54:38.000Z</time>
      </trkpt>
      <trkpt lat="44.18562" lon="0.67659">
        <ele>61</ele>
        <time>2017-04-30T06:54:39.000Z</time>
      </trkpt>
      <trkpt lat="44.18567" lon="0.67657">
        <ele>60</ele>
        <time>2017-04-30T06:54:40.000Z</time>
      </trkpt>
      <trkpt lat="44.18572" lon="0.67656">
        <ele>61</ele>
        <time>2017-04-30T06:54:41.000Z</time>
      </trkpt>
      <trkpt lat="44.18577" lon="0.67655">
        <ele>61</ele>
        <time>2017-04-30T06:54:42.000Z</time>
      </trkpt>
      <trkpt lat="44.18581" lon="0.67655">
        <ele>61</ele>
        <time>2017-04-30T06:54:43.000Z</time>
      </trkpt>
      <trkpt lat="44.18586" lon="0.67654">
        <ele>61</ele>
        <time>2017-04-30T06:54:44.000Z</time>
      </trkpt>
      <trkpt lat="44.1859" lon="0.67653">
        <ele>61</ele>
        <time>2017-04-30T06:54:45.000Z</time>
      </trkpt>
      <trkpt lat="44.18595" lon="0.67651">
        <ele>61</ele>
        <time>2017-04-30T06:54:46.000Z</time>
      </trkpt>
      <trkpt lat="44.18599" lon="0.6765">
        <ele>61</ele>
        <time>2017-04-30T06:54:47.000Z</time>
      </trkpt>
      <trkpt lat="44.18604" lon="0.67649">
        <ele>61</ele>
        <time>2017-04-30T06:54:48.000Z</time>
      </trkpt>
      <trkpt lat="44.18609" lon="0.67648">
        <ele>61</ele>
        <time>2017-04-30T06:54:49.000Z</time>
      </trkpt>
      <trkpt lat="44.18613" lon="0.67647">
        <ele>61</ele>
        <time>2017-04-30T06:54:50.000Z</time>
      </trkpt>
      <trkpt lat="44.18618" lon="0.67646">
        <ele>61</ele>
        <time>2017-04-30T06:54:51.000Z</time>
      </trkpt>
      <trkpt lat="44.18622" lon="0.67645">
        <ele>61</ele>
        <time>2017-04-30T06:54:52.000Z</time>
      </trkpt>
      <trkpt lat="44.18626" lon="0.67644">
        <ele>62</ele>
        <time>2017-04-30T06:54:53.000Z</time>
      </trkpt>
      <trkpt lat="44.1863" lon="0.67643">
        <ele>62</ele>
        <time>2017-04-30T06:54:54.000Z</time>
      </trkpt>
      <trkpt lat="44.18634" lon="0.67642">
        <ele>62</ele>
        <time>2017-04-30T06:54:55.000Z</time>
      </trkpt>
      <trkpt lat="44.18638" lon="0.67642">
        <ele>62</ele>
        <time>2017-04-30T06:54:56.000Z</time>
      </trkpt>
      <trkpt lat="44.18641" lon="0.67642">
        <ele>62</ele>
        <time>2017-04-30T06:54:57.000Z</time>
      </trkpt>
      <trkpt lat="44.18643" lon="0.67643">
        <ele>62</ele>
        <time>2017-04-30T06:54:58.000Z</time>
      </trkpt>
      <trkpt lat="44.18645" lon="0.67643">
        <ele>63</ele>
        <time>2017-04-30T06:54:59.000Z</time>
      </trkpt>
      <trkpt lat="44.18646" lon="0.67644">
        <ele>63</ele>
        <time>2017-04-30T06:55:00.000Z</time>
      </trkpt>
      <trkpt lat="44.18648" lon="0.67644">
        <ele>63</ele>
        <time>2017-04-30T06:55:01.000Z</time>
      </trkpt>
      <trkpt lat="44.18648" lon="0.67644">
        <ele>63</ele>
        <time>2017-04-30T06:55:02.000Z</time>
      </trkpt>
      <trkpt lat="44.18649" lon="0.67645">
        <ele>63</ele>
        <time>2017-04-30T06:55:03.000Z</time>
      </trkpt>
      <trkpt lat="44.1865" lon="0.67646">
        <ele>63</ele>
        <time>2017-04-30T06:55:04.000Z</time>
      </trkpt>
      <trkpt lat="44.1865" lon="0.67647">
        <ele>63</ele>
        <time>2017-04-30T06:55:05.000Z</time>
      </trkpt>
      <trkpt lat="44.18651" lon="0.67649">
        <ele>62</ele>
        <time>2017-04-30T06:55:06.000Z</time>
      </trkpt>
      <trkpt lat="44.18651" lon="0.67651">
        <ele>63</ele>
        <time>2017-04-30T06:55:07.000Z</time>
      </trkpt>
      <trkpt lat="44.18651" lon="0.67654">
        <ele>63</ele>
        <time>2017-04-30T06:55:08.000Z</time>
      </trkpt>
      <trkpt lat="44.18651" lon="0.67656">
        <ele>63</ele>
        <time>2017-04-30T06:55:09.000Z</time>
      </trkpt>
      <trkpt lat="44.18652" lon="0.67659">
        <ele>62</ele>
        <time>2017-04-30T06:55:10.000Z</time>
      </trkpt>
      <trkpt lat="44.18652" lon="0.67661">
        <ele>63</ele>
        <time>2017-04-30T06:55:11.000Z</time>
      </trkpt>
      <trkpt lat="44.18653" lon="0.67664">
        <ele>63</ele>
        <time>2017-04-30T06:55:12.000Z</time>
      </trkpt>
      <trkpt lat="44.18653" lon="0.67667">
        <ele>63</ele>
        <time>2017-04-30T06:55:13.000Z</time>
      </trkpt>
      <trkpt lat="44.18653" lon="0.6767">
        <ele>63</ele>
        <time>2017-04-30T06:55:14.000Z</time>
      </trkpt>
      <trkpt lat="44.18654" lon="0.67674">
        <ele>63</ele>
        <time>2017-04-30T06:55:15.000Z</time>
      </trkpt>
      <trkpt lat="44.18655" lon="0.67679">
        <ele>63</ele>
        <time>2017-04-30T06:55:16.000Z</time>
      </trkpt>
      <trkpt lat="44.18656" lon="0.67684">
        <ele>64</ele>
        <time>2017-04-30T06:55:17.000Z</time>
      </trkpt>
      <trkpt lat="44.18656" lon="0.67689">
        <ele>64</ele>
        <time>2017-04-30T06:55:18.000Z</time>
      </trkpt>
      <trkpt lat="44.18658" lon="0.67695">
        <ele>63</ele>
        <time>2017-04-30T06:55:19.000Z</time>
      </trkpt>
      <trkpt lat="44.18659" lon="0.67702">
        <ele>63</ele>
        <time>2017-04-30T06:55:20.000Z</time>
      </trkpt>
      <trkpt lat="44.1866" lon="0.67708">
        <ele>63</ele>
        <time>2017-04-30T06:55:21.000Z</time>
      </trkpt>
      <trkpt lat="44.18661" lon="0.67714">
        <ele>63</ele>
        <time>2017-04-30T06:55:22.000Z</time>
      </trkpt>
      <trkpt lat="44.18662" lon="0.6772">
        <ele>63</ele>
        <time>2017-04-30T06:55:23.000Z</time>
      </trkpt>
      <trkpt lat="44.18663" lon="0.67726">
        <ele>63</ele>
        <time>2017-04-30T06:55:24.000Z</time>
      </trkpt>
      <trkpt lat="44.18664" lon="0.67733">
        <ele>63</ele>
        <time>2017-04-30T06:55:25.000Z</time>
      </trkpt>
      <trkpt lat="44.18665" lon="0.67739">
        <ele>63</ele>
        <time>2017-04-30T06:55:26.000Z</time>
      </trkpt>
      <trkpt lat="44.18666" lon="0.67745">
        <ele>63</ele>
        <time>2017-04-30T06:55:27.000Z</time>
      </trkpt>
      <trkpt lat="44.18667" lon="0.67752">
        <ele>63</ele>
        <time>2017-04-30T06:55:28.000Z</time>
      </trkpt>
      <trkpt lat="44.18669" lon="0.67758">
        <ele>63</ele>
        <time>2017-04-30T06:55:29.000Z</time>
      </trkpt>
      <trkpt lat="44.1867" lon="0.67764">
        <ele>63</ele>
        <time>2017-04-30T06:55:30.000Z</time>
      </trkpt>
      <trkpt lat="44.18671" lon="0.67771">
        <ele>62</ele>
        <time>2017-04-30T06:55:31.000Z</time>
      </trkpt>
      <trkpt lat="44.18672" lon="0.67778">
        <ele>62</ele>
        <time>2017-04-30T06:55:32.000Z</time>
      </trkpt>
      <trkpt lat="44.18673" lon="0.67784">
        <ele>62</ele>
        <time>2017-04-30T06:55:33.000Z</time>
      </trkpt>
      <trkpt lat="44.18674" lon="0.67791">
        <ele>62</ele>
        <time>2017-04-30T06:55:34.000Z</time>
      </trkpt>
      <trkpt lat="44.18675" lon="0.67798">
        <ele>62</ele>
        <time>2017-04-30T06:55:35.000Z</time>
      </trkpt>
      <trkpt lat="44.18677" lon="0.67804">
        <ele>62</ele>
        <time>2017-04-30T06:55:36.000Z</time>
      </trkpt>
      <trkpt lat="44.18678" lon="0.67811">
        <ele>62</ele>
        <time>2017-04-30T06:55:37.000Z</time>
      </trkpt>
      <trkpt lat="44.18679" lon="0.67817">
        <ele>62</ele>
        <time>2017-04-30T06:55:38.000Z</time>
      </trkpt>
      <trkpt lat="44.1868" lon="0.67824">
        <ele>62</ele>
        <time>2017-04-30T06:55:39.000Z</time>
      </trkpt>
      <trkpt lat="44.18681" lon="0.6783">
        <ele>62</ele>
        <time>2017-04-30T06:55:40.000Z</time>
      </trkpt>
      <trkpt lat="44.18681" lon="0.67837">
        <ele>62</ele>
        <time>2017-04-30T06:55:41.000Z</time>
      </trkpt>
      <trkpt lat="44.18682" lon="0.67843">
        <ele>62</ele>
        <time>2017-04-30T06:55:42.000Z</time>
      </trkpt>
      <trkpt lat="44.18683" lon="0.6785">
        <ele>62</ele>
        <time>2017-04-30T06:55:43.000Z</time>
      </trkpt>
      <trkpt lat="44.18684" lon="0.67856">
        <ele>62</ele>
        <time>2017-04-30T06:55:44.000Z</time>
      </trkpt>
      <trkpt lat="44.18684" lon="0.67863">
        <ele>62</ele>
        <time>2017-04-30T06:55:45.000Z</time>
      </trkpt>
      <trkpt lat="44.18685" lon="0.67869">
        <ele>62</ele>
        <time>2017-04-30T06:55:46.000Z</time>
      </trkpt>
      <trkpt lat="44.18685" lon="0.67876">
        <ele>62</ele>
        <time>2017-04-30T06:55:47.000Z</time>
      </trkpt>
      <trkpt lat="44.18685" lon="0.67883">
        <ele>62</ele>
        <time>2017-04-30T06:55:48.000Z</time>
      </trkpt>
      <trkpt lat="44.18686" lon="0.67889">
        <ele>62</ele>
        <time>2017-04-30T06:55:49.000Z</time>
      </trkpt>
      <trkpt lat="44.18686" lon="0.67896">
        <ele>62</ele>
        <time>2017-04-30T06:55:50.000Z</time>
      </trkpt>
      <trkpt lat="44.18687" lon="0.67902">
        <ele>62</ele>
        <time>2017-04-30T06:55:51.000Z</time>
      </trkpt>
      <trkpt lat="44.18687" lon="0.67909">
        <ele>62</ele>
        <time>2017-04-30T06:55:52.000Z</time>
      </trkpt>
      <trkpt lat="44.18688" lon="0.67916">
        <ele>62</ele>
        <time>2017-04-30T06:55:53.000Z</time>
      </trkpt>
      <trkpt lat="44.18688" lon="0.67922">
        <ele>62</ele>
        <time>2017-04-30T06:55:54.000Z</time>
      </trkpt>
      <trkpt lat="44.18688" lon="0.67929">
        <ele>62</ele>
        <time>2017-04-30T06:55:55.000Z</time>
      </trkpt>
      <trkpt lat="44.18689" lon="0.67935">
        <ele>62</ele>
        <time>2017-04-30T06:55:56.000Z</time>
      </trkpt>
      <trkpt lat="44.18689" lon="0.67942">
        <ele>62</ele>
        <time>2017-04-30T06:55:57.000Z</time>
      </trkpt>
      <trkpt lat="44.1869" lon="0.67949">
        <ele>62</ele>
        <time>2017-04-30T06:55:58.000Z</time>
      </trkpt>
      <trkpt lat="44.1869" lon="0.67955">
        <ele>62</ele>
        <time>2017-04-30T06:55:59.000Z</time>
      </trkpt>
      <trkpt lat="44.18691" lon="0.67962">
        <ele>62</ele>
        <time>2017-04-30T06:56:00.000Z</time>
      </trkpt>
      <trkpt lat="44.18691" lon="0.67968">
        <ele>62</ele>
        <time>2017-04-30T06:56:01.000Z</time>
      </trkpt>
      <trkpt lat="44.18692" lon="0.67975">
        <ele>62</ele>
        <time>2017-04-30T06:56:02.000Z</time>
      </trkpt>
      <trkpt lat="44.18692" lon="0.67981">
        <ele>62</ele>
        <time>2017-04-30T06:56:03.000Z</time>
      </trkpt>
      <trkpt lat="44.18692" lon="0.67987">
        <ele>62</ele>
        <time>2017-04-30T06:56:04.000Z</time>
      </trkpt>
      <trkpt lat="44.18693" lon="0.67994">
        <ele>62</ele>
        <time>2017-04-30T06:56:05.000Z</time>
      </trkpt>
      <trkpt lat="44.18693" lon="0.68">
        <ele>62</ele>
        <time>2017-04-30T06:56:06.000Z</time>
      </trkpt>
      <trkpt lat="44.18694" lon="0.68007">
        <ele>62</ele>
        <time>2017-04-30T06:56:07.000Z</time>
      </trkpt>
      <trkpt lat="44.18694" lon="0.68013">
        <ele>62</ele>
        <time>2017-04-30T06:56:08.000Z</time>
      </trkpt>
      <trkpt lat="44.18695" lon="0.68019">
        <ele>62</ele>
        <time>2017-04-30T06:56:09.000Z</time>
      </trkpt>
      <trkpt lat="44.18696" lon="0.68026">
        <ele>62</ele>
        <time>2017-04-30T06:56:10.000Z</time>
      </trkpt>
      <trkpt lat="44.18696" lon="0.68032">
        <ele>62</ele>
        <time>2017-04-30T06:56:11.000Z</time>
      </trkpt>
      <trkpt lat="44.18697" lon="0.68039">
        <ele>62</ele>
        <time>2017-04-30T06:56:12.000Z</time>
      </trkpt>
      <trkpt lat="44.18697" lon="0.68045">
        <ele>62</ele>
        <time>2017-04-30T06:56:13.000Z</time>
      </trkpt>
      <trkpt lat="44.18698" lon="0.68052">
        <ele>62</ele>
        <time>2017-04-30T06:56:14.000Z</time>
      </trkpt>
      <trkpt lat="44.18698" lon="0.68058">
        <ele>62</ele>
        <time>2017-04-30T06:56:15.000Z</time>
      </trkpt>
      <trkpt lat="44.18699" lon="0.68065">
        <ele>62</ele>
        <time>2017-04-30T06:56:16.000Z</time>
      </trkpt>
      <trkpt lat="44.18699" lon="0.68071">
        <ele>62</ele>
        <time>2017-04-30T06:56:17.000Z</time>
      </trkpt>
      <trkpt lat="44.187" lon="0.68078">
        <ele>62</ele>
        <time>2017-04-30T06:56:18.000Z</time>
      </trkpt>
      <trkpt lat="44.187" lon="0.68084">
        <ele>62</ele>
        <time>2017-04-30T06:56:19.000Z</time>
      </trkpt>
      <trkpt lat="44.18701" lon="0.68091">
        <ele>62</ele>
        <time>2017-04-30T06:56:20.000Z</time>
      </trkpt>
      <trkpt lat="44.18701" lon="0.68097">
        <ele>62</ele>
        <time>2017-04-30T06:56:21.000Z</time>
      </trkpt>
      <trkpt lat="44.18702" lon="0.68103">
        <ele>62</ele>
        <time>2017-04-30T06:56:22.000Z</time>
      </trkpt>
      <trkpt lat="44.18703" lon="0.6811">
        <ele>62</ele>
        <time>2017-04-30T06:56:23.000Z</time>
      </trkpt>
      <trkpt lat="44.18703" lon="0.68116">
        <ele>62</ele>
        <time>2017-04-30T06:56:24.000Z</time>
      </trkpt>
      <trkpt lat="44.18703" lon="0.68122">
        <ele>62</ele>
        <time>2017-04-30T06:56:25.000Z</time>
      </trkpt>
      <trkpt lat="44.18704" lon="0.68129">
        <ele>62</ele>
        <time>2017-04-30T06:56:26.000Z</time>
      </trkpt>
      <trkpt lat="44.18704" lon="0.68135">
        <ele>62</ele>
        <time>2017-04-30T06:56:27.000Z</time>
      </trkpt>
      <trkpt lat="44.18704" lon="0.68141">
        <ele>62</ele>
        <time>2017-04-30T06:56:28.000Z</time>
      </trkpt>
      <trkpt lat="44.18705" lon="0.68148">
        <ele>62</ele>
        <time>2017-04-30T06:56:29.000Z</time>
      </trkpt>
      <trkpt lat="44.18705" lon="0.68154">
        <ele>62</ele>
        <time>2017-04-30T06:56:30.000Z</time>
      </trkpt>
      <trkpt lat="44.18706" lon="0.6816">
        <ele>62</ele>
        <time>2017-04-30T06:56:31.000Z</time>
      </trkpt>
      <trkpt lat="44.18707" lon="0.68167">
        <ele>62</ele>
        <time>2017-04-30T06:56:32.000Z</time>
      </trkpt>
      <trkpt lat="44.18707" lon="0.68173">
        <ele>62</ele>
        <time>2017-04-30T06:56:33.000Z</time>
      </trkpt>
      <trkpt lat="44.18708" lon="0.68179">
        <ele>62</ele>
        <time>2017-04-30T06:56:34.000Z</time>
      </trkpt>
      <trkpt lat="44.18709" lon="0.68186">
        <ele>62</ele>
        <time>2017-04-30T06:56:35.000Z</time>
      </trkpt>
      <trkpt lat="44.1871" lon="0.68192">
        <ele>62</ele>
        <time>2017-04-30T06:56:36.000Z</time>
      </trkpt>
      <trkpt lat="44.18711" lon="0.68198">
        <ele>62</ele>
        <time>2017-04-30T06:56:37.000Z</time>
      </trkpt>
      <trkpt lat="44.18711" lon="0.68204">
        <ele>62</ele>
        <time>2017-04-30T06:56:38.000Z</time>
      </trkpt>
      <trkpt lat="44.18712" lon="0.6821">
        <ele>62</ele>
        <time>2017-04-30T06:56:39.000Z</time>
      </trkpt>
      <trkpt lat="44.18712" lon="0.68216">
        <ele>62</ele>
        <time>2017-04-30T06:56:40.000Z</time>
      </trkpt>
      <trkpt lat="44.18713" lon="0.68222">
        <ele>62</ele>
        <time>2017-04-30T06:56:41.000Z</time>
      </trkpt>
      <trkpt lat="44.18713" lon="0.68228">
        <ele>62</ele>
        <time>2017-04-30T06:56:42.000Z</time>
      </trkpt>
      <trkpt lat="44.18714" lon="0.68234">
        <ele>62</ele>
        <time>2017-04-30T06:56:43.000Z</time>
      </trkpt>
      <trkpt lat="44.18714" lon="0.68239">
        <ele>62</ele>
        <time>2017-04-30T06:56:44.000Z</time>
      </trkpt>
      <trkpt lat="44.18714" lon="0.68244">
        <ele>62</ele>
        <time>2017-04-30T06:56:45.000Z</time>
      </trkpt>
      <trkpt lat="44.18714" lon="0.68248">
        <ele>62</ele>
        <time>2017-04-30T06:56:46.000Z</time>
      </trkpt>
      <trkpt lat="44.18714" lon="0.68252">
        <ele>62</ele>
        <time>2017-04-30T06:56:47.000Z</time>
      </trkpt>
      <trkpt lat="44.18715" lon="0.68255">
        <ele>62</ele>
        <time>2017-04-30T06:56:48.000Z</time>
      </trkpt>
      <trkpt lat="44.18716" lon="0.68258">
        <ele>62</ele>
        <time>2017-04-30T06:56:49.000Z</time>
      </trkpt>
      <trkpt lat="44.18719" lon="0.68261">
        <ele>63</ele>
        <time>2017-04-30T06:56:50.000Z</time>
      </trkpt>
      <trkpt lat="44.18722" lon="0.68262">
        <ele>63</ele>
        <time>2017-04-30T06:56:51.000Z</time>
      </trkpt>
      <trkpt lat="44.18726" lon="0.68263">
        <ele>63</ele>
        <time>2017-04-30T06:56:52.000Z</time>
      </trkpt>
      <trkpt lat="44.18731" lon="0.68264">
        <ele>63</ele>
        <time>2017-04-30T06:56:53.000Z</time>
      </trkpt>
      <trkpt lat="44.18735" lon="0.68263">
        <ele>63</ele>
        <time>2017-04-30T06:56:54.000Z</time>
      </trkpt>
      <trkpt lat="44.18739" lon="0.68262">
        <ele>63</ele>
        <time>2017-04-30T06:56:55.000Z</time>
      </trkpt>
      <trkpt lat="44.18743" lon="0.68261">
        <ele>63</ele>
        <time>2017-04-30T06:56:56.000Z</time>
      </trkpt>
      <trkpt lat="44.18748" lon="0.6826">
        <ele>63</ele>
        <time>2017-04-30T06:56:57.000Z</time>
      </trkpt>
      <trkpt lat="44.18752" lon="0.68259">
        <ele>63</ele>
        <time>2017-04-30T06:56:58.000Z</time>
      </trkpt>
      <trkpt lat="44.18756" lon="0.68257">
        <ele>63</ele>
        <time>2017-04-30T06:56:59.000Z</time>
      </trkpt>
      <trkpt lat="44.1876" lon="0.68255">
        <ele>64</ele>
        <time>2017-04-30T06:57:00.000Z</time>
      </trkpt>
      <trkpt lat="44.18764" lon="0.68253">
        <ele>64</ele>
        <time>2017-04-30T06:57:01.000Z</time>
      </trkpt>
      <trkpt lat="44.18768" lon="0.6825">
        <ele>63</ele>
        <time>2017-04-30T06:57:02.000Z</time>
      </trkpt>
      <trkpt lat="44.18772" lon="0.68248">
        <ele>63</ele>
        <time>2017-04-30T06:57:03.000Z</time>
      </trkpt>
      <trkpt lat="44.18776" lon="0.68246">
        <ele>63</ele>
        <time>2017-04-30T06:57:04.000Z</time>
      </trkpt>
      <trkpt lat="44.18781" lon="0.68244">
        <ele>64</ele>
        <time>2017-04-30T06:57:05.000Z</time>
      </trkpt>
      <trkpt lat="44.18785" lon="0.68242">
        <ele>63</ele>
        <time>2017-04-30T06:57:06.000Z</time>
      </trkpt>
      <trkpt lat="44.18789" lon="0.6824">
        <ele>63</ele>
        <time>2017-04-30T06:57:07.000Z</time>
      </trkpt>
      <trkpt lat="44.18793" lon="0.68239">
        <ele>63</ele>
        <time>2017-04-30T06:57:08.000Z</time>
      </trkpt>
      <trkpt lat="44.18798" lon="0.68237">
        <ele>64</ele>
        <time>2017-04-30T06:57:09.000Z</time>
      </trkpt>
      <trkpt lat="44.18802" lon="0.68235">
        <ele>64</ele>
        <time>2017-04-30T06:57:10.000Z</time>
      </trkpt>
      <trkpt lat="44.18807" lon="0.68235">
        <ele>64</ele>
        <time>2017-04-30T06:57:11.000Z</time>
      </trkpt>
      <trkpt lat="44.18811" lon="0.68236">
        <ele>64</ele>
        <time>2017-04-30T06:57:12.000Z</time>
      </trkpt>
      <trkpt lat="44.18816" lon="0.68237">
        <ele>64</ele>
        <time>2017-04-30T06:57:13.000Z</time>
      </trkpt>
      <trkpt lat="44.1882" lon="0.6824">
        <ele>64</ele>
        <time>2017-04-30T06:57:14.000Z</time>
      </trkpt>
      <trkpt lat="44.18824" lon="0.68243">
        <ele>65</ele>
        <time>2017-04-30T06:57:15.000Z</time>
      </trkpt>
      <trkpt lat="44.18828" lon="0.68246">
        <ele>65</ele>
        <time>2017-04-30T06:57:16.000Z</time>
      </trkpt>
      <trkpt lat="44.18831" lon="0.6825">
        <ele>65</ele>
        <time>2017-04-30T06:57:17.000Z</time>
      </trkpt>
      <trkpt lat="44.18835" lon="0.68255">
        <ele>65</ele>
        <time>2017-04-30T06:57:18.000Z</time>
      </trkpt>
      <trkpt lat="44.18838" lon="0.68259">
        <ele>65</ele>
        <time>2017-04-30T06:57:19.000Z</time>
      </trkpt>
      <trkpt lat="44.18841" lon="0.68264">
        <ele>65</ele>
        <time>2017-04-30T06:57:20.000Z</time>
      </trkpt>
      <trkpt lat="44.18844" lon="0.68269">
        <ele>65</ele>
        <time>2017-04-30T06:57:21.000Z</time>
      </trkpt>
      <trkpt lat="44.18847" lon="0.68274">
        <ele>65</ele>
        <time>2017-04-30T06:57:22.000Z</time>
      </trkpt>
      <trkpt lat="44.18849" lon="0.68279">
        <ele>65</ele>
        <time>2017-04-30T06:57:23.000Z</time>
      </trkpt>
      <trkpt lat="44.18852" lon="0.68283">
        <ele>65</ele>
        <time>2017-04-30T06:57:24.000Z</time>
      </trkpt>
      <trkpt lat="44.18854" lon="0.68288">
        <ele>65</ele>
        <time>2017-04-30T06:57:25.000Z</time>
      </trkpt>
      <trkpt lat="44.18857" lon="0.68293">
        <ele>65</ele>
        <time>2017-04-30T06:57:26.000Z</time>
      </trkpt>
      <trkpt lat="44.1886" lon="0.68297">
        <ele>65</ele>
        <time>2017-04-30T06:57:27.000Z</time>
      </trkpt>
      <trkpt lat="44.18863" lon="0.68302">
        <ele>65</ele>
        <time>2017-04-30T06:57:28.000Z</time>
      </trkpt>
      <trkpt lat="44.18866" lon="0.68306">
        <ele>65</ele>
        <time>2017-04-30T06:57:29.000Z</time>
      </trkpt>
      <trkpt lat="44.18869" lon="0.6831">
        <ele>65</ele>
        <time>2017-04-30T06:57:30.000Z</time>
      </trkpt>
      <trkpt lat="44.18873" lon="0.68314">
        <ele>66</ele>
        <time>2017-04-30T06:57:31.000Z</time>
      </trkpt>
      <trkpt lat="44.18876" lon="0.68319">
        <ele>66</ele>
        <time>2017-04-30T06:57:32.000Z</time>
      </trkpt>
      <trkpt lat="44.18879" lon="0.68323">
        <ele>66</ele>
        <time>2017-04-30T06:57:33.000Z</time>
      </trkpt>
      <trkpt lat="44.18882" lon="0.68327">
        <ele>66</ele>
        <time>2017-04-30T06:57:34.000Z</time>
      </trkpt>
      <trkpt lat="44.18885" lon="0.68331">
        <ele>66</ele>
        <time>2017-04-30T06:57:35.000Z</time>
      </trkpt>
      <trkpt lat="44.18888" lon="0.68335">
        <ele>66</ele>
        <time>2017-04-30T06:57:36.000Z</time>
      </trkpt>
      <trkpt lat="44.18892" lon="0.68339">
        <ele>66</ele>
        <time>2017-04-30T06:57:37.000Z</time>
      </trkpt>
      <trkpt lat="44.18895" lon="0.68343">
        <ele>66</ele>
        <time>2017-04-30T06:57:38.000Z</time>
      </trkpt>
      <trkpt lat="44.18898" lon="0.68346">
        <ele>66</ele>
        <time>2017-04-30T06:57:39.000Z</time>
      </trkpt>
      <trkpt lat="44.18902" lon="0.6835">
        <ele>67</ele>
        <time>2017-04-30T06:57:40.000Z</time>
      </trkpt>
      <trkpt lat="44.18905" lon="0.68354">
        <ele>66</ele>
        <time>2017-04-30T06:57:41.000Z</time>
      </trkpt>
      <trkpt lat="44.18909" lon="0.68357">
        <ele>66</ele>
        <time>2017-04-30T06:57:42.000Z</time>
      </trkpt>
      <trkpt lat="44.18912" lon="0.68361">
        <ele>66</ele>
        <time>2017-04-30T06:57:43.000Z</time>
      </trkpt>
      <trkpt lat="44.18916" lon="0.68364">
        <ele>66</ele>
        <time>2017-04-30T06:57:44.000Z</time>
      </trkpt>
      <trkpt lat="44.18919" lon="0.68368">
        <ele>66</ele>
        <time>2017-04-30T06:57:45.000Z</time>
      </trkpt>
      <trkpt lat="44.18923" lon="0.68371">
        <ele>66</ele>
        <time>2017-04-30T06:57:46.000Z</time>
      </trkpt>
      <trkpt lat="44.18926" lon="0.68374">
        <ele>66</ele>
        <time>2017-04-30T06:57:47.000Z</time>
      </trkpt>
      <trkpt lat="44.1893" lon="0.68378">
        <ele>67</ele>
        <time>2017-04-30T06:57:48.000Z</time>
      </trkpt>
      <trkpt lat="44.18933" lon="0.68381">
        <ele>66</ele>
        <time>2017-04-30T06:57:49.000Z</time>
      </trkpt>
      <trkpt lat="44.18936" lon="0.68385">
        <ele>66</ele>
        <time>2017-04-30T06:57:50.000Z</time>
      </trkpt>
      <trkpt lat="44.1894" lon="0.68389">
        <ele>66</ele>
        <time>2017-04-30T06:57:51.000Z</time>
      </trkpt>
      <trkpt lat="44.18943" lon="0.68393">
        <ele>66</ele>
        <time>2017-04-30T06:57:52.000Z</time>
      </trkpt>
      <trkpt lat="44.18946" lon="0.68397">
        <ele>66</ele>
        <time>2017-04-30T06:57:53.000Z</time>
      </trkpt>
      <trkpt lat="44.18949" lon="0.68401">
        <ele>66</ele>
        <time>2017-04-30T06:57:54.000Z</time>
      </trkpt>
      <trkpt lat="44.18952" lon="0.68405">
        <ele>66</ele>
        <time>2017-04-30T06:57:55.000Z</time>
      </trkpt>
      <trkpt lat="44.18955" lon="0.6841">
        <ele>66</ele>
        <time>2017-04-30T06:57:56.000Z</time>
      </trkpt>
      <trkpt lat="44.18958" lon="0.68414">
        <ele>66</ele>
        <time>2017-04-30T06:57:57.000Z</time>
      </trkpt>
      <trkpt lat="44.18961" lon="0.68419">
        <ele>66</ele>
        <time>2017-04-30T06:57:58.000Z</time>
      </trkpt>
      <trkpt lat="44.18963" lon="0.68424">
        <ele>66</ele>
        <time>2017-04-30T06:57:59.000Z</time>
      </trkpt>
      <trkpt lat="44.18966" lon="0.68429">
        <ele>66</ele>
        <time>2017-04-30T06:58:00.000Z</time>
      </trkpt>
      <trkpt lat="44.18969" lon="0.68434">
        <ele>66</ele>
        <time>2017-04-30T06:58:01.000Z</time>
      </trkpt>
      <trkpt lat="44.18971" lon="0.68438">
        <ele>66</ele>
        <time>2017-04-30T06:58:02.000Z</time>
      </trkpt>
      <trkpt lat="44.18974" lon="0.68443">
        <ele>66</ele>
        <time>2017-04-30T06:58:03.000Z</time>
      </trkpt>
      <trkpt lat="44.18976" lon="0.68447">
        <ele>67</ele>
        <time>2017-04-30T06:58:04.000Z</time>
      </trkpt>
      <trkpt lat="44.18979" lon="0.68451">
        <ele>67</ele>
        <time>2017-04-30T06:58:05.000Z</time>
      </trkpt>
      <trkpt lat="44.18981" lon="0.68455">
        <ele>67</ele>
        <time>2017-04-30T06:58:06.000Z</time>
      </trkpt>
      <trkpt lat="44.18984" lon="0.68459">
        <ele>67</ele>
        <time>2017-04-30T06:58:07.000Z</time>
      </trkpt>
      <trkpt lat="44.18987" lon="0.68464">
        <ele>67</ele>
        <time>2017-04-30T06:58:08.000Z</time>
      </trkpt>
      <trkpt lat="44.18989" lon="0.68468">
        <ele>67</ele>
        <time>2017-04-30T06:58:09.000Z</time>
      </trkpt>
      <trkpt lat="44.18992" lon="0.68472">
        <ele>67</ele>
        <time>2017-04-30T06:58:10.000Z</time>
      </trkpt>
      <trkpt lat="44.18995" lon="0.68477">
        <ele>67</ele>
        <time>2017-04-30T06:58:11.000Z</time>
      </trkpt>
      <trkpt lat="44.18998" lon="0.68481">
        <ele>67</ele>
        <time>2017-04-30T06:58:12.000Z</time>
      </trkpt>
      <trkpt lat="44.19001" lon="0.68485">
        <ele>67</ele>
        <time>2017-04-30T06:58:13.000Z</time>
      </trkpt>
      <trkpt lat="44.19004" lon="0.6849">
        <ele>67</ele>
        <time>2017-04-30T06:58:14.000Z</time>
      </trkpt>
      <trkpt lat="44.19007" lon="0.68494">
        <ele>67</ele>
        <time>2017-04-30T06:58:15.000Z</time>
      </trkpt>
      <trkpt lat="44.1901" lon="0.68498">
        <ele>67</ele>
        <time>2017-04-30T06:58:16.000Z</time>
      </trkpt>
      <trkpt lat="44.19013" lon="0.68502">
        <ele>67</ele>
        <time>2017-04-30T06:58:17.000Z</time>
      </trkpt>
      <trkpt lat="44.19016" lon="0.68506">
        <ele>67</ele>
        <time>2017-04-30T06:58:18.000Z</time>
      </trkpt>
      <trkpt lat="44.19019" lon="0.6851">
        <ele>67</ele>
        <time>2017-04-30T06:58:19.000Z</time>
      </trkpt>
      <trkpt lat="44.19023" lon="0.68514">
        <ele>67</ele>
        <time>2017-04-30T06:58:20.000Z</time>
      </trkpt>
      <trkpt lat="44.19026" lon="0.68518">
        <ele>67</ele>
        <time>2017-04-30T06:58:21.000Z</time>
      </trkpt>
      <trkpt lat="44.19029" lon="0.68522">
        <ele>67</ele>
        <time>2017-04-30T06:58:22.000Z</time>
      </trkpt>
      <trkpt lat="44.19032" lon="0.68526">
        <ele>67</ele>
        <time>2017-04-30T06:58:23.000Z</time>
      </trkpt>
      <trkpt lat="44.19035" lon="0.6853">
        <ele>67</ele>
        <time>2017-04-30T06:58:24.000Z</time>
      </trkpt>
      <trkpt lat="44.19038" lon="0.68534">
        <ele>67</ele>
        <time>2017-04-30T06:58:25.000Z</time>
      </trkpt>
      <trkpt lat="44.19041" lon="0.68538">
        <ele>67</ele>
        <time>2017-04-30T06:58:26.000Z</time>
      </trkpt>
      <trkpt lat="44.19044" lon="0.68542">
        <ele>67</ele>
        <time>2017-04-30T06:58:27.000Z</time>
      </trkpt>
      <trkpt lat="44.19047" lon="0.68546">
        <ele>67</ele>
        <time>2017-04-30T06:58:28.000Z</time>
      </trkpt>
      <trkpt lat="44.19051" lon="0.6855">
        <ele>67</ele>
        <time>2017-04-30T06:58:29.000Z</time>
      </trkpt>
      <trkpt lat="44.19054" lon="0.68554">
        <ele>67</ele>
        <time>2017-04-30T06:58:30.000Z</time>
      </trkpt>
      <trkpt lat="44.19057" lon="0.68558">
        <ele>67</ele>
        <time>2017-04-30T06:58:31.000Z</time>
      </trkpt>
      <trkpt lat="44.1906" lon="0.68562">
        <ele>67</ele>
        <time>2017-04-30T06:58:32.000Z</time>
      </trkpt>
      <trkpt lat="44.19063" lon="0.68566">
        <ele>67</ele>
        <time>2017-04-30T06:58:33.000Z</time>
      </trkpt>
      <trkpt lat="44.19066" lon="0.6857">
        <ele>67</ele>
        <time>2017-04-30T06:58:34.000Z</time>
      </trkpt>
      <trkpt lat="44.19069" lon="0.68574">
        <ele>67</ele>
        <time>2017-04-30T06:58:35.000Z</time>
      </trkpt>
      <trkpt lat="44.19072" lon="0.68579">
        <ele>67</ele>
        <time>2017-04-30T06:58:36.000Z</time>
      </trkpt>
      <trkpt lat="44.19075" lon="0.68583">
        <ele>67</ele>
        <time>2017-04-30T06:58:37.000Z</time>
      </trkpt>
      <trkpt lat="44.19079" lon="0.68588">
        <ele>67</ele>
        <time>2017-04-30T06:58:38.000Z</time>
      </trkpt>
      <trkpt lat="44.19081" lon="0.68593">
        <ele>67</ele>
        <time>2017-04-30T06:58:39.000Z</time>
      </trkpt>
      <trkpt lat="44.19084" lon="0.68597">
        <ele>67</ele>
        <time>2017-04-30T06:58:40.000Z</time>
      </trkpt>
      <trkpt lat="44.19087" lon="0.68602">
        <ele>68</ele>
        <time>2017-04-30T06:58:41.000Z</time>
      </trkpt>
      <trkpt lat="44.19089" lon="0.68607">
        <ele>68</ele>
        <time>2017-04-30T06:58:42.000Z</time>
      </trkpt>
      <trkpt lat="44.19092" lon="0.68613">
        <ele>68</ele>
        <time>2017-04-30T06:58:43.000Z</time>
      </trkpt>
      <trkpt lat="44.19094" lon="0.68618">
        <ele>68</ele>
        <time>2017-04-30T06:58:44.000Z</time>
      </trkpt>
      <trkpt lat="44.19096" lon="0.68623">
        <ele>68</ele>
        <time>2017-04-30T06:58:45.000Z</time>
      </trkpt>
      <trkpt lat="44.19098" lon="0.68628">
        <ele>68</ele>
        <time>2017-04-30T06:58:46.000Z</time>
      </trkpt>
      <trkpt lat="44.191" lon="0.68633">
        <ele>68</ele>
        <time>2017-04-30T06:58:47.000Z</time>
      </trkpt>
      <trkpt lat="44.19102" lon="0.68638">
        <ele>68</ele>
        <time>2017-04-30T06:58:48.000Z</time>
      </trkpt>
      <trkpt lat="44.19104" lon="0.68644">
        <ele>68</ele>
        <time>2017-04-30T06:58:49.000Z</time>
      </trkpt>
      <trkpt lat="44.19106" lon="0.68649">
        <ele>68</ele>
        <time>2017-04-30T06:58:50.000Z</time>
      </trkpt>
      <trkpt lat="44.19109" lon="0.68652">
        <ele>68</ele>
        <time>2017-04-30T06:58:51.000Z</time>
      </trkpt>
      <trkpt lat="44.19112" lon="0.68654">
        <ele>68</ele>
        <time>2017-04-30T06:58:52.000Z</time>
      </trkpt>
      <trkpt lat="44.19116" lon="0.68654">
        <ele>69</ele>
        <time>2017-04-30T06:58:53.000Z</time>
      </trkpt>
      <trkpt lat="44.1912" lon="0.68653">
        <ele>69</ele>
        <time>2017-04-30T06:58:54.000Z</time>
      </trkpt>
      <trkpt lat="44.19123" lon="0.6865">
        <ele>69</ele>
        <time>2017-04-30T06:58:55.000Z</time>
      </trkpt>
      <trkpt lat="44.19127" lon="0.68648">
        <ele>69</ele>
        <time>2017-04-30T06:58:56.000Z</time>
      </trkpt>
      <trkpt lat="44.1913" lon="0.68645">
        <ele>70</ele>
        <time>2017-04-30T06:58:57.000Z</time>
      </trkpt>
      <trkpt lat="44.19133" lon="0.68642">
        <ele>70</ele>
        <time>2017-04-30T06:58:58.000Z</time>
      </trkpt>
      <trkpt lat="44.19136" lon="0.6864">
        <ele>70</ele>
        <time>2017-04-30T06:58:59.000Z</time>
      </trkpt>
      <trkpt lat="44.19139" lon="0.68637">
        <ele>70</ele>
        <time>2017-04-30T06:59:00.000Z</time>
      </trkpt>
      <trkpt lat="44.19141" lon="0.68635">
        <ele>70</ele>
        <time>2017-04-30T06:59:01.000Z</time>
      </trkpt>
      <trkpt lat="44.19143" lon="0.68632">
        <ele>70</ele>
        <time>2017-04-30T06:59:02.000Z</time>
      </trkpt>
      <trkpt lat="44.19146" lon="0.68629">
        <ele>70</ele>
        <time>2017-04-30T06:59:03.000Z</time>
      </trkpt>
      <trkpt lat="44.19148" lon="0.68627">
        <ele>70</ele>
        <time>2017-04-30T06:59:04.000Z</time>
      </trkpt>
      <trkpt lat="44.19149" lon="0.68624">
        <ele>71</ele>
        <time>2017-04-30T06:59:05.000Z</time>
      </trkpt>
      <trkpt lat="44.19151" lon="0.68621">
        <ele>71</ele>
        <time>2017-04-30T06:59:06.000Z</time>
      </trkpt>
      <trkpt lat="44.19152" lon="0.68619">
        <ele>71</ele>
        <time>2017-04-30T06:59:07.000Z</time>
      </trkpt>
      <trkpt lat="44.19154" lon="0.68616">
        <ele>71</ele>
        <time>2017-04-30T06:59:08.000Z</time>
      </trkpt>
      <trkpt lat="44.19155" lon="0.68613">
        <ele>72</ele>
        <time>2017-04-30T06:59:09.000Z</time>
      </trkpt>
      <trkpt lat="44.19157" lon="0.6861">
        <ele>73</ele>
        <time>2017-04-30T06:59:10.000Z</time>
      </trkpt>
      <trkpt lat="44.19158" lon="0.68607">
        <ele>73</ele>
        <time>2017-04-30T06:59:11.000Z</time>
      </trkpt>
      <trkpt lat="44.19159" lon="0.68604">
        <ele>73</ele>
        <time>2017-04-30T06:59:12.000Z</time>
      </trkpt>
      <trkpt lat="44.1916" lon="0.68601">
        <ele>74</ele>
        <time>2017-04-30T06:59:13.000Z</time>
      </trkpt>
      <trkpt lat="44.19162" lon="0.68598">
        <ele>74</ele>
        <time>2017-04-30T06:59:14.000Z</time>
      </trkpt>
      <trkpt lat="44.19163" lon="0.68596">
        <ele>74</ele>
        <time>2017-04-30T06:59:15.000Z</time>
      </trkpt>
      <trkpt lat="44.19164" lon="0.68593">
        <ele>74</ele>
        <time>2017-04-30T06:59:16.000Z</time>
      </trkpt>
      <trkpt lat="44.19165" lon="0.6859">
        <ele>74</ele>
        <time>2017-04-30T06:59:17.000Z</time>
      </trkpt>
      <trkpt lat="44.19166" lon="0.68588">
        <ele>75</ele>
        <time>2017-04-30T06:59:18.000Z</time>
      </trkpt>
      <trkpt lat="44.19167" lon="0.68585">
        <ele>75</ele>
        <time>2017-04-30T06:59:19.000Z</time>
      </trkpt>
      <trkpt lat="44.19168" lon="0.68582">
        <ele>75</ele>
        <time>2017-04-30T06:59:20.000Z</time>
      </trkpt>
      <trkpt lat="44.19169" lon="0.68579">
        <ele>75</ele>
        <time>2017-04-30T06:59:21.000Z</time>
      </trkpt>
      <trkpt lat="44.1917" lon="0.68577">
        <ele>75</ele>
        <time>2017-04-30T06:59:22.000Z</time>
      </trkpt>
      <trkpt lat="44.19171" lon="0.68574">
        <ele>75</ele>
        <time>2017-04-30T06:59:23.000Z</time>
      </trkpt>
      <trkpt lat="44.19172" lon="0.68572">
        <ele>75</ele>
        <time>2017-04-30T06:59:24.000Z</time>
      </trkpt>
      <trkpt lat="44.19174" lon="0.68569">
        <ele>75</ele>
        <time>2017-04-30T06:59:25.000Z</time>
      </trkpt>
      <trkpt lat="44.19175" lon="0.68566">
        <ele>76</ele>
        <time>2017-04-30T06:59:26.000Z</time>
      </trkpt>
      <trkpt lat="44.19176" lon="0.68563">
        <ele>76</ele>
        <time>2017-04-30T06:59:27.000Z</time>
      </trkpt>
      <trkpt lat="44.19177" lon="0.68561">
        <ele>76</ele>
        <time>2017-04-30T06:59:28.000Z</time>
      </trkpt>
      <trkpt lat="44.19178" lon="0.68558">
        <ele>77</ele>
        <time>2017-04-30T06:59:29.000Z</time>
      </trkpt>
      <trkpt lat="44.1918" lon="0.68555">
        <ele>77</ele>
        <time>2017-04-30T06:59:30.000Z</time>
      </trkpt>
      <trkpt lat="44.19181" lon="0.68552">
        <ele>78</ele>
        <time>2017-04-30T06:59:31.000Z</time>
      </trkpt>
      <trkpt lat="44.19182" lon="0.68549">
        <ele>78</ele>
        <time>2017-04-30T06:59:32.000Z</time>
      </trkpt>
      <trkpt lat="44.19183" lon="0.68546">
        <ele>78</ele>
        <time>2017-04-30T06:59:33.000Z</time>
      </trkpt>
      <trkpt lat="44.19184" lon="0.68544">
        <ele>79</ele>
        <time>2017-04-30T06:59:34.000Z</time>
      </trkpt>
      <trkpt lat="44.19186" lon="0.68541">
        <ele>79</ele>
        <time>2017-04-30T06:59:35.000Z</time>
      </trkpt>
      <trkpt lat="44.19187" lon="0.68538">
        <ele>79</ele>
        <time>2017-04-30T06:59:36.000Z</time>
      </trkpt>
      <trkpt lat="44.19189" lon="0.68535">
        <ele>80</ele>
        <time>2017-04-30T06:59:37.000Z</time>
      </trkpt>
      <trkpt lat="44.1919" lon="0.68533">
        <ele>80</ele>
        <time>2017-04-30T06:59:38.000Z</time>
      </trkpt>
      <trkpt lat="44.19191" lon="0.6853">
        <ele>80</ele>
        <time>2017-04-30T06:59:39.000Z</time>
      </trkpt>
      <trkpt lat="44.19192" lon="0.68527">
        <ele>79</ele>
        <time>2017-04-30T06:59:40.000Z</time>
      </trkpt>
      <trkpt lat="44.19193" lon="0.68525">
        <ele>80</ele>
        <time>2017-04-30T06:59:41.000Z</time>
      </trkpt>
      <trkpt lat="44.19194" lon="0.68522">
        <ele>79</ele>
        <time>2017-04-30T06:59:42.000Z</time>
      </trkpt>
      <trkpt lat="44.19196" lon="0.68519">
        <ele>80</ele>
        <time>2017-04-30T06:59:43.000Z</time>
      </trkpt>
      <trkpt lat="44.19197" lon="0.68517">
        <ele>80</ele>
        <time>2017-04-30T06:59:44.000Z</time>
      </trkpt>
      <trkpt lat="44.19198" lon="0.68514">
        <ele>81</ele>
        <time>2017-04-30T06:59:45.000Z</time>
      </trkpt>
      <trkpt lat="44.192" lon="0.68511">
        <ele>81</ele>
        <time>2017-04-30T06:59:46.000Z</time>
      </trkpt>
      <trkpt lat="44.19201" lon="0.68509">
        <ele>81</ele>
        <time>2017-04-30T06:59:47.000Z</time>
      </trkpt>
      <trkpt lat="44.19202" lon="0.68506">
        <ele>81</ele>
        <time>2017-04-30T06:59:48.000Z</time>
      </trkpt>
      <trkpt lat="44.19203" lon="0.68503">
        <ele>81</ele>
        <time>2017-04-30T06:59:49.000Z</time>
      </trkpt>
      <trkpt lat="44.19204" lon="0.68501">
        <ele>81</ele>
        <time>2017-04-30T06:59:50.000Z</time>
      </trkpt>
      <trkpt lat="44.19205" lon="0.68499">
        <ele>81</ele>
        <time>2017-04-30T06:59:51.000Z</time>
      </trkpt>
      <trkpt lat="44.19206" lon="0.68497">
        <ele>82</ele>
        <time>2017-04-30T06:59:52.000Z</time>
      </trkpt>
      <trkpt lat="44.19207" lon="0.68494">
        <ele>82</ele>
        <time>2017-04-30T06:59:53.000Z</time>
      </trkpt>
      <trkpt lat="44.19208" lon="0.68492">
        <ele>82</ele>
        <time>2017-04-30T06:59:54.000Z</time>
      </trkpt>
      <trkpt lat="44.19209" lon="0.68489">
        <ele>82</ele>
        <time>2017-04-30T06:59:55.000Z</time>
      </trkpt>
      <trkpt lat="44.1921" lon="0.68487">
        <ele>82</ele>
        <time>2017-04-30T06:59:56.000Z</time>
      </trkpt>
      <trkpt lat="44.19212" lon="0.68485">
        <ele>82</ele>
        <time>2017-04-30T06:59:57.000Z</time>
      </trkpt>
      <trkpt lat="44.19213" lon="0.68482">
        <ele>83</ele>
        <time>2017-04-30T06:59:58.000Z</time>
      </trkpt>
      <trkpt lat="44.19214" lon="0.6848">
        <ele>83</ele>
        <time>2017-04-30T06:59:59.000Z</time>
      </trkpt>
      <trkpt lat="44.19215" lon="0.68478">
        <ele>83</ele>
        <time>2017-04-30T07:00:00.000Z</time>
      </trkpt>
      <trkpt lat="44.19216" lon="0.68476">
        <ele>83</ele>
        <time>2017-04-30T07:00:01.000Z</time>
      </trkpt>
      <trkpt lat="44.19217" lon="0.68474">
        <ele>84</ele>
        <time>2017-04-30T07:00:02.000Z</time>
      </trkpt>
      <trkpt lat="44.19218" lon="0.68471">
        <ele>84</ele>
        <time>2017-04-30T07:00:03.000Z</time>
      </trkpt>
      <trkpt lat="44.19219" lon="0.68469">
        <ele>84</ele>
        <time>2017-04-30T07:00:04.000Z</time>
      </trkpt>
      <trkpt lat="44.19221" lon="0.68467">
        <ele>84</ele>
        <time>2017-04-30T07:00:05.000Z</time>
      </trkpt>
      <trkpt lat="44.19222" lon="0.68465">
        <ele>84</ele>
        <time>2017-04-30T07:00:06.000Z</time>
      </trkpt>
      <trkpt lat="44.19223" lon="0.68463">
        <ele>84</ele>
        <time>2017-04-30T07:00:07.000Z</time>
      </trkpt>
      <trkpt lat="44.19225" lon="0.68461">
        <ele>85</ele>
        <time>2017-04-30T07:00:08.000Z</time>
      </trkpt>
      <trkpt lat="44.19226" lon="0.68459">
        <ele>85</ele>
        <time>2017-04-30T07:00:09.000Z</time>
      </trkpt>
      <trkpt lat="44.19228" lon="0.68458">
        <ele>86</ele>
        <time>2017-04-30T07:00:10.000Z</time>
      </trkpt>
      <trkpt lat="44.1923" lon="0.68457">
        <ele>86</ele>
        <time>2017-04-30T07:00:11.000Z</time>
      </trkpt>
      <trkpt lat="44.19231" lon="0.68455">
        <ele>86</ele>
        <time>2017-04-30T07:00:12.000Z</time>
      </trkpt>
      <trkpt lat="44.19232" lon="0.68454">
        <ele>86</ele>
        <time>2017-04-30T07:00:13.000Z</time>
      </trkpt>
      <trkpt lat="44.19233" lon="0.68453">
        <ele>86</ele>
        <time>2017-04-30T07:00:14.000Z</time>
      </trkpt>
      <trkpt lat="44.19234" lon="0.68451">
        <ele>86</ele>
        <time>2017-04-30T07:00:15.000Z</time>
      </trkpt>
      <trkpt lat="44.19235" lon="0.6845">
        <ele>87</ele>
        <time>2017-04-30T07:00:16.000Z</time>
      </trkpt>
      <trkpt lat="44.19236" lon="0.68448">
        <ele>87</ele>
        <time>2017-04-30T07:00:17.000Z</time>
      </trkpt>
      <trkpt lat="44.19238" lon="0.68447">
        <ele>87</ele>
        <time>2017-04-30T07:00:18.000Z</time>
      </trkpt>
      <trkpt lat="44.19239" lon="0.68446">
        <ele>88</ele>
        <time>2017-04-30T07:00:19.000Z</time>
      </trkpt>
      <trkpt lat="44.1924" lon="0.68444">
        <ele>88</ele>
        <time>2017-04-30T07:00:20.000Z</time>
      </trkpt>
      <trkpt lat="44.19241" lon="0.68443">
        <ele>88</ele>
        <time>2017-04-30T07:00:21.000Z</time>
      </trkpt>
      <trkpt lat="44.19243" lon="0.68442">
        <ele>88</ele>
        <time>2017-04-30T07:00:22.000Z</time>
      </trkpt>
      <trkpt lat="44.19244" lon="0.68443">
        <ele>88</ele>
        <time>2017-04-30T07:00:23.000Z</time>
      </trkpt>
      <trkpt lat="44.19245" lon="0.68443">
        <ele>88</ele>
        <time>2017-04-30T07:00:24.000Z</time>
      </trkpt>
      <trkpt lat="44.19247" lon="0.68443">
        <ele>88</ele>
        <time>2017-04-30T07:00:25.000Z</time>
      </trkpt>
      <trkpt lat="44.19248" lon="0.68444">
        <ele>88</ele>
        <time>2017-04-30T07:00:26.000Z</time>
      </trkpt>
      <trkpt lat="44.1925" lon="0.68445">
        <ele>88</ele>
        <time>2017-04-30T07:00:27.000Z</time>
      </trkpt>
      <trkpt lat="44.19251" lon="0.68446">
        <ele>88</ele>
        <time>2017-04-30T07:00:28.000Z</time>
      </trkpt>
      <trkpt lat="44.19252" lon="0.68447">
        <ele>89</ele>
        <time>2017-04-30T07:00:29.000Z</time>
      </trkpt>
      <trkpt lat="44.19253" lon="0.68448">
        <ele>89</ele>
        <time>2017-04-30T07:00:30.000Z</time>
      </trkpt>
      <trkpt lat="44.19255" lon="0.68449">
        <ele>89</ele>
        <time>2017-04-30T07:00:31.000Z</time>
      </trkpt>
      <trkpt lat="44.19256" lon="0.6845">
        <ele>89</ele>
        <time>2017-04-30T07:00:32.000Z</time>
      </trkpt>
      <trkpt lat="44.19257" lon="0.68451">
        <ele>89</ele>
        <time>2017-04-30T07:00:33.000Z</time>
      </trkpt>
      <trkpt lat="44.19259" lon="0.68452">
        <ele>89</ele>
        <time>2017-04-30T07:00:34.000Z</time>
      </trkpt>
      <trkpt lat="44.1926" lon="0.68453">
        <ele>89</ele>
        <time>2017-04-30T07:00:35.000Z</time>
      </trkpt>
      <trkpt lat="44.19261" lon="0.68454">
        <ele>89</ele>
        <time>2017-04-30T07:00:36.000Z</time>
      </trkpt>
      <trkpt lat="44.19263" lon="0.68455">
        <ele>89</ele>
        <time>2017-04-30T07:00:37.000Z</time>
      </trkpt>
      <trkpt lat="44.19264" lon="0.68456">
        <ele>90</ele>
        <time>2017-04-30T07:00:38.000Z</time>
      </trkpt>
      <trkpt lat="44.19265" lon="0.68457">
        <ele>90</ele>
        <time>2017-04-30T07:00:39.000Z</time>
      </trkpt>
      <trkpt lat="44.19266" lon="0.68458">
        <ele>90</ele>
        <time>2017-04-30T07:00:40.000Z</time>
      </trkpt>
      <trkpt lat="44.19267" lon="0.6846">
        <ele>90</ele>
        <time>2017-04-30T07:00:41.000Z</time>
      </trkpt>
      <trkpt lat="44.19269" lon="0.68461">
        <ele>90</ele>
        <time>2017-04-30T07:00:42.000Z</time>
      </trkpt>
      <trkpt lat="44.1927" lon="0.68461">
        <ele>90</ele>
        <time>2017-04-30T07:00:43.000Z</time>
      </trkpt>
      <trkpt lat="44.19271" lon="0.68463">
        <ele>90</ele>
        <time>2017-04-30T07:00:44.000Z</time>
      </trkpt>
      <trkpt lat="44.19272" lon="0.68464">
        <ele>90</ele>
        <time>2017-04-30T07:00:45.000Z</time>
      </trkpt>
      <trkpt lat="44.19273" lon="0.68465">
        <ele>90</ele>
        <time>2017-04-30T07:00:46.000Z</time>
      </trkpt>
      <trkpt lat="44.19274" lon="0.68466">
        <ele>91</ele>
        <time>2017-04-30T07:00:47.000Z</time>
      </trkpt>
      <trkpt lat="44.19275" lon="0.68467">
        <ele>91</ele>
        <time>2017-04-30T07:00:48.000Z</time>
      </trkpt>
      <trkpt lat="44.19276" lon="0.68468">
        <ele>91</ele>
        <time>2017-04-30T07:00:49.000Z</time>
      </trkpt>
      <trkpt lat="44.19277" lon="0.68469">
        <ele>91</ele>
        <time>2017-04-30T07:00:50.000Z</time>
      </trkpt>
      <trkpt lat="44.19278" lon="0.6847">
        <ele>91</ele>
        <time>2017-04-30T07:00:51.000Z</time>
      </trkpt>
      <trkpt lat="44.19279" lon="0.68471">
        <ele>91</ele>
        <time>2017-04-30T07:00:52.000Z</time>
      </trkpt>
      <trkpt lat="44.1928" lon="0.68472">
        <ele>91</ele>
        <time>2017-04-30T07:00:53.000Z</time>
      </trkpt>
      <trkpt lat="44.19281" lon="0.68473">
        <ele>92</ele>
        <time>2017-04-30T07:00:54.000Z</time>
      </trkpt>
      <trkpt lat="44.19283" lon="0.68474">
        <ele>92</ele>
        <time>2017-04-30T07:00:55.000Z</time>
      </trkpt>
      <trkpt lat="44.19284" lon="0.68475">
        <ele>92</ele>
        <time>2017-04-30T07:00:56.000Z</time>
      </trkpt>
      <trkpt lat="44.19285" lon="0.68476">
        <ele>92</ele>
        <time>2017-04-30T07:00:57.000Z</time>
      </trkpt>
      <trkpt lat="44.19286" lon="0.68477">
        <ele>92</ele>
        <time>2017-04-30T07:00:58.000Z</time>
      </trkpt>
      <trkpt lat="44.19287" lon="0.68478">
        <ele>92</ele>
        <time>2017-04-30T07:00:59.000Z</time>
      </trkpt>
      <trkpt lat="44.19288" lon="0.68479">
        <ele>93</ele>
        <time>2017-04-30T07:01:00.000Z</time>
      </trkpt>
      <trkpt lat="44.19289" lon="0.68479">
        <ele>93</ele>
        <time>2017-04-30T07:01:01.000Z</time>
      </trkpt>
      <trkpt lat="44.1929" lon="0.6848">
        <ele>93</ele>
        <time>2017-04-30T07:01:02.000Z</time>
      </trkpt>
      <trkpt lat="44.19291" lon="0.68481">
        <ele>93</ele>
        <time>2017-04-30T07:01:03.000Z</time>
      </trkpt>
      <trkpt lat="44.19292" lon="0.68482">
        <ele>94</ele>
        <time>2017-04-30T07:01:04.000Z</time>
      </trkpt>
      <trkpt lat="44.19293" lon="0.68483">
        <ele>94</ele>
        <time>2017-04-30T07:01:05.000Z</time>
      </trkpt>
      <trkpt lat="44.19294" lon="0.68484">
        <ele>94</ele>
        <time>2017-04-30T07:01:06.000Z</time>
      </trkpt>
      <trkpt lat="44.19295" lon="0.68485">
        <ele>94</ele>
        <time>2017-04-30T07:01:07.000Z</time>
      </trkpt>
      <trkpt lat="44.19296" lon="0.68486">
        <ele>95</ele>
        <time>2017-04-30T07:01:08.000Z</time>
      </trkpt>
      <trkpt lat="44.19297" lon="0.68487">
        <ele>95</ele>
        <time>2017-04-30T07:01:09.000Z</time>
      </trkpt>
      <trkpt lat="44.19298" lon="0.68488">
        <ele>95</ele>
        <time>2017-04-30T07:01:10.000Z</time>
      </trkpt>
      <trkpt lat="44.19299" lon="0.68489">
        <ele>95</ele>
        <time>2017-04-30T07:01:11.000Z</time>
      </trkpt>
      <trkpt lat="44.193" lon="0.6849">
        <ele>95</ele>
        <time>2017-04-30T07:01:12.000Z</time>
      </trkpt>
      <trkpt lat="44.19301" lon="0.68491">
        <ele>96</ele>
        <time>2017-04-30T07:01:13.000Z</time>
      </trkpt>
      <trkpt lat="44.19302" lon="0.68492">
        <ele>96</ele>
        <time>2017-04-30T07:01:14.000Z</time>
      </trkpt>
      <trkpt lat="44.19303" lon="0.68493">
        <ele>96</ele>
        <time>2017-04-30T07:01:15.000Z</time>
      </trkpt>
      <trkpt lat="44.19304" lon="0.68494">
        <ele>96</ele>
        <time>2017-04-30T07:01:16.000Z</time>
      </trkpt>
      <trkpt lat="44.19305" lon="0.68495">
        <ele>97</ele>
        <time>2017-04-30T07:01:17.000Z</time>
      </trkpt>
      <trkpt lat="44.19306" lon="0.68496">
        <ele>97</ele>
        <time>2017-04-30T07:01:18.000Z</time>
      </trkpt>
      <trkpt lat="44.19307" lon="0.68497">
        <ele>97</ele>
        <time>2017-04-30T07:01:19.000Z</time>
      </trkpt>
      <trkpt lat="44.19308" lon="0.68498">
        <ele>97</ele>
        <time>2017-04-30T07:01:20.000Z</time>
      </trkpt>
      <trkpt lat="44.19309" lon="0.68499">
        <ele>98</ele>
        <time>2017-04-30T07:01:21.000Z</time>
      </trkpt>
      <trkpt lat="44.19311" lon="0.685">
        <ele>98</ele>
        <time>2017-04-30T07:01:22.000Z</time>
      </trkpt>
      <trkpt lat="44.19312" lon="0.68501">
        <ele>98</ele>
        <time>2017-04-30T07:01:23.000Z</time>
      </trkpt>
      <trkpt lat="44.19313" lon="0.68502">
        <ele>98</ele>
        <time>2017-04-30T07:01:24.000Z</time>
      </trkpt>
      <trkpt lat="44.19314" lon="0.68503">
        <ele>98</ele>
        <time>2017-04-30T07:01:25.000Z</time>
      </trkpt>
      <trkpt lat="44.19315" lon="0.68504">
        <ele>99</ele>
        <time>2017-04-30T07:01:26.000Z</time>
      </trkpt>
      <trkpt lat="44.19316" lon="0.68505">
        <ele>99</ele>
        <time>2017-04-30T07:01:27.000Z</time>
      </trkpt>
      <trkpt lat="44.19317" lon="0.68506">
        <ele>99</ele>
        <time>2017-04-30T07:01:28.000Z</time>
      </trkpt>
      <trkpt lat="44.19318" lon="0.68507">
        <ele>100</ele>
        <time>2017-04-30T07:01:29.000Z</time>
      </trkpt>
      <trkpt lat="44.19319" lon="0.68508">
        <ele>100</ele>
        <time>2017-04-30T07:01:30.000Z</time>
      </trkpt>
      <trkpt lat="44.1932" lon="0.68509">
        <ele>100</ele>
        <time>2017-04-30T07:01:31.000Z</time>
      </trkpt>
      <trkpt lat="44.19321" lon="0.6851">
        <ele>100</ele>
        <time>2017-04-30T07:01:32.000Z</time>
      </trkpt>
      <trkpt lat="44.19322" lon="0.68511">
        <ele>101</ele>
        <time>2017-04-30T07:01:33.000Z</time>
      </trkpt>
      <trkpt lat="44.19323" lon="0.68512">
        <ele>101</ele>
        <time>2017-04-30T07:01:34.000Z</time>
      </trkpt>
      <trkpt lat="44.19324" lon="0.68513">
        <ele>101</ele>
        <time>2017-04-30T07:01:35.000Z</time>
      </trkpt>
      <trkpt lat="44.19325" lon="0.68514">
        <ele>102</ele>
        <time>2017-04-30T07:01:36.000Z</time>
      </trkpt>
      <trkpt lat="44.19326" lon="0.68515">
        <ele>102</ele>
        <time>2017-04-30T07:01:37.000Z</time>
      </trkpt>
      <trkpt lat="44.19328" lon="0.68516">
        <ele>102</ele>
        <time>2017-04-30T07:01:38.000Z</time>
      </trkpt>
      <trkpt lat="44.19329" lon="0.68517">
        <ele>102</ele>
        <time>2017-04-30T07:01:39.000Z</time>
      </trkpt>
      <trkpt lat="44.1933" lon="0.68518">
        <ele>103</ele>
        <time>2017-04-30T07:01:40.000Z</time>
      </trkpt>
      <trkpt lat="44.19331" lon="0.68519">
        <ele>103</ele>
        <time>2017-04-30T07:01:41.000Z</time>
      </trkpt>
      <trkpt lat="44.19332" lon="0.6852">
        <ele>103</ele>
        <time>2017-04-30T07:01:42.000Z</time>
      </trkpt>
      <trkpt lat="44.19333" lon="0.68521">
        <ele>103</ele>
        <time>2017-04-30T07:01:43.000Z</time>
      </trkpt>
      <trkpt lat="44.19334" lon="0.68522">
        <ele>103</ele>
        <time>2017-04-30T07:01:44.000Z</time>
      </trkpt>
      <trkpt lat="44.19335" lon="0.68523">
        <ele>104</ele>
        <time>2017-04-30T07:01:45.000Z</time>
      </trkpt>
      <trkpt lat="44.19336" lon="0.68524">
        <ele>104</ele>
        <time>2017-04-30T07:01:46.000Z</time>
      </trkpt>
      <trkpt lat="44.19337" lon="0.68525">
        <ele>104</ele>
        <time>2017-04-30T07:01:47.000Z</time>
      </trkpt>
      <trkpt lat="44.19339" lon="0.68526">
        <ele>104</ele>
        <time>2017-04-30T07:01:48.000Z</time>
      </trkpt>
      <trkpt lat="44.1934" lon="0.68527">
        <ele>105</ele>
        <time>2017-04-30T07:01:49.000Z</time>
      </trkpt>
      <trkpt lat="44.19341" lon="0.68528">
        <ele>105</ele>
        <time>2017-04-30T07:01:50.000Z</time>
      </trkpt>
      <trkpt lat="44.19342" lon="0.68529">
        <ele>105</ele>
        <time>2017-04-30T07:01:51.000Z</time>
      </trkpt>
      <trkpt lat="44.19343" lon="0.6853">
        <ele>105</ele>
        <time>2017-04-30T07:01:52.000Z</time>
      </trkpt>
      <trkpt lat="44.19344" lon="0.68532">
        <ele>106</ele>
        <time>2017-04-30T07:01:53.000Z</time>
      </trkpt>
      <trkpt lat="44.19346" lon="0.68533">
        <ele>106</ele>
        <time>2017-04-30T07:01:54.000Z</time>
      </trkpt>
      <trkpt lat="44.19347" lon="0.68534">
        <ele>106</ele>
        <time>2017-04-30T07:01:55.000Z</time>
      </trkpt>
      <trkpt lat="44.19348" lon="0.68535">
        <ele>106</ele>
        <time>2017-04-30T07:01:56.000Z</time>
      </trkpt>
      <trkpt lat="44.19349" lon="0.68536">
        <ele>107</ele>
        <time>2017-04-30T07:01:57.000Z</time>
      </trkpt>
      <trkpt lat="44.1935" lon="0.68537">
        <ele>107</ele>
        <time>2017-04-30T07:01:58.000Z</time>
      </trkpt>
      <trkpt lat="44.19351" lon="0.68538">
        <ele>107</ele>
        <time>2017-04-30T07:01:59.000Z</time>
      </trkpt>
      <trkpt lat="44.19353" lon="0.6854">
        <ele>108</ele>
        <time>2017-04-30T07:02:00.000Z</time>
      </trkpt>
      <trkpt lat="44.19354" lon="0.68541">
        <ele>108</ele>
        <time>2017-04-30T07:02:01.000Z</time>
      </trkpt>
      <trkpt lat="44.19355" lon="0.68542">
        <ele>108</ele>
        <time>2017-04-30T07:02:02.000Z</time>
      </trkpt>
      <trkpt lat="44.19357" lon="0.68543">
        <ele>108</ele>
        <time>2017-04-30T07:02:03.000Z</time>
      </trkpt>
      <trkpt lat="44.19358" lon="0.68544">
        <ele>109</ele>
        <time>2017-04-30T07:02:04.000Z</time>
      </trkpt>
      <trkpt lat="44.19359" lon="0.68546">
        <ele>109</ele>
        <time>2017-04-30T07:02:05.000Z</time>
      </trkpt>
      <trkpt lat="44.1936" lon="0.68547">
        <ele>109</ele>
        <time>2017-04-30T07:02:06.000Z</time>
      </trkpt>
      <trkpt lat="44.19361" lon="0.68549">
        <ele>109</ele>
        <time>2017-04-30T07:02:07.000Z</time>
      </trkpt>
      <trkpt lat="44.19363" lon="0.6855">
        <ele>109</ele>
        <time>2017-04-30T07:02:08.000Z</time>
      </trkpt>
      <trkpt lat="44.19364" lon="0.68551">
        <ele>109</ele>
        <time>2017-04-30T07:02:09.000Z</time>
      </trkpt>
      <trkpt lat="44.19366" lon="0.6855">
        <ele>109</ele>
        <time>2017-04-30T07:02:10.000Z</time>
      </trkpt>
      <trkpt lat="44.19368" lon="0.6855">
        <ele>110</ele>
        <time>2017-04-30T07:02:11.000Z</time>
      </trkpt>
      <trkpt lat="44.1937" lon="0.68549">
        <ele>110</ele>
        <time>2017-04-30T07:02:12.000Z</time>
      </trkpt>
      <trkpt lat="44.19372" lon="0.68548">
        <ele>110</ele>
        <time>2017-04-30T07:02:13.000Z</time>
      </trkpt>
      <trkpt lat="44.19373" lon="0.68546">
        <ele>110</ele>
        <time>2017-04-30T07:02:14.000Z</time>
      </trkpt>
      <trkpt lat="44.19375" lon="0.68545">
        <ele>110</ele>
        <time>2017-04-30T07:02:15.000Z</time>
      </trkpt>
      <trkpt lat="44.19377" lon="0.68543">
        <ele>110</ele>
        <time>2017-04-30T07:02:16.000Z</time>
      </trkpt>
      <trkpt lat="44.19379" lon="0.68541">
        <ele>111</ele>
        <time>2017-04-30T07:02:17.000Z</time>
      </trkpt>
      <trkpt lat="44.19381" lon="0.68539">
        <ele>111</ele>
        <time>2017-04-30T07:02:18.000Z</time>
      </trkpt>
      <trkpt lat="44.19383" lon="0.68536">
        <ele>111</ele>
        <time>2017-04-30T07:02:19.000Z</time>
      </trkpt>
      <trkpt lat="44.19386" lon="0.68534">
        <ele>111</ele>
        <time>2017-04-30T07:02:20.000Z</time>
      </trkpt>
      <trkpt lat="44.19389" lon="0.68531">
        <ele>112</ele>
        <time>2017-04-30T07:02:21.000Z</time>
      </trkpt>
      <trkpt lat="44.19392" lon="0.68529">
        <ele>112</ele>
        <time>2017-04-30T07:02:22.000Z</time>
      </trkpt>
      <trkpt lat="44.19395" lon="0.68527">
        <ele>112</ele>
        <time>2017-04-30T07:02:23.000Z</time>
      </trkpt>
      <trkpt lat="44.19398" lon="0.68525">
        <ele>112</ele>
        <time>2017-04-30T07:02:24.000Z</time>
      </trkpt>
      <trkpt lat="44.19401" lon="0.68522">
        <ele>112</ele>
        <time>2017-04-30T07:02:25.000Z</time>
      </trkpt>
      <trkpt lat="44.19403" lon="0.6852">
        <ele>112</ele>
        <time>2017-04-30T07:02:26.000Z</time>
      </trkpt>
      <trkpt lat="44.19406" lon="0.68518">
        <ele>113</ele>
        <time>2017-04-30T07:02:27.000Z</time>
      </trkpt>
      <trkpt lat="44.19409" lon="0.68515">
        <ele>113</ele>
        <time>2017-04-30T07:02:28.000Z</time>
      </trkpt>
      <trkpt lat="44.19411" lon="0.68513">
        <ele>113</ele>
        <time>2017-04-30T07:02:29.000Z</time>
      </trkpt>
      <trkpt lat="44.19414" lon="0.68511">
        <ele>113</ele>
        <time>2017-04-30T07:02:30.000Z</time>
      </trkpt>
      <trkpt lat="44.19417" lon="0.68508">
        <ele>113</ele>
        <time>2017-04-30T07:02:31.000Z</time>
      </trkpt>
      <trkpt lat="44.1942" lon="0.68506">
        <ele>114</ele>
        <time>2017-04-30T07:02:32.000Z</time>
      </trkpt>
      <trkpt lat="44.19423" lon="0.68504">
        <ele>114</ele>
        <time>2017-04-30T07:02:33.000Z</time>
      </trkpt>
      <trkpt lat="44.19426" lon="0.68502">
        <ele>114</ele>
        <time>2017-04-30T07:02:34.000Z</time>
      </trkpt>
      <trkpt lat="44.19428" lon="0.685">
        <ele>115</ele>
        <time>2017-04-30T07:02:35.000Z</time>
      </trkpt>
      <trkpt lat="44.19431" lon="0.68498">
        <ele>115</ele>
        <time>2017-04-30T07:02:36.000Z</time>
      </trkpt>
      <trkpt lat="44.19433" lon="0.68496">
        <ele>115</ele>
        <time>2017-04-30T07:02:37.000Z</time>
      </trkpt>
      <trkpt lat="44.19436" lon="0.68493">
        <ele>116</ele>
        <time>2017-04-30T07:02:38.000Z</time>
      </trkpt>
      <trkpt lat="44.19439" lon="0.68491">
        <ele>116</ele>
        <time>2017-04-30T07:02:39.000Z</time>
      </trkpt>
      <trkpt lat="44.19441" lon="0.68489">
        <ele>116</ele>
        <time>2017-04-30T07:02:40.000Z</time>
      </trkpt>
      <trkpt lat="44.19444" lon="0.68487">
        <ele>116</ele>
        <time>2017-04-30T07:02:41.000Z</time>
      </trkpt>
      <trkpt lat="44.19446" lon="0.68485">
        <ele>117</ele>
        <time>2017-04-30T07:02:42.000Z</time>
      </trkpt>
      <trkpt lat="44.19448" lon="0.68483">
        <ele>117</ele>
        <time>2017-04-30T07:02:43.000Z</time>
      </trkpt>
      <trkpt lat="44.19451" lon="0.68481">
        <ele>117</ele>
        <time>2017-04-30T07:02:44.000Z</time>
      </trkpt>
      <trkpt lat="44.19453" lon="0.68479">
        <ele>117</ele>
        <time>2017-04-30T07:02:45.000Z</time>
      </trkpt>
      <trkpt lat="44.19456" lon="0.68477">
        <ele>118</ele>
        <time>2017-04-30T07:02:46.000Z</time>
      </trkpt>
      <trkpt lat="44.19458" lon="0.68475">
        <ele>118</ele>
        <time>2017-04-30T07:02:47.000Z</time>
      </trkpt>
      <trkpt lat="44.1946" lon="0.68473">
        <ele>118</ele>
        <time>2017-04-30T07:02:48.000Z</time>
      </trkpt>
      <trkpt lat="44.19462" lon="0.68471">
        <ele>119</ele>
        <time>2017-04-30T07:02:49.000Z</time>
      </trkpt>
      <trkpt lat="44.19465" lon="0.68469">
        <ele>120</ele>
        <time>2017-04-30T07:02:50.000Z</time>
      </trkpt>
      <trkpt lat="44.19467" lon="0.68467">
        <ele>120</ele>
        <time>2017-04-30T07:02:51.000Z</time>
      </trkpt>
      <trkpt lat="44.1947" lon="0.68465">
        <ele>120</ele>
        <time>2017-04-30T07:02:52.000Z</time>
      </trkpt>
      <trkpt lat="44.19472" lon="0.68463">
        <ele>120</ele>
        <time>2017-04-30T07:02:53.000Z</time>
      </trkpt>
      <trkpt lat="44.19474" lon="0.68461">
        <ele>120</ele>
        <time>2017-04-30T07:02:54.000Z</time>
      </trkpt>
      <trkpt lat="44.19476" lon="0.68459">
        <ele>120</ele>
        <time>2017-04-30T07:02:55.000Z</time>
      </trkpt>
      <trkpt lat="44.19478" lon="0.68457">
        <ele>120</ele>
        <time>2017-04-30T07:02:56.000Z</time>
      </trkpt>
      <trkpt lat="44.19481" lon="0.68455">
        <ele>120</ele>
        <time>2017-04-30T07:02:57.000Z</time>
      </trkpt>
      <trkpt lat="44.19483" lon="0.68453">
        <ele>120</ele>
        <time>2017-04-30T07:02:58.000Z</time>
      </trkpt>
      <trkpt lat="44.19485" lon="0.68451">
        <ele>120</ele>
        <time>2017-04-30T07:02:59.000Z</time>
      </trkpt>
      <trkpt lat="44.19488" lon="0.68449">
        <ele>120</ele>
        <time>2017-04-30T07:03:00.000Z</time>
      </trkpt>
      <trkpt lat="44.1949" lon="0.68448">
        <ele>120</ele>
        <time>2017-04-30T07:03:01.000Z</time>
      </trkpt>
      <trkpt lat="44.19492" lon="0.68446">
        <ele>120</ele>
        <time>2017-04-30T07:03:02.000Z</time>
      </trkpt>
      <trkpt lat="44.19494" lon="0.68444">
        <ele>120</ele>
        <time>2017-04-30T07:03:03.000Z</time>
      </trkpt>
      <trkpt lat="44.19496" lon="0.68442">
        <ele>120</ele>
        <time>2017-04-30T07:03:04.000Z</time>
      </trkpt>
      <trkpt lat="44.19498" lon="0.6844">
        <ele>120</ele>
        <time>2017-04-30T07:03:05.000Z</time>
      </trkpt>
      <trkpt lat="44.195" lon="0.68438">
        <ele>121</ele>
        <time>2017-04-30T07:03:06.000Z</time>
      </trkpt>
      <trkpt lat="44.19502" lon="0.68437">
        <ele>121</ele>
        <time>2017-04-30T07:03:07.000Z</time>
      </trkpt>
      <trkpt lat="44.19504" lon="0.68435">
        <ele>121</ele>
        <time>2017-04-30T07:03:08.000Z</time>
      </trkpt>
      <trkpt lat="44.19506" lon="0.68433">
        <ele>121</ele>
        <time>2017-04-30T07:03:09.000Z</time>
      </trkpt>
      <trkpt lat="44.19508" lon="0.68431">
        <ele>121</ele>
        <time>2017-04-30T07:03:10.000Z</time>
      </trkpt>
      <trkpt lat="44.19509" lon="0.6843">
        <ele>122</ele>
        <time>2017-04-30T07:03:11.000Z</time>
      </trkpt>
      <trkpt lat="44.19511" lon="0.68428">
        <ele>122</ele>
        <time>2017-04-30T07:03:12.000Z</time>
      </trkpt>
      <trkpt lat="44.19513" lon="0.68426">
        <ele>122</ele>
        <time>2017-04-30T07:03:13.000Z</time>
      </trkpt>
      <trkpt lat="44.19514" lon="0.68425">
        <ele>122</ele>
        <time>2017-04-30T07:03:14.000Z</time>
      </trkpt>
      <trkpt lat="44.19516" lon="0.68423">
        <ele>123</ele>
        <time>2017-04-30T07:03:15.000Z</time>
      </trkpt>
      <trkpt lat="44.19518" lon="0.68422">
        <ele>123</ele>
        <time>2017-04-30T07:03:16.000Z</time>
      </trkpt>
      <trkpt lat="44.1952" lon="0.6842">
        <ele>123</ele>
        <time>2017-04-30T07:03:17.000Z</time>
      </trkpt>
      <trkpt lat="44.19522" lon="0.68418">
        <ele>124</ele>
        <time>2017-04-30T07:03:18.000Z</time>
      </trkpt>
      <trkpt lat="44.19523" lon="0.68417">
        <ele>124</ele>
        <time>2017-04-30T07:03:19.000Z</time>
      </trkpt>
      <trkpt lat="44.19525" lon="0.68415">
        <ele>124</ele>
        <time>2017-04-30T07:03:20.000Z</time>
      </trkpt>
      <trkpt lat="44.19527" lon="0.68414">
        <ele>124</ele>
        <time>2017-04-30T07:03:21.000Z</time>
      </trkpt>
      <trkpt lat="44.19528" lon="0.68412">
        <ele>125</ele>
        <time>2017-04-30T07:03:22.000Z</time>
      </trkpt>
      <trkpt lat="44.1953" lon="0.68411">
        <ele>125</ele>
        <time>2017-04-30T07:03:23.000Z</time>
      </trkpt>
      <trkpt lat="44.19532" lon="0.6841">
        <ele>126</ele>
        <time>2017-04-30T07:03:24.000Z</time>
      </trkpt>
      <trkpt lat="44.19533" lon="0.68408">
        <ele>126</ele>
        <time>2017-04-30T07:03:25.000Z</time>
      </trkpt>
      <trkpt lat="44.19535" lon="0.68407">
        <ele>127</ele>
        <time>2017-04-30T07:03:26.000Z</time>
      </trkpt>
      <trkpt lat="44.19536" lon="0.68406">
        <ele>127</ele>
        <time>2017-04-30T07:03:27.000Z</time>
      </trkpt>
      <trkpt lat="44.19538" lon="0.68405">
        <ele>127</ele>
        <time>2017-04-30T07:03:28.000Z</time>
      </trkpt>
      <trkpt lat="44.19539" lon="0.68403">
        <ele>128</ele>
        <time>2017-04-30T07:03:29.000Z</time>
      </trkpt>
      <trkpt lat="44.1954" lon="0.68402">
        <ele>128</ele>
        <time>2017-04-30T07:03:30.000Z</time>
      </trkpt>
      <trkpt lat="44.19542" lon="0.68401">
        <ele>128</ele>
        <time>2017-04-30T07:03:31.000Z</time>
      </trkpt>
      <trkpt lat="44.19543" lon="0.684">
        <ele>129</ele>
        <time>2017-04-30T07:03:32.000Z</time>
      </trkpt>
      <trkpt lat="44.19544" lon="0.68399">
        <ele>129</ele>
        <time>2017-04-30T07:03:33.000Z</time>
      </trkpt>
      <trkpt lat="44.19545" lon="0.68397">
        <ele>129</ele>
        <time>2017-04-30T07:03:34.000Z</time>
      </trkpt>
      <trkpt lat="44.19546" lon="0.68396">
        <ele>129</ele>
        <time>2017-04-30T07:03:35.000Z</time>
      </trkpt>
      <trkpt lat="44.19547" lon="0.68395">
        <ele>130</ele>
        <time>2017-04-30T07:03:36.000Z</time>
      </trkpt>
      <trkpt lat="44.19548" lon="0.68393">
        <ele>131</ele>
        <time>2017-04-30T07:03:37.000Z</time>
      </trkpt>
      <trkpt lat="44.19549" lon="0.68392">
        <ele>131</ele>
        <time>2017-04-30T07:03:38.000Z</time>
      </trkpt>
      <trkpt lat="44.1955" lon="0.6839">
        <ele>132</ele>
        <time>2017-04-30T07:03:39.000Z</time>
      </trkpt>
      <trkpt lat="44.19551" lon="0.68388">
        <ele>132</ele>
        <time>2017-04-30T07:03:40.000Z</time>
      </trkpt>
      <trkpt lat="44.19553" lon="0.68387">
        <ele>133</ele>
        <time>2017-04-30T07:03:41.000Z</time>
      </trkpt>
      <trkpt lat="44.19554" lon="0.68385">
        <ele>134</ele>
        <time>2017-04-30T07:03:42.000Z</time>
      </trkpt>
      <trkpt lat="44.19554" lon="0.68384">
        <ele>135</ele>
        <time>2017-04-30T07:03:43.000Z</time>
      </trkpt>
      <trkpt lat="44.19555" lon="0.68383">
        <ele>135</ele>
        <time>2017-04-30T07:03:44.000Z</time>
      </trkpt>
      <trkpt lat="44.19556" lon="0.68382">
        <ele>135</ele>
        <time>2017-04-30T07:03:45.000Z</time>
      </trkpt>
      <trkpt lat="44.19558" lon="0.6838">
        <ele>135</ele>
        <time>2017-04-30T07:03:46.000Z</time>
      </trkpt>
      <trkpt lat="44.1956" lon="0.68377">
        <ele>135</ele>
        <time>2017-04-30T07:03:47.000Z</time>
      </trkpt>
      <trkpt lat="44.19561" lon="0.68376">
        <ele>135</ele>
        <time>2017-04-30T07:03:48.000Z</time>
      </trkpt>
      <trkpt lat="44.19562" lon="0.68375">
        <ele>136</ele>
        <time>2017-04-30T07:03:49.000Z</time>
      </trkpt>
      <trkpt lat="44.19563" lon="0.68374">
        <ele>136</ele>
        <time>2017-04-30T07:03:50.000Z</time>
      </trkpt>
      <trkpt lat="44.19564" lon="0.68372">
        <ele>136</ele>
        <time>2017-04-30T07:03:51.000Z</time>
      </trkpt>
      <trkpt lat="44.19565" lon="0.68371">
        <ele>137</ele>
        <time>2017-04-30T07:03:52.000Z</time>
      </trkpt>
      <trkpt lat="44.19566" lon="0.6837">
        <ele>137</ele>
        <time>2017-04-30T07:03:53.000Z</time>
      </trkpt>
      <trkpt lat="44.19567" lon="0.68369">
        <ele>137</ele>
        <time>2017-04-30T07:03:54.000Z</time>
      </trkpt>
      <trkpt lat="44.19568" lon="0.68368">
        <ele>138</ele>
        <time>2017-04-30T07:03:55.000Z</time>
      </trkpt>
      <trkpt lat="44.19569" lon="0.68368">
        <ele>138</ele>
        <time>2017-04-30T07:03:56.000Z</time>
      </trkpt>
      <trkpt lat="44.1957" lon="0.68367">
        <ele>139</ele>
        <time>2017-04-30T07:03:57.000Z</time>
      </trkpt>
      <trkpt lat="44.19571" lon="0.68366">
        <ele>139</ele>
        <time>2017-04-30T07:03:58.000Z</time>
      </trkpt>
      <trkpt lat="44.19572" lon="0.68366">
        <ele>139</ele>
        <time>2017-04-30T07:03:59.000Z</time>
      </trkpt>
      <trkpt lat="44.19573" lon="0.68365">
        <ele>140</ele>
        <time>2017-04-30T07:04:00.000Z</time>
      </trkpt>
      <trkpt lat="44.19574" lon="0.68364">
        <ele>140</ele>
        <time>2017-04-30T07:04:01.000Z</time>
      </trkpt>
      <trkpt lat="44.19576" lon="0.68363">
        <ele>140</ele>
        <time>2017-04-30T07:04:02.000Z</time>
      </trkpt>
      <trkpt lat="44.19577" lon="0.68362">
        <ele>140</ele>
        <time>2017-04-30T07:04:03.000Z</time>
      </trkpt>
      <trkpt lat="44.19578" lon="0.68362">
        <ele>141</ele>
        <time>2017-04-30T07:04:04.000Z</time>
      </trkpt>
      <trkpt lat="44.1958" lon="0.6836">
        <ele>141</ele>
        <time>2017-04-30T07:04:05.000Z</time>
      </trkpt>
      <trkpt lat="44.19581" lon="0.68359">
        <ele>141</ele>
        <time>2017-04-30T07:04:06.000Z</time>
      </trkpt>
      <trkpt lat="44.19582" lon="0.68358">
        <ele>142</ele>
        <time>2017-04-30T07:04:07.000Z</time>
      </trkpt>
      <trkpt lat="44.19584" lon="0.68356">
        <ele>142</ele>
        <time>2017-04-30T07:04:08.000Z</time>
      </trkpt>
      <trkpt lat="44.19584" lon="0.68356">
        <ele>143</ele>
        <time>2017-04-30T07:04:09.000Z</time>
      </trkpt>
      <trkpt lat="44.19585" lon="0.68355">
        <ele>144</ele>
        <time>2017-04-30T07:04:10.000Z</time>
      </trkpt>
      <trkpt lat="44.19587" lon="0.68354">
        <ele>144</ele>
        <time>2017-04-30T07:04:11.000Z</time>
      </trkpt>
      <trkpt lat="44.19588" lon="0.68353">
        <ele>145</ele>
        <time>2017-04-30T07:04:12.000Z</time>
      </trkpt>
      <trkpt lat="44.1959" lon="0.68352">
        <ele>145</ele>
        <time>2017-04-30T07:04:13.000Z</time>
      </trkpt>
      <trkpt lat="44.19591" lon="0.68351">
        <ele>145</ele>
        <time>2017-04-30T07:04:14.000Z</time>
      </trkpt>
      <trkpt lat="44.19592" lon="0.6835">
        <ele>146</ele>
        <time>2017-04-30T07:04:15.000Z</time>
      </trkpt>
      <trkpt lat="44.19594" lon="0.68348">
        <ele>146</ele>
        <time>2017-04-30T07:04:16.000Z</time>
      </trkpt>
      <trkpt lat="44.19595" lon="0.68346">
        <ele>146</ele>
        <time>2017-04-30T07:04:17.000Z</time>
      </trkpt>
      <trkpt lat="44.19596" lon="0.68345">
        <ele>147</ele>
        <time>2017-04-30T07:04:18.000Z</time>
      </trkpt>
      <trkpt lat="44.19598" lon="0.68344">
        <ele>147</ele>
        <time>2017-04-30T07:04:19.000Z</time>
      </trkpt>
      <trkpt lat="44.19599" lon="0.68342">
        <ele>148</ele>
        <time>2017-04-30T07:04:20.000Z</time>
      </trkpt>
      <trkpt lat="44.196" lon="0.68341">
        <ele>148</ele>
        <time>2017-04-30T07:04:21.000Z</time>
      </trkpt>
      <trkpt lat="44.19602" lon="0.68339">
        <ele>149</ele>
        <time>2017-04-30T07:04:22.000Z</time>
      </trkpt>
      <trkpt lat="44.19604" lon="0.68337">
        <ele>150</ele>
        <time>2017-04-30T07:04:23.000Z</time>
      </trkpt>
      <trkpt lat="44.19606" lon="0.68335">
        <ele>150</ele>
        <time>2017-04-30T07:04:24.000Z</time>
      </trkpt>
      <trkpt lat="44.19608" lon="0.68333">
        <ele>151</ele>
        <time>2017-04-30T07:04:25.000Z</time>
      </trkpt>
      <trkpt lat="44.19611" lon="0.6833">
        <ele>151</ele>
        <time>2017-04-30T07:04:26.000Z</time>
      </trkpt>
      <trkpt lat="44.19614" lon="0.68329">
        <ele>152</ele>
        <time>2017-04-30T07:04:27.000Z</time>
      </trkpt>
      <trkpt lat="44.19616" lon="0.68328">
        <ele>152</ele>
        <time>2017-04-30T07:04:28.000Z</time>
      </trkpt>
      <trkpt lat="44.19619" lon="0.68326">
        <ele>153</ele>
        <time>2017-04-30T07:04:29.000Z</time>
      </trkpt>
      <trkpt lat="44.1962" lon="0.68325">
        <ele>153</ele>
        <time>2017-04-30T07:04:30.000Z</time>
      </trkpt>
      <trkpt lat="44.19622" lon="0.68324">
        <ele>153</ele>
        <time>2017-04-30T07:04:31.000Z</time>
      </trkpt>
      <trkpt lat="44.19623" lon="0.68323">
        <ele>154</ele>
        <time>2017-04-30T07:04:32.000Z</time>
      </trkpt>
      <trkpt lat="44.19625" lon="0.68322">
        <ele>155</ele>
        <time>2017-04-30T07:04:33.000Z</time>
      </trkpt>
      <trkpt lat="44.19627" lon="0.6832">
        <ele>154</ele>
        <time>2017-04-30T07:04:34.000Z</time>
      </trkpt>
      <trkpt lat="44.1963" lon="0.68319">
        <ele>155</ele>
        <time>2017-04-30T07:04:35.000Z</time>
      </trkpt>
      <trkpt lat="44.19632" lon="0.68318">
        <ele>155</ele>
        <time>2017-04-30T07:04:36.000Z</time>
      </trkpt>
      <trkpt lat="44.19634" lon="0.68316">
        <ele>155</ele>
        <time>2017-04-30T07:04:37.000Z</time>
      </trkpt>
      <trkpt lat="44.19636" lon="0.68314">
        <ele>155</ele>
        <time>2017-04-30T07:04:38.000Z</time>
      </trkpt>
      <trkpt lat="44.19638" lon="0.68313">
        <ele>155</ele>
        <time>2017-04-30T07:04:39.000Z</time>
      </trkpt>
      <trkpt lat="44.1964" lon="0.68312">
        <ele>156</ele>
        <time>2017-04-30T07:04:40.000Z</time>
      </trkpt>
      <trkpt lat="44.19643" lon="0.68311">
        <ele>155</ele>
        <time>2017-04-30T07:04:41.000Z</time>
      </trkpt>
      <trkpt lat="44.19646" lon="0.68309">
        <ele>155</ele>
        <time>2017-04-30T07:04:42.000Z</time>
      </trkpt>
      <trkpt lat="44.19648" lon="0.68308">
        <ele>156</ele>
        <time>2017-04-30T07:04:43.000Z</time>
      </trkpt>
      <trkpt lat="44.1965" lon="0.68307">
        <ele>156</ele>
        <time>2017-04-30T07:04:44.000Z</time>
      </trkpt>
      <trkpt lat="44.19652" lon="0.68306">
        <ele>156</ele>
        <time>2017-04-30T07:04:45.000Z</time>
      </trkpt>
      <trkpt lat="44.19654" lon="0.68305">
        <ele>157</ele>
        <time>2017-04-30T07:04:46.000Z</time>
      </trkpt>
      <trkpt lat="44.19658" lon="0.68302">
        <ele>157</ele>
        <time>2017-04-30T07:04:47.000Z</time>
      </trkpt>
      <trkpt lat="44.19661" lon="0.68299">
        <ele>158</ele>
        <time>2017-04-30T07:04:48.000Z</time>
      </trkpt>
      <trkpt lat="44.19664" lon="0.68298">
        <ele>158</ele>
        <time>2017-04-30T07:04:49.000Z</time>
      </trkpt>
      <trkpt lat="44.19667" lon="0.68297">
        <ele>159</ele>
        <time>2017-04-30T07:04:50.000Z</time>
      </trkpt>
      <trkpt lat="44.19671" lon="0.68296">
        <ele>159</ele>
        <time>2017-04-30T07:04:51.000Z</time>
      </trkpt>
      <trkpt lat="44.19674" lon="0.68295">
        <ele>159</ele>
        <time>2017-04-30T07:04:52.000Z</time>
      </trkpt>
      <trkpt lat="44.19677" lon="0.68296">
        <ele>160</ele>
        <time>2017-04-30T07:04:53.000Z</time>
      </trkpt>
      <trkpt lat="44.1968" lon="0.68298">
        <ele>161</ele>
        <time>2017-04-30T07:04:54.000Z</time>
      </trkpt>
      <trkpt lat="44.19685" lon="0.68302">
        <ele>161</ele>
        <time>2017-04-30T07:04:55.000Z</time>
      </trkpt>
      <trkpt lat="44.19689" lon="0.68303">
        <ele>162</ele>
        <time>2017-04-30T07:04:56.000Z</time>
      </trkpt>
      <trkpt lat="44.19696" lon="0.68302">
        <ele>164</ele>
        <time>2017-04-30T07:04:57.000Z</time>
      </trkpt>
      <trkpt lat="44.19702" lon="0.68302">
        <ele>165</ele>
        <time>2017-04-30T07:04:58.000Z</time>
      </trkpt>
      <trkpt lat="44.19707" lon="0.68302">
        <ele>166</ele>
        <time>2017-04-30T07:04:59.000Z</time>
      </trkpt>
      <trkpt lat="44.19712" lon="0.68302">
        <ele>166</ele>
        <time>2017-04-30T07:05:00.000Z</time>
      </trkpt>
      <trkpt lat="44.19717" lon="0.68302">
        <ele>166</ele>
        <time>2017-04-30T07:05:01.000Z</time>
      </trkpt>
      <trkpt lat="44.19722" lon="0.68302">
        <ele>166</ele>
        <time>2017-04-30T07:05:02.000Z</time>
      </trkpt>
      <trkpt lat="44.19727" lon="0.68302">
        <ele>167</ele>
        <time>2017-04-30T07:05:03.000Z</time>
      </trkpt>
      <trkpt lat="44.19732" lon="0.68302">
        <ele>167</ele>
        <time>2017-04-30T07:05:04.000Z</time>
      </trkpt>
      <trkpt lat="44.19737" lon="0.68302">
        <ele>168</ele>
        <time>2017-04-30T07:05:05.000Z</time>
      </trkpt>
      <trkpt lat="44.19742" lon="0.68303">
        <ele>168</ele>
        <time>2017-04-30T07:05:06.000Z</time>
      </trkpt>
      <trkpt lat="44.19747" lon="0.68304">
        <ele>168</ele>
        <time>2017-04-30T07:05:07.000Z</time>
      </trkpt>
      <trkpt lat="44.19752" lon="0.68304">
        <ele>168</ele>
        <time>2017-04-30T07:05:08.000Z</time>
      </trkpt>
      <trkpt lat="44.19757" lon="0.68304">
        <ele>167</ele>
        <time>2017-04-30T07:05:09.000Z</time>
      </trkpt>
      <trkpt lat="44.19762" lon="0.68305">
        <ele>167</ele>
        <time>2017-04-30T07:05:10.000Z</time>
      </trkpt>
      <trkpt lat="44.19767" lon="0.68305">
        <ele>167</ele>
        <time>2017-04-30T07:05:11.000Z</time>
      </trkpt>
      <trkpt lat="44.19771" lon="0.68307">
        <ele>166</ele>
        <time>2017-04-30T07:05:12.000Z</time>
      </trkpt>
      <trkpt lat="44.19776" lon="0.6831">
        <ele>165</ele>
        <time>2017-04-30T07:05:13.000Z</time>
      </trkpt>
      <trkpt lat="44.1978" lon="0.68313">
        <ele>165</ele>
        <time>2017-04-30T07:05:14.000Z</time>
      </trkpt>
      <trkpt lat="44.19784" lon="0.68316">
        <ele>165</ele>
        <time>2017-04-30T07:05:15.000Z</time>
      </trkpt>
      <trkpt lat="44.19787" lon="0.6832">
        <ele>164</ele>
        <time>2017-04-30T07:05:16.000Z</time>
      </trkpt>
      <trkpt lat="44.19791" lon="0.68323">
        <ele>163</ele>
        <time>2017-04-30T07:05:17.000Z</time>
      </trkpt>
      <trkpt lat="44.19795" lon="0.68327">
        <ele>163</ele>
        <time>2017-04-30T07:05:18.000Z</time>
      </trkpt>
      <trkpt lat="44.19798" lon="0.68332">
        <ele>162</ele>
        <time>2017-04-30T07:05:19.000Z</time>
      </trkpt>
      <trkpt lat="44.19801" lon="0.68335">
        <ele>162</ele>
        <time>2017-04-30T07:05:20.000Z</time>
      </trkpt>
      <trkpt lat="44.19804" lon="0.6834">
        <ele>162</ele>
        <time>2017-04-30T07:05:21.000Z</time>
      </trkpt>
      <trkpt lat="44.19807" lon="0.68344">
        <ele>161</ele>
        <time>2017-04-30T07:05:22.000Z</time>
      </trkpt>
      <trkpt lat="44.19811" lon="0.68348">
        <ele>160</ele>
        <time>2017-04-30T07:05:23.000Z</time>
      </trkpt>
      <trkpt lat="44.19815" lon="0.68349">
        <ele>158</ele>
        <time>2017-04-30T07:05:24.000Z</time>
      </trkpt>
      <trkpt lat="44.19821" lon="0.68351">
        <ele>157</ele>
        <time>2017-04-30T07:05:25.000Z</time>
      </trkpt>
      <trkpt lat="44.19825" lon="0.68352">
        <ele>156</ele>
        <time>2017-04-30T07:05:26.000Z</time>
      </trkpt>
      <trkpt lat="44.19829" lon="0.68354">
        <ele>155</ele>
        <time>2017-04-30T07:05:27.000Z</time>
      </trkpt>
      <trkpt lat="44.19833" lon="0.68356">
        <ele>154</ele>
        <time>2017-04-30T07:05:28.000Z</time>
      </trkpt>
      <trkpt lat="44.19835" lon="0.68365">
        <ele>152</ele>
        <time>2017-04-30T07:05:29.000Z</time>
      </trkpt>
      <trkpt lat="44.19837" lon="0.68372">
        <ele>151</ele>
        <time>2017-04-30T07:05:30.000Z</time>
      </trkpt>
      <trkpt lat="44.1984" lon="0.68378">
        <ele>151</ele>
        <time>2017-04-30T07:05:31.000Z</time>
      </trkpt>
      <trkpt lat="44.19844" lon="0.68385">
        <ele>150</ele>
        <time>2017-04-30T07:05:32.000Z</time>
      </trkpt>
      <trkpt lat="44.19848" lon="0.6839">
        <ele>150</ele>
        <time>2017-04-30T07:05:33.000Z</time>
      </trkpt>
      <trkpt lat="44.19853" lon="0.68395">
        <ele>151</ele>
        <time>2017-04-30T07:05:34.000Z</time>
      </trkpt>
      <trkpt lat="44.19859" lon="0.68399">
        <ele>151</ele>
        <time>2017-04-30T07:05:35.000Z</time>
      </trkpt>
      <trkpt lat="44.19864" lon="0.68403">
        <ele>151</ele>
        <time>2017-04-30T07:05:36.000Z</time>
      </trkpt>
      <trkpt lat="44.19869" lon="0.68406">
        <ele>151</ele>
        <time>2017-04-30T07:05:37.000Z</time>
      </trkpt>
      <trkpt lat="44.19874" lon="0.68409">
        <ele>151</ele>
        <time>2017-04-30T07:05:38.000Z</time>
      </trkpt>
      <trkpt lat="44.19878" lon="0.68411">
        <ele>152</ele>
        <time>2017-04-30T07:05:39.000Z</time>
      </trkpt>
      <trkpt lat="44.19882" lon="0.68414">
        <ele>152</ele>
        <time>2017-04-30T07:05:40.000Z</time>
      </trkpt>
      <trkpt lat="44.19887" lon="0.68416">
        <ele>152</ele>
        <time>2017-04-30T07:05:41.000Z</time>
      </trkpt>
      <trkpt lat="44.19891" lon="0.68418">
        <ele>153</ele>
        <time>2017-04-30T07:05:42.000Z</time>
      </trkpt>
      <trkpt lat="44.19894" lon="0.6842">
        <ele>153</ele>
        <time>2017-04-30T07:05:43.000Z</time>
      </trkpt>
      <trkpt lat="44.19898" lon="0.68422">
        <ele>153</ele>
        <time>2017-04-30T07:05:44.000Z</time>
      </trkpt>
      <trkpt lat="44.19901" lon="0.68424">
        <ele>154</ele>
        <time>2017-04-30T07:05:45.000Z</time>
      </trkpt>
      <trkpt lat="44.19905" lon="0.68426">
        <ele>154</ele>
        <time>2017-04-30T07:05:46.000Z</time>
      </trkpt>
      <trkpt lat="44.19907" lon="0.68428">
        <ele>155</ele>
        <time>2017-04-30T07:05:47.000Z</time>
      </trkpt>
      <trkpt lat="44.1991" lon="0.6843">
        <ele>155</ele>
        <time>2017-04-30T07:05:48.000Z</time>
      </trkpt>
      <trkpt lat="44.19913" lon="0.68433">
        <ele>155</ele>
        <time>2017-04-30T07:05:49.000Z</time>
      </trkpt>
      <trkpt lat="44.19917" lon="0.68435">
        <ele>156</ele>
        <time>2017-04-30T07:05:50.000Z</time>
      </trkpt>
      <trkpt lat="44.1992" lon="0.68437">
        <ele>156</ele>
        <time>2017-04-30T07:05:51.000Z</time>
      </trkpt>
      <trkpt lat="44.19923" lon="0.68439">
        <ele>156</ele>
        <time>2017-04-30T07:05:52.000Z</time>
      </trkpt>
      <trkpt lat="44.19926" lon="0.68441">
        <ele>156</ele>
        <time>2017-04-30T07:05:53.000Z</time>
      </trkpt>
      <trkpt lat="44.19929" lon="0.68443">
        <ele>157</ele>
        <time>2017-04-30T07:05:54.000Z</time>
      </trkpt>
      <trkpt lat="44.19932" lon="0.68446">
        <ele>157</ele>
        <time>2017-04-30T07:05:55.000Z</time>
      </trkpt>
      <trkpt lat="44.19935" lon="0.68449">
        <ele>157</ele>
        <time>2017-04-30T07:05:56.000Z</time>
      </trkpt>
      <trkpt lat="44.19938" lon="0.68451">
        <ele>158</ele>
        <time>2017-04-30T07:05:57.000Z</time>
      </trkpt>
      <trkpt lat="44.19941" lon="0.68453">
        <ele>158</ele>
        <time>2017-04-30T07:05:58.000Z</time>
      </trkpt>
      <trkpt lat="44.19944" lon="0.68455">
        <ele>159</ele>
        <time>2017-04-30T07:05:59.000Z</time>
      </trkpt>
      <trkpt lat="44.19947" lon="0.68458">
        <ele>159</ele>
        <time>2017-04-30T07:06:00.000Z</time>
      </trkpt>
      <trkpt lat="44.19951" lon="0.6846">
        <ele>160</ele>
        <time>2017-04-30T07:06:01.000Z</time>
      </trkpt>
      <trkpt lat="44.19954" lon="0.68463">
        <ele>161</ele>
        <time>2017-04-30T07:06:02.000Z</time>
      </trkpt>
      <trkpt lat="44.19957" lon="0.68465">
        <ele>161</ele>
        <time>2017-04-30T07:06:03.000Z</time>
      </trkpt>
      <trkpt lat="44.1996" lon="0.68468">
        <ele>161</ele>
        <time>2017-04-30T07:06:04.000Z</time>
      </trkpt>
      <trkpt lat="44.19963" lon="0.68471">
        <ele>162</ele>
        <time>2017-04-30T07:06:05.000Z</time>
      </trkpt>
      <trkpt lat="44.19965" lon="0.68475">
        <ele>161</ele>
        <time>2017-04-30T07:06:06.000Z</time>
      </trkpt>
      <trkpt lat="44.19967" lon="0.68479">
        <ele>161</ele>
        <time>2017-04-30T07:06:07.000Z</time>
      </trkpt>
      <trkpt lat="44.19969" lon="0.68482">
        <ele>161</ele>
        <time>2017-04-30T07:06:08.000Z</time>
      </trkpt>
      <trkpt lat="44.19971" lon="0.68487">
        <ele>163</ele>
        <time>2017-04-30T07:06:09.000Z</time>
      </trkpt>
      <trkpt lat="44.19971" lon="0.68492">
        <ele>161</ele>
        <time>2017-04-30T07:06:10.000Z</time>
      </trkpt>
      <trkpt lat="44.19972" lon="0.68497">
        <ele>162</ele>
        <time>2017-04-30T07:06:11.000Z</time>
      </trkpt>
      <trkpt lat="44.19973" lon="0.68503">
        <ele>162</ele>
        <time>2017-04-30T07:06:12.000Z</time>
      </trkpt>
      <trkpt lat="44.19974" lon="0.6851">
        <ele>162</ele>
        <time>2017-04-30T07:06:13.000Z</time>
      </trkpt>
      <trkpt lat="44.19975" lon="0.68517">
        <ele>162</ele>
        <time>2017-04-30T07:06:14.000Z</time>
      </trkpt>
      <trkpt lat="44.19977" lon="0.68525">
        <ele>162</ele>
        <time>2017-04-30T07:06:15.000Z</time>
      </trkpt>
      <trkpt lat="44.19978" lon="0.68532">
        <ele>161</ele>
        <time>2017-04-30T07:06:16.000Z</time>
      </trkpt>
      <trkpt lat="44.19979" lon="0.6854">
        <ele>160</ele>
        <time>2017-04-30T07:06:17.000Z</time>
      </trkpt>
      <trkpt lat="44.1998" lon="0.68551">
        <ele>160</ele>
        <time>2017-04-30T07:06:18.000Z</time>
      </trkpt>
      <trkpt lat="44.19981" lon="0.68559">
        <ele>159</ele>
        <time>2017-04-30T07:06:19.000Z</time>
      </trkpt>
      <trkpt lat="44.19982" lon="0.68567">
        <ele>158</ele>
        <time>2017-04-30T07:06:20.000Z</time>
      </trkpt>
      <trkpt lat="44.19984" lon="0.68575">
        <ele>157</ele>
        <time>2017-04-30T07:06:21.000Z</time>
      </trkpt>
      <trkpt lat="44.19986" lon="0.68582">
        <ele>157</ele>
        <time>2017-04-30T07:06:22.000Z</time>
      </trkpt>
      <trkpt lat="44.19988" lon="0.68589">
        <ele>158</ele>
        <time>2017-04-30T07:06:23.000Z</time>
      </trkpt>
      <trkpt lat="44.1999" lon="0.68596">
        <ele>158</ele>
        <time>2017-04-30T07:06:24.000Z</time>
      </trkpt>
      <trkpt lat="44.19992" lon="0.68602">
        <ele>159</ele>
        <time>2017-04-30T07:06:25.000Z</time>
      </trkpt>
      <trkpt lat="44.19995" lon="0.68608">
        <ele>160</ele>
        <time>2017-04-30T07:06:26.000Z</time>
      </trkpt>
      <trkpt lat="44.19996" lon="0.68613">
        <ele>160</ele>
        <time>2017-04-30T07:06:27.000Z</time>
      </trkpt>
      <trkpt lat="44.19998" lon="0.68619">
        <ele>160</ele>
        <time>2017-04-30T07:06:28.000Z</time>
      </trkpt>
      <trkpt lat="44.19999" lon="0.68624">
        <ele>160</ele>
        <time>2017-04-30T07:06:29.000Z</time>
      </trkpt>
      <trkpt lat="44.20001" lon="0.6863">
        <ele>160</ele>
        <time>2017-04-30T07:06:30.000Z</time>
      </trkpt>
      <trkpt lat="44.20003" lon="0.68635">
        <ele>160</ele>
        <time>2017-04-30T07:06:31.000Z</time>
      </trkpt>
      <trkpt lat="44.20004" lon="0.6864">
        <ele>161</ele>
        <time>2017-04-30T07:06:32.000Z</time>
      </trkpt>
      <trkpt lat="44.20006" lon="0.68644">
        <ele>161</ele>
        <time>2017-04-30T07:06:33.000Z</time>
      </trkpt>
      <trkpt lat="44.20007" lon="0.68649">
        <ele>160</ele>
        <time>2017-04-30T07:06:34.000Z</time>
      </trkpt>
      <trkpt lat="44.20009" lon="0.68654">
        <ele>160</ele>
        <time>2017-04-30T07:06:35.000Z</time>
      </trkpt>
      <trkpt lat="44.2001" lon="0.68659">
        <ele>160</ele>
        <time>2017-04-30T07:06:36.000Z</time>
      </trkpt>
      <trkpt lat="44.20012" lon="0.68663">
        <ele>160</ele>
        <time>2017-04-30T07:06:37.000Z</time>
      </trkpt>
      <trkpt lat="44.20014" lon="0.68668">
        <ele>161</ele>
        <time>2017-04-30T07:06:38.000Z</time>
      </trkpt>
      <trkpt lat="44.20015" lon="0.68672">
        <ele>161</ele>
        <time>2017-04-30T07:06:39.000Z</time>
      </trkpt>
      <trkpt lat="44.20017" lon="0.68677">
        <ele>161</ele>
        <time>2017-04-30T07:06:40.000Z</time>
      </trkpt>
      <trkpt lat="44.20019" lon="0.68682">
        <ele>161</ele>
        <time>2017-04-30T07:06:41.000Z</time>
      </trkpt>
      <trkpt lat="44.20021" lon="0.68686">
        <ele>161</ele>
        <time>2017-04-30T07:06:42.000Z</time>
      </trkpt>
      <trkpt lat="44.20024" lon="0.68689">
        <ele>161</ele>
        <time>2017-04-30T07:06:43.000Z</time>
      </trkpt>
      <trkpt lat="44.20026" lon="0.68692">
        <ele>161</ele>
        <time>2017-04-30T07:06:44.000Z</time>
      </trkpt>
      <trkpt lat="44.20029" lon="0.68694">
        <ele>161</ele>
        <time>2017-04-30T07:06:45.000Z</time>
      </trkpt>
      <trkpt lat="44.20032" lon="0.68694">
        <ele>162</ele>
        <time>2017-04-30T07:06:46.000Z</time>
      </trkpt>
      <trkpt lat="44.20035" lon="0.68693">
        <ele>161</ele>
        <time>2017-04-30T07:06:47.000Z</time>
      </trkpt>
      <trkpt lat="44.20037" lon="0.6869">
        <ele>162</ele>
        <time>2017-04-30T07:06:48.000Z</time>
      </trkpt>
      <trkpt lat="44.2004" lon="0.68687">
        <ele>162</ele>
        <time>2017-04-30T07:06:49.000Z</time>
      </trkpt>
      <trkpt lat="44.20043" lon="0.68684">
        <ele>161</ele>
        <time>2017-04-30T07:06:50.000Z</time>
      </trkpt>
      <trkpt lat="44.20046" lon="0.68681">
        <ele>161</ele>
        <time>2017-04-30T07:06:51.000Z</time>
      </trkpt>
      <trkpt lat="44.20049" lon="0.68678">
        <ele>161</ele>
        <time>2017-04-30T07:06:52.000Z</time>
      </trkpt>
      <trkpt lat="44.20052" lon="0.68676">
        <ele>161</ele>
        <time>2017-04-30T07:06:53.000Z</time>
      </trkpt>
      <trkpt lat="44.20055" lon="0.68673">
        <ele>161</ele>
        <time>2017-04-30T07:06:54.000Z</time>
      </trkpt>
      <trkpt lat="44.20058" lon="0.68671">
        <ele>161</ele>
        <time>2017-04-30T07:06:55.000Z</time>
      </trkpt>
      <trkpt lat="44.20062" lon="0.68669">
        <ele>161</ele>
        <time>2017-04-30T07:06:56.000Z</time>
      </trkpt>
      <trkpt lat="44.20065" lon="0.68666">
        <ele>161</ele>
        <time>2017-04-30T07:06:57.000Z</time>
      </trkpt>
      <trkpt lat="44.20068" lon="0.68664">
        <ele>162</ele>
        <time>2017-04-30T07:06:58.000Z</time>
      </trkpt>
      <trkpt lat="44.20071" lon="0.68662">
        <ele>162</ele>
        <time>2017-04-30T07:06:59.000Z</time>
      </trkpt>
      <trkpt lat="44.20074" lon="0.6866">
        <ele>162</ele>
        <time>2017-04-30T07:07:00.000Z</time>
      </trkpt>
      <trkpt lat="44.20076" lon="0.68658">
        <ele>162</ele>
        <time>2017-04-30T07:07:01.000Z</time>
      </trkpt>
      <trkpt lat="44.20079" lon="0.68656">
        <ele>163</ele>
        <time>2017-04-30T07:07:02.000Z</time>
      </trkpt>
      <trkpt lat="44.20082" lon="0.68655">
        <ele>164</ele>
        <time>2017-04-30T07:07:03.000Z</time>
      </trkpt>
      <trkpt lat="44.20084" lon="0.68654">
        <ele>165</ele>
        <time>2017-04-30T07:07:04.000Z</time>
      </trkpt>
      <trkpt lat="44.20086" lon="0.68653">
        <ele>166</ele>
        <time>2017-04-30T07:07:05.000Z</time>
      </trkpt>
      <trkpt lat="44.20089" lon="0.68651">
        <ele>167</ele>
        <time>2017-04-30T07:07:06.000Z</time>
      </trkpt>
      <trkpt lat="44.20092" lon="0.6865">
        <ele>167</ele>
        <time>2017-04-30T07:07:07.000Z</time>
      </trkpt>
      <trkpt lat="44.20095" lon="0.68648">
        <ele>168</ele>
        <time>2017-04-30T07:07:08.000Z</time>
      </trkpt>
      <trkpt lat="44.20098" lon="0.68646">
        <ele>168</ele>
        <time>2017-04-30T07:07:09.000Z</time>
      </trkpt>
      <trkpt lat="44.20103" lon="0.68641">
        <ele>170</ele>
        <time>2017-04-30T07:07:10.000Z</time>
      </trkpt>
      <trkpt lat="44.20108" lon="0.68635">
        <ele>171</ele>
        <time>2017-04-30T07:07:11.000Z</time>
      </trkpt>
      <trkpt lat="44.20112" lon="0.68632">
        <ele>174</ele>
        <time>2017-04-30T07:07:12.000Z</time>
      </trkpt>
      <trkpt lat="44.20117" lon="0.68629">
        <ele>175</ele>
        <time>2017-04-30T07:07:13.000Z</time>
      </trkpt>
      <trkpt lat="44.20122" lon="0.68625">
        <ele>176</ele>
        <time>2017-04-30T07:07:14.000Z</time>
      </trkpt>
      <trkpt lat="44.2013" lon="0.68622">
        <ele>179</ele>
        <time>2017-04-30T07:07:15.000Z</time>
      </trkpt>
      <trkpt lat="44.2014" lon="0.68624">
        <ele>180</ele>
        <time>2017-04-30T07:07:16.000Z</time>
      </trkpt>
      <trkpt lat="44.20147" lon="0.68625">
        <ele>181</ele>
        <time>2017-04-30T07:07:17.000Z</time>
      </trkpt>
      <trkpt lat="44.20153" lon="0.68626">
        <ele>183</ele>
        <time>2017-04-30T07:07:18.000Z</time>
      </trkpt>
      <trkpt lat="44.2016" lon="0.68625">
        <ele>186</ele>
        <time>2017-04-30T07:07:19.000Z</time>
      </trkpt>
      <trkpt lat="44.20167" lon="0.68621">
        <ele>185</ele>
        <time>2017-04-30T07:07:20.000Z</time>
      </trkpt>
      <trkpt lat="44.20173" lon="0.68615">
        <ele>187</ele>
        <time>2017-04-30T07:07:21.000Z</time>
      </trkpt>
      <trkpt lat="44.20179" lon="0.68613">
        <ele>188</ele>
        <time>2017-04-30T07:07:22.000Z</time>
      </trkpt>
      <trkpt lat="44.20185" lon="0.6861">
        <ele>189</ele>
        <time>2017-04-30T07:07:23.000Z</time>
      </trkpt>
      <trkpt lat="44.2019" lon="0.68606">
        <ele>189</ele>
        <time>2017-04-30T07:07:24.000Z</time>
      </trkpt>
      <trkpt lat="44.20196" lon="0.68602">
        <ele>189</ele>
        <time>2017-04-30T07:07:25.000Z</time>
      </trkpt>
      <trkpt lat="44.20201" lon="0.68597">
        <ele>189</ele>
        <time>2017-04-30T07:07:26.000Z</time>
      </trkpt>
      <trkpt lat="44.20207" lon="0.6859">
        <ele>189</ele>
        <time>2017-04-30T07:07:27.000Z</time>
      </trkpt>
      <trkpt lat="44.20212" lon="0.68583">
        <ele>188</ele>
        <time>2017-04-30T07:07:28.000Z</time>
      </trkpt>
      <trkpt lat="44.20216" lon="0.68576">
        <ele>187</ele>
        <time>2017-04-30T07:07:29.000Z</time>
      </trkpt>
      <trkpt lat="44.20221" lon="0.6857">
        <ele>187</ele>
        <time>2017-04-30T07:07:30.000Z</time>
      </trkpt>
      <trkpt lat="44.20226" lon="0.68561">
        <ele>187</ele>
        <time>2017-04-30T07:07:31.000Z</time>
      </trkpt>
      <trkpt lat="44.2023" lon="0.68554">
        <ele>189</ele>
        <time>2017-04-30T07:07:32.000Z</time>
      </trkpt>
      <trkpt lat="44.20234" lon="0.68547">
        <ele>190</ele>
        <time>2017-04-30T07:07:33.000Z</time>
      </trkpt>
      <trkpt lat="44.20238" lon="0.68539">
        <ele>189</ele>
        <time>2017-04-30T07:07:34.000Z</time>
      </trkpt>
      <trkpt lat="44.20243" lon="0.68531">
        <ele>189</ele>
        <time>2017-04-30T07:07:35.000Z</time>
      </trkpt>
      <trkpt lat="44.20248" lon="0.68523">
        <ele>186</ele>
        <time>2017-04-30T07:07:36.000Z</time>
      </trkpt>
      <trkpt lat="44.20253" lon="0.68514">
        <ele>185</ele>
        <time>2017-04-30T07:07:37.000Z</time>
      </trkpt>
      <trkpt lat="44.20258" lon="0.68506">
        <ele>186</ele>
        <time>2017-04-30T07:07:38.000Z</time>
      </trkpt>
      <trkpt lat="44.20261" lon="0.68495">
        <ele>184</ele>
        <time>2017-04-30T07:07:39.000Z</time>
      </trkpt>
      <trkpt lat="44.20263" lon="0.68487">
        <ele>183</ele>
        <time>2017-04-30T07:07:40.000Z</time>
      </trkpt>
      <trkpt lat="44.20265" lon="0.68479">
        <ele>183</ele>
        <time>2017-04-30T07:07:41.000Z</time>
      </trkpt>
      <trkpt lat="44.20268" lon="0.68471">
        <ele>183</ele>
        <time>2017-04-30T07:07:42.000Z</time>
      </trkpt>
      <trkpt lat="44.20271" lon="0.68463">
        <ele>183</ele>
        <time>2017-04-30T07:07:43.000Z</time>
      </trkpt>
      <trkpt lat="44.20274" lon="0.68456">
        <ele>182</ele>
        <time>2017-04-30T07:07:44.000Z</time>
      </trkpt>
      <trkpt lat="44.20279" lon="0.6845">
        <ele>180</ele>
        <time>2017-04-30T07:07:45.000Z</time>
      </trkpt>
      <trkpt lat="44.20287" lon="0.68448">
        <ele>183</ele>
        <time>2017-04-30T07:07:46.000Z</time>
      </trkpt>
      <trkpt lat="44.20292" lon="0.68443">
        <ele>184</ele>
        <time>2017-04-30T07:07:47.000Z</time>
      </trkpt>
      <trkpt lat="44.203" lon="0.68439">
        <ele>187</ele>
        <time>2017-04-30T07:07:48.000Z</time>
      </trkpt>
      <trkpt lat="44.20305" lon="0.68436">
        <ele>186</ele>
        <time>2017-04-30T07:07:49.000Z</time>
      </trkpt>
      <trkpt lat="44.20311" lon="0.68435">
        <ele>184</ele>
        <time>2017-04-30T07:07:50.000Z</time>
      </trkpt>
      <trkpt lat="44.20315" lon="0.68437">
        <ele>185</ele>
        <time>2017-04-30T07:07:51.000Z</time>
      </trkpt>
      <trkpt lat="44.20321" lon="0.68438">
        <ele>184</ele>
        <time>2017-04-30T07:07:52.000Z</time>
      </trkpt>
      <trkpt lat="44.20325" lon="0.68441">
        <ele>184</ele>
        <time>2017-04-30T07:07:53.000Z</time>
      </trkpt>
      <trkpt lat="44.20329" lon="0.68446">
        <ele>181</ele>
        <time>2017-04-30T07:07:54.000Z</time>
      </trkpt>
      <trkpt lat="44.20334" lon="0.68449">
        <ele>178</ele>
        <time>2017-04-30T07:07:55.000Z</time>
      </trkpt>
      <trkpt lat="44.20339" lon="0.68455">
        <ele>180</ele>
        <time>2017-04-30T07:07:56.000Z</time>
      </trkpt>
      <trkpt lat="44.20345" lon="0.68462">
        <ele>181</ele>
        <time>2017-04-30T07:07:57.000Z</time>
      </trkpt>
      <trkpt lat="44.20351" lon="0.68468">
        <ele>180</ele>
        <time>2017-04-30T07:07:58.000Z</time>
      </trkpt>
      <trkpt lat="44.20356" lon="0.68473">
        <ele>178</ele>
        <time>2017-04-30T07:07:59.000Z</time>
      </trkpt>
      <trkpt lat="44.20361" lon="0.68479">
        <ele>176</ele>
        <time>2017-04-30T07:08:00.000Z</time>
      </trkpt>
      <trkpt lat="44.20365" lon="0.68485">
        <ele>176</ele>
        <time>2017-04-30T07:08:01.000Z</time>
      </trkpt>
      <trkpt lat="44.2037" lon="0.68492">
        <ele>175</ele>
        <time>2017-04-30T07:08:02.000Z</time>
      </trkpt>
      <trkpt lat="44.20374" lon="0.68498">
        <ele>173</ele>
        <time>2017-04-30T07:08:03.000Z</time>
      </trkpt>
      <trkpt lat="44.20379" lon="0.68503">
        <ele>174</ele>
        <time>2017-04-30T07:08:04.000Z</time>
      </trkpt>
      <trkpt lat="44.20384" lon="0.68508">
        <ele>174</ele>
        <time>2017-04-30T07:08:05.000Z</time>
      </trkpt>
      <trkpt lat="44.20388" lon="0.68513">
        <ele>175</ele>
        <time>2017-04-30T07:08:06.000Z</time>
      </trkpt>
      <trkpt lat="44.20394" lon="0.68518">
        <ele>177</ele>
        <time>2017-04-30T07:08:07.000Z</time>
      </trkpt>
      <trkpt lat="44.20399" lon="0.68524">
        <ele>177</ele>
        <time>2017-04-30T07:08:08.000Z</time>
      </trkpt>
      <trkpt lat="44.20405" lon="0.68528">
        <ele>178</ele>
        <time>2017-04-30T07:08:09.000Z</time>
      </trkpt>
      <trkpt lat="44.20412" lon="0.68533">
        <ele>177</ele>
        <time>2017-04-30T07:08:10.000Z</time>
      </trkpt>
      <trkpt lat="44.20418" lon="0.68538">
        <ele>176</ele>
        <time>2017-04-30T07:08:11.000Z</time>
      </trkpt>
      <trkpt lat="44.20423" lon="0.68542">
        <ele>176</ele>
        <time>2017-04-30T07:08:12.000Z</time>
      </trkpt>
      <trkpt lat="44.20429" lon="0.68546">
        <ele>174</ele>
        <time>2017-04-30T07:08:13.000Z</time>
      </trkpt>
      <trkpt lat="44.20435" lon="0.68551">
        <ele>173</ele>
        <time>2017-04-30T07:08:14.000Z</time>
      </trkpt>
      <trkpt lat="44.20441" lon="0.68556">
        <ele>172</ele>
        <time>2017-04-30T07:08:15.000Z</time>
      </trkpt>
      <trkpt lat="44.20444" lon="0.68567">
        <ele>170</ele>
        <time>2017-04-30T07:08:16.000Z</time>
      </trkpt>
      <trkpt lat="44.20447" lon="0.68574">
        <ele>167</ele>
        <time>2017-04-30T07:08:17.000Z</time>
      </trkpt>
      <trkpt lat="44.20451" lon="0.68582">
        <ele>162</ele>
        <time>2017-04-30T07:08:18.000Z</time>
      </trkpt>
      <trkpt lat="44.20455" lon="0.68589">
        <ele>160</ele>
        <time>2017-04-30T07:08:19.000Z</time>
      </trkpt>
      <trkpt lat="44.20459" lon="0.68596">
        <ele>159</ele>
        <time>2017-04-30T07:08:20.000Z</time>
      </trkpt>
      <trkpt lat="44.20462" lon="0.68602">
        <ele>156</ele>
        <time>2017-04-30T07:08:21.000Z</time>
      </trkpt>
      <trkpt lat="44.20466" lon="0.68608">
        <ele>156</ele>
        <time>2017-04-30T07:08:22.000Z</time>
      </trkpt>
      <trkpt lat="44.20468" lon="0.68609">
        <ele>157</ele>
        <time>2017-04-30T07:08:23.000Z</time>
      </trkpt>
      <trkpt lat="44.20471" lon="0.68611">
        <ele>158</ele>
        <time>2017-04-30T07:08:24.000Z</time>
      </trkpt>
      <trkpt lat="44.20472" lon="0.68607">
        <ele>159</ele>
        <time>2017-04-30T07:08:25.000Z</time>
      </trkpt>
      <trkpt lat="44.20474" lon="0.68605">
        <ele>159</ele>
        <time>2017-04-30T07:08:26.000Z</time>
      </trkpt>
      <trkpt lat="44.20476" lon="0.68601">
        <ele>160</ele>
        <time>2017-04-30T07:08:27.000Z</time>
      </trkpt>
      <trkpt lat="44.20479" lon="0.68598">
        <ele>160</ele>
        <time>2017-04-30T07:08:28.000Z</time>
      </trkpt>
      <trkpt lat="44.20481" lon="0.68595">
        <ele>159</ele>
        <time>2017-04-30T07:08:29.000Z</time>
      </trkpt>
      <trkpt lat="44.20484" lon="0.68592">
        <ele>159</ele>
        <time>2017-04-30T07:08:30.000Z</time>
      </trkpt>
      <trkpt lat="44.20486" lon="0.68589">
        <ele>160</ele>
        <time>2017-04-30T07:08:31.000Z</time>
      </trkpt>
      <trkpt lat="44.20488" lon="0.68586">
        <ele>160</ele>
        <time>2017-04-30T07:08:32.000Z</time>
      </trkpt>
      <trkpt lat="44.20491" lon="0.68582">
        <ele>160</ele>
        <time>2017-04-30T07:08:33.000Z</time>
      </trkpt>
      <trkpt lat="44.20492" lon="0.68579">
        <ele>161</ele>
        <time>2017-04-30T07:08:34.000Z</time>
      </trkpt>
      <trkpt lat="44.20494" lon="0.68576">
        <ele>162</ele>
        <time>2017-04-30T07:08:35.000Z</time>
      </trkpt>
      <trkpt lat="44.20496" lon="0.68573">
        <ele>161</ele>
        <time>2017-04-30T07:08:36.000Z</time>
      </trkpt>
      <trkpt lat="44.20498" lon="0.6857">
        <ele>161</ele>
        <time>2017-04-30T07:08:37.000Z</time>
      </trkpt>
      <trkpt lat="44.205" lon="0.68567">
        <ele>162</ele>
        <time>2017-04-30T07:08:38.000Z</time>
      </trkpt>
      <trkpt lat="44.20502" lon="0.68564">
        <ele>162</ele>
        <time>2017-04-30T07:08:39.000Z</time>
      </trkpt>
      <trkpt lat="44.20504" lon="0.68561">
        <ele>163</ele>
        <time>2017-04-30T07:08:40.000Z</time>
      </trkpt>
      <trkpt lat="44.20507" lon="0.68558">
        <ele>163</ele>
        <time>2017-04-30T07:08:41.000Z</time>
      </trkpt>
      <trkpt lat="44.20508" lon="0.68555">
        <ele>163</ele>
        <time>2017-04-30T07:08:42.000Z</time>
      </trkpt>
      <trkpt lat="44.2051" lon="0.68552">
        <ele>163</ele>
        <time>2017-04-30T07:08:43.000Z</time>
      </trkpt>
      <trkpt lat="44.20512" lon="0.68549">
        <ele>163</ele>
        <time>2017-04-30T07:08:44.000Z</time>
      </trkpt>
      <trkpt lat="44.20513" lon="0.68546">
        <ele>163</ele>
        <time>2017-04-30T07:08:45.000Z</time>
      </trkpt>
      <trkpt lat="44.20515" lon="0.68542">
        <ele>163</ele>
        <time>2017-04-30T07:08:46.000Z</time>
      </trkpt>
      <trkpt lat="44.20516" lon="0.68539">
        <ele>163</ele>
        <time>2017-04-30T07:08:47.000Z</time>
      </trkpt>
      <trkpt lat="44.20518" lon="0.68536">
        <ele>163</ele>
        <time>2017-04-30T07:08:48.000Z</time>
      </trkpt>
      <trkpt lat="44.2052" lon="0.68532">
        <ele>164</ele>
        <time>2017-04-30T07:08:49.000Z</time>
      </trkpt>
      <trkpt lat="44.20522" lon="0.68529">
        <ele>164</ele>
        <time>2017-04-30T07:08:50.000Z</time>
      </trkpt>
      <trkpt lat="44.20523" lon="0.68526">
        <ele>164</ele>
        <time>2017-04-30T07:08:51.000Z</time>
      </trkpt>
      <trkpt lat="44.20525" lon="0.68522">
        <ele>163</ele>
        <time>2017-04-30T07:08:52.000Z</time>
      </trkpt>
      <trkpt lat="44.20526" lon="0.68519">
        <ele>164</ele>
        <time>2017-04-30T07:08:53.000Z</time>
      </trkpt>
      <trkpt lat="44.20528" lon="0.68516">
        <ele>164</ele>
        <time>2017-04-30T07:08:54.000Z</time>
      </trkpt>
      <trkpt lat="44.2053" lon="0.68512">
        <ele>164</ele>
        <time>2017-04-30T07:08:55.000Z</time>
      </trkpt>
      <trkpt lat="44.20532" lon="0.68509">
        <ele>164</ele>
        <time>2017-04-30T07:08:56.000Z</time>
      </trkpt>
      <trkpt lat="44.20533" lon="0.68506">
        <ele>164</ele>
        <time>2017-04-30T07:08:57.000Z</time>
      </trkpt>
      <trkpt lat="44.20535" lon="0.68503">
        <ele>164</ele>
        <time>2017-04-30T07:08:58.000Z</time>
      </trkpt>
      <trkpt lat="44.20536" lon="0.685">
        <ele>165</ele>
        <time>2017-04-30T07:08:59.000Z</time>
      </trkpt>
      <trkpt lat="44.20538" lon="0.68497">
        <ele>165</ele>
        <time>2017-04-30T07:09:00.000Z</time>
      </trkpt>
      <trkpt lat="44.2054" lon="0.68494">
        <ele>166</ele>
        <time>2017-04-30T07:09:01.000Z</time>
      </trkpt>
      <trkpt lat="44.20541" lon="0.68491">
        <ele>166</ele>
        <time>2017-04-30T07:09:02.000Z</time>
      </trkpt>
      <trkpt lat="44.20543" lon="0.68489">
        <ele>166</ele>
        <time>2017-04-30T07:09:03.000Z</time>
      </trkpt>
      <trkpt lat="44.20544" lon="0.68486">
        <ele>167</ele>
        <time>2017-04-30T07:09:04.000Z</time>
      </trkpt>
      <trkpt lat="44.20546" lon="0.68483">
        <ele>167</ele>
        <time>2017-04-30T07:09:05.000Z</time>
      </trkpt>
      <trkpt lat="44.20548" lon="0.68481">
        <ele>167</ele>
        <time>2017-04-30T07:09:06.000Z</time>
      </trkpt>
      <trkpt lat="44.2055" lon="0.68478">
        <ele>168</ele>
        <time>2017-04-30T07:09:07.000Z</time>
      </trkpt>
      <trkpt lat="44.20551" lon="0.68474">
        <ele>168</ele>
        <time>2017-04-30T07:09:08.000Z</time>
      </trkpt>
      <trkpt lat="44.20553" lon="0.68471">
        <ele>168</ele>
        <time>2017-04-30T07:09:09.000Z</time>
      </trkpt>
      <trkpt lat="44.20554" lon="0.68468">
        <ele>169</ele>
        <time>2017-04-30T07:09:10.000Z</time>
      </trkpt>
      <trkpt lat="44.20555" lon="0.68465">
        <ele>169</ele>
        <time>2017-04-30T07:09:11.000Z</time>
      </trkpt>
      <trkpt lat="44.20556" lon="0.68461">
        <ele>169</ele>
        <time>2017-04-30T07:09:12.000Z</time>
      </trkpt>
      <trkpt lat="44.20557" lon="0.68457">
        <ele>168</ele>
        <time>2017-04-30T07:09:13.000Z</time>
      </trkpt>
      <trkpt lat="44.20558" lon="0.68454">
        <ele>169</ele>
        <time>2017-04-30T07:09:14.000Z</time>
      </trkpt>
      <trkpt lat="44.20559" lon="0.6845">
        <ele>168</ele>
        <time>2017-04-30T07:09:15.000Z</time>
      </trkpt>
      <trkpt lat="44.2056" lon="0.68447">
        <ele>169</ele>
        <time>2017-04-30T07:09:16.000Z</time>
      </trkpt>
      <trkpt lat="44.20561" lon="0.68443">
        <ele>169</ele>
        <time>2017-04-30T07:09:17.000Z</time>
      </trkpt>
      <trkpt lat="44.20561" lon="0.6844">
        <ele>169</ele>
        <time>2017-04-30T07:09:18.000Z</time>
      </trkpt>
      <trkpt lat="44.20562" lon="0.68436">
        <ele>170</ele>
        <time>2017-04-30T07:09:19.000Z</time>
      </trkpt>
      <trkpt lat="44.20563" lon="0.68433">
        <ele>169</ele>
        <time>2017-04-30T07:09:20.000Z</time>
      </trkpt>
      <trkpt lat="44.20564" lon="0.68429">
        <ele>169</ele>
        <time>2017-04-30T07:09:21.000Z</time>
      </trkpt>
      <trkpt lat="44.20565" lon="0.68426">
        <ele>169</ele>
        <time>2017-04-30T07:09:22.000Z</time>
      </trkpt>
      <trkpt lat="44.20565" lon="0.68422">
        <ele>169</ele>
        <time>2017-04-30T07:09:23.000Z</time>
      </trkpt>
      <trkpt lat="44.20566" lon="0.68419">
        <ele>170</ele>
        <time>2017-04-30T07:09:24.000Z</time>
      </trkpt>
      <trkpt lat="44.20567" lon="0.68416">
        <ele>170</ele>
        <time>2017-04-30T07:09:25.000Z</time>
      </trkpt>
      <trkpt lat="44.20567" lon="0.68412">
        <ele>170</ele>
        <time>2017-04-30T07:09:26.000Z</time>
      </trkpt>
      <trkpt lat="44.20568" lon="0.68409">
        <ele>170</ele>
        <time>2017-04-30T07:09:27.000Z</time>
      </trkpt>
      <trkpt lat="44.20569" lon="0.68405">
        <ele>170</ele>
        <time>2017-04-30T07:09:28.000Z</time>
      </trkpt>
      <trkpt lat="44.2057" lon="0.68402">
        <ele>171</ele>
        <time>2017-04-30T07:09:29.000Z</time>
      </trkpt>
      <trkpt lat="44.2057" lon="0.68398">
        <ele>171</ele>
        <time>2017-04-30T07:09:30.000Z</time>
      </trkpt>
      <trkpt lat="44.20571" lon="0.68395">
        <ele>171</ele>
        <time>2017-04-30T07:09:31.000Z</time>
      </trkpt>
      <trkpt lat="44.20572" lon="0.68391">
        <ele>171</ele>
        <time>2017-04-30T07:09:32.000Z</time>
      </trkpt>
      <trkpt lat="44.20573" lon="0.68388">
        <ele>172</ele>
        <time>2017-04-30T07:09:33.000Z</time>
      </trkpt>
      <trkpt lat="44.20573" lon="0.68384">
        <ele>172</ele>
        <time>2017-04-30T07:09:34.000Z</time>
      </trkpt>
      <trkpt lat="44.20574" lon="0.68381">
        <ele>172</ele>
        <time>2017-04-30T07:09:35.000Z</time>
      </trkpt>
      <trkpt lat="44.20575" lon="0.68377">
        <ele>172</ele>
        <time>2017-04-30T07:09:36.000Z</time>
      </trkpt>
      <trkpt lat="44.20576" lon="0.68374">
        <ele>172</ele>
        <time>2017-04-30T07:09:37.000Z</time>
      </trkpt>
      <trkpt lat="44.20577" lon="0.6837">
        <ele>172</ele>
        <time>2017-04-30T07:09:38.000Z</time>
      </trkpt>
      <trkpt lat="44.20578" lon="0.68367">
        <ele>173</ele>
        <time>2017-04-30T07:09:39.000Z</time>
      </trkpt>
      <trkpt lat="44.20578" lon="0.68363">
        <ele>173</ele>
        <time>2017-04-30T07:09:40.000Z</time>
      </trkpt>
      <trkpt lat="44.20579" lon="0.6836">
        <ele>173</ele>
        <time>2017-04-30T07:09:41.000Z</time>
      </trkpt>
      <trkpt lat="44.2058" lon="0.68356">
        <ele>173</ele>
        <time>2017-04-30T07:09:42.000Z</time>
      </trkpt>
      <trkpt lat="44.20581" lon="0.68352">
        <ele>174</ele>
        <time>2017-04-30T07:09:43.000Z</time>
      </trkpt>
      <trkpt lat="44.20582" lon="0.68349">
        <ele>174</ele>
        <time>2017-04-30T07:09:44.000Z</time>
      </trkpt>
      <trkpt lat="44.20583" lon="0.68345">
        <ele>174</ele>
        <time>2017-04-30T07:09:45.000Z</time>
      </trkpt>
      <trkpt lat="44.20584" lon="0.68342">
        <ele>174</ele>
        <time>2017-04-30T07:09:46.000Z</time>
      </trkpt>
      <trkpt lat="44.20585" lon="0.68338">
        <ele>175</ele>
        <time>2017-04-30T07:09:47.000Z</time>
      </trkpt>
      <trkpt lat="44.20586" lon="0.68335">
        <ele>175</ele>
        <time>2017-04-30T07:09:48.000Z</time>
      </trkpt>
      <trkpt lat="44.20587" lon="0.68331">
        <ele>175</ele>
        <time>2017-04-30T07:09:49.000Z</time>
      </trkpt>
      <trkpt lat="44.20588" lon="0.68328">
        <ele>175</ele>
        <time>2017-04-30T07:09:50.000Z</time>
      </trkpt>
      <trkpt lat="44.20589" lon="0.68325">
        <ele>176</ele>
        <time>2017-04-30T07:09:51.000Z</time>
      </trkpt>
      <trkpt lat="44.20591" lon="0.68323">
        <ele>176</ele>
        <time>2017-04-30T07:09:52.000Z</time>
      </trkpt>
      <trkpt lat="44.20592" lon="0.68324">
        <ele>176</ele>
        <time>2017-04-30T07:09:53.000Z</time>
      </trkpt>
      <trkpt lat="44.20595" lon="0.68326">
        <ele>176</ele>
        <time>2017-04-30T07:09:54.000Z</time>
      </trkpt>
      <trkpt lat="44.20597" lon="0.68329">
        <ele>175</ele>
        <time>2017-04-30T07:09:55.000Z</time>
      </trkpt>
      <trkpt lat="44.20599" lon="0.68333">
        <ele>175</ele>
        <time>2017-04-30T07:09:56.000Z</time>
      </trkpt>
      <trkpt lat="44.20601" lon="0.68337">
        <ele>175</ele>
        <time>2017-04-30T07:09:57.000Z</time>
      </trkpt>
      <trkpt lat="44.20604" lon="0.68341">
        <ele>175</ele>
        <time>2017-04-30T07:09:58.000Z</time>
      </trkpt>
      <trkpt lat="44.20607" lon="0.68345">
        <ele>175</ele>
        <time>2017-04-30T07:09:59.000Z</time>
      </trkpt>
      <trkpt lat="44.20612" lon="0.68349">
        <ele>176</ele>
        <time>2017-04-30T07:10:00.000Z</time>
      </trkpt>
      <trkpt lat="44.20618" lon="0.68353">
        <ele>177</ele>
        <time>2017-04-30T07:10:01.000Z</time>
      </trkpt>
      <trkpt lat="44.20628" lon="0.68356">
        <ele>179</ele>
        <time>2017-04-30T07:10:02.000Z</time>
      </trkpt>
      <trkpt lat="44.20636" lon="0.6836">
        <ele>180</ele>
        <time>2017-04-30T07:10:03.000Z</time>
      </trkpt>
      <trkpt lat="44.20644" lon="0.68365">
        <ele>178</ele>
        <time>2017-04-30T07:10:04.000Z</time>
      </trkpt>
      <trkpt lat="44.20651" lon="0.68369">
        <ele>178</ele>
        <time>2017-04-30T07:10:05.000Z</time>
      </trkpt>
      <trkpt lat="44.20659" lon="0.68373">
        <ele>177</ele>
        <time>2017-04-30T07:10:06.000Z</time>
      </trkpt>
      <trkpt lat="44.20666" lon="0.68377">
        <ele>177</ele>
        <time>2017-04-30T07:10:07.000Z</time>
      </trkpt>
      <trkpt lat="44.20674" lon="0.68382">
        <ele>177</ele>
        <time>2017-04-30T07:10:08.000Z</time>
      </trkpt>
      <trkpt lat="44.20681" lon="0.68386">
        <ele>176</ele>
        <time>2017-04-30T07:10:09.000Z</time>
      </trkpt>
      <trkpt lat="44.20688" lon="0.6839">
        <ele>176</ele>
        <time>2017-04-30T07:10:10.000Z</time>
      </trkpt>
      <trkpt lat="44.20695" lon="0.68392">
        <ele>175</ele>
        <time>2017-04-30T07:10:11.000Z</time>
      </trkpt>
      <trkpt lat="44.20701" lon="0.68391">
        <ele>174</ele>
        <time>2017-04-30T07:10:12.000Z</time>
      </trkpt>
      <trkpt lat="44.20708" lon="0.68389">
        <ele>173</ele>
        <time>2017-04-30T07:10:13.000Z</time>
      </trkpt>
      <trkpt lat="44.20714" lon="0.68385">
        <ele>174</ele>
        <time>2017-04-30T07:10:14.000Z</time>
      </trkpt>
      <trkpt lat="44.2072" lon="0.68381">
        <ele>173</ele>
        <time>2017-04-30T07:10:15.000Z</time>
      </trkpt>
      <trkpt lat="44.20726" lon="0.68373">
        <ele>172</ele>
        <time>2017-04-30T07:10:16.000Z</time>
      </trkpt>
      <trkpt lat="44.20732" lon="0.68365">
        <ele>171</ele>
        <time>2017-04-30T07:10:17.000Z</time>
      </trkpt>
      <trkpt lat="44.20738" lon="0.68357">
        <ele>170</ele>
        <time>2017-04-30T07:10:18.000Z</time>
      </trkpt>
      <trkpt lat="44.20744" lon="0.68349">
        <ele>169</ele>
        <time>2017-04-30T07:10:19.000Z</time>
      </trkpt>
      <trkpt lat="44.20749" lon="0.68341">
        <ele>169</ele>
        <time>2017-04-30T07:10:20.000Z</time>
      </trkpt>
      <trkpt lat="44.20755" lon="0.68332">
        <ele>168</ele>
        <time>2017-04-30T07:10:21.000Z</time>
      </trkpt>
      <trkpt lat="44.2076" lon="0.68323">
        <ele>167</ele>
        <time>2017-04-30T07:10:22.000Z</time>
      </trkpt>
      <trkpt lat="44.20766" lon="0.68315">
        <ele>167</ele>
        <time>2017-04-30T07:10:23.000Z</time>
      </trkpt>
      <trkpt lat="44.20772" lon="0.68308">
        <ele>166</ele>
        <time>2017-04-30T07:10:24.000Z</time>
      </trkpt>
      <trkpt lat="44.20778" lon="0.68302">
        <ele>166</ele>
        <time>2017-04-30T07:10:25.000Z</time>
      </trkpt>
      <trkpt lat="44.20784" lon="0.68296">
        <ele>165</ele>
        <time>2017-04-30T07:10:26.000Z</time>
      </trkpt>
      <trkpt lat="44.2079" lon="0.68289">
        <ele>166</ele>
        <time>2017-04-30T07:10:27.000Z</time>
      </trkpt>
      <trkpt lat="44.20795" lon="0.68282">
        <ele>165</ele>
        <time>2017-04-30T07:10:28.000Z</time>
      </trkpt>
      <trkpt lat="44.208" lon="0.68275">
        <ele>164</ele>
        <time>2017-04-30T07:10:29.000Z</time>
      </trkpt>
      <trkpt lat="44.20803" lon="0.68267">
        <ele>163</ele>
        <time>2017-04-30T07:10:30.000Z</time>
      </trkpt>
      <trkpt lat="44.20807" lon="0.6826">
        <ele>163</ele>
        <time>2017-04-30T07:10:31.000Z</time>
      </trkpt>
      <trkpt lat="44.2081" lon="0.68253">
        <ele>162</ele>
        <time>2017-04-30T07:10:32.000Z</time>
      </trkpt>
      <trkpt lat="44.20814" lon="0.68245">
        <ele>162</ele>
        <time>2017-04-30T07:10:33.000Z</time>
      </trkpt>
      <trkpt lat="44.20818" lon="0.68237">
        <ele>162</ele>
        <time>2017-04-30T07:10:34.000Z</time>
      </trkpt>
      <trkpt lat="44.20821" lon="0.68228">
        <ele>162</ele>
        <time>2017-04-30T07:10:35.000Z</time>
      </trkpt>
      <trkpt lat="44.20825" lon="0.6822">
        <ele>161</ele>
        <time>2017-04-30T07:10:36.000Z</time>
      </trkpt>
      <trkpt lat="44.20829" lon="0.68211">
        <ele>161</ele>
        <time>2017-04-30T07:10:37.000Z</time>
      </trkpt>
      <trkpt lat="44.20833" lon="0.68202">
        <ele>161</ele>
        <time>2017-04-30T07:10:38.000Z</time>
      </trkpt>
      <trkpt lat="44.20838" lon="0.68193">
        <ele>161</ele>
        <time>2017-04-30T07:10:39.000Z</time>
      </trkpt>
      <trkpt lat="44.20843" lon="0.68184">
        <ele>161</ele>
        <time>2017-04-30T07:10:40.000Z</time>
      </trkpt>
      <trkpt lat="44.20848" lon="0.68177">
        <ele>162</ele>
        <time>2017-04-30T07:10:41.000Z</time>
      </trkpt>
      <trkpt lat="44.20855" lon="0.68172">
        <ele>163</ele>
        <time>2017-04-30T07:10:42.000Z</time>
      </trkpt>
      <trkpt lat="44.2086" lon="0.68171">
        <ele>164</ele>
        <time>2017-04-30T07:10:43.000Z</time>
      </trkpt>
      <trkpt lat="44.20866" lon="0.6817">
        <ele>164</ele>
        <time>2017-04-30T07:10:44.000Z</time>
      </trkpt>
      <trkpt lat="44.20871" lon="0.68167">
        <ele>164</ele>
        <time>2017-04-30T07:10:45.000Z</time>
      </trkpt>
      <trkpt lat="44.20876" lon="0.68162">
        <ele>165</ele>
        <time>2017-04-30T07:10:46.000Z</time>
      </trkpt>
      <trkpt lat="44.20879" lon="0.68156">
        <ele>165</ele>
        <time>2017-04-30T07:10:47.000Z</time>
      </trkpt>
      <trkpt lat="44.20882" lon="0.68148">
        <ele>164</ele>
        <time>2017-04-30T07:10:48.000Z</time>
      </trkpt>
      <trkpt lat="44.20885" lon="0.6814">
        <ele>163</ele>
        <time>2017-04-30T07:10:49.000Z</time>
      </trkpt>
      <trkpt lat="44.20887" lon="0.68132">
        <ele>163</ele>
        <time>2017-04-30T07:10:50.000Z</time>
      </trkpt>
      <trkpt lat="44.2089" lon="0.68124">
        <ele>163</ele>
        <time>2017-04-30T07:10:51.000Z</time>
      </trkpt>
      <trkpt lat="44.20893" lon="0.68117">
        <ele>162</ele>
        <time>2017-04-30T07:10:52.000Z</time>
      </trkpt>
      <trkpt lat="44.20896" lon="0.68108">
        <ele>162</ele>
        <time>2017-04-30T07:10:53.000Z</time>
      </trkpt>
      <trkpt lat="44.20898" lon="0.681">
        <ele>161</ele>
        <time>2017-04-30T07:10:54.000Z</time>
      </trkpt>
      <trkpt lat="44.20901" lon="0.68092">
        <ele>161</ele>
        <time>2017-04-30T07:10:55.000Z</time>
      </trkpt>
      <trkpt lat="44.20904" lon="0.68083">
        <ele>160</ele>
        <time>2017-04-30T07:10:56.000Z</time>
      </trkpt>
      <trkpt lat="44.20907" lon="0.68075">
        <ele>159</ele>
        <time>2017-04-30T07:10:57.000Z</time>
      </trkpt>
      <trkpt lat="44.20909" lon="0.68066">
        <ele>159</ele>
        <time>2017-04-30T07:10:58.000Z</time>
      </trkpt>
      <trkpt lat="44.20912" lon="0.68058">
        <ele>158</ele>
        <time>2017-04-30T07:10:59.000Z</time>
      </trkpt>
      <trkpt lat="44.20915" lon="0.6805">
        <ele>158</ele>
        <time>2017-04-30T07:11:00.000Z</time>
      </trkpt>
      <trkpt lat="44.20918" lon="0.68043">
        <ele>158</ele>
        <time>2017-04-30T07:11:01.000Z</time>
      </trkpt>
      <trkpt lat="44.20921" lon="0.68035">
        <ele>157</ele>
        <time>2017-04-30T07:11:02.000Z</time>
      </trkpt>
      <trkpt lat="44.20923" lon="0.68028">
        <ele>157</ele>
        <time>2017-04-30T07:11:03.000Z</time>
      </trkpt>
      <trkpt lat="44.20925" lon="0.68021">
        <ele>157</ele>
        <time>2017-04-30T07:11:04.000Z</time>
      </trkpt>
      <trkpt lat="44.20928" lon="0.68013">
        <ele>156</ele>
        <time>2017-04-30T07:11:05.000Z</time>
      </trkpt>
      <trkpt lat="44.2093" lon="0.68006">
        <ele>156</ele>
        <time>2017-04-30T07:11:06.000Z</time>
      </trkpt>
      <trkpt lat="44.20932" lon="0.67999">
        <ele>155</ele>
        <time>2017-04-30T07:11:07.000Z</time>
      </trkpt>
      <trkpt lat="44.20934" lon="0.67993">
        <ele>155</ele>
        <time>2017-04-30T07:11:08.000Z</time>
      </trkpt>
      <trkpt lat="44.20935" lon="0.67986">
        <ele>154</ele>
        <time>2017-04-30T07:11:09.000Z</time>
      </trkpt>
      <trkpt lat="44.20938" lon="0.67981">
        <ele>154</ele>
        <time>2017-04-30T07:11:10.000Z</time>
      </trkpt>
      <trkpt lat="44.20942" lon="0.67977">
        <ele>154</ele>
        <time>2017-04-30T07:11:11.000Z</time>
      </trkpt>
      <trkpt lat="44.20947" lon="0.67974">
        <ele>154</ele>
        <time>2017-04-30T07:11:12.000Z</time>
      </trkpt>
      <trkpt lat="44.20951" lon="0.67974">
        <ele>156</ele>
        <time>2017-04-30T07:11:13.000Z</time>
      </trkpt>
      <trkpt lat="44.20956" lon="0.67973">
        <ele>156</ele>
        <time>2017-04-30T07:11:14.000Z</time>
      </trkpt>
      <trkpt lat="44.20962" lon="0.67972">
        <ele>157</ele>
        <time>2017-04-30T07:11:15.000Z</time>
      </trkpt>
      <trkpt lat="44.20967" lon="0.67972">
        <ele>157</ele>
        <time>2017-04-30T07:11:16.000Z</time>
      </trkpt>
      <trkpt lat="44.20973" lon="0.67971">
        <ele>157</ele>
        <time>2017-04-30T07:11:17.000Z</time>
      </trkpt>
      <trkpt lat="44.20979" lon="0.67971">
        <ele>157</ele>
        <time>2017-04-30T07:11:18.000Z</time>
      </trkpt>
      <trkpt lat="44.20985" lon="0.6797">
        <ele>156</ele>
        <time>2017-04-30T07:11:19.000Z</time>
      </trkpt>
      <trkpt lat="44.20992" lon="0.67969">
        <ele>156</ele>
        <time>2017-04-30T07:11:20.000Z</time>
      </trkpt>
      <trkpt lat="44.20998" lon="0.67969">
        <ele>155</ele>
        <time>2017-04-30T07:11:21.000Z</time>
      </trkpt>
      <trkpt lat="44.21005" lon="0.67968">
        <ele>155</ele>
        <time>2017-04-30T07:11:22.000Z</time>
      </trkpt>
      <trkpt lat="44.21013" lon="0.67967">
        <ele>155</ele>
        <time>2017-04-30T07:11:23.000Z</time>
      </trkpt>
      <trkpt lat="44.21021" lon="0.67966">
        <ele>154</ele>
        <time>2017-04-30T07:11:24.000Z</time>
      </trkpt>
      <trkpt lat="44.21029" lon="0.67966">
        <ele>153</ele>
        <time>2017-04-30T07:11:25.000Z</time>
      </trkpt>
      <trkpt lat="44.21037" lon="0.67966">
        <ele>153</ele>
        <time>2017-04-30T07:11:26.000Z</time>
      </trkpt>
      <trkpt lat="44.21045" lon="0.67967">
        <ele>153</ele>
        <time>2017-04-30T07:11:27.000Z</time>
      </trkpt>
      <trkpt lat="44.21054" lon="0.67968">
        <ele>153</ele>
        <time>2017-04-30T07:11:28.000Z</time>
      </trkpt>
      <trkpt lat="44.21062" lon="0.6797">
        <ele>153</ele>
        <time>2017-04-30T07:11:29.000Z</time>
      </trkpt>
      <trkpt lat="44.2107" lon="0.67971">
        <ele>152</ele>
        <time>2017-04-30T07:11:30.000Z</time>
      </trkpt>
      <trkpt lat="44.21078" lon="0.67972">
        <ele>152</ele>
        <time>2017-04-30T07:11:31.000Z</time>
      </trkpt>
      <trkpt lat="44.21085" lon="0.67974">
        <ele>153</ele>
        <time>2017-04-30T07:11:32.000Z</time>
      </trkpt>
      <trkpt lat="44.21092" lon="0.67975">
        <ele>153</ele>
        <time>2017-04-30T07:11:33.000Z</time>
      </trkpt>
      <trkpt lat="44.21098" lon="0.67977">
        <ele>153</ele>
        <time>2017-04-30T07:11:34.000Z</time>
      </trkpt>
      <trkpt lat="44.21104" lon="0.67978">
        <ele>153</ele>
        <time>2017-04-30T07:11:35.000Z</time>
      </trkpt>
      <trkpt lat="44.2111" lon="0.6798">
        <ele>154</ele>
        <time>2017-04-30T07:11:36.000Z</time>
      </trkpt>
      <trkpt lat="44.21116" lon="0.67981">
        <ele>154</ele>
        <time>2017-04-30T07:11:37.000Z</time>
      </trkpt>
      <trkpt lat="44.21121" lon="0.67982">
        <ele>155</ele>
        <time>2017-04-30T07:11:38.000Z</time>
      </trkpt>
      <trkpt lat="44.21127" lon="0.67982">
        <ele>155</ele>
        <time>2017-04-30T07:11:39.000Z</time>
      </trkpt>
      <trkpt lat="44.21133" lon="0.67981">
        <ele>156</ele>
        <time>2017-04-30T07:11:40.000Z</time>
      </trkpt>
      <trkpt lat="44.21138" lon="0.67978">
        <ele>156</ele>
        <time>2017-04-30T07:11:41.000Z</time>
      </trkpt>
      <trkpt lat="44.21142" lon="0.67973">
        <ele>157</ele>
        <time>2017-04-30T07:11:42.000Z</time>
      </trkpt>
      <trkpt lat="44.21145" lon="0.67968">
        <ele>158</ele>
        <time>2017-04-30T07:11:43.000Z</time>
      </trkpt>
      <trkpt lat="44.21149" lon="0.67963">
        <ele>159</ele>
        <time>2017-04-30T07:11:44.000Z</time>
      </trkpt>
      <trkpt lat="44.21153" lon="0.67959">
        <ele>160</ele>
        <time>2017-04-30T07:11:45.000Z</time>
      </trkpt>
      <trkpt lat="44.21157" lon="0.67955">
        <ele>161</ele>
        <time>2017-04-30T07:11:46.000Z</time>
      </trkpt>
      <trkpt lat="44.21162" lon="0.67952">
        <ele>162</ele>
        <time>2017-04-30T07:11:47.000Z</time>
      </trkpt>
      <trkpt lat="44.21167" lon="0.6795">
        <ele>163</ele>
        <time>2017-04-30T07:11:48.000Z</time>
      </trkpt>
      <trkpt lat="44.21172" lon="0.67949">
        <ele>164</ele>
        <time>2017-04-30T07:11:49.000Z</time>
      </trkpt>
      <trkpt lat="44.21176" lon="0.67947">
        <ele>163</ele>
        <time>2017-04-30T07:11:50.000Z</time>
      </trkpt>
      <trkpt lat="44.21181" lon="0.67945">
        <ele>163</ele>
        <time>2017-04-30T07:11:51.000Z</time>
      </trkpt>
      <trkpt lat="44.21185" lon="0.67943">
        <ele>163</ele>
        <time>2017-04-30T07:11:52.000Z</time>
      </trkpt>
      <trkpt lat="44.21189" lon="0.67939">
        <ele>164</ele>
        <time>2017-04-30T07:11:53.000Z</time>
      </trkpt>
      <trkpt lat="44.21194" lon="0.67935">
        <ele>164</ele>
        <time>2017-04-30T07:11:54.000Z</time>
      </trkpt>
      <trkpt lat="44.21197" lon="0.67931">
        <ele>164</ele>
        <time>2017-04-30T07:11:55.000Z</time>
      </trkpt>
      <trkpt lat="44.21201" lon="0.67927">
        <ele>165</ele>
        <time>2017-04-30T07:11:56.000Z</time>
      </trkpt>
      <trkpt lat="44.21206" lon="0.67924">
        <ele>165</ele>
        <time>2017-04-30T07:11:57.000Z</time>
      </trkpt>
      <trkpt lat="44.2121" lon="0.67922">
        <ele>165</ele>
        <time>2017-04-30T07:11:58.000Z</time>
      </trkpt>
      <trkpt lat="44.21214" lon="0.67921">
        <ele>166</ele>
        <time>2017-04-30T07:11:59.000Z</time>
      </trkpt>
      <trkpt lat="44.21219" lon="0.6792">
        <ele>167</ele>
        <time>2017-04-30T07:12:00.000Z</time>
      </trkpt>
      <trkpt lat="44.21224" lon="0.6792">
        <ele>166</ele>
        <time>2017-04-30T07:12:01.000Z</time>
      </trkpt>
      <trkpt lat="44.21229" lon="0.67919">
        <ele>167</ele>
        <time>2017-04-30T07:12:02.000Z</time>
      </trkpt>
      <trkpt lat="44.21234" lon="0.67919">
        <ele>167</ele>
        <time>2017-04-30T07:12:03.000Z</time>
      </trkpt>
      <trkpt lat="44.2124" lon="0.67918">
        <ele>167</ele>
        <time>2017-04-30T07:12:04.000Z</time>
      </trkpt>
      <trkpt lat="44.21245" lon="0.67916">
        <ele>167</ele>
        <time>2017-04-30T07:12:05.000Z</time>
      </trkpt>
      <trkpt lat="44.21249" lon="0.67914">
        <ele>167</ele>
        <time>2017-04-30T07:12:06.000Z</time>
      </trkpt>
      <trkpt lat="44.21254" lon="0.67911">
        <ele>166</ele>
        <time>2017-04-30T07:12:07.000Z</time>
      </trkpt>
      <trkpt lat="44.21259" lon="0.67908">
        <ele>166</ele>
        <time>2017-04-30T07:12:08.000Z</time>
      </trkpt>
      <trkpt lat="44.21264" lon="0.67904">
        <ele>166</ele>
        <time>2017-04-30T07:12:09.000Z</time>
      </trkpt>
      <trkpt lat="44.21269" lon="0.67901">
        <ele>166</ele>
        <time>2017-04-30T07:12:10.000Z</time>
      </trkpt>
      <trkpt lat="44.21275" lon="0.67898">
        <ele>166</ele>
        <time>2017-04-30T07:12:11.000Z</time>
      </trkpt>
      <trkpt lat="44.21281" lon="0.67894">
        <ele>165</ele>
        <time>2017-04-30T07:12:12.000Z</time>
      </trkpt>
      <trkpt lat="44.21287" lon="0.67891">
        <ele>164</ele>
        <time>2017-04-30T07:12:13.000Z</time>
      </trkpt>
      <trkpt lat="44.21293" lon="0.67887">
        <ele>164</ele>
        <time>2017-04-30T07:12:14.000Z</time>
      </trkpt>
      <trkpt lat="44.21299" lon="0.67883">
        <ele>164</ele>
        <time>2017-04-30T07:12:15.000Z</time>
      </trkpt>
      <trkpt lat="44.21306" lon="0.67879">
        <ele>164</ele>
        <time>2017-04-30T07:12:16.000Z</time>
      </trkpt>
      <trkpt lat="44.21313" lon="0.67875">
        <ele>163</ele>
        <time>2017-04-30T07:12:17.000Z</time>
      </trkpt>
      <trkpt lat="44.2132" lon="0.67871">
        <ele>163</ele>
        <time>2017-04-30T07:12:18.000Z</time>
      </trkpt>
      <trkpt lat="44.21328" lon="0.67866">
        <ele>162</ele>
        <time>2017-04-30T07:12:19.000Z</time>
      </trkpt>
      <trkpt lat="44.21335" lon="0.67861">
        <ele>162</ele>
        <time>2017-04-30T07:12:20.000Z</time>
      </trkpt>
      <trkpt lat="44.21342" lon="0.67856">
        <ele>161</ele>
        <time>2017-04-30T07:12:21.000Z</time>
      </trkpt>
      <trkpt lat="44.2135" lon="0.67852">
        <ele>161</ele>
        <time>2017-04-30T07:12:22.000Z</time>
      </trkpt>
      <trkpt lat="44.21357" lon="0.67847">
        <ele>161</ele>
        <time>2017-04-30T07:12:23.000Z</time>
      </trkpt>
      <trkpt lat="44.21365" lon="0.67842">
        <ele>160</ele>
        <time>2017-04-30T07:12:24.000Z</time>
      </trkpt>
      <trkpt lat="44.21372" lon="0.67837">
        <ele>160</ele>
        <time>2017-04-30T07:12:25.000Z</time>
      </trkpt>
      <trkpt lat="44.21379" lon="0.67832">
        <ele>159</ele>
        <time>2017-04-30T07:12:26.000Z</time>
      </trkpt>
      <trkpt lat="44.21386" lon="0.67827">
        <ele>159</ele>
        <time>2017-04-30T07:12:27.000Z</time>
      </trkpt>
      <trkpt lat="44.21393" lon="0.67826">
        <ele>158</ele>
        <time>2017-04-30T07:12:28.000Z</time>
      </trkpt>
      <trkpt lat="44.21397" lon="0.67831">
        <ele>157</ele>
        <time>2017-04-30T07:12:29.000Z</time>
      </trkpt>
      <trkpt lat="44.21402" lon="0.67839">
        <ele>157</ele>
        <time>2017-04-30T07:12:30.000Z</time>
      </trkpt>
      <trkpt lat="44.21405" lon="0.67846">
        <ele>157</ele>
        <time>2017-04-30T07:12:31.000Z</time>
      </trkpt>
      <trkpt lat="44.21409" lon="0.67854">
        <ele>157</ele>
        <time>2017-04-30T07:12:32.000Z</time>
      </trkpt>
      <trkpt lat="44.21412" lon="0.67861">
        <ele>158</ele>
        <time>2017-04-30T07:12:33.000Z</time>
      </trkpt>
      <trkpt lat="44.21415" lon="0.67869">
        <ele>158</ele>
        <time>2017-04-30T07:12:34.000Z</time>
      </trkpt>
      <trkpt lat="44.21418" lon="0.67875">
        <ele>158</ele>
        <time>2017-04-30T07:12:35.000Z</time>
      </trkpt>
      <trkpt lat="44.21421" lon="0.67882">
        <ele>158</ele>
        <time>2017-04-30T07:12:36.000Z</time>
      </trkpt>
      <trkpt lat="44.21424" lon="0.67888">
        <ele>158</ele>
        <time>2017-04-30T07:12:37.000Z</time>
      </trkpt>
      <trkpt lat="44.21427" lon="0.67895">
        <ele>158</ele>
        <time>2017-04-30T07:12:38.000Z</time>
      </trkpt>
      <trkpt lat="44.2143" lon="0.67901">
        <ele>158</ele>
        <time>2017-04-30T07:12:39.000Z</time>
      </trkpt>
      <trkpt lat="44.21433" lon="0.67906">
        <ele>158</ele>
        <time>2017-04-30T07:12:40.000Z</time>
      </trkpt>
      <trkpt lat="44.21436" lon="0.67911">
        <ele>158</ele>
        <time>2017-04-30T07:12:41.000Z</time>
      </trkpt>
      <trkpt lat="44.21439" lon="0.67916">
        <ele>158</ele>
        <time>2017-04-30T07:12:42.000Z</time>
      </trkpt>
      <trkpt lat="44.21444" lon="0.67919">
        <ele>159</ele>
        <time>2017-04-30T07:12:43.000Z</time>
      </trkpt>
      <trkpt lat="44.21449" lon="0.67919">
        <ele>160</ele>
        <time>2017-04-30T07:12:44.000Z</time>
      </trkpt>
      <trkpt lat="44.21453" lon="0.67917">
        <ele>160</ele>
        <time>2017-04-30T07:12:45.000Z</time>
      </trkpt>
      <trkpt lat="44.21457" lon="0.67914">
        <ele>161</ele>
        <time>2017-04-30T07:12:46.000Z</time>
      </trkpt>
      <trkpt lat="44.21461" lon="0.67911">
        <ele>161</ele>
        <time>2017-04-30T07:12:47.000Z</time>
      </trkpt>
      <trkpt lat="44.21465" lon="0.67908">
        <ele>161</ele>
        <time>2017-04-30T07:12:48.000Z</time>
      </trkpt>
      <trkpt lat="44.21469" lon="0.67905">
        <ele>162</ele>
        <time>2017-04-30T07:12:49.000Z</time>
      </trkpt>
      <trkpt lat="44.21473" lon="0.67902">
        <ele>162</ele>
        <time>2017-04-30T07:12:50.000Z</time>
      </trkpt>
      <trkpt lat="44.21477" lon="0.67898">
        <ele>162</ele>
        <time>2017-04-30T07:12:51.000Z</time>
      </trkpt>
      <trkpt lat="44.2148" lon="0.67895">
        <ele>162</ele>
        <time>2017-04-30T07:12:52.000Z</time>
      </trkpt>
      <trkpt lat="44.21484" lon="0.67892">
        <ele>162</ele>
        <time>2017-04-30T07:12:53.000Z</time>
      </trkpt>
      <trkpt lat="44.21488" lon="0.67889">
        <ele>162</ele>
        <time>2017-04-30T07:12:54.000Z</time>
      </trkpt>
      <trkpt lat="44.21492" lon="0.67886">
        <ele>162</ele>
        <time>2017-04-30T07:12:55.000Z</time>
      </trkpt>
      <trkpt lat="44.21496" lon="0.67882">
        <ele>161</ele>
        <time>2017-04-30T07:12:56.000Z</time>
      </trkpt>
      <trkpt lat="44.215" lon="0.67879">
        <ele>161</ele>
        <time>2017-04-30T07:12:57.000Z</time>
      </trkpt>
      <trkpt lat="44.21505" lon="0.67876">
        <ele>161</ele>
        <time>2017-04-30T07:12:58.000Z</time>
      </trkpt>
      <trkpt lat="44.21509" lon="0.67873">
        <ele>161</ele>
        <time>2017-04-30T07:12:59.000Z</time>
      </trkpt>
      <trkpt lat="44.21512" lon="0.6787">
        <ele>161</ele>
        <time>2017-04-30T07:13:00.000Z</time>
      </trkpt>
      <trkpt lat="44.21515" lon="0.67868">
        <ele>160</ele>
        <time>2017-04-30T07:13:01.000Z</time>
      </trkpt>
      <trkpt lat="44.21518" lon="0.67866">
        <ele>161</ele>
        <time>2017-04-30T07:13:02.000Z</time>
      </trkpt>
      <trkpt lat="44.21521" lon="0.67864">
        <ele>161</ele>
        <time>2017-04-30T07:13:03.000Z</time>
      </trkpt>
      <trkpt lat="44.21523" lon="0.67863">
        <ele>161</ele>
        <time>2017-04-30T07:13:04.000Z</time>
      </trkpt>
      <trkpt lat="44.21526" lon="0.67864">
        <ele>162</ele>
        <time>2017-04-30T07:13:05.000Z</time>
      </trkpt>
      <trkpt lat="44.21529" lon="0.67866">
        <ele>164</ele>
        <time>2017-04-30T07:13:06.000Z</time>
      </trkpt>
      <trkpt lat="44.21531" lon="0.67868">
        <ele>164</ele>
        <time>2017-04-30T07:13:07.000Z</time>
      </trkpt>
      <trkpt lat="44.21534" lon="0.67869">
        <ele>164</ele>
        <time>2017-04-30T07:13:08.000Z</time>
      </trkpt>
      <trkpt lat="44.21537" lon="0.67869">
        <ele>165</ele>
        <time>2017-04-30T07:13:09.000Z</time>
      </trkpt>
      <trkpt lat="44.21539" lon="0.6787">
        <ele>166</ele>
        <time>2017-04-30T07:13:10.000Z</time>
      </trkpt>
      <trkpt lat="44.21542" lon="0.67872">
        <ele>166</ele>
        <time>2017-04-30T07:13:11.000Z</time>
      </trkpt>
      <trkpt lat="44.21544" lon="0.67875">
        <ele>167</ele>
        <time>2017-04-30T07:13:12.000Z</time>
      </trkpt>
      <trkpt lat="44.21546" lon="0.67877">
        <ele>168</ele>
        <time>2017-04-30T07:13:13.000Z</time>
      </trkpt>
      <trkpt lat="44.21548" lon="0.67878">
        <ele>168</ele>
        <time>2017-04-30T07:13:14.000Z</time>
      </trkpt>
      <trkpt lat="44.21551" lon="0.67877">
        <ele>170</ele>
        <time>2017-04-30T07:13:15.000Z</time>
      </trkpt>
      <trkpt lat="44.21553" lon="0.67875">
        <ele>172</ele>
        <time>2017-04-30T07:13:16.000Z</time>
      </trkpt>
      <trkpt lat="44.21556" lon="0.67873">
        <ele>172</ele>
        <time>2017-04-30T07:13:17.000Z</time>
      </trkpt>
      <trkpt lat="44.21559" lon="0.6787">
        <ele>173</ele>
        <time>2017-04-30T07:13:18.000Z</time>
      </trkpt>
      <trkpt lat="44.21562" lon="0.67868">
        <ele>174</ele>
        <time>2017-04-30T07:13:19.000Z</time>
      </trkpt>
      <trkpt lat="44.21565" lon="0.67868">
        <ele>176</ele>
        <time>2017-04-30T07:13:20.000Z</time>
      </trkpt>
      <trkpt lat="44.21568" lon="0.67868">
        <ele>176</ele>
        <time>2017-04-30T07:13:21.000Z</time>
      </trkpt>
      <trkpt lat="44.21573" lon="0.67866">
        <ele>178</ele>
        <time>2017-04-30T07:13:22.000Z</time>
      </trkpt>
      <trkpt lat="44.21575" lon="0.67863">
        <ele>181</ele>
        <time>2017-04-30T07:13:23.000Z</time>
      </trkpt>
      <trkpt lat="44.21578" lon="0.6786">
        <ele>182</ele>
        <time>2017-04-30T07:13:24.000Z</time>
      </trkpt>
      <trkpt lat="44.21581" lon="0.67858">
        <ele>184</ele>
        <time>2017-04-30T07:13:25.000Z</time>
      </trkpt>
      <trkpt lat="44.21584" lon="0.67856">
        <ele>185</ele>
        <time>2017-04-30T07:13:26.000Z</time>
      </trkpt>
      <trkpt lat="44.21588" lon="0.67854">
        <ele>186</ele>
        <time>2017-04-30T07:13:27.000Z</time>
      </trkpt>
      <trkpt lat="44.21591" lon="0.67851">
        <ele>188</ele>
        <time>2017-04-30T07:13:28.000Z</time>
      </trkpt>
      <trkpt lat="44.21594" lon="0.67848">
        <ele>189</ele>
        <time>2017-04-30T07:13:29.000Z</time>
      </trkpt>
      <trkpt lat="44.21596" lon="0.67844">
        <ele>191</ele>
        <time>2017-04-30T07:13:30.000Z</time>
      </trkpt>
      <trkpt lat="44.21598" lon="0.67842">
        <ele>191</ele>
        <time>2017-04-30T07:13:31.000Z</time>
      </trkpt>
      <trkpt lat="44.21601" lon="0.67841">
        <ele>191</ele>
        <time>2017-04-30T07:13:32.000Z</time>
      </trkpt>
      <trkpt lat="44.21602" lon="0.67842">
        <ele>188</ele>
        <time>2017-04-30T07:13:33.000Z</time>
      </trkpt>
      <trkpt lat="44.21604" lon="0.67843">
        <ele>187</ele>
        <time>2017-04-30T07:13:34.000Z</time>
      </trkpt>
      <trkpt lat="44.21607" lon="0.67844">
        <ele>187</ele>
        <time>2017-04-30T07:13:35.000Z</time>
      </trkpt>
      <trkpt lat="44.21611" lon="0.67845">
        <ele>187</ele>
        <time>2017-04-30T07:13:36.000Z</time>
      </trkpt>
      <trkpt lat="44.21614" lon="0.67843">
        <ele>186</ele>
        <time>2017-04-30T07:13:37.000Z</time>
      </trkpt>
      <trkpt lat="44.21617" lon="0.67842">
        <ele>185</ele>
        <time>2017-04-30T07:13:38.000Z</time>
      </trkpt>
      <trkpt lat="44.2162" lon="0.67841">
        <ele>185</ele>
        <time>2017-04-30T07:13:39.000Z</time>
      </trkpt>
      <trkpt lat="44.21622" lon="0.67841">
        <ele>185</ele>
        <time>2017-04-30T07:13:40.000Z</time>
      </trkpt>
      <trkpt lat="44.21626" lon="0.67841">
        <ele>186</ele>
        <time>2017-04-30T07:13:41.000Z</time>
      </trkpt>
      <trkpt lat="44.21631" lon="0.67842">
        <ele>186</ele>
        <time>2017-04-30T07:13:42.000Z</time>
      </trkpt>
      <trkpt lat="44.21634" lon="0.6784">
        <ele>185</ele>
        <time>2017-04-30T07:13:43.000Z</time>
      </trkpt>
      <trkpt lat="44.21637" lon="0.6784">
        <ele>184</ele>
        <time>2017-04-30T07:13:44.000Z</time>
      </trkpt>
      <trkpt lat="44.21639" lon="0.67841">
        <ele>184</ele>
        <time>2017-04-30T07:13:45.000Z</time>
      </trkpt>
      <trkpt lat="44.21642" lon="0.67843">
        <ele>184</ele>
        <time>2017-04-30T07:13:46.000Z</time>
      </trkpt>
      <trkpt lat="44.21645" lon="0.67844">
        <ele>182</ele>
        <time>2017-04-30T07:13:47.000Z</time>
      </trkpt>
      <trkpt lat="44.2165" lon="0.67844">
        <ele>180</ele>
        <time>2017-04-30T07:13:48.000Z</time>
      </trkpt>
      <trkpt lat="44.21654" lon="0.67844">
        <ele>182</ele>
        <time>2017-04-30T07:13:49.000Z</time>
      </trkpt>
      <trkpt lat="44.21661" lon="0.67848">
        <ele>181</ele>
        <time>2017-04-30T07:13:50.000Z</time>
      </trkpt>
      <trkpt lat="44.21665" lon="0.67853">
        <ele>182</ele>
        <time>2017-04-30T07:13:51.000Z</time>
      </trkpt>
      <trkpt lat="44.2167" lon="0.6786">
        <ele>183</ele>
        <time>2017-04-30T07:13:52.000Z</time>
      </trkpt>
      <trkpt lat="44.21675" lon="0.67864">
        <ele>179</ele>
        <time>2017-04-30T07:13:53.000Z</time>
      </trkpt>
      <trkpt lat="44.2168" lon="0.67866">
        <ele>178</ele>
        <time>2017-04-30T07:13:54.000Z</time>
      </trkpt>
      <trkpt lat="44.21685" lon="0.67866">
        <ele>179</ele>
        <time>2017-04-30T07:13:55.000Z</time>
      </trkpt>
      <trkpt lat="44.21689" lon="0.67866">
        <ele>181</ele>
        <time>2017-04-30T07:13:56.000Z</time>
      </trkpt>
      <trkpt lat="44.21692" lon="0.67864">
        <ele>180</ele>
        <time>2017-04-30T07:13:57.000Z</time>
      </trkpt>
      <trkpt lat="44.21697" lon="0.67864">
        <ele>179</ele>
        <time>2017-04-30T07:13:58.000Z</time>
      </trkpt>
      <trkpt lat="44.21698" lon="0.67867">
        <ele>174</ele>
        <time>2017-04-30T07:13:59.000Z</time>
      </trkpt>
      <trkpt lat="44.21699" lon="0.67872">
        <ele>172</ele>
        <time>2017-04-30T07:14:00.000Z</time>
      </trkpt>
      <trkpt lat="44.21701" lon="0.67875">
        <ele>170</ele>
        <time>2017-04-30T07:14:01.000Z</time>
      </trkpt>
      <trkpt lat="44.21703" lon="0.67878">
        <ele>170</ele>
        <time>2017-04-30T07:14:02.000Z</time>
      </trkpt>
      <trkpt lat="44.21706" lon="0.67881">
        <ele>171</ele>
        <time>2017-04-30T07:14:03.000Z</time>
      </trkpt>
      <trkpt lat="44.21709" lon="0.67884">
        <ele>171</ele>
        <time>2017-04-30T07:14:04.000Z</time>
      </trkpt>
      <trkpt lat="44.21713" lon="0.67887">
        <ele>172</ele>
        <time>2017-04-30T07:14:05.000Z</time>
      </trkpt>
      <trkpt lat="44.21715" lon="0.67889">
        <ele>172</ele>
        <time>2017-04-30T07:14:06.000Z</time>
      </trkpt>
      <trkpt lat="44.21719" lon="0.67891">
        <ele>173</ele>
        <time>2017-04-30T07:14:07.000Z</time>
      </trkpt>
      <trkpt lat="44.21723" lon="0.67895">
        <ele>173</ele>
        <time>2017-04-30T07:14:08.000Z</time>
      </trkpt>
      <trkpt lat="44.21726" lon="0.67899">
        <ele>172</ele>
        <time>2017-04-30T07:14:09.000Z</time>
      </trkpt>
      <trkpt lat="44.21732" lon="0.67904">
        <ele>172</ele>
        <time>2017-04-30T07:14:10.000Z</time>
      </trkpt>
      <trkpt lat="44.21737" lon="0.67908">
        <ele>173</ele>
        <time>2017-04-30T07:14:11.000Z</time>
      </trkpt>
      <trkpt lat="44.21742" lon="0.67911">
        <ele>174</ele>
        <time>2017-04-30T07:14:12.000Z</time>
      </trkpt>
      <trkpt lat="44.21746" lon="0.67915">
        <ele>174</ele>
        <time>2017-04-30T07:14:13.000Z</time>
      </trkpt>
      <trkpt lat="44.2175" lon="0.67919">
        <ele>175</ele>
        <time>2017-04-30T07:14:14.000Z</time>
      </trkpt>
      <trkpt lat="44.21756" lon="0.67925">
        <ele>176</ele>
        <time>2017-04-30T07:14:15.000Z</time>
      </trkpt>
      <trkpt lat="44.21762" lon="0.6793">
        <ele>175</ele>
        <time>2017-04-30T07:14:16.000Z</time>
      </trkpt>
      <trkpt lat="44.21767" lon="0.67935">
        <ele>175</ele>
        <time>2017-04-30T07:14:17.000Z</time>
      </trkpt>
      <trkpt lat="44.21772" lon="0.67937">
        <ele>176</ele>
        <time>2017-04-30T07:14:18.000Z</time>
      </trkpt>
      <trkpt lat="44.21776" lon="0.67941">
        <ele>176</ele>
        <time>2017-04-30T07:14:19.000Z</time>
      </trkpt>
      <trkpt lat="44.21781" lon="0.67944">
        <ele>176</ele>
        <time>2017-04-30T07:14:20.000Z</time>
      </trkpt>
      <trkpt lat="44.21785" lon="0.67947">
        <ele>178</ele>
        <time>2017-04-30T07:14:21.000Z</time>
      </trkpt>
      <trkpt lat="44.2179" lon="0.6795">
        <ele>177</ele>
        <time>2017-04-30T07:14:22.000Z</time>
      </trkpt>
      <trkpt lat="44.21795" lon="0.67953">
        <ele>178</ele>
        <time>2017-04-30T07:14:23.000Z</time>
      </trkpt>
      <trkpt lat="44.21798" lon="0.67956">
        <ele>178</ele>
        <time>2017-04-30T07:14:24.000Z</time>
      </trkpt>
      <trkpt lat="44.21801" lon="0.67959">
        <ele>178</ele>
        <time>2017-04-30T07:14:25.000Z</time>
      </trkpt>
      <trkpt lat="44.21801" lon="0.67965">
        <ele>176</ele>
        <time>2017-04-30T07:14:26.000Z</time>
      </trkpt>
      <trkpt lat="44.21803" lon="0.6797">
        <ele>176</ele>
        <time>2017-04-30T07:14:27.000Z</time>
      </trkpt>
      <trkpt lat="44.21805" lon="0.67973">
        <ele>177</ele>
        <time>2017-04-30T07:14:28.000Z</time>
      </trkpt>
      <trkpt lat="44.21808" lon="0.67976">
        <ele>178</ele>
        <time>2017-04-30T07:14:29.000Z</time>
      </trkpt>
      <trkpt lat="44.21813" lon="0.67979">
        <ele>179</ele>
        <time>2017-04-30T07:14:30.000Z</time>
      </trkpt>
      <trkpt lat="44.21817" lon="0.67982">
        <ele>180</ele>
        <time>2017-04-30T07:14:31.000Z</time>
      </trkpt>
      <trkpt lat="44.2182" lon="0.67984">
        <ele>182</ele>
        <time>2017-04-30T07:14:32.000Z</time>
      </trkpt>
      <trkpt lat="44.21823" lon="0.67981">
        <ele>182</ele>
        <time>2017-04-30T07:14:33.000Z</time>
      </trkpt>
      <trkpt lat="44.21827" lon="0.6798">
        <ele>183</ele>
        <time>2017-04-30T07:14:34.000Z</time>
      </trkpt>
      <trkpt lat="44.21832" lon="0.6798">
        <ele>183</ele>
        <time>2017-04-30T07:14:35.000Z</time>
      </trkpt>
      <trkpt lat="44.21836" lon="0.6798">
        <ele>184</ele>
        <time>2017-04-30T07:14:36.000Z</time>
      </trkpt>
      <trkpt lat="44.2184" lon="0.67982">
        <ele>182</ele>
        <time>2017-04-30T07:14:37.000Z</time>
      </trkpt>
      <trkpt lat="44.21844" lon="0.67985">
        <ele>180</ele>
        <time>2017-04-30T07:14:38.000Z</time>
      </trkpt>
      <trkpt lat="44.21847" lon="0.67987">
        <ele>180</ele>
        <time>2017-04-30T07:14:39.000Z</time>
      </trkpt>
      <trkpt lat="44.21851" lon="0.67989">
        <ele>182</ele>
        <time>2017-04-30T07:14:40.000Z</time>
      </trkpt>
      <trkpt lat="44.21855" lon="0.6799">
        <ele>183</ele>
        <time>2017-04-30T07:14:41.000Z</time>
      </trkpt>
      <trkpt lat="44.21861" lon="0.67992">
        <ele>184</ele>
        <time>2017-04-30T07:14:42.000Z</time>
      </trkpt>
      <trkpt lat="44.21866" lon="0.67993">
        <ele>183</ele>
        <time>2017-04-30T07:14:43.000Z</time>
      </trkpt>
      <trkpt lat="44.2187" lon="0.67996">
        <ele>184</ele>
        <time>2017-04-30T07:14:44.000Z</time>
      </trkpt>
      <trkpt lat="44.21875" lon="0.68">
        <ele>186</ele>
        <time>2017-04-30T07:14:45.000Z</time>
      </trkpt>
      <trkpt lat="44.21878" lon="0.68003">
        <ele>185</ele>
        <time>2017-04-30T07:14:46.000Z</time>
      </trkpt>
      <trkpt lat="44.21881" lon="0.68005">
        <ele>184</ele>
        <time>2017-04-30T07:14:47.000Z</time>
      </trkpt>
      <trkpt lat="44.21884" lon="0.68007">
        <ele>183</ele>
        <time>2017-04-30T07:14:48.000Z</time>
      </trkpt>
      <trkpt lat="44.21887" lon="0.6801">
        <ele>182</ele>
        <time>2017-04-30T07:14:49.000Z</time>
      </trkpt>
      <trkpt lat="44.21888" lon="0.68014">
        <ele>181</ele>
        <time>2017-04-30T07:14:50.000Z</time>
      </trkpt>
      <trkpt lat="44.21887" lon="0.68018">
        <ele>179</ele>
        <time>2017-04-30T07:14:51.000Z</time>
      </trkpt>
      <trkpt lat="44.21886" lon="0.68022">
        <ele>179</ele>
        <time>2017-04-30T07:14:52.000Z</time>
      </trkpt>
      <trkpt lat="44.21889" lon="0.68026">
        <ele>179</ele>
        <time>2017-04-30T07:14:53.000Z</time>
      </trkpt>
      <trkpt lat="44.21893" lon="0.6803">
        <ele>176</ele>
        <time>2017-04-30T07:14:54.000Z</time>
      </trkpt>
      <trkpt lat="44.21897" lon="0.68031">
        <ele>176</ele>
        <time>2017-04-30T07:14:55.000Z</time>
      </trkpt>
      <trkpt lat="44.219" lon="0.68032">
        <ele>176</ele>
        <time>2017-04-30T07:14:56.000Z</time>
      </trkpt>
      <trkpt lat="44.21904" lon="0.68034">
        <ele>175</ele>
        <time>2017-04-30T07:14:57.000Z</time>
      </trkpt>
      <trkpt lat="44.21906" lon="0.68036">
        <ele>174</ele>
        <time>2017-04-30T07:14:58.000Z</time>
      </trkpt>
      <trkpt lat="44.21909" lon="0.68038">
        <ele>174</ele>
        <time>2017-04-30T07:14:59.000Z</time>
      </trkpt>
      <trkpt lat="44.21911" lon="0.68042">
        <ele>173</ele>
        <time>2017-04-30T07:15:00.000Z</time>
      </trkpt>
      <trkpt lat="44.21913" lon="0.68044">
        <ele>174</ele>
        <time>2017-04-30T07:15:01.000Z</time>
      </trkpt>
      <trkpt lat="44.21915" lon="0.68047">
        <ele>174</ele>
        <time>2017-04-30T07:15:02.000Z</time>
      </trkpt>
      <trkpt lat="44.21918" lon="0.6805">
        <ele>175</ele>
        <time>2017-04-30T07:15:03.000Z</time>
      </trkpt>
      <trkpt lat="44.2192" lon="0.68053">
        <ele>175</ele>
        <time>2017-04-30T07:15:04.000Z</time>
      </trkpt>
      <trkpt lat="44.21923" lon="0.68054">
        <ele>176</ele>
        <time>2017-04-30T07:15:05.000Z</time>
      </trkpt>
      <trkpt lat="44.21925" lon="0.68056">
        <ele>176</ele>
        <time>2017-04-30T07:15:06.000Z</time>
      </trkpt>
      <trkpt lat="44.21928" lon="0.68057">
        <ele>177</ele>
        <time>2017-04-30T07:15:07.000Z</time>
      </trkpt>
      <trkpt lat="44.2193" lon="0.68059">
        <ele>178</ele>
        <time>2017-04-30T07:15:08.000Z</time>
      </trkpt>
      <trkpt lat="44.21932" lon="0.68063">
        <ele>180</ele>
        <time>2017-04-30T07:15:09.000Z</time>
      </trkpt>
      <trkpt lat="44.21931" lon="0.68069">
        <ele>180</ele>
        <time>2017-04-30T07:15:10.000Z</time>
      </trkpt>
      <trkpt lat="44.21932" lon="0.68074">
        <ele>180</ele>
        <time>2017-04-30T07:15:11.000Z</time>
      </trkpt>
      <trkpt lat="44.21933" lon="0.6808">
        <ele>181</ele>
        <time>2017-04-30T07:15:12.000Z</time>
      </trkpt>
      <trkpt lat="44.21933" lon="0.68085">
        <ele>181</ele>
        <time>2017-04-30T07:15:13.000Z</time>
      </trkpt>
      <trkpt lat="44.21933" lon="0.68091">
        <ele>180</ele>
        <time>2017-04-30T07:15:14.000Z</time>
      </trkpt>
      <trkpt lat="44.21934" lon="0.68096">
        <ele>180</ele>
        <time>2017-04-30T07:15:15.000Z</time>
      </trkpt>
      <trkpt lat="44.21934" lon="0.68101">
        <ele>181</ele>
        <time>2017-04-30T07:15:16.000Z</time>
      </trkpt>
      <trkpt lat="44.21934" lon="0.68106">
        <ele>182</ele>
        <time>2017-04-30T07:15:17.000Z</time>
      </trkpt>
      <trkpt lat="44.21934" lon="0.68111">
        <ele>182</ele>
        <time>2017-04-30T07:15:18.000Z</time>
      </trkpt>
      <trkpt lat="44.21935" lon="0.68115">
        <ele>181</ele>
        <time>2017-04-30T07:15:19.000Z</time>
      </trkpt>
      <trkpt lat="44.21935" lon="0.68119">
        <ele>182</ele>
        <time>2017-04-30T07:15:20.000Z</time>
      </trkpt>
      <trkpt lat="44.21935" lon="0.68124">
        <ele>182</ele>
        <time>2017-04-30T07:15:21.000Z</time>
      </trkpt>
      <trkpt lat="44.21935" lon="0.68128">
        <ele>182</ele>
        <time>2017-04-30T07:15:22.000Z</time>
      </trkpt>
      <trkpt lat="44.21936" lon="0.68132">
        <ele>181</ele>
        <time>2017-04-30T07:15:23.000Z</time>
      </trkpt>
      <trkpt lat="44.21939" lon="0.68132">
        <ele>182</ele>
        <time>2017-04-30T07:15:24.000Z</time>
      </trkpt>
      <trkpt lat="44.21942" lon="0.68134">
        <ele>183</ele>
        <time>2017-04-30T07:15:25.000Z</time>
      </trkpt>
      <trkpt lat="44.21941" lon="0.68138">
        <ele>181</ele>
        <time>2017-04-30T07:15:26.000Z</time>
      </trkpt>
      <trkpt lat="44.2194" lon="0.68141">
        <ele>180</ele>
        <time>2017-04-30T07:15:27.000Z</time>
      </trkpt>
      <trkpt lat="44.21939" lon="0.68143">
        <ele>180</ele>
        <time>2017-04-30T07:15:28.000Z</time>
      </trkpt>
      <trkpt lat="44.21939" lon="0.68145">
        <ele>180</ele>
        <time>2017-04-30T07:15:29.000Z</time>
      </trkpt>
      <trkpt lat="44.21937" lon="0.68146">
        <ele>181</ele>
        <time>2017-04-30T07:15:30.000Z</time>
      </trkpt>
      <trkpt lat="44.21935" lon="0.68146">
        <ele>180</ele>
        <time>2017-04-30T07:15:31.000Z</time>
      </trkpt>
      <trkpt lat="44.21933" lon="0.68149">
        <ele>179</ele>
        <time>2017-04-30T07:15:32.000Z</time>
      </trkpt>
      <trkpt lat="44.21932" lon="0.68152">
        <ele>177</ele>
        <time>2017-04-30T07:15:33.000Z</time>
      </trkpt>
      <trkpt lat="44.21932" lon="0.68155">
        <ele>177</ele>
        <time>2017-04-30T07:15:34.000Z</time>
      </trkpt>
      <trkpt lat="44.21931" lon="0.68158">
        <ele>176</ele>
        <time>2017-04-30T07:15:35.000Z</time>
      </trkpt>
      <trkpt lat="44.2193" lon="0.68163">
        <ele>178</ele>
        <time>2017-04-30T07:15:36.000Z</time>
      </trkpt>
      <trkpt lat="44.2193" lon="0.68168">
        <ele>176</ele>
        <time>2017-04-30T07:15:37.000Z</time>
      </trkpt>
      <trkpt lat="44.2193" lon="0.68172">
        <ele>175</ele>
        <time>2017-04-30T07:15:38.000Z</time>
      </trkpt>
      <trkpt lat="44.2193" lon="0.68179">
        <ele>179</ele>
        <time>2017-04-30T07:15:39.000Z</time>
      </trkpt>
      <trkpt lat="44.21936" lon="0.6818">
        <ele>178</ele>
        <time>2017-04-30T07:15:40.000Z</time>
      </trkpt>
      <trkpt lat="44.21942" lon="0.68183">
        <ele>180</ele>
        <time>2017-04-30T07:15:41.000Z</time>
      </trkpt>
      <trkpt lat="44.21947" lon="0.68185">
        <ele>180</ele>
        <time>2017-04-30T07:15:42.000Z</time>
      </trkpt>
      <trkpt lat="44.21951" lon="0.68186">
        <ele>180</ele>
        <time>2017-04-30T07:15:43.000Z</time>
      </trkpt>
      <trkpt lat="44.21955" lon="0.68188">
        <ele>180</ele>
        <time>2017-04-30T07:15:44.000Z</time>
      </trkpt>
      <trkpt lat="44.21956" lon="0.68193">
        <ele>181</ele>
        <time>2017-04-30T07:15:45.000Z</time>
      </trkpt>
      <trkpt lat="44.21958" lon="0.68197">
        <ele>180</ele>
        <time>2017-04-30T07:15:46.000Z</time>
      </trkpt>
      <trkpt lat="44.2196" lon="0.68202">
        <ele>179</ele>
        <time>2017-04-30T07:15:47.000Z</time>
      </trkpt>
      <trkpt lat="44.21962" lon="0.68207">
        <ele>179</ele>
        <time>2017-04-30T07:15:48.000Z</time>
      </trkpt>
      <trkpt lat="44.21963" lon="0.68211">
        <ele>179</ele>
        <time>2017-04-30T07:15:49.000Z</time>
      </trkpt>
      <trkpt lat="44.21965" lon="0.68214">
        <ele>179</ele>
        <time>2017-04-30T07:15:50.000Z</time>
      </trkpt>
      <trkpt lat="44.21966" lon="0.68218">
        <ele>179</ele>
        <time>2017-04-30T07:15:51.000Z</time>
      </trkpt>
      <trkpt lat="44.21967" lon="0.68222">
        <ele>180</ele>
        <time>2017-04-30T07:15:52.000Z</time>
      </trkpt>
      <trkpt lat="44.21967" lon="0.68227">
        <ele>180</ele>
        <time>2017-04-30T07:15:53.000Z</time>
      </trkpt>
      <trkpt lat="44.21968" lon="0.68231">
        <ele>179</ele>
        <time>2017-04-30T07:15:54.000Z</time>
      </trkpt>
      <trkpt lat="44.21969" lon="0.68234">
        <ele>180</ele>
        <time>2017-04-30T07:15:55.000Z</time>
      </trkpt>
      <trkpt lat="44.2197" lon="0.68238">
        <ele>179</ele>
        <time>2017-04-30T07:15:56.000Z</time>
      </trkpt>
      <trkpt lat="44.21971" lon="0.68241">
        <ele>180</ele>
        <time>2017-04-30T07:15:57.000Z</time>
      </trkpt>
      <trkpt lat="44.21974" lon="0.68244">
        <ele>179</ele>
        <time>2017-04-30T07:15:58.000Z</time>
      </trkpt>
      <trkpt lat="44.21976" lon="0.68246">
        <ele>179</ele>
        <time>2017-04-30T07:15:59.000Z</time>
      </trkpt>
      <trkpt lat="44.21979" lon="0.68248">
        <ele>179</ele>
        <time>2017-04-30T07:16:00.000Z</time>
      </trkpt>
      <trkpt lat="44.21983" lon="0.68249">
        <ele>180</ele>
        <time>2017-04-30T07:16:01.000Z</time>
      </trkpt>
      <trkpt lat="44.21988" lon="0.68249">
        <ele>180</ele>
        <time>2017-04-30T07:16:02.000Z</time>
      </trkpt>
      <trkpt lat="44.21993" lon="0.68249">
        <ele>180</ele>
        <time>2017-04-30T07:16:03.000Z</time>
      </trkpt>
      <trkpt lat="44.21997" lon="0.6825">
        <ele>180</ele>
        <time>2017-04-30T07:16:04.000Z</time>
      </trkpt>
      <trkpt lat="44.21997" lon="0.68256">
        <ele>174</ele>
        <time>2017-04-30T07:16:05.000Z</time>
      </trkpt>
      <trkpt lat="44.22" lon="0.68261">
        <ele>175</ele>
        <time>2017-04-30T07:16:06.000Z</time>
      </trkpt>
      <trkpt lat="44.22004" lon="0.68265">
        <ele>177</ele>
        <time>2017-04-30T07:16:07.000Z</time>
      </trkpt>
      <trkpt lat="44.22007" lon="0.6827">
        <ele>179</ele>
        <time>2017-04-30T07:16:08.000Z</time>
      </trkpt>
      <trkpt lat="44.22011" lon="0.68273">
        <ele>180</ele>
        <time>2017-04-30T07:16:09.000Z</time>
      </trkpt>
      <trkpt lat="44.22014" lon="0.68275">
        <ele>182</ele>
        <time>2017-04-30T07:16:10.000Z</time>
      </trkpt>
      <trkpt lat="44.22021" lon="0.68276">
        <ele>181</ele>
        <time>2017-04-30T07:16:11.000Z</time>
      </trkpt>
      <trkpt lat="44.22024" lon="0.68279">
        <ele>183</ele>
        <time>2017-04-30T07:16:12.000Z</time>
      </trkpt>
      <trkpt lat="44.22028" lon="0.68282">
        <ele>182</ele>
        <time>2017-04-30T07:16:13.000Z</time>
      </trkpt>
      <trkpt lat="44.22032" lon="0.68284">
        <ele>184</ele>
        <time>2017-04-30T07:16:14.000Z</time>
      </trkpt>
      <trkpt lat="44.22036" lon="0.68286">
        <ele>185</ele>
        <time>2017-04-30T07:16:15.000Z</time>
      </trkpt>
      <trkpt lat="44.22039" lon="0.68287">
        <ele>184</ele>
        <time>2017-04-30T07:16:16.000Z</time>
      </trkpt>
      <trkpt lat="44.22042" lon="0.68286">
        <ele>183</ele>
        <time>2017-04-30T07:16:17.000Z</time>
      </trkpt>
      <trkpt lat="44.22046" lon="0.68285">
        <ele>179</ele>
        <time>2017-04-30T07:16:18.000Z</time>
      </trkpt>
      <trkpt lat="44.22051" lon="0.68284">
        <ele>179</ele>
        <time>2017-04-30T07:16:19.000Z</time>
      </trkpt>
      <trkpt lat="44.22055" lon="0.68284">
        <ele>180</ele>
        <time>2017-04-30T07:16:20.000Z</time>
      </trkpt>
      <trkpt lat="44.22058" lon="0.68284">
        <ele>179</ele>
        <time>2017-04-30T07:16:21.000Z</time>
      </trkpt>
      <trkpt lat="44.22061" lon="0.68285">
        <ele>179</ele>
        <time>2017-04-30T07:16:22.000Z</time>
      </trkpt>
      <trkpt lat="44.22065" lon="0.68291">
        <ele>178</ele>
        <time>2017-04-30T07:16:23.000Z</time>
      </trkpt>
      <trkpt lat="44.22069" lon="0.68293">
        <ele>179</ele>
        <time>2017-04-30T07:16:24.000Z</time>
      </trkpt>
      <trkpt lat="44.22073" lon="0.68295">
        <ele>179</ele>
        <time>2017-04-30T07:16:25.000Z</time>
      </trkpt>
      <trkpt lat="44.22079" lon="0.68297">
        <ele>181</ele>
        <time>2017-04-30T07:16:26.000Z</time>
      </trkpt>
      <trkpt lat="44.22083" lon="0.683">
        <ele>182</ele>
        <time>2017-04-30T07:16:27.000Z</time>
      </trkpt>
      <trkpt lat="44.22085" lon="0.68304">
        <ele>182</ele>
        <time>2017-04-30T07:16:28.000Z</time>
      </trkpt>
      <trkpt lat="44.22087" lon="0.68311">
        <ele>182</ele>
        <time>2017-04-30T07:16:29.000Z</time>
      </trkpt>
      <trkpt lat="44.22089" lon="0.68317">
        <ele>180</ele>
        <time>2017-04-30T07:16:30.000Z</time>
      </trkpt>
      <trkpt lat="44.22092" lon="0.68323">
        <ele>178</ele>
        <time>2017-04-30T07:16:31.000Z</time>
      </trkpt>
      <trkpt lat="44.22095" lon="0.68329">
        <ele>176</ele>
        <time>2017-04-30T07:16:32.000Z</time>
      </trkpt>
      <trkpt lat="44.22097" lon="0.68338">
        <ele>176</ele>
        <time>2017-04-30T07:16:33.000Z</time>
      </trkpt>
      <trkpt lat="44.22096" lon="0.68346">
        <ele>172</ele>
        <time>2017-04-30T07:16:34.000Z</time>
      </trkpt>
      <trkpt lat="44.22097" lon="0.68353">
        <ele>173</ele>
        <time>2017-04-30T07:16:35.000Z</time>
      </trkpt>
      <trkpt lat="44.22098" lon="0.6836">
        <ele>174</ele>
        <time>2017-04-30T07:16:36.000Z</time>
      </trkpt>
      <trkpt lat="44.221" lon="0.68366">
        <ele>172</ele>
        <time>2017-04-30T07:16:37.000Z</time>
      </trkpt>
      <trkpt lat="44.22099" lon="0.68371">
        <ele>173</ele>
        <time>2017-04-30T07:16:38.000Z</time>
      </trkpt>
      <trkpt lat="44.22095" lon="0.68373">
        <ele>173</ele>
        <time>2017-04-30T07:16:39.000Z</time>
      </trkpt>
      <trkpt lat="44.22089" lon="0.68372">
        <ele>170</ele>
        <time>2017-04-30T07:16:40.000Z</time>
      </trkpt>
      <trkpt lat="44.22086" lon="0.68375">
        <ele>169</ele>
        <time>2017-04-30T07:16:41.000Z</time>
      </trkpt>
      <trkpt lat="44.22084" lon="0.68378">
        <ele>167</ele>
        <time>2017-04-30T07:16:42.000Z</time>
      </trkpt>
      <trkpt lat="44.22082" lon="0.68381">
        <ele>164</ele>
        <time>2017-04-30T07:16:43.000Z</time>
      </trkpt>
      <trkpt lat="44.22081" lon="0.68384">
        <ele>165</ele>
        <time>2017-04-30T07:16:44.000Z</time>
      </trkpt>
      <trkpt lat="44.22079" lon="0.68391">
        <ele>165</ele>
        <time>2017-04-30T07:16:45.000Z</time>
      </trkpt>
      <trkpt lat="44.22077" lon="0.68395">
        <ele>166</ele>
        <time>2017-04-30T07:16:46.000Z</time>
      </trkpt>
      <trkpt lat="44.22078" lon="0.684">
        <ele>166</ele>
        <time>2017-04-30T07:16:47.000Z</time>
      </trkpt>
      <trkpt lat="44.22078" lon="0.68404">
        <ele>165</ele>
        <time>2017-04-30T07:16:48.000Z</time>
      </trkpt>
      <trkpt lat="44.22076" lon="0.68408">
        <ele>162</ele>
        <time>2017-04-30T07:16:49.000Z</time>
      </trkpt>
      <trkpt lat="44.22075" lon="0.68411">
        <ele>160</ele>
        <time>2017-04-30T07:16:50.000Z</time>
      </trkpt>
      <trkpt lat="44.22074" lon="0.68413">
        <ele>159</ele>
        <time>2017-04-30T07:16:51.000Z</time>
      </trkpt>
      <trkpt lat="44.22073" lon="0.68414">
        <ele>163</ele>
        <time>2017-04-30T07:16:52.000Z</time>
      </trkpt>
      <trkpt lat="44.22069" lon="0.68416">
        <ele>158</ele>
        <time>2017-04-30T07:16:53.000Z</time>
      </trkpt>
      <trkpt lat="44.22065" lon="0.68418">
        <ele>158</ele>
        <time>2017-04-30T07:16:54.000Z</time>
      </trkpt>
      <trkpt lat="44.22062" lon="0.68419">
        <ele>157</ele>
        <time>2017-04-30T07:16:55.000Z</time>
      </trkpt>
      <trkpt lat="44.22059" lon="0.6842">
        <ele>157</ele>
        <time>2017-04-30T07:16:56.000Z</time>
      </trkpt>
      <trkpt lat="44.22057" lon="0.6842">
        <ele>158</ele>
        <time>2017-04-30T07:16:57.000Z</time>
      </trkpt>
      <trkpt lat="44.22054" lon="0.68421">
        <ele>158</ele>
        <time>2017-04-30T07:16:58.000Z</time>
      </trkpt>
      <trkpt lat="44.2205" lon="0.68423">
        <ele>159</ele>
        <time>2017-04-30T07:16:59.000Z</time>
      </trkpt>
      <trkpt lat="44.22047" lon="0.68425">
        <ele>159</ele>
        <time>2017-04-30T07:17:00.000Z</time>
      </trkpt>
      <trkpt lat="44.22043" lon="0.68428">
        <ele>159</ele>
        <time>2017-04-30T07:17:01.000Z</time>
      </trkpt>
      <trkpt lat="44.22039" lon="0.68429">
        <ele>159</ele>
        <time>2017-04-30T07:17:02.000Z</time>
      </trkpt>
      <trkpt lat="44.22035" lon="0.68431">
        <ele>159</ele>
        <time>2017-04-30T07:17:03.000Z</time>
      </trkpt>
      <trkpt lat="44.22031" lon="0.68433">
        <ele>160</ele>
        <time>2017-04-30T07:17:04.000Z</time>
      </trkpt>
      <trkpt lat="44.22027" lon="0.68434">
        <ele>161</ele>
        <time>2017-04-30T07:17:05.000Z</time>
      </trkpt>
      <trkpt lat="44.22023" lon="0.68435">
        <ele>160</ele>
        <time>2017-04-30T07:17:06.000Z</time>
      </trkpt>
      <trkpt lat="44.22018" lon="0.68436">
        <ele>160</ele>
        <time>2017-04-30T07:17:07.000Z</time>
      </trkpt>
      <trkpt lat="44.22014" lon="0.68438">
        <ele>161</ele>
        <time>2017-04-30T07:17:08.000Z</time>
      </trkpt>
      <trkpt lat="44.22009" lon="0.68441">
        <ele>162</ele>
        <time>2017-04-30T07:17:09.000Z</time>
      </trkpt>
      <trkpt lat="44.22005" lon="0.68443">
        <ele>162</ele>
        <time>2017-04-30T07:17:10.000Z</time>
      </trkpt>
      <trkpt lat="44.22" lon="0.68445">
        <ele>162</ele>
        <time>2017-04-30T07:17:11.000Z</time>
      </trkpt>
      <trkpt lat="44.21996" lon="0.68446">
        <ele>163</ele>
        <time>2017-04-30T07:17:12.000Z</time>
      </trkpt>
      <trkpt lat="44.21992" lon="0.68447">
        <ele>163</ele>
        <time>2017-04-30T07:17:13.000Z</time>
      </trkpt>
      <trkpt lat="44.21989" lon="0.68449">
        <ele>163</ele>
        <time>2017-04-30T07:17:14.000Z</time>
      </trkpt>
      <trkpt lat="44.21985" lon="0.68451">
        <ele>162</ele>
        <time>2017-04-30T07:17:15.000Z</time>
      </trkpt>
      <trkpt lat="44.21983" lon="0.68454">
        <ele>163</ele>
        <time>2017-04-30T07:17:16.000Z</time>
      </trkpt>
      <trkpt lat="44.21981" lon="0.68458">
        <ele>165</ele>
        <time>2017-04-30T07:17:17.000Z</time>
      </trkpt>
      <trkpt lat="44.2198" lon="0.68461">
        <ele>166</ele>
        <time>2017-04-30T07:17:18.000Z</time>
      </trkpt>
      <trkpt lat="44.21979" lon="0.68465">
        <ele>167</ele>
        <time>2017-04-30T07:17:19.000Z</time>
      </trkpt>
      <trkpt lat="44.21987" lon="0.68471">
        <ele>169</ele>
        <time>2017-04-30T07:17:20.000Z</time>
      </trkpt>
      <trkpt lat="44.21989" lon="0.68476">
        <ele>168</ele>
        <time>2017-04-30T07:17:21.000Z</time>
      </trkpt>
      <trkpt lat="44.21992" lon="0.68482">
        <ele>170</ele>
        <time>2017-04-30T07:17:22.000Z</time>
      </trkpt>
      <trkpt lat="44.21994" lon="0.68489">
        <ele>172</ele>
        <time>2017-04-30T07:17:23.000Z</time>
      </trkpt>
      <trkpt lat="44.21996" lon="0.68495">
        <ele>173</ele>
        <time>2017-04-30T07:17:24.000Z</time>
      </trkpt>
      <trkpt lat="44.21997" lon="0.68501">
        <ele>174</ele>
        <time>2017-04-30T07:17:25.000Z</time>
      </trkpt>
      <trkpt lat="44.21998" lon="0.68506">
        <ele>175</ele>
        <time>2017-04-30T07:17:26.000Z</time>
      </trkpt>
      <trkpt lat="44.21998" lon="0.68511">
        <ele>177</ele>
        <time>2017-04-30T07:17:27.000Z</time>
      </trkpt>
      <trkpt lat="44.21999" lon="0.68516">
        <ele>178</ele>
        <time>2017-04-30T07:17:28.000Z</time>
      </trkpt>
      <trkpt lat="44.22" lon="0.68521">
        <ele>179</ele>
        <time>2017-04-30T07:17:29.000Z</time>
      </trkpt>
      <trkpt lat="44.22001" lon="0.68526">
        <ele>182</ele>
        <time>2017-04-30T07:17:30.000Z</time>
      </trkpt>
      <trkpt lat="44.22" lon="0.68531">
        <ele>182</ele>
        <time>2017-04-30T07:17:31.000Z</time>
      </trkpt>
      <trkpt lat="44.22001" lon="0.68535">
        <ele>183</ele>
        <time>2017-04-30T07:17:32.000Z</time>
      </trkpt>
      <trkpt lat="44.22003" lon="0.6854">
        <ele>184</ele>
        <time>2017-04-30T07:17:33.000Z</time>
      </trkpt>
      <trkpt lat="44.22007" lon="0.68542">
        <ele>182</ele>
        <time>2017-04-30T07:17:34.000Z</time>
      </trkpt>
      <trkpt lat="44.22012" lon="0.68544">
        <ele>184</ele>
        <time>2017-04-30T07:17:35.000Z</time>
      </trkpt>
      <trkpt lat="44.22014" lon="0.68547">
        <ele>183</ele>
        <time>2017-04-30T07:17:36.000Z</time>
      </trkpt>
      <trkpt lat="44.22016" lon="0.68549">
        <ele>183</ele>
        <time>2017-04-30T07:17:37.000Z</time>
      </trkpt>
      <trkpt lat="44.2202" lon="0.68552">
        <ele>182</ele>
        <time>2017-04-30T07:17:38.000Z</time>
      </trkpt>
      <trkpt lat="44.22022" lon="0.68557">
        <ele>180</ele>
        <time>2017-04-30T07:17:39.000Z</time>
      </trkpt>
      <trkpt lat="44.22024" lon="0.68561">
        <ele>181</ele>
        <time>2017-04-30T07:17:40.000Z</time>
      </trkpt>
      <trkpt lat="44.22029" lon="0.68568">
        <ele>185</ele>
        <time>2017-04-30T07:17:41.000Z</time>
      </trkpt>
      <trkpt lat="44.22032" lon="0.68574">
        <ele>186</ele>
        <time>2017-04-30T07:17:42.000Z</time>
      </trkpt>
      <trkpt lat="44.22034" lon="0.68582">
        <ele>186</ele>
        <time>2017-04-30T07:17:43.000Z</time>
      </trkpt>
      <trkpt lat="44.22033" lon="0.68586">
        <ele>189</ele>
        <time>2017-04-30T07:17:44.000Z</time>
      </trkpt>
      <trkpt lat="44.22034" lon="0.68592">
        <ele>190</ele>
        <time>2017-04-30T07:17:45.000Z</time>
      </trkpt>
      <trkpt lat="44.22035" lon="0.68597">
        <ele>192</ele>
        <time>2017-04-30T07:17:46.000Z</time>
      </trkpt>
      <trkpt lat="44.22036" lon="0.68603">
        <ele>193</ele>
        <time>2017-04-30T07:17:47.000Z</time>
      </trkpt>
      <trkpt lat="44.22041" lon="0.68609">
        <ele>191</ele>
        <time>2017-04-30T07:17:48.000Z</time>
      </trkpt>
      <trkpt lat="44.22044" lon="0.68613">
        <ele>190</ele>
        <time>2017-04-30T07:17:49.000Z</time>
      </trkpt>
      <trkpt lat="44.22048" lon="0.68616">
        <ele>190</ele>
        <time>2017-04-30T07:17:50.000Z</time>
      </trkpt>
      <trkpt lat="44.22051" lon="0.68619">
        <ele>191</ele>
        <time>2017-04-30T07:17:51.000Z</time>
      </trkpt>
      <trkpt lat="44.22055" lon="0.6862">
        <ele>191</ele>
        <time>2017-04-30T07:17:52.000Z</time>
      </trkpt>
      <trkpt lat="44.22059" lon="0.68621">
        <ele>191</ele>
        <time>2017-04-30T07:17:53.000Z</time>
      </trkpt>
      <trkpt lat="44.22062" lon="0.68623">
        <ele>191</ele>
        <time>2017-04-30T07:17:54.000Z</time>
      </trkpt>
      <trkpt lat="44.22066" lon="0.68625">
        <ele>191</ele>
        <time>2017-04-30T07:17:55.000Z</time>
      </trkpt>
      <trkpt lat="44.22071" lon="0.68628">
        <ele>191</ele>
        <time>2017-04-30T07:17:56.000Z</time>
      </trkpt>
      <trkpt lat="44.22075" lon="0.6863">
        <ele>191</ele>
        <time>2017-04-30T07:17:57.000Z</time>
      </trkpt>
      <trkpt lat="44.22077" lon="0.68633">
        <ele>189</ele>
        <time>2017-04-30T07:17:58.000Z</time>
      </trkpt>
      <trkpt lat="44.22078" lon="0.68639">
        <ele>187</ele>
        <time>2017-04-30T07:17:59.000Z</time>
      </trkpt>
      <trkpt lat="44.22079" lon="0.68645">
        <ele>186</ele>
        <time>2017-04-30T07:18:00.000Z</time>
      </trkpt>
      <trkpt lat="44.22081" lon="0.6865">
        <ele>185</ele>
        <time>2017-04-30T07:18:01.000Z</time>
      </trkpt>
      <trkpt lat="44.22083" lon="0.68655">
        <ele>186</ele>
        <time>2017-04-30T07:18:02.000Z</time>
      </trkpt>
      <trkpt lat="44.22086" lon="0.68664">
        <ele>189</ele>
        <time>2017-04-30T07:18:03.000Z</time>
      </trkpt>
      <trkpt lat="44.22088" lon="0.68671">
        <ele>190</ele>
        <time>2017-04-30T07:18:04.000Z</time>
      </trkpt>
      <trkpt lat="44.22091" lon="0.68678">
        <ele>192</ele>
        <time>2017-04-30T07:18:05.000Z</time>
      </trkpt>
      <trkpt lat="44.22093" lon="0.68683">
        <ele>194</ele>
        <time>2017-04-30T07:18:06.000Z</time>
      </trkpt>
      <trkpt lat="44.22094" lon="0.68689">
        <ele>195</ele>
        <time>2017-04-30T07:18:07.000Z</time>
      </trkpt>
      <trkpt lat="44.22095" lon="0.68694">
        <ele>197</ele>
        <time>2017-04-30T07:18:08.000Z</time>
      </trkpt>
      <trkpt lat="44.22096" lon="0.68699">
        <ele>198</ele>
        <time>2017-04-30T07:18:09.000Z</time>
      </trkpt>
      <trkpt lat="44.22098" lon="0.68704">
        <ele>197</ele>
        <time>2017-04-30T07:18:10.000Z</time>
      </trkpt>
      <trkpt lat="44.22101" lon="0.68709">
        <ele>196</ele>
        <time>2017-04-30T07:18:11.000Z</time>
      </trkpt>
      <trkpt lat="44.22104" lon="0.68714">
        <ele>195</ele>
        <time>2017-04-30T07:18:12.000Z</time>
      </trkpt>
      <trkpt lat="44.22106" lon="0.68718">
        <ele>194</ele>
        <time>2017-04-30T07:18:13.000Z</time>
      </trkpt>
      <trkpt lat="44.22108" lon="0.68724">
        <ele>194</ele>
        <time>2017-04-30T07:18:14.000Z</time>
      </trkpt>
      <trkpt lat="44.22108" lon="0.68731">
        <ele>190</ele>
        <time>2017-04-30T07:18:15.000Z</time>
      </trkpt>
      <trkpt lat="44.22108" lon="0.68737">
        <ele>188</ele>
        <time>2017-04-30T07:18:16.000Z</time>
      </trkpt>
      <trkpt lat="44.22109" lon="0.68742">
        <ele>188</ele>
        <time>2017-04-30T07:18:17.000Z</time>
      </trkpt>
      <trkpt lat="44.2211" lon="0.68749">
        <ele>189</ele>
        <time>2017-04-30T07:18:18.000Z</time>
      </trkpt>
      <trkpt lat="44.22111" lon="0.68754">
        <ele>189</ele>
        <time>2017-04-30T07:18:19.000Z</time>
      </trkpt>
      <trkpt lat="44.22113" lon="0.6876">
        <ele>190</ele>
        <time>2017-04-30T07:18:20.000Z</time>
      </trkpt>
      <trkpt lat="44.22112" lon="0.68769">
        <ele>188</ele>
        <time>2017-04-30T07:18:21.000Z</time>
      </trkpt>
      <trkpt lat="44.22111" lon="0.68777">
        <ele>184</ele>
        <time>2017-04-30T07:18:22.000Z</time>
      </trkpt>
      <trkpt lat="44.22109" lon="0.68785">
        <ele>180</ele>
        <time>2017-04-30T07:18:23.000Z</time>
      </trkpt>
      <trkpt lat="44.2211" lon="0.6879">
        <ele>179</ele>
        <time>2017-04-30T07:18:24.000Z</time>
      </trkpt>
      <trkpt lat="44.22109" lon="0.68795">
        <ele>179</ele>
        <time>2017-04-30T07:18:25.000Z</time>
      </trkpt>
      <trkpt lat="44.22108" lon="0.68799">
        <ele>179</ele>
        <time>2017-04-30T07:18:26.000Z</time>
      </trkpt>
      <trkpt lat="44.22101" lon="0.68799">
        <ele>176</ele>
        <time>2017-04-30T07:18:27.000Z</time>
      </trkpt>
      <trkpt lat="44.22098" lon="0.68802">
        <ele>177</ele>
        <time>2017-04-30T07:18:28.000Z</time>
      </trkpt>
      <trkpt lat="44.22094" lon="0.68806">
        <ele>176</ele>
        <time>2017-04-30T07:18:29.000Z</time>
      </trkpt>
      <trkpt lat="44.2209" lon="0.68811">
        <ele>176</ele>
        <time>2017-04-30T07:18:30.000Z</time>
      </trkpt>
      <trkpt lat="44.22087" lon="0.68816">
        <ele>176</ele>
        <time>2017-04-30T07:18:31.000Z</time>
      </trkpt>
      <trkpt lat="44.22083" lon="0.68821">
        <ele>174</ele>
        <time>2017-04-30T07:18:32.000Z</time>
      </trkpt>
      <trkpt lat="44.2208" lon="0.68827">
        <ele>171</ele>
        <time>2017-04-30T07:18:33.000Z</time>
      </trkpt>
      <trkpt lat="44.22076" lon="0.68833">
        <ele>171</ele>
        <time>2017-04-30T07:18:34.000Z</time>
      </trkpt>
      <trkpt lat="44.22074" lon="0.68837">
        <ele>169</ele>
        <time>2017-04-30T07:18:35.000Z</time>
      </trkpt>
      <trkpt lat="44.22074" lon="0.68844">
        <ele>169</ele>
        <time>2017-04-30T07:18:36.000Z</time>
      </trkpt>
      <trkpt lat="44.22075" lon="0.68854">
        <ele>171</ele>
        <time>2017-04-30T07:18:37.000Z</time>
      </trkpt>
      <trkpt lat="44.22072" lon="0.68862">
        <ele>172</ele>
        <time>2017-04-30T07:18:38.000Z</time>
      </trkpt>
      <trkpt lat="44.2207" lon="0.6887">
        <ele>171</ele>
        <time>2017-04-30T07:18:39.000Z</time>
      </trkpt>
      <trkpt lat="44.22071" lon="0.68877">
        <ele>173</ele>
        <time>2017-04-30T07:18:40.000Z</time>
      </trkpt>
      <trkpt lat="44.22071" lon="0.68886">
        <ele>175</ele>
        <time>2017-04-30T07:18:41.000Z</time>
      </trkpt>
      <trkpt lat="44.22071" lon="0.68893">
        <ele>176</ele>
        <time>2017-04-30T07:18:42.000Z</time>
      </trkpt>
      <trkpt lat="44.22069" lon="0.689">
        <ele>175</ele>
        <time>2017-04-30T07:18:43.000Z</time>
      </trkpt>
      <trkpt lat="44.22068" lon="0.68904">
        <ele>177</ele>
        <time>2017-04-30T07:18:44.000Z</time>
      </trkpt>
      <trkpt lat="44.22066" lon="0.68909">
        <ele>176</ele>
        <time>2017-04-30T07:18:45.000Z</time>
      </trkpt>
      <trkpt lat="44.22062" lon="0.68912">
        <ele>175</ele>
        <time>2017-04-30T07:18:46.000Z</time>
      </trkpt>
      <trkpt lat="44.2206" lon="0.68915">
        <ele>176</ele>
        <time>2017-04-30T07:18:47.000Z</time>
      </trkpt>
      <trkpt lat="44.22058" lon="0.68918">
        <ele>176</ele>
        <time>2017-04-30T07:18:48.000Z</time>
      </trkpt>
      <trkpt lat="44.22054" lon="0.6892">
        <ele>175</ele>
        <time>2017-04-30T07:18:49.000Z</time>
      </trkpt>
      <trkpt lat="44.2205" lon="0.68923">
        <ele>175</ele>
        <time>2017-04-30T07:18:50.000Z</time>
      </trkpt>
      <trkpt lat="44.22048" lon="0.68926">
        <ele>175</ele>
        <time>2017-04-30T07:18:51.000Z</time>
      </trkpt>
      <trkpt lat="44.22045" lon="0.6893">
        <ele>175</ele>
        <time>2017-04-30T07:18:52.000Z</time>
      </trkpt>
      <trkpt lat="44.22042" lon="0.68933">
        <ele>174</ele>
        <time>2017-04-30T07:18:53.000Z</time>
      </trkpt>
      <trkpt lat="44.22039" lon="0.68937">
        <ele>172</ele>
        <time>2017-04-30T07:18:54.000Z</time>
      </trkpt>
      <trkpt lat="44.22036" lon="0.6894">
        <ele>171</ele>
        <time>2017-04-30T07:18:55.000Z</time>
      </trkpt>
      <trkpt lat="44.22035" lon="0.68945">
        <ele>170</ele>
        <time>2017-04-30T07:18:56.000Z</time>
      </trkpt>
      <trkpt lat="44.22034" lon="0.68946">
        <ele>170</ele>
        <time>2017-04-30T07:18:57.000Z</time>
      </trkpt>
      <trkpt lat="44.22032" lon="0.68949">
        <ele>171</ele>
        <time>2017-04-30T07:18:58.000Z</time>
      </trkpt>
      <trkpt lat="44.22031" lon="0.68952">
        <ele>173</ele>
        <time>2017-04-30T07:18:59.000Z</time>
      </trkpt>
      <trkpt lat="44.22029" lon="0.68956">
        <ele>172</ele>
        <time>2017-04-30T07:19:00.000Z</time>
      </trkpt>
      <trkpt lat="44.22031" lon="0.68961">
        <ele>175</ele>
        <time>2017-04-30T07:19:01.000Z</time>
      </trkpt>
      <trkpt lat="44.2203" lon="0.68966">
        <ele>174</ele>
        <time>2017-04-30T07:19:02.000Z</time>
      </trkpt>
      <trkpt lat="44.22032" lon="0.68971">
        <ele>175</ele>
        <time>2017-04-30T07:19:03.000Z</time>
      </trkpt>
      <trkpt lat="44.22032" lon="0.68975">
        <ele>173</ele>
        <time>2017-04-30T07:19:04.000Z</time>
      </trkpt>
      <trkpt lat="44.22033" lon="0.68978">
        <ele>174</ele>
        <time>2017-04-30T07:19:05.000Z</time>
      </trkpt>
      <trkpt lat="44.22036" lon="0.68981">
        <ele>173</ele>
        <time>2017-04-30T07:19:06.000Z</time>
      </trkpt>
      <trkpt lat="44.22038" lon="0.68984">
        <ele>173</ele>
        <time>2017-04-30T07:19:07.000Z</time>
      </trkpt>
      <trkpt lat="44.22041" lon="0.68987">
        <ele>174</ele>
        <time>2017-04-30T07:19:08.000Z</time>
      </trkpt>
      <trkpt lat="44.22045" lon="0.68991">
        <ele>177</ele>
        <time>2017-04-30T07:19:09.000Z</time>
      </trkpt>
      <trkpt lat="44.22048" lon="0.68994">
        <ele>179</ele>
        <time>2017-04-30T07:19:10.000Z</time>
      </trkpt>
      <trkpt lat="44.22051" lon="0.68997">
        <ele>178</ele>
        <time>2017-04-30T07:19:11.000Z</time>
      </trkpt>
      <trkpt lat="44.22054" lon="0.69">
        <ele>177</ele>
        <time>2017-04-30T07:19:12.000Z</time>
      </trkpt>
      <trkpt lat="44.22056" lon="0.69002">
        <ele>174</ele>
        <time>2017-04-30T07:19:13.000Z</time>
      </trkpt>
      <trkpt lat="44.22058" lon="0.69004">
        <ele>174</ele>
        <time>2017-04-30T07:19:14.000Z</time>
      </trkpt>
      <trkpt lat="44.22061" lon="0.69008">
        <ele>177</ele>
        <time>2017-04-30T07:19:15.000Z</time>
      </trkpt>
      <trkpt lat="44.22064" lon="0.69012">
        <ele>177</ele>
        <time>2017-04-30T07:19:16.000Z</time>
      </trkpt>
      <trkpt lat="44.22067" lon="0.69015">
        <ele>177</ele>
        <time>2017-04-30T07:19:17.000Z</time>
      </trkpt>
      <trkpt lat="44.2207" lon="0.69017">
        <ele>178</ele>
        <time>2017-04-30T07:19:18.000Z</time>
      </trkpt>
      <trkpt lat="44.22073" lon="0.69018">
        <ele>179</ele>
        <time>2017-04-30T07:19:19.000Z</time>
      </trkpt>
      <trkpt lat="44.22077" lon="0.69019">
        <ele>181</ele>
        <time>2017-04-30T07:19:20.000Z</time>
      </trkpt>
      <trkpt lat="44.22081" lon="0.69021">
        <ele>183</ele>
        <time>2017-04-30T07:19:21.000Z</time>
      </trkpt>
      <trkpt lat="44.22083" lon="0.6902">
        <ele>185</ele>
        <time>2017-04-30T07:19:22.000Z</time>
      </trkpt>
      <trkpt lat="44.22086" lon="0.69021">
        <ele>185</ele>
        <time>2017-04-30T07:19:23.000Z</time>
      </trkpt>
      <trkpt lat="44.22087" lon="0.69019">
        <ele>185</ele>
        <time>2017-04-30T07:19:24.000Z</time>
      </trkpt>
      <trkpt lat="44.2209" lon="0.6902">
        <ele>186</ele>
        <time>2017-04-30T07:19:25.000Z</time>
      </trkpt>
      <trkpt lat="44.22093" lon="0.69019">
        <ele>186</ele>
        <time>2017-04-30T07:19:26.000Z</time>
      </trkpt>
      <trkpt lat="44.22094" lon="0.69019">
        <ele>186</ele>
        <time>2017-04-30T07:19:27.000Z</time>
      </trkpt>
      <trkpt lat="44.22096" lon="0.69018">
        <ele>187</ele>
        <time>2017-04-30T07:19:28.000Z</time>
      </trkpt>
      <trkpt lat="44.22098" lon="0.69017">
        <ele>187</ele>
        <time>2017-04-30T07:19:29.000Z</time>
      </trkpt>
      <trkpt lat="44.22101" lon="0.69014">
        <ele>187</ele>
        <time>2017-04-30T07:19:30.000Z</time>
      </trkpt>
      <trkpt lat="44.22103" lon="0.69011">
        <ele>188</ele>
        <time>2017-04-30T07:19:31.000Z</time>
      </trkpt>
      <trkpt lat="44.22106" lon="0.69009">
        <ele>189</ele>
        <time>2017-04-30T07:19:32.000Z</time>
      </trkpt>
      <trkpt lat="44.22109" lon="0.69006">
        <ele>189</ele>
        <time>2017-04-30T07:19:33.000Z</time>
      </trkpt>
      <trkpt lat="44.22113" lon="0.69009">
        <ele>191</ele>
        <time>2017-04-30T07:19:34.000Z</time>
      </trkpt>
      <trkpt lat="44.22116" lon="0.69009">
        <ele>190</ele>
        <time>2017-04-30T07:19:35.000Z</time>
      </trkpt>
      <trkpt lat="44.22117" lon="0.69013">
        <ele>189</ele>
        <time>2017-04-30T07:19:36.000Z</time>
      </trkpt>
      <trkpt lat="44.22117" lon="0.69016">
        <ele>189</ele>
        <time>2017-04-30T07:19:37.000Z</time>
      </trkpt>
      <trkpt lat="44.22118" lon="0.69018">
        <ele>189</ele>
        <time>2017-04-30T07:19:38.000Z</time>
      </trkpt>
      <trkpt lat="44.22119" lon="0.69021">
        <ele>189</ele>
        <time>2017-04-30T07:19:39.000Z</time>
      </trkpt>
      <trkpt lat="44.22118" lon="0.69023">
        <ele>189</ele>
        <time>2017-04-30T07:19:40.000Z</time>
      </trkpt>
      <trkpt lat="44.22118" lon="0.69026">
        <ele>189</ele>
        <time>2017-04-30T07:19:41.000Z</time>
      </trkpt>
      <trkpt lat="44.22117" lon="0.6903">
        <ele>186</ele>
        <time>2017-04-30T07:19:42.000Z</time>
      </trkpt>
      <trkpt lat="44.22117" lon="0.69033">
        <ele>187</ele>
        <time>2017-04-30T07:19:43.000Z</time>
      </trkpt>
      <trkpt lat="44.22115" lon="0.69039">
        <ele>187</ele>
        <time>2017-04-30T07:19:44.000Z</time>
      </trkpt>
      <trkpt lat="44.22114" lon="0.69043">
        <ele>187</ele>
        <time>2017-04-30T07:19:45.000Z</time>
      </trkpt>
      <trkpt lat="44.22114" lon="0.69046">
        <ele>186</ele>
        <time>2017-04-30T07:19:46.000Z</time>
      </trkpt>
      <trkpt lat="44.22113" lon="0.69051">
        <ele>184</ele>
        <time>2017-04-30T07:19:47.000Z</time>
      </trkpt>
      <trkpt lat="44.22113" lon="0.69056">
        <ele>182</ele>
        <time>2017-04-30T07:19:48.000Z</time>
      </trkpt>
      <trkpt lat="44.22113" lon="0.69061">
        <ele>181</ele>
        <time>2017-04-30T07:19:49.000Z</time>
      </trkpt>
      <trkpt lat="44.22112" lon="0.69065">
        <ele>180</ele>
        <time>2017-04-30T07:19:50.000Z</time>
      </trkpt>
      <trkpt lat="44.22113" lon="0.6907">
        <ele>181</ele>
        <time>2017-04-30T07:19:51.000Z</time>
      </trkpt>
      <trkpt lat="44.22112" lon="0.69076">
        <ele>180</ele>
        <time>2017-04-30T07:19:52.000Z</time>
      </trkpt>
      <trkpt lat="44.22111" lon="0.69082">
        <ele>180</ele>
        <time>2017-04-30T07:19:53.000Z</time>
      </trkpt>
      <trkpt lat="44.22111" lon="0.69087">
        <ele>181</ele>
        <time>2017-04-30T07:19:54.000Z</time>
      </trkpt>
      <trkpt lat="44.22111" lon="0.69091">
        <ele>181</ele>
        <time>2017-04-30T07:19:55.000Z</time>
      </trkpt>
      <trkpt lat="44.22111" lon="0.69096">
        <ele>180</ele>
        <time>2017-04-30T07:19:56.000Z</time>
      </trkpt>
      <trkpt lat="44.2211" lon="0.69098">
        <ele>181</ele>
        <time>2017-04-30T07:19:57.000Z</time>
      </trkpt>
      <trkpt lat="44.22105" lon="0.69099">
        <ele>178</ele>
        <time>2017-04-30T07:19:58.000Z</time>
      </trkpt>
      <trkpt lat="44.22102" lon="0.69102">
        <ele>175</ele>
        <time>2017-04-30T07:19:59.000Z</time>
      </trkpt>
      <trkpt lat="44.22099" lon="0.69106">
        <ele>173</ele>
        <time>2017-04-30T07:20:00.000Z</time>
      </trkpt>
      <trkpt lat="44.22096" lon="0.69109">
        <ele>174</ele>
        <time>2017-04-30T07:20:01.000Z</time>
      </trkpt>
      <trkpt lat="44.22094" lon="0.69113">
        <ele>171</ele>
        <time>2017-04-30T07:20:02.000Z</time>
      </trkpt>
      <trkpt lat="44.22092" lon="0.69116">
        <ele>170</ele>
        <time>2017-04-30T07:20:03.000Z</time>
      </trkpt>
      <trkpt lat="44.22089" lon="0.69119">
        <ele>169</ele>
        <time>2017-04-30T07:20:04.000Z</time>
      </trkpt>
      <trkpt lat="44.22086" lon="0.69123">
        <ele>169</ele>
        <time>2017-04-30T07:20:05.000Z</time>
      </trkpt>
      <trkpt lat="44.22083" lon="0.69126">
        <ele>167</ele>
        <time>2017-04-30T07:20:06.000Z</time>
      </trkpt>
      <trkpt lat="44.22081" lon="0.69129">
        <ele>167</ele>
        <time>2017-04-30T07:20:07.000Z</time>
      </trkpt>
      <trkpt lat="44.22078" lon="0.69132">
        <ele>167</ele>
        <time>2017-04-30T07:20:08.000Z</time>
      </trkpt>
      <trkpt lat="44.22076" lon="0.69135">
        <ele>166</ele>
        <time>2017-04-30T07:20:09.000Z</time>
      </trkpt>
      <trkpt lat="44.22073" lon="0.69137">
        <ele>166</ele>
        <time>2017-04-30T07:20:10.000Z</time>
      </trkpt>
      <trkpt lat="44.22071" lon="0.6914">
        <ele>167</ele>
        <time>2017-04-30T07:20:11.000Z</time>
      </trkpt>
      <trkpt lat="44.22069" lon="0.69143">
        <ele>166</ele>
        <time>2017-04-30T07:20:12.000Z</time>
      </trkpt>
      <trkpt lat="44.22066" lon="0.69146">
        <ele>166</ele>
        <time>2017-04-30T07:20:13.000Z</time>
      </trkpt>
      <trkpt lat="44.22063" lon="0.69149">
        <ele>166</ele>
        <time>2017-04-30T07:20:14.000Z</time>
      </trkpt>
      <trkpt lat="44.22061" lon="0.69152">
        <ele>166</ele>
        <time>2017-04-30T07:20:15.000Z</time>
      </trkpt>
      <trkpt lat="44.22059" lon="0.69155">
        <ele>166</ele>
        <time>2017-04-30T07:20:16.000Z</time>
      </trkpt>
      <trkpt lat="44.22056" lon="0.69158">
        <ele>166</ele>
        <time>2017-04-30T07:20:17.000Z</time>
      </trkpt>
      <trkpt lat="44.22053" lon="0.69161">
        <ele>166</ele>
        <time>2017-04-30T07:20:18.000Z</time>
      </trkpt>
      <trkpt lat="44.22051" lon="0.69164">
        <ele>166</ele>
        <time>2017-04-30T07:20:19.000Z</time>
      </trkpt>
      <trkpt lat="44.22048" lon="0.69168">
        <ele>166</ele>
        <time>2017-04-30T07:20:20.000Z</time>
      </trkpt>
      <trkpt lat="44.22043" lon="0.69173">
        <ele>166</ele>
        <time>2017-04-30T07:20:21.000Z</time>
      </trkpt>
      <trkpt lat="44.2204" lon="0.69178">
        <ele>166</ele>
        <time>2017-04-30T07:20:22.000Z</time>
      </trkpt>
      <trkpt lat="44.22037" lon="0.69181">
        <ele>166</ele>
        <time>2017-04-30T07:20:23.000Z</time>
      </trkpt>
      <trkpt lat="44.22034" lon="0.69186">
        <ele>166</ele>
        <time>2017-04-30T07:20:24.000Z</time>
      </trkpt>
      <trkpt lat="44.22031" lon="0.69189">
        <ele>166</ele>
        <time>2017-04-30T07:20:25.000Z</time>
      </trkpt>
      <trkpt lat="44.22028" lon="0.69192">
        <ele>165</ele>
        <time>2017-04-30T07:20:26.000Z</time>
      </trkpt>
      <trkpt lat="44.22026" lon="0.69195">
        <ele>166</ele>
        <time>2017-04-30T07:20:27.000Z</time>
      </trkpt>
      <trkpt lat="44.22023" lon="0.69198">
        <ele>166</ele>
        <time>2017-04-30T07:20:28.000Z</time>
      </trkpt>
      <trkpt lat="44.22021" lon="0.69201">
        <ele>166</ele>
        <time>2017-04-30T07:20:29.000Z</time>
      </trkpt>
      <trkpt lat="44.22018" lon="0.69204">
        <ele>166</ele>
        <time>2017-04-30T07:20:30.000Z</time>
      </trkpt>
      <trkpt lat="44.22015" lon="0.69207">
        <ele>166</ele>
        <time>2017-04-30T07:20:31.000Z</time>
      </trkpt>
      <trkpt lat="44.22013" lon="0.69211">
        <ele>166</ele>
        <time>2017-04-30T07:20:32.000Z</time>
      </trkpt>
      <trkpt lat="44.2201" lon="0.69213">
        <ele>166</ele>
        <time>2017-04-30T07:20:33.000Z</time>
      </trkpt>
      <trkpt lat="44.22008" lon="0.69216">
        <ele>166</ele>
        <time>2017-04-30T07:20:34.000Z</time>
      </trkpt>
      <trkpt lat="44.22005" lon="0.69219">
        <ele>167</ele>
        <time>2017-04-30T07:20:35.000Z</time>
      </trkpt>
      <trkpt lat="44.22002" lon="0.69222">
        <ele>167</ele>
        <time>2017-04-30T07:20:36.000Z</time>
      </trkpt>
      <trkpt lat="44.22" lon="0.69224">
        <ele>167</ele>
        <time>2017-04-30T07:20:37.000Z</time>
      </trkpt>
      <trkpt lat="44.21997" lon="0.69227">
        <ele>167</ele>
        <time>2017-04-30T07:20:38.000Z</time>
      </trkpt>
      <trkpt lat="44.21994" lon="0.69229">
        <ele>167</ele>
        <time>2017-04-30T07:20:39.000Z</time>
      </trkpt>
      <trkpt lat="44.2199" lon="0.69232">
        <ele>167</ele>
        <time>2017-04-30T07:20:40.000Z</time>
      </trkpt>
      <trkpt lat="44.21985" lon="0.69239">
        <ele>168</ele>
        <time>2017-04-30T07:20:41.000Z</time>
      </trkpt>
      <trkpt lat="44.21978" lon="0.69247">
        <ele>169</ele>
        <time>2017-04-30T07:20:42.000Z</time>
      </trkpt>
      <trkpt lat="44.21973" lon="0.69253">
        <ele>169</ele>
        <time>2017-04-30T07:20:43.000Z</time>
      </trkpt>
      <trkpt lat="44.21969" lon="0.69257">
        <ele>170</ele>
        <time>2017-04-30T07:20:44.000Z</time>
      </trkpt>
      <trkpt lat="44.21965" lon="0.69261">
        <ele>170</ele>
        <time>2017-04-30T07:20:45.000Z</time>
      </trkpt>
      <trkpt lat="44.21962" lon="0.69264">
        <ele>170</ele>
        <time>2017-04-30T07:20:46.000Z</time>
      </trkpt>
      <trkpt lat="44.21958" lon="0.69268">
        <ele>170</ele>
        <time>2017-04-30T07:20:47.000Z</time>
      </trkpt>
      <trkpt lat="44.21955" lon="0.69272">
        <ele>170</ele>
        <time>2017-04-30T07:20:48.000Z</time>
      </trkpt>
      <trkpt lat="44.21951" lon="0.69274">
        <ele>171</ele>
        <time>2017-04-30T07:20:49.000Z</time>
      </trkpt>
      <trkpt lat="44.21947" lon="0.69278">
        <ele>171</ele>
        <time>2017-04-30T07:20:50.000Z</time>
      </trkpt>
      <trkpt lat="44.21944" lon="0.69281">
        <ele>172</ele>
        <time>2017-04-30T07:20:51.000Z</time>
      </trkpt>
      <trkpt lat="44.21941" lon="0.69284">
        <ele>172</ele>
        <time>2017-04-30T07:20:52.000Z</time>
      </trkpt>
      <trkpt lat="44.21937" lon="0.69288">
        <ele>171</ele>
        <time>2017-04-30T07:20:53.000Z</time>
      </trkpt>
      <trkpt lat="44.21934" lon="0.69291">
        <ele>172</ele>
        <time>2017-04-30T07:20:54.000Z</time>
      </trkpt>
      <trkpt lat="44.2193" lon="0.69295">
        <ele>172</ele>
        <time>2017-04-30T07:20:55.000Z</time>
      </trkpt>
      <trkpt lat="44.21927" lon="0.69298">
        <ele>172</ele>
        <time>2017-04-30T07:20:56.000Z</time>
      </trkpt>
      <trkpt lat="44.21923" lon="0.69301">
        <ele>172</ele>
        <time>2017-04-30T07:20:57.000Z</time>
      </trkpt>
      <trkpt lat="44.2192" lon="0.69305">
        <ele>172</ele>
        <time>2017-04-30T07:20:58.000Z</time>
      </trkpt>
      <trkpt lat="44.21916" lon="0.69309">
        <ele>172</ele>
        <time>2017-04-30T07:20:59.000Z</time>
      </trkpt>
      <trkpt lat="44.21913" lon="0.69312">
        <ele>173</ele>
        <time>2017-04-30T07:21:00.000Z</time>
      </trkpt>
      <trkpt lat="44.21909" lon="0.69316">
        <ele>174</ele>
        <time>2017-04-30T07:21:01.000Z</time>
      </trkpt>
      <trkpt lat="44.21906" lon="0.69319">
        <ele>174</ele>
        <time>2017-04-30T07:21:02.000Z</time>
      </trkpt>
      <trkpt lat="44.21902" lon="0.69323">
        <ele>173</ele>
        <time>2017-04-30T07:21:03.000Z</time>
      </trkpt>
      <trkpt lat="44.21898" lon="0.69327">
        <ele>173</ele>
        <time>2017-04-30T07:21:04.000Z</time>
      </trkpt>
      <trkpt lat="44.21895" lon="0.69331">
        <ele>174</ele>
        <time>2017-04-30T07:21:05.000Z</time>
      </trkpt>
      <trkpt lat="44.21891" lon="0.69335">
        <ele>175</ele>
        <time>2017-04-30T07:21:06.000Z</time>
      </trkpt>
      <trkpt lat="44.21887" lon="0.69339">
        <ele>175</ele>
        <time>2017-04-30T07:21:07.000Z</time>
      </trkpt>
      <trkpt lat="44.21883" lon="0.69342">
        <ele>176</ele>
        <time>2017-04-30T07:21:08.000Z</time>
      </trkpt>
      <trkpt lat="44.21879" lon="0.69347">
        <ele>175</ele>
        <time>2017-04-30T07:21:09.000Z</time>
      </trkpt>
      <trkpt lat="44.21876" lon="0.6935">
        <ele>176</ele>
        <time>2017-04-30T07:21:10.000Z</time>
      </trkpt>
      <trkpt lat="44.21874" lon="0.69354">
        <ele>175</ele>
        <time>2017-04-30T07:21:11.000Z</time>
      </trkpt>
      <trkpt lat="44.21872" lon="0.69358">
        <ele>173</ele>
        <time>2017-04-30T07:21:12.000Z</time>
      </trkpt>
      <trkpt lat="44.21872" lon="0.69363">
        <ele>175</ele>
        <time>2017-04-30T07:21:13.000Z</time>
      </trkpt>
      <trkpt lat="44.21871" lon="0.69369">
        <ele>175</ele>
        <time>2017-04-30T07:21:14.000Z</time>
      </trkpt>
      <trkpt lat="44.2187" lon="0.69375">
        <ele>174</ele>
        <time>2017-04-30T07:21:15.000Z</time>
      </trkpt>
      <trkpt lat="44.21869" lon="0.69382">
        <ele>174</ele>
        <time>2017-04-30T07:21:16.000Z</time>
      </trkpt>
      <trkpt lat="44.21868" lon="0.69388">
        <ele>174</ele>
        <time>2017-04-30T07:21:17.000Z</time>
      </trkpt>
      <trkpt lat="44.21866" lon="0.69394">
        <ele>173</ele>
        <time>2017-04-30T07:21:18.000Z</time>
      </trkpt>
      <trkpt lat="44.21865" lon="0.69401">
        <ele>173</ele>
        <time>2017-04-30T07:21:19.000Z</time>
      </trkpt>
      <trkpt lat="44.21863" lon="0.69407">
        <ele>173</ele>
        <time>2017-04-30T07:21:20.000Z</time>
      </trkpt>
      <trkpt lat="44.21862" lon="0.69414">
        <ele>173</ele>
        <time>2017-04-30T07:21:21.000Z</time>
      </trkpt>
      <trkpt lat="44.2186" lon="0.69421">
        <ele>173</ele>
        <time>2017-04-30T07:21:22.000Z</time>
      </trkpt>
      <trkpt lat="44.21858" lon="0.69427">
        <ele>173</ele>
        <time>2017-04-30T07:21:23.000Z</time>
      </trkpt>
      <trkpt lat="44.21857" lon="0.69434">
        <ele>173</ele>
        <time>2017-04-30T07:21:24.000Z</time>
      </trkpt>
      <trkpt lat="44.21855" lon="0.69441">
        <ele>173</ele>
        <time>2017-04-30T07:21:25.000Z</time>
      </trkpt>
      <trkpt lat="44.21854" lon="0.69447">
        <ele>173</ele>
        <time>2017-04-30T07:21:26.000Z</time>
      </trkpt>
      <trkpt lat="44.21852" lon="0.69453">
        <ele>173</ele>
        <time>2017-04-30T07:21:27.000Z</time>
      </trkpt>
      <trkpt lat="44.2185" lon="0.6946">
        <ele>173</ele>
        <time>2017-04-30T07:21:28.000Z</time>
      </trkpt>
      <trkpt lat="44.21849" lon="0.69466">
        <ele>173</ele>
        <time>2017-04-30T07:21:29.000Z</time>
      </trkpt>
      <trkpt lat="44.21847" lon="0.69473">
        <ele>172</ele>
        <time>2017-04-30T07:21:30.000Z</time>
      </trkpt>
      <trkpt lat="44.21846" lon="0.69479">
        <ele>172</ele>
        <time>2017-04-30T07:21:31.000Z</time>
      </trkpt>
      <trkpt lat="44.21844" lon="0.69486">
        <ele>173</ele>
        <time>2017-04-30T07:21:32.000Z</time>
      </trkpt>
      <trkpt lat="44.21843" lon="0.69493">
        <ele>172</ele>
        <time>2017-04-30T07:21:33.000Z</time>
      </trkpt>
      <trkpt lat="44.21841" lon="0.695">
        <ele>173</ele>
        <time>2017-04-30T07:21:34.000Z</time>
      </trkpt>
      <trkpt lat="44.21841" lon="0.69507">
        <ele>173</ele>
        <time>2017-04-30T07:21:35.000Z</time>
      </trkpt>
      <trkpt lat="44.2184" lon="0.69514">
        <ele>173</ele>
        <time>2017-04-30T07:21:36.000Z</time>
      </trkpt>
      <trkpt lat="44.21839" lon="0.6952">
        <ele>173</ele>
        <time>2017-04-30T07:21:37.000Z</time>
      </trkpt>
      <trkpt lat="44.21837" lon="0.69527">
        <ele>173</ele>
        <time>2017-04-30T07:21:38.000Z</time>
      </trkpt>
      <trkpt lat="44.21836" lon="0.69533">
        <ele>173</ele>
        <time>2017-04-30T07:21:39.000Z</time>
      </trkpt>
      <trkpt lat="44.21835" lon="0.6954">
        <ele>173</ele>
        <time>2017-04-30T07:21:40.000Z</time>
      </trkpt>
      <trkpt lat="44.21834" lon="0.69547">
        <ele>173</ele>
        <time>2017-04-30T07:21:41.000Z</time>
      </trkpt>
      <trkpt lat="44.21833" lon="0.69554">
        <ele>173</ele>
        <time>2017-04-30T07:21:42.000Z</time>
      </trkpt>
      <trkpt lat="44.21832" lon="0.6956">
        <ele>173</ele>
        <time>2017-04-30T07:21:43.000Z</time>
      </trkpt>
      <trkpt lat="44.21831" lon="0.69567">
        <ele>173</ele>
        <time>2017-04-30T07:21:44.000Z</time>
      </trkpt>
      <trkpt lat="44.2183" lon="0.69574">
        <ele>173</ele>
        <time>2017-04-30T07:21:45.000Z</time>
      </trkpt>
      <trkpt lat="44.21829" lon="0.69581">
        <ele>173</ele>
        <time>2017-04-30T07:21:46.000Z</time>
      </trkpt>
      <trkpt lat="44.21828" lon="0.69588">
        <ele>173</ele>
        <time>2017-04-30T07:21:47.000Z</time>
      </trkpt>
      <trkpt lat="44.21827" lon="0.69594">
        <ele>173</ele>
        <time>2017-04-30T07:21:48.000Z</time>
      </trkpt>
      <trkpt lat="44.21826" lon="0.69601">
        <ele>172</ele>
        <time>2017-04-30T07:21:49.000Z</time>
      </trkpt>
      <trkpt lat="44.21825" lon="0.69608">
        <ele>172</ele>
        <time>2017-04-30T07:21:50.000Z</time>
      </trkpt>
      <trkpt lat="44.21824" lon="0.69615">
        <ele>173</ele>
        <time>2017-04-30T07:21:51.000Z</time>
      </trkpt>
      <trkpt lat="44.21822" lon="0.69621">
        <ele>173</ele>
        <time>2017-04-30T07:21:52.000Z</time>
      </trkpt>
      <trkpt lat="44.21821" lon="0.69628">
        <ele>173</ele>
        <time>2017-04-30T07:21:53.000Z</time>
      </trkpt>
      <trkpt lat="44.21819" lon="0.69634">
        <ele>173</ele>
        <time>2017-04-30T07:21:54.000Z</time>
      </trkpt>
      <trkpt lat="44.21817" lon="0.6964">
        <ele>172</ele>
        <time>2017-04-30T07:21:55.000Z</time>
      </trkpt>
      <trkpt lat="44.21815" lon="0.69647">
        <ele>172</ele>
        <time>2017-04-30T07:21:56.000Z</time>
      </trkpt>
      <trkpt lat="44.21813" lon="0.69653">
        <ele>172</ele>
        <time>2017-04-30T07:21:57.000Z</time>
      </trkpt>
      <trkpt lat="44.21811" lon="0.69659">
        <ele>172</ele>
        <time>2017-04-30T07:21:58.000Z</time>
      </trkpt>
      <trkpt lat="44.2181" lon="0.69666">
        <ele>172</ele>
        <time>2017-04-30T07:21:59.000Z</time>
      </trkpt>
      <trkpt lat="44.21808" lon="0.69673">
        <ele>172</ele>
        <time>2017-04-30T07:22:00.000Z</time>
      </trkpt>
      <trkpt lat="44.21806" lon="0.6968">
        <ele>172</ele>
        <time>2017-04-30T07:22:01.000Z</time>
      </trkpt>
      <trkpt lat="44.21805" lon="0.69687">
        <ele>172</ele>
        <time>2017-04-30T07:22:02.000Z</time>
      </trkpt>
      <trkpt lat="44.21803" lon="0.69695">
        <ele>172</ele>
        <time>2017-04-30T07:22:03.000Z</time>
      </trkpt>
      <trkpt lat="44.21803" lon="0.69703">
        <ele>172</ele>
        <time>2017-04-30T07:22:04.000Z</time>
      </trkpt>
      <trkpt lat="44.21802" lon="0.69712">
        <ele>172</ele>
        <time>2017-04-30T07:22:05.000Z</time>
      </trkpt>
      <trkpt lat="44.21802" lon="0.6972">
        <ele>172</ele>
        <time>2017-04-30T07:22:06.000Z</time>
      </trkpt>
      <trkpt lat="44.21801" lon="0.69729">
        <ele>172</ele>
        <time>2017-04-30T07:22:07.000Z</time>
      </trkpt>
      <trkpt lat="44.21801" lon="0.69738">
        <ele>172</ele>
        <time>2017-04-30T07:22:08.000Z</time>
      </trkpt>
      <trkpt lat="44.21801" lon="0.69747">
        <ele>172</ele>
        <time>2017-04-30T07:22:09.000Z</time>
      </trkpt>
      <trkpt lat="44.21801" lon="0.69756">
        <ele>172</ele>
        <time>2017-04-30T07:22:10.000Z</time>
      </trkpt>
      <trkpt lat="44.21801" lon="0.69765">
        <ele>172</ele>
        <time>2017-04-30T07:22:11.000Z</time>
      </trkpt>
      <trkpt lat="44.218" lon="0.69774">
        <ele>172</ele>
        <time>2017-04-30T07:22:12.000Z</time>
      </trkpt>
      <trkpt lat="44.21799" lon="0.69784">
        <ele>172</ele>
        <time>2017-04-30T07:22:13.000Z</time>
      </trkpt>
      <trkpt lat="44.21799" lon="0.69794">
        <ele>172</ele>
        <time>2017-04-30T07:22:14.000Z</time>
      </trkpt>
      <trkpt lat="44.21798" lon="0.69805">
        <ele>172</ele>
        <time>2017-04-30T07:22:15.000Z</time>
      </trkpt>
      <trkpt lat="44.21798" lon="0.69815">
        <ele>173</ele>
        <time>2017-04-30T07:22:16.000Z</time>
      </trkpt>
      <trkpt lat="44.21795" lon="0.69825">
        <ele>173</ele>
        <time>2017-04-30T07:22:17.000Z</time>
      </trkpt>
      <trkpt lat="44.21792" lon="0.69836">
        <ele>173</ele>
        <time>2017-04-30T07:22:18.000Z</time>
      </trkpt>
      <trkpt lat="44.21789" lon="0.69847">
        <ele>172</ele>
        <time>2017-04-30T07:22:19.000Z</time>
      </trkpt>
      <trkpt lat="44.21788" lon="0.6986">
        <ele>170</ele>
        <time>2017-04-30T07:22:20.000Z</time>
      </trkpt>
      <trkpt lat="44.21787" lon="0.69876">
        <ele>166</ele>
        <time>2017-04-30T07:22:21.000Z</time>
      </trkpt>
      <trkpt lat="44.21786" lon="0.69889">
        <ele>165</ele>
        <time>2017-04-30T07:22:22.000Z</time>
      </trkpt>
      <trkpt lat="44.21786" lon="0.69903">
        <ele>162</ele>
        <time>2017-04-30T07:22:23.000Z</time>
      </trkpt>
      <trkpt lat="44.21785" lon="0.69916">
        <ele>160</ele>
        <time>2017-04-30T07:22:24.000Z</time>
      </trkpt>
      <trkpt lat="44.21785" lon="0.69929">
        <ele>159</ele>
        <time>2017-04-30T07:22:25.000Z</time>
      </trkpt>
      <trkpt lat="44.21785" lon="0.6994">
        <ele>160</ele>
        <time>2017-04-30T07:22:26.000Z</time>
      </trkpt>
      <trkpt lat="44.21784" lon="0.6995">
        <ele>158</ele>
        <time>2017-04-30T07:22:27.000Z</time>
      </trkpt>
      <trkpt lat="44.21784" lon="0.69959">
        <ele>154</ele>
        <time>2017-04-30T07:22:28.000Z</time>
      </trkpt>
      <trkpt lat="44.21786" lon="0.69967">
        <ele>156</ele>
        <time>2017-04-30T07:22:29.000Z</time>
      </trkpt>
      <trkpt lat="44.21786" lon="0.69972">
        <ele>154</ele>
        <time>2017-04-30T07:22:30.000Z</time>
      </trkpt>
      <trkpt lat="44.21789" lon="0.69976">
        <ele>152</ele>
        <time>2017-04-30T07:22:31.000Z</time>
      </trkpt>
      <trkpt lat="44.21794" lon="0.69979">
        <ele>151</ele>
        <time>2017-04-30T07:22:32.000Z</time>
      </trkpt>
      <trkpt lat="44.21797" lon="0.69981">
        <ele>151</ele>
        <time>2017-04-30T07:22:33.000Z</time>
      </trkpt>
      <trkpt lat="44.21799" lon="0.69978">
        <ele>154</ele>
        <time>2017-04-30T07:22:34.000Z</time>
      </trkpt>
      <trkpt lat="44.21803" lon="0.69974">
        <ele>156</ele>
        <time>2017-04-30T07:22:35.000Z</time>
      </trkpt>
      <trkpt lat="44.21807" lon="0.69968">
        <ele>159</ele>
        <time>2017-04-30T07:22:36.000Z</time>
      </trkpt>
      <trkpt lat="44.21812" lon="0.69965">
        <ele>160</ele>
        <time>2017-04-30T07:22:37.000Z</time>
      </trkpt>
      <trkpt lat="44.21816" lon="0.69959">
        <ele>162</ele>
        <time>2017-04-30T07:22:38.000Z</time>
      </trkpt>
      <trkpt lat="44.2182" lon="0.69955">
        <ele>163</ele>
        <time>2017-04-30T07:22:39.000Z</time>
      </trkpt>
      <trkpt lat="44.21824" lon="0.6995">
        <ele>165</ele>
        <time>2017-04-30T07:22:40.000Z</time>
      </trkpt>
      <trkpt lat="44.21829" lon="0.69946">
        <ele>165</ele>
        <time>2017-04-30T07:22:41.000Z</time>
      </trkpt>
      <trkpt lat="44.21836" lon="0.6994">
        <ele>166</ele>
        <time>2017-04-30T07:22:42.000Z</time>
      </trkpt>
      <trkpt lat="44.21841" lon="0.69935">
        <ele>167</ele>
        <time>2017-04-30T07:22:43.000Z</time>
      </trkpt>
      <trkpt lat="44.21846" lon="0.6993">
        <ele>168</ele>
        <time>2017-04-30T07:22:44.000Z</time>
      </trkpt>
      <trkpt lat="44.21851" lon="0.69924">
        <ele>168</ele>
        <time>2017-04-30T07:22:45.000Z</time>
      </trkpt>
      <trkpt lat="44.21855" lon="0.69919">
        <ele>169</ele>
        <time>2017-04-30T07:22:46.000Z</time>
      </trkpt>
      <trkpt lat="44.2186" lon="0.69915">
        <ele>169</ele>
        <time>2017-04-30T07:22:47.000Z</time>
      </trkpt>
      <trkpt lat="44.21864" lon="0.6991">
        <ele>169</ele>
        <time>2017-04-30T07:22:48.000Z</time>
      </trkpt>
      <trkpt lat="44.21869" lon="0.69905">
        <ele>170</ele>
        <time>2017-04-30T07:22:49.000Z</time>
      </trkpt>
      <trkpt lat="44.21875" lon="0.69899">
        <ele>171</ele>
        <time>2017-04-30T07:22:50.000Z</time>
      </trkpt>
      <trkpt lat="44.2188" lon="0.69894">
        <ele>170</ele>
        <time>2017-04-30T07:22:51.000Z</time>
      </trkpt>
      <trkpt lat="44.21885" lon="0.69888">
        <ele>169</ele>
        <time>2017-04-30T07:22:52.000Z</time>
      </trkpt>
      <trkpt lat="44.2189" lon="0.69883">
        <ele>169</ele>
        <time>2017-04-30T07:22:53.000Z</time>
      </trkpt>
      <trkpt lat="44.21895" lon="0.69877">
        <ele>168</ele>
        <time>2017-04-30T07:22:54.000Z</time>
      </trkpt>
      <trkpt lat="44.21898" lon="0.69872">
        <ele>168</ele>
        <time>2017-04-30T07:22:55.000Z</time>
      </trkpt>
      <trkpt lat="44.21903" lon="0.69866">
        <ele>168</ele>
        <time>2017-04-30T07:22:56.000Z</time>
      </trkpt>
      <trkpt lat="44.21908" lon="0.6986">
        <ele>166</ele>
        <time>2017-04-30T07:22:57.000Z</time>
      </trkpt>
      <trkpt lat="44.21913" lon="0.69855">
        <ele>165</ele>
        <time>2017-04-30T07:22:58.000Z</time>
      </trkpt>
      <trkpt lat="44.21918" lon="0.69852">
        <ele>162</ele>
        <time>2017-04-30T07:22:59.000Z</time>
      </trkpt>
      <trkpt lat="44.21924" lon="0.69848">
        <ele>160</ele>
        <time>2017-04-30T07:23:00.000Z</time>
      </trkpt>
      <trkpt lat="44.21929" lon="0.69847">
        <ele>156</ele>
        <time>2017-04-30T07:23:01.000Z</time>
      </trkpt>
      <trkpt lat="44.21935" lon="0.69847">
        <ele>156</ele>
        <time>2017-04-30T07:23:02.000Z</time>
      </trkpt>
      <trkpt lat="44.21941" lon="0.69846">
        <ele>156</ele>
        <time>2017-04-30T07:23:03.000Z</time>
      </trkpt>
      <trkpt lat="44.21947" lon="0.69846">
        <ele>156</ele>
        <time>2017-04-30T07:23:04.000Z</time>
      </trkpt>
      <trkpt lat="44.21954" lon="0.6985">
        <ele>157</ele>
        <time>2017-04-30T07:23:05.000Z</time>
      </trkpt>
      <trkpt lat="44.2196" lon="0.69855">
        <ele>156</ele>
        <time>2017-04-30T07:23:06.000Z</time>
      </trkpt>
      <trkpt lat="44.21966" lon="0.69858">
        <ele>156</ele>
        <time>2017-04-30T07:23:07.000Z</time>
      </trkpt>
      <trkpt lat="44.21972" lon="0.69861">
        <ele>156</ele>
        <time>2017-04-30T07:23:08.000Z</time>
      </trkpt>
      <trkpt lat="44.21979" lon="0.69862">
        <ele>156</ele>
        <time>2017-04-30T07:23:09.000Z</time>
      </trkpt>
      <trkpt lat="44.21986" lon="0.69864">
        <ele>156</ele>
        <time>2017-04-30T07:23:10.000Z</time>
      </trkpt>
      <trkpt lat="44.21992" lon="0.69866">
        <ele>155</ele>
        <time>2017-04-30T07:23:11.000Z</time>
      </trkpt>
      <trkpt lat="44.21999" lon="0.69868">
        <ele>155</ele>
        <time>2017-04-30T07:23:12.000Z</time>
      </trkpt>
      <trkpt lat="44.22005" lon="0.69871">
        <ele>155</ele>
        <time>2017-04-30T07:23:13.000Z</time>
      </trkpt>
      <trkpt lat="44.22011" lon="0.69875">
        <ele>155</ele>
        <time>2017-04-30T07:23:14.000Z</time>
      </trkpt>
      <trkpt lat="44.22016" lon="0.69879">
        <ele>156</ele>
        <time>2017-04-30T07:23:15.000Z</time>
      </trkpt>
      <trkpt lat="44.22021" lon="0.69884">
        <ele>156</ele>
        <time>2017-04-30T07:23:16.000Z</time>
      </trkpt>
      <trkpt lat="44.22026" lon="0.69889">
        <ele>156</ele>
        <time>2017-04-30T07:23:17.000Z</time>
      </trkpt>
      <trkpt lat="44.22031" lon="0.69895">
        <ele>156</ele>
        <time>2017-04-30T07:23:18.000Z</time>
      </trkpt>
      <trkpt lat="44.22036" lon="0.699">
        <ele>156</ele>
        <time>2017-04-30T07:23:19.000Z</time>
      </trkpt>
      <trkpt lat="44.2204" lon="0.69906">
        <ele>156</ele>
        <time>2017-04-30T07:23:20.000Z</time>
      </trkpt>
      <trkpt lat="44.22045" lon="0.69911">
        <ele>156</ele>
        <time>2017-04-30T07:23:21.000Z</time>
      </trkpt>
      <trkpt lat="44.2205" lon="0.69916">
        <ele>156</ele>
        <time>2017-04-30T07:23:22.000Z</time>
      </trkpt>
      <trkpt lat="44.22055" lon="0.69921">
        <ele>157</ele>
        <time>2017-04-30T07:23:23.000Z</time>
      </trkpt>
      <trkpt lat="44.22059" lon="0.69925">
        <ele>157</ele>
        <time>2017-04-30T07:23:24.000Z</time>
      </trkpt>
      <trkpt lat="44.22064" lon="0.69929">
        <ele>157</ele>
        <time>2017-04-30T07:23:25.000Z</time>
      </trkpt>
      <trkpt lat="44.22069" lon="0.69931">
        <ele>157</ele>
        <time>2017-04-30T07:23:26.000Z</time>
      </trkpt>
      <trkpt lat="44.22074" lon="0.69934">
        <ele>158</ele>
        <time>2017-04-30T07:23:27.000Z</time>
      </trkpt>
      <trkpt lat="44.22079" lon="0.69936">
        <ele>158</ele>
        <time>2017-04-30T07:23:28.000Z</time>
      </trkpt>
      <trkpt lat="44.22083" lon="0.69938">
        <ele>158</ele>
        <time>2017-04-30T07:23:29.000Z</time>
      </trkpt>
      <trkpt lat="44.22088" lon="0.69941">
        <ele>159</ele>
        <time>2017-04-30T07:23:30.000Z</time>
      </trkpt>
      <trkpt lat="44.22093" lon="0.69943">
        <ele>159</ele>
        <time>2017-04-30T07:23:31.000Z</time>
      </trkpt>
      <trkpt lat="44.22097" lon="0.69945">
        <ele>159</ele>
        <time>2017-04-30T07:23:32.000Z</time>
      </trkpt>
      <trkpt lat="44.22102" lon="0.69948">
        <ele>160</ele>
        <time>2017-04-30T07:23:33.000Z</time>
      </trkpt>
      <trkpt lat="44.22106" lon="0.6995">
        <ele>160</ele>
        <time>2017-04-30T07:23:34.000Z</time>
      </trkpt>
      <trkpt lat="44.2211" lon="0.69952">
        <ele>160</ele>
        <time>2017-04-30T07:23:35.000Z</time>
      </trkpt>
      <trkpt lat="44.22115" lon="0.69954">
        <ele>161</ele>
        <time>2017-04-30T07:23:36.000Z</time>
      </trkpt>
      <trkpt lat="44.22119" lon="0.69956">
        <ele>161</ele>
        <time>2017-04-30T07:23:37.000Z</time>
      </trkpt>
      <trkpt lat="44.22123" lon="0.69958">
        <ele>161</ele>
        <time>2017-04-30T07:23:38.000Z</time>
      </trkpt>
      <trkpt lat="44.22127" lon="0.6996">
        <ele>162</ele>
        <time>2017-04-30T07:23:39.000Z</time>
      </trkpt>
      <trkpt lat="44.22131" lon="0.69961">
        <ele>162</ele>
        <time>2017-04-30T07:23:40.000Z</time>
      </trkpt>
      <trkpt lat="44.22135" lon="0.69963">
        <ele>162</ele>
        <time>2017-04-30T07:23:41.000Z</time>
      </trkpt>
      <trkpt lat="44.22139" lon="0.69963">
        <ele>162</ele>
        <time>2017-04-30T07:23:42.000Z</time>
      </trkpt>
      <trkpt lat="44.22141" lon="0.69958">
        <ele>166</ele>
        <time>2017-04-30T07:23:43.000Z</time>
      </trkpt>
      <trkpt lat="44.22142" lon="0.69952">
        <ele>167</ele>
        <time>2017-04-30T07:23:44.000Z</time>
      </trkpt>
      <trkpt lat="44.22143" lon="0.69947">
        <ele>168</ele>
        <time>2017-04-30T07:23:45.000Z</time>
      </trkpt>
      <trkpt lat="44.22145" lon="0.69941">
        <ele>168</ele>
        <time>2017-04-30T07:23:46.000Z</time>
      </trkpt>
      <trkpt lat="44.22146" lon="0.69935">
        <ele>168</ele>
        <time>2017-04-30T07:23:47.000Z</time>
      </trkpt>
      <trkpt lat="44.22148" lon="0.69928">
        <ele>167</ele>
        <time>2017-04-30T07:23:48.000Z</time>
      </trkpt>
      <trkpt lat="44.2215" lon="0.69922">
        <ele>167</ele>
        <time>2017-04-30T07:23:49.000Z</time>
      </trkpt>
      <trkpt lat="44.22152" lon="0.69916">
        <ele>167</ele>
        <time>2017-04-30T07:23:50.000Z</time>
      </trkpt>
      <trkpt lat="44.22154" lon="0.6991">
        <ele>167</ele>
        <time>2017-04-30T07:23:51.000Z</time>
      </trkpt>
      <trkpt lat="44.22155" lon="0.69904">
        <ele>166</ele>
        <time>2017-04-30T07:23:52.000Z</time>
      </trkpt>
      <trkpt lat="44.22157" lon="0.69898">
        <ele>166</ele>
        <time>2017-04-30T07:23:53.000Z</time>
      </trkpt>
      <trkpt lat="44.22159" lon="0.69892">
        <ele>166</ele>
        <time>2017-04-30T07:23:54.000Z</time>
      </trkpt>
      <trkpt lat="44.22161" lon="0.69886">
        <ele>166</ele>
        <time>2017-04-30T07:23:55.000Z</time>
      </trkpt>
      <trkpt lat="44.22162" lon="0.69879">
        <ele>166</ele>
        <time>2017-04-30T07:23:56.000Z</time>
      </trkpt>
      <trkpt lat="44.22164" lon="0.69873">
        <ele>165</ele>
        <time>2017-04-30T07:23:57.000Z</time>
      </trkpt>
      <trkpt lat="44.22166" lon="0.69866">
        <ele>165</ele>
        <time>2017-04-30T07:23:58.000Z</time>
      </trkpt>
      <trkpt lat="44.22168" lon="0.69858">
        <ele>165</ele>
        <time>2017-04-30T07:23:59.000Z</time>
      </trkpt>
      <trkpt lat="44.2217" lon="0.69851">
        <ele>164</ele>
        <time>2017-04-30T07:24:00.000Z</time>
      </trkpt>
      <trkpt lat="44.22173" lon="0.69843">
        <ele>164</ele>
        <time>2017-04-30T07:24:01.000Z</time>
      </trkpt>
      <trkpt lat="44.22175" lon="0.69835">
        <ele>164</ele>
        <time>2017-04-30T07:24:02.000Z</time>
      </trkpt>
      <trkpt lat="44.22177" lon="0.69828">
        <ele>164</ele>
        <time>2017-04-30T07:24:03.000Z</time>
      </trkpt>
      <trkpt lat="44.22179" lon="0.6982">
        <ele>163</ele>
        <time>2017-04-30T07:24:04.000Z</time>
      </trkpt>
      <trkpt lat="44.22181" lon="0.69812">
        <ele>163</ele>
        <time>2017-04-30T07:24:05.000Z</time>
      </trkpt>
      <trkpt lat="44.22183" lon="0.69804">
        <ele>163</ele>
        <time>2017-04-30T07:24:06.000Z</time>
      </trkpt>
      <trkpt lat="44.22186" lon="0.69796">
        <ele>163</ele>
        <time>2017-04-30T07:24:07.000Z</time>
      </trkpt>
      <trkpt lat="44.22188" lon="0.69788">
        <ele>163</ele>
        <time>2017-04-30T07:24:08.000Z</time>
      </trkpt>
      <trkpt lat="44.2219" lon="0.6978">
        <ele>163</ele>
        <time>2017-04-30T07:24:09.000Z</time>
      </trkpt>
      <trkpt lat="44.22192" lon="0.69772">
        <ele>163</ele>
        <time>2017-04-30T07:24:10.000Z</time>
      </trkpt>
      <trkpt lat="44.22195" lon="0.69764">
        <ele>163</ele>
        <time>2017-04-30T07:24:11.000Z</time>
      </trkpt>
      <trkpt lat="44.22197" lon="0.69757">
        <ele>162</ele>
        <time>2017-04-30T07:24:12.000Z</time>
      </trkpt>
      <trkpt lat="44.22199" lon="0.69749">
        <ele>162</ele>
        <time>2017-04-30T07:24:13.000Z</time>
      </trkpt>
      <trkpt lat="44.22201" lon="0.69742">
        <ele>162</ele>
        <time>2017-04-30T07:24:14.000Z</time>
      </trkpt>
      <trkpt lat="44.22204" lon="0.69736">
        <ele>162</ele>
        <time>2017-04-30T07:24:15.000Z</time>
      </trkpt>
      <trkpt lat="44.22207" lon="0.69731">
        <ele>163</ele>
        <time>2017-04-30T07:24:16.000Z</time>
      </trkpt>
      <trkpt lat="44.22214" lon="0.69734">
        <ele>165</ele>
        <time>2017-04-30T07:24:17.000Z</time>
      </trkpt>
      <trkpt lat="44.22218" lon="0.69737">
        <ele>164</ele>
        <time>2017-04-30T07:24:18.000Z</time>
      </trkpt>
      <trkpt lat="44.22223" lon="0.69741">
        <ele>164</ele>
        <time>2017-04-30T07:24:19.000Z</time>
      </trkpt>
      <trkpt lat="44.22229" lon="0.69746">
        <ele>163</ele>
        <time>2017-04-30T07:24:20.000Z</time>
      </trkpt>
      <trkpt lat="44.22235" lon="0.6975">
        <ele>163</ele>
        <time>2017-04-30T07:24:21.000Z</time>
      </trkpt>
      <trkpt lat="44.22241" lon="0.69755">
        <ele>163</ele>
        <time>2017-04-30T07:24:22.000Z</time>
      </trkpt>
      <trkpt lat="44.22248" lon="0.6976">
        <ele>162</ele>
        <time>2017-04-30T07:24:23.000Z</time>
      </trkpt>
      <trkpt lat="44.22254" lon="0.69765">
        <ele>162</ele>
        <time>2017-04-30T07:24:24.000Z</time>
      </trkpt>
      <trkpt lat="44.2226" lon="0.69771">
        <ele>161</ele>
        <time>2017-04-30T07:24:25.000Z</time>
      </trkpt>
      <trkpt lat="44.22267" lon="0.69776">
        <ele>161</ele>
        <time>2017-04-30T07:24:26.000Z</time>
      </trkpt>
      <trkpt lat="44.22273" lon="0.69782">
        <ele>161</ele>
        <time>2017-04-30T07:24:27.000Z</time>
      </trkpt>
      <trkpt lat="44.2228" lon="0.69787">
        <ele>160</ele>
        <time>2017-04-30T07:24:28.000Z</time>
      </trkpt>
      <trkpt lat="44.22286" lon="0.69793">
        <ele>160</ele>
        <time>2017-04-30T07:24:29.000Z</time>
      </trkpt>
      <trkpt lat="44.22292" lon="0.69799">
        <ele>160</ele>
        <time>2017-04-30T07:24:30.000Z</time>
      </trkpt>
      <trkpt lat="44.22299" lon="0.69804">
        <ele>160</ele>
        <time>2017-04-30T07:24:31.000Z</time>
      </trkpt>
      <trkpt lat="44.22305" lon="0.6981">
        <ele>160</ele>
        <time>2017-04-30T07:24:32.000Z</time>
      </trkpt>
      <trkpt lat="44.22311" lon="0.69815">
        <ele>160</ele>
        <time>2017-04-30T07:24:33.000Z</time>
      </trkpt>
      <trkpt lat="44.22317" lon="0.6982">
        <ele>160</ele>
        <time>2017-04-30T07:24:34.000Z</time>
      </trkpt>
      <trkpt lat="44.22323" lon="0.69826">
        <ele>160</ele>
        <time>2017-04-30T07:24:35.000Z</time>
      </trkpt>
      <trkpt lat="44.22329" lon="0.69832">
        <ele>160</ele>
        <time>2017-04-30T07:24:36.000Z</time>
      </trkpt>
      <trkpt lat="44.22335" lon="0.69837">
        <ele>160</ele>
        <time>2017-04-30T07:24:37.000Z</time>
      </trkpt>
      <trkpt lat="44.2234" lon="0.69843">
        <ele>160</ele>
        <time>2017-04-30T07:24:38.000Z</time>
      </trkpt>
      <trkpt lat="44.22346" lon="0.69848">
        <ele>160</ele>
        <time>2017-04-30T07:24:39.000Z</time>
      </trkpt>
      <trkpt lat="44.22352" lon="0.69854">
        <ele>160</ele>
        <time>2017-04-30T07:24:40.000Z</time>
      </trkpt>
      <trkpt lat="44.22358" lon="0.69859">
        <ele>160</ele>
        <time>2017-04-30T07:24:41.000Z</time>
      </trkpt>
      <trkpt lat="44.22364" lon="0.69865">
        <ele>160</ele>
        <time>2017-04-30T07:24:42.000Z</time>
      </trkpt>
      <trkpt lat="44.2237" lon="0.69869">
        <ele>160</ele>
        <time>2017-04-30T07:24:43.000Z</time>
      </trkpt>
      <trkpt lat="44.22376" lon="0.69874">
        <ele>160</ele>
        <time>2017-04-30T07:24:44.000Z</time>
      </trkpt>
      <trkpt lat="44.22382" lon="0.69879">
        <ele>160</ele>
        <time>2017-04-30T07:24:45.000Z</time>
      </trkpt>
      <trkpt lat="44.22388" lon="0.69883">
        <ele>160</ele>
        <time>2017-04-30T07:24:46.000Z</time>
      </trkpt>
      <trkpt lat="44.22394" lon="0.69888">
        <ele>160</ele>
        <time>2017-04-30T07:24:47.000Z</time>
      </trkpt>
      <trkpt lat="44.224" lon="0.69892">
        <ele>160</ele>
        <time>2017-04-30T07:24:48.000Z</time>
      </trkpt>
      <trkpt lat="44.22405" lon="0.69897">
        <ele>160</ele>
        <time>2017-04-30T07:24:49.000Z</time>
      </trkpt>
      <trkpt lat="44.2241" lon="0.69902">
        <ele>160</ele>
        <time>2017-04-30T07:24:50.000Z</time>
      </trkpt>
      <trkpt lat="44.22415" lon="0.69908">
        <ele>160</ele>
        <time>2017-04-30T07:24:51.000Z</time>
      </trkpt>
      <trkpt lat="44.22419" lon="0.69913">
        <ele>160</ele>
        <time>2017-04-30T07:24:52.000Z</time>
      </trkpt>
      <trkpt lat="44.22424" lon="0.69919">
        <ele>160</ele>
        <time>2017-04-30T07:24:53.000Z</time>
      </trkpt>
      <trkpt lat="44.22427" lon="0.69924">
        <ele>160</ele>
        <time>2017-04-30T07:24:54.000Z</time>
      </trkpt>
      <trkpt lat="44.22431" lon="0.69928">
        <ele>160</ele>
        <time>2017-04-30T07:24:55.000Z</time>
      </trkpt>
      <trkpt lat="44.22436" lon="0.69929">
        <ele>159</ele>
        <time>2017-04-30T07:24:56.000Z</time>
      </trkpt>
      <trkpt lat="44.2244" lon="0.69927">
        <ele>159</ele>
        <time>2017-04-30T07:24:57.000Z</time>
      </trkpt>
      <trkpt lat="44.22442" lon="0.69922">
        <ele>160</ele>
        <time>2017-04-30T07:24:58.000Z</time>
      </trkpt>
      <trkpt lat="44.22446" lon="0.69919">
        <ele>160</ele>
        <time>2017-04-30T07:24:59.000Z</time>
      </trkpt>
      <trkpt lat="44.22448" lon="0.69914">
        <ele>160</ele>
        <time>2017-04-30T07:25:00.000Z</time>
      </trkpt>
      <trkpt lat="44.22451" lon="0.69908">
        <ele>160</ele>
        <time>2017-04-30T07:25:01.000Z</time>
      </trkpt>
      <trkpt lat="44.22454" lon="0.69903">
        <ele>160</ele>
        <time>2017-04-30T07:25:02.000Z</time>
      </trkpt>
      <trkpt lat="44.22458" lon="0.69897">
        <ele>160</ele>
        <time>2017-04-30T07:25:03.000Z</time>
      </trkpt>
      <trkpt lat="44.22461" lon="0.69892">
        <ele>160</ele>
        <time>2017-04-30T07:25:04.000Z</time>
      </trkpt>
      <trkpt lat="44.22465" lon="0.69887">
        <ele>160</ele>
        <time>2017-04-30T07:25:05.000Z</time>
      </trkpt>
      <trkpt lat="44.22468" lon="0.69881">
        <ele>160</ele>
        <time>2017-04-30T07:25:06.000Z</time>
      </trkpt>
      <trkpt lat="44.22473" lon="0.69878">
        <ele>160</ele>
        <time>2017-04-30T07:25:07.000Z</time>
      </trkpt>
      <trkpt lat="44.22477" lon="0.69874">
        <ele>160</ele>
        <time>2017-04-30T07:25:08.000Z</time>
      </trkpt>
      <trkpt lat="44.22481" lon="0.6987">
        <ele>160</ele>
        <time>2017-04-30T07:25:09.000Z</time>
      </trkpt>
      <trkpt lat="44.22485" lon="0.69867">
        <ele>160</ele>
        <time>2017-04-30T07:25:10.000Z</time>
      </trkpt>
      <trkpt lat="44.2249" lon="0.69863">
        <ele>159</ele>
        <time>2017-04-30T07:25:11.000Z</time>
      </trkpt>
      <trkpt lat="44.22494" lon="0.6986">
        <ele>159</ele>
        <time>2017-04-30T07:25:12.000Z</time>
      </trkpt>
      <trkpt lat="44.22498" lon="0.69857">
        <ele>159</ele>
        <time>2017-04-30T07:25:13.000Z</time>
      </trkpt>
      <trkpt lat="44.22502" lon="0.69854">
        <ele>159</ele>
        <time>2017-04-30T07:25:14.000Z</time>
      </trkpt>
      <trkpt lat="44.22506" lon="0.6985">
        <ele>159</ele>
        <time>2017-04-30T07:25:15.000Z</time>
      </trkpt>
      <trkpt lat="44.2251" lon="0.69847">
        <ele>159</ele>
        <time>2017-04-30T07:25:16.000Z</time>
      </trkpt>
      <trkpt lat="44.22514" lon="0.69844">
        <ele>160</ele>
        <time>2017-04-30T07:25:17.000Z</time>
      </trkpt>
      <trkpt lat="44.22519" lon="0.6984">
        <ele>159</ele>
        <time>2017-04-30T07:25:18.000Z</time>
      </trkpt>
      <trkpt lat="44.22523" lon="0.69837">
        <ele>159</ele>
        <time>2017-04-30T07:25:19.000Z</time>
      </trkpt>
      <trkpt lat="44.22528" lon="0.69834">
        <ele>158</ele>
        <time>2017-04-30T07:25:20.000Z</time>
      </trkpt>
      <trkpt lat="44.22532" lon="0.69831">
        <ele>158</ele>
        <time>2017-04-30T07:25:21.000Z</time>
      </trkpt>
      <trkpt lat="44.22536" lon="0.69828">
        <ele>159</ele>
        <time>2017-04-30T07:25:22.000Z</time>
      </trkpt>
      <trkpt lat="44.2254" lon="0.69824">
        <ele>159</ele>
        <time>2017-04-30T07:25:23.000Z</time>
      </trkpt>
      <trkpt lat="44.22544" lon="0.69821">
        <ele>160</ele>
        <time>2017-04-30T07:25:24.000Z</time>
      </trkpt>
      <trkpt lat="44.22547" lon="0.69817">
        <ele>160</ele>
        <time>2017-04-30T07:25:25.000Z</time>
      </trkpt>
      <trkpt lat="44.22551" lon="0.69814">
        <ele>160</ele>
        <time>2017-04-30T07:25:26.000Z</time>
      </trkpt>
      <trkpt lat="44.22553" lon="0.69812">
        <ele>161</ele>
        <time>2017-04-30T07:25:27.000Z</time>
      </trkpt>
      <trkpt lat="44.22556" lon="0.69811">
        <ele>161</ele>
        <time>2017-04-30T07:25:28.000Z</time>
      </trkpt>
      <trkpt lat="44.22557" lon="0.69814">
        <ele>161</ele>
        <time>2017-04-30T07:25:29.000Z</time>
      </trkpt>
      <trkpt lat="44.22559" lon="0.69816">
        <ele>161</ele>
        <time>2017-04-30T07:25:30.000Z</time>
      </trkpt>
      <trkpt lat="44.22562" lon="0.69816">
        <ele>162</ele>
        <time>2017-04-30T07:25:31.000Z</time>
      </trkpt>
      <trkpt lat="44.22564" lon="0.69817">
        <ele>163</ele>
        <time>2017-04-30T07:25:32.000Z</time>
      </trkpt>
      <trkpt lat="44.22567" lon="0.69819">
        <ele>166</ele>
        <time>2017-04-30T07:25:33.000Z</time>
      </trkpt>
      <trkpt lat="44.22569" lon="0.69821">
        <ele>167</ele>
        <time>2017-04-30T07:25:34.000Z</time>
      </trkpt>
      <trkpt lat="44.22571" lon="0.69823">
        <ele>168</ele>
        <time>2017-04-30T07:25:35.000Z</time>
      </trkpt>
      <trkpt lat="44.22574" lon="0.69824">
        <ele>168</ele>
        <time>2017-04-30T07:25:36.000Z</time>
      </trkpt>
      <trkpt lat="44.22576" lon="0.69826">
        <ele>168</ele>
        <time>2017-04-30T07:25:37.000Z</time>
      </trkpt>
      <trkpt lat="44.22578" lon="0.69827">
        <ele>168</ele>
        <time>2017-04-30T07:25:38.000Z</time>
      </trkpt>
      <trkpt lat="44.2258" lon="0.69829">
        <ele>169</ele>
        <time>2017-04-30T07:25:39.000Z</time>
      </trkpt>
      <trkpt lat="44.22583" lon="0.69832">
        <ele>168</ele>
        <time>2017-04-30T07:25:40.000Z</time>
      </trkpt>
      <trkpt lat="44.22585" lon="0.69834">
        <ele>168</ele>
        <time>2017-04-30T07:25:41.000Z</time>
      </trkpt>
      <trkpt lat="44.22587" lon="0.69837">
        <ele>169</ele>
        <time>2017-04-30T07:25:42.000Z</time>
      </trkpt>
      <trkpt lat="44.22588" lon="0.69839">
        <ele>169</ele>
        <time>2017-04-30T07:25:43.000Z</time>
      </trkpt>
      <trkpt lat="44.2259" lon="0.69842">
        <ele>168</ele>
        <time>2017-04-30T07:25:44.000Z</time>
      </trkpt>
      <trkpt lat="44.22592" lon="0.69844">
        <ele>167</ele>
        <time>2017-04-30T07:25:45.000Z</time>
      </trkpt>
      <trkpt lat="44.22594" lon="0.69847">
        <ele>168</ele>
        <time>2017-04-30T07:25:46.000Z</time>
      </trkpt>
      <trkpt lat="44.22596" lon="0.6985">
        <ele>168</ele>
        <time>2017-04-30T07:25:47.000Z</time>
      </trkpt>
      <trkpt lat="44.22597" lon="0.69853">
        <ele>168</ele>
        <time>2017-04-30T07:25:48.000Z</time>
      </trkpt>
      <trkpt lat="44.22599" lon="0.69855">
        <ele>168</ele>
        <time>2017-04-30T07:25:49.000Z</time>
      </trkpt>
      <trkpt lat="44.22601" lon="0.69858">
        <ele>168</ele>
        <time>2017-04-30T07:25:50.000Z</time>
      </trkpt>
      <trkpt lat="44.22603" lon="0.6986">
        <ele>168</ele>
        <time>2017-04-30T07:25:51.000Z</time>
      </trkpt>
      <trkpt lat="44.22605" lon="0.69863">
        <ele>168</ele>
        <time>2017-04-30T07:25:52.000Z</time>
      </trkpt>
      <trkpt lat="44.22607" lon="0.69866">
        <ele>168</ele>
        <time>2017-04-30T07:25:53.000Z</time>
      </trkpt>
      <trkpt lat="44.22609" lon="0.69868">
        <ele>168</ele>
        <time>2017-04-30T07:25:54.000Z</time>
      </trkpt>
      <trkpt lat="44.22611" lon="0.6987">
        <ele>168</ele>
        <time>2017-04-30T07:25:55.000Z</time>
      </trkpt>
      <trkpt lat="44.22613" lon="0.69872">
        <ele>168</ele>
        <time>2017-04-30T07:25:56.000Z</time>
      </trkpt>
      <trkpt lat="44.22616" lon="0.69875">
        <ele>168</ele>
        <time>2017-04-30T07:25:57.000Z</time>
      </trkpt>
      <trkpt lat="44.22619" lon="0.69878">
        <ele>169</ele>
        <time>2017-04-30T07:25:58.000Z</time>
      </trkpt>
      <trkpt lat="44.22622" lon="0.69881">
        <ele>169</ele>
        <time>2017-04-30T07:25:59.000Z</time>
      </trkpt>
      <trkpt lat="44.22626" lon="0.69884">
        <ele>169</ele>
        <time>2017-04-30T07:26:00.000Z</time>
      </trkpt>
      <trkpt lat="44.22629" lon="0.69888">
        <ele>169</ele>
        <time>2017-04-30T07:26:01.000Z</time>
      </trkpt>
      <trkpt lat="44.22633" lon="0.6989">
        <ele>167</ele>
        <time>2017-04-30T07:26:02.000Z</time>
      </trkpt>
      <trkpt lat="44.22637" lon="0.69891">
        <ele>168</ele>
        <time>2017-04-30T07:26:03.000Z</time>
      </trkpt>
      <trkpt lat="44.2264" lon="0.69893">
        <ele>168</ele>
        <time>2017-04-30T07:26:04.000Z</time>
      </trkpt>
      <trkpt lat="44.22643" lon="0.69896">
        <ele>168</ele>
        <time>2017-04-30T07:26:05.000Z</time>
      </trkpt>
      <trkpt lat="44.22646" lon="0.699">
        <ele>169</ele>
        <time>2017-04-30T07:26:06.000Z</time>
      </trkpt>
      <trkpt lat="44.22649" lon="0.69904">
        <ele>169</ele>
        <time>2017-04-30T07:26:07.000Z</time>
      </trkpt>
      <trkpt lat="44.22652" lon="0.69908">
        <ele>169</ele>
        <time>2017-04-30T07:26:08.000Z</time>
      </trkpt>
      <trkpt lat="44.22655" lon="0.69909">
        <ele>170</ele>
        <time>2017-04-30T07:26:09.000Z</time>
      </trkpt>
      <trkpt lat="44.22659" lon="0.69911">
        <ele>169</ele>
        <time>2017-04-30T07:26:10.000Z</time>
      </trkpt>
      <trkpt lat="44.22662" lon="0.69911">
        <ele>170</ele>
        <time>2017-04-30T07:26:11.000Z</time>
      </trkpt>
      <trkpt lat="44.22668" lon="0.69911">
        <ele>170</ele>
        <time>2017-04-30T07:26:12.000Z</time>
      </trkpt>
      <trkpt lat="44.22673" lon="0.69913">
        <ele>170</ele>
        <time>2017-04-30T07:26:13.000Z</time>
      </trkpt>
      <trkpt lat="44.22677" lon="0.69913">
        <ele>170</ele>
        <time>2017-04-30T07:26:14.000Z</time>
      </trkpt>
      <trkpt lat="44.22682" lon="0.69913">
        <ele>170</ele>
        <time>2017-04-30T07:26:15.000Z</time>
      </trkpt>
      <trkpt lat="44.22686" lon="0.69913">
        <ele>170</ele>
        <time>2017-04-30T07:26:16.000Z</time>
      </trkpt>
      <trkpt lat="44.22689" lon="0.69913">
        <ele>170</ele>
        <time>2017-04-30T07:26:17.000Z</time>
      </trkpt>
      <trkpt lat="44.22693" lon="0.69913">
        <ele>170</ele>
        <time>2017-04-30T07:26:18.000Z</time>
      </trkpt>
      <trkpt lat="44.22696" lon="0.69914">
        <ele>170</ele>
        <time>2017-04-30T07:26:19.000Z</time>
      </trkpt>
      <trkpt lat="44.227" lon="0.69914">
        <ele>169</ele>
        <time>2017-04-30T07:26:20.000Z</time>
      </trkpt>
      <trkpt lat="44.22704" lon="0.69914">
        <ele>169</ele>
        <time>2017-04-30T07:26:21.000Z</time>
      </trkpt>
      <trkpt lat="44.22708" lon="0.69914">
        <ele>169</ele>
        <time>2017-04-30T07:26:22.000Z</time>
      </trkpt>
      <trkpt lat="44.22713" lon="0.69914">
        <ele>169</ele>
        <time>2017-04-30T07:26:23.000Z</time>
      </trkpt>
      <trkpt lat="44.22717" lon="0.69915">
        <ele>169</ele>
        <time>2017-04-30T07:26:24.000Z</time>
      </trkpt>
      <trkpt lat="44.22722" lon="0.69916">
        <ele>169</ele>
        <time>2017-04-30T07:26:25.000Z</time>
      </trkpt>
      <trkpt lat="44.22727" lon="0.69917">
        <ele>169</ele>
        <time>2017-04-30T07:26:26.000Z</time>
      </trkpt>
      <trkpt lat="44.22731" lon="0.69919">
        <ele>169</ele>
        <time>2017-04-30T07:26:27.000Z</time>
      </trkpt>
      <trkpt lat="44.22736" lon="0.6992">
        <ele>169</ele>
        <time>2017-04-30T07:26:28.000Z</time>
      </trkpt>
      <trkpt lat="44.22741" lon="0.69922">
        <ele>168</ele>
        <time>2017-04-30T07:26:29.000Z</time>
      </trkpt>
      <trkpt lat="44.22747" lon="0.69923">
        <ele>168</ele>
        <time>2017-04-30T07:26:30.000Z</time>
      </trkpt>
      <trkpt lat="44.22753" lon="0.69923">
        <ele>168</ele>
        <time>2017-04-30T07:26:31.000Z</time>
      </trkpt>
      <trkpt lat="44.22759" lon="0.69922">
        <ele>168</ele>
        <time>2017-04-30T07:26:32.000Z</time>
      </trkpt>
      <trkpt lat="44.22765" lon="0.6992">
        <ele>168</ele>
        <time>2017-04-30T07:26:33.000Z</time>
      </trkpt>
      <trkpt lat="44.2277" lon="0.69911">
        <ele>166</ele>
        <time>2017-04-30T07:26:34.000Z</time>
      </trkpt>
      <trkpt lat="44.22776" lon="0.69908">
        <ele>166</ele>
        <time>2017-04-30T07:26:35.000Z</time>
      </trkpt>
      <trkpt lat="44.22781" lon="0.69907">
        <ele>165</ele>
        <time>2017-04-30T07:26:36.000Z</time>
      </trkpt>
      <trkpt lat="44.22787" lon="0.69905">
        <ele>165</ele>
        <time>2017-04-30T07:26:37.000Z</time>
      </trkpt>
      <trkpt lat="44.22793" lon="0.69905">
        <ele>166</ele>
        <time>2017-04-30T07:26:38.000Z</time>
      </trkpt>
      <trkpt lat="44.228" lon="0.69907">
        <ele>167</ele>
        <time>2017-04-30T07:26:39.000Z</time>
      </trkpt>
      <trkpt lat="44.22807" lon="0.6991">
        <ele>168</ele>
        <time>2017-04-30T07:26:40.000Z</time>
      </trkpt>
      <trkpt lat="44.22813" lon="0.69913">
        <ele>168</ele>
        <time>2017-04-30T07:26:41.000Z</time>
      </trkpt>
      <trkpt lat="44.22818" lon="0.69915">
        <ele>167</ele>
        <time>2017-04-30T07:26:42.000Z</time>
      </trkpt>
      <trkpt lat="44.22823" lon="0.69916">
        <ele>166</ele>
        <time>2017-04-30T07:26:43.000Z</time>
      </trkpt>
      <trkpt lat="44.22828" lon="0.69917">
        <ele>164</ele>
        <time>2017-04-30T07:26:44.000Z</time>
      </trkpt>
      <trkpt lat="44.22832" lon="0.69918">
        <ele>164</ele>
        <time>2017-04-30T07:26:45.000Z</time>
      </trkpt>
      <trkpt lat="44.22835" lon="0.6992">
        <ele>165</ele>
        <time>2017-04-30T07:26:46.000Z</time>
      </trkpt>
      <trkpt lat="44.22835" lon="0.69922">
        <ele>167</ele>
        <time>2017-04-30T07:26:47.000Z</time>
      </trkpt>
      <trkpt lat="44.22838" lon="0.69923">
        <ele>168</ele>
        <time>2017-04-30T07:26:48.000Z</time>
      </trkpt>
      <trkpt lat="44.22839" lon="0.69925">
        <ele>169</ele>
        <time>2017-04-30T07:26:49.000Z</time>
      </trkpt>
      <trkpt lat="44.2284" lon="0.69928">
        <ele>170</ele>
        <time>2017-04-30T07:26:50.000Z</time>
      </trkpt>
      <trkpt lat="44.22839" lon="0.69933">
        <ele>172</ele>
        <time>2017-04-30T07:26:51.000Z</time>
      </trkpt>
      <trkpt lat="44.22839" lon="0.69937">
        <ele>173</ele>
        <time>2017-04-30T07:26:52.000Z</time>
      </trkpt>
      <trkpt lat="44.2284" lon="0.69941">
        <ele>175</ele>
        <time>2017-04-30T07:26:53.000Z</time>
      </trkpt>
      <trkpt lat="44.22838" lon="0.69946">
        <ele>173</ele>
        <time>2017-04-30T07:26:54.000Z</time>
      </trkpt>
      <trkpt lat="44.22837" lon="0.69951">
        <ele>171</ele>
        <time>2017-04-30T07:26:55.000Z</time>
      </trkpt>
      <trkpt lat="44.22838" lon="0.69955">
        <ele>171</ele>
        <time>2017-04-30T07:26:56.000Z</time>
      </trkpt>
      <trkpt lat="44.22838" lon="0.6996">
        <ele>171</ele>
        <time>2017-04-30T07:26:57.000Z</time>
      </trkpt>
      <trkpt lat="44.22839" lon="0.69963">
        <ele>170</ele>
        <time>2017-04-30T07:26:58.000Z</time>
      </trkpt>
      <trkpt lat="44.2284" lon="0.69962">
        <ele>169</ele>
        <time>2017-04-30T07:26:59.000Z</time>
      </trkpt>
      <trkpt lat="44.22841" lon="0.69964">
        <ele>169</ele>
        <time>2017-04-30T07:27:00.000Z</time>
      </trkpt>
      <trkpt lat="44.22841" lon="0.69965">
        <ele>169</ele>
        <time>2017-04-30T07:27:01.000Z</time>
      </trkpt>
      <trkpt lat="44.22845" lon="0.69966">
        <ele>169</ele>
        <time>2017-04-30T07:27:02.000Z</time>
      </trkpt>
      <trkpt lat="44.22855" lon="0.69966">
        <ele>175</ele>
        <time>2017-04-30T07:27:03.000Z</time>
      </trkpt>
      <trkpt lat="44.2286" lon="0.69969">
        <ele>175</ele>
        <time>2017-04-30T07:27:04.000Z</time>
      </trkpt>
      <trkpt lat="44.22864" lon="0.6997">
        <ele>174</ele>
        <time>2017-04-30T07:27:05.000Z</time>
      </trkpt>
      <trkpt lat="44.22867" lon="0.69971">
        <ele>173</ele>
        <time>2017-04-30T07:27:06.000Z</time>
      </trkpt>
      <trkpt lat="44.2287" lon="0.69972">
        <ele>172</ele>
        <time>2017-04-30T07:27:07.000Z</time>
      </trkpt>
      <trkpt lat="44.22871" lon="0.69972">
        <ele>170</ele>
        <time>2017-04-30T07:27:08.000Z</time>
      </trkpt>
      <trkpt lat="44.22874" lon="0.69974">
        <ele>169</ele>
        <time>2017-04-30T07:27:09.000Z</time>
      </trkpt>
      <trkpt lat="44.22877" lon="0.69976">
        <ele>167</ele>
        <time>2017-04-30T07:27:10.000Z</time>
      </trkpt>
      <trkpt lat="44.22879" lon="0.69978">
        <ele>165</ele>
        <time>2017-04-30T07:27:11.000Z</time>
      </trkpt>
      <trkpt lat="44.22882" lon="0.6998">
        <ele>164</ele>
        <time>2017-04-30T07:27:12.000Z</time>
      </trkpt>
      <trkpt lat="44.22886" lon="0.69982">
        <ele>163</ele>
        <time>2017-04-30T07:27:13.000Z</time>
      </trkpt>
      <trkpt lat="44.22888" lon="0.69982">
        <ele>161</ele>
        <time>2017-04-30T07:27:14.000Z</time>
      </trkpt>
      <trkpt lat="44.22891" lon="0.69983">
        <ele>160</ele>
        <time>2017-04-30T07:27:15.000Z</time>
      </trkpt>
      <trkpt lat="44.22894" lon="0.69985">
        <ele>160</ele>
        <time>2017-04-30T07:27:16.000Z</time>
      </trkpt>
      <trkpt lat="44.22897" lon="0.69986">
        <ele>160</ele>
        <time>2017-04-30T07:27:17.000Z</time>
      </trkpt>
      <trkpt lat="44.229" lon="0.69987">
        <ele>158</ele>
        <time>2017-04-30T07:27:18.000Z</time>
      </trkpt>
      <trkpt lat="44.22903" lon="0.69988">
        <ele>157</ele>
        <time>2017-04-30T07:27:19.000Z</time>
      </trkpt>
      <trkpt lat="44.22906" lon="0.6999">
        <ele>156</ele>
        <time>2017-04-30T07:27:20.000Z</time>
      </trkpt>
      <trkpt lat="44.22909" lon="0.69992">
        <ele>154</ele>
        <time>2017-04-30T07:27:21.000Z</time>
      </trkpt>
      <trkpt lat="44.22912" lon="0.69993">
        <ele>153</ele>
        <time>2017-04-30T07:27:22.000Z</time>
      </trkpt>
      <trkpt lat="44.22916" lon="0.69994">
        <ele>150</ele>
        <time>2017-04-30T07:27:23.000Z</time>
      </trkpt>
      <trkpt lat="44.22922" lon="0.69995">
        <ele>149</ele>
        <time>2017-04-30T07:27:24.000Z</time>
      </trkpt>
      <trkpt lat="44.22927" lon="0.69995">
        <ele>145</ele>
        <time>2017-04-30T07:27:25.000Z</time>
      </trkpt>
      <trkpt lat="44.22931" lon="0.69995">
        <ele>143</ele>
        <time>2017-04-30T07:27:26.000Z</time>
      </trkpt>
      <trkpt lat="44.22936" lon="0.69994">
        <ele>141</ele>
        <time>2017-04-30T07:27:27.000Z</time>
      </trkpt>
      <trkpt lat="44.2294" lon="0.69993">
        <ele>141</ele>
        <time>2017-04-30T07:27:28.000Z</time>
      </trkpt>
      <trkpt lat="44.22944" lon="0.69991">
        <ele>140</ele>
        <time>2017-04-30T07:27:29.000Z</time>
      </trkpt>
      <trkpt lat="44.22947" lon="0.6999">
        <ele>139</ele>
        <time>2017-04-30T07:27:30.000Z</time>
      </trkpt>
      <trkpt lat="44.22951" lon="0.69989">
        <ele>138</ele>
        <time>2017-04-30T07:27:31.000Z</time>
      </trkpt>
      <trkpt lat="44.22955" lon="0.69987">
        <ele>135</ele>
        <time>2017-04-30T07:27:32.000Z</time>
      </trkpt>
      <trkpt lat="44.2296" lon="0.69987">
        <ele>131</ele>
        <time>2017-04-30T07:27:33.000Z</time>
      </trkpt>
      <trkpt lat="44.22964" lon="0.69987">
        <ele>129</ele>
        <time>2017-04-30T07:27:34.000Z</time>
      </trkpt>
      <trkpt lat="44.22968" lon="0.69987">
        <ele>128</ele>
        <time>2017-04-30T07:27:35.000Z</time>
      </trkpt>
      <trkpt lat="44.22972" lon="0.69988">
        <ele>127</ele>
        <time>2017-04-30T07:27:36.000Z</time>
      </trkpt>
      <trkpt lat="44.22975" lon="0.69988">
        <ele>126</ele>
        <time>2017-04-30T07:27:37.000Z</time>
      </trkpt>
      <trkpt lat="44.22979" lon="0.69989">
        <ele>124</ele>
        <time>2017-04-30T07:27:38.000Z</time>
      </trkpt>
      <trkpt lat="44.22983" lon="0.69989">
        <ele>123</ele>
        <time>2017-04-30T07:27:39.000Z</time>
      </trkpt>
      <trkpt lat="44.22986" lon="0.69989">
        <ele>122</ele>
        <time>2017-04-30T07:27:40.000Z</time>
      </trkpt>
      <trkpt lat="44.22989" lon="0.69987">
        <ele>121</ele>
        <time>2017-04-30T07:27:41.000Z</time>
      </trkpt>
      <trkpt lat="44.22993" lon="0.69985">
        <ele>120</ele>
        <time>2017-04-30T07:27:42.000Z</time>
      </trkpt>
      <trkpt lat="44.22996" lon="0.69978">
        <ele>119</ele>
        <time>2017-04-30T07:27:43.000Z</time>
      </trkpt>
      <trkpt lat="44.23003" lon="0.69977">
        <ele>117</ele>
        <time>2017-04-30T07:27:44.000Z</time>
      </trkpt>
      <trkpt lat="44.23007" lon="0.69975">
        <ele>117</ele>
        <time>2017-04-30T07:27:45.000Z</time>
      </trkpt>
      <trkpt lat="44.23012" lon="0.69972">
        <ele>116</ele>
        <time>2017-04-30T07:27:46.000Z</time>
      </trkpt>
      <trkpt lat="44.23016" lon="0.6997">
        <ele>113</ele>
        <time>2017-04-30T07:27:47.000Z</time>
      </trkpt>
      <trkpt lat="44.2302" lon="0.69968">
        <ele>113</ele>
        <time>2017-04-30T07:27:48.000Z</time>
      </trkpt>
      <trkpt lat="44.23026" lon="0.69966">
        <ele>113</ele>
        <time>2017-04-30T07:27:49.000Z</time>
      </trkpt>
      <trkpt lat="44.23032" lon="0.69964">
        <ele>113</ele>
        <time>2017-04-30T07:27:50.000Z</time>
      </trkpt>
      <trkpt lat="44.23037" lon="0.69961">
        <ele>113</ele>
        <time>2017-04-30T07:27:51.000Z</time>
      </trkpt>
      <trkpt lat="44.23043" lon="0.69959">
        <ele>112</ele>
        <time>2017-04-30T07:27:52.000Z</time>
      </trkpt>
      <trkpt lat="44.23048" lon="0.69956">
        <ele>112</ele>
        <time>2017-04-30T07:27:53.000Z</time>
      </trkpt>
      <trkpt lat="44.23053" lon="0.69953">
        <ele>111</ele>
        <time>2017-04-30T07:27:54.000Z</time>
      </trkpt>
      <trkpt lat="44.23059" lon="0.6995">
        <ele>110</ele>
        <time>2017-04-30T07:27:55.000Z</time>
      </trkpt>
      <trkpt lat="44.23064" lon="0.69947">
        <ele>110</ele>
        <time>2017-04-30T07:27:56.000Z</time>
      </trkpt>
      <trkpt lat="44.23071" lon="0.69942">
        <ele>109</ele>
        <time>2017-04-30T07:27:57.000Z</time>
      </trkpt>
      <trkpt lat="44.23076" lon="0.69938">
        <ele>109</ele>
        <time>2017-04-30T07:27:58.000Z</time>
      </trkpt>
      <trkpt lat="44.23082" lon="0.69934">
        <ele>108</ele>
        <time>2017-04-30T07:27:59.000Z</time>
      </trkpt>
      <trkpt lat="44.23088" lon="0.69931">
        <ele>108</ele>
        <time>2017-04-30T07:28:00.000Z</time>
      </trkpt>
      <trkpt lat="44.23094" lon="0.69927">
        <ele>108</ele>
        <time>2017-04-30T07:28:01.000Z</time>
      </trkpt>
      <trkpt lat="44.23099" lon="0.69924">
        <ele>108</ele>
        <time>2017-04-30T07:28:02.000Z</time>
      </trkpt>
      <trkpt lat="44.23105" lon="0.69919">
        <ele>106</ele>
        <time>2017-04-30T07:28:03.000Z</time>
      </trkpt>
      <trkpt lat="44.23111" lon="0.69914">
        <ele>105</ele>
        <time>2017-04-30T07:28:04.000Z</time>
      </trkpt>
      <trkpt lat="44.23117" lon="0.69909">
        <ele>105</ele>
        <time>2017-04-30T07:28:05.000Z</time>
      </trkpt>
      <trkpt lat="44.23124" lon="0.69904">
        <ele>104</ele>
        <time>2017-04-30T07:28:06.000Z</time>
      </trkpt>
      <trkpt lat="44.23131" lon="0.699">
        <ele>104</ele>
        <time>2017-04-30T07:28:07.000Z</time>
      </trkpt>
      <trkpt lat="44.23139" lon="0.69896">
        <ele>103</ele>
        <time>2017-04-30T07:28:08.000Z</time>
      </trkpt>
      <trkpt lat="44.23146" lon="0.69892">
        <ele>99</ele>
        <time>2017-04-30T07:28:09.000Z</time>
      </trkpt>
      <trkpt lat="44.23153" lon="0.69887">
        <ele>97</ele>
        <time>2017-04-30T07:28:10.000Z</time>
      </trkpt>
      <trkpt lat="44.23162" lon="0.69882">
        <ele>96</ele>
        <time>2017-04-30T07:28:11.000Z</time>
      </trkpt>
      <trkpt lat="44.23169" lon="0.69878">
        <ele>95</ele>
        <time>2017-04-30T07:28:12.000Z</time>
      </trkpt>
      <trkpt lat="44.23176" lon="0.69874">
        <ele>94</ele>
        <time>2017-04-30T07:28:13.000Z</time>
      </trkpt>
      <trkpt lat="44.23183" lon="0.6987">
        <ele>94</ele>
        <time>2017-04-30T07:28:14.000Z</time>
      </trkpt>
      <trkpt lat="44.23189" lon="0.69867">
        <ele>93</ele>
        <time>2017-04-30T07:28:15.000Z</time>
      </trkpt>
      <trkpt lat="44.23191" lon="0.69863">
        <ele>93</ele>
        <time>2017-04-30T07:28:16.000Z</time>
      </trkpt>
      <trkpt lat="44.23193" lon="0.69859">
        <ele>92</ele>
        <time>2017-04-30T07:28:17.000Z</time>
      </trkpt>
      <trkpt lat="44.23196" lon="0.69855">
        <ele>92</ele>
        <time>2017-04-30T07:28:18.000Z</time>
      </trkpt>
      <trkpt lat="44.23193" lon="0.69846">
        <ele>93</ele>
        <time>2017-04-30T07:28:19.000Z</time>
      </trkpt>
      <trkpt lat="44.23194" lon="0.6984">
        <ele>93</ele>
        <time>2017-04-30T07:28:20.000Z</time>
      </trkpt>
      <trkpt lat="44.23193" lon="0.69834">
        <ele>90</ele>
        <time>2017-04-30T07:28:21.000Z</time>
      </trkpt>
      <trkpt lat="44.23194" lon="0.69826">
        <ele>89</ele>
        <time>2017-04-30T07:28:22.000Z</time>
      </trkpt>
      <trkpt lat="44.23198" lon="0.6982">
        <ele>89</ele>
        <time>2017-04-30T07:28:23.000Z</time>
      </trkpt>
      <trkpt lat="44.23202" lon="0.69814">
        <ele>90</ele>
        <time>2017-04-30T07:28:24.000Z</time>
      </trkpt>
      <trkpt lat="44.23208" lon="0.69811">
        <ele>93</ele>
        <time>2017-04-30T07:28:25.000Z</time>
      </trkpt>
      <trkpt lat="44.23213" lon="0.69808">
        <ele>94</ele>
        <time>2017-04-30T07:28:26.000Z</time>
      </trkpt>
      <trkpt lat="44.23219" lon="0.69805">
        <ele>93</ele>
        <time>2017-04-30T07:28:27.000Z</time>
      </trkpt>
      <trkpt lat="44.23224" lon="0.69803">
        <ele>94</ele>
        <time>2017-04-30T07:28:28.000Z</time>
      </trkpt>
      <trkpt lat="44.23229" lon="0.698">
        <ele>94</ele>
        <time>2017-04-30T07:28:29.000Z</time>
      </trkpt>
      <trkpt lat="44.23234" lon="0.69798">
        <ele>95</ele>
        <time>2017-04-30T07:28:30.000Z</time>
      </trkpt>
      <trkpt lat="44.23239" lon="0.69798">
        <ele>95</ele>
        <time>2017-04-30T07:28:31.000Z</time>
      </trkpt>
      <trkpt lat="44.23244" lon="0.69798">
        <ele>96</ele>
        <time>2017-04-30T07:28:32.000Z</time>
      </trkpt>
      <trkpt lat="44.23249" lon="0.69801">
        <ele>96</ele>
        <time>2017-04-30T07:28:33.000Z</time>
      </trkpt>
      <trkpt lat="44.23255" lon="0.69804">
        <ele>94</ele>
        <time>2017-04-30T07:28:34.000Z</time>
      </trkpt>
      <trkpt lat="44.23261" lon="0.69807">
        <ele>93</ele>
        <time>2017-04-30T07:28:35.000Z</time>
      </trkpt>
      <trkpt lat="44.23267" lon="0.69809">
        <ele>92</ele>
        <time>2017-04-30T07:28:36.000Z</time>
      </trkpt>
      <trkpt lat="44.23274" lon="0.69809">
        <ele>90</ele>
        <time>2017-04-30T07:28:37.000Z</time>
      </trkpt>
      <trkpt lat="44.23281" lon="0.6981">
        <ele>87</ele>
        <time>2017-04-30T07:28:38.000Z</time>
      </trkpt>
      <trkpt lat="44.23288" lon="0.69811">
        <ele>87</ele>
        <time>2017-04-30T07:28:39.000Z</time>
      </trkpt>
      <trkpt lat="44.23296" lon="0.69812">
        <ele>87</ele>
        <time>2017-04-30T07:28:40.000Z</time>
      </trkpt>
      <trkpt lat="44.23304" lon="0.69812">
        <ele>86</ele>
        <time>2017-04-30T07:28:41.000Z</time>
      </trkpt>
      <trkpt lat="44.23312" lon="0.69812">
        <ele>85</ele>
        <time>2017-04-30T07:28:42.000Z</time>
      </trkpt>
      <trkpt lat="44.23321" lon="0.69811">
        <ele>84</ele>
        <time>2017-04-30T07:28:43.000Z</time>
      </trkpt>
      <trkpt lat="44.2333" lon="0.69807">
        <ele>83</ele>
        <time>2017-04-30T07:28:44.000Z</time>
      </trkpt>
      <trkpt lat="44.23338" lon="0.69802">
        <ele>81</ele>
        <time>2017-04-30T07:28:45.000Z</time>
      </trkpt>
      <trkpt lat="44.23347" lon="0.69796">
        <ele>80</ele>
        <time>2017-04-30T07:28:46.000Z</time>
      </trkpt>
      <trkpt lat="44.23354" lon="0.6979">
        <ele>80</ele>
        <time>2017-04-30T07:28:47.000Z</time>
      </trkpt>
      <trkpt lat="44.23362" lon="0.69783">
        <ele>80</ele>
        <time>2017-04-30T07:28:48.000Z</time>
      </trkpt>
      <trkpt lat="44.23369" lon="0.69776">
        <ele>79</ele>
        <time>2017-04-30T07:28:49.000Z</time>
      </trkpt>
      <trkpt lat="44.23377" lon="0.69769">
        <ele>79</ele>
        <time>2017-04-30T07:28:50.000Z</time>
      </trkpt>
      <trkpt lat="44.23384" lon="0.69761">
        <ele>78</ele>
        <time>2017-04-30T07:28:51.000Z</time>
      </trkpt>
      <trkpt lat="44.2339" lon="0.69753">
        <ele>78</ele>
        <time>2017-04-30T07:28:52.000Z</time>
      </trkpt>
      <trkpt lat="44.23397" lon="0.69746">
        <ele>77</ele>
        <time>2017-04-30T07:28:53.000Z</time>
      </trkpt>
      <trkpt lat="44.23403" lon="0.69738">
        <ele>78</ele>
        <time>2017-04-30T07:28:54.000Z</time>
      </trkpt>
      <trkpt lat="44.23409" lon="0.6973">
        <ele>78</ele>
        <time>2017-04-30T07:28:55.000Z</time>
      </trkpt>
      <trkpt lat="44.23416" lon="0.69723">
        <ele>78</ele>
        <time>2017-04-30T07:28:56.000Z</time>
      </trkpt>
      <trkpt lat="44.23422" lon="0.69715">
        <ele>78</ele>
        <time>2017-04-30T07:28:57.000Z</time>
      </trkpt>
      <trkpt lat="44.23429" lon="0.69708">
        <ele>78</ele>
        <time>2017-04-30T07:28:58.000Z</time>
      </trkpt>
      <trkpt lat="44.23436" lon="0.69701">
        <ele>77</ele>
        <time>2017-04-30T07:28:59.000Z</time>
      </trkpt>
      <trkpt lat="44.23442" lon="0.69694">
        <ele>77</ele>
        <time>2017-04-30T07:29:00.000Z</time>
      </trkpt>
      <trkpt lat="44.23449" lon="0.69687">
        <ele>77</ele>
        <time>2017-04-30T07:29:01.000Z</time>
      </trkpt>
      <trkpt lat="44.23455" lon="0.6968">
        <ele>77</ele>
        <time>2017-04-30T07:29:02.000Z</time>
      </trkpt>
      <trkpt lat="44.23462" lon="0.69674">
        <ele>77</ele>
        <time>2017-04-30T07:29:03.000Z</time>
      </trkpt>
      <trkpt lat="44.23468" lon="0.69667">
        <ele>76</ele>
        <time>2017-04-30T07:29:04.000Z</time>
      </trkpt>
      <trkpt lat="44.23474" lon="0.6966">
        <ele>76</ele>
        <time>2017-04-30T07:29:05.000Z</time>
      </trkpt>
      <trkpt lat="44.2348" lon="0.69654">
        <ele>75</ele>
        <time>2017-04-30T07:29:06.000Z</time>
      </trkpt>
      <trkpt lat="44.23485" lon="0.69648">
        <ele>75</ele>
        <time>2017-04-30T07:29:07.000Z</time>
      </trkpt>
      <trkpt lat="44.2349" lon="0.69646">
        <ele>77</ele>
        <time>2017-04-30T07:29:08.000Z</time>
      </trkpt>
      <trkpt lat="44.23492" lon="0.69649">
        <ele>77</ele>
        <time>2017-04-30T07:29:09.000Z</time>
      </trkpt>
      <trkpt lat="44.23494" lon="0.69654">
        <ele>80</ele>
        <time>2017-04-30T07:29:10.000Z</time>
      </trkpt>
      <trkpt lat="44.23495" lon="0.69658">
        <ele>79</ele>
        <time>2017-04-30T07:29:11.000Z</time>
      </trkpt>
      <trkpt lat="44.23496" lon="0.69663">
        <ele>79</ele>
        <time>2017-04-30T07:29:12.000Z</time>
      </trkpt>
      <trkpt lat="44.23498" lon="0.69667">
        <ele>78</ele>
        <time>2017-04-30T07:29:13.000Z</time>
      </trkpt>
      <trkpt lat="44.235" lon="0.69672">
        <ele>78</ele>
        <time>2017-04-30T07:29:14.000Z</time>
      </trkpt>
      <trkpt lat="44.23502" lon="0.69678">
        <ele>78</ele>
        <time>2017-04-30T07:29:15.000Z</time>
      </trkpt>
      <trkpt lat="44.23504" lon="0.69683">
        <ele>78</ele>
        <time>2017-04-30T07:29:16.000Z</time>
      </trkpt>
      <trkpt lat="44.23506" lon="0.69688">
        <ele>78</ele>
        <time>2017-04-30T07:29:17.000Z</time>
      </trkpt>
      <trkpt lat="44.23508" lon="0.69693">
        <ele>78</ele>
        <time>2017-04-30T07:29:18.000Z</time>
      </trkpt>
      <trkpt lat="44.2351" lon="0.69698">
        <ele>78</ele>
        <time>2017-04-30T07:29:19.000Z</time>
      </trkpt>
      <trkpt lat="44.23512" lon="0.69703">
        <ele>78</ele>
        <time>2017-04-30T07:29:20.000Z</time>
      </trkpt>
      <trkpt lat="44.23514" lon="0.69708">
        <ele>78</ele>
        <time>2017-04-30T07:29:21.000Z</time>
      </trkpt>
      <trkpt lat="44.23516" lon="0.69713">
        <ele>78</ele>
        <time>2017-04-30T07:29:22.000Z</time>
      </trkpt>
      <trkpt lat="44.23518" lon="0.69717">
        <ele>78</ele>
        <time>2017-04-30T07:29:23.000Z</time>
      </trkpt>
      <trkpt lat="44.23519" lon="0.69721">
        <ele>79</ele>
        <time>2017-04-30T07:29:24.000Z</time>
      </trkpt>
      <trkpt lat="44.23521" lon="0.69725">
        <ele>79</ele>
        <time>2017-04-30T07:29:25.000Z</time>
      </trkpt>
      <trkpt lat="44.23522" lon="0.69729">
        <ele>79</ele>
        <time>2017-04-30T07:29:26.000Z</time>
      </trkpt>
      <trkpt lat="44.23524" lon="0.69732">
        <ele>79</ele>
        <time>2017-04-30T07:29:27.000Z</time>
      </trkpt>
      <trkpt lat="44.23525" lon="0.69736">
        <ele>80</ele>
        <time>2017-04-30T07:29:28.000Z</time>
      </trkpt>
      <trkpt lat="44.23527" lon="0.69739">
        <ele>80</ele>
        <time>2017-04-30T07:29:29.000Z</time>
      </trkpt>
      <trkpt lat="44.23528" lon="0.69743">
        <ele>80</ele>
        <time>2017-04-30T07:29:30.000Z</time>
      </trkpt>
      <trkpt lat="44.23529" lon="0.69746">
        <ele>81</ele>
        <time>2017-04-30T07:29:31.000Z</time>
      </trkpt>
      <trkpt lat="44.23531" lon="0.6975">
        <ele>81</ele>
        <time>2017-04-30T07:29:32.000Z</time>
      </trkpt>
      <trkpt lat="44.23532" lon="0.69753">
        <ele>81</ele>
        <time>2017-04-30T07:29:33.000Z</time>
      </trkpt>
      <trkpt lat="44.23533" lon="0.69756">
        <ele>82</ele>
        <time>2017-04-30T07:29:34.000Z</time>
      </trkpt>
      <trkpt lat="44.23534" lon="0.69759">
        <ele>82</ele>
        <time>2017-04-30T07:29:35.000Z</time>
      </trkpt>
      <trkpt lat="44.23536" lon="0.69763">
        <ele>82</ele>
        <time>2017-04-30T07:29:36.000Z</time>
      </trkpt>
      <trkpt lat="44.23537" lon="0.69766">
        <ele>82</ele>
        <time>2017-04-30T07:29:37.000Z</time>
      </trkpt>
      <trkpt lat="44.23538" lon="0.69769">
        <ele>83</ele>
        <time>2017-04-30T07:29:38.000Z</time>
      </trkpt>
      <trkpt lat="44.23539" lon="0.69772">
        <ele>83</ele>
        <time>2017-04-30T07:29:39.000Z</time>
      </trkpt>
      <trkpt lat="44.2354" lon="0.69776">
        <ele>83</ele>
        <time>2017-04-30T07:29:40.000Z</time>
      </trkpt>
      <trkpt lat="44.23541" lon="0.69779">
        <ele>84</ele>
        <time>2017-04-30T07:29:41.000Z</time>
      </trkpt>
      <trkpt lat="44.23542" lon="0.69782">
        <ele>84</ele>
        <time>2017-04-30T07:29:42.000Z</time>
      </trkpt>
      <trkpt lat="44.23542" lon="0.69786">
        <ele>85</ele>
        <time>2017-04-30T07:29:43.000Z</time>
      </trkpt>
      <trkpt lat="44.23543" lon="0.69789">
        <ele>85</ele>
        <time>2017-04-30T07:29:44.000Z</time>
      </trkpt>
      <trkpt lat="44.23544" lon="0.69793">
        <ele>85</ele>
        <time>2017-04-30T07:29:45.000Z</time>
      </trkpt>
      <trkpt lat="44.23545" lon="0.69796">
        <ele>85</ele>
        <time>2017-04-30T07:29:46.000Z</time>
      </trkpt>
      <trkpt lat="44.23546" lon="0.698">
        <ele>86</ele>
        <time>2017-04-30T07:29:47.000Z</time>
      </trkpt>
      <trkpt lat="44.23547" lon="0.69803">
        <ele>86</ele>
        <time>2017-04-30T07:29:48.000Z</time>
      </trkpt>
      <trkpt lat="44.23547" lon="0.69806">
        <ele>87</ele>
        <time>2017-04-30T07:29:49.000Z</time>
      </trkpt>
      <trkpt lat="44.23548" lon="0.69809">
        <ele>87</ele>
        <time>2017-04-30T07:29:50.000Z</time>
      </trkpt>
      <trkpt lat="44.23548" lon="0.69812">
        <ele>88</ele>
        <time>2017-04-30T07:29:51.000Z</time>
      </trkpt>
      <trkpt lat="44.23549" lon="0.69815">
        <ele>88</ele>
        <time>2017-04-30T07:29:52.000Z</time>
      </trkpt>
      <trkpt lat="44.23549" lon="0.69819">
        <ele>88</ele>
        <time>2017-04-30T07:29:53.000Z</time>
      </trkpt>
      <trkpt lat="44.2355" lon="0.69822">
        <ele>88</ele>
        <time>2017-04-30T07:29:54.000Z</time>
      </trkpt>
      <trkpt lat="44.2355" lon="0.69826">
        <ele>89</ele>
        <time>2017-04-30T07:29:55.000Z</time>
      </trkpt>
      <trkpt lat="44.2355" lon="0.6983">
        <ele>89</ele>
        <time>2017-04-30T07:29:56.000Z</time>
      </trkpt>
      <trkpt lat="44.23551" lon="0.69833">
        <ele>89</ele>
        <time>2017-04-30T07:29:57.000Z</time>
      </trkpt>
      <trkpt lat="44.23551" lon="0.69837">
        <ele>89</ele>
        <time>2017-04-30T07:29:58.000Z</time>
      </trkpt>
      <trkpt lat="44.23552" lon="0.69841">
        <ele>90</ele>
        <time>2017-04-30T07:29:59.000Z</time>
      </trkpt>
      <trkpt lat="44.23552" lon="0.69845">
        <ele>89</ele>
        <time>2017-04-30T07:30:00.000Z</time>
      </trkpt>
      <trkpt lat="44.23552" lon="0.69849">
        <ele>90</ele>
        <time>2017-04-30T07:30:01.000Z</time>
      </trkpt>
      <trkpt lat="44.23552" lon="0.69853">
        <ele>90</ele>
        <time>2017-04-30T07:30:02.000Z</time>
      </trkpt>
      <trkpt lat="44.23552" lon="0.69857">
        <ele>90</ele>
        <time>2017-04-30T07:30:03.000Z</time>
      </trkpt>
      <trkpt lat="44.23552" lon="0.69861">
        <ele>90</ele>
        <time>2017-04-30T07:30:04.000Z</time>
      </trkpt>
      <trkpt lat="44.23552" lon="0.69864">
        <ele>90</ele>
        <time>2017-04-30T07:30:05.000Z</time>
      </trkpt>
      <trkpt lat="44.23552" lon="0.69868">
        <ele>90</ele>
        <time>2017-04-30T07:30:06.000Z</time>
      </trkpt>
      <trkpt lat="44.23552" lon="0.69872">
        <ele>90</ele>
        <time>2017-04-30T07:30:07.000Z</time>
      </trkpt>
      <trkpt lat="44.23552" lon="0.69876">
        <ele>91</ele>
        <time>2017-04-30T07:30:08.000Z</time>
      </trkpt>
      <trkpt lat="44.23552" lon="0.6988">
        <ele>91</ele>
        <time>2017-04-30T07:30:09.000Z</time>
      </trkpt>
      <trkpt lat="44.23552" lon="0.69884">
        <ele>91</ele>
        <time>2017-04-30T07:30:10.000Z</time>
      </trkpt>
      <trkpt lat="44.23552" lon="0.69888">
        <ele>92</ele>
        <time>2017-04-30T07:30:11.000Z</time>
      </trkpt>
      <trkpt lat="44.23552" lon="0.69891">
        <ele>92</ele>
        <time>2017-04-30T07:30:12.000Z</time>
      </trkpt>
      <trkpt lat="44.23552" lon="0.69895">
        <ele>93</ele>
        <time>2017-04-30T07:30:13.000Z</time>
      </trkpt>
      <trkpt lat="44.23552" lon="0.69899">
        <ele>93</ele>
        <time>2017-04-30T07:30:14.000Z</time>
      </trkpt>
      <trkpt lat="44.23551" lon="0.69902">
        <ele>92</ele>
        <time>2017-04-30T07:30:15.000Z</time>
      </trkpt>
      <trkpt lat="44.23551" lon="0.69906">
        <ele>92</ele>
        <time>2017-04-30T07:30:16.000Z</time>
      </trkpt>
      <trkpt lat="44.23551" lon="0.6991">
        <ele>93</ele>
        <time>2017-04-30T07:30:17.000Z</time>
      </trkpt>
      <trkpt lat="44.23551" lon="0.69913">
        <ele>93</ele>
        <time>2017-04-30T07:30:18.000Z</time>
      </trkpt>
      <trkpt lat="44.23551" lon="0.69917">
        <ele>93</ele>
        <time>2017-04-30T07:30:19.000Z</time>
      </trkpt>
      <trkpt lat="44.23551" lon="0.6992">
        <ele>94</ele>
        <time>2017-04-30T07:30:20.000Z</time>
      </trkpt>
      <trkpt lat="44.2355" lon="0.69923">
        <ele>94</ele>
        <time>2017-04-30T07:30:21.000Z</time>
      </trkpt>
      <trkpt lat="44.2355" lon="0.69927">
        <ele>94</ele>
        <time>2017-04-30T07:30:22.000Z</time>
      </trkpt>
      <trkpt lat="44.2355" lon="0.6993">
        <ele>94</ele>
        <time>2017-04-30T07:30:23.000Z</time>
      </trkpt>
      <trkpt lat="44.2355" lon="0.69934">
        <ele>94</ele>
        <time>2017-04-30T07:30:24.000Z</time>
      </trkpt>
      <trkpt lat="44.2355" lon="0.69937">
        <ele>94</ele>
        <time>2017-04-30T07:30:25.000Z</time>
      </trkpt>
      <trkpt lat="44.2355" lon="0.69941">
        <ele>95</ele>
        <time>2017-04-30T07:30:26.000Z</time>
      </trkpt>
      <trkpt lat="44.2355" lon="0.69945">
        <ele>95</ele>
        <time>2017-04-30T07:30:27.000Z</time>
      </trkpt>
      <trkpt lat="44.2355" lon="0.69948">
        <ele>95</ele>
        <time>2017-04-30T07:30:28.000Z</time>
      </trkpt>
      <trkpt lat="44.2355" lon="0.69952">
        <ele>96</ele>
        <time>2017-04-30T07:30:29.000Z</time>
      </trkpt>
      <trkpt lat="44.2355" lon="0.69955">
        <ele>96</ele>
        <time>2017-04-30T07:30:30.000Z</time>
      </trkpt>
      <trkpt lat="44.2355" lon="0.69959">
        <ele>97</ele>
        <time>2017-04-30T07:30:31.000Z</time>
      </trkpt>
      <trkpt lat="44.2355" lon="0.69963">
        <ele>97</ele>
        <time>2017-04-30T07:30:32.000Z</time>
      </trkpt>
      <trkpt lat="44.2355" lon="0.69966">
        <ele>98</ele>
        <time>2017-04-30T07:30:33.000Z</time>
      </trkpt>
      <trkpt lat="44.23549" lon="0.6997">
        <ele>98</ele>
        <time>2017-04-30T07:30:34.000Z</time>
      </trkpt>
      <trkpt lat="44.23549" lon="0.69973">
        <ele>98</ele>
        <time>2017-04-30T07:30:35.000Z</time>
      </trkpt>
      <trkpt lat="44.2355" lon="0.69977">
        <ele>98</ele>
        <time>2017-04-30T07:30:36.000Z</time>
      </trkpt>
      <trkpt lat="44.2355" lon="0.6998">
        <ele>98</ele>
        <time>2017-04-30T07:30:37.000Z</time>
      </trkpt>
      <trkpt lat="44.2355" lon="0.69984">
        <ele>98</ele>
        <time>2017-04-30T07:30:38.000Z</time>
      </trkpt>
      <trkpt lat="44.2355" lon="0.69987">
        <ele>99</ele>
        <time>2017-04-30T07:30:39.000Z</time>
      </trkpt>
      <trkpt lat="44.2355" lon="0.6999">
        <ele>99</ele>
        <time>2017-04-30T07:30:40.000Z</time>
      </trkpt>
      <trkpt lat="44.2355" lon="0.69994">
        <ele>99</ele>
        <time>2017-04-30T07:30:41.000Z</time>
      </trkpt>
      <trkpt lat="44.2355" lon="0.69997">
        <ele>99</ele>
        <time>2017-04-30T07:30:42.000Z</time>
      </trkpt>
      <trkpt lat="44.23551" lon="0.69998">
        <ele>101</ele>
        <time>2017-04-30T07:30:43.000Z</time>
      </trkpt>
      <trkpt lat="44.23552" lon="0.70001">
        <ele>101</ele>
        <time>2017-04-30T07:30:44.000Z</time>
      </trkpt>
      <trkpt lat="44.23553" lon="0.70002">
        <ele>101</ele>
        <time>2017-04-30T07:30:45.000Z</time>
      </trkpt>
      <trkpt lat="44.23556" lon="0.70004">
        <ele>101</ele>
        <time>2017-04-30T07:30:46.000Z</time>
      </trkpt>
      <trkpt lat="44.23559" lon="0.70007">
        <ele>101</ele>
        <time>2017-04-30T07:30:47.000Z</time>
      </trkpt>
      <trkpt lat="44.23561" lon="0.70008">
        <ele>102</ele>
        <time>2017-04-30T07:30:48.000Z</time>
      </trkpt>
      <trkpt lat="44.23563" lon="0.70011">
        <ele>102</ele>
        <time>2017-04-30T07:30:49.000Z</time>
      </trkpt>
      <trkpt lat="44.23565" lon="0.70012">
        <ele>102</ele>
        <time>2017-04-30T07:30:50.000Z</time>
      </trkpt>
      <trkpt lat="44.23567" lon="0.70014">
        <ele>103</ele>
        <time>2017-04-30T07:30:51.000Z</time>
      </trkpt>
      <trkpt lat="44.23569" lon="0.70017">
        <ele>103</ele>
        <time>2017-04-30T07:30:52.000Z</time>
      </trkpt>
      <trkpt lat="44.23572" lon="0.70019">
        <ele>104</ele>
        <time>2017-04-30T07:30:53.000Z</time>
      </trkpt>
      <trkpt lat="44.23576" lon="0.70024">
        <ele>103</ele>
        <time>2017-04-30T07:30:54.000Z</time>
      </trkpt>
      <trkpt lat="44.23579" lon="0.70027">
        <ele>104</ele>
        <time>2017-04-30T07:30:55.000Z</time>
      </trkpt>
      <trkpt lat="44.23582" lon="0.7003">
        <ele>104</ele>
        <time>2017-04-30T07:30:56.000Z</time>
      </trkpt>
      <trkpt lat="44.23585" lon="0.70033">
        <ele>104</ele>
        <time>2017-04-30T07:30:57.000Z</time>
      </trkpt>
      <trkpt lat="44.23588" lon="0.70037">
        <ele>103</ele>
        <time>2017-04-30T07:30:58.000Z</time>
      </trkpt>
      <trkpt lat="44.23591" lon="0.70041">
        <ele>103</ele>
        <time>2017-04-30T07:30:59.000Z</time>
      </trkpt>
      <trkpt lat="44.23595" lon="0.70046">
        <ele>103</ele>
        <time>2017-04-30T07:31:00.000Z</time>
      </trkpt>
      <trkpt lat="44.23601" lon="0.70053">
        <ele>101</ele>
        <time>2017-04-30T07:31:01.000Z</time>
      </trkpt>
      <trkpt lat="44.23609" lon="0.70062">
        <ele>98</ele>
        <time>2017-04-30T07:31:02.000Z</time>
      </trkpt>
      <trkpt lat="44.23616" lon="0.7007">
        <ele>97</ele>
        <time>2017-04-30T07:31:03.000Z</time>
      </trkpt>
      <trkpt lat="44.23621" lon="0.70076">
        <ele>97</ele>
        <time>2017-04-30T07:31:04.000Z</time>
      </trkpt>
      <trkpt lat="44.23627" lon="0.70082">
        <ele>96</ele>
        <time>2017-04-30T07:31:05.000Z</time>
      </trkpt>
      <trkpt lat="44.23633" lon="0.70087">
        <ele>95</ele>
        <time>2017-04-30T07:31:06.000Z</time>
      </trkpt>
      <trkpt lat="44.23638" lon="0.70092">
        <ele>94</ele>
        <time>2017-04-30T07:31:07.000Z</time>
      </trkpt>
      <trkpt lat="44.23644" lon="0.70098">
        <ele>93</ele>
        <time>2017-04-30T07:31:08.000Z</time>
      </trkpt>
      <trkpt lat="44.2365" lon="0.70105">
        <ele>92</ele>
        <time>2017-04-30T07:31:09.000Z</time>
      </trkpt>
      <trkpt lat="44.23656" lon="0.70111">
        <ele>90</ele>
        <time>2017-04-30T07:31:10.000Z</time>
      </trkpt>
      <trkpt lat="44.23661" lon="0.70117">
        <ele>89</ele>
        <time>2017-04-30T07:31:11.000Z</time>
      </trkpt>
      <trkpt lat="44.23666" lon="0.70125">
        <ele>88</ele>
        <time>2017-04-30T07:31:12.000Z</time>
      </trkpt>
      <trkpt lat="44.2367" lon="0.70134">
        <ele>89</ele>
        <time>2017-04-30T07:31:13.000Z</time>
      </trkpt>
      <trkpt lat="44.23674" lon="0.70142">
        <ele>89</ele>
        <time>2017-04-30T07:31:14.000Z</time>
      </trkpt>
      <trkpt lat="44.23676" lon="0.70147">
        <ele>90</ele>
        <time>2017-04-30T07:31:15.000Z</time>
      </trkpt>
      <trkpt lat="44.23679" lon="0.70153">
        <ele>90</ele>
        <time>2017-04-30T07:31:16.000Z</time>
      </trkpt>
      <trkpt lat="44.23682" lon="0.70158">
        <ele>91</ele>
        <time>2017-04-30T07:31:17.000Z</time>
      </trkpt>
      <trkpt lat="44.23684" lon="0.70163">
        <ele>91</ele>
        <time>2017-04-30T07:31:18.000Z</time>
      </trkpt>
      <trkpt lat="44.23687" lon="0.70167">
        <ele>91</ele>
        <time>2017-04-30T07:31:19.000Z</time>
      </trkpt>
      <trkpt lat="44.2369" lon="0.70172">
        <ele>91</ele>
        <time>2017-04-30T07:31:20.000Z</time>
      </trkpt>
      <trkpt lat="44.23692" lon="0.70174">
        <ele>92</ele>
        <time>2017-04-30T07:31:21.000Z</time>
      </trkpt>
      <trkpt lat="44.23695" lon="0.70176">
        <ele>92</ele>
        <time>2017-04-30T07:31:22.000Z</time>
      </trkpt>
      <trkpt lat="44.23698" lon="0.70176">
        <ele>92</ele>
        <time>2017-04-30T07:31:23.000Z</time>
      </trkpt>
      <trkpt lat="44.23701" lon="0.70178">
        <ele>92</ele>
        <time>2017-04-30T07:31:24.000Z</time>
      </trkpt>
      <trkpt lat="44.23704" lon="0.70179">
        <ele>93</ele>
        <time>2017-04-30T07:31:25.000Z</time>
      </trkpt>
      <trkpt lat="44.23708" lon="0.70183">
        <ele>94</ele>
        <time>2017-04-30T07:31:26.000Z</time>
      </trkpt>
      <trkpt lat="44.23711" lon="0.70186">
        <ele>95</ele>
        <time>2017-04-30T07:31:27.000Z</time>
      </trkpt>
      <trkpt lat="44.23714" lon="0.7019">
        <ele>96</ele>
        <time>2017-04-30T07:31:28.000Z</time>
      </trkpt>
      <trkpt lat="44.23718" lon="0.70196">
        <ele>96</ele>
        <time>2017-04-30T07:31:29.000Z</time>
      </trkpt>
      <trkpt lat="44.23721" lon="0.70202">
        <ele>97</ele>
        <time>2017-04-30T07:31:30.000Z</time>
      </trkpt>
      <trkpt lat="44.23723" lon="0.70206">
        <ele>97</ele>
        <time>2017-04-30T07:31:31.000Z</time>
      </trkpt>
      <trkpt lat="44.23727" lon="0.70212">
        <ele>98</ele>
        <time>2017-04-30T07:31:32.000Z</time>
      </trkpt>
      <trkpt lat="44.2373" lon="0.70218">
        <ele>98</ele>
        <time>2017-04-30T07:31:33.000Z</time>
      </trkpt>
      <trkpt lat="44.23733" lon="0.70225">
        <ele>98</ele>
        <time>2017-04-30T07:31:34.000Z</time>
      </trkpt>
      <trkpt lat="44.23738" lon="0.70233">
        <ele>99</ele>
        <time>2017-04-30T07:31:35.000Z</time>
      </trkpt>
      <trkpt lat="44.23741" lon="0.70239">
        <ele>99</ele>
        <time>2017-04-30T07:31:36.000Z</time>
      </trkpt>
      <trkpt lat="44.23745" lon="0.70243">
        <ele>98</ele>
        <time>2017-04-30T07:31:37.000Z</time>
      </trkpt>
      <trkpt lat="44.23749" lon="0.70247">
        <ele>100</ele>
        <time>2017-04-30T07:31:38.000Z</time>
      </trkpt>
      <trkpt lat="44.23752" lon="0.70248">
        <ele>96</ele>
        <time>2017-04-30T07:31:39.000Z</time>
      </trkpt>
      <trkpt lat="44.23759" lon="0.70248">
        <ele>97</ele>
        <time>2017-04-30T07:31:40.000Z</time>
      </trkpt>
      <trkpt lat="44.23762" lon="0.70247">
        <ele>99</ele>
        <time>2017-04-30T07:31:41.000Z</time>
      </trkpt>
      <trkpt lat="44.23765" lon="0.70246">
        <ele>97</ele>
        <time>2017-04-30T07:31:42.000Z</time>
      </trkpt>
      <trkpt lat="44.23769" lon="0.70246">
        <ele>97</ele>
        <time>2017-04-30T07:31:43.000Z</time>
      </trkpt>
      <trkpt lat="44.23772" lon="0.70247">
        <ele>95</ele>
        <time>2017-04-30T07:31:44.000Z</time>
      </trkpt>
      <trkpt lat="44.23772" lon="0.70252">
        <ele>98</ele>
        <time>2017-04-30T07:31:45.000Z</time>
      </trkpt>
      <trkpt lat="44.23774" lon="0.70256">
        <ele>99</ele>
        <time>2017-04-30T07:31:46.000Z</time>
      </trkpt>
      <trkpt lat="44.23779" lon="0.70263">
        <ele>98</ele>
        <time>2017-04-30T07:31:47.000Z</time>
      </trkpt>
      <trkpt lat="44.23784" lon="0.70268">
        <ele>92</ele>
        <time>2017-04-30T07:31:48.000Z</time>
      </trkpt>
      <trkpt lat="44.23787" lon="0.70272">
        <ele>92</ele>
        <time>2017-04-30T07:31:49.000Z</time>
      </trkpt>
      <trkpt lat="44.2379" lon="0.70276">
        <ele>92</ele>
        <time>2017-04-30T07:31:50.000Z</time>
      </trkpt>
      <trkpt lat="44.23793" lon="0.70279">
        <ele>91</ele>
        <time>2017-04-30T07:31:51.000Z</time>
      </trkpt>
      <trkpt lat="44.23797" lon="0.70283">
        <ele>91</ele>
        <time>2017-04-30T07:31:52.000Z</time>
      </trkpt>
      <trkpt lat="44.23801" lon="0.70285">
        <ele>90</ele>
        <time>2017-04-30T07:31:53.000Z</time>
      </trkpt>
      <trkpt lat="44.23805" lon="0.70288">
        <ele>90</ele>
        <time>2017-04-30T07:31:54.000Z</time>
      </trkpt>
      <trkpt lat="44.2381" lon="0.70287">
        <ele>92</ele>
        <time>2017-04-30T07:31:55.000Z</time>
      </trkpt>
      <trkpt lat="44.23812" lon="0.70284">
        <ele>91</ele>
        <time>2017-04-30T07:31:56.000Z</time>
      </trkpt>
      <trkpt lat="44.23813" lon="0.7028">
        <ele>91</ele>
        <time>2017-04-30T07:31:57.000Z</time>
      </trkpt>
      <trkpt lat="44.23816" lon="0.70277">
        <ele>91</ele>
        <time>2017-04-30T07:31:58.000Z</time>
      </trkpt>
      <trkpt lat="44.23821" lon="0.70273">
        <ele>88</ele>
        <time>2017-04-30T07:31:59.000Z</time>
      </trkpt>
      <trkpt lat="44.23826" lon="0.70271">
        <ele>84</ele>
        <time>2017-04-30T07:32:00.000Z</time>
      </trkpt>
      <trkpt lat="44.23832" lon="0.7027">
        <ele>84</ele>
        <time>2017-04-30T07:32:01.000Z</time>
      </trkpt>
      <trkpt lat="44.23836" lon="0.70269">
        <ele>83</ele>
        <time>2017-04-30T07:32:02.000Z</time>
      </trkpt>
      <trkpt lat="44.2384" lon="0.7027">
        <ele>81</ele>
        <time>2017-04-30T07:32:03.000Z</time>
      </trkpt>
      <trkpt lat="44.23845" lon="0.70272">
        <ele>81</ele>
        <time>2017-04-30T07:32:04.000Z</time>
      </trkpt>
      <trkpt lat="44.23851" lon="0.70276">
        <ele>81</ele>
        <time>2017-04-30T07:32:05.000Z</time>
      </trkpt>
      <trkpt lat="44.23857" lon="0.70279">
        <ele>82</ele>
        <time>2017-04-30T07:32:06.000Z</time>
      </trkpt>
      <trkpt lat="44.23862" lon="0.70283">
        <ele>81</ele>
        <time>2017-04-30T07:32:07.000Z</time>
      </trkpt>
      <trkpt lat="44.23867" lon="0.70286">
        <ele>81</ele>
        <time>2017-04-30T07:32:08.000Z</time>
      </trkpt>
      <trkpt lat="44.23871" lon="0.7029">
        <ele>81</ele>
        <time>2017-04-30T07:32:09.000Z</time>
      </trkpt>
      <trkpt lat="44.23876" lon="0.70294">
        <ele>81</ele>
        <time>2017-04-30T07:32:10.000Z</time>
      </trkpt>
      <trkpt lat="44.23881" lon="0.70298">
        <ele>82</ele>
        <time>2017-04-30T07:32:11.000Z</time>
      </trkpt>
      <trkpt lat="44.23887" lon="0.70301">
        <ele>82</ele>
        <time>2017-04-30T07:32:12.000Z</time>
      </trkpt>
      <trkpt lat="44.23893" lon="0.70306">
        <ele>83</ele>
        <time>2017-04-30T07:32:13.000Z</time>
      </trkpt>
      <trkpt lat="44.23899" lon="0.7031">
        <ele>82</ele>
        <time>2017-04-30T07:32:14.000Z</time>
      </trkpt>
      <trkpt lat="44.23904" lon="0.70314">
        <ele>82</ele>
        <time>2017-04-30T07:32:15.000Z</time>
      </trkpt>
      <trkpt lat="44.23909" lon="0.70319">
        <ele>82</ele>
        <time>2017-04-30T07:32:16.000Z</time>
      </trkpt>
      <trkpt lat="44.23914" lon="0.70324">
        <ele>82</ele>
        <time>2017-04-30T07:32:17.000Z</time>
      </trkpt>
      <trkpt lat="44.23918" lon="0.70329">
        <ele>82</ele>
        <time>2017-04-30T07:32:18.000Z</time>
      </trkpt>
      <trkpt lat="44.23922" lon="0.70334">
        <ele>82</ele>
        <time>2017-04-30T07:32:19.000Z</time>
      </trkpt>
      <trkpt lat="44.23927" lon="0.7034">
        <ele>82</ele>
        <time>2017-04-30T07:32:20.000Z</time>
      </trkpt>
      <trkpt lat="44.2393" lon="0.70345">
        <ele>82</ele>
        <time>2017-04-30T07:32:21.000Z</time>
      </trkpt>
      <trkpt lat="44.23934" lon="0.7035">
        <ele>82</ele>
        <time>2017-04-30T07:32:22.000Z</time>
      </trkpt>
      <trkpt lat="44.23938" lon="0.70355">
        <ele>83</ele>
        <time>2017-04-30T07:32:23.000Z</time>
      </trkpt>
      <trkpt lat="44.23941" lon="0.70359">
        <ele>83</ele>
        <time>2017-04-30T07:32:24.000Z</time>
      </trkpt>
      <trkpt lat="44.23945" lon="0.70364">
        <ele>83</ele>
        <time>2017-04-30T07:32:25.000Z</time>
      </trkpt>
      <trkpt lat="44.23948" lon="0.70369">
        <ele>84</ele>
        <time>2017-04-30T07:32:26.000Z</time>
      </trkpt>
      <trkpt lat="44.23952" lon="0.70374">
        <ele>85</ele>
        <time>2017-04-30T07:32:27.000Z</time>
      </trkpt>
      <trkpt lat="44.23956" lon="0.70379">
        <ele>85</ele>
        <time>2017-04-30T07:32:28.000Z</time>
      </trkpt>
      <trkpt lat="44.23959" lon="0.70384">
        <ele>85</ele>
        <time>2017-04-30T07:32:29.000Z</time>
      </trkpt>
      <trkpt lat="44.23963" lon="0.70389">
        <ele>86</ele>
        <time>2017-04-30T07:32:30.000Z</time>
      </trkpt>
      <trkpt lat="44.23966" lon="0.70393">
        <ele>86</ele>
        <time>2017-04-30T07:32:31.000Z</time>
      </trkpt>
      <trkpt lat="44.2397" lon="0.70399">
        <ele>86</ele>
        <time>2017-04-30T07:32:32.000Z</time>
      </trkpt>
      <trkpt lat="44.23974" lon="0.70404">
        <ele>86</ele>
        <time>2017-04-30T07:32:33.000Z</time>
      </trkpt>
      <trkpt lat="44.23978" lon="0.7041">
        <ele>86</ele>
        <time>2017-04-30T07:32:34.000Z</time>
      </trkpt>
      <trkpt lat="44.23982" lon="0.70415">
        <ele>86</ele>
        <time>2017-04-30T07:32:35.000Z</time>
      </trkpt>
      <trkpt lat="44.23986" lon="0.7042">
        <ele>87</ele>
        <time>2017-04-30T07:32:36.000Z</time>
      </trkpt>
      <trkpt lat="44.23989" lon="0.70425">
        <ele>88</ele>
        <time>2017-04-30T07:32:37.000Z</time>
      </trkpt>
      <trkpt lat="44.23994" lon="0.70431">
        <ele>88</ele>
        <time>2017-04-30T07:32:38.000Z</time>
      </trkpt>
      <trkpt lat="44.23998" lon="0.70437">
        <ele>89</ele>
        <time>2017-04-30T07:32:39.000Z</time>
      </trkpt>
      <trkpt lat="44.24002" lon="0.70443">
        <ele>90</ele>
        <time>2017-04-30T07:32:40.000Z</time>
      </trkpt>
      <trkpt lat="44.24006" lon="0.70449">
        <ele>90</ele>
        <time>2017-04-30T07:32:41.000Z</time>
      </trkpt>
      <trkpt lat="44.24011" lon="0.70457">
        <ele>90</ele>
        <time>2017-04-30T07:32:42.000Z</time>
      </trkpt>
      <trkpt lat="44.24017" lon="0.70464">
        <ele>88</ele>
        <time>2017-04-30T07:32:43.000Z</time>
      </trkpt>
      <trkpt lat="44.24021" lon="0.70471">
        <ele>88</ele>
        <time>2017-04-30T07:32:44.000Z</time>
      </trkpt>
      <trkpt lat="44.24027" lon="0.70478">
        <ele>88</ele>
        <time>2017-04-30T07:32:45.000Z</time>
      </trkpt>
      <trkpt lat="44.24033" lon="0.70485">
        <ele>88</ele>
        <time>2017-04-30T07:32:46.000Z</time>
      </trkpt>
      <trkpt lat="44.24039" lon="0.70491">
        <ele>88</ele>
        <time>2017-04-30T07:32:47.000Z</time>
      </trkpt>
      <trkpt lat="44.24044" lon="0.70498">
        <ele>87</ele>
        <time>2017-04-30T07:32:48.000Z</time>
      </trkpt>
      <trkpt lat="44.2405" lon="0.70506">
        <ele>86</ele>
        <time>2017-04-30T07:32:49.000Z</time>
      </trkpt>
      <trkpt lat="44.24056" lon="0.70515">
        <ele>86</ele>
        <time>2017-04-30T07:32:50.000Z</time>
      </trkpt>
      <trkpt lat="44.24059" lon="0.70523">
        <ele>85</ele>
        <time>2017-04-30T07:32:51.000Z</time>
      </trkpt>
      <trkpt lat="44.24063" lon="0.70531">
        <ele>85</ele>
        <time>2017-04-30T07:32:52.000Z</time>
      </trkpt>
      <trkpt lat="44.24066" lon="0.7054">
        <ele>85</ele>
        <time>2017-04-30T07:32:53.000Z</time>
      </trkpt>
      <trkpt lat="44.24068" lon="0.70549">
        <ele>84</ele>
        <time>2017-04-30T07:32:54.000Z</time>
      </trkpt>
      <trkpt lat="44.24071" lon="0.70557">
        <ele>84</ele>
        <time>2017-04-30T07:32:55.000Z</time>
      </trkpt>
      <trkpt lat="44.24072" lon="0.70565">
        <ele>84</ele>
        <time>2017-04-30T07:32:56.000Z</time>
      </trkpt>
      <trkpt lat="44.24075" lon="0.70573">
        <ele>84</ele>
        <time>2017-04-30T07:32:57.000Z</time>
      </trkpt>
      <trkpt lat="44.24077" lon="0.7058">
        <ele>85</ele>
        <time>2017-04-30T07:32:58.000Z</time>
      </trkpt>
      <trkpt lat="44.24079" lon="0.70587">
        <ele>85</ele>
        <time>2017-04-30T07:32:59.000Z</time>
      </trkpt>
      <trkpt lat="44.24081" lon="0.70594">
        <ele>86</ele>
        <time>2017-04-30T07:33:00.000Z</time>
      </trkpt>
      <trkpt lat="44.24083" lon="0.70601">
        <ele>86</ele>
        <time>2017-04-30T07:33:01.000Z</time>
      </trkpt>
      <trkpt lat="44.24084" lon="0.70607">
        <ele>86</ele>
        <time>2017-04-30T07:33:02.000Z</time>
      </trkpt>
      <trkpt lat="44.24086" lon="0.70615">
        <ele>86</ele>
        <time>2017-04-30T07:33:03.000Z</time>
      </trkpt>
      <trkpt lat="44.24087" lon="0.70622">
        <ele>86</ele>
        <time>2017-04-30T07:33:04.000Z</time>
      </trkpt>
      <trkpt lat="44.24088" lon="0.70629">
        <ele>86</ele>
        <time>2017-04-30T07:33:05.000Z</time>
      </trkpt>
      <trkpt lat="44.24088" lon="0.70637">
        <ele>85</ele>
        <time>2017-04-30T07:33:06.000Z</time>
      </trkpt>
      <trkpt lat="44.24085" lon="0.70644">
        <ele>85</ele>
        <time>2017-04-30T07:33:07.000Z</time>
      </trkpt>
      <trkpt lat="44.24082" lon="0.70651">
        <ele>85</ele>
        <time>2017-04-30T07:33:08.000Z</time>
      </trkpt>
      <trkpt lat="44.24079" lon="0.70658">
        <ele>85</ele>
        <time>2017-04-30T07:33:09.000Z</time>
      </trkpt>
      <trkpt lat="44.24076" lon="0.70665">
        <ele>85</ele>
        <time>2017-04-30T07:33:10.000Z</time>
      </trkpt>
      <trkpt lat="44.24073" lon="0.70671">
        <ele>85</ele>
        <time>2017-04-30T07:33:11.000Z</time>
      </trkpt>
      <trkpt lat="44.2407" lon="0.70677">
        <ele>85</ele>
        <time>2017-04-30T07:33:12.000Z</time>
      </trkpt>
      <trkpt lat="44.24067" lon="0.70683">
        <ele>85</ele>
        <time>2017-04-30T07:33:13.000Z</time>
      </trkpt>
      <trkpt lat="44.24064" lon="0.70689">
        <ele>85</ele>
        <time>2017-04-30T07:33:14.000Z</time>
      </trkpt>
      <trkpt lat="44.24061" lon="0.70695">
        <ele>85</ele>
        <time>2017-04-30T07:33:15.000Z</time>
      </trkpt>
      <trkpt lat="44.24057" lon="0.70701">
        <ele>85</ele>
        <time>2017-04-30T07:33:16.000Z</time>
      </trkpt>
      <trkpt lat="44.24054" lon="0.70707">
        <ele>85</ele>
        <time>2017-04-30T07:33:17.000Z</time>
      </trkpt>
      <trkpt lat="44.24051" lon="0.70713">
        <ele>85</ele>
        <time>2017-04-30T07:33:18.000Z</time>
      </trkpt>
      <trkpt lat="44.24048" lon="0.70719">
        <ele>85</ele>
        <time>2017-04-30T07:33:19.000Z</time>
      </trkpt>
      <trkpt lat="44.24045" lon="0.70725">
        <ele>85</ele>
        <time>2017-04-30T07:33:20.000Z</time>
      </trkpt>
      <trkpt lat="44.24042" lon="0.70731">
        <ele>85</ele>
        <time>2017-04-30T07:33:21.000Z</time>
      </trkpt>
      <trkpt lat="44.24039" lon="0.70737">
        <ele>85</ele>
        <time>2017-04-30T07:33:22.000Z</time>
      </trkpt>
      <trkpt lat="44.24037" lon="0.70742">
        <ele>85</ele>
        <time>2017-04-30T07:33:23.000Z</time>
      </trkpt>
      <trkpt lat="44.24034" lon="0.70748">
        <ele>85</ele>
        <time>2017-04-30T07:33:24.000Z</time>
      </trkpt>
      <trkpt lat="44.24031" lon="0.70753">
        <ele>85</ele>
        <time>2017-04-30T07:33:25.000Z</time>
      </trkpt>
      <trkpt lat="44.24028" lon="0.70759">
        <ele>85</ele>
        <time>2017-04-30T07:33:26.000Z</time>
      </trkpt>
      <trkpt lat="44.24024" lon="0.70764">
        <ele>86</ele>
        <time>2017-04-30T07:33:27.000Z</time>
      </trkpt>
      <trkpt lat="44.24021" lon="0.70768">
        <ele>86</ele>
        <time>2017-04-30T07:33:28.000Z</time>
      </trkpt>
      <trkpt lat="44.24018" lon="0.70773">
        <ele>86</ele>
        <time>2017-04-30T07:33:29.000Z</time>
      </trkpt>
      <trkpt lat="44.24015" lon="0.70777">
        <ele>85</ele>
        <time>2017-04-30T07:33:30.000Z</time>
      </trkpt>
      <trkpt lat="44.24012" lon="0.70781">
        <ele>85</ele>
        <time>2017-04-30T07:33:31.000Z</time>
      </trkpt>
      <trkpt lat="44.24008" lon="0.70785">
        <ele>85</ele>
        <time>2017-04-30T07:33:32.000Z</time>
      </trkpt>
      <trkpt lat="44.24005" lon="0.70789">
        <ele>85</ele>
        <time>2017-04-30T07:33:33.000Z</time>
      </trkpt>
      <trkpt lat="44.24002" lon="0.70793">
        <ele>84</ele>
        <time>2017-04-30T07:33:34.000Z</time>
      </trkpt>
      <trkpt lat="44.23999" lon="0.70797">
        <ele>84</ele>
        <time>2017-04-30T07:33:35.000Z</time>
      </trkpt>
      <trkpt lat="44.23996" lon="0.70802">
        <ele>84</ele>
        <time>2017-04-30T07:33:36.000Z</time>
      </trkpt>
      <trkpt lat="44.23993" lon="0.70806">
        <ele>84</ele>
        <time>2017-04-30T07:33:37.000Z</time>
      </trkpt>
      <trkpt lat="44.2399" lon="0.70811">
        <ele>84</ele>
        <time>2017-04-30T07:33:38.000Z</time>
      </trkpt>
      <trkpt lat="44.23986" lon="0.70815">
        <ele>84</ele>
        <time>2017-04-30T07:33:39.000Z</time>
      </trkpt>
      <trkpt lat="44.23983" lon="0.7082">
        <ele>84</ele>
        <time>2017-04-30T07:33:40.000Z</time>
      </trkpt>
      <trkpt lat="44.2398" lon="0.70824">
        <ele>85</ele>
        <time>2017-04-30T07:33:41.000Z</time>
      </trkpt>
      <trkpt lat="44.23977" lon="0.70828">
        <ele>86</ele>
        <time>2017-04-30T07:33:42.000Z</time>
      </trkpt>
      <trkpt lat="44.23973" lon="0.70832">
        <ele>86</ele>
        <time>2017-04-30T07:33:43.000Z</time>
      </trkpt>
      <trkpt lat="44.2397" lon="0.70836">
        <ele>86</ele>
        <time>2017-04-30T07:33:44.000Z</time>
      </trkpt>
      <trkpt lat="44.23966" lon="0.7084">
        <ele>86</ele>
        <time>2017-04-30T07:33:45.000Z</time>
      </trkpt>
      <trkpt lat="44.23963" lon="0.70845">
        <ele>86</ele>
        <time>2017-04-30T07:33:46.000Z</time>
      </trkpt>
      <trkpt lat="44.2396" lon="0.70849">
        <ele>86</ele>
        <time>2017-04-30T07:33:47.000Z</time>
      </trkpt>
      <trkpt lat="44.23956" lon="0.70853">
        <ele>86</ele>
        <time>2017-04-30T07:33:48.000Z</time>
      </trkpt>
      <trkpt lat="44.23953" lon="0.70857">
        <ele>86</ele>
        <time>2017-04-30T07:33:49.000Z</time>
      </trkpt>
      <trkpt lat="44.2395" lon="0.70861">
        <ele>86</ele>
        <time>2017-04-30T07:33:50.000Z</time>
      </trkpt>
      <trkpt lat="44.23946" lon="0.70865">
        <ele>86</ele>
        <time>2017-04-30T07:33:51.000Z</time>
      </trkpt>
      <trkpt lat="44.23943" lon="0.70869">
        <ele>86</ele>
        <time>2017-04-30T07:33:52.000Z</time>
      </trkpt>
      <trkpt lat="44.2394" lon="0.70873">
        <ele>86</ele>
        <time>2017-04-30T07:33:53.000Z</time>
      </trkpt>
      <trkpt lat="44.23937" lon="0.70877">
        <ele>86</ele>
        <time>2017-04-30T07:33:54.000Z</time>
      </trkpt>
      <trkpt lat="44.23934" lon="0.7088">
        <ele>86</ele>
        <time>2017-04-30T07:33:55.000Z</time>
      </trkpt>
      <trkpt lat="44.23931" lon="0.70884">
        <ele>86</ele>
        <time>2017-04-30T07:33:56.000Z</time>
      </trkpt>
      <trkpt lat="44.23927" lon="0.70888">
        <ele>86</ele>
        <time>2017-04-30T07:33:57.000Z</time>
      </trkpt>
      <trkpt lat="44.23924" lon="0.70892">
        <ele>86</ele>
        <time>2017-04-30T07:33:58.000Z</time>
      </trkpt>
      <trkpt lat="44.23921" lon="0.70896">
        <ele>87</ele>
        <time>2017-04-30T07:33:59.000Z</time>
      </trkpt>
      <trkpt lat="44.23918" lon="0.709">
        <ele>87</ele>
        <time>2017-04-30T07:34:00.000Z</time>
      </trkpt>
      <trkpt lat="44.23914" lon="0.70904">
        <ele>87</ele>
        <time>2017-04-30T07:34:01.000Z</time>
      </trkpt>
      <trkpt lat="44.23911" lon="0.70907">
        <ele>87</ele>
        <time>2017-04-30T07:34:02.000Z</time>
      </trkpt>
      <trkpt lat="44.23908" lon="0.70911">
        <ele>87</ele>
        <time>2017-04-30T07:34:03.000Z</time>
      </trkpt>
      <trkpt lat="44.23905" lon="0.70915">
        <ele>87</ele>
        <time>2017-04-30T07:34:04.000Z</time>
      </trkpt>
      <trkpt lat="44.23902" lon="0.70919">
        <ele>87</ele>
        <time>2017-04-30T07:34:05.000Z</time>
      </trkpt>
      <trkpt lat="44.23898" lon="0.70923">
        <ele>87</ele>
        <time>2017-04-30T07:34:06.000Z</time>
      </trkpt>
      <trkpt lat="44.23895" lon="0.70926">
        <ele>88</ele>
        <time>2017-04-30T07:34:07.000Z</time>
      </trkpt>
      <trkpt lat="44.23892" lon="0.7093">
        <ele>88</ele>
        <time>2017-04-30T07:34:08.000Z</time>
      </trkpt>
      <trkpt lat="44.23889" lon="0.70934">
        <ele>88</ele>
        <time>2017-04-30T07:34:09.000Z</time>
      </trkpt>
      <trkpt lat="44.23886" lon="0.70938">
        <ele>88</ele>
        <time>2017-04-30T07:34:10.000Z</time>
      </trkpt>
      <trkpt lat="44.23883" lon="0.70941">
        <ele>88</ele>
        <time>2017-04-30T07:34:11.000Z</time>
      </trkpt>
      <trkpt lat="44.23879" lon="0.70945">
        <ele>88</ele>
        <time>2017-04-30T07:34:12.000Z</time>
      </trkpt>
      <trkpt lat="44.23876" lon="0.70949">
        <ele>88</ele>
        <time>2017-04-30T07:34:13.000Z</time>
      </trkpt>
      <trkpt lat="44.23873" lon="0.70953">
        <ele>89</ele>
        <time>2017-04-30T07:34:14.000Z</time>
      </trkpt>
      <trkpt lat="44.2387" lon="0.70957">
        <ele>89</ele>
        <time>2017-04-30T07:34:15.000Z</time>
      </trkpt>
      <trkpt lat="44.23867" lon="0.7096">
        <ele>89</ele>
        <time>2017-04-30T07:34:16.000Z</time>
      </trkpt>
      <trkpt lat="44.23864" lon="0.70964">
        <ele>89</ele>
        <time>2017-04-30T07:34:17.000Z</time>
      </trkpt>
      <trkpt lat="44.23861" lon="0.70968">
        <ele>89</ele>
        <time>2017-04-30T07:34:18.000Z</time>
      </trkpt>
      <trkpt lat="44.23858" lon="0.70971">
        <ele>89</ele>
        <time>2017-04-30T07:34:19.000Z</time>
      </trkpt>
      <trkpt lat="44.23855" lon="0.70975">
        <ele>90</ele>
        <time>2017-04-30T07:34:20.000Z</time>
      </trkpt>
      <trkpt lat="44.23852" lon="0.70979">
        <ele>90</ele>
        <time>2017-04-30T07:34:21.000Z</time>
      </trkpt>
      <trkpt lat="44.23848" lon="0.70983">
        <ele>90</ele>
        <time>2017-04-30T07:34:22.000Z</time>
      </trkpt>
      <trkpt lat="44.23845" lon="0.70987">
        <ele>90</ele>
        <time>2017-04-30T07:34:23.000Z</time>
      </trkpt>
      <trkpt lat="44.23842" lon="0.70991">
        <ele>90</ele>
        <time>2017-04-30T07:34:24.000Z</time>
      </trkpt>
      <trkpt lat="44.23839" lon="0.70995">
        <ele>90</ele>
        <time>2017-04-30T07:34:25.000Z</time>
      </trkpt>
      <trkpt lat="44.23836" lon="0.70999">
        <ele>91</ele>
        <time>2017-04-30T07:34:26.000Z</time>
      </trkpt>
      <trkpt lat="44.23833" lon="0.71003">
        <ele>91</ele>
        <time>2017-04-30T07:34:27.000Z</time>
      </trkpt>
      <trkpt lat="44.23831" lon="0.71007">
        <ele>91</ele>
        <time>2017-04-30T07:34:28.000Z</time>
      </trkpt>
      <trkpt lat="44.23828" lon="0.7101">
        <ele>91</ele>
        <time>2017-04-30T07:34:29.000Z</time>
      </trkpt>
      <trkpt lat="44.23824" lon="0.71014">
        <ele>91</ele>
        <time>2017-04-30T07:34:30.000Z</time>
      </trkpt>
      <trkpt lat="44.23821" lon="0.71018">
        <ele>92</ele>
        <time>2017-04-30T07:34:31.000Z</time>
      </trkpt>
      <trkpt lat="44.23818" lon="0.71022">
        <ele>92</ele>
        <time>2017-04-30T07:34:32.000Z</time>
      </trkpt>
      <trkpt lat="44.23815" lon="0.71025">
        <ele>92</ele>
        <time>2017-04-30T07:34:33.000Z</time>
      </trkpt>
      <trkpt lat="44.23811" lon="0.71029">
        <ele>92</ele>
        <time>2017-04-30T07:34:34.000Z</time>
      </trkpt>
      <trkpt lat="44.23808" lon="0.71032">
        <ele>93</ele>
        <time>2017-04-30T07:34:35.000Z</time>
      </trkpt>
      <trkpt lat="44.23804" lon="0.71034">
        <ele>93</ele>
        <time>2017-04-30T07:34:36.000Z</time>
      </trkpt>
      <trkpt lat="44.238" lon="0.71037">
        <ele>93</ele>
        <time>2017-04-30T07:34:37.000Z</time>
      </trkpt>
      <trkpt lat="44.23796" lon="0.71039">
        <ele>94</ele>
        <time>2017-04-30T07:34:38.000Z</time>
      </trkpt>
      <trkpt lat="44.23793" lon="0.71042">
        <ele>94</ele>
        <time>2017-04-30T07:34:39.000Z</time>
      </trkpt>
      <trkpt lat="44.23789" lon="0.71043">
        <ele>94</ele>
        <time>2017-04-30T07:34:40.000Z</time>
      </trkpt>
      <trkpt lat="44.23785" lon="0.71045">
        <ele>94</ele>
        <time>2017-04-30T07:34:41.000Z</time>
      </trkpt>
      <trkpt lat="44.23782" lon="0.71047">
        <ele>94</ele>
        <time>2017-04-30T07:34:42.000Z</time>
      </trkpt>
      <trkpt lat="44.23778" lon="0.71049">
        <ele>95</ele>
        <time>2017-04-30T07:34:43.000Z</time>
      </trkpt>
      <trkpt lat="44.23775" lon="0.7105">
        <ele>95</ele>
        <time>2017-04-30T07:34:44.000Z</time>
      </trkpt>
      <trkpt lat="44.23772" lon="0.71052">
        <ele>95</ele>
        <time>2017-04-30T07:34:45.000Z</time>
      </trkpt>
      <trkpt lat="44.23769" lon="0.71053">
        <ele>95</ele>
        <time>2017-04-30T07:34:46.000Z</time>
      </trkpt>
      <trkpt lat="44.23766" lon="0.71055">
        <ele>95</ele>
        <time>2017-04-30T07:34:47.000Z</time>
      </trkpt>
      <trkpt lat="44.23763" lon="0.71057">
        <ele>96</ele>
        <time>2017-04-30T07:34:48.000Z</time>
      </trkpt>
      <trkpt lat="44.23759" lon="0.71058">
        <ele>96</ele>
        <time>2017-04-30T07:34:49.000Z</time>
      </trkpt>
      <trkpt lat="44.23756" lon="0.7106">
        <ele>96</ele>
        <time>2017-04-30T07:34:50.000Z</time>
      </trkpt>
      <trkpt lat="44.23753" lon="0.71061">
        <ele>96</ele>
        <time>2017-04-30T07:34:51.000Z</time>
      </trkpt>
      <trkpt lat="44.2375" lon="0.71063">
        <ele>97</ele>
        <time>2017-04-30T07:34:52.000Z</time>
      </trkpt>
      <trkpt lat="44.23747" lon="0.71064">
        <ele>97</ele>
        <time>2017-04-30T07:34:53.000Z</time>
      </trkpt>
      <trkpt lat="44.23744" lon="0.71066">
        <ele>97</ele>
        <time>2017-04-30T07:34:54.000Z</time>
      </trkpt>
      <trkpt lat="44.23741" lon="0.71067">
        <ele>98</ele>
        <time>2017-04-30T07:34:55.000Z</time>
      </trkpt>
      <trkpt lat="44.23739" lon="0.71069">
        <ele>98</ele>
        <time>2017-04-30T07:34:56.000Z</time>
      </trkpt>
      <trkpt lat="44.23736" lon="0.7107">
        <ele>98</ele>
        <time>2017-04-30T07:34:57.000Z</time>
      </trkpt>
      <trkpt lat="44.23733" lon="0.71072">
        <ele>98</ele>
        <time>2017-04-30T07:34:58.000Z</time>
      </trkpt>
      <trkpt lat="44.23731" lon="0.71074">
        <ele>99</ele>
        <time>2017-04-30T07:34:59.000Z</time>
      </trkpt>
      <trkpt lat="44.23728" lon="0.71075">
        <ele>99</ele>
        <time>2017-04-30T07:35:00.000Z</time>
      </trkpt>
      <trkpt lat="44.23726" lon="0.71076">
        <ele>99</ele>
        <time>2017-04-30T07:35:01.000Z</time>
      </trkpt>
      <trkpt lat="44.23723" lon="0.71078">
        <ele>99</ele>
        <time>2017-04-30T07:35:02.000Z</time>
      </trkpt>
      <trkpt lat="44.2372" lon="0.71079">
        <ele>100</ele>
        <time>2017-04-30T07:35:03.000Z</time>
      </trkpt>
      <trkpt lat="44.23717" lon="0.7108">
        <ele>100</ele>
        <time>2017-04-30T07:35:04.000Z</time>
      </trkpt>
      <trkpt lat="44.23714" lon="0.71082">
        <ele>100</ele>
        <time>2017-04-30T07:35:05.000Z</time>
      </trkpt>
      <trkpt lat="44.23711" lon="0.71083">
        <ele>100</ele>
        <time>2017-04-30T07:35:06.000Z</time>
      </trkpt>
      <trkpt lat="44.23708" lon="0.71085">
        <ele>100</ele>
        <time>2017-04-30T07:35:07.000Z</time>
      </trkpt>
      <trkpt lat="44.23705" lon="0.71086">
        <ele>100</ele>
        <time>2017-04-30T07:35:08.000Z</time>
      </trkpt>
      <trkpt lat="44.23702" lon="0.71088">
        <ele>101</ele>
        <time>2017-04-30T07:35:09.000Z</time>
      </trkpt>
      <trkpt lat="44.237" lon="0.71089">
        <ele>101</ele>
        <time>2017-04-30T07:35:10.000Z</time>
      </trkpt>
      <trkpt lat="44.23697" lon="0.71091">
        <ele>101</ele>
        <time>2017-04-30T07:35:11.000Z</time>
      </trkpt>
      <trkpt lat="44.23695" lon="0.71093">
        <ele>101</ele>
        <time>2017-04-30T07:35:12.000Z</time>
      </trkpt>
      <trkpt lat="44.23692" lon="0.71095">
        <ele>101</ele>
        <time>2017-04-30T07:35:13.000Z</time>
      </trkpt>
      <trkpt lat="44.23689" lon="0.71096">
        <ele>102</ele>
        <time>2017-04-30T07:35:14.000Z</time>
      </trkpt>
      <trkpt lat="44.23687" lon="0.71098">
        <ele>101</ele>
        <time>2017-04-30T07:35:15.000Z</time>
      </trkpt>
      <trkpt lat="44.23684" lon="0.711">
        <ele>102</ele>
        <time>2017-04-30T07:35:16.000Z</time>
      </trkpt>
      <trkpt lat="44.23681" lon="0.71103">
        <ele>101</ele>
        <time>2017-04-30T07:35:17.000Z</time>
      </trkpt>
      <trkpt lat="44.23678" lon="0.71105">
        <ele>101</ele>
        <time>2017-04-30T07:35:18.000Z</time>
      </trkpt>
      <trkpt lat="44.23676" lon="0.71107">
        <ele>102</ele>
        <time>2017-04-30T07:35:19.000Z</time>
      </trkpt>
      <trkpt lat="44.23673" lon="0.71109">
        <ele>102</ele>
        <time>2017-04-30T07:35:20.000Z</time>
      </trkpt>
      <trkpt lat="44.2367" lon="0.71111">
        <ele>102</ele>
        <time>2017-04-30T07:35:21.000Z</time>
      </trkpt>
      <trkpt lat="44.23667" lon="0.71113">
        <ele>102</ele>
        <time>2017-04-30T07:35:22.000Z</time>
      </trkpt>
      <trkpt lat="44.23664" lon="0.71115">
        <ele>102</ele>
        <time>2017-04-30T07:35:23.000Z</time>
      </trkpt>
      <trkpt lat="44.23662" lon="0.71117">
        <ele>102</ele>
        <time>2017-04-30T07:35:24.000Z</time>
      </trkpt>
      <trkpt lat="44.23659" lon="0.71119">
        <ele>102</ele>
        <time>2017-04-30T07:35:25.000Z</time>
      </trkpt>
      <trkpt lat="44.23656" lon="0.71122">
        <ele>102</ele>
        <time>2017-04-30T07:35:26.000Z</time>
      </trkpt>
      <trkpt lat="44.23653" lon="0.71124">
        <ele>102</ele>
        <time>2017-04-30T07:35:27.000Z</time>
      </trkpt>
      <trkpt lat="44.2365" lon="0.71126">
        <ele>102</ele>
        <time>2017-04-30T07:35:28.000Z</time>
      </trkpt>
      <trkpt lat="44.23647" lon="0.71128">
        <ele>102</ele>
        <time>2017-04-30T07:35:29.000Z</time>
      </trkpt>
      <trkpt lat="44.23644" lon="0.71131">
        <ele>103</ele>
        <time>2017-04-30T07:35:30.000Z</time>
      </trkpt>
      <trkpt lat="44.23642" lon="0.71133">
        <ele>103</ele>
        <time>2017-04-30T07:35:31.000Z</time>
      </trkpt>
      <trkpt lat="44.23639" lon="0.71136">
        <ele>103</ele>
        <time>2017-04-30T07:35:32.000Z</time>
      </trkpt>
      <trkpt lat="44.23636" lon="0.71138">
        <ele>103</ele>
        <time>2017-04-30T07:35:33.000Z</time>
      </trkpt>
      <trkpt lat="44.23634" lon="0.7114">
        <ele>104</ele>
        <time>2017-04-30T07:35:34.000Z</time>
      </trkpt>
      <trkpt lat="44.23631" lon="0.71143">
        <ele>104</ele>
        <time>2017-04-30T07:35:35.000Z</time>
      </trkpt>
      <trkpt lat="44.23628" lon="0.71145">
        <ele>104</ele>
        <time>2017-04-30T07:35:36.000Z</time>
      </trkpt>
      <trkpt lat="44.23626" lon="0.71148">
        <ele>104</ele>
        <time>2017-04-30T07:35:37.000Z</time>
      </trkpt>
      <trkpt lat="44.23623" lon="0.7115">
        <ele>104</ele>
        <time>2017-04-30T07:35:38.000Z</time>
      </trkpt>
      <trkpt lat="44.23621" lon="0.71153">
        <ele>105</ele>
        <time>2017-04-30T07:35:39.000Z</time>
      </trkpt>
      <trkpt lat="44.23618" lon="0.71155">
        <ele>105</ele>
        <time>2017-04-30T07:35:40.000Z</time>
      </trkpt>
      <trkpt lat="44.23616" lon="0.71158">
        <ele>105</ele>
        <time>2017-04-30T07:35:41.000Z</time>
      </trkpt>
      <trkpt lat="44.23613" lon="0.71161">
        <ele>105</ele>
        <time>2017-04-30T07:35:42.000Z</time>
      </trkpt>
      <trkpt lat="44.23611" lon="0.71163">
        <ele>106</ele>
        <time>2017-04-30T07:35:43.000Z</time>
      </trkpt>
      <trkpt lat="44.23609" lon="0.71165">
        <ele>106</ele>
        <time>2017-04-30T07:35:44.000Z</time>
      </trkpt>
      <trkpt lat="44.23607" lon="0.71167">
        <ele>106</ele>
        <time>2017-04-30T07:35:45.000Z</time>
      </trkpt>
      <trkpt lat="44.23606" lon="0.7117">
        <ele>107</ele>
        <time>2017-04-30T07:35:46.000Z</time>
      </trkpt>
      <trkpt lat="44.23604" lon="0.71172">
        <ele>107</ele>
        <time>2017-04-30T07:35:47.000Z</time>
      </trkpt>
      <trkpt lat="44.23603" lon="0.71174">
        <ele>108</ele>
        <time>2017-04-30T07:35:48.000Z</time>
      </trkpt>
      <trkpt lat="44.23601" lon="0.71176">
        <ele>108</ele>
        <time>2017-04-30T07:35:49.000Z</time>
      </trkpt>
      <trkpt lat="44.23599" lon="0.71178">
        <ele>109</ele>
        <time>2017-04-30T07:35:50.000Z</time>
      </trkpt>
      <trkpt lat="44.23597" lon="0.7118">
        <ele>109</ele>
        <time>2017-04-30T07:35:51.000Z</time>
      </trkpt>
      <trkpt lat="44.23595" lon="0.71183">
        <ele>109</ele>
        <time>2017-04-30T07:35:52.000Z</time>
      </trkpt>
      <trkpt lat="44.23593" lon="0.71185">
        <ele>108</ele>
        <time>2017-04-30T07:35:53.000Z</time>
      </trkpt>
      <trkpt lat="44.2359" lon="0.71187">
        <ele>108</ele>
        <time>2017-04-30T07:35:54.000Z</time>
      </trkpt>
      <trkpt lat="44.23588" lon="0.7119">
        <ele>108</ele>
        <time>2017-04-30T07:35:55.000Z</time>
      </trkpt>
      <trkpt lat="44.23586" lon="0.71192">
        <ele>108</ele>
        <time>2017-04-30T07:35:56.000Z</time>
      </trkpt>
      <trkpt lat="44.23584" lon="0.71194">
        <ele>108</ele>
        <time>2017-04-30T07:35:57.000Z</time>
      </trkpt>
      <trkpt lat="44.23581" lon="0.71196">
        <ele>108</ele>
        <time>2017-04-30T07:35:58.000Z</time>
      </trkpt>
      <trkpt lat="44.23579" lon="0.71199">
        <ele>108</ele>
        <time>2017-04-30T07:35:59.000Z</time>
      </trkpt>
      <trkpt lat="44.23577" lon="0.71201">
        <ele>108</ele>
        <time>2017-04-30T07:36:00.000Z</time>
      </trkpt>
      <trkpt lat="44.23574" lon="0.71204">
        <ele>108</ele>
        <time>2017-04-30T07:36:01.000Z</time>
      </trkpt>
      <trkpt lat="44.23572" lon="0.71207">
        <ele>108</ele>
        <time>2017-04-30T07:36:02.000Z</time>
      </trkpt>
      <trkpt lat="44.23569" lon="0.71209">
        <ele>108</ele>
        <time>2017-04-30T07:36:03.000Z</time>
      </trkpt>
      <trkpt lat="44.23567" lon="0.71212">
        <ele>108</ele>
        <time>2017-04-30T07:36:04.000Z</time>
      </trkpt>
      <trkpt lat="44.23564" lon="0.71214">
        <ele>108</ele>
        <time>2017-04-30T07:36:05.000Z</time>
      </trkpt>
      <trkpt lat="44.23562" lon="0.71217">
        <ele>108</ele>
        <time>2017-04-30T07:36:06.000Z</time>
      </trkpt>
      <trkpt lat="44.23559" lon="0.71219">
        <ele>108</ele>
        <time>2017-04-30T07:36:07.000Z</time>
      </trkpt>
      <trkpt lat="44.23556" lon="0.71222">
        <ele>108</ele>
        <time>2017-04-30T07:36:08.000Z</time>
      </trkpt>
      <trkpt lat="44.23553" lon="0.71224">
        <ele>108</ele>
        <time>2017-04-30T07:36:09.000Z</time>
      </trkpt>
      <trkpt lat="44.23551" lon="0.71227">
        <ele>108</ele>
        <time>2017-04-30T07:36:10.000Z</time>
      </trkpt>
      <trkpt lat="44.23549" lon="0.7123">
        <ele>109</ele>
        <time>2017-04-30T07:36:11.000Z</time>
      </trkpt>
      <trkpt lat="44.23546" lon="0.71232">
        <ele>109</ele>
        <time>2017-04-30T07:36:12.000Z</time>
      </trkpt>
      <trkpt lat="44.23545" lon="0.71235">
        <ele>109</ele>
        <time>2017-04-30T07:36:13.000Z</time>
      </trkpt>
      <trkpt lat="44.23543" lon="0.71238">
        <ele>109</ele>
        <time>2017-04-30T07:36:14.000Z</time>
      </trkpt>
      <trkpt lat="44.23541" lon="0.7124">
        <ele>109</ele>
        <time>2017-04-30T07:36:15.000Z</time>
      </trkpt>
      <trkpt lat="44.2354" lon="0.71242">
        <ele>109</ele>
        <time>2017-04-30T07:36:16.000Z</time>
      </trkpt>
      <trkpt lat="44.23538" lon="0.71245">
        <ele>109</ele>
        <time>2017-04-30T07:36:17.000Z</time>
      </trkpt>
      <trkpt lat="44.23537" lon="0.71247">
        <ele>110</ele>
        <time>2017-04-30T07:36:18.000Z</time>
      </trkpt>
      <trkpt lat="44.23535" lon="0.71249">
        <ele>110</ele>
        <time>2017-04-30T07:36:19.000Z</time>
      </trkpt>
      <trkpt lat="44.23532" lon="0.71251">
        <ele>111</ele>
        <time>2017-04-30T07:36:20.000Z</time>
      </trkpt>
      <trkpt lat="44.2353" lon="0.71253">
        <ele>111</ele>
        <time>2017-04-30T07:36:21.000Z</time>
      </trkpt>
      <trkpt lat="44.23528" lon="0.71255">
        <ele>111</ele>
        <time>2017-04-30T07:36:22.000Z</time>
      </trkpt>
      <trkpt lat="44.23526" lon="0.71256">
        <ele>111</ele>
        <time>2017-04-30T07:36:23.000Z</time>
      </trkpt>
      <trkpt lat="44.23524" lon="0.71258">
        <ele>112</ele>
        <time>2017-04-30T07:36:24.000Z</time>
      </trkpt>
      <trkpt lat="44.23521" lon="0.7126">
        <ele>112</ele>
        <time>2017-04-30T07:36:25.000Z</time>
      </trkpt>
      <trkpt lat="44.23519" lon="0.71261">
        <ele>112</ele>
        <time>2017-04-30T07:36:26.000Z</time>
      </trkpt>
      <trkpt lat="44.23517" lon="0.71263">
        <ele>113</ele>
        <time>2017-04-30T07:36:27.000Z</time>
      </trkpt>
      <trkpt lat="44.23515" lon="0.71265">
        <ele>113</ele>
        <time>2017-04-30T07:36:28.000Z</time>
      </trkpt>
      <trkpt lat="44.23513" lon="0.71266">
        <ele>114</ele>
        <time>2017-04-30T07:36:29.000Z</time>
      </trkpt>
      <trkpt lat="44.23511" lon="0.71268">
        <ele>114</ele>
        <time>2017-04-30T07:36:30.000Z</time>
      </trkpt>
      <trkpt lat="44.23508" lon="0.71269">
        <ele>115</ele>
        <time>2017-04-30T07:36:31.000Z</time>
      </trkpt>
      <trkpt lat="44.23507" lon="0.7127">
        <ele>116</ele>
        <time>2017-04-30T07:36:32.000Z</time>
      </trkpt>
      <trkpt lat="44.23504" lon="0.71272">
        <ele>115</ele>
        <time>2017-04-30T07:36:33.000Z</time>
      </trkpt>
      <trkpt lat="44.23502" lon="0.71273">
        <ele>115</ele>
        <time>2017-04-30T07:36:34.000Z</time>
      </trkpt>
      <trkpt lat="44.23499" lon="0.71275">
        <ele>115</ele>
        <time>2017-04-30T07:36:35.000Z</time>
      </trkpt>
      <trkpt lat="44.23497" lon="0.71277">
        <ele>116</ele>
        <time>2017-04-30T07:36:36.000Z</time>
      </trkpt>
      <trkpt lat="44.23494" lon="0.71278">
        <ele>116</ele>
        <time>2017-04-30T07:36:37.000Z</time>
      </trkpt>
      <trkpt lat="44.23492" lon="0.71279">
        <ele>117</ele>
        <time>2017-04-30T07:36:38.000Z</time>
      </trkpt>
      <trkpt lat="44.23489" lon="0.7128">
        <ele>117</ele>
        <time>2017-04-30T07:36:39.000Z</time>
      </trkpt>
      <trkpt lat="44.23486" lon="0.71281">
        <ele>118</ele>
        <time>2017-04-30T07:36:40.000Z</time>
      </trkpt>
      <trkpt lat="44.23484" lon="0.71283">
        <ele>117</ele>
        <time>2017-04-30T07:36:41.000Z</time>
      </trkpt>
      <trkpt lat="44.23481" lon="0.71284">
        <ele>117</ele>
        <time>2017-04-30T07:36:42.000Z</time>
      </trkpt>
      <trkpt lat="44.23478" lon="0.71285">
        <ele>118</ele>
        <time>2017-04-30T07:36:43.000Z</time>
      </trkpt>
      <trkpt lat="44.23476" lon="0.71287">
        <ele>119</ele>
        <time>2017-04-30T07:36:44.000Z</time>
      </trkpt>
      <trkpt lat="44.23473" lon="0.71288">
        <ele>119</ele>
        <time>2017-04-30T07:36:45.000Z</time>
      </trkpt>
      <trkpt lat="44.23471" lon="0.71289">
        <ele>120</ele>
        <time>2017-04-30T07:36:46.000Z</time>
      </trkpt>
      <trkpt lat="44.23469" lon="0.71291">
        <ele>120</ele>
        <time>2017-04-30T07:36:47.000Z</time>
      </trkpt>
      <trkpt lat="44.23467" lon="0.71293">
        <ele>121</ele>
        <time>2017-04-30T07:36:48.000Z</time>
      </trkpt>
      <trkpt lat="44.23465" lon="0.71295">
        <ele>123</ele>
        <time>2017-04-30T07:36:49.000Z</time>
      </trkpt>
      <trkpt lat="44.23463" lon="0.71296">
        <ele>124</ele>
        <time>2017-04-30T07:36:50.000Z</time>
      </trkpt>
      <trkpt lat="44.23461" lon="0.71298">
        <ele>124</ele>
        <time>2017-04-30T07:36:51.000Z</time>
      </trkpt>
      <trkpt lat="44.23459" lon="0.713">
        <ele>124</ele>
        <time>2017-04-30T07:36:52.000Z</time>
      </trkpt>
      <trkpt lat="44.23457" lon="0.71302">
        <ele>125</ele>
        <time>2017-04-30T07:36:53.000Z</time>
      </trkpt>
      <trkpt lat="44.23455" lon="0.71304">
        <ele>125</ele>
        <time>2017-04-30T07:36:54.000Z</time>
      </trkpt>
      <trkpt lat="44.23453" lon="0.71305">
        <ele>126</ele>
        <time>2017-04-30T07:36:55.000Z</time>
      </trkpt>
      <trkpt lat="44.23451" lon="0.71307">
        <ele>127</ele>
        <time>2017-04-30T07:36:56.000Z</time>
      </trkpt>
      <trkpt lat="44.2345" lon="0.71309">
        <ele>128</ele>
        <time>2017-04-30T07:36:57.000Z</time>
      </trkpt>
      <trkpt lat="44.23448" lon="0.71311">
        <ele>128</ele>
        <time>2017-04-30T07:36:58.000Z</time>
      </trkpt>
      <trkpt lat="44.23446" lon="0.71313">
        <ele>129</ele>
        <time>2017-04-30T07:36:59.000Z</time>
      </trkpt>
      <trkpt lat="44.23444" lon="0.71315">
        <ele>129</ele>
        <time>2017-04-30T07:37:00.000Z</time>
      </trkpt>
      <trkpt lat="44.23441" lon="0.71317">
        <ele>128</ele>
        <time>2017-04-30T07:37:01.000Z</time>
      </trkpt>
      <trkpt lat="44.23439" lon="0.71319">
        <ele>128</ele>
        <time>2017-04-30T07:37:02.000Z</time>
      </trkpt>
      <trkpt lat="44.23437" lon="0.71322">
        <ele>129</ele>
        <time>2017-04-30T07:37:03.000Z</time>
      </trkpt>
      <trkpt lat="44.23434" lon="0.71324">
        <ele>130</ele>
        <time>2017-04-30T07:37:04.000Z</time>
      </trkpt>
      <trkpt lat="44.23432" lon="0.71326">
        <ele>131</ele>
        <time>2017-04-30T07:37:05.000Z</time>
      </trkpt>
      <trkpt lat="44.23431" lon="0.71328">
        <ele>131</ele>
        <time>2017-04-30T07:37:06.000Z</time>
      </trkpt>
      <trkpt lat="44.23428" lon="0.7133">
        <ele>130</ele>
        <time>2017-04-30T07:37:07.000Z</time>
      </trkpt>
      <trkpt lat="44.23426" lon="0.71333">
        <ele>128</ele>
        <time>2017-04-30T07:37:08.000Z</time>
      </trkpt>
      <trkpt lat="44.23424" lon="0.71335">
        <ele>127</ele>
        <time>2017-04-30T07:37:09.000Z</time>
      </trkpt>
      <trkpt lat="44.23421" lon="0.71338">
        <ele>128</ele>
        <time>2017-04-30T07:37:10.000Z</time>
      </trkpt>
      <trkpt lat="44.23419" lon="0.7134">
        <ele>126</ele>
        <time>2017-04-30T07:37:11.000Z</time>
      </trkpt>
      <trkpt lat="44.23417" lon="0.71344">
        <ele>125</ele>
        <time>2017-04-30T07:37:12.000Z</time>
      </trkpt>
      <trkpt lat="44.23415" lon="0.71346">
        <ele>125</ele>
        <time>2017-04-30T07:37:13.000Z</time>
      </trkpt>
      <trkpt lat="44.23413" lon="0.71349">
        <ele>122</ele>
        <time>2017-04-30T07:37:14.000Z</time>
      </trkpt>
      <trkpt lat="44.2341" lon="0.71353">
        <ele>120</ele>
        <time>2017-04-30T07:37:15.000Z</time>
      </trkpt>
      <trkpt lat="44.23408" lon="0.71354">
        <ele>120</ele>
        <time>2017-04-30T07:37:16.000Z</time>
      </trkpt>
      <trkpt lat="44.23407" lon="0.71357">
        <ele>119</ele>
        <time>2017-04-30T07:37:17.000Z</time>
      </trkpt>
      <trkpt lat="44.23406" lon="0.7136">
        <ele>120</ele>
        <time>2017-04-30T07:37:18.000Z</time>
      </trkpt>
      <trkpt lat="44.23405" lon="0.71363">
        <ele>121</ele>
        <time>2017-04-30T07:37:19.000Z</time>
      </trkpt>
      <trkpt lat="44.23404" lon="0.71366">
        <ele>121</ele>
        <time>2017-04-30T07:37:20.000Z</time>
      </trkpt>
      <trkpt lat="44.23403" lon="0.71369">
        <ele>121</ele>
        <time>2017-04-30T07:37:21.000Z</time>
      </trkpt>
      <trkpt lat="44.23402" lon="0.71372">
        <ele>122</ele>
        <time>2017-04-30T07:37:22.000Z</time>
      </trkpt>
      <trkpt lat="44.23402" lon="0.71375">
        <ele>122</ele>
        <time>2017-04-30T07:37:23.000Z</time>
      </trkpt>
      <trkpt lat="44.23401" lon="0.71376">
        <ele>121</ele>
        <time>2017-04-30T07:37:24.000Z</time>
      </trkpt>
      <trkpt lat="44.234" lon="0.71379">
        <ele>121</ele>
        <time>2017-04-30T07:37:25.000Z</time>
      </trkpt>
      <trkpt lat="44.23399" lon="0.71382">
        <ele>121</ele>
        <time>2017-04-30T07:37:26.000Z</time>
      </trkpt>
      <trkpt lat="44.23398" lon="0.71384">
        <ele>121</ele>
        <time>2017-04-30T07:37:27.000Z</time>
      </trkpt>
      <trkpt lat="44.23397" lon="0.71386">
        <ele>121</ele>
        <time>2017-04-30T07:37:28.000Z</time>
      </trkpt>
      <trkpt lat="44.23397" lon="0.7139">
        <ele>120</ele>
        <time>2017-04-30T07:37:29.000Z</time>
      </trkpt>
      <trkpt lat="44.23395" lon="0.71393">
        <ele>117</ele>
        <time>2017-04-30T07:37:30.000Z</time>
      </trkpt>
      <trkpt lat="44.23394" lon="0.71397">
        <ele>116</ele>
        <time>2017-04-30T07:37:31.000Z</time>
      </trkpt>
      <trkpt lat="44.23393" lon="0.71402">
        <ele>115</ele>
        <time>2017-04-30T07:37:32.000Z</time>
      </trkpt>
      <trkpt lat="44.23392" lon="0.71405">
        <ele>115</ele>
        <time>2017-04-30T07:37:33.000Z</time>
      </trkpt>
      <trkpt lat="44.23391" lon="0.71408">
        <ele>115</ele>
        <time>2017-04-30T07:37:34.000Z</time>
      </trkpt>
      <trkpt lat="44.23391" lon="0.71412">
        <ele>123</ele>
        <time>2017-04-30T07:37:35.000Z</time>
      </trkpt>
      <trkpt lat="44.23391" lon="0.71415">
        <ele>126</ele>
        <time>2017-04-30T07:37:36.000Z</time>
      </trkpt>
      <trkpt lat="44.23391" lon="0.71419">
        <ele>127</ele>
        <time>2017-04-30T07:37:37.000Z</time>
      </trkpt>
      <trkpt lat="44.2339" lon="0.71423">
        <ele>127</ele>
        <time>2017-04-30T07:37:38.000Z</time>
      </trkpt>
      <trkpt lat="44.23389" lon="0.71427">
        <ele>126</ele>
        <time>2017-04-30T07:37:39.000Z</time>
      </trkpt>
      <trkpt lat="44.23389" lon="0.7143">
        <ele>126</ele>
        <time>2017-04-30T07:37:40.000Z</time>
      </trkpt>
      <trkpt lat="44.23388" lon="0.71432">
        <ele>126</ele>
        <time>2017-04-30T07:37:41.000Z</time>
      </trkpt>
      <trkpt lat="44.23388" lon="0.71435">
        <ele>127</ele>
        <time>2017-04-30T07:37:42.000Z</time>
      </trkpt>
      <trkpt lat="44.23387" lon="0.71438">
        <ele>127</ele>
        <time>2017-04-30T07:37:43.000Z</time>
      </trkpt>
      <trkpt lat="44.23387" lon="0.7144">
        <ele>126</ele>
        <time>2017-04-30T07:37:44.000Z</time>
      </trkpt>
      <trkpt lat="44.23386" lon="0.71443">
        <ele>127</ele>
        <time>2017-04-30T07:37:45.000Z</time>
      </trkpt>
      <trkpt lat="44.23386" lon="0.71445">
        <ele>127</ele>
        <time>2017-04-30T07:37:46.000Z</time>
      </trkpt>
      <trkpt lat="44.23386" lon="0.71448">
        <ele>126</ele>
        <time>2017-04-30T07:37:47.000Z</time>
      </trkpt>
      <trkpt lat="44.23385" lon="0.7145">
        <ele>126</ele>
        <time>2017-04-30T07:37:48.000Z</time>
      </trkpt>
      <trkpt lat="44.23385" lon="0.71452">
        <ele>126</ele>
        <time>2017-04-30T07:37:49.000Z</time>
      </trkpt>
      <trkpt lat="44.23385" lon="0.71454">
        <ele>126</ele>
        <time>2017-04-30T07:37:50.000Z</time>
      </trkpt>
      <trkpt lat="44.23385" lon="0.71456">
        <ele>126</ele>
        <time>2017-04-30T07:37:51.000Z</time>
      </trkpt>
      <trkpt lat="44.23385" lon="0.71459">
        <ele>126</ele>
        <time>2017-04-30T07:37:52.000Z</time>
      </trkpt>
      <trkpt lat="44.23385" lon="0.71462">
        <ele>125</ele>
        <time>2017-04-30T07:37:53.000Z</time>
      </trkpt>
      <trkpt lat="44.23384" lon="0.71464">
        <ele>125</ele>
        <time>2017-04-30T07:37:54.000Z</time>
      </trkpt>
      <trkpt lat="44.23384" lon="0.71467">
        <ele>125</ele>
        <time>2017-04-30T07:37:55.000Z</time>
      </trkpt>
      <trkpt lat="44.23384" lon="0.71469">
        <ele>125</ele>
        <time>2017-04-30T07:37:56.000Z</time>
      </trkpt>
      <trkpt lat="44.23384" lon="0.71472">
        <ele>125</ele>
        <time>2017-04-30T07:37:57.000Z</time>
      </trkpt>
      <trkpt lat="44.23383" lon="0.71474">
        <ele>125</ele>
        <time>2017-04-30T07:37:58.000Z</time>
      </trkpt>
      <trkpt lat="44.23383" lon="0.71477">
        <ele>125</ele>
        <time>2017-04-30T07:37:59.000Z</time>
      </trkpt>
      <trkpt lat="44.23383" lon="0.71479">
        <ele>126</ele>
        <time>2017-04-30T07:38:00.000Z</time>
      </trkpt>
      <trkpt lat="44.23383" lon="0.71481">
        <ele>126</ele>
        <time>2017-04-30T07:38:01.000Z</time>
      </trkpt>
      <trkpt lat="44.23383" lon="0.71483">
        <ele>127</ele>
        <time>2017-04-30T07:38:02.000Z</time>
      </trkpt>
      <trkpt lat="44.23383" lon="0.71486">
        <ele>128</ele>
        <time>2017-04-30T07:38:03.000Z</time>
      </trkpt>
      <trkpt lat="44.23383" lon="0.71488">
        <ele>128</ele>
        <time>2017-04-30T07:38:04.000Z</time>
      </trkpt>
      <trkpt lat="44.23383" lon="0.7149">
        <ele>128</ele>
        <time>2017-04-30T07:38:05.000Z</time>
      </trkpt>
      <trkpt lat="44.23383" lon="0.71493">
        <ele>129</ele>
        <time>2017-04-30T07:38:06.000Z</time>
      </trkpt>
      <trkpt lat="44.23383" lon="0.71495">
        <ele>129</ele>
        <time>2017-04-30T07:38:07.000Z</time>
      </trkpt>
      <trkpt lat="44.23382" lon="0.71497">
        <ele>130</ele>
        <time>2017-04-30T07:38:08.000Z</time>
      </trkpt>
      <trkpt lat="44.23382" lon="0.71499">
        <ele>130</ele>
        <time>2017-04-30T07:38:09.000Z</time>
      </trkpt>
      <trkpt lat="44.23382" lon="0.71501">
        <ele>129</ele>
        <time>2017-04-30T07:38:10.000Z</time>
      </trkpt>
      <trkpt lat="44.23382" lon="0.71503">
        <ele>131</ele>
        <time>2017-04-30T07:38:11.000Z</time>
      </trkpt>
      <trkpt lat="44.23383" lon="0.71507">
        <ele>131</ele>
        <time>2017-04-30T07:38:12.000Z</time>
      </trkpt>
      <trkpt lat="44.23383" lon="0.71509">
        <ele>132</ele>
        <time>2017-04-30T07:38:13.000Z</time>
      </trkpt>
      <trkpt lat="44.23383" lon="0.71511">
        <ele>132</ele>
        <time>2017-04-30T07:38:14.000Z</time>
      </trkpt>
      <trkpt lat="44.23383" lon="0.71513">
        <ele>132</ele>
        <time>2017-04-30T07:38:15.000Z</time>
      </trkpt>
      <trkpt lat="44.23382" lon="0.71514">
        <ele>132</ele>
        <time>2017-04-30T07:38:16.000Z</time>
      </trkpt>
      <trkpt lat="44.23382" lon="0.71515">
        <ele>132</ele>
        <time>2017-04-30T07:38:17.000Z</time>
      </trkpt>
      <trkpt lat="44.23381" lon="0.71516">
        <ele>132</ele>
        <time>2017-04-30T07:38:18.000Z</time>
      </trkpt>
      <trkpt lat="44.2338" lon="0.71517">
        <ele>132</ele>
        <time>2017-04-30T07:38:19.000Z</time>
      </trkpt>
      <trkpt lat="44.23379" lon="0.71518">
        <ele>132</ele>
        <time>2017-04-30T07:38:20.000Z</time>
      </trkpt>
      <trkpt lat="44.23378" lon="0.7152">
        <ele>133</ele>
        <time>2017-04-30T07:38:21.000Z</time>
      </trkpt>
      <trkpt lat="44.23377" lon="0.71521">
        <ele>133</ele>
        <time>2017-04-30T07:38:22.000Z</time>
      </trkpt>
      <trkpt lat="44.23375" lon="0.71522">
        <ele>133</ele>
        <time>2017-04-30T07:38:23.000Z</time>
      </trkpt>
      <trkpt lat="44.23374" lon="0.71524">
        <ele>133</ele>
        <time>2017-04-30T07:38:24.000Z</time>
      </trkpt>
      <trkpt lat="44.23374" lon="0.71525">
        <ele>134</ele>
        <time>2017-04-30T07:38:25.000Z</time>
      </trkpt>
      <trkpt lat="44.23373" lon="0.71526">
        <ele>133</ele>
        <time>2017-04-30T07:38:26.000Z</time>
      </trkpt>
      <trkpt lat="44.23372" lon="0.71527">
        <ele>132</ele>
        <time>2017-04-30T07:38:27.000Z</time>
      </trkpt>
      <trkpt lat="44.23371" lon="0.71528">
        <ele>133</ele>
        <time>2017-04-30T07:38:28.000Z</time>
      </trkpt>
      <trkpt lat="44.2337" lon="0.71529">
        <ele>132</ele>
        <time>2017-04-30T07:38:29.000Z</time>
      </trkpt>
      <trkpt lat="44.23369" lon="0.71529">
        <ele>132</ele>
        <time>2017-04-30T07:38:30.000Z</time>
      </trkpt>
      <trkpt lat="44.23367" lon="0.71529">
        <ele>133</ele>
        <time>2017-04-30T07:38:31.000Z</time>
      </trkpt>
      <trkpt lat="44.23366" lon="0.7153">
        <ele>133</ele>
        <time>2017-04-30T07:38:32.000Z</time>
      </trkpt>
      <trkpt lat="44.23364" lon="0.7153">
        <ele>133</ele>
        <time>2017-04-30T07:38:33.000Z</time>
      </trkpt>
      <trkpt lat="44.23363" lon="0.7153">
        <ele>133</ele>
        <time>2017-04-30T07:38:34.000Z</time>
      </trkpt>
      <trkpt lat="44.23362" lon="0.71531">
        <ele>133</ele>
        <time>2017-04-30T07:38:35.000Z</time>
      </trkpt>
      <trkpt lat="44.23361" lon="0.71531">
        <ele>133</ele>
        <time>2017-04-30T07:38:36.000Z</time>
      </trkpt>
      <trkpt lat="44.2336" lon="0.71532">
        <ele>134</ele>
        <time>2017-04-30T07:38:37.000Z</time>
      </trkpt>
      <trkpt lat="44.23359" lon="0.71533">
        <ele>134</ele>
        <time>2017-04-30T07:38:38.000Z</time>
      </trkpt>
      <trkpt lat="44.23358" lon="0.71534">
        <ele>136</ele>
        <time>2017-04-30T07:38:39.000Z</time>
      </trkpt>
      <trkpt lat="44.23357" lon="0.71535">
        <ele>137</ele>
        <time>2017-04-30T07:38:40.000Z</time>
      </trkpt>
      <trkpt lat="44.23356" lon="0.71536">
        <ele>137</ele>
        <time>2017-04-30T07:38:41.000Z</time>
      </trkpt>
      <trkpt lat="44.23355" lon="0.71537">
        <ele>137</ele>
        <time>2017-04-30T07:38:42.000Z</time>
      </trkpt>
      <trkpt lat="44.23355" lon="0.71538">
        <ele>137</ele>
        <time>2017-04-30T07:38:43.000Z</time>
      </trkpt>
      <trkpt lat="44.23354" lon="0.71539">
        <ele>137</ele>
        <time>2017-04-30T07:38:44.000Z</time>
      </trkpt>
      <trkpt lat="44.23354" lon="0.7154">
        <ele>137</ele>
        <time>2017-04-30T07:38:45.000Z</time>
      </trkpt>
      <trkpt lat="44.23355" lon="0.71542">
        <ele>138</ele>
        <time>2017-04-30T07:38:46.000Z</time>
      </trkpt>
      <trkpt lat="44.23356" lon="0.71544">
        <ele>139</ele>
        <time>2017-04-30T07:38:47.000Z</time>
      </trkpt>
      <trkpt lat="44.23356" lon="0.71545">
        <ele>141</ele>
        <time>2017-04-30T07:38:48.000Z</time>
      </trkpt>
      <trkpt lat="44.23357" lon="0.71546">
        <ele>142</ele>
        <time>2017-04-30T07:38:49.000Z</time>
      </trkpt>
      <trkpt lat="44.23357" lon="0.71547">
        <ele>143</ele>
        <time>2017-04-30T07:38:50.000Z</time>
      </trkpt>
      <trkpt lat="44.23357" lon="0.71549">
        <ele>143</ele>
        <time>2017-04-30T07:38:51.000Z</time>
      </trkpt>
      <trkpt lat="44.23357" lon="0.7155">
        <ele>143</ele>
        <time>2017-04-30T07:38:52.000Z</time>
      </trkpt>
      <trkpt lat="44.23358" lon="0.71552">
        <ele>144</ele>
        <time>2017-04-30T07:38:53.000Z</time>
      </trkpt>
      <trkpt lat="44.23358" lon="0.71553">
        <ele>145</ele>
        <time>2017-04-30T07:38:54.000Z</time>
      </trkpt>
      <trkpt lat="44.23358" lon="0.71554">
        <ele>144</ele>
        <time>2017-04-30T07:38:55.000Z</time>
      </trkpt>
      <trkpt lat="44.23358" lon="0.71557">
        <ele>144</ele>
        <time>2017-04-30T07:38:56.000Z</time>
      </trkpt>
      <trkpt lat="44.23359" lon="0.71559">
        <ele>144</ele>
        <time>2017-04-30T07:38:57.000Z</time>
      </trkpt>
      <trkpt lat="44.23359" lon="0.7156">
        <ele>146</ele>
        <time>2017-04-30T07:38:58.000Z</time>
      </trkpt>
      <trkpt lat="44.2336" lon="0.71562">
        <ele>146</ele>
        <time>2017-04-30T07:38:59.000Z</time>
      </trkpt>
      <trkpt lat="44.2336" lon="0.71564">
        <ele>146</ele>
        <time>2017-04-30T07:39:00.000Z</time>
      </trkpt>
      <trkpt lat="44.23361" lon="0.71566">
        <ele>145</ele>
        <time>2017-04-30T07:39:01.000Z</time>
      </trkpt>
      <trkpt lat="44.23361" lon="0.71568">
        <ele>146</ele>
        <time>2017-04-30T07:39:02.000Z</time>
      </trkpt>
      <trkpt lat="44.23362" lon="0.71569">
        <ele>147</ele>
        <time>2017-04-30T07:39:03.000Z</time>
      </trkpt>
      <trkpt lat="44.23362" lon="0.71571">
        <ele>148</ele>
        <time>2017-04-30T07:39:04.000Z</time>
      </trkpt>
      <trkpt lat="44.23363" lon="0.71573">
        <ele>148</ele>
        <time>2017-04-30T07:39:05.000Z</time>
      </trkpt>
      <trkpt lat="44.23363" lon="0.71574">
        <ele>148</ele>
        <time>2017-04-30T07:39:06.000Z</time>
      </trkpt>
      <trkpt lat="44.23363" lon="0.71577">
        <ele>148</ele>
        <time>2017-04-30T07:39:07.000Z</time>
      </trkpt>
      <trkpt lat="44.23363" lon="0.71579">
        <ele>149</ele>
        <time>2017-04-30T07:39:08.000Z</time>
      </trkpt>
      <trkpt lat="44.23364" lon="0.71581">
        <ele>149</ele>
        <time>2017-04-30T07:39:09.000Z</time>
      </trkpt>
      <trkpt lat="44.23364" lon="0.71583">
        <ele>150</ele>
        <time>2017-04-30T07:39:10.000Z</time>
      </trkpt>
      <trkpt lat="44.23364" lon="0.71585">
        <ele>150</ele>
        <time>2017-04-30T07:39:11.000Z</time>
      </trkpt>
      <trkpt lat="44.23365" lon="0.71587">
        <ele>150</ele>
        <time>2017-04-30T07:39:12.000Z</time>
      </trkpt>
      <trkpt lat="44.23364" lon="0.71588">
        <ele>150</ele>
        <time>2017-04-30T07:39:13.000Z</time>
      </trkpt>
      <trkpt lat="44.23364" lon="0.7159">
        <ele>151</ele>
        <time>2017-04-30T07:39:14.000Z</time>
      </trkpt>
      <trkpt lat="44.23364" lon="0.71591">
        <ele>151</ele>
        <time>2017-04-30T07:39:15.000Z</time>
      </trkpt>
      <trkpt lat="44.23364" lon="0.71593">
        <ele>151</ele>
        <time>2017-04-30T07:39:16.000Z</time>
      </trkpt>
      <trkpt lat="44.23363" lon="0.71595">
        <ele>150</ele>
        <time>2017-04-30T07:39:17.000Z</time>
      </trkpt>
      <trkpt lat="44.23363" lon="0.71597">
        <ele>150</ele>
        <time>2017-04-30T07:39:18.000Z</time>
      </trkpt>
      <trkpt lat="44.23363" lon="0.71598">
        <ele>150</ele>
        <time>2017-04-30T07:39:19.000Z</time>
      </trkpt>
      <trkpt lat="44.23363" lon="0.716">
        <ele>150</ele>
        <time>2017-04-30T07:39:20.000Z</time>
      </trkpt>
      <trkpt lat="44.23362" lon="0.71602">
        <ele>150</ele>
        <time>2017-04-30T07:39:21.000Z</time>
      </trkpt>
      <trkpt lat="44.23362" lon="0.71603">
        <ele>150</ele>
        <time>2017-04-30T07:39:22.000Z</time>
      </trkpt>
      <trkpt lat="44.23362" lon="0.71605">
        <ele>150</ele>
        <time>2017-04-30T07:39:23.000Z</time>
      </trkpt>
      <trkpt lat="44.23363" lon="0.71607">
        <ele>150</ele>
        <time>2017-04-30T07:39:24.000Z</time>
      </trkpt>
      <trkpt lat="44.23363" lon="0.71609">
        <ele>150</ele>
        <time>2017-04-30T07:39:25.000Z</time>
      </trkpt>
      <trkpt lat="44.23362" lon="0.71611">
        <ele>149</ele>
        <time>2017-04-30T07:39:26.000Z</time>
      </trkpt>
      <trkpt lat="44.23362" lon="0.71612">
        <ele>148</ele>
        <time>2017-04-30T07:39:27.000Z</time>
      </trkpt>
      <trkpt lat="44.23361" lon="0.71614">
        <ele>148</ele>
        <time>2017-04-30T07:39:28.000Z</time>
      </trkpt>
      <trkpt lat="44.23361" lon="0.71615">
        <ele>148</ele>
        <time>2017-04-30T07:39:29.000Z</time>
      </trkpt>
      <trkpt lat="44.2336" lon="0.71616">
        <ele>148</ele>
        <time>2017-04-30T07:39:30.000Z</time>
      </trkpt>
      <trkpt lat="44.2336" lon="0.71618">
        <ele>149</ele>
        <time>2017-04-30T07:39:31.000Z</time>
      </trkpt>
      <trkpt lat="44.2336" lon="0.71619">
        <ele>150</ele>
        <time>2017-04-30T07:39:32.000Z</time>
      </trkpt>
      <trkpt lat="44.2336" lon="0.71621">
        <ele>150</ele>
        <time>2017-04-30T07:39:33.000Z</time>
      </trkpt>
      <trkpt lat="44.2336" lon="0.71622">
        <ele>151</ele>
        <time>2017-04-30T07:39:34.000Z</time>
      </trkpt>
      <trkpt lat="44.2336" lon="0.71624">
        <ele>152</ele>
        <time>2017-04-30T07:39:35.000Z</time>
      </trkpt>
      <trkpt lat="44.23361" lon="0.71626">
        <ele>153</ele>
        <time>2017-04-30T07:39:36.000Z</time>
      </trkpt>
      <trkpt lat="44.23361" lon="0.71628">
        <ele>154</ele>
        <time>2017-04-30T07:39:37.000Z</time>
      </trkpt>
      <trkpt lat="44.23363" lon="0.7163">
        <ele>155</ele>
        <time>2017-04-30T07:39:38.000Z</time>
      </trkpt>
      <trkpt lat="44.23364" lon="0.71632">
        <ele>155</ele>
        <time>2017-04-30T07:39:39.000Z</time>
      </trkpt>
      <trkpt lat="44.23365" lon="0.71634">
        <ele>156</ele>
        <time>2017-04-30T07:39:40.000Z</time>
      </trkpt>
      <trkpt lat="44.23366" lon="0.71636">
        <ele>156</ele>
        <time>2017-04-30T07:39:41.000Z</time>
      </trkpt>
      <trkpt lat="44.23367" lon="0.71638">
        <ele>156</ele>
        <time>2017-04-30T07:39:42.000Z</time>
      </trkpt>
      <trkpt lat="44.23368" lon="0.7164">
        <ele>156</ele>
        <time>2017-04-30T07:39:43.000Z</time>
      </trkpt>
      <trkpt lat="44.23368" lon="0.71642">
        <ele>156</ele>
        <time>2017-04-30T07:39:44.000Z</time>
      </trkpt>
      <trkpt lat="44.2337" lon="0.71644">
        <ele>155</ele>
        <time>2017-04-30T07:39:45.000Z</time>
      </trkpt>
      <trkpt lat="44.23371" lon="0.71645">
        <ele>156</ele>
        <time>2017-04-30T07:39:46.000Z</time>
      </trkpt>
      <trkpt lat="44.23373" lon="0.71647">
        <ele>157</ele>
        <time>2017-04-30T07:39:47.000Z</time>
      </trkpt>
      <trkpt lat="44.23375" lon="0.71648">
        <ele>157</ele>
        <time>2017-04-30T07:39:48.000Z</time>
      </trkpt>
      <trkpt lat="44.23376" lon="0.7165">
        <ele>157</ele>
        <time>2017-04-30T07:39:49.000Z</time>
      </trkpt>
      <trkpt lat="44.23378" lon="0.71652">
        <ele>158</ele>
        <time>2017-04-30T07:39:50.000Z</time>
      </trkpt>
      <trkpt lat="44.23379" lon="0.71654">
        <ele>158</ele>
        <time>2017-04-30T07:39:51.000Z</time>
      </trkpt>
      <trkpt lat="44.23381" lon="0.71655">
        <ele>159</ele>
        <time>2017-04-30T07:39:52.000Z</time>
      </trkpt>
      <trkpt lat="44.23383" lon="0.71656">
        <ele>159</ele>
        <time>2017-04-30T07:39:53.000Z</time>
      </trkpt>
      <trkpt lat="44.23385" lon="0.71658">
        <ele>160</ele>
        <time>2017-04-30T07:39:54.000Z</time>
      </trkpt>
      <trkpt lat="44.23385" lon="0.7166">
        <ele>161</ele>
        <time>2017-04-30T07:39:55.000Z</time>
      </trkpt>
      <trkpt lat="44.23384" lon="0.71661">
        <ele>162</ele>
        <time>2017-04-30T07:39:56.000Z</time>
      </trkpt>
      <trkpt lat="44.23383" lon="0.71662">
        <ele>163</ele>
        <time>2017-04-30T07:39:57.000Z</time>
      </trkpt>
      <trkpt lat="44.23382" lon="0.71661">
        <ele>163</ele>
        <time>2017-04-30T07:39:58.000Z</time>
      </trkpt>
      <trkpt lat="44.23381" lon="0.71661">
        <ele>163</ele>
        <time>2017-04-30T07:39:59.000Z</time>
      </trkpt>
      <trkpt lat="44.2338" lon="0.7166">
        <ele>163</ele>
        <time>2017-04-30T07:40:00.000Z</time>
      </trkpt>
      <trkpt lat="44.23378" lon="0.7166">
        <ele>164</ele>
        <time>2017-04-30T07:40:01.000Z</time>
      </trkpt>
      <trkpt lat="44.23377" lon="0.7166">
        <ele>164</ele>
        <time>2017-04-30T07:40:02.000Z</time>
      </trkpt>
      <trkpt lat="44.23375" lon="0.71659">
        <ele>163</ele>
        <time>2017-04-30T07:40:03.000Z</time>
      </trkpt>
      <trkpt lat="44.23374" lon="0.71658">
        <ele>164</ele>
        <time>2017-04-30T07:40:04.000Z</time>
      </trkpt>
      <trkpt lat="44.23373" lon="0.71658">
        <ele>163</ele>
        <time>2017-04-30T07:40:05.000Z</time>
      </trkpt>
      <trkpt lat="44.23371" lon="0.71657">
        <ele>161</ele>
        <time>2017-04-30T07:40:06.000Z</time>
      </trkpt>
      <trkpt lat="44.23369" lon="0.71657">
        <ele>161</ele>
        <time>2017-04-30T07:40:07.000Z</time>
      </trkpt>
      <trkpt lat="44.23367" lon="0.71657">
        <ele>161</ele>
        <time>2017-04-30T07:40:08.000Z</time>
      </trkpt>
      <trkpt lat="44.23366" lon="0.71657">
        <ele>161</ele>
        <time>2017-04-30T07:40:09.000Z</time>
      </trkpt>
      <trkpt lat="44.23364" lon="0.71656">
        <ele>161</ele>
        <time>2017-04-30T07:40:10.000Z</time>
      </trkpt>
      <trkpt lat="44.23362" lon="0.71656">
        <ele>160</ele>
        <time>2017-04-30T07:40:11.000Z</time>
      </trkpt>
      <trkpt lat="44.23361" lon="0.71656">
        <ele>161</ele>
        <time>2017-04-30T07:40:12.000Z</time>
      </trkpt>
      <trkpt lat="44.23359" lon="0.71657">
        <ele>161</ele>
        <time>2017-04-30T07:40:13.000Z</time>
      </trkpt>
      <trkpt lat="44.23358" lon="0.71658">
        <ele>161</ele>
        <time>2017-04-30T07:40:14.000Z</time>
      </trkpt>
      <trkpt lat="44.23358" lon="0.7166">
        <ele>162</ele>
        <time>2017-04-30T07:40:15.000Z</time>
      </trkpt>
      <trkpt lat="44.23359" lon="0.71663">
        <ele>162</ele>
        <time>2017-04-30T07:40:16.000Z</time>
      </trkpt>
      <trkpt lat="44.23361" lon="0.71664">
        <ele>162</ele>
        <time>2017-04-30T07:40:17.000Z</time>
      </trkpt>
      <trkpt lat="44.23362" lon="0.71666">
        <ele>162</ele>
        <time>2017-04-30T07:40:18.000Z</time>
      </trkpt>
      <trkpt lat="44.23364" lon="0.71668">
        <ele>162</ele>
        <time>2017-04-30T07:40:19.000Z</time>
      </trkpt>
      <trkpt lat="44.23367" lon="0.7167">
        <ele>163</ele>
        <time>2017-04-30T07:40:20.000Z</time>
      </trkpt>
      <trkpt lat="44.23369" lon="0.71671">
        <ele>162</ele>
        <time>2017-04-30T07:40:21.000Z</time>
      </trkpt>
      <trkpt lat="44.23372" lon="0.71673">
        <ele>162</ele>
        <time>2017-04-30T07:40:22.000Z</time>
      </trkpt>
      <trkpt lat="44.23374" lon="0.71674">
        <ele>162</ele>
        <time>2017-04-30T07:40:23.000Z</time>
      </trkpt>
      <trkpt lat="44.23377" lon="0.71676">
        <ele>162</ele>
        <time>2017-04-30T07:40:24.000Z</time>
      </trkpt>
      <trkpt lat="44.23381" lon="0.71677">
        <ele>162</ele>
        <time>2017-04-30T07:40:25.000Z</time>
      </trkpt>
      <trkpt lat="44.23385" lon="0.71679">
        <ele>163</ele>
        <time>2017-04-30T07:40:26.000Z</time>
      </trkpt>
      <trkpt lat="44.2339" lon="0.71681">
        <ele>163</ele>
        <time>2017-04-30T07:40:27.000Z</time>
      </trkpt>
      <trkpt lat="44.23395" lon="0.71682">
        <ele>163</ele>
        <time>2017-04-30T07:40:28.000Z</time>
      </trkpt>
      <trkpt lat="44.234" lon="0.71683">
        <ele>163</ele>
        <time>2017-04-30T07:40:29.000Z</time>
      </trkpt>
      <trkpt lat="44.23405" lon="0.71684">
        <ele>164</ele>
        <time>2017-04-30T07:40:30.000Z</time>
      </trkpt>
      <trkpt lat="44.23409" lon="0.71684">
        <ele>164</ele>
        <time>2017-04-30T07:40:31.000Z</time>
      </trkpt>
      <trkpt lat="44.23413" lon="0.71685">
        <ele>164</ele>
        <time>2017-04-30T07:40:32.000Z</time>
      </trkpt>
      <trkpt lat="44.23417" lon="0.71686">
        <ele>164</ele>
        <time>2017-04-30T07:40:33.000Z</time>
      </trkpt>
      <trkpt lat="44.2342" lon="0.71686">
        <ele>164</ele>
        <time>2017-04-30T07:40:34.000Z</time>
      </trkpt>
      <trkpt lat="44.23424" lon="0.71687">
        <ele>164</ele>
        <time>2017-04-30T07:40:35.000Z</time>
      </trkpt>
      <trkpt lat="44.23427" lon="0.71687">
        <ele>165</ele>
        <time>2017-04-30T07:40:36.000Z</time>
      </trkpt>
      <trkpt lat="44.2343" lon="0.71688">
        <ele>164</ele>
        <time>2017-04-30T07:40:37.000Z</time>
      </trkpt>
      <trkpt lat="44.23433" lon="0.71688">
        <ele>165</ele>
        <time>2017-04-30T07:40:38.000Z</time>
      </trkpt>
      <trkpt lat="44.23436" lon="0.71688">
        <ele>165</ele>
        <time>2017-04-30T07:40:39.000Z</time>
      </trkpt>
      <trkpt lat="44.23439" lon="0.71689">
        <ele>165</ele>
        <time>2017-04-30T07:40:40.000Z</time>
      </trkpt>
      <trkpt lat="44.23442" lon="0.71689">
        <ele>165</ele>
        <time>2017-04-30T07:40:41.000Z</time>
      </trkpt>
      <trkpt lat="44.23445" lon="0.71689">
        <ele>165</ele>
        <time>2017-04-30T07:40:42.000Z</time>
      </trkpt>
      <trkpt lat="44.23448" lon="0.71689">
        <ele>165</ele>
        <time>2017-04-30T07:40:43.000Z</time>
      </trkpt>
      <trkpt lat="44.23451" lon="0.7169">
        <ele>165</ele>
        <time>2017-04-30T07:40:44.000Z</time>
      </trkpt>
      <trkpt lat="44.23455" lon="0.7169">
        <ele>165</ele>
        <time>2017-04-30T07:40:45.000Z</time>
      </trkpt>
      <trkpt lat="44.23458" lon="0.7169">
        <ele>165</ele>
        <time>2017-04-30T07:40:46.000Z</time>
      </trkpt>
      <trkpt lat="44.23461" lon="0.71691">
        <ele>165</ele>
        <time>2017-04-30T07:40:47.000Z</time>
      </trkpt>
      <trkpt lat="44.23464" lon="0.71691">
        <ele>165</ele>
        <time>2017-04-30T07:40:48.000Z</time>
      </trkpt>
      <trkpt lat="44.23467" lon="0.71692">
        <ele>165</ele>
        <time>2017-04-30T07:40:49.000Z</time>
      </trkpt>
      <trkpt lat="44.2347" lon="0.71692">
        <ele>165</ele>
        <time>2017-04-30T07:40:50.000Z</time>
      </trkpt>
      <trkpt lat="44.23474" lon="0.71693">
        <ele>165</ele>
        <time>2017-04-30T07:40:51.000Z</time>
      </trkpt>
      <trkpt lat="44.23477" lon="0.71693">
        <ele>165</ele>
        <time>2017-04-30T07:40:52.000Z</time>
      </trkpt>
      <trkpt lat="44.2348" lon="0.71693">
        <ele>165</ele>
        <time>2017-04-30T07:40:53.000Z</time>
      </trkpt>
      <trkpt lat="44.23484" lon="0.71694">
        <ele>165</ele>
        <time>2017-04-30T07:40:54.000Z</time>
      </trkpt>
      <trkpt lat="44.23487" lon="0.71694">
        <ele>165</ele>
        <time>2017-04-30T07:40:55.000Z</time>
      </trkpt>
      <trkpt lat="44.23491" lon="0.71695">
        <ele>165</ele>
        <time>2017-04-30T07:40:56.000Z</time>
      </trkpt>
      <trkpt lat="44.23495" lon="0.71695">
        <ele>165</ele>
        <time>2017-04-30T07:40:57.000Z</time>
      </trkpt>
      <trkpt lat="44.23499" lon="0.71696">
        <ele>165</ele>
        <time>2017-04-30T07:40:58.000Z</time>
      </trkpt>
      <trkpt lat="44.23503" lon="0.71696">
        <ele>165</ele>
        <time>2017-04-30T07:40:59.000Z</time>
      </trkpt>
      <trkpt lat="44.23508" lon="0.71697">
        <ele>165</ele>
        <time>2017-04-30T07:41:00.000Z</time>
      </trkpt>
      <trkpt lat="44.23512" lon="0.71697">
        <ele>165</ele>
        <time>2017-04-30T07:41:01.000Z</time>
      </trkpt>
      <trkpt lat="44.23516" lon="0.71698">
        <ele>165</ele>
        <time>2017-04-30T07:41:02.000Z</time>
      </trkpt>
      <trkpt lat="44.23521" lon="0.71699">
        <ele>165</ele>
        <time>2017-04-30T07:41:03.000Z</time>
      </trkpt>
      <trkpt lat="44.23525" lon="0.71699">
        <ele>165</ele>
        <time>2017-04-30T07:41:04.000Z</time>
      </trkpt>
      <trkpt lat="44.2353" lon="0.71699">
        <ele>165</ele>
        <time>2017-04-30T07:41:05.000Z</time>
      </trkpt>
      <trkpt lat="44.23535" lon="0.717">
        <ele>165</ele>
        <time>2017-04-30T07:41:06.000Z</time>
      </trkpt>
      <trkpt lat="44.2354" lon="0.71701">
        <ele>165</ele>
        <time>2017-04-30T07:41:07.000Z</time>
      </trkpt>
      <trkpt lat="44.23545" lon="0.71701">
        <ele>165</ele>
        <time>2017-04-30T07:41:08.000Z</time>
      </trkpt>
      <trkpt lat="44.2355" lon="0.71701">
        <ele>165</ele>
        <time>2017-04-30T07:41:09.000Z</time>
      </trkpt>
      <trkpt lat="44.23554" lon="0.71702">
        <ele>166</ele>
        <time>2017-04-30T07:41:10.000Z</time>
      </trkpt>
      <trkpt lat="44.23559" lon="0.71702">
        <ele>166</ele>
        <time>2017-04-30T07:41:11.000Z</time>
      </trkpt>
      <trkpt lat="44.23564" lon="0.71702">
        <ele>166</ele>
        <time>2017-04-30T07:41:12.000Z</time>
      </trkpt>
      <trkpt lat="44.23569" lon="0.71703">
        <ele>166</ele>
        <time>2017-04-30T07:41:13.000Z</time>
      </trkpt>
      <trkpt lat="44.23573" lon="0.71703">
        <ele>166</ele>
        <time>2017-04-30T07:41:14.000Z</time>
      </trkpt>
      <trkpt lat="44.23578" lon="0.71703">
        <ele>166</ele>
        <time>2017-04-30T07:41:15.000Z</time>
      </trkpt>
      <trkpt lat="44.23582" lon="0.71704">
        <ele>167</ele>
        <time>2017-04-30T07:41:16.000Z</time>
      </trkpt>
      <trkpt lat="44.23587" lon="0.71704">
        <ele>167</ele>
        <time>2017-04-30T07:41:17.000Z</time>
      </trkpt>
      <trkpt lat="44.23591" lon="0.71704">
        <ele>166</ele>
        <time>2017-04-30T07:41:18.000Z</time>
      </trkpt>
      <trkpt lat="44.23596" lon="0.71705">
        <ele>167</ele>
        <time>2017-04-30T07:41:19.000Z</time>
      </trkpt>
      <trkpt lat="44.236" lon="0.71705">
        <ele>167</ele>
        <time>2017-04-30T07:41:20.000Z</time>
      </trkpt>
      <trkpt lat="44.23604" lon="0.71706">
        <ele>167</ele>
        <time>2017-04-30T07:41:21.000Z</time>
      </trkpt>
      <trkpt lat="44.23609" lon="0.71706">
        <ele>167</ele>
        <time>2017-04-30T07:41:22.000Z</time>
      </trkpt>
      <trkpt lat="44.23613" lon="0.71707">
        <ele>167</ele>
        <time>2017-04-30T07:41:23.000Z</time>
      </trkpt>
      <trkpt lat="44.23617" lon="0.71707">
        <ele>167</ele>
        <time>2017-04-30T07:41:24.000Z</time>
      </trkpt>
      <trkpt lat="44.23622" lon="0.71707">
        <ele>167</ele>
        <time>2017-04-30T07:41:25.000Z</time>
      </trkpt>
      <trkpt lat="44.23627" lon="0.71708">
        <ele>166</ele>
        <time>2017-04-30T07:41:26.000Z</time>
      </trkpt>
      <trkpt lat="44.23632" lon="0.71709">
        <ele>165</ele>
        <time>2017-04-30T07:41:27.000Z</time>
      </trkpt>
      <trkpt lat="44.23638" lon="0.71709">
        <ele>165</ele>
        <time>2017-04-30T07:41:28.000Z</time>
      </trkpt>
      <trkpt lat="44.23643" lon="0.71709">
        <ele>165</ele>
        <time>2017-04-30T07:41:29.000Z</time>
      </trkpt>
      <trkpt lat="44.23649" lon="0.71708">
        <ele>165</ele>
        <time>2017-04-30T07:41:30.000Z</time>
      </trkpt>
      <trkpt lat="44.23654" lon="0.71705">
        <ele>164</ele>
        <time>2017-04-30T07:41:31.000Z</time>
      </trkpt>
      <trkpt lat="44.2366" lon="0.71702">
        <ele>164</ele>
        <time>2017-04-30T07:41:32.000Z</time>
      </trkpt>
      <trkpt lat="44.23665" lon="0.71699">
        <ele>164</ele>
        <time>2017-04-30T07:41:33.000Z</time>
      </trkpt>
      <trkpt lat="44.23671" lon="0.71697">
        <ele>164</ele>
        <time>2017-04-30T07:41:34.000Z</time>
      </trkpt>
      <trkpt lat="44.23676" lon="0.71696">
        <ele>163</ele>
        <time>2017-04-30T07:41:35.000Z</time>
      </trkpt>
      <trkpt lat="44.2368" lon="0.71699">
        <ele>163</ele>
        <time>2017-04-30T07:41:36.000Z</time>
      </trkpt>
      <trkpt lat="44.23683" lon="0.71702">
        <ele>163</ele>
        <time>2017-04-30T07:41:37.000Z</time>
      </trkpt>
      <trkpt lat="44.23685" lon="0.71706">
        <ele>163</ele>
        <time>2017-04-30T07:41:38.000Z</time>
      </trkpt>
      <trkpt lat="44.23687" lon="0.71709">
        <ele>164</ele>
        <time>2017-04-30T07:41:39.000Z</time>
      </trkpt>
      <trkpt lat="44.23689" lon="0.71713">
        <ele>164</ele>
        <time>2017-04-30T07:41:40.000Z</time>
      </trkpt>
      <trkpt lat="44.23691" lon="0.71716">
        <ele>165</ele>
        <time>2017-04-30T07:41:41.000Z</time>
      </trkpt>
      <trkpt lat="44.23693" lon="0.7172">
        <ele>165</ele>
        <time>2017-04-30T07:41:42.000Z</time>
      </trkpt>
      <trkpt lat="44.23695" lon="0.71723">
        <ele>165</ele>
        <time>2017-04-30T07:41:43.000Z</time>
      </trkpt>
      <trkpt lat="44.23697" lon="0.71727">
        <ele>166</ele>
        <time>2017-04-30T07:41:44.000Z</time>
      </trkpt>
      <trkpt lat="44.23699" lon="0.7173">
        <ele>166</ele>
        <time>2017-04-30T07:41:45.000Z</time>
      </trkpt>
      <trkpt lat="44.237" lon="0.71734">
        <ele>166</ele>
        <time>2017-04-30T07:41:46.000Z</time>
      </trkpt>
      <trkpt lat="44.23702" lon="0.71737">
        <ele>166</ele>
        <time>2017-04-30T07:41:47.000Z</time>
      </trkpt>
      <trkpt lat="44.23704" lon="0.7174">
        <ele>167</ele>
        <time>2017-04-30T07:41:48.000Z</time>
      </trkpt>
      <trkpt lat="44.23706" lon="0.71744">
        <ele>167</ele>
        <time>2017-04-30T07:41:49.000Z</time>
      </trkpt>
      <trkpt lat="44.23709" lon="0.71747">
        <ele>167</ele>
        <time>2017-04-30T07:41:50.000Z</time>
      </trkpt>
      <trkpt lat="44.23711" lon="0.71751">
        <ele>168</ele>
        <time>2017-04-30T07:41:51.000Z</time>
      </trkpt>
      <trkpt lat="44.23713" lon="0.71754">
        <ele>168</ele>
        <time>2017-04-30T07:41:52.000Z</time>
      </trkpt>
      <trkpt lat="44.23715" lon="0.71757">
        <ele>168</ele>
        <time>2017-04-30T07:41:53.000Z</time>
      </trkpt>
      <trkpt lat="44.23716" lon="0.71761">
        <ele>169</ele>
        <time>2017-04-30T07:41:54.000Z</time>
      </trkpt>
      <trkpt lat="44.23718" lon="0.71764">
        <ele>169</ele>
        <time>2017-04-30T07:41:55.000Z</time>
      </trkpt>
      <trkpt lat="44.2372" lon="0.71767">
        <ele>169</ele>
        <time>2017-04-30T07:41:56.000Z</time>
      </trkpt>
      <trkpt lat="44.23722" lon="0.7177">
        <ele>169</ele>
        <time>2017-04-30T07:41:57.000Z</time>
      </trkpt>
      <trkpt lat="44.23723" lon="0.71773">
        <ele>170</ele>
        <time>2017-04-30T07:41:58.000Z</time>
      </trkpt>
      <trkpt lat="44.23725" lon="0.71776">
        <ele>170</ele>
        <time>2017-04-30T07:41:59.000Z</time>
      </trkpt>
      <trkpt lat="44.23727" lon="0.71779">
        <ele>170</ele>
        <time>2017-04-30T07:42:00.000Z</time>
      </trkpt>
      <trkpt lat="44.23729" lon="0.71782">
        <ele>170</ele>
        <time>2017-04-30T07:42:01.000Z</time>
      </trkpt>
      <trkpt lat="44.2373" lon="0.71784">
        <ele>171</ele>
        <time>2017-04-30T07:42:02.000Z</time>
      </trkpt>
      <trkpt lat="44.23732" lon="0.71787">
        <ele>171</ele>
        <time>2017-04-30T07:42:03.000Z</time>
      </trkpt>
      <trkpt lat="44.23734" lon="0.7179">
        <ele>171</ele>
        <time>2017-04-30T07:42:04.000Z</time>
      </trkpt>
      <trkpt lat="44.23736" lon="0.71793">
        <ele>171</ele>
        <time>2017-04-30T07:42:05.000Z</time>
      </trkpt>
      <trkpt lat="44.23738" lon="0.71795">
        <ele>172</ele>
        <time>2017-04-30T07:42:06.000Z</time>
      </trkpt>
      <trkpt lat="44.2374" lon="0.71798">
        <ele>172</ele>
        <time>2017-04-30T07:42:07.000Z</time>
      </trkpt>
      <trkpt lat="44.23742" lon="0.718">
        <ele>172</ele>
        <time>2017-04-30T07:42:08.000Z</time>
      </trkpt>
      <trkpt lat="44.23744" lon="0.71803">
        <ele>173</ele>
        <time>2017-04-30T07:42:09.000Z</time>
      </trkpt>
      <trkpt lat="44.23746" lon="0.71805">
        <ele>173</ele>
        <time>2017-04-30T07:42:10.000Z</time>
      </trkpt>
      <trkpt lat="44.23747" lon="0.71808">
        <ele>173</ele>
        <time>2017-04-30T07:42:11.000Z</time>
      </trkpt>
      <trkpt lat="44.23749" lon="0.7181">
        <ele>173</ele>
        <time>2017-04-30T07:42:12.000Z</time>
      </trkpt>
      <trkpt lat="44.23751" lon="0.71813">
        <ele>173</ele>
        <time>2017-04-30T07:42:13.000Z</time>
      </trkpt>
      <trkpt lat="44.23753" lon="0.71815">
        <ele>174</ele>
        <time>2017-04-30T07:42:14.000Z</time>
      </trkpt>
      <trkpt lat="44.23755" lon="0.71818">
        <ele>174</ele>
        <time>2017-04-30T07:42:15.000Z</time>
      </trkpt>
      <trkpt lat="44.23757" lon="0.7182">
        <ele>174</ele>
        <time>2017-04-30T07:42:16.000Z</time>
      </trkpt>
      <trkpt lat="44.23758" lon="0.71823">
        <ele>174</ele>
        <time>2017-04-30T07:42:17.000Z</time>
      </trkpt>
      <trkpt lat="44.2376" lon="0.71825">
        <ele>175</ele>
        <time>2017-04-30T07:42:18.000Z</time>
      </trkpt>
      <trkpt lat="44.23762" lon="0.71827">
        <ele>175</ele>
        <time>2017-04-30T07:42:19.000Z</time>
      </trkpt>
      <trkpt lat="44.23763" lon="0.7183">
        <ele>175</ele>
        <time>2017-04-30T07:42:20.000Z</time>
      </trkpt>
      <trkpt lat="44.23765" lon="0.71832">
        <ele>176</ele>
        <time>2017-04-30T07:42:21.000Z</time>
      </trkpt>
      <trkpt lat="44.23767" lon="0.71834">
        <ele>176</ele>
        <time>2017-04-30T07:42:22.000Z</time>
      </trkpt>
      <trkpt lat="44.23768" lon="0.71837">
        <ele>176</ele>
        <time>2017-04-30T07:42:23.000Z</time>
      </trkpt>
      <trkpt lat="44.2377" lon="0.71839">
        <ele>177</ele>
        <time>2017-04-30T07:42:24.000Z</time>
      </trkpt>
      <trkpt lat="44.23771" lon="0.71841">
        <ele>177</ele>
        <time>2017-04-30T07:42:25.000Z</time>
      </trkpt>
      <trkpt lat="44.23773" lon="0.71843">
        <ele>177</ele>
        <time>2017-04-30T07:42:26.000Z</time>
      </trkpt>
      <trkpt lat="44.23774" lon="0.71845">
        <ele>177</ele>
        <time>2017-04-30T07:42:27.000Z</time>
      </trkpt>
      <trkpt lat="44.23776" lon="0.71847">
        <ele>178</ele>
        <time>2017-04-30T07:42:28.000Z</time>
      </trkpt>
      <trkpt lat="44.23777" lon="0.7185">
        <ele>178</ele>
        <time>2017-04-30T07:42:29.000Z</time>
      </trkpt>
      <trkpt lat="44.23779" lon="0.71852">
        <ele>178</ele>
        <time>2017-04-30T07:42:30.000Z</time>
      </trkpt>
      <trkpt lat="44.2378" lon="0.71854">
        <ele>178</ele>
        <time>2017-04-30T07:42:31.000Z</time>
      </trkpt>
      <trkpt lat="44.23782" lon="0.71856">
        <ele>179</ele>
        <time>2017-04-30T07:42:32.000Z</time>
      </trkpt>
      <trkpt lat="44.23783" lon="0.71858">
        <ele>179</ele>
        <time>2017-04-30T07:42:33.000Z</time>
      </trkpt>
      <trkpt lat="44.23785" lon="0.7186">
        <ele>179</ele>
        <time>2017-04-30T07:42:34.000Z</time>
      </trkpt>
      <trkpt lat="44.23786" lon="0.71862">
        <ele>179</ele>
        <time>2017-04-30T07:42:35.000Z</time>
      </trkpt>
      <trkpt lat="44.23788" lon="0.71864">
        <ele>180</ele>
        <time>2017-04-30T07:42:36.000Z</time>
      </trkpt>
      <trkpt lat="44.23789" lon="0.71866">
        <ele>180</ele>
        <time>2017-04-30T07:42:37.000Z</time>
      </trkpt>
      <trkpt lat="44.2379" lon="0.71868">
        <ele>181</ele>
        <time>2017-04-30T07:42:38.000Z</time>
      </trkpt>
      <trkpt lat="44.23792" lon="0.7187">
        <ele>181</ele>
        <time>2017-04-30T07:42:39.000Z</time>
      </trkpt>
      <trkpt lat="44.23793" lon="0.71872">
        <ele>181</ele>
        <time>2017-04-30T07:42:40.000Z</time>
      </trkpt>
      <trkpt lat="44.23794" lon="0.71875">
        <ele>181</ele>
        <time>2017-04-30T07:42:41.000Z</time>
      </trkpt>
      <trkpt lat="44.23796" lon="0.71877">
        <ele>182</ele>
        <time>2017-04-30T07:42:42.000Z</time>
      </trkpt>
      <trkpt lat="44.23797" lon="0.71879">
        <ele>182</ele>
        <time>2017-04-30T07:42:43.000Z</time>
      </trkpt>
      <trkpt lat="44.23798" lon="0.7188">
        <ele>182</ele>
        <time>2017-04-30T07:42:44.000Z</time>
      </trkpt>
      <trkpt lat="44.238" lon="0.71882">
        <ele>182</ele>
        <time>2017-04-30T07:42:45.000Z</time>
      </trkpt>
      <trkpt lat="44.23801" lon="0.71884">
        <ele>183</ele>
        <time>2017-04-30T07:42:46.000Z</time>
      </trkpt>
      <trkpt lat="44.23802" lon="0.71886">
        <ele>183</ele>
        <time>2017-04-30T07:42:47.000Z</time>
      </trkpt>
      <trkpt lat="44.23804" lon="0.71888">
        <ele>183</ele>
        <time>2017-04-30T07:42:48.000Z</time>
      </trkpt>
      <trkpt lat="44.23806" lon="0.7189">
        <ele>183</ele>
        <time>2017-04-30T07:42:49.000Z</time>
      </trkpt>
      <trkpt lat="44.23807" lon="0.71892">
        <ele>183</ele>
        <time>2017-04-30T07:42:50.000Z</time>
      </trkpt>
      <trkpt lat="44.23809" lon="0.71894">
        <ele>183</ele>
        <time>2017-04-30T07:42:51.000Z</time>
      </trkpt>
      <trkpt lat="44.2381" lon="0.71896">
        <ele>184</ele>
        <time>2017-04-30T07:42:52.000Z</time>
      </trkpt>
      <trkpt lat="44.23812" lon="0.71898">
        <ele>184</ele>
        <time>2017-04-30T07:42:53.000Z</time>
      </trkpt>
      <trkpt lat="44.23814" lon="0.719">
        <ele>184</ele>
        <time>2017-04-30T07:42:54.000Z</time>
      </trkpt>
      <trkpt lat="44.23815" lon="0.71901">
        <ele>185</ele>
        <time>2017-04-30T07:42:55.000Z</time>
      </trkpt>
      <trkpt lat="44.23817" lon="0.71903">
        <ele>185</ele>
        <time>2017-04-30T07:42:56.000Z</time>
      </trkpt>
      <trkpt lat="44.23819" lon="0.71905">
        <ele>185</ele>
        <time>2017-04-30T07:42:57.000Z</time>
      </trkpt>
      <trkpt lat="44.2382" lon="0.71907">
        <ele>186</ele>
        <time>2017-04-30T07:42:58.000Z</time>
      </trkpt>
      <trkpt lat="44.23822" lon="0.71909">
        <ele>186</ele>
        <time>2017-04-30T07:42:59.000Z</time>
      </trkpt>
      <trkpt lat="44.23824" lon="0.71911">
        <ele>186</ele>
        <time>2017-04-30T07:43:00.000Z</time>
      </trkpt>
      <trkpt lat="44.23826" lon="0.71913">
        <ele>187</ele>
        <time>2017-04-30T07:43:01.000Z</time>
      </trkpt>
      <trkpt lat="44.23828" lon="0.71915">
        <ele>187</ele>
        <time>2017-04-30T07:43:02.000Z</time>
      </trkpt>
      <trkpt lat="44.23829" lon="0.71918">
        <ele>187</ele>
        <time>2017-04-30T07:43:03.000Z</time>
      </trkpt>
      <trkpt lat="44.23831" lon="0.7192">
        <ele>187</ele>
        <time>2017-04-30T07:43:04.000Z</time>
      </trkpt>
      <trkpt lat="44.23833" lon="0.71922">
        <ele>188</ele>
        <time>2017-04-30T07:43:05.000Z</time>
      </trkpt>
      <trkpt lat="44.23835" lon="0.71925">
        <ele>188</ele>
        <time>2017-04-30T07:43:06.000Z</time>
      </trkpt>
      <trkpt lat="44.23837" lon="0.71927">
        <ele>188</ele>
        <time>2017-04-30T07:43:07.000Z</time>
      </trkpt>
      <trkpt lat="44.23838" lon="0.7193">
        <ele>188</ele>
        <time>2017-04-30T07:43:08.000Z</time>
      </trkpt>
      <trkpt lat="44.2384" lon="0.71932">
        <ele>188</ele>
        <time>2017-04-30T07:43:09.000Z</time>
      </trkpt>
      <trkpt lat="44.23842" lon="0.71934">
        <ele>189</ele>
        <time>2017-04-30T07:43:10.000Z</time>
      </trkpt>
      <trkpt lat="44.23844" lon="0.71936">
        <ele>189</ele>
        <time>2017-04-30T07:43:11.000Z</time>
      </trkpt>
      <trkpt lat="44.23846" lon="0.71938">
        <ele>189</ele>
        <time>2017-04-30T07:43:12.000Z</time>
      </trkpt>
      <trkpt lat="44.23848" lon="0.7194">
        <ele>189</ele>
        <time>2017-04-30T07:43:13.000Z</time>
      </trkpt>
      <trkpt lat="44.2385" lon="0.71942">
        <ele>189</ele>
        <time>2017-04-30T07:43:14.000Z</time>
      </trkpt>
      <trkpt lat="44.23852" lon="0.71943">
        <ele>189</ele>
        <time>2017-04-30T07:43:15.000Z</time>
      </trkpt>
      <trkpt lat="44.23855" lon="0.71945">
        <ele>189</ele>
        <time>2017-04-30T07:43:16.000Z</time>
      </trkpt>
      <trkpt lat="44.23857" lon="0.71947">
        <ele>189</ele>
        <time>2017-04-30T07:43:17.000Z</time>
      </trkpt>
      <trkpt lat="44.2386" lon="0.71948">
        <ele>189</ele>
        <time>2017-04-30T07:43:18.000Z</time>
      </trkpt>
      <trkpt lat="44.23862" lon="0.7195">
        <ele>189</ele>
        <time>2017-04-30T07:43:19.000Z</time>
      </trkpt>
      <trkpt lat="44.23865" lon="0.71951">
        <ele>189</ele>
        <time>2017-04-30T07:43:20.000Z</time>
      </trkpt>
      <trkpt lat="44.23868" lon="0.71952">
        <ele>189</ele>
        <time>2017-04-30T07:43:21.000Z</time>
      </trkpt>
      <trkpt lat="44.23871" lon="0.71953">
        <ele>189</ele>
        <time>2017-04-30T07:43:22.000Z</time>
      </trkpt>
      <trkpt lat="44.23874" lon="0.71954">
        <ele>189</ele>
        <time>2017-04-30T07:43:23.000Z</time>
      </trkpt>
      <trkpt lat="44.23877" lon="0.71955">
        <ele>189</ele>
        <time>2017-04-30T07:43:24.000Z</time>
      </trkpt>
      <trkpt lat="44.23882" lon="0.71956">
        <ele>188</ele>
        <time>2017-04-30T07:43:25.000Z</time>
      </trkpt>
      <trkpt lat="44.23886" lon="0.71956">
        <ele>188</ele>
        <time>2017-04-30T07:43:26.000Z</time>
      </trkpt>
      <trkpt lat="44.23892" lon="0.71957">
        <ele>187</ele>
        <time>2017-04-30T07:43:27.000Z</time>
      </trkpt>
      <trkpt lat="44.23897" lon="0.71958">
        <ele>187</ele>
        <time>2017-04-30T07:43:28.000Z</time>
      </trkpt>
      <trkpt lat="44.23901" lon="0.7196">
        <ele>187</ele>
        <time>2017-04-30T07:43:29.000Z</time>
      </trkpt>
      <trkpt lat="44.23905" lon="0.71963">
        <ele>187</ele>
        <time>2017-04-30T07:43:30.000Z</time>
      </trkpt>
      <trkpt lat="44.23909" lon="0.71965">
        <ele>187</ele>
        <time>2017-04-30T07:43:31.000Z</time>
      </trkpt>
      <trkpt lat="44.23913" lon="0.71968">
        <ele>187</ele>
        <time>2017-04-30T07:43:32.000Z</time>
      </trkpt>
      <trkpt lat="44.23917" lon="0.7197">
        <ele>187</ele>
        <time>2017-04-30T07:43:33.000Z</time>
      </trkpt>
      <trkpt lat="44.2392" lon="0.71974">
        <ele>187</ele>
        <time>2017-04-30T07:43:34.000Z</time>
      </trkpt>
      <trkpt lat="44.23924" lon="0.71977">
        <ele>187</ele>
        <time>2017-04-30T07:43:35.000Z</time>
      </trkpt>
      <trkpt lat="44.23926" lon="0.7198">
        <ele>187</ele>
        <time>2017-04-30T07:43:36.000Z</time>
      </trkpt>
      <trkpt lat="44.23929" lon="0.71984">
        <ele>187</ele>
        <time>2017-04-30T07:43:37.000Z</time>
      </trkpt>
      <trkpt lat="44.23932" lon="0.71988">
        <ele>187</ele>
        <time>2017-04-30T07:43:38.000Z</time>
      </trkpt>
      <trkpt lat="44.23935" lon="0.71991">
        <ele>187</ele>
        <time>2017-04-30T07:43:39.000Z</time>
      </trkpt>
      <trkpt lat="44.23938" lon="0.71995">
        <ele>187</ele>
        <time>2017-04-30T07:43:40.000Z</time>
      </trkpt>
      <trkpt lat="44.23941" lon="0.71999">
        <ele>187</ele>
        <time>2017-04-30T07:43:41.000Z</time>
      </trkpt>
      <trkpt lat="44.23944" lon="0.72002">
        <ele>187</ele>
        <time>2017-04-30T07:43:42.000Z</time>
      </trkpt>
      <trkpt lat="44.23947" lon="0.72007">
        <ele>187</ele>
        <time>2017-04-30T07:43:43.000Z</time>
      </trkpt>
      <trkpt lat="44.23951" lon="0.72011">
        <ele>187</ele>
        <time>2017-04-30T07:43:44.000Z</time>
      </trkpt>
      <trkpt lat="44.23954" lon="0.72015">
        <ele>187</ele>
        <time>2017-04-30T07:43:45.000Z</time>
      </trkpt>
      <trkpt lat="44.23958" lon="0.72019">
        <ele>186</ele>
        <time>2017-04-30T07:43:46.000Z</time>
      </trkpt>
      <trkpt lat="44.23962" lon="0.72022">
        <ele>186</ele>
        <time>2017-04-30T07:43:47.000Z</time>
      </trkpt>
      <trkpt lat="44.23967" lon="0.72025">
        <ele>185</ele>
        <time>2017-04-30T07:43:48.000Z</time>
      </trkpt>
      <trkpt lat="44.23971" lon="0.72029">
        <ele>185</ele>
        <time>2017-04-30T07:43:49.000Z</time>
      </trkpt>
      <trkpt lat="44.23973" lon="0.72034">
        <ele>186</ele>
        <time>2017-04-30T07:43:50.000Z</time>
      </trkpt>
      <trkpt lat="44.23974" lon="0.72039">
        <ele>186</ele>
        <time>2017-04-30T07:43:51.000Z</time>
      </trkpt>
      <trkpt lat="44.23973" lon="0.72044">
        <ele>186</ele>
        <time>2017-04-30T07:43:52.000Z</time>
      </trkpt>
      <trkpt lat="44.23972" lon="0.72048">
        <ele>187</ele>
        <time>2017-04-30T07:43:53.000Z</time>
      </trkpt>
      <trkpt lat="44.23967" lon="0.7205">
        <ele>187</ele>
        <time>2017-04-30T07:43:54.000Z</time>
      </trkpt>
      <trkpt lat="44.23964" lon="0.72054">
        <ele>187</ele>
        <time>2017-04-30T07:43:55.000Z</time>
      </trkpt>
      <trkpt lat="44.23961" lon="0.72057">
        <ele>188</ele>
        <time>2017-04-30T07:43:56.000Z</time>
      </trkpt>
      <trkpt lat="44.23958" lon="0.72061">
        <ele>188</ele>
        <time>2017-04-30T07:43:57.000Z</time>
      </trkpt>
      <trkpt lat="44.23955" lon="0.72066">
        <ele>188</ele>
        <time>2017-04-30T07:43:58.000Z</time>
      </trkpt>
      <trkpt lat="44.23952" lon="0.72071">
        <ele>187</ele>
        <time>2017-04-30T07:43:59.000Z</time>
      </trkpt>
      <trkpt lat="44.23948" lon="0.72075">
        <ele>187</ele>
        <time>2017-04-30T07:44:00.000Z</time>
      </trkpt>
      <trkpt lat="44.23945" lon="0.7208">
        <ele>187</ele>
        <time>2017-04-30T07:44:01.000Z</time>
      </trkpt>
      <trkpt lat="44.23942" lon="0.72085">
        <ele>187</ele>
        <time>2017-04-30T07:44:02.000Z</time>
      </trkpt>
      <trkpt lat="44.23939" lon="0.72089">
        <ele>187</ele>
        <time>2017-04-30T07:44:03.000Z</time>
      </trkpt>
      <trkpt lat="44.23935" lon="0.72095">
        <ele>186</ele>
        <time>2017-04-30T07:44:04.000Z</time>
      </trkpt>
      <trkpt lat="44.23932" lon="0.72099">
        <ele>186</ele>
        <time>2017-04-30T07:44:05.000Z</time>
      </trkpt>
      <trkpt lat="44.23929" lon="0.72104">
        <ele>185</ele>
        <time>2017-04-30T07:44:06.000Z</time>
      </trkpt>
      <trkpt lat="44.23926" lon="0.72108">
        <ele>185</ele>
        <time>2017-04-30T07:44:07.000Z</time>
      </trkpt>
      <trkpt lat="44.23922" lon="0.72112">
        <ele>185</ele>
        <time>2017-04-30T07:44:08.000Z</time>
      </trkpt>
      <trkpt lat="44.23919" lon="0.72117">
        <ele>185</ele>
        <time>2017-04-30T07:44:09.000Z</time>
      </trkpt>
      <trkpt lat="44.23916" lon="0.72121">
        <ele>185</ele>
        <time>2017-04-30T07:44:10.000Z</time>
      </trkpt>
      <trkpt lat="44.23912" lon="0.72126">
        <ele>185</ele>
        <time>2017-04-30T07:44:11.000Z</time>
      </trkpt>
      <trkpt lat="44.23909" lon="0.72131">
        <ele>185</ele>
        <time>2017-04-30T07:44:12.000Z</time>
      </trkpt>
      <trkpt lat="44.23907" lon="0.72136">
        <ele>185</ele>
        <time>2017-04-30T07:44:13.000Z</time>
      </trkpt>
      <trkpt lat="44.23905" lon="0.7214">
        <ele>185</ele>
        <time>2017-04-30T07:44:14.000Z</time>
      </trkpt>
      <trkpt lat="44.23903" lon="0.72146">
        <ele>185</ele>
        <time>2017-04-30T07:44:15.000Z</time>
      </trkpt>
      <trkpt lat="44.23901" lon="0.72152">
        <ele>184</ele>
        <time>2017-04-30T07:44:16.000Z</time>
      </trkpt>
      <trkpt lat="44.23898" lon="0.72158">
        <ele>184</ele>
        <time>2017-04-30T07:44:17.000Z</time>
      </trkpt>
      <trkpt lat="44.23895" lon="0.72164">
        <ele>183</ele>
        <time>2017-04-30T07:44:18.000Z</time>
      </trkpt>
      <trkpt lat="44.23892" lon="0.72169">
        <ele>183</ele>
        <time>2017-04-30T07:44:19.000Z</time>
      </trkpt>
      <trkpt lat="44.23889" lon="0.72174">
        <ele>183</ele>
        <time>2017-04-30T07:44:20.000Z</time>
      </trkpt>
      <trkpt lat="44.23886" lon="0.72178">
        <ele>184</ele>
        <time>2017-04-30T07:44:21.000Z</time>
      </trkpt>
      <trkpt lat="44.23883" lon="0.72183">
        <ele>183</ele>
        <time>2017-04-30T07:44:22.000Z</time>
      </trkpt>
      <trkpt lat="44.2388" lon="0.72188">
        <ele>184</ele>
        <time>2017-04-30T07:44:23.000Z</time>
      </trkpt>
      <trkpt lat="44.23877" lon="0.72193">
        <ele>184</ele>
        <time>2017-04-30T07:44:24.000Z</time>
      </trkpt>
      <trkpt lat="44.23874" lon="0.72198">
        <ele>184</ele>
        <time>2017-04-30T07:44:25.000Z</time>
      </trkpt>
      <trkpt lat="44.2387" lon="0.72203">
        <ele>184</ele>
        <time>2017-04-30T07:44:26.000Z</time>
      </trkpt>
      <trkpt lat="44.23866" lon="0.72207">
        <ele>182</ele>
        <time>2017-04-30T07:44:27.000Z</time>
      </trkpt>
      <trkpt lat="44.23862" lon="0.72212">
        <ele>182</ele>
        <time>2017-04-30T07:44:28.000Z</time>
      </trkpt>
      <trkpt lat="44.23858" lon="0.72217">
        <ele>182</ele>
        <time>2017-04-30T07:44:29.000Z</time>
      </trkpt>
      <trkpt lat="44.23855" lon="0.72221">
        <ele>182</ele>
        <time>2017-04-30T07:44:30.000Z</time>
      </trkpt>
      <trkpt lat="44.23852" lon="0.72226">
        <ele>183</ele>
        <time>2017-04-30T07:44:31.000Z</time>
      </trkpt>
      <trkpt lat="44.23848" lon="0.72231">
        <ele>182</ele>
        <time>2017-04-30T07:44:32.000Z</time>
      </trkpt>
      <trkpt lat="44.23845" lon="0.72235">
        <ele>181</ele>
        <time>2017-04-30T07:44:33.000Z</time>
      </trkpt>
      <trkpt lat="44.23842" lon="0.72238">
        <ele>181</ele>
        <time>2017-04-30T07:44:34.000Z</time>
      </trkpt>
      <trkpt lat="44.23838" lon="0.72243">
        <ele>183</ele>
        <time>2017-04-30T07:44:35.000Z</time>
      </trkpt>
      <trkpt lat="44.23834" lon="0.72248">
        <ele>182</ele>
        <time>2017-04-30T07:44:36.000Z</time>
      </trkpt>
      <trkpt lat="44.2383" lon="0.72253">
        <ele>184</ele>
        <time>2017-04-30T07:44:37.000Z</time>
      </trkpt>
      <trkpt lat="44.23826" lon="0.72258">
        <ele>185</ele>
        <time>2017-04-30T07:44:38.000Z</time>
      </trkpt>
      <trkpt lat="44.23823" lon="0.72262">
        <ele>186</ele>
        <time>2017-04-30T07:44:39.000Z</time>
      </trkpt>
      <trkpt lat="44.23819" lon="0.72266">
        <ele>186</ele>
        <time>2017-04-30T07:44:40.000Z</time>
      </trkpt>
      <trkpt lat="44.23816" lon="0.7227">
        <ele>186</ele>
        <time>2017-04-30T07:44:41.000Z</time>
      </trkpt>
      <trkpt lat="44.23813" lon="0.72274">
        <ele>186</ele>
        <time>2017-04-30T07:44:42.000Z</time>
      </trkpt>
      <trkpt lat="44.23811" lon="0.72277">
        <ele>186</ele>
        <time>2017-04-30T07:44:43.000Z</time>
      </trkpt>
      <trkpt lat="44.23808" lon="0.7228">
        <ele>187</ele>
        <time>2017-04-30T07:44:44.000Z</time>
      </trkpt>
      <trkpt lat="44.23806" lon="0.72284">
        <ele>187</ele>
        <time>2017-04-30T07:44:45.000Z</time>
      </trkpt>
      <trkpt lat="44.23804" lon="0.72287">
        <ele>188</ele>
        <time>2017-04-30T07:44:46.000Z</time>
      </trkpt>
      <trkpt lat="44.23802" lon="0.72291">
        <ele>190</ele>
        <time>2017-04-30T07:44:47.000Z</time>
      </trkpt>
      <trkpt lat="44.23801" lon="0.72295">
        <ele>191</ele>
        <time>2017-04-30T07:44:48.000Z</time>
      </trkpt>
      <trkpt lat="44.23799" lon="0.72299">
        <ele>191</ele>
        <time>2017-04-30T07:44:49.000Z</time>
      </trkpt>
      <trkpt lat="44.23797" lon="0.72302">
        <ele>191</ele>
        <time>2017-04-30T07:44:50.000Z</time>
      </trkpt>
      <trkpt lat="44.23796" lon="0.72307">
        <ele>191</ele>
        <time>2017-04-30T07:44:51.000Z</time>
      </trkpt>
      <trkpt lat="44.23794" lon="0.72313">
        <ele>193</ele>
        <time>2017-04-30T07:44:52.000Z</time>
      </trkpt>
      <trkpt lat="44.23793" lon="0.7232">
        <ele>193</ele>
        <time>2017-04-30T07:44:53.000Z</time>
      </trkpt>
      <trkpt lat="44.23792" lon="0.72326">
        <ele>193</ele>
        <time>2017-04-30T07:44:54.000Z</time>
      </trkpt>
      <trkpt lat="44.23791" lon="0.72332">
        <ele>193</ele>
        <time>2017-04-30T07:44:55.000Z</time>
      </trkpt>
      <trkpt lat="44.23789" lon="0.72336">
        <ele>193</ele>
        <time>2017-04-30T07:44:56.000Z</time>
      </trkpt>
      <trkpt lat="44.23788" lon="0.72342">
        <ele>193</ele>
        <time>2017-04-30T07:44:57.000Z</time>
      </trkpt>
      <trkpt lat="44.23787" lon="0.72349">
        <ele>191</ele>
        <time>2017-04-30T07:44:58.000Z</time>
      </trkpt>
      <trkpt lat="44.23785" lon="0.72356">
        <ele>189</ele>
        <time>2017-04-30T07:44:59.000Z</time>
      </trkpt>
      <trkpt lat="44.23783" lon="0.72362">
        <ele>188</ele>
        <time>2017-04-30T07:45:00.000Z</time>
      </trkpt>
      <trkpt lat="44.23782" lon="0.72369">
        <ele>187</ele>
        <time>2017-04-30T07:45:01.000Z</time>
      </trkpt>
      <trkpt lat="44.2378" lon="0.72375">
        <ele>187</ele>
        <time>2017-04-30T07:45:02.000Z</time>
      </trkpt>
      <trkpt lat="44.23779" lon="0.72381">
        <ele>187</ele>
        <time>2017-04-30T07:45:03.000Z</time>
      </trkpt>
      <trkpt lat="44.23778" lon="0.72387">
        <ele>187</ele>
        <time>2017-04-30T07:45:04.000Z</time>
      </trkpt>
      <trkpt lat="44.23777" lon="0.72393">
        <ele>187</ele>
        <time>2017-04-30T07:45:05.000Z</time>
      </trkpt>
      <trkpt lat="44.23776" lon="0.72398">
        <ele>187</ele>
        <time>2017-04-30T07:45:06.000Z</time>
      </trkpt>
      <trkpt lat="44.23775" lon="0.72404">
        <ele>187</ele>
        <time>2017-04-30T07:45:07.000Z</time>
      </trkpt>
      <trkpt lat="44.23774" lon="0.7241">
        <ele>187</ele>
        <time>2017-04-30T07:45:08.000Z</time>
      </trkpt>
      <trkpt lat="44.23773" lon="0.72416">
        <ele>186</ele>
        <time>2017-04-30T07:45:09.000Z</time>
      </trkpt>
      <trkpt lat="44.23772" lon="0.72421">
        <ele>186</ele>
        <time>2017-04-30T07:45:10.000Z</time>
      </trkpt>
      <trkpt lat="44.23771" lon="0.72426">
        <ele>186</ele>
        <time>2017-04-30T07:45:11.000Z</time>
      </trkpt>
      <trkpt lat="44.2377" lon="0.72432">
        <ele>186</ele>
        <time>2017-04-30T07:45:12.000Z</time>
      </trkpt>
      <trkpt lat="44.23769" lon="0.72437">
        <ele>186</ele>
        <time>2017-04-30T07:45:13.000Z</time>
      </trkpt>
      <trkpt lat="44.23768" lon="0.72442">
        <ele>186</ele>
        <time>2017-04-30T07:45:14.000Z</time>
      </trkpt>
      <trkpt lat="44.23767" lon="0.72447">
        <ele>187</ele>
        <time>2017-04-30T07:45:15.000Z</time>
      </trkpt>
      <trkpt lat="44.23766" lon="0.72452">
        <ele>187</ele>
        <time>2017-04-30T07:45:16.000Z</time>
      </trkpt>
      <trkpt lat="44.23765" lon="0.72457">
        <ele>187</ele>
        <time>2017-04-30T07:45:17.000Z</time>
      </trkpt>
      <trkpt lat="44.23763" lon="0.72463">
        <ele>187</ele>
        <time>2017-04-30T07:45:18.000Z</time>
      </trkpt>
      <trkpt lat="44.23762" lon="0.72468">
        <ele>187</ele>
        <time>2017-04-30T07:45:19.000Z</time>
      </trkpt>
      <trkpt lat="44.23761" lon="0.72473">
        <ele>188</ele>
        <time>2017-04-30T07:45:20.000Z</time>
      </trkpt>
      <trkpt lat="44.2376" lon="0.72478">
        <ele>188</ele>
        <time>2017-04-30T07:45:21.000Z</time>
      </trkpt>
      <trkpt lat="44.23758" lon="0.72484">
        <ele>189</ele>
        <time>2017-04-30T07:45:22.000Z</time>
      </trkpt>
      <trkpt lat="44.23756" lon="0.72489">
        <ele>190</ele>
        <time>2017-04-30T07:45:23.000Z</time>
      </trkpt>
      <trkpt lat="44.23755" lon="0.72493">
        <ele>190</ele>
        <time>2017-04-30T07:45:24.000Z</time>
      </trkpt>
      <trkpt lat="44.23753" lon="0.72499">
        <ele>191</ele>
        <time>2017-04-30T07:45:25.000Z</time>
      </trkpt>
      <trkpt lat="44.23752" lon="0.72504">
        <ele>191</ele>
        <time>2017-04-30T07:45:26.000Z</time>
      </trkpt>
      <trkpt lat="44.23751" lon="0.72509">
        <ele>191</ele>
        <time>2017-04-30T07:45:27.000Z</time>
      </trkpt>
      <trkpt lat="44.2375" lon="0.72516">
        <ele>192</ele>
        <time>2017-04-30T07:45:28.000Z</time>
      </trkpt>
      <trkpt lat="44.23749" lon="0.72521">
        <ele>193</ele>
        <time>2017-04-30T07:45:29.000Z</time>
      </trkpt>
      <trkpt lat="44.23748" lon="0.72525">
        <ele>194</ele>
        <time>2017-04-30T07:45:30.000Z</time>
      </trkpt>
      <trkpt lat="44.23747" lon="0.72529">
        <ele>194</ele>
        <time>2017-04-30T07:45:31.000Z</time>
      </trkpt>
      <trkpt lat="44.23747" lon="0.72534">
        <ele>195</ele>
        <time>2017-04-30T07:45:32.000Z</time>
      </trkpt>
      <trkpt lat="44.23745" lon="0.7254">
        <ele>195</ele>
        <time>2017-04-30T07:45:33.000Z</time>
      </trkpt>
      <trkpt lat="44.23743" lon="0.7255">
        <ele>195</ele>
        <time>2017-04-30T07:45:34.000Z</time>
      </trkpt>
      <trkpt lat="44.23739" lon="0.72561">
        <ele>193</ele>
        <time>2017-04-30T07:45:35.000Z</time>
      </trkpt>
      <trkpt lat="44.23735" lon="0.72569">
        <ele>191</ele>
        <time>2017-04-30T07:45:36.000Z</time>
      </trkpt>
      <trkpt lat="44.23731" lon="0.72576">
        <ele>189</ele>
        <time>2017-04-30T07:45:37.000Z</time>
      </trkpt>
      <trkpt lat="44.23728" lon="0.72582">
        <ele>188</ele>
        <time>2017-04-30T07:45:38.000Z</time>
      </trkpt>
      <trkpt lat="44.23724" lon="0.72587">
        <ele>189</ele>
        <time>2017-04-30T07:45:39.000Z</time>
      </trkpt>
      <trkpt lat="44.23721" lon="0.72592">
        <ele>191</ele>
        <time>2017-04-30T07:45:40.000Z</time>
      </trkpt>
      <trkpt lat="44.23717" lon="0.72597">
        <ele>193</ele>
        <time>2017-04-30T07:45:41.000Z</time>
      </trkpt>
      <trkpt lat="44.23714" lon="0.726">
        <ele>193</ele>
        <time>2017-04-30T07:45:42.000Z</time>
      </trkpt>
      <trkpt lat="44.2371" lon="0.72604">
        <ele>194</ele>
        <time>2017-04-30T07:45:43.000Z</time>
      </trkpt>
      <trkpt lat="44.23708" lon="0.72607">
        <ele>194</ele>
        <time>2017-04-30T07:45:44.000Z</time>
      </trkpt>
      <trkpt lat="44.23708" lon="0.72611">
        <ele>195</ele>
        <time>2017-04-30T07:45:45.000Z</time>
      </trkpt>
      <trkpt lat="44.23707" lon="0.72615">
        <ele>196</ele>
        <time>2017-04-30T07:45:46.000Z</time>
      </trkpt>
      <trkpt lat="44.23706" lon="0.7262">
        <ele>196</ele>
        <time>2017-04-30T07:45:47.000Z</time>
      </trkpt>
      <trkpt lat="44.23704" lon="0.72624">
        <ele>196</ele>
        <time>2017-04-30T07:45:48.000Z</time>
      </trkpt>
      <trkpt lat="44.237" lon="0.72628">
        <ele>195</ele>
        <time>2017-04-30T07:45:49.000Z</time>
      </trkpt>
      <trkpt lat="44.23696" lon="0.72632">
        <ele>191</ele>
        <time>2017-04-30T07:45:50.000Z</time>
      </trkpt>
      <trkpt lat="44.23691" lon="0.72637">
        <ele>188</ele>
        <time>2017-04-30T07:45:51.000Z</time>
      </trkpt>
      <trkpt lat="44.23686" lon="0.72643">
        <ele>186</ele>
        <time>2017-04-30T07:45:52.000Z</time>
      </trkpt>
      <trkpt lat="44.2368" lon="0.72649">
        <ele>185</ele>
        <time>2017-04-30T07:45:53.000Z</time>
      </trkpt>
      <trkpt lat="44.23674" lon="0.72655">
        <ele>184</ele>
        <time>2017-04-30T07:45:54.000Z</time>
      </trkpt>
      <trkpt lat="44.23668" lon="0.72662">
        <ele>185</ele>
        <time>2017-04-30T07:45:55.000Z</time>
      </trkpt>
      <trkpt lat="44.23662" lon="0.72668">
        <ele>183</ele>
        <time>2017-04-30T07:45:56.000Z</time>
      </trkpt>
      <trkpt lat="44.23656" lon="0.72674">
        <ele>183</ele>
        <time>2017-04-30T07:45:57.000Z</time>
      </trkpt>
      <trkpt lat="44.23651" lon="0.7268">
        <ele>182</ele>
        <time>2017-04-30T07:45:58.000Z</time>
      </trkpt>
      <trkpt lat="44.23646" lon="0.72686">
        <ele>181</ele>
        <time>2017-04-30T07:45:59.000Z</time>
      </trkpt>
      <trkpt lat="44.2364" lon="0.72691">
        <ele>180</ele>
        <time>2017-04-30T07:46:00.000Z</time>
      </trkpt>
      <trkpt lat="44.23635" lon="0.72697">
        <ele>179</ele>
        <time>2017-04-30T07:46:01.000Z</time>
      </trkpt>
      <trkpt lat="44.2363" lon="0.72702">
        <ele>178</ele>
        <time>2017-04-30T07:46:02.000Z</time>
      </trkpt>
      <trkpt lat="44.23625" lon="0.72708">
        <ele>177</ele>
        <time>2017-04-30T07:46:03.000Z</time>
      </trkpt>
      <trkpt lat="44.2362" lon="0.72715">
        <ele>176</ele>
        <time>2017-04-30T07:46:04.000Z</time>
      </trkpt>
      <trkpt lat="44.23616" lon="0.72723">
        <ele>175</ele>
        <time>2017-04-30T07:46:05.000Z</time>
      </trkpt>
      <trkpt lat="44.23612" lon="0.72732">
        <ele>175</ele>
        <time>2017-04-30T07:46:06.000Z</time>
      </trkpt>
      <trkpt lat="44.23609" lon="0.72741">
        <ele>174</ele>
        <time>2017-04-30T07:46:07.000Z</time>
      </trkpt>
      <trkpt lat="44.23606" lon="0.72751">
        <ele>173</ele>
        <time>2017-04-30T07:46:08.000Z</time>
      </trkpt>
      <trkpt lat="44.23603" lon="0.7276">
        <ele>172</ele>
        <time>2017-04-30T07:46:09.000Z</time>
      </trkpt>
      <trkpt lat="44.23599" lon="0.72768">
        <ele>171</ele>
        <time>2017-04-30T07:46:10.000Z</time>
      </trkpt>
      <trkpt lat="44.23597" lon="0.72777">
        <ele>170</ele>
        <time>2017-04-30T07:46:11.000Z</time>
      </trkpt>
      <trkpt lat="44.23594" lon="0.72784">
        <ele>169</ele>
        <time>2017-04-30T07:46:12.000Z</time>
      </trkpt>
      <trkpt lat="44.23592" lon="0.72791">
        <ele>167</ele>
        <time>2017-04-30T07:46:13.000Z</time>
      </trkpt>
      <trkpt lat="44.23589" lon="0.72798">
        <ele>167</ele>
        <time>2017-04-30T07:46:14.000Z</time>
      </trkpt>
      <trkpt lat="44.23587" lon="0.72804">
        <ele>166</ele>
        <time>2017-04-30T07:46:15.000Z</time>
      </trkpt>
      <trkpt lat="44.23585" lon="0.72811">
        <ele>164</ele>
        <time>2017-04-30T07:46:16.000Z</time>
      </trkpt>
      <trkpt lat="44.23584" lon="0.72816">
        <ele>163</ele>
        <time>2017-04-30T07:46:17.000Z</time>
      </trkpt>
      <trkpt lat="44.23582" lon="0.72822">
        <ele>162</ele>
        <time>2017-04-30T07:46:18.000Z</time>
      </trkpt>
      <trkpt lat="44.23581" lon="0.72828">
        <ele>161</ele>
        <time>2017-04-30T07:46:19.000Z</time>
      </trkpt>
      <trkpt lat="44.23577" lon="0.72835">
        <ele>159</ele>
        <time>2017-04-30T07:46:20.000Z</time>
      </trkpt>
      <trkpt lat="44.23574" lon="0.72842">
        <ele>161</ele>
        <time>2017-04-30T07:46:21.000Z</time>
      </trkpt>
      <trkpt lat="44.23571" lon="0.72848">
        <ele>171</ele>
        <time>2017-04-30T07:46:22.000Z</time>
      </trkpt>
      <trkpt lat="44.23562" lon="0.72852">
        <ele>166</ele>
        <time>2017-04-30T07:46:23.000Z</time>
      </trkpt>
      <trkpt lat="44.23556" lon="0.72856">
        <ele>167</ele>
        <time>2017-04-30T07:46:24.000Z</time>
      </trkpt>
      <trkpt lat="44.2355" lon="0.72859">
        <ele>167</ele>
        <time>2017-04-30T07:46:25.000Z</time>
      </trkpt>
      <trkpt lat="44.23544" lon="0.72862">
        <ele>167</ele>
        <time>2017-04-30T07:46:26.000Z</time>
      </trkpt>
      <trkpt lat="44.23538" lon="0.72864">
        <ele>167</ele>
        <time>2017-04-30T07:46:27.000Z</time>
      </trkpt>
      <trkpt lat="44.23532" lon="0.72867">
        <ele>166</ele>
        <time>2017-04-30T07:46:28.000Z</time>
      </trkpt>
      <trkpt lat="44.23526" lon="0.72869">
        <ele>166</ele>
        <time>2017-04-30T07:46:29.000Z</time>
      </trkpt>
      <trkpt lat="44.23521" lon="0.72872">
        <ele>166</ele>
        <time>2017-04-30T07:46:30.000Z</time>
      </trkpt>
      <trkpt lat="44.23515" lon="0.72875">
        <ele>166</ele>
        <time>2017-04-30T07:46:31.000Z</time>
      </trkpt>
      <trkpt lat="44.2351" lon="0.72877">
        <ele>166</ele>
        <time>2017-04-30T07:46:32.000Z</time>
      </trkpt>
      <trkpt lat="44.23504" lon="0.72879">
        <ele>166</ele>
        <time>2017-04-30T07:46:33.000Z</time>
      </trkpt>
      <trkpt lat="44.23499" lon="0.72881">
        <ele>166</ele>
        <time>2017-04-30T07:46:34.000Z</time>
      </trkpt>
      <trkpt lat="44.23493" lon="0.72882">
        <ele>166</ele>
        <time>2017-04-30T07:46:35.000Z</time>
      </trkpt>
      <trkpt lat="44.23488" lon="0.72884">
        <ele>165</ele>
        <time>2017-04-30T07:46:36.000Z</time>
      </trkpt>
      <trkpt lat="44.23482" lon="0.72886">
        <ele>165</ele>
        <time>2017-04-30T07:46:37.000Z</time>
      </trkpt>
      <trkpt lat="44.23476" lon="0.72889">
        <ele>165</ele>
        <time>2017-04-30T07:46:38.000Z</time>
      </trkpt>
      <trkpt lat="44.23471" lon="0.7289">
        <ele>165</ele>
        <time>2017-04-30T07:46:39.000Z</time>
      </trkpt>
      <trkpt lat="44.23466" lon="0.72892">
        <ele>165</ele>
        <time>2017-04-30T07:46:40.000Z</time>
      </trkpt>
      <trkpt lat="44.2346" lon="0.72895">
        <ele>165</ele>
        <time>2017-04-30T07:46:41.000Z</time>
      </trkpt>
      <trkpt lat="44.23455" lon="0.72897">
        <ele>165</ele>
        <time>2017-04-30T07:46:42.000Z</time>
      </trkpt>
      <trkpt lat="44.23449" lon="0.72899">
        <ele>165</ele>
        <time>2017-04-30T07:46:43.000Z</time>
      </trkpt>
      <trkpt lat="44.23444" lon="0.72901">
        <ele>165</ele>
        <time>2017-04-30T07:46:44.000Z</time>
      </trkpt>
      <trkpt lat="44.23438" lon="0.72904">
        <ele>165</ele>
        <time>2017-04-30T07:46:45.000Z</time>
      </trkpt>
      <trkpt lat="44.23433" lon="0.72906">
        <ele>164</ele>
        <time>2017-04-30T07:46:46.000Z</time>
      </trkpt>
      <trkpt lat="44.23428" lon="0.72908">
        <ele>164</ele>
        <time>2017-04-30T07:46:47.000Z</time>
      </trkpt>
      <trkpt lat="44.23422" lon="0.7291">
        <ele>164</ele>
        <time>2017-04-30T07:46:48.000Z</time>
      </trkpt>
      <trkpt lat="44.23417" lon="0.72912">
        <ele>164</ele>
        <time>2017-04-30T07:46:49.000Z</time>
      </trkpt>
      <trkpt lat="44.23412" lon="0.72914">
        <ele>164</ele>
        <time>2017-04-30T07:46:50.000Z</time>
      </trkpt>
      <trkpt lat="44.23406" lon="0.72916">
        <ele>163</ele>
        <time>2017-04-30T07:46:51.000Z</time>
      </trkpt>
      <trkpt lat="44.23401" lon="0.72919">
        <ele>163</ele>
        <time>2017-04-30T07:46:52.000Z</time>
      </trkpt>
      <trkpt lat="44.23395" lon="0.72921">
        <ele>163</ele>
        <time>2017-04-30T07:46:53.000Z</time>
      </trkpt>
      <trkpt lat="44.2339" lon="0.72923">
        <ele>162</ele>
        <time>2017-04-30T07:46:54.000Z</time>
      </trkpt>
      <trkpt lat="44.23384" lon="0.72925">
        <ele>162</ele>
        <time>2017-04-30T07:46:55.000Z</time>
      </trkpt>
      <trkpt lat="44.23378" lon="0.72927">
        <ele>162</ele>
        <time>2017-04-30T07:46:56.000Z</time>
      </trkpt>
      <trkpt lat="44.23372" lon="0.72929">
        <ele>162</ele>
        <time>2017-04-30T07:46:57.000Z</time>
      </trkpt>
      <trkpt lat="44.23366" lon="0.72931">
        <ele>161</ele>
        <time>2017-04-30T07:46:58.000Z</time>
      </trkpt>
      <trkpt lat="44.23359" lon="0.72934">
        <ele>161</ele>
        <time>2017-04-30T07:46:59.000Z</time>
      </trkpt>
      <trkpt lat="44.23352" lon="0.72935">
        <ele>161</ele>
        <time>2017-04-30T07:47:00.000Z</time>
      </trkpt>
      <trkpt lat="44.23346" lon="0.72937">
        <ele>161</ele>
        <time>2017-04-30T07:47:01.000Z</time>
      </trkpt>
      <trkpt lat="44.23339" lon="0.72938">
        <ele>161</ele>
        <time>2017-04-30T07:47:02.000Z</time>
      </trkpt>
      <trkpt lat="44.23332" lon="0.72938">
        <ele>160</ele>
        <time>2017-04-30T07:47:03.000Z</time>
      </trkpt>
      <trkpt lat="44.23325" lon="0.72938">
        <ele>158</ele>
        <time>2017-04-30T07:47:04.000Z</time>
      </trkpt>
      <trkpt lat="44.23318" lon="0.72937">
        <ele>157</ele>
        <time>2017-04-30T07:47:05.000Z</time>
      </trkpt>
      <trkpt lat="44.23312" lon="0.72935">
        <ele>156</ele>
        <time>2017-04-30T07:47:06.000Z</time>
      </trkpt>
      <trkpt lat="44.23307" lon="0.72933">
        <ele>156</ele>
        <time>2017-04-30T07:47:07.000Z</time>
      </trkpt>
      <trkpt lat="44.23302" lon="0.72933">
        <ele>154</ele>
        <time>2017-04-30T07:47:08.000Z</time>
      </trkpt>
      <trkpt lat="44.23299" lon="0.72933">
        <ele>154</ele>
        <time>2017-04-30T07:47:09.000Z</time>
      </trkpt>
      <trkpt lat="44.23297" lon="0.72933">
        <ele>156</ele>
        <time>2017-04-30T07:47:10.000Z</time>
      </trkpt>
      <trkpt lat="44.23295" lon="0.72934">
        <ele>155</ele>
        <time>2017-04-30T07:47:11.000Z</time>
      </trkpt>
      <trkpt lat="44.23293" lon="0.72937">
        <ele>154</ele>
        <time>2017-04-30T07:47:12.000Z</time>
      </trkpt>
      <trkpt lat="44.23294" lon="0.72946">
        <ele>155</ele>
        <time>2017-04-30T07:47:13.000Z</time>
      </trkpt>
      <trkpt lat="44.23294" lon="0.72952">
        <ele>155</ele>
        <time>2017-04-30T07:47:14.000Z</time>
      </trkpt>
      <trkpt lat="44.23294" lon="0.72959">
        <ele>155</ele>
        <time>2017-04-30T07:47:15.000Z</time>
      </trkpt>
      <trkpt lat="44.23295" lon="0.72966">
        <ele>155</ele>
        <time>2017-04-30T07:47:16.000Z</time>
      </trkpt>
      <trkpt lat="44.23295" lon="0.72973">
        <ele>155</ele>
        <time>2017-04-30T07:47:17.000Z</time>
      </trkpt>
      <trkpt lat="44.23296" lon="0.7298">
        <ele>155</ele>
        <time>2017-04-30T07:47:18.000Z</time>
      </trkpt>
      <trkpt lat="44.23297" lon="0.72987">
        <ele>154</ele>
        <time>2017-04-30T07:47:19.000Z</time>
      </trkpt>
      <trkpt lat="44.23298" lon="0.72994">
        <ele>153</ele>
        <time>2017-04-30T07:47:20.000Z</time>
      </trkpt>
      <trkpt lat="44.23299" lon="0.73001">
        <ele>153</ele>
        <time>2017-04-30T07:47:21.000Z</time>
      </trkpt>
      <trkpt lat="44.233" lon="0.73008">
        <ele>153</ele>
        <time>2017-04-30T07:47:22.000Z</time>
      </trkpt>
      <trkpt lat="44.23301" lon="0.73014">
        <ele>153</ele>
        <time>2017-04-30T07:47:23.000Z</time>
      </trkpt>
      <trkpt lat="44.23303" lon="0.73021">
        <ele>153</ele>
        <time>2017-04-30T07:47:24.000Z</time>
      </trkpt>
      <trkpt lat="44.23303" lon="0.73027">
        <ele>153</ele>
        <time>2017-04-30T07:47:25.000Z</time>
      </trkpt>
      <trkpt lat="44.23304" lon="0.73033">
        <ele>153</ele>
        <time>2017-04-30T07:47:26.000Z</time>
      </trkpt>
      <trkpt lat="44.23305" lon="0.73038">
        <ele>153</ele>
        <time>2017-04-30T07:47:27.000Z</time>
      </trkpt>
      <trkpt lat="44.23306" lon="0.73043">
        <ele>155</ele>
        <time>2017-04-30T07:47:28.000Z</time>
      </trkpt>
      <trkpt lat="44.23307" lon="0.73048">
        <ele>155</ele>
        <time>2017-04-30T07:47:29.000Z</time>
      </trkpt>
      <trkpt lat="44.23307" lon="0.73053">
        <ele>156</ele>
        <time>2017-04-30T07:47:30.000Z</time>
      </trkpt>
      <trkpt lat="44.23307" lon="0.73058">
        <ele>156</ele>
        <time>2017-04-30T07:47:31.000Z</time>
      </trkpt>
      <trkpt lat="44.23307" lon="0.73063">
        <ele>155</ele>
        <time>2017-04-30T07:47:32.000Z</time>
      </trkpt>
      <trkpt lat="44.23308" lon="0.73068">
        <ele>155</ele>
        <time>2017-04-30T07:47:33.000Z</time>
      </trkpt>
      <trkpt lat="44.23308" lon="0.73073">
        <ele>155</ele>
        <time>2017-04-30T07:47:34.000Z</time>
      </trkpt>
      <trkpt lat="44.23308" lon="0.73078">
        <ele>154</ele>
        <time>2017-04-30T07:47:35.000Z</time>
      </trkpt>
      <trkpt lat="44.23307" lon="0.73082">
        <ele>153</ele>
        <time>2017-04-30T07:47:36.000Z</time>
      </trkpt>
      <trkpt lat="44.23306" lon="0.73087">
        <ele>153</ele>
        <time>2017-04-30T07:47:37.000Z</time>
      </trkpt>
      <trkpt lat="44.23304" lon="0.7309">
        <ele>153</ele>
        <time>2017-04-30T07:47:38.000Z</time>
      </trkpt>
      <trkpt lat="44.233" lon="0.7309">
        <ele>153</ele>
        <time>2017-04-30T07:47:39.000Z</time>
      </trkpt>
      <trkpt lat="44.23296" lon="0.73092">
        <ele>156</ele>
        <time>2017-04-30T07:47:40.000Z</time>
      </trkpt>
      <trkpt lat="44.23293" lon="0.73094">
        <ele>156</ele>
        <time>2017-04-30T07:47:41.000Z</time>
      </trkpt>
      <trkpt lat="44.23289" lon="0.73097">
        <ele>157</ele>
        <time>2017-04-30T07:47:42.000Z</time>
      </trkpt>
      <trkpt lat="44.23286" lon="0.731">
        <ele>157</ele>
        <time>2017-04-30T07:47:43.000Z</time>
      </trkpt>
      <trkpt lat="44.23282" lon="0.73103">
        <ele>157</ele>
        <time>2017-04-30T07:47:44.000Z</time>
      </trkpt>
      <trkpt lat="44.23279" lon="0.73106">
        <ele>158</ele>
        <time>2017-04-30T07:47:45.000Z</time>
      </trkpt>
      <trkpt lat="44.23276" lon="0.73107">
        <ele>158</ele>
        <time>2017-04-30T07:47:46.000Z</time>
      </trkpt>
      <trkpt lat="44.23274" lon="0.73109">
        <ele>158</ele>
        <time>2017-04-30T07:47:47.000Z</time>
      </trkpt>
      <trkpt lat="44.23272" lon="0.7311">
        <ele>158</ele>
        <time>2017-04-30T07:47:48.000Z</time>
      </trkpt>
      <trkpt lat="44.2327" lon="0.73112">
        <ele>158</ele>
        <time>2017-04-30T07:47:49.000Z</time>
      </trkpt>
      <trkpt lat="44.23269" lon="0.73113">
        <ele>158</ele>
        <time>2017-04-30T07:47:50.000Z</time>
      </trkpt>
      <trkpt lat="44.23267" lon="0.73114">
        <ele>158</ele>
        <time>2017-04-30T07:47:51.000Z</time>
      </trkpt>
      <trkpt lat="44.23266" lon="0.73115">
        <ele>158</ele>
        <time>2017-04-30T07:47:52.000Z</time>
      </trkpt>
      <trkpt lat="44.23264" lon="0.73116">
        <ele>159</ele>
        <time>2017-04-30T07:47:53.000Z</time>
      </trkpt>
      <trkpt lat="44.23263" lon="0.73117">
        <ele>159</ele>
        <time>2017-04-30T07:47:54.000Z</time>
      </trkpt>
      <trkpt lat="44.23261" lon="0.73118">
        <ele>160</ele>
        <time>2017-04-30T07:47:55.000Z</time>
      </trkpt>
      <trkpt lat="44.2326" lon="0.73119">
        <ele>160</ele>
        <time>2017-04-30T07:47:56.000Z</time>
      </trkpt>
      <trkpt lat="44.23258" lon="0.73121">
        <ele>160</ele>
        <time>2017-04-30T07:47:57.000Z</time>
      </trkpt>
      <trkpt lat="44.23257" lon="0.73122">
        <ele>160</ele>
        <time>2017-04-30T07:47:58.000Z</time>
      </trkpt>
      <trkpt lat="44.23255" lon="0.73123">
        <ele>161</ele>
        <time>2017-04-30T07:47:59.000Z</time>
      </trkpt>
      <trkpt lat="44.23253" lon="0.73124">
        <ele>161</ele>
        <time>2017-04-30T07:48:00.000Z</time>
      </trkpt>
      <trkpt lat="44.23252" lon="0.73126">
        <ele>161</ele>
        <time>2017-04-30T07:48:01.000Z</time>
      </trkpt>
      <trkpt lat="44.2325" lon="0.73127">
        <ele>162</ele>
        <time>2017-04-30T07:48:02.000Z</time>
      </trkpt>
      <trkpt lat="44.23249" lon="0.73128">
        <ele>162</ele>
        <time>2017-04-30T07:48:03.000Z</time>
      </trkpt>
      <trkpt lat="44.23247" lon="0.7313">
        <ele>163</ele>
        <time>2017-04-30T07:48:04.000Z</time>
      </trkpt>
      <trkpt lat="44.23246" lon="0.73131">
        <ele>163</ele>
        <time>2017-04-30T07:48:05.000Z</time>
      </trkpt>
      <trkpt lat="44.23244" lon="0.73132">
        <ele>163</ele>
        <time>2017-04-30T07:48:06.000Z</time>
      </trkpt>
      <trkpt lat="44.23243" lon="0.73133">
        <ele>164</ele>
        <time>2017-04-30T07:48:07.000Z</time>
      </trkpt>
      <trkpt lat="44.23241" lon="0.73133">
        <ele>164</ele>
        <time>2017-04-30T07:48:08.000Z</time>
      </trkpt>
      <trkpt lat="44.2324" lon="0.73134">
        <ele>165</ele>
        <time>2017-04-30T07:48:09.000Z</time>
      </trkpt>
      <trkpt lat="44.23238" lon="0.73134">
        <ele>165</ele>
        <time>2017-04-30T07:48:10.000Z</time>
      </trkpt>
      <trkpt lat="44.23236" lon="0.73134">
        <ele>165</ele>
        <time>2017-04-30T07:48:11.000Z</time>
      </trkpt>
      <trkpt lat="44.23234" lon="0.73133">
        <ele>165</ele>
        <time>2017-04-30T07:48:12.000Z</time>
      </trkpt>
      <trkpt lat="44.23233" lon="0.73132">
        <ele>166</ele>
        <time>2017-04-30T07:48:13.000Z</time>
      </trkpt>
      <trkpt lat="44.23231" lon="0.73131">
        <ele>166</ele>
        <time>2017-04-30T07:48:14.000Z</time>
      </trkpt>
      <trkpt lat="44.23229" lon="0.7313">
        <ele>166</ele>
        <time>2017-04-30T07:48:15.000Z</time>
      </trkpt>
      <trkpt lat="44.23227" lon="0.7313">
        <ele>166</ele>
        <time>2017-04-30T07:48:16.000Z</time>
      </trkpt>
      <trkpt lat="44.23225" lon="0.73129">
        <ele>167</ele>
        <time>2017-04-30T07:48:17.000Z</time>
      </trkpt>
      <trkpt lat="44.23223" lon="0.73128">
        <ele>167</ele>
        <time>2017-04-30T07:48:18.000Z</time>
      </trkpt>
      <trkpt lat="44.23221" lon="0.73127">
        <ele>167</ele>
        <time>2017-04-30T07:48:19.000Z</time>
      </trkpt>
      <trkpt lat="44.23219" lon="0.73126">
        <ele>167</ele>
        <time>2017-04-30T07:48:20.000Z</time>
      </trkpt>
      <trkpt lat="44.23217" lon="0.73125">
        <ele>168</ele>
        <time>2017-04-30T07:48:21.000Z</time>
      </trkpt>
      <trkpt lat="44.23215" lon="0.73125">
        <ele>168</ele>
        <time>2017-04-30T07:48:22.000Z</time>
      </trkpt>
      <trkpt lat="44.23213" lon="0.73124">
        <ele>168</ele>
        <time>2017-04-30T07:48:23.000Z</time>
      </trkpt>
      <trkpt lat="44.23211" lon="0.73123">
        <ele>168</ele>
        <time>2017-04-30T07:48:24.000Z</time>
      </trkpt>
      <trkpt lat="44.23209" lon="0.73123">
        <ele>169</ele>
        <time>2017-04-30T07:48:25.000Z</time>
      </trkpt>
      <trkpt lat="44.23207" lon="0.73123">
        <ele>169</ele>
        <time>2017-04-30T07:48:26.000Z</time>
      </trkpt>
      <trkpt lat="44.23205" lon="0.73123">
        <ele>168</ele>
        <time>2017-04-30T07:48:27.000Z</time>
      </trkpt>
      <trkpt lat="44.23202" lon="0.73124">
        <ele>168</ele>
        <time>2017-04-30T07:48:28.000Z</time>
      </trkpt>
      <trkpt lat="44.232" lon="0.73124">
        <ele>168</ele>
        <time>2017-04-30T07:48:29.000Z</time>
      </trkpt>
      <trkpt lat="44.23198" lon="0.73123">
        <ele>168</ele>
        <time>2017-04-30T07:48:30.000Z</time>
      </trkpt>
      <trkpt lat="44.23196" lon="0.73124">
        <ele>168</ele>
        <time>2017-04-30T07:48:31.000Z</time>
      </trkpt>
      <trkpt lat="44.23193" lon="0.73124">
        <ele>168</ele>
        <time>2017-04-30T07:48:32.000Z</time>
      </trkpt>
      <trkpt lat="44.23191" lon="0.73124">
        <ele>168</ele>
        <time>2017-04-30T07:48:33.000Z</time>
      </trkpt>
      <trkpt lat="44.23189" lon="0.73124">
        <ele>168</ele>
        <time>2017-04-30T07:48:34.000Z</time>
      </trkpt>
      <trkpt lat="44.23187" lon="0.73124">
        <ele>168</ele>
        <time>2017-04-30T07:48:35.000Z</time>
      </trkpt>
      <trkpt lat="44.23184" lon="0.73123">
        <ele>169</ele>
        <time>2017-04-30T07:48:36.000Z</time>
      </trkpt>
      <trkpt lat="44.23182" lon="0.73123">
        <ele>169</ele>
        <time>2017-04-30T07:48:37.000Z</time>
      </trkpt>
      <trkpt lat="44.2318" lon="0.73123">
        <ele>169</ele>
        <time>2017-04-30T07:48:38.000Z</time>
      </trkpt>
      <trkpt lat="44.23177" lon="0.73123">
        <ele>169</ele>
        <time>2017-04-30T07:48:39.000Z</time>
      </trkpt>
      <trkpt lat="44.23175" lon="0.73122">
        <ele>169</ele>
        <time>2017-04-30T07:48:40.000Z</time>
      </trkpt>
      <trkpt lat="44.23172" lon="0.73121">
        <ele>169</ele>
        <time>2017-04-30T07:48:41.000Z</time>
      </trkpt>
      <trkpt lat="44.2317" lon="0.73121">
        <ele>169</ele>
        <time>2017-04-30T07:48:42.000Z</time>
      </trkpt>
      <trkpt lat="44.23166" lon="0.7312">
        <ele>169</ele>
        <time>2017-04-30T07:48:43.000Z</time>
      </trkpt>
      <trkpt lat="44.23163" lon="0.73119">
        <ele>169</ele>
        <time>2017-04-30T07:48:44.000Z</time>
      </trkpt>
      <trkpt lat="44.23159" lon="0.73117">
        <ele>169</ele>
        <time>2017-04-30T07:48:45.000Z</time>
      </trkpt>
      <trkpt lat="44.23155" lon="0.73116">
        <ele>169</ele>
        <time>2017-04-30T07:48:46.000Z</time>
      </trkpt>
      <trkpt lat="44.23151" lon="0.73114">
        <ele>169</ele>
        <time>2017-04-30T07:48:47.000Z</time>
      </trkpt>
      <trkpt lat="44.23147" lon="0.73112">
        <ele>168</ele>
        <time>2017-04-30T07:48:48.000Z</time>
      </trkpt>
      <trkpt lat="44.23142" lon="0.73109">
        <ele>168</ele>
        <time>2017-04-30T07:48:49.000Z</time>
      </trkpt>
      <trkpt lat="44.23137" lon="0.73107">
        <ele>168</ele>
        <time>2017-04-30T07:48:50.000Z</time>
      </trkpt>
      <trkpt lat="44.23132" lon="0.73104">
        <ele>168</ele>
        <time>2017-04-30T07:48:51.000Z</time>
      </trkpt>
      <trkpt lat="44.23126" lon="0.73101">
        <ele>168</ele>
        <time>2017-04-30T07:48:52.000Z</time>
      </trkpt>
      <trkpt lat="44.23121" lon="0.73098">
        <ele>167</ele>
        <time>2017-04-30T07:48:53.000Z</time>
      </trkpt>
      <trkpt lat="44.23115" lon="0.73095">
        <ele>167</ele>
        <time>2017-04-30T07:48:54.000Z</time>
      </trkpt>
      <trkpt lat="44.2311" lon="0.73092">
        <ele>168</ele>
        <time>2017-04-30T07:48:55.000Z</time>
      </trkpt>
      <trkpt lat="44.23104" lon="0.73088">
        <ele>167</ele>
        <time>2017-04-30T07:48:56.000Z</time>
      </trkpt>
      <trkpt lat="44.23098" lon="0.73085">
        <ele>167</ele>
        <time>2017-04-30T07:48:57.000Z</time>
      </trkpt>
      <trkpt lat="44.23093" lon="0.73082">
        <ele>167</ele>
        <time>2017-04-30T07:48:58.000Z</time>
      </trkpt>
      <trkpt lat="44.23087" lon="0.73078">
        <ele>167</ele>
        <time>2017-04-30T07:48:59.000Z</time>
      </trkpt>
      <trkpt lat="44.23082" lon="0.73076">
        <ele>167</ele>
        <time>2017-04-30T07:49:00.000Z</time>
      </trkpt>
      <trkpt lat="44.23077" lon="0.73073">
        <ele>166</ele>
        <time>2017-04-30T07:49:01.000Z</time>
      </trkpt>
      <trkpt lat="44.23073" lon="0.7307">
        <ele>166</ele>
        <time>2017-04-30T07:49:02.000Z</time>
      </trkpt>
      <trkpt lat="44.23068" lon="0.73068">
        <ele>167</ele>
        <time>2017-04-30T07:49:03.000Z</time>
      </trkpt>
      <trkpt lat="44.23063" lon="0.73065">
        <ele>167</ele>
        <time>2017-04-30T07:49:04.000Z</time>
      </trkpt>
      <trkpt lat="44.23059" lon="0.73062">
        <ele>167</ele>
        <time>2017-04-30T07:49:05.000Z</time>
      </trkpt>
      <trkpt lat="44.23055" lon="0.73059">
        <ele>167</ele>
        <time>2017-04-30T07:49:06.000Z</time>
      </trkpt>
      <trkpt lat="44.23052" lon="0.73057">
        <ele>167</ele>
        <time>2017-04-30T07:49:07.000Z</time>
      </trkpt>
      <trkpt lat="44.23049" lon="0.73057">
        <ele>167</ele>
        <time>2017-04-30T07:49:08.000Z</time>
      </trkpt>
      <trkpt lat="44.23046" lon="0.73059">
        <ele>168</ele>
        <time>2017-04-30T07:49:09.000Z</time>
      </trkpt>
      <trkpt lat="44.23045" lon="0.73063">
        <ele>168</ele>
        <time>2017-04-30T07:49:10.000Z</time>
      </trkpt>
      <trkpt lat="44.23043" lon="0.73069">
        <ele>167</ele>
        <time>2017-04-30T07:49:11.000Z</time>
      </trkpt>
      <trkpt lat="44.23042" lon="0.73075">
        <ele>167</ele>
        <time>2017-04-30T07:49:12.000Z</time>
      </trkpt>
      <trkpt lat="44.2304" lon="0.73082">
        <ele>167</ele>
        <time>2017-04-30T07:49:13.000Z</time>
      </trkpt>
      <trkpt lat="44.23038" lon="0.73089">
        <ele>166</ele>
        <time>2017-04-30T07:49:14.000Z</time>
      </trkpt>
      <trkpt lat="44.23037" lon="0.73095">
        <ele>166</ele>
        <time>2017-04-30T07:49:15.000Z</time>
      </trkpt>
      <trkpt lat="44.23035" lon="0.73102">
        <ele>166</ele>
        <time>2017-04-30T07:49:16.000Z</time>
      </trkpt>
      <trkpt lat="44.23034" lon="0.73109">
        <ele>166</ele>
        <time>2017-04-30T07:49:17.000Z</time>
      </trkpt>
      <trkpt lat="44.23033" lon="0.73115">
        <ele>166</ele>
        <time>2017-04-30T07:49:18.000Z</time>
      </trkpt>
      <trkpt lat="44.23031" lon="0.73122">
        <ele>166</ele>
        <time>2017-04-30T07:49:19.000Z</time>
      </trkpt>
      <trkpt lat="44.2303" lon="0.73129">
        <ele>166</ele>
        <time>2017-04-30T07:49:20.000Z</time>
      </trkpt>
      <trkpt lat="44.23029" lon="0.73135">
        <ele>166</ele>
        <time>2017-04-30T07:49:21.000Z</time>
      </trkpt>
      <trkpt lat="44.23027" lon="0.73141">
        <ele>166</ele>
        <time>2017-04-30T07:49:22.000Z</time>
      </trkpt>
      <trkpt lat="44.23026" lon="0.73148">
        <ele>166</ele>
        <time>2017-04-30T07:49:23.000Z</time>
      </trkpt>
      <trkpt lat="44.23024" lon="0.73154">
        <ele>166</ele>
        <time>2017-04-30T07:49:24.000Z</time>
      </trkpt>
      <trkpt lat="44.23023" lon="0.73159">
        <ele>166</ele>
        <time>2017-04-30T07:49:25.000Z</time>
      </trkpt>
      <trkpt lat="44.23022" lon="0.73164">
        <ele>167</ele>
        <time>2017-04-30T07:49:26.000Z</time>
      </trkpt>
      <trkpt lat="44.23021" lon="0.73169">
        <ele>167</ele>
        <time>2017-04-30T07:49:27.000Z</time>
      </trkpt>
      <trkpt lat="44.2302" lon="0.73173">
        <ele>167</ele>
        <time>2017-04-30T07:49:28.000Z</time>
      </trkpt>
      <trkpt lat="44.23019" lon="0.73177">
        <ele>167</ele>
        <time>2017-04-30T07:49:29.000Z</time>
      </trkpt>
      <trkpt lat="44.23018" lon="0.73181">
        <ele>167</ele>
        <time>2017-04-30T07:49:30.000Z</time>
      </trkpt>
      <trkpt lat="44.23017" lon="0.73185">
        <ele>167</ele>
        <time>2017-04-30T07:49:31.000Z</time>
      </trkpt>
      <trkpt lat="44.23017" lon="0.73189">
        <ele>168</ele>
        <time>2017-04-30T07:49:32.000Z</time>
      </trkpt>
      <trkpt lat="44.23015" lon="0.73192">
        <ele>168</ele>
        <time>2017-04-30T07:49:33.000Z</time>
      </trkpt>
      <trkpt lat="44.23015" lon="0.73195">
        <ele>168</ele>
        <time>2017-04-30T07:49:34.000Z</time>
      </trkpt>
      <trkpt lat="44.23014" lon="0.73197">
        <ele>168</ele>
        <time>2017-04-30T07:49:35.000Z</time>
      </trkpt>
      <trkpt lat="44.23013" lon="0.732">
        <ele>168</ele>
        <time>2017-04-30T07:49:36.000Z</time>
      </trkpt>
      <trkpt lat="44.23013" lon="0.73202">
        <ele>169</ele>
        <time>2017-04-30T07:49:37.000Z</time>
      </trkpt>
      <trkpt lat="44.23012" lon="0.73204">
        <ele>169</ele>
        <time>2017-04-30T07:49:38.000Z</time>
      </trkpt>
      <trkpt lat="44.23012" lon="0.73206">
        <ele>169</ele>
        <time>2017-04-30T07:49:39.000Z</time>
      </trkpt>
      <trkpt lat="44.23011" lon="0.73208">
        <ele>170</ele>
        <time>2017-04-30T07:49:40.000Z</time>
      </trkpt>
      <trkpt lat="44.2301" lon="0.7321">
        <ele>170</ele>
        <time>2017-04-30T07:49:41.000Z</time>
      </trkpt>
      <trkpt lat="44.2301" lon="0.73212">
        <ele>170</ele>
        <time>2017-04-30T07:49:42.000Z</time>
      </trkpt>
      <trkpt lat="44.23009" lon="0.73214">
        <ele>171</ele>
        <time>2017-04-30T07:49:43.000Z</time>
      </trkpt>
      <trkpt lat="44.23008" lon="0.73216">
        <ele>171</ele>
        <time>2017-04-30T07:49:44.000Z</time>
      </trkpt>
      <trkpt lat="44.23007" lon="0.73217">
        <ele>171</ele>
        <time>2017-04-30T07:49:45.000Z</time>
      </trkpt>
      <trkpt lat="44.23006" lon="0.73219">
        <ele>171</ele>
        <time>2017-04-30T07:49:46.000Z</time>
      </trkpt>
      <trkpt lat="44.23005" lon="0.73221">
        <ele>171</ele>
        <time>2017-04-30T07:49:47.000Z</time>
      </trkpt>
      <trkpt lat="44.23004" lon="0.73223">
        <ele>171</ele>
        <time>2017-04-30T07:49:48.000Z</time>
      </trkpt>
      <trkpt lat="44.23003" lon="0.73224">
        <ele>171</ele>
        <time>2017-04-30T07:49:49.000Z</time>
      </trkpt>
      <trkpt lat="44.23002" lon="0.73226">
        <ele>171</ele>
        <time>2017-04-30T07:49:50.000Z</time>
      </trkpt>
      <trkpt lat="44.23001" lon="0.73228">
        <ele>172</ele>
        <time>2017-04-30T07:49:51.000Z</time>
      </trkpt>
      <trkpt lat="44.23" lon="0.73229">
        <ele>172</ele>
        <time>2017-04-30T07:49:52.000Z</time>
      </trkpt>
      <trkpt lat="44.23" lon="0.73231">
        <ele>172</ele>
        <time>2017-04-30T07:49:53.000Z</time>
      </trkpt>
      <trkpt lat="44.22999" lon="0.73232">
        <ele>172</ele>
        <time>2017-04-30T07:49:54.000Z</time>
      </trkpt>
      <trkpt lat="44.22998" lon="0.73233">
        <ele>172</ele>
        <time>2017-04-30T07:49:55.000Z</time>
      </trkpt>
      <trkpt lat="44.22997" lon="0.73235">
        <ele>172</ele>
        <time>2017-04-30T07:49:56.000Z</time>
      </trkpt>
      <trkpt lat="44.22996" lon="0.73236">
        <ele>172</ele>
        <time>2017-04-30T07:49:57.000Z</time>
      </trkpt>
      <trkpt lat="44.22996" lon="0.73238">
        <ele>172</ele>
        <time>2017-04-30T07:49:58.000Z</time>
      </trkpt>
      <trkpt lat="44.22995" lon="0.73239">
        <ele>173</ele>
        <time>2017-04-30T07:49:59.000Z</time>
      </trkpt>
      <trkpt lat="44.22994" lon="0.73241">
        <ele>173</ele>
        <time>2017-04-30T07:50:00.000Z</time>
      </trkpt>
      <trkpt lat="44.22993" lon="0.73242">
        <ele>173</ele>
        <time>2017-04-30T07:50:01.000Z</time>
      </trkpt>
      <trkpt lat="44.22992" lon="0.73244">
        <ele>173</ele>
        <time>2017-04-30T07:50:02.000Z</time>
      </trkpt>
      <trkpt lat="44.22991" lon="0.73245">
        <ele>173</ele>
        <time>2017-04-30T07:50:03.000Z</time>
      </trkpt>
      <trkpt lat="44.2299" lon="0.73247">
        <ele>173</ele>
        <time>2017-04-30T07:50:04.000Z</time>
      </trkpt>
      <trkpt lat="44.2299" lon="0.73248">
        <ele>173</ele>
        <time>2017-04-30T07:50:05.000Z</time>
      </trkpt>
      <trkpt lat="44.22989" lon="0.7325">
        <ele>174</ele>
        <time>2017-04-30T07:50:06.000Z</time>
      </trkpt>
      <trkpt lat="44.22988" lon="0.73251">
        <ele>174</ele>
        <time>2017-04-30T07:50:07.000Z</time>
      </trkpt>
      <trkpt lat="44.22988" lon="0.73253">
        <ele>174</ele>
        <time>2017-04-30T07:50:08.000Z</time>
      </trkpt>
      <trkpt lat="44.22987" lon="0.73254">
        <ele>175</ele>
        <time>2017-04-30T07:50:09.000Z</time>
      </trkpt>
      <trkpt lat="44.22986" lon="0.73255">
        <ele>175</ele>
        <time>2017-04-30T07:50:10.000Z</time>
      </trkpt>
      <trkpt lat="44.22986" lon="0.73257">
        <ele>176</ele>
        <time>2017-04-30T07:50:11.000Z</time>
      </trkpt>
      <trkpt lat="44.22985" lon="0.73259">
        <ele>176</ele>
        <time>2017-04-30T07:50:12.000Z</time>
      </trkpt>
      <trkpt lat="44.22983" lon="0.73261">
        <ele>176</ele>
        <time>2017-04-30T07:50:13.000Z</time>
      </trkpt>
      <trkpt lat="44.22982" lon="0.73262">
        <ele>176</ele>
        <time>2017-04-30T07:50:14.000Z</time>
      </trkpt>
      <trkpt lat="44.22981" lon="0.73264">
        <ele>176</ele>
        <time>2017-04-30T07:50:15.000Z</time>
      </trkpt>
      <trkpt lat="44.22981" lon="0.73265">
        <ele>176</ele>
        <time>2017-04-30T07:50:16.000Z</time>
      </trkpt>
      <trkpt lat="44.2298" lon="0.73267">
        <ele>177</ele>
        <time>2017-04-30T07:50:17.000Z</time>
      </trkpt>
      <trkpt lat="44.22979" lon="0.73269">
        <ele>177</ele>
        <time>2017-04-30T07:50:18.000Z</time>
      </trkpt>
      <trkpt lat="44.22978" lon="0.7327">
        <ele>177</ele>
        <time>2017-04-30T07:50:19.000Z</time>
      </trkpt>
      <trkpt lat="44.22977" lon="0.73272">
        <ele>179</ele>
        <time>2017-04-30T07:50:20.000Z</time>
      </trkpt>
      <trkpt lat="44.22976" lon="0.73274">
        <ele>179</ele>
        <time>2017-04-30T07:50:21.000Z</time>
      </trkpt>
      <trkpt lat="44.22976" lon="0.73276">
        <ele>180</ele>
        <time>2017-04-30T07:50:22.000Z</time>
      </trkpt>
      <trkpt lat="44.22975" lon="0.73278">
        <ele>180</ele>
        <time>2017-04-30T07:50:23.000Z</time>
      </trkpt>
      <trkpt lat="44.22974" lon="0.73279">
        <ele>180</ele>
        <time>2017-04-30T07:50:24.000Z</time>
      </trkpt>
      <trkpt lat="44.22973" lon="0.73281">
        <ele>181</ele>
        <time>2017-04-30T07:50:25.000Z</time>
      </trkpt>
      <trkpt lat="44.22972" lon="0.73283">
        <ele>181</ele>
        <time>2017-04-30T07:50:26.000Z</time>
      </trkpt>
      <trkpt lat="44.22971" lon="0.73285">
        <ele>181</ele>
        <time>2017-04-30T07:50:27.000Z</time>
      </trkpt>
      <trkpt lat="44.2297" lon="0.73286">
        <ele>181</ele>
        <time>2017-04-30T07:50:28.000Z</time>
      </trkpt>
      <trkpt lat="44.22969" lon="0.73288">
        <ele>182</ele>
        <time>2017-04-30T07:50:29.000Z</time>
      </trkpt>
      <trkpt lat="44.22968" lon="0.7329">
        <ele>182</ele>
        <time>2017-04-30T07:50:30.000Z</time>
      </trkpt>
      <trkpt lat="44.22968" lon="0.73291">
        <ele>183</ele>
        <time>2017-04-30T07:50:31.000Z</time>
      </trkpt>
      <trkpt lat="44.22967" lon="0.73293">
        <ele>183</ele>
        <time>2017-04-30T07:50:32.000Z</time>
      </trkpt>
      <trkpt lat="44.22966" lon="0.73295">
        <ele>183</ele>
        <time>2017-04-30T07:50:33.000Z</time>
      </trkpt>
      <trkpt lat="44.22965" lon="0.73297">
        <ele>184</ele>
        <time>2017-04-30T07:50:34.000Z</time>
      </trkpt>
      <trkpt lat="44.22964" lon="0.73299">
        <ele>184</ele>
        <time>2017-04-30T07:50:35.000Z</time>
      </trkpt>
      <trkpt lat="44.22963" lon="0.73301">
        <ele>184</ele>
        <time>2017-04-30T07:50:36.000Z</time>
      </trkpt>
      <trkpt lat="44.22962" lon="0.73303">
        <ele>185</ele>
        <time>2017-04-30T07:50:37.000Z</time>
      </trkpt>
      <trkpt lat="44.22961" lon="0.73305">
        <ele>185</ele>
        <time>2017-04-30T07:50:38.000Z</time>
      </trkpt>
      <trkpt lat="44.2296" lon="0.73306">
        <ele>185</ele>
        <time>2017-04-30T07:50:39.000Z</time>
      </trkpt>
      <trkpt lat="44.22959" lon="0.73308">
        <ele>185</ele>
        <time>2017-04-30T07:50:40.000Z</time>
      </trkpt>
      <trkpt lat="44.22958" lon="0.73311">
        <ele>186</ele>
        <time>2017-04-30T07:50:41.000Z</time>
      </trkpt>
      <trkpt lat="44.22958" lon="0.73313">
        <ele>186</ele>
        <time>2017-04-30T07:50:42.000Z</time>
      </trkpt>
      <trkpt lat="44.22957" lon="0.73315">
        <ele>186</ele>
        <time>2017-04-30T07:50:43.000Z</time>
      </trkpt>
      <trkpt lat="44.22956" lon="0.73317">
        <ele>186</ele>
        <time>2017-04-30T07:50:44.000Z</time>
      </trkpt>
      <trkpt lat="44.22955" lon="0.7332">
        <ele>186</ele>
        <time>2017-04-30T07:50:45.000Z</time>
      </trkpt>
      <trkpt lat="44.22954" lon="0.73322">
        <ele>186</ele>
        <time>2017-04-30T07:50:46.000Z</time>
      </trkpt>
      <trkpt lat="44.22953" lon="0.73325">
        <ele>186</ele>
        <time>2017-04-30T07:50:47.000Z</time>
      </trkpt>
      <trkpt lat="44.22952" lon="0.73328">
        <ele>186</ele>
        <time>2017-04-30T07:50:48.000Z</time>
      </trkpt>
      <trkpt lat="44.22952" lon="0.73331">
        <ele>186</ele>
        <time>2017-04-30T07:50:49.000Z</time>
      </trkpt>
      <trkpt lat="44.22951" lon="0.73334">
        <ele>186</ele>
        <time>2017-04-30T07:50:50.000Z</time>
      </trkpt>
      <trkpt lat="44.22951" lon="0.73338">
        <ele>186</ele>
        <time>2017-04-30T07:50:51.000Z</time>
      </trkpt>
      <trkpt lat="44.2295" lon="0.73341">
        <ele>186</ele>
        <time>2017-04-30T07:50:52.000Z</time>
      </trkpt>
      <trkpt lat="44.2295" lon="0.73344">
        <ele>186</ele>
        <time>2017-04-30T07:50:53.000Z</time>
      </trkpt>
      <trkpt lat="44.22949" lon="0.73348">
        <ele>186</ele>
        <time>2017-04-30T07:50:54.000Z</time>
      </trkpt>
      <trkpt lat="44.22949" lon="0.73352">
        <ele>186</ele>
        <time>2017-04-30T07:50:55.000Z</time>
      </trkpt>
      <trkpt lat="44.22948" lon="0.73356">
        <ele>186</ele>
        <time>2017-04-30T07:50:56.000Z</time>
      </trkpt>
      <trkpt lat="44.22948" lon="0.7336">
        <ele>186</ele>
        <time>2017-04-30T07:50:57.000Z</time>
      </trkpt>
      <trkpt lat="44.22948" lon="0.73364">
        <ele>186</ele>
        <time>2017-04-30T07:50:58.000Z</time>
      </trkpt>
      <trkpt lat="44.22947" lon="0.73368">
        <ele>186</ele>
        <time>2017-04-30T07:50:59.000Z</time>
      </trkpt>
      <trkpt lat="44.22947" lon="0.73373">
        <ele>186</ele>
        <time>2017-04-30T07:51:00.000Z</time>
      </trkpt>
      <trkpt lat="44.22946" lon="0.73377">
        <ele>186</ele>
        <time>2017-04-30T07:51:01.000Z</time>
      </trkpt>
      <trkpt lat="44.22945" lon="0.73382">
        <ele>186</ele>
        <time>2017-04-30T07:51:02.000Z</time>
      </trkpt>
      <trkpt lat="44.22945" lon="0.73386">
        <ele>186</ele>
        <time>2017-04-30T07:51:03.000Z</time>
      </trkpt>
      <trkpt lat="44.22944" lon="0.73391">
        <ele>186</ele>
        <time>2017-04-30T07:51:04.000Z</time>
      </trkpt>
      <trkpt lat="44.22943" lon="0.73395">
        <ele>187</ele>
        <time>2017-04-30T07:51:05.000Z</time>
      </trkpt>
      <trkpt lat="44.22942" lon="0.734">
        <ele>187</ele>
        <time>2017-04-30T07:51:06.000Z</time>
      </trkpt>
      <trkpt lat="44.22942" lon="0.73406">
        <ele>187</ele>
        <time>2017-04-30T07:51:07.000Z</time>
      </trkpt>
      <trkpt lat="44.22941" lon="0.73411">
        <ele>187</ele>
        <time>2017-04-30T07:51:08.000Z</time>
      </trkpt>
      <trkpt lat="44.22941" lon="0.73417">
        <ele>187</ele>
        <time>2017-04-30T07:51:09.000Z</time>
      </trkpt>
      <trkpt lat="44.2294" lon="0.73423">
        <ele>187</ele>
        <time>2017-04-30T07:51:10.000Z</time>
      </trkpt>
      <trkpt lat="44.2294" lon="0.73429">
        <ele>188</ele>
        <time>2017-04-30T07:51:11.000Z</time>
      </trkpt>
      <trkpt lat="44.2294" lon="0.73435">
        <ele>188</ele>
        <time>2017-04-30T07:51:12.000Z</time>
      </trkpt>
      <trkpt lat="44.22939" lon="0.73441">
        <ele>188</ele>
        <time>2017-04-30T07:51:13.000Z</time>
      </trkpt>
      <trkpt lat="44.22939" lon="0.73447">
        <ele>188</ele>
        <time>2017-04-30T07:51:14.000Z</time>
      </trkpt>
      <trkpt lat="44.22939" lon="0.73454">
        <ele>188</ele>
        <time>2017-04-30T07:51:15.000Z</time>
      </trkpt>
      <trkpt lat="44.22939" lon="0.73461">
        <ele>188</ele>
        <time>2017-04-30T07:51:16.000Z</time>
      </trkpt>
      <trkpt lat="44.22939" lon="0.73469">
        <ele>188</ele>
        <time>2017-04-30T07:51:17.000Z</time>
      </trkpt>
      <trkpt lat="44.22939" lon="0.73477">
        <ele>187</ele>
        <time>2017-04-30T07:51:18.000Z</time>
      </trkpt>
      <trkpt lat="44.22939" lon="0.73485">
        <ele>185</ele>
        <time>2017-04-30T07:51:19.000Z</time>
      </trkpt>
      <trkpt lat="44.22939" lon="0.73493">
        <ele>184</ele>
        <time>2017-04-30T07:51:20.000Z</time>
      </trkpt>
      <trkpt lat="44.22939" lon="0.73501">
        <ele>183</ele>
        <time>2017-04-30T07:51:21.000Z</time>
      </trkpt>
      <trkpt lat="44.22939" lon="0.73509">
        <ele>183</ele>
        <time>2017-04-30T07:51:22.000Z</time>
      </trkpt>
      <trkpt lat="44.2294" lon="0.73516">
        <ele>183</ele>
        <time>2017-04-30T07:51:23.000Z</time>
      </trkpt>
      <trkpt lat="44.2294" lon="0.73524">
        <ele>182</ele>
        <time>2017-04-30T07:51:24.000Z</time>
      </trkpt>
      <trkpt lat="44.22941" lon="0.7353">
        <ele>183</ele>
        <time>2017-04-30T07:51:25.000Z</time>
      </trkpt>
      <trkpt lat="44.22942" lon="0.73538">
        <ele>183</ele>
        <time>2017-04-30T07:51:26.000Z</time>
      </trkpt>
      <trkpt lat="44.22941" lon="0.73545">
        <ele>183</ele>
        <time>2017-04-30T07:51:27.000Z</time>
      </trkpt>
      <trkpt lat="44.22942" lon="0.73552">
        <ele>184</ele>
        <time>2017-04-30T07:51:28.000Z</time>
      </trkpt>
      <trkpt lat="44.22943" lon="0.73559">
        <ele>184</ele>
        <time>2017-04-30T07:51:29.000Z</time>
      </trkpt>
      <trkpt lat="44.22944" lon="0.73566">
        <ele>184</ele>
        <time>2017-04-30T07:51:30.000Z</time>
      </trkpt>
      <trkpt lat="44.22944" lon="0.73572">
        <ele>184</ele>
        <time>2017-04-30T07:51:31.000Z</time>
      </trkpt>
      <trkpt lat="44.22945" lon="0.73578">
        <ele>184</ele>
        <time>2017-04-30T07:51:32.000Z</time>
      </trkpt>
      <trkpt lat="44.22946" lon="0.73583">
        <ele>185</ele>
        <time>2017-04-30T07:51:33.000Z</time>
      </trkpt>
      <trkpt lat="44.22947" lon="0.73588">
        <ele>185</ele>
        <time>2017-04-30T07:51:34.000Z</time>
      </trkpt>
      <trkpt lat="44.22947" lon="0.73593">
        <ele>185</ele>
        <time>2017-04-30T07:51:35.000Z</time>
      </trkpt>
      <trkpt lat="44.22948" lon="0.73598">
        <ele>185</ele>
        <time>2017-04-30T07:51:36.000Z</time>
      </trkpt>
      <trkpt lat="44.22949" lon="0.73603">
        <ele>185</ele>
        <time>2017-04-30T07:51:37.000Z</time>
      </trkpt>
      <trkpt lat="44.2295" lon="0.73608">
        <ele>185</ele>
        <time>2017-04-30T07:51:38.000Z</time>
      </trkpt>
      <trkpt lat="44.22951" lon="0.73614">
        <ele>184</ele>
        <time>2017-04-30T07:51:39.000Z</time>
      </trkpt>
      <trkpt lat="44.22952" lon="0.73619">
        <ele>184</ele>
        <time>2017-04-30T07:51:40.000Z</time>
      </trkpt>
      <trkpt lat="44.22953" lon="0.73625">
        <ele>184</ele>
        <time>2017-04-30T07:51:41.000Z</time>
      </trkpt>
      <trkpt lat="44.22955" lon="0.73631">
        <ele>184</ele>
        <time>2017-04-30T07:51:42.000Z</time>
      </trkpt>
      <trkpt lat="44.22956" lon="0.73637">
        <ele>184</ele>
        <time>2017-04-30T07:51:43.000Z</time>
      </trkpt>
      <trkpt lat="44.22958" lon="0.73643">
        <ele>184</ele>
        <time>2017-04-30T07:51:44.000Z</time>
      </trkpt>
      <trkpt lat="44.22959" lon="0.73649">
        <ele>184</ele>
        <time>2017-04-30T07:51:45.000Z</time>
      </trkpt>
      <trkpt lat="44.22961" lon="0.73654">
        <ele>184</ele>
        <time>2017-04-30T07:51:46.000Z</time>
      </trkpt>
      <trkpt lat="44.22964" lon="0.7366">
        <ele>184</ele>
        <time>2017-04-30T07:51:47.000Z</time>
      </trkpt>
      <trkpt lat="44.22966" lon="0.73666">
        <ele>183</ele>
        <time>2017-04-30T07:51:48.000Z</time>
      </trkpt>
      <trkpt lat="44.22969" lon="0.73671">
        <ele>184</ele>
        <time>2017-04-30T07:51:49.000Z</time>
      </trkpt>
      <trkpt lat="44.22972" lon="0.73676">
        <ele>184</ele>
        <time>2017-04-30T07:51:50.000Z</time>
      </trkpt>
      <trkpt lat="44.22975" lon="0.73682">
        <ele>184</ele>
        <time>2017-04-30T07:51:51.000Z</time>
      </trkpt>
      <trkpt lat="44.22978" lon="0.73687">
        <ele>184</ele>
        <time>2017-04-30T07:51:52.000Z</time>
      </trkpt>
      <trkpt lat="44.22981" lon="0.73692">
        <ele>184</ele>
        <time>2017-04-30T07:51:53.000Z</time>
      </trkpt>
      <trkpt lat="44.22984" lon="0.73697">
        <ele>184</ele>
        <time>2017-04-30T07:51:54.000Z</time>
      </trkpt>
      <trkpt lat="44.22987" lon="0.73703">
        <ele>184</ele>
        <time>2017-04-30T07:51:55.000Z</time>
      </trkpt>
      <trkpt lat="44.2299" lon="0.73708">
        <ele>184</ele>
        <time>2017-04-30T07:51:56.000Z</time>
      </trkpt>
      <trkpt lat="44.22992" lon="0.73713">
        <ele>184</ele>
        <time>2017-04-30T07:51:57.000Z</time>
      </trkpt>
      <trkpt lat="44.22995" lon="0.73718">
        <ele>184</ele>
        <time>2017-04-30T07:51:58.000Z</time>
      </trkpt>
      <trkpt lat="44.22997" lon="0.73723">
        <ele>184</ele>
        <time>2017-04-30T07:51:59.000Z</time>
      </trkpt>
      <trkpt lat="44.23" lon="0.73729">
        <ele>184</ele>
        <time>2017-04-30T07:52:00.000Z</time>
      </trkpt>
      <trkpt lat="44.23002" lon="0.73734">
        <ele>184</ele>
        <time>2017-04-30T07:52:01.000Z</time>
      </trkpt>
      <trkpt lat="44.23004" lon="0.7374">
        <ele>184</ele>
        <time>2017-04-30T07:52:02.000Z</time>
      </trkpt>
      <trkpt lat="44.23006" lon="0.73745">
        <ele>184</ele>
        <time>2017-04-30T07:52:03.000Z</time>
      </trkpt>
      <trkpt lat="44.23008" lon="0.73751">
        <ele>184</ele>
        <time>2017-04-30T07:52:04.000Z</time>
      </trkpt>
      <trkpt lat="44.23009" lon="0.73757">
        <ele>184</ele>
        <time>2017-04-30T07:52:05.000Z</time>
      </trkpt>
      <trkpt lat="44.23011" lon="0.73762">
        <ele>184</ele>
        <time>2017-04-30T07:52:06.000Z</time>
      </trkpt>
      <trkpt lat="44.23013" lon="0.73768">
        <ele>184</ele>
        <time>2017-04-30T07:52:07.000Z</time>
      </trkpt>
      <trkpt lat="44.23015" lon="0.73773">
        <ele>184</ele>
        <time>2017-04-30T07:52:08.000Z</time>
      </trkpt>
      <trkpt lat="44.23017" lon="0.73778">
        <ele>184</ele>
        <time>2017-04-30T07:52:09.000Z</time>
      </trkpt>
      <trkpt lat="44.23019" lon="0.73783">
        <ele>184</ele>
        <time>2017-04-30T07:52:10.000Z</time>
      </trkpt>
      <trkpt lat="44.23021" lon="0.73789">
        <ele>184</ele>
        <time>2017-04-30T07:52:11.000Z</time>
      </trkpt>
      <trkpt lat="44.23022" lon="0.73794">
        <ele>184</ele>
        <time>2017-04-30T07:52:12.000Z</time>
      </trkpt>
      <trkpt lat="44.23024" lon="0.73799">
        <ele>184</ele>
        <time>2017-04-30T07:52:13.000Z</time>
      </trkpt>
      <trkpt lat="44.23026" lon="0.73804">
        <ele>185</ele>
        <time>2017-04-30T07:52:14.000Z</time>
      </trkpt>
      <trkpt lat="44.23028" lon="0.73809">
        <ele>185</ele>
        <time>2017-04-30T07:52:15.000Z</time>
      </trkpt>
      <trkpt lat="44.23029" lon="0.73814">
        <ele>185</ele>
        <time>2017-04-30T07:52:16.000Z</time>
      </trkpt>
      <trkpt lat="44.23031" lon="0.73819">
        <ele>185</ele>
        <time>2017-04-30T07:52:17.000Z</time>
      </trkpt>
      <trkpt lat="44.23033" lon="0.73825">
        <ele>185</ele>
        <time>2017-04-30T07:52:18.000Z</time>
      </trkpt>
      <trkpt lat="44.23034" lon="0.7383">
        <ele>185</ele>
        <time>2017-04-30T07:52:19.000Z</time>
      </trkpt>
      <trkpt lat="44.23036" lon="0.73834">
        <ele>186</ele>
        <time>2017-04-30T07:52:20.000Z</time>
      </trkpt>
      <trkpt lat="44.23038" lon="0.73839">
        <ele>186</ele>
        <time>2017-04-30T07:52:21.000Z</time>
      </trkpt>
      <trkpt lat="44.23039" lon="0.73844">
        <ele>186</ele>
        <time>2017-04-30T07:52:22.000Z</time>
      </trkpt>
      <trkpt lat="44.2304" lon="0.73849">
        <ele>186</ele>
        <time>2017-04-30T07:52:23.000Z</time>
      </trkpt>
      <trkpt lat="44.23042" lon="0.73854">
        <ele>186</ele>
        <time>2017-04-30T07:52:24.000Z</time>
      </trkpt>
      <trkpt lat="44.23043" lon="0.73859">
        <ele>186</ele>
        <time>2017-04-30T07:52:25.000Z</time>
      </trkpt>
      <trkpt lat="44.23043" lon="0.73864">
        <ele>186</ele>
        <time>2017-04-30T07:52:26.000Z</time>
      </trkpt>
      <trkpt lat="44.23043" lon="0.73868">
        <ele>186</ele>
        <time>2017-04-30T07:52:27.000Z</time>
      </trkpt>
      <trkpt lat="44.23043" lon="0.73874">
        <ele>186</ele>
        <time>2017-04-30T07:52:28.000Z</time>
      </trkpt>
      <trkpt lat="44.23043" lon="0.73879">
        <ele>186</ele>
        <time>2017-04-30T07:52:29.000Z</time>
      </trkpt>
      <trkpt lat="44.23043" lon="0.73884">
        <ele>186</ele>
        <time>2017-04-30T07:52:30.000Z</time>
      </trkpt>
      <trkpt lat="44.23042" lon="0.73889">
        <ele>186</ele>
        <time>2017-04-30T07:52:31.000Z</time>
      </trkpt>
      <trkpt lat="44.23041" lon="0.73894">
        <ele>186</ele>
        <time>2017-04-30T07:52:32.000Z</time>
      </trkpt>
      <trkpt lat="44.2304" lon="0.73899">
        <ele>186</ele>
        <time>2017-04-30T07:52:33.000Z</time>
      </trkpt>
      <trkpt lat="44.2304" lon="0.73904">
        <ele>186</ele>
        <time>2017-04-30T07:52:34.000Z</time>
      </trkpt>
      <trkpt lat="44.23039" lon="0.73909">
        <ele>186</ele>
        <time>2017-04-30T07:52:35.000Z</time>
      </trkpt>
      <trkpt lat="44.23038" lon="0.73914">
        <ele>186</ele>
        <time>2017-04-30T07:52:36.000Z</time>
      </trkpt>
      <trkpt lat="44.23037" lon="0.7392">
        <ele>186</ele>
        <time>2017-04-30T07:52:37.000Z</time>
      </trkpt>
      <trkpt lat="44.23035" lon="0.73925">
        <ele>186</ele>
        <time>2017-04-30T07:52:38.000Z</time>
      </trkpt>
      <trkpt lat="44.23034" lon="0.7393">
        <ele>186</ele>
        <time>2017-04-30T07:52:39.000Z</time>
      </trkpt>
      <trkpt lat="44.23033" lon="0.73936">
        <ele>185</ele>
        <time>2017-04-30T07:52:40.000Z</time>
      </trkpt>
      <trkpt lat="44.23031" lon="0.73942">
        <ele>185</ele>
        <time>2017-04-30T07:52:41.000Z</time>
      </trkpt>
      <trkpt lat="44.23029" lon="0.73948">
        <ele>184</ele>
        <time>2017-04-30T07:52:42.000Z</time>
      </trkpt>
      <trkpt lat="44.23027" lon="0.73954">
        <ele>184</ele>
        <time>2017-04-30T07:52:43.000Z</time>
      </trkpt>
      <trkpt lat="44.23025" lon="0.73959">
        <ele>184</ele>
        <time>2017-04-30T07:52:44.000Z</time>
      </trkpt>
      <trkpt lat="44.23022" lon="0.73965">
        <ele>183</ele>
        <time>2017-04-30T07:52:45.000Z</time>
      </trkpt>
      <trkpt lat="44.2302" lon="0.73971">
        <ele>183</ele>
        <time>2017-04-30T07:52:46.000Z</time>
      </trkpt>
      <trkpt lat="44.23018" lon="0.73977">
        <ele>183</ele>
        <time>2017-04-30T07:52:47.000Z</time>
      </trkpt>
      <trkpt lat="44.23015" lon="0.73984">
        <ele>183</ele>
        <time>2017-04-30T07:52:48.000Z</time>
      </trkpt>
      <trkpt lat="44.23013" lon="0.7399">
        <ele>183</ele>
        <time>2017-04-30T07:52:49.000Z</time>
      </trkpt>
      <trkpt lat="44.23011" lon="0.73996">
        <ele>183</ele>
        <time>2017-04-30T07:52:50.000Z</time>
      </trkpt>
      <trkpt lat="44.23008" lon="0.74003">
        <ele>182</ele>
        <time>2017-04-30T07:52:51.000Z</time>
      </trkpt>
      <trkpt lat="44.23005" lon="0.74008">
        <ele>183</ele>
        <time>2017-04-30T07:52:52.000Z</time>
      </trkpt>
      <trkpt lat="44.23002" lon="0.74014">
        <ele>183</ele>
        <time>2017-04-30T07:52:53.000Z</time>
      </trkpt>
      <trkpt lat="44.23" lon="0.7402">
        <ele>183</ele>
        <time>2017-04-30T07:52:54.000Z</time>
      </trkpt>
      <trkpt lat="44.22997" lon="0.74025">
        <ele>183</ele>
        <time>2017-04-30T07:52:55.000Z</time>
      </trkpt>
      <trkpt lat="44.22994" lon="0.74031">
        <ele>182</ele>
        <time>2017-04-30T07:52:56.000Z</time>
      </trkpt>
      <trkpt lat="44.22991" lon="0.74036">
        <ele>182</ele>
        <time>2017-04-30T07:52:57.000Z</time>
      </trkpt>
      <trkpt lat="44.22988" lon="0.74041">
        <ele>182</ele>
        <time>2017-04-30T07:52:58.000Z</time>
      </trkpt>
      <trkpt lat="44.22985" lon="0.74046">
        <ele>183</ele>
        <time>2017-04-30T07:52:59.000Z</time>
      </trkpt>
      <trkpt lat="44.22982" lon="0.74051">
        <ele>183</ele>
        <time>2017-04-30T07:53:00.000Z</time>
      </trkpt>
      <trkpt lat="44.22979" lon="0.74055">
        <ele>183</ele>
        <time>2017-04-30T07:53:01.000Z</time>
      </trkpt>
      <trkpt lat="44.22975" lon="0.74059">
        <ele>184</ele>
        <time>2017-04-30T07:53:02.000Z</time>
      </trkpt>
      <trkpt lat="44.22971" lon="0.74064">
        <ele>184</ele>
        <time>2017-04-30T07:53:03.000Z</time>
      </trkpt>
      <trkpt lat="44.22967" lon="0.74069">
        <ele>184</ele>
        <time>2017-04-30T07:53:04.000Z</time>
      </trkpt>
      <trkpt lat="44.22963" lon="0.74075">
        <ele>184</ele>
        <time>2017-04-30T07:53:05.000Z</time>
      </trkpt>
      <trkpt lat="44.22959" lon="0.7408">
        <ele>184</ele>
        <time>2017-04-30T07:53:06.000Z</time>
      </trkpt>
      <trkpt lat="44.22956" lon="0.74086">
        <ele>183</ele>
        <time>2017-04-30T07:53:07.000Z</time>
      </trkpt>
      <trkpt lat="44.22952" lon="0.74092">
        <ele>182</ele>
        <time>2017-04-30T07:53:08.000Z</time>
      </trkpt>
      <trkpt lat="44.22948" lon="0.74098">
        <ele>181</ele>
        <time>2017-04-30T07:53:09.000Z</time>
      </trkpt>
      <trkpt lat="44.22945" lon="0.74104">
        <ele>180</ele>
        <time>2017-04-30T07:53:10.000Z</time>
      </trkpt>
      <trkpt lat="44.22941" lon="0.74109">
        <ele>179</ele>
        <time>2017-04-30T07:53:11.000Z</time>
      </trkpt>
      <trkpt lat="44.22938" lon="0.74115">
        <ele>178</ele>
        <time>2017-04-30T07:53:12.000Z</time>
      </trkpt>
      <trkpt lat="44.22933" lon="0.7412">
        <ele>177</ele>
        <time>2017-04-30T07:53:13.000Z</time>
      </trkpt>
      <trkpt lat="44.22928" lon="0.74124">
        <ele>177</ele>
        <time>2017-04-30T07:53:14.000Z</time>
      </trkpt>
      <trkpt lat="44.22923" lon="0.74128">
        <ele>176</ele>
        <time>2017-04-30T07:53:15.000Z</time>
      </trkpt>
      <trkpt lat="44.22917" lon="0.74131">
        <ele>175</ele>
        <time>2017-04-30T07:53:16.000Z</time>
      </trkpt>
      <trkpt lat="44.22911" lon="0.74133">
        <ele>175</ele>
        <time>2017-04-30T07:53:17.000Z</time>
      </trkpt>
      <trkpt lat="44.22904" lon="0.74135">
        <ele>174</ele>
        <time>2017-04-30T07:53:18.000Z</time>
      </trkpt>
      <trkpt lat="44.22897" lon="0.74137">
        <ele>174</ele>
        <time>2017-04-30T07:53:19.000Z</time>
      </trkpt>
      <trkpt lat="44.2289" lon="0.74138">
        <ele>173</ele>
        <time>2017-04-30T07:53:20.000Z</time>
      </trkpt>
      <trkpt lat="44.22883" lon="0.7414">
        <ele>172</ele>
        <time>2017-04-30T07:53:21.000Z</time>
      </trkpt>
      <trkpt lat="44.22877" lon="0.74142">
        <ele>171</ele>
        <time>2017-04-30T07:53:22.000Z</time>
      </trkpt>
      <trkpt lat="44.2287" lon="0.74146">
        <ele>170</ele>
        <time>2017-04-30T07:53:23.000Z</time>
      </trkpt>
      <trkpt lat="44.22864" lon="0.74151">
        <ele>169</ele>
        <time>2017-04-30T07:53:24.000Z</time>
      </trkpt>
      <trkpt lat="44.22859" lon="0.74158">
        <ele>168</ele>
        <time>2017-04-30T07:53:25.000Z</time>
      </trkpt>
      <trkpt lat="44.22854" lon="0.74165">
        <ele>167</ele>
        <time>2017-04-30T07:53:26.000Z</time>
      </trkpt>
      <trkpt lat="44.22849" lon="0.74173">
        <ele>166</ele>
        <time>2017-04-30T07:53:27.000Z</time>
      </trkpt>
      <trkpt lat="44.22845" lon="0.7418">
        <ele>166</ele>
        <time>2017-04-30T07:53:28.000Z</time>
      </trkpt>
      <trkpt lat="44.22841" lon="0.74188">
        <ele>165</ele>
        <time>2017-04-30T07:53:29.000Z</time>
      </trkpt>
      <trkpt lat="44.22837" lon="0.74197">
        <ele>164</ele>
        <time>2017-04-30T07:53:30.000Z</time>
      </trkpt>
      <trkpt lat="44.22834" lon="0.74206">
        <ele>163</ele>
        <time>2017-04-30T07:53:31.000Z</time>
      </trkpt>
      <trkpt lat="44.22831" lon="0.74215">
        <ele>162</ele>
        <time>2017-04-30T07:53:32.000Z</time>
      </trkpt>
      <trkpt lat="44.22828" lon="0.74223">
        <ele>161</ele>
        <time>2017-04-30T07:53:33.000Z</time>
      </trkpt>
      <trkpt lat="44.22827" lon="0.74229">
        <ele>161</ele>
        <time>2017-04-30T07:53:34.000Z</time>
      </trkpt>
      <trkpt lat="44.22826" lon="0.74235">
        <ele>161</ele>
        <time>2017-04-30T07:53:35.000Z</time>
      </trkpt>
      <trkpt lat="44.22825" lon="0.74238">
        <ele>160</ele>
        <time>2017-04-30T07:53:36.000Z</time>
      </trkpt>
      <trkpt lat="44.22825" lon="0.74236">
        <ele>161</ele>
        <time>2017-04-30T07:53:37.000Z</time>
      </trkpt>
      <trkpt lat="44.22826" lon="0.74236">
        <ele>160</ele>
        <time>2017-04-30T07:53:38.000Z</time>
      </trkpt>
      <trkpt lat="44.22825" lon="0.74236">
        <ele>159</ele>
        <time>2017-04-30T07:53:39.000Z</time>
      </trkpt>
      <trkpt lat="44.22826" lon="0.74236">
        <ele>159</ele>
        <time>2017-04-30T07:53:40.000Z</time>
      </trkpt>
      <trkpt lat="44.22827" lon="0.74236">
        <ele>160</ele>
        <time>2017-04-30T07:53:41.000Z</time>
      </trkpt>
      <trkpt lat="44.22827" lon="0.74237">
        <ele>162</ele>
        <time>2017-04-30T07:53:42.000Z</time>
      </trkpt>
      <trkpt lat="44.22827" lon="0.74237">
        <ele>161</ele>
        <time>2017-04-30T07:53:43.000Z</time>
      </trkpt>
      <trkpt lat="44.22828" lon="0.74237">
        <ele>161</ele>
        <time>2017-04-30T07:53:44.000Z</time>
      </trkpt>
      <trkpt lat="44.22828" lon="0.74237">
        <ele>161</ele>
        <time>2017-04-30T07:53:45.000Z</time>
      </trkpt>
      <trkpt lat="44.22828" lon="0.74237">
        <ele>161</ele>
        <time>2017-04-30T07:53:46.000Z</time>
      </trkpt>
      <trkpt lat="44.22828" lon="0.74237">
        <ele>161</ele>
        <time>2017-04-30T07:53:47.000Z</time>
      </trkpt>
      <trkpt lat="44.22828" lon="0.74237">
        <ele>161</ele>
        <time>2017-04-30T07:53:48.000Z</time>
      </trkpt>
      <trkpt lat="44.22828" lon="0.74237">
        <ele>161</ele>
        <time>2017-04-30T07:53:49.000Z</time>
      </trkpt>
      <trkpt lat="44.22828" lon="0.74237">
        <ele>161</ele>
        <time>2017-04-30T07:53:50.000Z</time>
      </trkpt>
      <trkpt lat="44.22827" lon="0.74237">
        <ele>161</ele>
        <time>2017-04-30T07:53:51.000Z</time>
      </trkpt>
      <trkpt lat="44.22827" lon="0.74237">
        <ele>161</ele>
        <time>2017-04-30T07:53:52.000Z</time>
      </trkpt>
      <trkpt lat="44.22827" lon="0.74237">
        <ele>161</ele>
        <time>2017-04-30T07:53:53.000Z</time>
      </trkpt>
      <trkpt lat="44.22827" lon="0.74237">
        <ele>161</ele>
        <time>2017-04-30T07:53:54.000Z</time>
      </trkpt>
      <trkpt lat="44.22827" lon="0.74237">
        <ele>161</ele>
        <time>2017-04-30T07:53:55.000Z</time>
      </trkpt>
      <trkpt lat="44.22827" lon="0.74237">
        <ele>161</ele>
        <time>2017-04-30T07:53:56.000Z</time>
      </trkpt>
      <trkpt lat="44.22827" lon="0.74237">
        <ele>161</ele>
        <time>2017-04-30T07:53:57.000Z</time>
      </trkpt>
      <trkpt lat="44.22827" lon="0.74237">
        <ele>161</ele>
        <time>2017-04-30T07:53:58.000Z</time>
      </trkpt>
      <trkpt lat="44.22827" lon="0.74237">
        <ele>161</ele>
        <time>2017-04-30T07:53:59.000Z</time>
      </trkpt>
      <trkpt lat="44.22826" lon="0.74237">
        <ele>161</ele>
        <time>2017-04-30T07:54:00.000Z</time>
      </trkpt>
      <trkpt lat="44.22826" lon="0.74237">
        <ele>161</ele>
        <time>2017-04-30T07:54:01.000Z</time>
      </trkpt>
      <trkpt lat="44.22826" lon="0.74236">
        <ele>161</ele>
        <time>2017-04-30T07:54:02.000Z</time>
      </trkpt>
      <trkpt lat="44.22826" lon="0.74236">
        <ele>160</ele>
        <time>2017-04-30T07:54:03.000Z</time>
      </trkpt>
      <trkpt lat="44.22826" lon="0.74236">
        <ele>160</ele>
        <time>2017-04-30T07:54:04.000Z</time>
      </trkpt>
      <trkpt lat="44.22825" lon="0.74236">
        <ele>160</ele>
        <time>2017-04-30T07:54:05.000Z</time>
      </trkpt>
      <trkpt lat="44.22825" lon="0.74236">
        <ele>160</ele>
        <time>2017-04-30T07:54:06.000Z</time>
      </trkpt>
      <trkpt lat="44.22825" lon="0.74236">
        <ele>161</ele>
        <time>2017-04-30T07:54:07.000Z</time>
      </trkpt>
      <trkpt lat="44.22825" lon="0.74236">
        <ele>161</ele>
        <time>2017-04-30T07:54:08.000Z</time>
      </trkpt>
      <trkpt lat="44.22825" lon="0.74236">
        <ele>161</ele>
        <time>2017-04-30T07:54:09.000Z</time>
      </trkpt>
      <trkpt lat="44.22825" lon="0.74235">
        <ele>162</ele>
        <time>2017-04-30T07:54:10.000Z</time>
      </trkpt>
      <trkpt lat="44.22824" lon="0.74235">
        <ele>162</ele>
        <time>2017-04-30T07:54:11.000Z</time>
      </trkpt>
      <trkpt lat="44.22824" lon="0.74235">
        <ele>162</ele>
        <time>2017-04-30T07:54:12.000Z</time>
      </trkpt>
      <trkpt lat="44.22824" lon="0.74235">
        <ele>163</ele>
        <time>2017-04-30T07:54:13.000Z</time>
      </trkpt>
      <trkpt lat="44.22824" lon="0.74235">
        <ele>163</ele>
        <time>2017-04-30T07:54:14.000Z</time>
      </trkpt>
      <trkpt lat="44.22824" lon="0.74235">
        <ele>164</ele>
        <time>2017-04-30T07:54:15.000Z</time>
      </trkpt>
      <trkpt lat="44.22824" lon="0.74235">
        <ele>164</ele>
        <time>2017-04-30T07:54:16.000Z</time>
      </trkpt>
      <trkpt lat="44.22823" lon="0.74234">
        <ele>165</ele>
        <time>2017-04-30T07:54:17.000Z</time>
      </trkpt>
      <trkpt lat="44.22823" lon="0.74234">
        <ele>165</ele>
        <time>2017-04-30T07:54:18.000Z</time>
      </trkpt>
      <trkpt lat="44.22823" lon="0.74234">
        <ele>165</ele>
        <time>2017-04-30T07:54:19.000Z</time>
      </trkpt>
      <trkpt lat="44.22823" lon="0.74234">
        <ele>165</ele>
        <time>2017-04-30T07:54:20.000Z</time>
      </trkpt>
      <trkpt lat="44.22822" lon="0.74234">
        <ele>165</ele>
        <time>2017-04-30T07:54:21.000Z</time>
      </trkpt>
      <trkpt lat="44.22822" lon="0.74234">
        <ele>165</ele>
        <time>2017-04-30T07:54:22.000Z</time>
      </trkpt>
      <trkpt lat="44.22823" lon="0.74234">
        <ele>165</ele>
        <time>2017-04-30T07:54:23.000Z</time>
      </trkpt>
      <trkpt lat="44.22823" lon="0.74234">
        <ele>166</ele>
        <time>2017-04-30T07:54:24.000Z</time>
      </trkpt>
      <trkpt lat="44.22823" lon="0.74234">
        <ele>166</ele>
        <time>2017-04-30T07:54:25.000Z</time>
      </trkpt>
      <trkpt lat="44.22823" lon="0.74234">
        <ele>165</ele>
        <time>2017-04-30T07:54:26.000Z</time>
      </trkpt>
      <trkpt lat="44.22823" lon="0.74234">
        <ele>166</ele>
        <time>2017-04-30T07:54:27.000Z</time>
      </trkpt>
      <trkpt lat="44.22823" lon="0.74234">
        <ele>166</ele>
        <time>2017-04-30T07:54:28.000Z</time>
      </trkpt>
      <trkpt lat="44.22824" lon="0.74235">
        <ele>166</ele>
        <time>2017-04-30T07:54:29.000Z</time>
      </trkpt>
      <trkpt lat="44.22824" lon="0.74236">
        <ele>165</ele>
        <time>2017-04-30T07:54:30.000Z</time>
      </trkpt>
      <trkpt lat="44.22824" lon="0.74236">
        <ele>165</ele>
        <time>2017-04-30T07:54:31.000Z</time>
      </trkpt>
      <trkpt lat="44.22824" lon="0.74236">
        <ele>164</ele>
        <time>2017-04-30T07:54:32.000Z</time>
      </trkpt>
      <trkpt lat="44.22825" lon="0.74237">
        <ele>163</ele>
        <time>2017-04-30T07:54:33.000Z</time>
      </trkpt>
      <trkpt lat="44.22825" lon="0.74237">
        <ele>163</ele>
        <time>2017-04-30T07:54:34.000Z</time>
      </trkpt>
      <trkpt lat="44.22824" lon="0.74237">
        <ele>163</ele>
        <time>2017-04-30T07:54:35.000Z</time>
      </trkpt>
      <trkpt lat="44.22824" lon="0.74239">
        <ele>162</ele>
        <time>2017-04-30T07:54:36.000Z</time>
      </trkpt>
      <trkpt lat="44.22824" lon="0.74241">
        <ele>162</ele>
        <time>2017-04-30T07:54:37.000Z</time>
      </trkpt>
      <trkpt lat="44.22825" lon="0.74242">
        <ele>162</ele>
        <time>2017-04-30T07:54:38.000Z</time>
      </trkpt>
      <trkpt lat="44.22825" lon="0.74244">
        <ele>162</ele>
        <time>2017-04-30T07:54:39.000Z</time>
      </trkpt>
      <trkpt lat="44.22825" lon="0.74245">
        <ele>162</ele>
        <time>2017-04-30T07:54:40.000Z</time>
      </trkpt>
      <trkpt lat="44.22825" lon="0.74247">
        <ele>161</ele>
        <time>2017-04-30T07:54:41.000Z</time>
      </trkpt>
      <trkpt lat="44.22824" lon="0.74249">
        <ele>160</ele>
        <time>2017-04-30T07:54:42.000Z</time>
      </trkpt>
      <trkpt lat="44.22823" lon="0.7425">
        <ele>159</ele>
        <time>2017-04-30T07:54:43.000Z</time>
      </trkpt>
      <trkpt lat="44.22822" lon="0.74253">
        <ele>161</ele>
        <time>2017-04-30T07:54:44.000Z</time>
      </trkpt>
      <trkpt lat="44.22821" lon="0.74256">
        <ele>161</ele>
        <time>2017-04-30T07:54:45.000Z</time>
      </trkpt>
      <trkpt lat="44.2282" lon="0.7426">
        <ele>162</ele>
        <time>2017-04-30T07:54:46.000Z</time>
      </trkpt>
      <trkpt lat="44.22817" lon="0.74266">
        <ele>160</ele>
        <time>2017-04-30T07:54:47.000Z</time>
      </trkpt>
      <trkpt lat="44.22815" lon="0.74271">
        <ele>159</ele>
        <time>2017-04-30T07:54:48.000Z</time>
      </trkpt>
      <trkpt lat="44.22812" lon="0.74276">
        <ele>160</ele>
        <time>2017-04-30T07:54:49.000Z</time>
      </trkpt>
      <trkpt lat="44.2281" lon="0.74281">
        <ele>161</ele>
        <time>2017-04-30T07:54:50.000Z</time>
      </trkpt>
      <trkpt lat="44.22809" lon="0.74285">
        <ele>162</ele>
        <time>2017-04-30T07:54:51.000Z</time>
      </trkpt>
      <trkpt lat="44.22807" lon="0.7429">
        <ele>162</ele>
        <time>2017-04-30T07:54:52.000Z</time>
      </trkpt>
      <trkpt lat="44.22805" lon="0.74294">
        <ele>163</ele>
        <time>2017-04-30T07:54:53.000Z</time>
      </trkpt>
      <trkpt lat="44.22803" lon="0.74298">
        <ele>163</ele>
        <time>2017-04-30T07:54:54.000Z</time>
      </trkpt>
      <trkpt lat="44.22801" lon="0.74303">
        <ele>163</ele>
        <time>2017-04-30T07:54:55.000Z</time>
      </trkpt>
      <trkpt lat="44.22799" lon="0.74307">
        <ele>163</ele>
        <time>2017-04-30T07:54:56.000Z</time>
      </trkpt>
      <trkpt lat="44.22797" lon="0.74312">
        <ele>163</ele>
        <time>2017-04-30T07:54:57.000Z</time>
      </trkpt>
      <trkpt lat="44.22795" lon="0.74317">
        <ele>163</ele>
        <time>2017-04-30T07:54:58.000Z</time>
      </trkpt>
      <trkpt lat="44.22792" lon="0.74322">
        <ele>163</ele>
        <time>2017-04-30T07:54:59.000Z</time>
      </trkpt>
      <trkpt lat="44.2279" lon="0.74327">
        <ele>163</ele>
        <time>2017-04-30T07:55:00.000Z</time>
      </trkpt>
      <trkpt lat="44.22787" lon="0.74333">
        <ele>163</ele>
        <time>2017-04-30T07:55:01.000Z</time>
      </trkpt>
      <trkpt lat="44.22784" lon="0.74338">
        <ele>163</ele>
        <time>2017-04-30T07:55:02.000Z</time>
      </trkpt>
      <trkpt lat="44.2278" lon="0.74343">
        <ele>163</ele>
        <time>2017-04-30T07:55:03.000Z</time>
      </trkpt>
      <trkpt lat="44.22776" lon="0.74347">
        <ele>164</ele>
        <time>2017-04-30T07:55:04.000Z</time>
      </trkpt>
      <trkpt lat="44.22773" lon="0.74352">
        <ele>163</ele>
        <time>2017-04-30T07:55:05.000Z</time>
      </trkpt>
      <trkpt lat="44.22769" lon="0.74355">
        <ele>163</ele>
        <time>2017-04-30T07:55:06.000Z</time>
      </trkpt>
      <trkpt lat="44.22764" lon="0.74359">
        <ele>163</ele>
        <time>2017-04-30T07:55:07.000Z</time>
      </trkpt>
      <trkpt lat="44.2276" lon="0.74362">
        <ele>163</ele>
        <time>2017-04-30T07:55:08.000Z</time>
      </trkpt>
      <trkpt lat="44.22756" lon="0.74365">
        <ele>163</ele>
        <time>2017-04-30T07:55:09.000Z</time>
      </trkpt>
      <trkpt lat="44.22752" lon="0.74369">
        <ele>163</ele>
        <time>2017-04-30T07:55:10.000Z</time>
      </trkpt>
      <trkpt lat="44.22749" lon="0.74373">
        <ele>164</ele>
        <time>2017-04-30T07:55:11.000Z</time>
      </trkpt>
      <trkpt lat="44.22746" lon="0.74376">
        <ele>164</ele>
        <time>2017-04-30T07:55:12.000Z</time>
      </trkpt>
      <trkpt lat="44.22742" lon="0.7438">
        <ele>164</ele>
        <time>2017-04-30T07:55:13.000Z</time>
      </trkpt>
      <trkpt lat="44.22739" lon="0.74383">
        <ele>164</ele>
        <time>2017-04-30T07:55:14.000Z</time>
      </trkpt>
      <trkpt lat="44.22735" lon="0.74386">
        <ele>164</ele>
        <time>2017-04-30T07:55:15.000Z</time>
      </trkpt>
      <trkpt lat="44.22732" lon="0.74389">
        <ele>164</ele>
        <time>2017-04-30T07:55:16.000Z</time>
      </trkpt>
      <trkpt lat="44.22729" lon="0.74393">
        <ele>164</ele>
        <time>2017-04-30T07:55:17.000Z</time>
      </trkpt>
      <trkpt lat="44.22726" lon="0.74396">
        <ele>165</ele>
        <time>2017-04-30T07:55:18.000Z</time>
      </trkpt>
      <trkpt lat="44.22723" lon="0.744">
        <ele>165</ele>
        <time>2017-04-30T07:55:19.000Z</time>
      </trkpt>
      <trkpt lat="44.22721" lon="0.74403">
        <ele>165</ele>
        <time>2017-04-30T07:55:20.000Z</time>
      </trkpt>
      <trkpt lat="44.22718" lon="0.74408">
        <ele>165</ele>
        <time>2017-04-30T07:55:21.000Z</time>
      </trkpt>
      <trkpt lat="44.22716" lon="0.74412">
        <ele>165</ele>
        <time>2017-04-30T07:55:22.000Z</time>
      </trkpt>
      <trkpt lat="44.22713" lon="0.74416">
        <ele>166</ele>
        <time>2017-04-30T07:55:23.000Z</time>
      </trkpt>
      <trkpt lat="44.22711" lon="0.74421">
        <ele>166</ele>
        <time>2017-04-30T07:55:24.000Z</time>
      </trkpt>
      <trkpt lat="44.2271" lon="0.74425">
        <ele>166</ele>
        <time>2017-04-30T07:55:25.000Z</time>
      </trkpt>
      <trkpt lat="44.22708" lon="0.7443">
        <ele>166</ele>
        <time>2017-04-30T07:55:26.000Z</time>
      </trkpt>
      <trkpt lat="44.22706" lon="0.74435">
        <ele>166</ele>
        <time>2017-04-30T07:55:27.000Z</time>
      </trkpt>
      <trkpt lat="44.22704" lon="0.74439">
        <ele>166</ele>
        <time>2017-04-30T07:55:28.000Z</time>
      </trkpt>
      <trkpt lat="44.22702" lon="0.74444">
        <ele>167</ele>
        <time>2017-04-30T07:55:29.000Z</time>
      </trkpt>
      <trkpt lat="44.227" lon="0.74449">
        <ele>167</ele>
        <time>2017-04-30T07:55:30.000Z</time>
      </trkpt>
      <trkpt lat="44.22699" lon="0.74453">
        <ele>167</ele>
        <time>2017-04-30T07:55:31.000Z</time>
      </trkpt>
      <trkpt lat="44.22697" lon="0.74458">
        <ele>167</ele>
        <time>2017-04-30T07:55:32.000Z</time>
      </trkpt>
      <trkpt lat="44.22696" lon="0.74463">
        <ele>167</ele>
        <time>2017-04-30T07:55:33.000Z</time>
      </trkpt>
      <trkpt lat="44.22694" lon="0.74467">
        <ele>167</ele>
        <time>2017-04-30T07:55:34.000Z</time>
      </trkpt>
      <trkpt lat="44.22692" lon="0.74472">
        <ele>168</ele>
        <time>2017-04-30T07:55:35.000Z</time>
      </trkpt>
      <trkpt lat="44.2269" lon="0.74476">
        <ele>168</ele>
        <time>2017-04-30T07:55:36.000Z</time>
      </trkpt>
      <trkpt lat="44.22688" lon="0.7448">
        <ele>168</ele>
        <time>2017-04-30T07:55:37.000Z</time>
      </trkpt>
      <trkpt lat="44.22686" lon="0.74484">
        <ele>168</ele>
        <time>2017-04-30T07:55:38.000Z</time>
      </trkpt>
      <trkpt lat="44.22684" lon="0.74487">
        <ele>169</ele>
        <time>2017-04-30T07:55:39.000Z</time>
      </trkpt>
      <trkpt lat="44.22682" lon="0.7449">
        <ele>169</ele>
        <time>2017-04-30T07:55:40.000Z</time>
      </trkpt>
      <trkpt lat="44.22679" lon="0.74492">
        <ele>169</ele>
        <time>2017-04-30T07:55:41.000Z</time>
      </trkpt>
      <trkpt lat="44.22677" lon="0.74495">
        <ele>169</ele>
        <time>2017-04-30T07:55:42.000Z</time>
      </trkpt>
      <trkpt lat="44.22674" lon="0.74497">
        <ele>170</ele>
        <time>2017-04-30T07:55:43.000Z</time>
      </trkpt>
      <trkpt lat="44.22671" lon="0.74499">
        <ele>170</ele>
        <time>2017-04-30T07:55:44.000Z</time>
      </trkpt>
      <trkpt lat="44.22668" lon="0.74501">
        <ele>170</ele>
        <time>2017-04-30T07:55:45.000Z</time>
      </trkpt>
      <trkpt lat="44.22665" lon="0.74502">
        <ele>170</ele>
        <time>2017-04-30T07:55:46.000Z</time>
      </trkpt>
      <trkpt lat="44.22662" lon="0.74504">
        <ele>171</ele>
        <time>2017-04-30T07:55:47.000Z</time>
      </trkpt>
      <trkpt lat="44.22659" lon="0.74505">
        <ele>171</ele>
        <time>2017-04-30T07:55:48.000Z</time>
      </trkpt>
      <trkpt lat="44.22656" lon="0.74506">
        <ele>171</ele>
        <time>2017-04-30T07:55:49.000Z</time>
      </trkpt>
      <trkpt lat="44.22653" lon="0.74507">
        <ele>171</ele>
        <time>2017-04-30T07:55:50.000Z</time>
      </trkpt>
      <trkpt lat="44.22651" lon="0.74508">
        <ele>171</ele>
        <time>2017-04-30T07:55:51.000Z</time>
      </trkpt>
      <trkpt lat="44.22648" lon="0.7451">
        <ele>172</ele>
        <time>2017-04-30T07:55:52.000Z</time>
      </trkpt>
      <trkpt lat="44.22646" lon="0.74511">
        <ele>172</ele>
        <time>2017-04-30T07:55:53.000Z</time>
      </trkpt>
      <trkpt lat="44.22643" lon="0.74512">
        <ele>172</ele>
        <time>2017-04-30T07:55:54.000Z</time>
      </trkpt>
      <trkpt lat="44.22641" lon="0.74512">
        <ele>172</ele>
        <time>2017-04-30T07:55:55.000Z</time>
      </trkpt>
      <trkpt lat="44.22639" lon="0.74513">
        <ele>173</ele>
        <time>2017-04-30T07:55:56.000Z</time>
      </trkpt>
      <trkpt lat="44.22636" lon="0.74514">
        <ele>173</ele>
        <time>2017-04-30T07:55:57.000Z</time>
      </trkpt>
      <trkpt lat="44.22634" lon="0.74515">
        <ele>173</ele>
        <time>2017-04-30T07:55:58.000Z</time>
      </trkpt>
      <trkpt lat="44.22631" lon="0.74516">
        <ele>173</ele>
        <time>2017-04-30T07:55:59.000Z</time>
      </trkpt>
      <trkpt lat="44.22629" lon="0.74517">
        <ele>173</ele>
        <time>2017-04-30T07:56:00.000Z</time>
      </trkpt>
      <trkpt lat="44.22626" lon="0.74518">
        <ele>173</ele>
        <time>2017-04-30T07:56:01.000Z</time>
      </trkpt>
      <trkpt lat="44.22624" lon="0.74519">
        <ele>174</ele>
        <time>2017-04-30T07:56:02.000Z</time>
      </trkpt>
      <trkpt lat="44.22621" lon="0.7452">
        <ele>174</ele>
        <time>2017-04-30T07:56:03.000Z</time>
      </trkpt>
      <trkpt lat="44.22619" lon="0.74521">
        <ele>174</ele>
        <time>2017-04-30T07:56:04.000Z</time>
      </trkpt>
      <trkpt lat="44.22617" lon="0.74521">
        <ele>174</ele>
        <time>2017-04-30T07:56:05.000Z</time>
      </trkpt>
      <trkpt lat="44.22615" lon="0.74522">
        <ele>174</ele>
        <time>2017-04-30T07:56:06.000Z</time>
      </trkpt>
      <trkpt lat="44.22613" lon="0.74523">
        <ele>175</ele>
        <time>2017-04-30T07:56:07.000Z</time>
      </trkpt>
      <trkpt lat="44.22611" lon="0.74523">
        <ele>176</ele>
        <time>2017-04-30T07:56:08.000Z</time>
      </trkpt>
      <trkpt lat="44.22609" lon="0.74524">
        <ele>176</ele>
        <time>2017-04-30T07:56:09.000Z</time>
      </trkpt>
      <trkpt lat="44.22607" lon="0.74525">
        <ele>176</ele>
        <time>2017-04-30T07:56:10.000Z</time>
      </trkpt>
      <trkpt lat="44.22604" lon="0.74526">
        <ele>176</ele>
        <time>2017-04-30T07:56:11.000Z</time>
      </trkpt>
      <trkpt lat="44.22602" lon="0.74526">
        <ele>177</ele>
        <time>2017-04-30T07:56:12.000Z</time>
      </trkpt>
      <trkpt lat="44.22599" lon="0.74527">
        <ele>177</ele>
        <time>2017-04-30T07:56:13.000Z</time>
      </trkpt>
      <trkpt lat="44.22597" lon="0.74529">
        <ele>177</ele>
        <time>2017-04-30T07:56:14.000Z</time>
      </trkpt>
      <trkpt lat="44.22596" lon="0.74531">
        <ele>177</ele>
        <time>2017-04-30T07:56:15.000Z</time>
      </trkpt>
      <trkpt lat="44.22598" lon="0.74533">
        <ele>179</ele>
        <time>2017-04-30T07:56:16.000Z</time>
      </trkpt>
      <trkpt lat="44.22599" lon="0.74535">
        <ele>178</ele>
        <time>2017-04-30T07:56:17.000Z</time>
      </trkpt>
      <trkpt lat="44.22601" lon="0.74538">
        <ele>177</ele>
        <time>2017-04-30T07:56:18.000Z</time>
      </trkpt>
      <trkpt lat="44.22604" lon="0.7454">
        <ele>177</ele>
        <time>2017-04-30T07:56:19.000Z</time>
      </trkpt>
      <trkpt lat="44.22607" lon="0.74542">
        <ele>177</ele>
        <time>2017-04-30T07:56:20.000Z</time>
      </trkpt>
      <trkpt lat="44.22609" lon="0.74544">
        <ele>177</ele>
        <time>2017-04-30T07:56:21.000Z</time>
      </trkpt>
      <trkpt lat="44.22612" lon="0.74546">
        <ele>177</ele>
        <time>2017-04-30T07:56:22.000Z</time>
      </trkpt>
      <trkpt lat="44.22614" lon="0.74547">
        <ele>177</ele>
        <time>2017-04-30T07:56:23.000Z</time>
      </trkpt>
      <trkpt lat="44.22616" lon="0.74549">
        <ele>177</ele>
        <time>2017-04-30T07:56:24.000Z</time>
      </trkpt>
      <trkpt lat="44.22619" lon="0.74551">
        <ele>177</ele>
        <time>2017-04-30T07:56:25.000Z</time>
      </trkpt>
      <trkpt lat="44.22621" lon="0.74555">
        <ele>177</ele>
        <time>2017-04-30T07:56:26.000Z</time>
      </trkpt>
      <trkpt lat="44.22623" lon="0.74558">
        <ele>177</ele>
        <time>2017-04-30T07:56:27.000Z</time>
      </trkpt>
      <trkpt lat="44.22625" lon="0.7456">
        <ele>177</ele>
        <time>2017-04-30T07:56:28.000Z</time>
      </trkpt>
      <trkpt lat="44.22627" lon="0.74563">
        <ele>177</ele>
        <time>2017-04-30T07:56:29.000Z</time>
      </trkpt>
      <trkpt lat="44.2263" lon="0.74566">
        <ele>178</ele>
        <time>2017-04-30T07:56:30.000Z</time>
      </trkpt>
      <trkpt lat="44.22632" lon="0.74568">
        <ele>178</ele>
        <time>2017-04-30T07:56:31.000Z</time>
      </trkpt>
      <trkpt lat="44.22635" lon="0.74571">
        <ele>178</ele>
        <time>2017-04-30T07:56:32.000Z</time>
      </trkpt>
      <trkpt lat="44.22637" lon="0.74574">
        <ele>179</ele>
        <time>2017-04-30T07:56:33.000Z</time>
      </trkpt>
      <trkpt lat="44.2264" lon="0.74577">
        <ele>179</ele>
        <time>2017-04-30T07:56:34.000Z</time>
      </trkpt>
      <trkpt lat="44.22643" lon="0.74581">
        <ele>179</ele>
        <time>2017-04-30T07:56:35.000Z</time>
      </trkpt>
      <trkpt lat="44.22645" lon="0.74583">
        <ele>181</ele>
        <time>2017-04-30T07:56:36.000Z</time>
      </trkpt>
      <trkpt lat="44.22649" lon="0.74587">
        <ele>182</ele>
        <time>2017-04-30T07:56:37.000Z</time>
      </trkpt>
      <trkpt lat="44.22652" lon="0.7459">
        <ele>182</ele>
        <time>2017-04-30T07:56:38.000Z</time>
      </trkpt>
      <trkpt lat="44.22655" lon="0.74593">
        <ele>183</ele>
        <time>2017-04-30T07:56:39.000Z</time>
      </trkpt>
      <trkpt lat="44.22659" lon="0.74597">
        <ele>184</ele>
        <time>2017-04-30T07:56:40.000Z</time>
      </trkpt>
      <trkpt lat="44.22662" lon="0.74601">
        <ele>184</ele>
        <time>2017-04-30T07:56:41.000Z</time>
      </trkpt>
      <trkpt lat="44.22667" lon="0.74604">
        <ele>185</ele>
        <time>2017-04-30T07:56:42.000Z</time>
      </trkpt>
      <trkpt lat="44.2267" lon="0.74608">
        <ele>184</ele>
        <time>2017-04-30T07:56:43.000Z</time>
      </trkpt>
      <trkpt lat="44.22673" lon="0.74612">
        <ele>184</ele>
        <time>2017-04-30T07:56:44.000Z</time>
      </trkpt>
      <trkpt lat="44.22676" lon="0.74616">
        <ele>184</ele>
        <time>2017-04-30T07:56:45.000Z</time>
      </trkpt>
      <trkpt lat="44.2268" lon="0.7462">
        <ele>185</ele>
        <time>2017-04-30T07:56:46.000Z</time>
      </trkpt>
      <trkpt lat="44.22685" lon="0.74623">
        <ele>184</ele>
        <time>2017-04-30T07:56:47.000Z</time>
      </trkpt>
      <trkpt lat="44.22689" lon="0.74626">
        <ele>184</ele>
        <time>2017-04-30T07:56:48.000Z</time>
      </trkpt>
      <trkpt lat="44.22693" lon="0.7463">
        <ele>184</ele>
        <time>2017-04-30T07:56:49.000Z</time>
      </trkpt>
      <trkpt lat="44.22697" lon="0.74633">
        <ele>184</ele>
        <time>2017-04-30T07:56:50.000Z</time>
      </trkpt>
      <trkpt lat="44.22701" lon="0.74636">
        <ele>183</ele>
        <time>2017-04-30T07:56:51.000Z</time>
      </trkpt>
      <trkpt lat="44.22705" lon="0.74638">
        <ele>183</ele>
        <time>2017-04-30T07:56:52.000Z</time>
      </trkpt>
      <trkpt lat="44.22709" lon="0.74641">
        <ele>184</ele>
        <time>2017-04-30T07:56:53.000Z</time>
      </trkpt>
      <trkpt lat="44.22713" lon="0.74644">
        <ele>185</ele>
        <time>2017-04-30T07:56:54.000Z</time>
      </trkpt>
      <trkpt lat="44.22718" lon="0.74646">
        <ele>186</ele>
        <time>2017-04-30T07:56:55.000Z</time>
      </trkpt>
      <trkpt lat="44.22721" lon="0.74649">
        <ele>187</ele>
        <time>2017-04-30T07:56:56.000Z</time>
      </trkpt>
      <trkpt lat="44.22725" lon="0.74651">
        <ele>188</ele>
        <time>2017-04-30T07:56:57.000Z</time>
      </trkpt>
      <trkpt lat="44.22729" lon="0.74653">
        <ele>190</ele>
        <time>2017-04-30T07:56:58.000Z</time>
      </trkpt>
      <trkpt lat="44.22732" lon="0.74654">
        <ele>191</ele>
        <time>2017-04-30T07:56:59.000Z</time>
      </trkpt>
      <trkpt lat="44.22736" lon="0.74656">
        <ele>193</ele>
        <time>2017-04-30T07:57:00.000Z</time>
      </trkpt>
      <trkpt lat="44.2274" lon="0.74657">
        <ele>193</ele>
        <time>2017-04-30T07:57:01.000Z</time>
      </trkpt>
      <trkpt lat="44.22744" lon="0.74658">
        <ele>192</ele>
        <time>2017-04-30T07:57:02.000Z</time>
      </trkpt>
      <trkpt lat="44.22748" lon="0.74659">
        <ele>192</ele>
        <time>2017-04-30T07:57:03.000Z</time>
      </trkpt>
      <trkpt lat="44.22752" lon="0.7466">
        <ele>193</ele>
        <time>2017-04-30T07:57:04.000Z</time>
      </trkpt>
      <trkpt lat="44.22756" lon="0.74661">
        <ele>194</ele>
        <time>2017-04-30T07:57:05.000Z</time>
      </trkpt>
      <trkpt lat="44.2276" lon="0.74662">
        <ele>194</ele>
        <time>2017-04-30T07:57:06.000Z</time>
      </trkpt>
      <trkpt lat="44.22762" lon="0.74664">
        <ele>195</ele>
        <time>2017-04-30T07:57:07.000Z</time>
      </trkpt>
      <trkpt lat="44.22767" lon="0.74665">
        <ele>194</ele>
        <time>2017-04-30T07:57:08.000Z</time>
      </trkpt>
      <trkpt lat="44.22771" lon="0.74667">
        <ele>194</ele>
        <time>2017-04-30T07:57:09.000Z</time>
      </trkpt>
      <trkpt lat="44.22775" lon="0.74668">
        <ele>193</ele>
        <time>2017-04-30T07:57:10.000Z</time>
      </trkpt>
      <trkpt lat="44.22778" lon="0.7467">
        <ele>194</ele>
        <time>2017-04-30T07:57:11.000Z</time>
      </trkpt>
      <trkpt lat="44.22783" lon="0.74671">
        <ele>193</ele>
        <time>2017-04-30T07:57:12.000Z</time>
      </trkpt>
      <trkpt lat="44.22786" lon="0.74672">
        <ele>193</ele>
        <time>2017-04-30T07:57:13.000Z</time>
      </trkpt>
      <trkpt lat="44.22791" lon="0.74673">
        <ele>192</ele>
        <time>2017-04-30T07:57:14.000Z</time>
      </trkpt>
      <trkpt lat="44.22795" lon="0.74675">
        <ele>192</ele>
        <time>2017-04-30T07:57:15.000Z</time>
      </trkpt>
      <trkpt lat="44.22798" lon="0.74676">
        <ele>192</ele>
        <time>2017-04-30T07:57:16.000Z</time>
      </trkpt>
      <trkpt lat="44.22802" lon="0.74676">
        <ele>192</ele>
        <time>2017-04-30T07:57:17.000Z</time>
      </trkpt>
      <trkpt lat="44.22806" lon="0.74678">
        <ele>192</ele>
        <time>2017-04-30T07:57:18.000Z</time>
      </trkpt>
      <trkpt lat="44.22811" lon="0.74679">
        <ele>192</ele>
        <time>2017-04-30T07:57:19.000Z</time>
      </trkpt>
      <trkpt lat="44.22815" lon="0.7468">
        <ele>192</ele>
        <time>2017-04-30T07:57:20.000Z</time>
      </trkpt>
      <trkpt lat="44.2282" lon="0.74681">
        <ele>190</ele>
        <time>2017-04-30T07:57:21.000Z</time>
      </trkpt>
      <trkpt lat="44.22825" lon="0.74682">
        <ele>190</ele>
        <time>2017-04-30T07:57:22.000Z</time>
      </trkpt>
      <trkpt lat="44.22829" lon="0.74683">
        <ele>190</ele>
        <time>2017-04-30T07:57:23.000Z</time>
      </trkpt>
      <trkpt lat="44.22834" lon="0.74684">
        <ele>190</ele>
        <time>2017-04-30T07:57:24.000Z</time>
      </trkpt>
      <trkpt lat="44.22838" lon="0.74684">
        <ele>190</ele>
        <time>2017-04-30T07:57:25.000Z</time>
      </trkpt>
      <trkpt lat="44.22842" lon="0.74685">
        <ele>190</ele>
        <time>2017-04-30T07:57:26.000Z</time>
      </trkpt>
      <trkpt lat="44.22846" lon="0.74684">
        <ele>190</ele>
        <time>2017-04-30T07:57:27.000Z</time>
      </trkpt>
      <trkpt lat="44.22849" lon="0.74684">
        <ele>191</ele>
        <time>2017-04-30T07:57:28.000Z</time>
      </trkpt>
      <trkpt lat="44.22853" lon="0.74684">
        <ele>192</ele>
        <time>2017-04-30T07:57:29.000Z</time>
      </trkpt>
      <trkpt lat="44.22857" lon="0.74684">
        <ele>192</ele>
        <time>2017-04-30T07:57:30.000Z</time>
      </trkpt>
      <trkpt lat="44.22861" lon="0.74683">
        <ele>193</ele>
        <time>2017-04-30T07:57:31.000Z</time>
      </trkpt>
      <trkpt lat="44.22865" lon="0.74683">
        <ele>193</ele>
        <time>2017-04-30T07:57:32.000Z</time>
      </trkpt>
      <trkpt lat="44.22869" lon="0.74682">
        <ele>193</ele>
        <time>2017-04-30T07:57:33.000Z</time>
      </trkpt>
      <trkpt lat="44.22873" lon="0.7468">
        <ele>194</ele>
        <time>2017-04-30T07:57:34.000Z</time>
      </trkpt>
      <trkpt lat="44.22878" lon="0.74679">
        <ele>196</ele>
        <time>2017-04-30T07:57:35.000Z</time>
      </trkpt>
      <trkpt lat="44.22882" lon="0.74678">
        <ele>196</ele>
        <time>2017-04-30T07:57:36.000Z</time>
      </trkpt>
      <trkpt lat="44.22887" lon="0.74677">
        <ele>195</ele>
        <time>2017-04-30T07:57:37.000Z</time>
      </trkpt>
      <trkpt lat="44.22892" lon="0.74674">
        <ele>194</ele>
        <time>2017-04-30T07:57:38.000Z</time>
      </trkpt>
      <trkpt lat="44.22899" lon="0.74673">
        <ele>192</ele>
        <time>2017-04-30T07:57:39.000Z</time>
      </trkpt>
      <trkpt lat="44.22904" lon="0.7467">
        <ele>191</ele>
        <time>2017-04-30T07:57:40.000Z</time>
      </trkpt>
      <trkpt lat="44.22909" lon="0.74668">
        <ele>192</ele>
        <time>2017-04-30T07:57:41.000Z</time>
      </trkpt>
      <trkpt lat="44.22915" lon="0.74667">
        <ele>191</ele>
        <time>2017-04-30T07:57:42.000Z</time>
      </trkpt>
      <trkpt lat="44.2292" lon="0.74666">
        <ele>190</ele>
        <time>2017-04-30T07:57:43.000Z</time>
      </trkpt>
      <trkpt lat="44.22925" lon="0.74664">
        <ele>190</ele>
        <time>2017-04-30T07:57:44.000Z</time>
      </trkpt>
      <trkpt lat="44.2293" lon="0.74663">
        <ele>189</ele>
        <time>2017-04-30T07:57:45.000Z</time>
      </trkpt>
      <trkpt lat="44.22935" lon="0.74662">
        <ele>188</ele>
        <time>2017-04-30T07:57:46.000Z</time>
      </trkpt>
      <trkpt lat="44.2294" lon="0.74661">
        <ele>188</ele>
        <time>2017-04-30T07:57:47.000Z</time>
      </trkpt>
      <trkpt lat="44.22945" lon="0.7466">
        <ele>187</ele>
        <time>2017-04-30T07:57:48.000Z</time>
      </trkpt>
      <trkpt lat="44.2295" lon="0.74658">
        <ele>187</ele>
        <time>2017-04-30T07:57:49.000Z</time>
      </trkpt>
      <trkpt lat="44.22955" lon="0.74658">
        <ele>187</ele>
        <time>2017-04-30T07:57:50.000Z</time>
      </trkpt>
      <trkpt lat="44.2296" lon="0.74657">
        <ele>187</ele>
        <time>2017-04-30T07:57:51.000Z</time>
      </trkpt>
      <trkpt lat="44.22965" lon="0.74656">
        <ele>187</ele>
        <time>2017-04-30T07:57:52.000Z</time>
      </trkpt>
      <trkpt lat="44.2297" lon="0.74656">
        <ele>186</ele>
        <time>2017-04-30T07:57:53.000Z</time>
      </trkpt>
      <trkpt lat="44.22975" lon="0.74655">
        <ele>186</ele>
        <time>2017-04-30T07:57:54.000Z</time>
      </trkpt>
      <trkpt lat="44.2298" lon="0.74654">
        <ele>186</ele>
        <time>2017-04-30T07:57:55.000Z</time>
      </trkpt>
      <trkpt lat="44.22985" lon="0.74654">
        <ele>185</ele>
        <time>2017-04-30T07:57:56.000Z</time>
      </trkpt>
      <trkpt lat="44.2299" lon="0.74653">
        <ele>186</ele>
        <time>2017-04-30T07:57:57.000Z</time>
      </trkpt>
      <trkpt lat="44.22994" lon="0.74652">
        <ele>186</ele>
        <time>2017-04-30T07:57:58.000Z</time>
      </trkpt>
      <trkpt lat="44.22999" lon="0.74652">
        <ele>186</ele>
        <time>2017-04-30T07:57:59.000Z</time>
      </trkpt>
      <trkpt lat="44.23004" lon="0.74652">
        <ele>186</ele>
        <time>2017-04-30T07:58:00.000Z</time>
      </trkpt>
      <trkpt lat="44.23008" lon="0.74652">
        <ele>186</ele>
        <time>2017-04-30T07:58:01.000Z</time>
      </trkpt>
      <trkpt lat="44.23013" lon="0.74652">
        <ele>186</ele>
        <time>2017-04-30T07:58:02.000Z</time>
      </trkpt>
      <trkpt lat="44.23017" lon="0.74653">
        <ele>187</ele>
        <time>2017-04-30T07:58:03.000Z</time>
      </trkpt>
      <trkpt lat="44.23022" lon="0.74653">
        <ele>187</ele>
        <time>2017-04-30T07:58:04.000Z</time>
      </trkpt>
      <trkpt lat="44.23025" lon="0.74654">
        <ele>187</ele>
        <time>2017-04-30T07:58:05.000Z</time>
      </trkpt>
      <trkpt lat="44.2303" lon="0.74655">
        <ele>187</ele>
        <time>2017-04-30T07:58:06.000Z</time>
      </trkpt>
      <trkpt lat="44.23033" lon="0.74655">
        <ele>187</ele>
        <time>2017-04-30T07:58:07.000Z</time>
      </trkpt>
      <trkpt lat="44.23037" lon="0.74655">
        <ele>187</ele>
        <time>2017-04-30T07:58:08.000Z</time>
      </trkpt>
      <trkpt lat="44.23041" lon="0.74656">
        <ele>188</ele>
        <time>2017-04-30T07:58:09.000Z</time>
      </trkpt>
      <trkpt lat="44.23045" lon="0.74656">
        <ele>188</ele>
        <time>2017-04-30T07:58:10.000Z</time>
      </trkpt>
      <trkpt lat="44.23049" lon="0.74656">
        <ele>188</ele>
        <time>2017-04-30T07:58:11.000Z</time>
      </trkpt>
      <trkpt lat="44.23052" lon="0.74657">
        <ele>189</ele>
        <time>2017-04-30T07:58:12.000Z</time>
      </trkpt>
      <trkpt lat="44.23056" lon="0.74657">
        <ele>189</ele>
        <time>2017-04-30T07:58:13.000Z</time>
      </trkpt>
      <trkpt lat="44.23059" lon="0.74658">
        <ele>189</ele>
        <time>2017-04-30T07:58:14.000Z</time>
      </trkpt>
      <trkpt lat="44.23063" lon="0.74659">
        <ele>189</ele>
        <time>2017-04-30T07:58:15.000Z</time>
      </trkpt>
      <trkpt lat="44.23067" lon="0.74659">
        <ele>189</ele>
        <time>2017-04-30T07:58:16.000Z</time>
      </trkpt>
      <trkpt lat="44.23071" lon="0.7466">
        <ele>190</ele>
        <time>2017-04-30T07:58:17.000Z</time>
      </trkpt>
      <trkpt lat="44.23074" lon="0.74661">
        <ele>190</ele>
        <time>2017-04-30T07:58:18.000Z</time>
      </trkpt>
      <trkpt lat="44.23078" lon="0.74662">
        <ele>191</ele>
        <time>2017-04-30T07:58:19.000Z</time>
      </trkpt>
      <trkpt lat="44.23081" lon="0.74663">
        <ele>191</ele>
        <time>2017-04-30T07:58:20.000Z</time>
      </trkpt>
      <trkpt lat="44.23084" lon="0.74665">
        <ele>191</ele>
        <time>2017-04-30T07:58:21.000Z</time>
      </trkpt>
      <trkpt lat="44.23087" lon="0.74666">
        <ele>191</ele>
        <time>2017-04-30T07:58:22.000Z</time>
      </trkpt>
      <trkpt lat="44.2309" lon="0.74668">
        <ele>191</ele>
        <time>2017-04-30T07:58:23.000Z</time>
      </trkpt>
      <trkpt lat="44.23093" lon="0.74671">
        <ele>191</ele>
        <time>2017-04-30T07:58:24.000Z</time>
      </trkpt>
      <trkpt lat="44.23095" lon="0.74674">
        <ele>191</ele>
        <time>2017-04-30T07:58:25.000Z</time>
      </trkpt>
      <trkpt lat="44.23098" lon="0.74678">
        <ele>191</ele>
        <time>2017-04-30T07:58:26.000Z</time>
      </trkpt>
      <trkpt lat="44.23097" lon="0.74683">
        <ele>191</ele>
        <time>2017-04-30T07:58:27.000Z</time>
      </trkpt>
      <trkpt lat="44.23098" lon="0.74688">
        <ele>191</ele>
        <time>2017-04-30T07:58:28.000Z</time>
      </trkpt>
      <trkpt lat="44.231" lon="0.74694">
        <ele>191</ele>
        <time>2017-04-30T07:58:29.000Z</time>
      </trkpt>
      <trkpt lat="44.231" lon="0.74702">
        <ele>191</ele>
        <time>2017-04-30T07:58:30.000Z</time>
      </trkpt>
      <trkpt lat="44.23101" lon="0.74709">
        <ele>191</ele>
        <time>2017-04-30T07:58:31.000Z</time>
      </trkpt>
      <trkpt lat="44.23102" lon="0.74717">
        <ele>190</ele>
        <time>2017-04-30T07:58:32.000Z</time>
      </trkpt>
      <trkpt lat="44.23103" lon="0.74724">
        <ele>189</ele>
        <time>2017-04-30T07:58:33.000Z</time>
      </trkpt>
      <trkpt lat="44.23105" lon="0.74733">
        <ele>188</ele>
        <time>2017-04-30T07:58:34.000Z</time>
      </trkpt>
      <trkpt lat="44.23106" lon="0.74742">
        <ele>188</ele>
        <time>2017-04-30T07:58:35.000Z</time>
      </trkpt>
      <trkpt lat="44.23108" lon="0.74753">
        <ele>187</ele>
        <time>2017-04-30T07:58:36.000Z</time>
      </trkpt>
      <trkpt lat="44.23109" lon="0.74763">
        <ele>186</ele>
        <time>2017-04-30T07:58:37.000Z</time>
      </trkpt>
      <trkpt lat="44.23111" lon="0.74774">
        <ele>186</ele>
        <time>2017-04-30T07:58:38.000Z</time>
      </trkpt>
      <trkpt lat="44.23112" lon="0.74785">
        <ele>186</ele>
        <time>2017-04-30T07:58:39.000Z</time>
      </trkpt>
      <trkpt lat="44.23113" lon="0.74795">
        <ele>186</ele>
        <time>2017-04-30T07:58:40.000Z</time>
      </trkpt>
      <trkpt lat="44.23114" lon="0.74804">
        <ele>186</ele>
        <time>2017-04-30T07:58:41.000Z</time>
      </trkpt>
      <trkpt lat="44.23114" lon="0.74813">
        <ele>186</ele>
        <time>2017-04-30T07:58:42.000Z</time>
      </trkpt>
      <trkpt lat="44.23116" lon="0.74823">
        <ele>186</ele>
        <time>2017-04-30T07:58:43.000Z</time>
      </trkpt>
      <trkpt lat="44.23117" lon="0.74831">
        <ele>185</ele>
        <time>2017-04-30T07:58:44.000Z</time>
      </trkpt>
      <trkpt lat="44.23119" lon="0.74839">
        <ele>185</ele>
        <time>2017-04-30T07:58:45.000Z</time>
      </trkpt>
      <trkpt lat="44.2312" lon="0.74847">
        <ele>185</ele>
        <time>2017-04-30T07:58:46.000Z</time>
      </trkpt>
      <trkpt lat="44.23121" lon="0.74855">
        <ele>184</ele>
        <time>2017-04-30T07:58:47.000Z</time>
      </trkpt>
      <trkpt lat="44.23122" lon="0.74862">
        <ele>184</ele>
        <time>2017-04-30T07:58:48.000Z</time>
      </trkpt>
      <trkpt lat="44.23124" lon="0.74869">
        <ele>184</ele>
        <time>2017-04-30T07:58:49.000Z</time>
      </trkpt>
      <trkpt lat="44.23126" lon="0.74876">
        <ele>183</ele>
        <time>2017-04-30T07:58:50.000Z</time>
      </trkpt>
      <trkpt lat="44.23128" lon="0.74882">
        <ele>183</ele>
        <time>2017-04-30T07:58:51.000Z</time>
      </trkpt>
      <trkpt lat="44.23129" lon="0.74888">
        <ele>182</ele>
        <time>2017-04-30T07:58:52.000Z</time>
      </trkpt>
      <trkpt lat="44.23135" lon="0.74893">
        <ele>180</ele>
        <time>2017-04-30T07:58:53.000Z</time>
      </trkpt>
      <trkpt lat="44.23136" lon="0.74891">
        <ele>183</ele>
        <time>2017-04-30T07:58:54.000Z</time>
      </trkpt>
      <trkpt lat="44.23139" lon="0.74892">
        <ele>185</ele>
        <time>2017-04-30T07:58:55.000Z</time>
      </trkpt>
      <trkpt lat="44.23142" lon="0.74892">
        <ele>186</ele>
        <time>2017-04-30T07:58:56.000Z</time>
      </trkpt>
      <trkpt lat="44.23145" lon="0.74892">
        <ele>187</ele>
        <time>2017-04-30T07:58:57.000Z</time>
      </trkpt>
      <trkpt lat="44.23146" lon="0.74883">
        <ele>192</ele>
        <time>2017-04-30T07:58:58.000Z</time>
      </trkpt>
      <trkpt lat="44.2315" lon="0.74881">
        <ele>192</ele>
        <time>2017-04-30T07:58:59.000Z</time>
      </trkpt>
      <trkpt lat="44.23154" lon="0.74878">
        <ele>191</ele>
        <time>2017-04-30T07:59:00.000Z</time>
      </trkpt>
      <trkpt lat="44.23159" lon="0.74874">
        <ele>190</ele>
        <time>2017-04-30T07:59:01.000Z</time>
      </trkpt>
      <trkpt lat="44.23163" lon="0.74872">
        <ele>193</ele>
        <time>2017-04-30T07:59:02.000Z</time>
      </trkpt>
      <trkpt lat="44.23166" lon="0.74871">
        <ele>193</ele>
        <time>2017-04-30T07:59:03.000Z</time>
      </trkpt>
      <trkpt lat="44.23169" lon="0.74869">
        <ele>194</ele>
        <time>2017-04-30T07:59:04.000Z</time>
      </trkpt>
      <trkpt lat="44.23173" lon="0.74869">
        <ele>193</ele>
        <time>2017-04-30T07:59:05.000Z</time>
      </trkpt>
      <trkpt lat="44.23178" lon="0.74869">
        <ele>193</ele>
        <time>2017-04-30T07:59:06.000Z</time>
      </trkpt>
      <trkpt lat="44.23182" lon="0.74871">
        <ele>192</ele>
        <time>2017-04-30T07:59:07.000Z</time>
      </trkpt>
      <trkpt lat="44.23186" lon="0.74871">
        <ele>191</ele>
        <time>2017-04-30T07:59:08.000Z</time>
      </trkpt>
      <trkpt lat="44.23189" lon="0.74871">
        <ele>191</ele>
        <time>2017-04-30T07:59:09.000Z</time>
      </trkpt>
      <trkpt lat="44.23191" lon="0.74872">
        <ele>190</ele>
        <time>2017-04-30T07:59:10.000Z</time>
      </trkpt>
      <trkpt lat="44.23193" lon="0.74872">
        <ele>189</ele>
        <time>2017-04-30T07:59:11.000Z</time>
      </trkpt>
      <trkpt lat="44.23196" lon="0.74872">
        <ele>189</ele>
        <time>2017-04-30T07:59:12.000Z</time>
      </trkpt>
      <trkpt lat="44.23198" lon="0.74871">
        <ele>187</ele>
        <time>2017-04-30T07:59:13.000Z</time>
      </trkpt>
      <trkpt lat="44.232" lon="0.74871">
        <ele>187</ele>
        <time>2017-04-30T07:59:14.000Z</time>
      </trkpt>
      <trkpt lat="44.23201" lon="0.7487">
        <ele>187</ele>
        <time>2017-04-30T07:59:15.000Z</time>
      </trkpt>
      <trkpt lat="44.23202" lon="0.7487">
        <ele>187</ele>
        <time>2017-04-30T07:59:16.000Z</time>
      </trkpt>
      <trkpt lat="44.23201" lon="0.7487">
        <ele>188</ele>
        <time>2017-04-30T07:59:17.000Z</time>
      </trkpt>
      <trkpt lat="44.23202" lon="0.7487">
        <ele>188</ele>
        <time>2017-04-30T07:59:18.000Z</time>
      </trkpt>
      <trkpt lat="44.23202" lon="0.7487">
        <ele>187</ele>
        <time>2017-04-30T07:59:19.000Z</time>
      </trkpt>
      <trkpt lat="44.23203" lon="0.7487">
        <ele>188</ele>
        <time>2017-04-30T07:59:20.000Z</time>
      </trkpt>
      <trkpt lat="44.23205" lon="0.7487">
        <ele>188</ele>
        <time>2017-04-30T07:59:21.000Z</time>
      </trkpt>
      <trkpt lat="44.23207" lon="0.7487">
        <ele>187</ele>
        <time>2017-04-30T07:59:22.000Z</time>
      </trkpt>
      <trkpt lat="44.23208" lon="0.7487">
        <ele>186</ele>
        <time>2017-04-30T07:59:23.000Z</time>
      </trkpt>
      <trkpt lat="44.2321" lon="0.74869">
        <ele>187</ele>
        <time>2017-04-30T07:59:24.000Z</time>
      </trkpt>
      <trkpt lat="44.23212" lon="0.74869">
        <ele>187</ele>
        <time>2017-04-30T07:59:25.000Z</time>
      </trkpt>
      <trkpt lat="44.23213" lon="0.74869">
        <ele>186</ele>
        <time>2017-04-30T07:59:26.000Z</time>
      </trkpt>
      <trkpt lat="44.23215" lon="0.74868">
        <ele>184</ele>
        <time>2017-04-30T07:59:27.000Z</time>
      </trkpt>
      <trkpt lat="44.23217" lon="0.74867">
        <ele>183</ele>
        <time>2017-04-30T07:59:28.000Z</time>
      </trkpt>
      <trkpt lat="44.23218" lon="0.74866">
        <ele>182</ele>
        <time>2017-04-30T07:59:29.000Z</time>
      </trkpt>
      <trkpt lat="44.23219" lon="0.74865">
        <ele>182</ele>
        <time>2017-04-30T07:59:30.000Z</time>
      </trkpt>
      <trkpt lat="44.2322" lon="0.74864">
        <ele>182</ele>
        <time>2017-04-30T07:59:31.000Z</time>
      </trkpt>
      <trkpt lat="44.2322" lon="0.74863">
        <ele>182</ele>
        <time>2017-04-30T07:59:32.000Z</time>
      </trkpt>
      <trkpt lat="44.23221" lon="0.74864">
        <ele>181</ele>
        <time>2017-04-30T07:59:33.000Z</time>
      </trkpt>
      <trkpt lat="44.23221" lon="0.74864">
        <ele>181</ele>
        <time>2017-04-30T07:59:34.000Z</time>
      </trkpt>
      <trkpt lat="44.23222" lon="0.74863">
        <ele>180</ele>
        <time>2017-04-30T07:59:35.000Z</time>
      </trkpt>
      <trkpt lat="44.23223" lon="0.74862">
        <ele>180</ele>
        <time>2017-04-30T07:59:36.000Z</time>
      </trkpt>
      <trkpt lat="44.23225" lon="0.74862">
        <ele>180</ele>
        <time>2017-04-30T07:59:37.000Z</time>
      </trkpt>
      <trkpt lat="44.23226" lon="0.74862">
        <ele>180</ele>
        <time>2017-04-30T07:59:38.000Z</time>
      </trkpt>
      <trkpt lat="44.23228" lon="0.74862">
        <ele>180</ele>
        <time>2017-04-30T07:59:39.000Z</time>
      </trkpt>
      <trkpt lat="44.2323" lon="0.74861">
        <ele>180</ele>
        <time>2017-04-30T07:59:40.000Z</time>
      </trkpt>
      <trkpt lat="44.23232" lon="0.74861">
        <ele>179</ele>
        <time>2017-04-30T07:59:41.000Z</time>
      </trkpt>
      <trkpt lat="44.23234" lon="0.74861">
        <ele>179</ele>
        <time>2017-04-30T07:59:42.000Z</time>
      </trkpt>
      <trkpt lat="44.23237" lon="0.7486">
        <ele>178</ele>
        <time>2017-04-30T07:59:43.000Z</time>
      </trkpt>
      <trkpt lat="44.23239" lon="0.74859">
        <ele>178</ele>
        <time>2017-04-30T07:59:44.000Z</time>
      </trkpt>
      <trkpt lat="44.23242" lon="0.74858">
        <ele>178</ele>
        <time>2017-04-30T07:59:45.000Z</time>
      </trkpt>
      <trkpt lat="44.23246" lon="0.74856">
        <ele>179</ele>
        <time>2017-04-30T07:59:46.000Z</time>
      </trkpt>
      <trkpt lat="44.2325" lon="0.74853">
        <ele>179</ele>
        <time>2017-04-30T07:59:47.000Z</time>
      </trkpt>
      <trkpt lat="44.23258" lon="0.74851">
        <ele>178</ele>
        <time>2017-04-30T07:59:48.000Z</time>
      </trkpt>
      <trkpt lat="44.23262" lon="0.74849">
        <ele>178</ele>
        <time>2017-04-30T07:59:49.000Z</time>
      </trkpt>
      <trkpt lat="44.23267" lon="0.74849">
        <ele>178</ele>
        <time>2017-04-30T07:59:50.000Z</time>
      </trkpt>
      <trkpt lat="44.23271" lon="0.74848">
        <ele>177</ele>
        <time>2017-04-30T07:59:51.000Z</time>
      </trkpt>
      <trkpt lat="44.23274" lon="0.74849">
        <ele>176</ele>
        <time>2017-04-30T07:59:52.000Z</time>
      </trkpt>
      <trkpt lat="44.23277" lon="0.74849">
        <ele>177</ele>
        <time>2017-04-30T07:59:53.000Z</time>
      </trkpt>
      <trkpt lat="44.2328" lon="0.7485">
        <ele>176</ele>
        <time>2017-04-30T07:59:54.000Z</time>
      </trkpt>
      <trkpt lat="44.23283" lon="0.74852">
        <ele>176</ele>
        <time>2017-04-30T07:59:55.000Z</time>
      </trkpt>
      <trkpt lat="44.23286" lon="0.74854">
        <ele>175</ele>
        <time>2017-04-30T07:59:56.000Z</time>
      </trkpt>
      <trkpt lat="44.23289" lon="0.74856">
        <ele>175</ele>
        <time>2017-04-30T07:59:57.000Z</time>
      </trkpt>
      <trkpt lat="44.23292" lon="0.74857">
        <ele>174</ele>
        <time>2017-04-30T07:59:58.000Z</time>
      </trkpt>
      <trkpt lat="44.23295" lon="0.74858">
        <ele>173</ele>
        <time>2017-04-30T07:59:59.000Z</time>
      </trkpt>
      <trkpt lat="44.23298" lon="0.7486">
        <ele>174</ele>
        <time>2017-04-30T08:00:00.000Z</time>
      </trkpt>
      <trkpt lat="44.23301" lon="0.74863">
        <ele>174</ele>
        <time>2017-04-30T08:00:01.000Z</time>
      </trkpt>
      <trkpt lat="44.23304" lon="0.74865">
        <ele>174</ele>
        <time>2017-04-30T08:00:02.000Z</time>
      </trkpt>
      <trkpt lat="44.23307" lon="0.74867">
        <ele>173</ele>
        <time>2017-04-30T08:00:03.000Z</time>
      </trkpt>
      <trkpt lat="44.2331" lon="0.74869">
        <ele>173</ele>
        <time>2017-04-30T08:00:04.000Z</time>
      </trkpt>
      <trkpt lat="44.23313" lon="0.74871">
        <ele>173</ele>
        <time>2017-04-30T08:00:05.000Z</time>
      </trkpt>
      <trkpt lat="44.23316" lon="0.74873">
        <ele>172</ele>
        <time>2017-04-30T08:00:06.000Z</time>
      </trkpt>
      <trkpt lat="44.23319" lon="0.74876">
        <ele>172</ele>
        <time>2017-04-30T08:00:07.000Z</time>
      </trkpt>
      <trkpt lat="44.23322" lon="0.74878">
        <ele>172</ele>
        <time>2017-04-30T08:00:08.000Z</time>
      </trkpt>
      <trkpt lat="44.23325" lon="0.7488">
        <ele>171</ele>
        <time>2017-04-30T08:00:09.000Z</time>
      </trkpt>
      <trkpt lat="44.23328" lon="0.74883">
        <ele>171</ele>
        <time>2017-04-30T08:00:10.000Z</time>
      </trkpt>
      <trkpt lat="44.2333" lon="0.74886">
        <ele>171</ele>
        <time>2017-04-30T08:00:11.000Z</time>
      </trkpt>
      <trkpt lat="44.23333" lon="0.74889">
        <ele>171</ele>
        <time>2017-04-30T08:00:12.000Z</time>
      </trkpt>
      <trkpt lat="44.23335" lon="0.74893">
        <ele>171</ele>
        <time>2017-04-30T08:00:13.000Z</time>
      </trkpt>
      <trkpt lat="44.23337" lon="0.74896">
        <ele>171</ele>
        <time>2017-04-30T08:00:14.000Z</time>
      </trkpt>
      <trkpt lat="44.23339" lon="0.74899">
        <ele>171</ele>
        <time>2017-04-30T08:00:15.000Z</time>
      </trkpt>
      <trkpt lat="44.23342" lon="0.74902">
        <ele>170</ele>
        <time>2017-04-30T08:00:16.000Z</time>
      </trkpt>
      <trkpt lat="44.23344" lon="0.74905">
        <ele>170</ele>
        <time>2017-04-30T08:00:17.000Z</time>
      </trkpt>
      <trkpt lat="44.23346" lon="0.74908">
        <ele>170</ele>
        <time>2017-04-30T08:00:18.000Z</time>
      </trkpt>
      <trkpt lat="44.23348" lon="0.74912">
        <ele>170</ele>
        <time>2017-04-30T08:00:19.000Z</time>
      </trkpt>
      <trkpt lat="44.23349" lon="0.74916">
        <ele>170</ele>
        <time>2017-04-30T08:00:20.000Z</time>
      </trkpt>
      <trkpt lat="44.23352" lon="0.74919">
        <ele>170</ele>
        <time>2017-04-30T08:00:21.000Z</time>
      </trkpt>
      <trkpt lat="44.23354" lon="0.74923">
        <ele>170</ele>
        <time>2017-04-30T08:00:22.000Z</time>
      </trkpt>
      <trkpt lat="44.23356" lon="0.74927">
        <ele>168</ele>
        <time>2017-04-30T08:00:23.000Z</time>
      </trkpt>
      <trkpt lat="44.23358" lon="0.74931">
        <ele>168</ele>
        <time>2017-04-30T08:00:24.000Z</time>
      </trkpt>
      <trkpt lat="44.2336" lon="0.74935">
        <ele>168</ele>
        <time>2017-04-30T08:00:25.000Z</time>
      </trkpt>
      <trkpt lat="44.23361" lon="0.74939">
        <ele>168</ele>
        <time>2017-04-30T08:00:26.000Z</time>
      </trkpt>
      <trkpt lat="44.23363" lon="0.74943">
        <ele>168</ele>
        <time>2017-04-30T08:00:27.000Z</time>
      </trkpt>
      <trkpt lat="44.23365" lon="0.74947">
        <ele>168</ele>
        <time>2017-04-30T08:00:28.000Z</time>
      </trkpt>
      <trkpt lat="44.23367" lon="0.7495">
        <ele>168</ele>
        <time>2017-04-30T08:00:29.000Z</time>
      </trkpt>
      <trkpt lat="44.23369" lon="0.74954">
        <ele>168</ele>
        <time>2017-04-30T08:00:30.000Z</time>
      </trkpt>
      <trkpt lat="44.23372" lon="0.74956">
        <ele>170</ele>
        <time>2017-04-30T08:00:31.000Z</time>
      </trkpt>
      <trkpt lat="44.23375" lon="0.74959">
        <ele>171</ele>
        <time>2017-04-30T08:00:32.000Z</time>
      </trkpt>
      <trkpt lat="44.23378" lon="0.74961">
        <ele>171</ele>
        <time>2017-04-30T08:00:33.000Z</time>
      </trkpt>
      <trkpt lat="44.2338" lon="0.74963">
        <ele>172</ele>
        <time>2017-04-30T08:00:34.000Z</time>
      </trkpt>
      <trkpt lat="44.23383" lon="0.74965">
        <ele>172</ele>
        <time>2017-04-30T08:00:35.000Z</time>
      </trkpt>
      <trkpt lat="44.23386" lon="0.74967">
        <ele>172</ele>
        <time>2017-04-30T08:00:36.000Z</time>
      </trkpt>
      <trkpt lat="44.23389" lon="0.74969">
        <ele>172</ele>
        <time>2017-04-30T08:00:37.000Z</time>
      </trkpt>
      <trkpt lat="44.23392" lon="0.74972">
        <ele>172</ele>
        <time>2017-04-30T08:00:38.000Z</time>
      </trkpt>
      <trkpt lat="44.23395" lon="0.74974">
        <ele>172</ele>
        <time>2017-04-30T08:00:39.000Z</time>
      </trkpt>
      <trkpt lat="44.23398" lon="0.74977">
        <ele>173</ele>
        <time>2017-04-30T08:00:40.000Z</time>
      </trkpt>
      <trkpt lat="44.234" lon="0.74979">
        <ele>173</ele>
        <time>2017-04-30T08:00:41.000Z</time>
      </trkpt>
      <trkpt lat="44.23403" lon="0.74982">
        <ele>174</ele>
        <time>2017-04-30T08:00:42.000Z</time>
      </trkpt>
      <trkpt lat="44.23406" lon="0.74984">
        <ele>173</ele>
        <time>2017-04-30T08:00:43.000Z</time>
      </trkpt>
      <trkpt lat="44.23408" lon="0.74986">
        <ele>174</ele>
        <time>2017-04-30T08:00:44.000Z</time>
      </trkpt>
      <trkpt lat="44.23411" lon="0.74988">
        <ele>175</ele>
        <time>2017-04-30T08:00:45.000Z</time>
      </trkpt>
      <trkpt lat="44.23414" lon="0.7499">
        <ele>174</ele>
        <time>2017-04-30T08:00:46.000Z</time>
      </trkpt>
      <trkpt lat="44.23417" lon="0.74992">
        <ele>174</ele>
        <time>2017-04-30T08:00:47.000Z</time>
      </trkpt>
      <trkpt lat="44.2342" lon="0.74993">
        <ele>175</ele>
        <time>2017-04-30T08:00:48.000Z</time>
      </trkpt>
      <trkpt lat="44.23423" lon="0.74995">
        <ele>176</ele>
        <time>2017-04-30T08:00:49.000Z</time>
      </trkpt>
      <trkpt lat="44.23426" lon="0.74997">
        <ele>176</ele>
        <time>2017-04-30T08:00:50.000Z</time>
      </trkpt>
      <trkpt lat="44.23429" lon="0.74998">
        <ele>176</ele>
        <time>2017-04-30T08:00:51.000Z</time>
      </trkpt>
      <trkpt lat="44.23432" lon="0.75001">
        <ele>176</ele>
        <time>2017-04-30T08:00:52.000Z</time>
      </trkpt>
      <trkpt lat="44.23434" lon="0.75004">
        <ele>176</ele>
        <time>2017-04-30T08:00:53.000Z</time>
      </trkpt>
      <trkpt lat="44.23436" lon="0.75006">
        <ele>177</ele>
        <time>2017-04-30T08:00:54.000Z</time>
      </trkpt>
      <trkpt lat="44.23438" lon="0.75009">
        <ele>177</ele>
        <time>2017-04-30T08:00:55.000Z</time>
      </trkpt>
      <trkpt lat="44.23441" lon="0.7501">
        <ele>177</ele>
        <time>2017-04-30T08:00:56.000Z</time>
      </trkpt>
      <trkpt lat="44.23444" lon="0.7501">
        <ele>177</ele>
        <time>2017-04-30T08:00:57.000Z</time>
      </trkpt>
      <trkpt lat="44.23446" lon="0.75011">
        <ele>177</ele>
        <time>2017-04-30T08:00:58.000Z</time>
      </trkpt>
      <trkpt lat="44.23449" lon="0.75013">
        <ele>177</ele>
        <time>2017-04-30T08:00:59.000Z</time>
      </trkpt>
      <trkpt lat="44.23451" lon="0.75016">
        <ele>177</ele>
        <time>2017-04-30T08:01:00.000Z</time>
      </trkpt>
      <trkpt lat="44.23453" lon="0.75018">
        <ele>178</ele>
        <time>2017-04-30T08:01:01.000Z</time>
      </trkpt>
      <trkpt lat="44.23454" lon="0.7502">
        <ele>178</ele>
        <time>2017-04-30T08:01:02.000Z</time>
      </trkpt>
      <trkpt lat="44.23456" lon="0.75021">
        <ele>178</ele>
        <time>2017-04-30T08:01:03.000Z</time>
      </trkpt>
      <trkpt lat="44.23456" lon="0.75021">
        <ele>178</ele>
        <time>2017-04-30T08:01:04.000Z</time>
      </trkpt>
      <trkpt lat="44.23456" lon="0.75021">
        <ele>178</ele>
        <time>2017-04-30T08:01:05.000Z</time>
      </trkpt>
      <trkpt lat="44.23456" lon="0.7502">
        <ele>178</ele>
        <time>2017-04-30T08:01:06.000Z</time>
      </trkpt>
      <trkpt lat="44.23456" lon="0.7502">
        <ele>178</ele>
        <time>2017-04-30T08:01:07.000Z</time>
      </trkpt>
      <trkpt lat="44.23456" lon="0.7502">
        <ele>178</ele>
        <time>2017-04-30T08:01:08.000Z</time>
      </trkpt>
      <trkpt lat="44.23456" lon="0.75021">
        <ele>178</ele>
        <time>2017-04-30T08:01:09.000Z</time>
      </trkpt>
      <trkpt lat="44.23456" lon="0.75021">
        <ele>178</ele>
        <time>2017-04-30T08:01:10.000Z</time>
      </trkpt>
      <trkpt lat="44.23456" lon="0.75021">
        <ele>177</ele>
        <time>2017-04-30T08:01:11.000Z</time>
      </trkpt>
      <trkpt lat="44.23456" lon="0.75023">
        <ele>177</ele>
        <time>2017-04-30T08:01:12.000Z</time>
      </trkpt>
      <trkpt lat="44.23457" lon="0.75024">
        <ele>177</ele>
        <time>2017-04-30T08:01:13.000Z</time>
      </trkpt>
      <trkpt lat="44.23457" lon="0.75025">
        <ele>177</ele>
        <time>2017-04-30T08:01:14.000Z</time>
      </trkpt>
      <trkpt lat="44.23458" lon="0.75026">
        <ele>177</ele>
        <time>2017-04-30T08:01:15.000Z</time>
      </trkpt>
      <trkpt lat="44.23459" lon="0.75027">
        <ele>177</ele>
        <time>2017-04-30T08:01:16.000Z</time>
      </trkpt>
      <trkpt lat="44.2346" lon="0.75028">
        <ele>177</ele>
        <time>2017-04-30T08:01:17.000Z</time>
      </trkpt>
      <trkpt lat="44.23461" lon="0.75029">
        <ele>177</ele>
        <time>2017-04-30T08:01:18.000Z</time>
      </trkpt>
      <trkpt lat="44.23461" lon="0.7503">
        <ele>177</ele>
        <time>2017-04-30T08:01:19.000Z</time>
      </trkpt>
      <trkpt lat="44.23462" lon="0.75031">
        <ele>177</ele>
        <time>2017-04-30T08:01:20.000Z</time>
      </trkpt>
      <trkpt lat="44.23463" lon="0.75032">
        <ele>177</ele>
        <time>2017-04-30T08:01:21.000Z</time>
      </trkpt>
      <trkpt lat="44.23463" lon="0.75033">
        <ele>177</ele>
        <time>2017-04-30T08:01:22.000Z</time>
      </trkpt>
      <trkpt lat="44.23464" lon="0.75033">
        <ele>176</ele>
        <time>2017-04-30T08:01:23.000Z</time>
      </trkpt>
      <trkpt lat="44.23464" lon="0.75035">
        <ele>176</ele>
        <time>2017-04-30T08:01:24.000Z</time>
      </trkpt>
      <trkpt lat="44.23466" lon="0.75036">
        <ele>175</ele>
        <time>2017-04-30T08:01:25.000Z</time>
      </trkpt>
      <trkpt lat="44.23468" lon="0.75038">
        <ele>174</ele>
        <time>2017-04-30T08:01:26.000Z</time>
      </trkpt>
      <trkpt lat="44.2347" lon="0.7504">
        <ele>174</ele>
        <time>2017-04-30T08:01:27.000Z</time>
      </trkpt>
      <trkpt lat="44.23473" lon="0.75041">
        <ele>173</ele>
        <time>2017-04-30T08:01:28.000Z</time>
      </trkpt>
      <trkpt lat="44.23475" lon="0.75042">
        <ele>173</ele>
        <time>2017-04-30T08:01:29.000Z</time>
      </trkpt>
      <trkpt lat="44.23478" lon="0.75045">
        <ele>172</ele>
        <time>2017-04-30T08:01:30.000Z</time>
      </trkpt>
      <trkpt lat="44.23479" lon="0.7505">
        <ele>171</ele>
        <time>2017-04-30T08:01:31.000Z</time>
      </trkpt>
      <trkpt lat="44.23478" lon="0.75055">
        <ele>170</ele>
        <time>2017-04-30T08:01:32.000Z</time>
      </trkpt>
      <trkpt lat="44.23479" lon="0.75059">
        <ele>170</ele>
        <time>2017-04-30T08:01:33.000Z</time>
      </trkpt>
      <trkpt lat="44.23478" lon="0.75062">
        <ele>170</ele>
        <time>2017-04-30T08:01:34.000Z</time>
      </trkpt>
      <trkpt lat="44.23477" lon="0.75066">
        <ele>169</ele>
        <time>2017-04-30T08:01:35.000Z</time>
      </trkpt>
      <trkpt lat="44.23475" lon="0.75069">
        <ele>168</ele>
        <time>2017-04-30T08:01:36.000Z</time>
      </trkpt>
      <trkpt lat="44.23474" lon="0.75072">
        <ele>166</ele>
        <time>2017-04-30T08:01:37.000Z</time>
      </trkpt>
      <trkpt lat="44.23472" lon="0.75075">
        <ele>166</ele>
        <time>2017-04-30T08:01:38.000Z</time>
      </trkpt>
      <trkpt lat="44.2347" lon="0.75078">
        <ele>165</ele>
        <time>2017-04-30T08:01:39.000Z</time>
      </trkpt>
      <trkpt lat="44.23467" lon="0.75081">
        <ele>165</ele>
        <time>2017-04-30T08:01:40.000Z</time>
      </trkpt>
      <trkpt lat="44.23465" lon="0.75083">
        <ele>165</ele>
        <time>2017-04-30T08:01:41.000Z</time>
      </trkpt>
      <trkpt lat="44.23463" lon="0.75086">
        <ele>166</ele>
        <time>2017-04-30T08:01:42.000Z</time>
      </trkpt>
      <trkpt lat="44.2346" lon="0.75089">
        <ele>166</ele>
        <time>2017-04-30T08:01:43.000Z</time>
      </trkpt>
      <trkpt lat="44.23456" lon="0.75091">
        <ele>167</ele>
        <time>2017-04-30T08:01:44.000Z</time>
      </trkpt>
      <trkpt lat="44.23454" lon="0.75094">
        <ele>167</ele>
        <time>2017-04-30T08:01:45.000Z</time>
      </trkpt>
      <trkpt lat="44.2345" lon="0.75096">
        <ele>167</ele>
        <time>2017-04-30T08:01:46.000Z</time>
      </trkpt>
      <trkpt lat="44.23447" lon="0.75098">
        <ele>167</ele>
        <time>2017-04-30T08:01:47.000Z</time>
      </trkpt>
      <trkpt lat="44.23444" lon="0.75101">
        <ele>168</ele>
        <time>2017-04-30T08:01:48.000Z</time>
      </trkpt>
      <trkpt lat="44.23441" lon="0.75103">
        <ele>169</ele>
        <time>2017-04-30T08:01:49.000Z</time>
      </trkpt>
      <trkpt lat="44.23439" lon="0.75105">
        <ele>168</ele>
        <time>2017-04-30T08:01:50.000Z</time>
      </trkpt>
      <trkpt lat="44.23436" lon="0.75108">
        <ele>168</ele>
        <time>2017-04-30T08:01:51.000Z</time>
      </trkpt>
      <trkpt lat="44.23432" lon="0.75111">
        <ele>169</ele>
        <time>2017-04-30T08:01:52.000Z</time>
      </trkpt>
      <trkpt lat="44.23429" lon="0.75115">
        <ele>169</ele>
        <time>2017-04-30T08:01:53.000Z</time>
      </trkpt>
      <trkpt lat="44.23426" lon="0.75117">
        <ele>169</ele>
        <time>2017-04-30T08:01:54.000Z</time>
      </trkpt>
      <trkpt lat="44.23421" lon="0.7512">
        <ele>168</ele>
        <time>2017-04-30T08:01:55.000Z</time>
      </trkpt>
      <trkpt lat="44.23418" lon="0.75124">
        <ele>167</ele>
        <time>2017-04-30T08:01:56.000Z</time>
      </trkpt>
      <trkpt lat="44.23413" lon="0.75127">
        <ele>167</ele>
        <time>2017-04-30T08:01:57.000Z</time>
      </trkpt>
      <trkpt lat="44.2341" lon="0.75129">
        <ele>167</ele>
        <time>2017-04-30T08:01:58.000Z</time>
      </trkpt>
      <trkpt lat="44.23406" lon="0.75132">
        <ele>168</ele>
        <time>2017-04-30T08:01:59.000Z</time>
      </trkpt>
      <trkpt lat="44.23402" lon="0.75136">
        <ele>168</ele>
        <time>2017-04-30T08:02:00.000Z</time>
      </trkpt>
      <trkpt lat="44.23399" lon="0.75139">
        <ele>167</ele>
        <time>2017-04-30T08:02:01.000Z</time>
      </trkpt>
      <trkpt lat="44.23397" lon="0.75143">
        <ele>165</ele>
        <time>2017-04-30T08:02:02.000Z</time>
      </trkpt>
      <trkpt lat="44.23394" lon="0.75146">
        <ele>166</ele>
        <time>2017-04-30T08:02:03.000Z</time>
      </trkpt>
      <trkpt lat="44.23391" lon="0.7515">
        <ele>166</ele>
        <time>2017-04-30T08:02:04.000Z</time>
      </trkpt>
      <trkpt lat="44.23388" lon="0.75154">
        <ele>165</ele>
        <time>2017-04-30T08:02:05.000Z</time>
      </trkpt>
      <trkpt lat="44.23386" lon="0.75157">
        <ele>165</ele>
        <time>2017-04-30T08:02:06.000Z</time>
      </trkpt>
      <trkpt lat="44.23382" lon="0.75162">
        <ele>163</ele>
        <time>2017-04-30T08:02:07.000Z</time>
      </trkpt>
      <trkpt lat="44.23378" lon="0.75166">
        <ele>162</ele>
        <time>2017-04-30T08:02:08.000Z</time>
      </trkpt>
      <trkpt lat="44.23375" lon="0.7517">
        <ele>163</ele>
        <time>2017-04-30T08:02:09.000Z</time>
      </trkpt>
      <trkpt lat="44.23373" lon="0.75175">
        <ele>163</ele>
        <time>2017-04-30T08:02:10.000Z</time>
      </trkpt>
      <trkpt lat="44.2337" lon="0.75179">
        <ele>164</ele>
        <time>2017-04-30T08:02:11.000Z</time>
      </trkpt>
      <trkpt lat="44.23367" lon="0.75183">
        <ele>165</ele>
        <time>2017-04-30T08:02:12.000Z</time>
      </trkpt>
      <trkpt lat="44.23364" lon="0.75187">
        <ele>164</ele>
        <time>2017-04-30T08:02:13.000Z</time>
      </trkpt>
      <trkpt lat="44.23361" lon="0.75191">
        <ele>164</ele>
        <time>2017-04-30T08:02:14.000Z</time>
      </trkpt>
      <trkpt lat="44.23358" lon="0.75196">
        <ele>165</ele>
        <time>2017-04-30T08:02:15.000Z</time>
      </trkpt>
      <trkpt lat="44.23355" lon="0.752">
        <ele>165</ele>
        <time>2017-04-30T08:02:16.000Z</time>
      </trkpt>
      <trkpt lat="44.23352" lon="0.75204">
        <ele>166</ele>
        <time>2017-04-30T08:02:17.000Z</time>
      </trkpt>
      <trkpt lat="44.23349" lon="0.75208">
        <ele>167</ele>
        <time>2017-04-30T08:02:18.000Z</time>
      </trkpt>
      <trkpt lat="44.23344" lon="0.75214">
        <ele>168</ele>
        <time>2017-04-30T08:02:19.000Z</time>
      </trkpt>
      <trkpt lat="44.2334" lon="0.7522">
        <ele>171</ele>
        <time>2017-04-30T08:02:20.000Z</time>
      </trkpt>
      <trkpt lat="44.23337" lon="0.75225">
        <ele>171</ele>
        <time>2017-04-30T08:02:21.000Z</time>
      </trkpt>
      <trkpt lat="44.23333" lon="0.75229">
        <ele>171</ele>
        <time>2017-04-30T08:02:22.000Z</time>
      </trkpt>
      <trkpt lat="44.23329" lon="0.75234">
        <ele>171</ele>
        <time>2017-04-30T08:02:23.000Z</time>
      </trkpt>
      <trkpt lat="44.23325" lon="0.7524">
        <ele>170</ele>
        <time>2017-04-30T08:02:24.000Z</time>
      </trkpt>
      <trkpt lat="44.23321" lon="0.75244">
        <ele>170</ele>
        <time>2017-04-30T08:02:25.000Z</time>
      </trkpt>
      <trkpt lat="44.23317" lon="0.75248">
        <ele>170</ele>
        <time>2017-04-30T08:02:26.000Z</time>
      </trkpt>
      <trkpt lat="44.23313" lon="0.75252">
        <ele>170</ele>
        <time>2017-04-30T08:02:27.000Z</time>
      </trkpt>
      <trkpt lat="44.23309" lon="0.75256">
        <ele>170</ele>
        <time>2017-04-30T08:02:28.000Z</time>
      </trkpt>
      <trkpt lat="44.23305" lon="0.7526">
        <ele>170</ele>
        <time>2017-04-30T08:02:29.000Z</time>
      </trkpt>
      <trkpt lat="44.23299" lon="0.75265">
        <ele>168</ele>
        <time>2017-04-30T08:02:30.000Z</time>
      </trkpt>
      <trkpt lat="44.23295" lon="0.7527">
        <ele>167</ele>
        <time>2017-04-30T08:02:31.000Z</time>
      </trkpt>
      <trkpt lat="44.2329" lon="0.75275">
        <ele>167</ele>
        <time>2017-04-30T08:02:32.000Z</time>
      </trkpt>
      <trkpt lat="44.23286" lon="0.75281">
        <ele>166</ele>
        <time>2017-04-30T08:02:33.000Z</time>
      </trkpt>
      <trkpt lat="44.23282" lon="0.75286">
        <ele>166</ele>
        <time>2017-04-30T08:02:34.000Z</time>
      </trkpt>
      <trkpt lat="44.23277" lon="0.75291">
        <ele>165</ele>
        <time>2017-04-30T08:02:35.000Z</time>
      </trkpt>
      <trkpt lat="44.23272" lon="0.75295">
        <ele>165</ele>
        <time>2017-04-30T08:02:36.000Z</time>
      </trkpt>
      <trkpt lat="44.23268" lon="0.75299">
        <ele>164</ele>
        <time>2017-04-30T08:02:37.000Z</time>
      </trkpt>
      <trkpt lat="44.23263" lon="0.75302">
        <ele>164</ele>
        <time>2017-04-30T08:02:38.000Z</time>
      </trkpt>
      <trkpt lat="44.23259" lon="0.75305">
        <ele>164</ele>
        <time>2017-04-30T08:02:39.000Z</time>
      </trkpt>
      <trkpt lat="44.23256" lon="0.75309">
        <ele>163</ele>
        <time>2017-04-30T08:02:40.000Z</time>
      </trkpt>
      <trkpt lat="44.23254" lon="0.75312">
        <ele>162</ele>
        <time>2017-04-30T08:02:41.000Z</time>
      </trkpt>
      <trkpt lat="44.23251" lon="0.75315">
        <ele>162</ele>
        <time>2017-04-30T08:02:42.000Z</time>
      </trkpt>
      <trkpt lat="44.23246" lon="0.75315">
        <ele>163</ele>
        <time>2017-04-30T08:02:43.000Z</time>
      </trkpt>
      <trkpt lat="44.23241" lon="0.75315">
        <ele>163</ele>
        <time>2017-04-30T08:02:44.000Z</time>
      </trkpt>
      <trkpt lat="44.23236" lon="0.75315">
        <ele>161</ele>
        <time>2017-04-30T08:02:45.000Z</time>
      </trkpt>
      <trkpt lat="44.23231" lon="0.75315">
        <ele>161</ele>
        <time>2017-04-30T08:02:46.000Z</time>
      </trkpt>
      <trkpt lat="44.23225" lon="0.75315">
        <ele>160</ele>
        <time>2017-04-30T08:02:47.000Z</time>
      </trkpt>
      <trkpt lat="44.23219" lon="0.75314">
        <ele>160</ele>
        <time>2017-04-30T08:02:48.000Z</time>
      </trkpt>
      <trkpt lat="44.23213" lon="0.75312">
        <ele>159</ele>
        <time>2017-04-30T08:02:49.000Z</time>
      </trkpt>
      <trkpt lat="44.23206" lon="0.75311">
        <ele>159</ele>
        <time>2017-04-30T08:02:50.000Z</time>
      </trkpt>
      <trkpt lat="44.232" lon="0.75308">
        <ele>158</ele>
        <time>2017-04-30T08:02:51.000Z</time>
      </trkpt>
      <trkpt lat="44.23194" lon="0.75305">
        <ele>158</ele>
        <time>2017-04-30T08:02:52.000Z</time>
      </trkpt>
      <trkpt lat="44.23187" lon="0.75301">
        <ele>158</ele>
        <time>2017-04-30T08:02:53.000Z</time>
      </trkpt>
      <trkpt lat="44.2318" lon="0.75298">
        <ele>157</ele>
        <time>2017-04-30T08:02:54.000Z</time>
      </trkpt>
      <trkpt lat="44.23173" lon="0.75295">
        <ele>157</ele>
        <time>2017-04-30T08:02:55.000Z</time>
      </trkpt>
      <trkpt lat="44.23166" lon="0.75292">
        <ele>156</ele>
        <time>2017-04-30T08:02:56.000Z</time>
      </trkpt>
      <trkpt lat="44.23159" lon="0.7529">
        <ele>156</ele>
        <time>2017-04-30T08:02:57.000Z</time>
      </trkpt>
      <trkpt lat="44.23151" lon="0.75288">
        <ele>155</ele>
        <time>2017-04-30T08:02:58.000Z</time>
      </trkpt>
      <trkpt lat="44.23144" lon="0.75287">
        <ele>155</ele>
        <time>2017-04-30T08:02:59.000Z</time>
      </trkpt>
      <trkpt lat="44.23136" lon="0.75286">
        <ele>155</ele>
        <time>2017-04-30T08:03:00.000Z</time>
      </trkpt>
      <trkpt lat="44.23129" lon="0.75285">
        <ele>155</ele>
        <time>2017-04-30T08:03:01.000Z</time>
      </trkpt>
      <trkpt lat="44.23122" lon="0.75284">
        <ele>155</ele>
        <time>2017-04-30T08:03:02.000Z</time>
      </trkpt>
      <trkpt lat="44.23115" lon="0.75283">
        <ele>154</ele>
        <time>2017-04-30T08:03:03.000Z</time>
      </trkpt>
      <trkpt lat="44.23109" lon="0.75283">
        <ele>154</ele>
        <time>2017-04-30T08:03:04.000Z</time>
      </trkpt>
      <trkpt lat="44.23103" lon="0.75283">
        <ele>154</ele>
        <time>2017-04-30T08:03:05.000Z</time>
      </trkpt>
      <trkpt lat="44.23098" lon="0.75284">
        <ele>155</ele>
        <time>2017-04-30T08:03:06.000Z</time>
      </trkpt>
      <trkpt lat="44.23093" lon="0.75285">
        <ele>155</ele>
        <time>2017-04-30T08:03:07.000Z</time>
      </trkpt>
      <trkpt lat="44.23088" lon="0.75286">
        <ele>155</ele>
        <time>2017-04-30T08:03:08.000Z</time>
      </trkpt>
      <trkpt lat="44.23084" lon="0.75288">
        <ele>155</ele>
        <time>2017-04-30T08:03:09.000Z</time>
      </trkpt>
      <trkpt lat="44.2308" lon="0.75288">
        <ele>154</ele>
        <time>2017-04-30T08:03:10.000Z</time>
      </trkpt>
      <trkpt lat="44.23075" lon="0.75287">
        <ele>154</ele>
        <time>2017-04-30T08:03:11.000Z</time>
      </trkpt>
      <trkpt lat="44.2307" lon="0.75287">
        <ele>154</ele>
        <time>2017-04-30T08:03:12.000Z</time>
      </trkpt>
      <trkpt lat="44.23065" lon="0.75287">
        <ele>155</ele>
        <time>2017-04-30T08:03:13.000Z</time>
      </trkpt>
      <trkpt lat="44.2306" lon="0.75288">
        <ele>155</ele>
        <time>2017-04-30T08:03:14.000Z</time>
      </trkpt>
      <trkpt lat="44.23056" lon="0.75289">
        <ele>155</ele>
        <time>2017-04-30T08:03:15.000Z</time>
      </trkpt>
      <trkpt lat="44.23051" lon="0.7529">
        <ele>155</ele>
        <time>2017-04-30T08:03:16.000Z</time>
      </trkpt>
      <trkpt lat="44.23045" lon="0.75292">
        <ele>154</ele>
        <time>2017-04-30T08:03:17.000Z</time>
      </trkpt>
      <trkpt lat="44.23039" lon="0.75294">
        <ele>154</ele>
        <time>2017-04-30T08:03:18.000Z</time>
      </trkpt>
      <trkpt lat="44.23034" lon="0.75296">
        <ele>154</ele>
        <time>2017-04-30T08:03:19.000Z</time>
      </trkpt>
      <trkpt lat="44.23028" lon="0.75298">
        <ele>153</ele>
        <time>2017-04-30T08:03:20.000Z</time>
      </trkpt>
      <trkpt lat="44.23022" lon="0.75301">
        <ele>151</ele>
        <time>2017-04-30T08:03:21.000Z</time>
      </trkpt>
      <trkpt lat="44.23017" lon="0.75303">
        <ele>151</ele>
        <time>2017-04-30T08:03:22.000Z</time>
      </trkpt>
      <trkpt lat="44.23013" lon="0.75302">
        <ele>152</ele>
        <time>2017-04-30T08:03:23.000Z</time>
      </trkpt>
      <trkpt lat="44.2301" lon="0.75296">
        <ele>150</ele>
        <time>2017-04-30T08:03:24.000Z</time>
      </trkpt>
      <trkpt lat="44.23006" lon="0.75294">
        <ele>148</ele>
        <time>2017-04-30T08:03:25.000Z</time>
      </trkpt>
      <trkpt lat="44.23003" lon="0.75295">
        <ele>143</ele>
        <time>2017-04-30T08:03:26.000Z</time>
      </trkpt>
      <trkpt lat="44.23003" lon="0.75296">
        <ele>141</ele>
        <time>2017-04-30T08:03:27.000Z</time>
      </trkpt>
      <trkpt lat="44.23002" lon="0.75298">
        <ele>140</ele>
        <time>2017-04-30T08:03:28.000Z</time>
      </trkpt>
      <trkpt lat="44.23003" lon="0.753">
        <ele>140</ele>
        <time>2017-04-30T08:03:29.000Z</time>
      </trkpt>
      <trkpt lat="44.23002" lon="0.75302">
        <ele>140</ele>
        <time>2017-04-30T08:03:30.000Z</time>
      </trkpt>
      <trkpt lat="44.23002" lon="0.75306">
        <ele>142</ele>
        <time>2017-04-30T08:03:31.000Z</time>
      </trkpt>
      <trkpt lat="44.23002" lon="0.7531">
        <ele>141</ele>
        <time>2017-04-30T08:03:32.000Z</time>
      </trkpt>
      <trkpt lat="44.23002" lon="0.75313">
        <ele>141</ele>
        <time>2017-04-30T08:03:33.000Z</time>
      </trkpt>
      <trkpt lat="44.23002" lon="0.75318">
        <ele>140</ele>
        <time>2017-04-30T08:03:34.000Z</time>
      </trkpt>
      <trkpt lat="44.23003" lon="0.75321">
        <ele>139</ele>
        <time>2017-04-30T08:03:35.000Z</time>
      </trkpt>
      <trkpt lat="44.23003" lon="0.75327">
        <ele>137</ele>
        <time>2017-04-30T08:03:36.000Z</time>
      </trkpt>
      <trkpt lat="44.23004" lon="0.75332">
        <ele>137</ele>
        <time>2017-04-30T08:03:37.000Z</time>
      </trkpt>
      <trkpt lat="44.23006" lon="0.75337">
        <ele>137</ele>
        <time>2017-04-30T08:03:38.000Z</time>
      </trkpt>
      <trkpt lat="44.2301" lon="0.75342">
        <ele>136</ele>
        <time>2017-04-30T08:03:39.000Z</time>
      </trkpt>
      <trkpt lat="44.23011" lon="0.75349">
        <ele>133</ele>
        <time>2017-04-30T08:03:40.000Z</time>
      </trkpt>
      <trkpt lat="44.23011" lon="0.75354">
        <ele>132</ele>
        <time>2017-04-30T08:03:41.000Z</time>
      </trkpt>
      <trkpt lat="44.23011" lon="0.7536">
        <ele>131</ele>
        <time>2017-04-30T08:03:42.000Z</time>
      </trkpt>
      <trkpt lat="44.23011" lon="0.75366">
        <ele>130</ele>
        <time>2017-04-30T08:03:43.000Z</time>
      </trkpt>
      <trkpt lat="44.23011" lon="0.75371">
        <ele>128</ele>
        <time>2017-04-30T08:03:44.000Z</time>
      </trkpt>
      <trkpt lat="44.23011" lon="0.75378">
        <ele>127</ele>
        <time>2017-04-30T08:03:45.000Z</time>
      </trkpt>
      <trkpt lat="44.23011" lon="0.75385">
        <ele>127</ele>
        <time>2017-04-30T08:03:46.000Z</time>
      </trkpt>
      <trkpt lat="44.23011" lon="0.75391">
        <ele>125</ele>
        <time>2017-04-30T08:03:47.000Z</time>
      </trkpt>
      <trkpt lat="44.23012" lon="0.75398">
        <ele>122</ele>
        <time>2017-04-30T08:03:48.000Z</time>
      </trkpt>
      <trkpt lat="44.23011" lon="0.75406">
        <ele>123</ele>
        <time>2017-04-30T08:03:49.000Z</time>
      </trkpt>
      <trkpt lat="44.23011" lon="0.75413">
        <ele>123</ele>
        <time>2017-04-30T08:03:50.000Z</time>
      </trkpt>
      <trkpt lat="44.2301" lon="0.75421">
        <ele>121</ele>
        <time>2017-04-30T08:03:51.000Z</time>
      </trkpt>
      <trkpt lat="44.2301" lon="0.75429">
        <ele>120</ele>
        <time>2017-04-30T08:03:52.000Z</time>
      </trkpt>
      <trkpt lat="44.23008" lon="0.75437">
        <ele>116</ele>
        <time>2017-04-30T08:03:53.000Z</time>
      </trkpt>
      <trkpt lat="44.23007" lon="0.75444">
        <ele>115</ele>
        <time>2017-04-30T08:03:54.000Z</time>
      </trkpt>
      <trkpt lat="44.23006" lon="0.75451">
        <ele>115</ele>
        <time>2017-04-30T08:03:55.000Z</time>
      </trkpt>
      <trkpt lat="44.23006" lon="0.75458">
        <ele>114</ele>
        <time>2017-04-30T08:03:56.000Z</time>
      </trkpt>
      <trkpt lat="44.23005" lon="0.75465">
        <ele>113</ele>
        <time>2017-04-30T08:03:57.000Z</time>
      </trkpt>
      <trkpt lat="44.23004" lon="0.75473">
        <ele>112</ele>
        <time>2017-04-30T08:03:58.000Z</time>
      </trkpt>
      <trkpt lat="44.23001" lon="0.75481">
        <ele>115</ele>
        <time>2017-04-30T08:03:59.000Z</time>
      </trkpt>
      <trkpt lat="44.22999" lon="0.75488">
        <ele>117</ele>
        <time>2017-04-30T08:04:00.000Z</time>
      </trkpt>
      <trkpt lat="44.22997" lon="0.75495">
        <ele>116</ele>
        <time>2017-04-30T08:04:01.000Z</time>
      </trkpt>
      <trkpt lat="44.22993" lon="0.755">
        <ele>113</ele>
        <time>2017-04-30T08:04:02.000Z</time>
      </trkpt>
      <trkpt lat="44.22991" lon="0.75505">
        <ele>114</ele>
        <time>2017-04-30T08:04:03.000Z</time>
      </trkpt>
      <trkpt lat="44.22989" lon="0.75508">
        <ele>115</ele>
        <time>2017-04-30T08:04:04.000Z</time>
      </trkpt>
      <trkpt lat="44.22987" lon="0.75512">
        <ele>114</ele>
        <time>2017-04-30T08:04:05.000Z</time>
      </trkpt>
      <trkpt lat="44.22984" lon="0.75515">
        <ele>113</ele>
        <time>2017-04-30T08:04:06.000Z</time>
      </trkpt>
      <trkpt lat="44.22983" lon="0.75517">
        <ele>114</ele>
        <time>2017-04-30T08:04:07.000Z</time>
      </trkpt>
      <trkpt lat="44.22981" lon="0.7552">
        <ele>116</ele>
        <time>2017-04-30T08:04:08.000Z</time>
      </trkpt>
      <trkpt lat="44.22979" lon="0.75522">
        <ele>115</ele>
        <time>2017-04-30T08:04:09.000Z</time>
      </trkpt>
      <trkpt lat="44.22978" lon="0.75524">
        <ele>116</ele>
        <time>2017-04-30T08:04:10.000Z</time>
      </trkpt>
      <trkpt lat="44.22977" lon="0.75526">
        <ele>117</ele>
        <time>2017-04-30T08:04:11.000Z</time>
      </trkpt>
      <trkpt lat="44.22976" lon="0.75528">
        <ele>118</ele>
        <time>2017-04-30T08:04:12.000Z</time>
      </trkpt>
      <trkpt lat="44.22975" lon="0.7553">
        <ele>119</ele>
        <time>2017-04-30T08:04:13.000Z</time>
      </trkpt>
      <trkpt lat="44.22974" lon="0.75532">
        <ele>120</ele>
        <time>2017-04-30T08:04:14.000Z</time>
      </trkpt>
      <trkpt lat="44.22972" lon="0.75534">
        <ele>120</ele>
        <time>2017-04-30T08:04:15.000Z</time>
      </trkpt>
      <trkpt lat="44.22971" lon="0.75536">
        <ele>121</ele>
        <time>2017-04-30T08:04:16.000Z</time>
      </trkpt>
      <trkpt lat="44.2297" lon="0.75537">
        <ele>122</ele>
        <time>2017-04-30T08:04:17.000Z</time>
      </trkpt>
      <trkpt lat="44.22969" lon="0.75539">
        <ele>123</ele>
        <time>2017-04-30T08:04:18.000Z</time>
      </trkpt>
      <trkpt lat="44.22968" lon="0.75541">
        <ele>123</ele>
        <time>2017-04-30T08:04:19.000Z</time>
      </trkpt>
      <trkpt lat="44.22967" lon="0.75542">
        <ele>123</ele>
        <time>2017-04-30T08:04:20.000Z</time>
      </trkpt>
      <trkpt lat="44.22965" lon="0.75545">
        <ele>124</ele>
        <time>2017-04-30T08:04:21.000Z</time>
      </trkpt>
      <trkpt lat="44.22964" lon="0.75546">
        <ele>125</ele>
        <time>2017-04-30T08:04:22.000Z</time>
      </trkpt>
      <trkpt lat="44.22963" lon="0.75548">
        <ele>125</ele>
        <time>2017-04-30T08:04:23.000Z</time>
      </trkpt>
      <trkpt lat="44.22961" lon="0.75549">
        <ele>127</ele>
        <time>2017-04-30T08:04:24.000Z</time>
      </trkpt>
      <trkpt lat="44.22959" lon="0.75551">
        <ele>128</ele>
        <time>2017-04-30T08:04:25.000Z</time>
      </trkpt>
      <trkpt lat="44.22957" lon="0.75552">
        <ele>128</ele>
        <time>2017-04-30T08:04:26.000Z</time>
      </trkpt>
      <trkpt lat="44.22955" lon="0.75553">
        <ele>128</ele>
        <time>2017-04-30T08:04:27.000Z</time>
      </trkpt>
      <trkpt lat="44.22954" lon="0.75555">
        <ele>128</ele>
        <time>2017-04-30T08:04:28.000Z</time>
      </trkpt>
      <trkpt lat="44.22952" lon="0.75556">
        <ele>128</ele>
        <time>2017-04-30T08:04:29.000Z</time>
      </trkpt>
      <trkpt lat="44.22951" lon="0.75558">
        <ele>128</ele>
        <time>2017-04-30T08:04:30.000Z</time>
      </trkpt>
      <trkpt lat="44.22949" lon="0.75559">
        <ele>129</ele>
        <time>2017-04-30T08:04:31.000Z</time>
      </trkpt>
      <trkpt lat="44.22947" lon="0.75561">
        <ele>129</ele>
        <time>2017-04-30T08:04:32.000Z</time>
      </trkpt>
      <trkpt lat="44.22946" lon="0.75562">
        <ele>130</ele>
        <time>2017-04-30T08:04:33.000Z</time>
      </trkpt>
      <trkpt lat="44.22945" lon="0.75564">
        <ele>130</ele>
        <time>2017-04-30T08:04:34.000Z</time>
      </trkpt>
      <trkpt lat="44.22943" lon="0.75566">
        <ele>129</ele>
        <time>2017-04-30T08:04:35.000Z</time>
      </trkpt>
      <trkpt lat="44.22942" lon="0.75568">
        <ele>129</ele>
        <time>2017-04-30T08:04:36.000Z</time>
      </trkpt>
      <trkpt lat="44.22941" lon="0.7557">
        <ele>130</ele>
        <time>2017-04-30T08:04:37.000Z</time>
      </trkpt>
      <trkpt lat="44.22939" lon="0.75572">
        <ele>130</ele>
        <time>2017-04-30T08:04:38.000Z</time>
      </trkpt>
      <trkpt lat="44.22937" lon="0.75574">
        <ele>130</ele>
        <time>2017-04-30T08:04:39.000Z</time>
      </trkpt>
      <trkpt lat="44.22936" lon="0.75576">
        <ele>130</ele>
        <time>2017-04-30T08:04:40.000Z</time>
      </trkpt>
      <trkpt lat="44.22934" lon="0.75578">
        <ele>131</ele>
        <time>2017-04-30T08:04:41.000Z</time>
      </trkpt>
      <trkpt lat="44.22933" lon="0.7558">
        <ele>130</ele>
        <time>2017-04-30T08:04:42.000Z</time>
      </trkpt>
      <trkpt lat="44.22931" lon="0.75582">
        <ele>131</ele>
        <time>2017-04-30T08:04:43.000Z</time>
      </trkpt>
      <trkpt lat="44.2293" lon="0.75585">
        <ele>131</ele>
        <time>2017-04-30T08:04:44.000Z</time>
      </trkpt>
      <trkpt lat="44.22928" lon="0.75587">
        <ele>132</ele>
        <time>2017-04-30T08:04:45.000Z</time>
      </trkpt>
      <trkpt lat="44.22926" lon="0.75589">
        <ele>132</ele>
        <time>2017-04-30T08:04:46.000Z</time>
      </trkpt>
      <trkpt lat="44.22924" lon="0.75591">
        <ele>132</ele>
        <time>2017-04-30T08:04:47.000Z</time>
      </trkpt>
      <trkpt lat="44.22922" lon="0.75592">
        <ele>132</ele>
        <time>2017-04-30T08:04:48.000Z</time>
      </trkpt>
      <trkpt lat="44.2292" lon="0.75594">
        <ele>132</ele>
        <time>2017-04-30T08:04:49.000Z</time>
      </trkpt>
      <trkpt lat="44.22918" lon="0.75595">
        <ele>132</ele>
        <time>2017-04-30T08:04:50.000Z</time>
      </trkpt>
      <trkpt lat="44.22916" lon="0.75596">
        <ele>132</ele>
        <time>2017-04-30T08:04:51.000Z</time>
      </trkpt>
      <trkpt lat="44.22914" lon="0.75598">
        <ele>132</ele>
        <time>2017-04-30T08:04:52.000Z</time>
      </trkpt>
      <trkpt lat="44.22912" lon="0.75599">
        <ele>133</ele>
        <time>2017-04-30T08:04:53.000Z</time>
      </trkpt>
      <trkpt lat="44.22911" lon="0.756">
        <ele>132</ele>
        <time>2017-04-30T08:04:54.000Z</time>
      </trkpt>
      <trkpt lat="44.22909" lon="0.75602">
        <ele>132</ele>
        <time>2017-04-30T08:04:55.000Z</time>
      </trkpt>
      <trkpt lat="44.22907" lon="0.75603">
        <ele>132</ele>
        <time>2017-04-30T08:04:56.000Z</time>
      </trkpt>
      <trkpt lat="44.22905" lon="0.75604">
        <ele>132</ele>
        <time>2017-04-30T08:04:57.000Z</time>
      </trkpt>
      <trkpt lat="44.22903" lon="0.75605">
        <ele>132</ele>
        <time>2017-04-30T08:04:58.000Z</time>
      </trkpt>
      <trkpt lat="44.22902" lon="0.75607">
        <ele>132</ele>
        <time>2017-04-30T08:04:59.000Z</time>
      </trkpt>
      <trkpt lat="44.229" lon="0.75608">
        <ele>133</ele>
        <time>2017-04-30T08:05:00.000Z</time>
      </trkpt>
      <trkpt lat="44.22898" lon="0.75609">
        <ele>133</ele>
        <time>2017-04-30T08:05:01.000Z</time>
      </trkpt>
      <trkpt lat="44.22896" lon="0.75611">
        <ele>133</ele>
        <time>2017-04-30T08:05:02.000Z</time>
      </trkpt>
      <trkpt lat="44.22895" lon="0.75613">
        <ele>133</ele>
        <time>2017-04-30T08:05:03.000Z</time>
      </trkpt>
      <trkpt lat="44.22893" lon="0.75614">
        <ele>133</ele>
        <time>2017-04-30T08:05:04.000Z</time>
      </trkpt>
      <trkpt lat="44.22891" lon="0.75615">
        <ele>133</ele>
        <time>2017-04-30T08:05:05.000Z</time>
      </trkpt>
      <trkpt lat="44.22889" lon="0.75617">
        <ele>133</ele>
        <time>2017-04-30T08:05:06.000Z</time>
      </trkpt>
      <trkpt lat="44.22887" lon="0.75618">
        <ele>133</ele>
        <time>2017-04-30T08:05:07.000Z</time>
      </trkpt>
      <trkpt lat="44.22886" lon="0.7562">
        <ele>134</ele>
        <time>2017-04-30T08:05:08.000Z</time>
      </trkpt>
      <trkpt lat="44.22884" lon="0.75621">
        <ele>133</ele>
        <time>2017-04-30T08:05:09.000Z</time>
      </trkpt>
      <trkpt lat="44.22884" lon="0.75623">
        <ele>134</ele>
        <time>2017-04-30T08:05:10.000Z</time>
      </trkpt>
      <trkpt lat="44.22884" lon="0.75625">
        <ele>134</ele>
        <time>2017-04-30T08:05:11.000Z</time>
      </trkpt>
      <trkpt lat="44.22884" lon="0.75627">
        <ele>134</ele>
        <time>2017-04-30T08:05:12.000Z</time>
      </trkpt>
      <trkpt lat="44.22883" lon="0.75628">
        <ele>134</ele>
        <time>2017-04-30T08:05:13.000Z</time>
      </trkpt>
      <trkpt lat="44.22883" lon="0.7563">
        <ele>135</ele>
        <time>2017-04-30T08:05:14.000Z</time>
      </trkpt>
      <trkpt lat="44.22883" lon="0.75631">
        <ele>135</ele>
        <time>2017-04-30T08:05:15.000Z</time>
      </trkpt>
      <trkpt lat="44.22883" lon="0.75633">
        <ele>135</ele>
        <time>2017-04-30T08:05:16.000Z</time>
      </trkpt>
      <trkpt lat="44.22883" lon="0.75634">
        <ele>136</ele>
        <time>2017-04-30T08:05:17.000Z</time>
      </trkpt>
      <trkpt lat="44.22883" lon="0.75633">
        <ele>136</ele>
        <time>2017-04-30T08:05:18.000Z</time>
      </trkpt>
      <trkpt lat="44.22883" lon="0.75634">
        <ele>136</ele>
        <time>2017-04-30T08:05:19.000Z</time>
      </trkpt>
      <trkpt lat="44.22883" lon="0.75635">
        <ele>135</ele>
        <time>2017-04-30T08:05:20.000Z</time>
      </trkpt>
      <trkpt lat="44.22883" lon="0.75637">
        <ele>135</ele>
        <time>2017-04-30T08:05:21.000Z</time>
      </trkpt>
      <trkpt lat="44.22883" lon="0.75638">
        <ele>136</ele>
        <time>2017-04-30T08:05:22.000Z</time>
      </trkpt>
      <trkpt lat="44.22883" lon="0.7564">
        <ele>136</ele>
        <time>2017-04-30T08:05:23.000Z</time>
      </trkpt>
      <trkpt lat="44.22883" lon="0.75642">
        <ele>136</ele>
        <time>2017-04-30T08:05:24.000Z</time>
      </trkpt>
      <trkpt lat="44.22883" lon="0.75643">
        <ele>136</ele>
        <time>2017-04-30T08:05:25.000Z</time>
      </trkpt>
      <trkpt lat="44.22883" lon="0.75644">
        <ele>137</ele>
        <time>2017-04-30T08:05:26.000Z</time>
      </trkpt>
      <trkpt lat="44.22883" lon="0.75645">
        <ele>138</ele>
        <time>2017-04-30T08:05:27.000Z</time>
      </trkpt>
      <trkpt lat="44.22882" lon="0.75646">
        <ele>137</ele>
        <time>2017-04-30T08:05:28.000Z</time>
      </trkpt>
      <trkpt lat="44.22882" lon="0.75648">
        <ele>137</ele>
        <time>2017-04-30T08:05:29.000Z</time>
      </trkpt>
      <trkpt lat="44.22882" lon="0.7565">
        <ele>138</ele>
        <time>2017-04-30T08:05:30.000Z</time>
      </trkpt>
      <trkpt lat="44.22882" lon="0.75652">
        <ele>138</ele>
        <time>2017-04-30T08:05:31.000Z</time>
      </trkpt>
      <trkpt lat="44.22883" lon="0.75654">
        <ele>138</ele>
        <time>2017-04-30T08:05:32.000Z</time>
      </trkpt>
      <trkpt lat="44.22883" lon="0.75655">
        <ele>138</ele>
        <time>2017-04-30T08:05:33.000Z</time>
      </trkpt>
      <trkpt lat="44.22883" lon="0.75657">
        <ele>139</ele>
        <time>2017-04-30T08:05:34.000Z</time>
      </trkpt>
      <trkpt lat="44.22884" lon="0.75658">
        <ele>139</ele>
        <time>2017-04-30T08:05:35.000Z</time>
      </trkpt>
      <trkpt lat="44.22884" lon="0.75659">
        <ele>139</ele>
        <time>2017-04-30T08:05:36.000Z</time>
      </trkpt>
      <trkpt lat="44.22884" lon="0.7566">
        <ele>140</ele>
        <time>2017-04-30T08:05:37.000Z</time>
      </trkpt>
      <trkpt lat="44.22885" lon="0.75661">
        <ele>140</ele>
        <time>2017-04-30T08:05:38.000Z</time>
      </trkpt>
      <trkpt lat="44.22885" lon="0.75662">
        <ele>140</ele>
        <time>2017-04-30T08:05:39.000Z</time>
      </trkpt>
      <trkpt lat="44.22886" lon="0.75663">
        <ele>140</ele>
        <time>2017-04-30T08:05:40.000Z</time>
      </trkpt>
      <trkpt lat="44.22886" lon="0.75664">
        <ele>141</ele>
        <time>2017-04-30T08:05:41.000Z</time>
      </trkpt>
      <trkpt lat="44.22887" lon="0.75664">
        <ele>141</ele>
        <time>2017-04-30T08:05:42.000Z</time>
      </trkpt>
      <trkpt lat="44.22887" lon="0.75665">
        <ele>141</ele>
        <time>2017-04-30T08:05:43.000Z</time>
      </trkpt>
      <trkpt lat="44.22888" lon="0.75665">
        <ele>142</ele>
        <time>2017-04-30T08:05:44.000Z</time>
      </trkpt>
      <trkpt lat="44.22888" lon="0.75665">
        <ele>143</ele>
        <time>2017-04-30T08:05:45.000Z</time>
      </trkpt>
      <trkpt lat="44.22888" lon="0.75665">
        <ele>143</ele>
        <time>2017-04-30T08:05:46.000Z</time>
      </trkpt>
      <trkpt lat="44.22888" lon="0.75665">
        <ele>143</ele>
        <time>2017-04-30T08:05:47.000Z</time>
      </trkpt>
      <trkpt lat="44.22889" lon="0.75664">
        <ele>143</ele>
        <time>2017-04-30T08:05:48.000Z</time>
      </trkpt>
      <trkpt lat="44.2289" lon="0.75664">
        <ele>145</ele>
        <time>2017-04-30T08:05:49.000Z</time>
      </trkpt>
      <trkpt lat="44.2289" lon="0.75664">
        <ele>145</ele>
        <time>2017-04-30T08:05:50.000Z</time>
      </trkpt>
      <trkpt lat="44.22891" lon="0.75664">
        <ele>146</ele>
        <time>2017-04-30T08:05:51.000Z</time>
      </trkpt>
      <trkpt lat="44.22891" lon="0.75664">
        <ele>147</ele>
        <time>2017-04-30T08:05:52.000Z</time>
      </trkpt>
      <trkpt lat="44.22892" lon="0.75664">
        <ele>148</ele>
        <time>2017-04-30T08:05:53.000Z</time>
      </trkpt>
      <trkpt lat="44.22893" lon="0.75663">
        <ele>149</ele>
        <time>2017-04-30T08:05:54.000Z</time>
      </trkpt>
      <trkpt lat="44.22894" lon="0.75662">
        <ele>149</ele>
        <time>2017-04-30T08:05:55.000Z</time>
      </trkpt>
      <trkpt lat="44.22895" lon="0.75661">
        <ele>149</ele>
        <time>2017-04-30T08:05:56.000Z</time>
      </trkpt>
      <trkpt lat="44.22895" lon="0.75661">
        <ele>150</ele>
        <time>2017-04-30T08:05:57.000Z</time>
      </trkpt>
      <trkpt lat="44.22896" lon="0.7566">
        <ele>149</ele>
        <time>2017-04-30T08:05:58.000Z</time>
      </trkpt>
      <trkpt lat="44.22896" lon="0.7566">
        <ele>149</ele>
        <time>2017-04-30T08:05:59.000Z</time>
      </trkpt>
      <trkpt lat="44.22897" lon="0.75659">
        <ele>150</ele>
        <time>2017-04-30T08:06:00.000Z</time>
      </trkpt>
      <trkpt lat="44.22899" lon="0.75659">
        <ele>151</ele>
        <time>2017-04-30T08:06:01.000Z</time>
      </trkpt>
      <trkpt lat="44.229" lon="0.75657">
        <ele>151</ele>
        <time>2017-04-30T08:06:02.000Z</time>
      </trkpt>
      <trkpt lat="44.22903" lon="0.75655">
        <ele>151</ele>
        <time>2017-04-30T08:06:03.000Z</time>
      </trkpt>
      <trkpt lat="44.22905" lon="0.75654">
        <ele>151</ele>
        <time>2017-04-30T08:06:04.000Z</time>
      </trkpt>
      <trkpt lat="44.22907" lon="0.75653">
        <ele>151</ele>
        <time>2017-04-30T08:06:05.000Z</time>
      </trkpt>
      <trkpt lat="44.22909" lon="0.75652">
        <ele>152</ele>
        <time>2017-04-30T08:06:06.000Z</time>
      </trkpt>
      <trkpt lat="44.22911" lon="0.75652">
        <ele>153</ele>
        <time>2017-04-30T08:06:07.000Z</time>
      </trkpt>
      <trkpt lat="44.22913" lon="0.75651">
        <ele>155</ele>
        <time>2017-04-30T08:06:08.000Z</time>
      </trkpt>
      <trkpt lat="44.22915" lon="0.75651">
        <ele>155</ele>
        <time>2017-04-30T08:06:09.000Z</time>
      </trkpt>
      <trkpt lat="44.22916" lon="0.7565">
        <ele>156</ele>
        <time>2017-04-30T08:06:10.000Z</time>
      </trkpt>
      <trkpt lat="44.22919" lon="0.7565">
        <ele>155</ele>
        <time>2017-04-30T08:06:11.000Z</time>
      </trkpt>
      <trkpt lat="44.22921" lon="0.75649">
        <ele>155</ele>
        <time>2017-04-30T08:06:12.000Z</time>
      </trkpt>
      <trkpt lat="44.22924" lon="0.75648">
        <ele>155</ele>
        <time>2017-04-30T08:06:13.000Z</time>
      </trkpt>
      <trkpt lat="44.22926" lon="0.75648">
        <ele>156</ele>
        <time>2017-04-30T08:06:14.000Z</time>
      </trkpt>
      <trkpt lat="44.22929" lon="0.75648">
        <ele>156</ele>
        <time>2017-04-30T08:06:15.000Z</time>
      </trkpt>
      <trkpt lat="44.22931" lon="0.75648">
        <ele>156</ele>
        <time>2017-04-30T08:06:16.000Z</time>
      </trkpt>
      <trkpt lat="44.22933" lon="0.75648">
        <ele>157</ele>
        <time>2017-04-30T08:06:17.000Z</time>
      </trkpt>
      <trkpt lat="44.22935" lon="0.75648">
        <ele>157</ele>
        <time>2017-04-30T08:06:18.000Z</time>
      </trkpt>
      <trkpt lat="44.22937" lon="0.75648">
        <ele>157</ele>
        <time>2017-04-30T08:06:19.000Z</time>
      </trkpt>
      <trkpt lat="44.2294" lon="0.75648">
        <ele>157</ele>
        <time>2017-04-30T08:06:20.000Z</time>
      </trkpt>
      <trkpt lat="44.22943" lon="0.75649">
        <ele>158</ele>
        <time>2017-04-30T08:06:21.000Z</time>
      </trkpt>
      <trkpt lat="44.22945" lon="0.7565">
        <ele>159</ele>
        <time>2017-04-30T08:06:22.000Z</time>
      </trkpt>
      <trkpt lat="44.22947" lon="0.75651">
        <ele>159</ele>
        <time>2017-04-30T08:06:23.000Z</time>
      </trkpt>
      <trkpt lat="44.22948" lon="0.75652">
        <ele>161</ele>
        <time>2017-04-30T08:06:24.000Z</time>
      </trkpt>
      <trkpt lat="44.2295" lon="0.75653">
        <ele>162</ele>
        <time>2017-04-30T08:06:25.000Z</time>
      </trkpt>
      <trkpt lat="44.22952" lon="0.75654">
        <ele>162</ele>
        <time>2017-04-30T08:06:26.000Z</time>
      </trkpt>
      <trkpt lat="44.22953" lon="0.75655">
        <ele>164</ele>
        <time>2017-04-30T08:06:27.000Z</time>
      </trkpt>
      <trkpt lat="44.22956" lon="0.75657">
        <ele>164</ele>
        <time>2017-04-30T08:06:28.000Z</time>
      </trkpt>
      <trkpt lat="44.22958" lon="0.75658">
        <ele>164</ele>
        <time>2017-04-30T08:06:29.000Z</time>
      </trkpt>
      <trkpt lat="44.2296" lon="0.7566">
        <ele>164</ele>
        <time>2017-04-30T08:06:30.000Z</time>
      </trkpt>
      <trkpt lat="44.22962" lon="0.75661">
        <ele>164</ele>
        <time>2017-04-30T08:06:31.000Z</time>
      </trkpt>
      <trkpt lat="44.22963" lon="0.75663">
        <ele>164</ele>
        <time>2017-04-30T08:06:32.000Z</time>
      </trkpt>
      <trkpt lat="44.22966" lon="0.75664">
        <ele>163</ele>
        <time>2017-04-30T08:06:33.000Z</time>
      </trkpt>
      <trkpt lat="44.22968" lon="0.75665">
        <ele>162</ele>
        <time>2017-04-30T08:06:34.000Z</time>
      </trkpt>
      <trkpt lat="44.2297" lon="0.75667">
        <ele>162</ele>
        <time>2017-04-30T08:06:35.000Z</time>
      </trkpt>
      <trkpt lat="44.22972" lon="0.75668">
        <ele>163</ele>
        <time>2017-04-30T08:06:36.000Z</time>
      </trkpt>
      <trkpt lat="44.22974" lon="0.75671">
        <ele>163</ele>
        <time>2017-04-30T08:06:37.000Z</time>
      </trkpt>
      <trkpt lat="44.22976" lon="0.75673">
        <ele>163</ele>
        <time>2017-04-30T08:06:38.000Z</time>
      </trkpt>
      <trkpt lat="44.22977" lon="0.75674">
        <ele>164</ele>
        <time>2017-04-30T08:06:39.000Z</time>
      </trkpt>
      <trkpt lat="44.22979" lon="0.75675">
        <ele>165</ele>
        <time>2017-04-30T08:06:40.000Z</time>
      </trkpt>
      <trkpt lat="44.2298" lon="0.75676">
        <ele>165</ele>
        <time>2017-04-30T08:06:41.000Z</time>
      </trkpt>
      <trkpt lat="44.22981" lon="0.75678">
        <ele>165</ele>
        <time>2017-04-30T08:06:42.000Z</time>
      </trkpt>
      <trkpt lat="44.22984" lon="0.75679">
        <ele>165</ele>
        <time>2017-04-30T08:06:43.000Z</time>
      </trkpt>
      <trkpt lat="44.22985" lon="0.7568">
        <ele>165</ele>
        <time>2017-04-30T08:06:44.000Z</time>
      </trkpt>
      <trkpt lat="44.22987" lon="0.75681">
        <ele>165</ele>
        <time>2017-04-30T08:06:45.000Z</time>
      </trkpt>
      <trkpt lat="44.2299" lon="0.75682">
        <ele>164</ele>
        <time>2017-04-30T08:06:46.000Z</time>
      </trkpt>
      <trkpt lat="44.22993" lon="0.75682">
        <ele>163</ele>
        <time>2017-04-30T08:06:47.000Z</time>
      </trkpt>
      <trkpt lat="44.22996" lon="0.75683">
        <ele>164</ele>
        <time>2017-04-30T08:06:48.000Z</time>
      </trkpt>
      <trkpt lat="44.22997" lon="0.75684">
        <ele>164</ele>
        <time>2017-04-30T08:06:49.000Z</time>
      </trkpt>
      <trkpt lat="44.22999" lon="0.75686">
        <ele>163</ele>
        <time>2017-04-30T08:06:50.000Z</time>
      </trkpt>
      <trkpt lat="44.23001" lon="0.75687">
        <ele>163</ele>
        <time>2017-04-30T08:06:51.000Z</time>
      </trkpt>
      <trkpt lat="44.23002" lon="0.75689">
        <ele>163</ele>
        <time>2017-04-30T08:06:52.000Z</time>
      </trkpt>
      <trkpt lat="44.23004" lon="0.7569">
        <ele>163</ele>
        <time>2017-04-30T08:06:53.000Z</time>
      </trkpt>
      <trkpt lat="44.23005" lon="0.75691">
        <ele>163</ele>
        <time>2017-04-30T08:06:54.000Z</time>
      </trkpt>
      <trkpt lat="44.23006" lon="0.75693">
        <ele>163</ele>
        <time>2017-04-30T08:06:55.000Z</time>
      </trkpt>
      <trkpt lat="44.23008" lon="0.75694">
        <ele>163</ele>
        <time>2017-04-30T08:06:56.000Z</time>
      </trkpt>
      <trkpt lat="44.23011" lon="0.75697">
        <ele>163</ele>
        <time>2017-04-30T08:06:57.000Z</time>
      </trkpt>
      <trkpt lat="44.23012" lon="0.75698">
        <ele>162</ele>
        <time>2017-04-30T08:06:58.000Z</time>
      </trkpt>
      <trkpt lat="44.23014" lon="0.757">
        <ele>163</ele>
        <time>2017-04-30T08:06:59.000Z</time>
      </trkpt>
      <trkpt lat="44.23016" lon="0.75702">
        <ele>163</ele>
        <time>2017-04-30T08:07:00.000Z</time>
      </trkpt>
      <trkpt lat="44.23017" lon="0.75705">
        <ele>163</ele>
        <time>2017-04-30T08:07:01.000Z</time>
      </trkpt>
      <trkpt lat="44.23019" lon="0.75706">
        <ele>163</ele>
        <time>2017-04-30T08:07:02.000Z</time>
      </trkpt>
      <trkpt lat="44.23022" lon="0.75709">
        <ele>162</ele>
        <time>2017-04-30T08:07:03.000Z</time>
      </trkpt>
      <trkpt lat="44.23024" lon="0.75713">
        <ele>162</ele>
        <time>2017-04-30T08:07:04.000Z</time>
      </trkpt>
      <trkpt lat="44.23026" lon="0.75716">
        <ele>164</ele>
        <time>2017-04-30T08:07:05.000Z</time>
      </trkpt>
      <trkpt lat="44.23028" lon="0.7572">
        <ele>166</ele>
        <time>2017-04-30T08:07:06.000Z</time>
      </trkpt>
      <trkpt lat="44.23031" lon="0.75724">
        <ele>165</ele>
        <time>2017-04-30T08:07:07.000Z</time>
      </trkpt>
      <trkpt lat="44.23035" lon="0.75729">
        <ele>165</ele>
        <time>2017-04-30T08:07:08.000Z</time>
      </trkpt>
      <trkpt lat="44.23037" lon="0.75733">
        <ele>166</ele>
        <time>2017-04-30T08:07:09.000Z</time>
      </trkpt>
      <trkpt lat="44.23039" lon="0.75737">
        <ele>166</ele>
        <time>2017-04-30T08:07:10.000Z</time>
      </trkpt>
      <trkpt lat="44.23043" lon="0.75742">
        <ele>166</ele>
        <time>2017-04-30T08:07:11.000Z</time>
      </trkpt>
      <trkpt lat="44.23046" lon="0.75745">
        <ele>167</ele>
        <time>2017-04-30T08:07:12.000Z</time>
      </trkpt>
      <trkpt lat="44.2305" lon="0.75747">
        <ele>166</ele>
        <time>2017-04-30T08:07:13.000Z</time>
      </trkpt>
      <trkpt lat="44.23053" lon="0.7575">
        <ele>165</ele>
        <time>2017-04-30T08:07:14.000Z</time>
      </trkpt>
      <trkpt lat="44.23057" lon="0.75753">
        <ele>165</ele>
        <time>2017-04-30T08:07:15.000Z</time>
      </trkpt>
      <trkpt lat="44.23062" lon="0.75756">
        <ele>165</ele>
        <time>2017-04-30T08:07:16.000Z</time>
      </trkpt>
      <trkpt lat="44.23067" lon="0.75759">
        <ele>165</ele>
        <time>2017-04-30T08:07:17.000Z</time>
      </trkpt>
      <trkpt lat="44.23073" lon="0.7576">
        <ele>163</ele>
        <time>2017-04-30T08:07:18.000Z</time>
      </trkpt>
      <trkpt lat="44.23078" lon="0.75761">
        <ele>164</ele>
        <time>2017-04-30T08:07:19.000Z</time>
      </trkpt>
      <trkpt lat="44.23083" lon="0.75762">
        <ele>163</ele>
        <time>2017-04-30T08:07:20.000Z</time>
      </trkpt>
      <trkpt lat="44.23088" lon="0.75763">
        <ele>163</ele>
        <time>2017-04-30T08:07:21.000Z</time>
      </trkpt>
      <trkpt lat="44.23093" lon="0.75764">
        <ele>162</ele>
        <time>2017-04-30T08:07:22.000Z</time>
      </trkpt>
      <trkpt lat="44.23098" lon="0.75766">
        <ele>162</ele>
        <time>2017-04-30T08:07:23.000Z</time>
      </trkpt>
      <trkpt lat="44.23102" lon="0.75766">
        <ele>162</ele>
        <time>2017-04-30T08:07:24.000Z</time>
      </trkpt>
      <trkpt lat="44.23106" lon="0.75767">
        <ele>161</ele>
        <time>2017-04-30T08:07:25.000Z</time>
      </trkpt>
      <trkpt lat="44.23109" lon="0.75769">
        <ele>161</ele>
        <time>2017-04-30T08:07:26.000Z</time>
      </trkpt>
      <trkpt lat="44.23113" lon="0.7577">
        <ele>160</ele>
        <time>2017-04-30T08:07:27.000Z</time>
      </trkpt>
      <trkpt lat="44.23117" lon="0.75773">
        <ele>159</ele>
        <time>2017-04-30T08:07:28.000Z</time>
      </trkpt>
      <trkpt lat="44.23121" lon="0.75775">
        <ele>159</ele>
        <time>2017-04-30T08:07:29.000Z</time>
      </trkpt>
      <trkpt lat="44.23125" lon="0.75777">
        <ele>159</ele>
        <time>2017-04-30T08:07:30.000Z</time>
      </trkpt>
      <trkpt lat="44.23129" lon="0.7578">
        <ele>157</ele>
        <time>2017-04-30T08:07:31.000Z</time>
      </trkpt>
      <trkpt lat="44.23132" lon="0.75782">
        <ele>157</ele>
        <time>2017-04-30T08:07:32.000Z</time>
      </trkpt>
      <trkpt lat="44.23136" lon="0.75783">
        <ele>156</ele>
        <time>2017-04-30T08:07:33.000Z</time>
      </trkpt>
      <trkpt lat="44.23141" lon="0.75783">
        <ele>156</ele>
        <time>2017-04-30T08:07:34.000Z</time>
      </trkpt>
      <trkpt lat="44.23145" lon="0.75783">
        <ele>157</ele>
        <time>2017-04-30T08:07:35.000Z</time>
      </trkpt>
      <trkpt lat="44.23149" lon="0.75783">
        <ele>158</ele>
        <time>2017-04-30T08:07:36.000Z</time>
      </trkpt>
      <trkpt lat="44.23154" lon="0.75783">
        <ele>159</ele>
        <time>2017-04-30T08:07:37.000Z</time>
      </trkpt>
      <trkpt lat="44.23158" lon="0.75782">
        <ele>159</ele>
        <time>2017-04-30T08:07:38.000Z</time>
      </trkpt>
      <trkpt lat="44.23162" lon="0.75781">
        <ele>158</ele>
        <time>2017-04-30T08:07:39.000Z</time>
      </trkpt>
      <trkpt lat="44.23167" lon="0.7578">
        <ele>157</ele>
        <time>2017-04-30T08:07:40.000Z</time>
      </trkpt>
      <trkpt lat="44.2317" lon="0.75779">
        <ele>158</ele>
        <time>2017-04-30T08:07:41.000Z</time>
      </trkpt>
      <trkpt lat="44.23174" lon="0.75777">
        <ele>158</ele>
        <time>2017-04-30T08:07:42.000Z</time>
      </trkpt>
      <trkpt lat="44.23177" lon="0.75776">
        <ele>158</ele>
        <time>2017-04-30T08:07:43.000Z</time>
      </trkpt>
      <trkpt lat="44.23181" lon="0.75776">
        <ele>158</ele>
        <time>2017-04-30T08:07:44.000Z</time>
      </trkpt>
      <trkpt lat="44.23185" lon="0.75775">
        <ele>159</ele>
        <time>2017-04-30T08:07:45.000Z</time>
      </trkpt>
      <trkpt lat="44.23188" lon="0.75775">
        <ele>159</ele>
        <time>2017-04-30T08:07:46.000Z</time>
      </trkpt>
      <trkpt lat="44.23192" lon="0.75774">
        <ele>160</ele>
        <time>2017-04-30T08:07:47.000Z</time>
      </trkpt>
      <trkpt lat="44.23195" lon="0.75773">
        <ele>160</ele>
        <time>2017-04-30T08:07:48.000Z</time>
      </trkpt>
      <trkpt lat="44.23199" lon="0.75773">
        <ele>161</ele>
        <time>2017-04-30T08:07:49.000Z</time>
      </trkpt>
      <trkpt lat="44.23202" lon="0.75772">
        <ele>161</ele>
        <time>2017-04-30T08:07:50.000Z</time>
      </trkpt>
      <trkpt lat="44.23207" lon="0.75772">
        <ele>162</ele>
        <time>2017-04-30T08:07:51.000Z</time>
      </trkpt>
      <trkpt lat="44.2321" lon="0.75771">
        <ele>162</ele>
        <time>2017-04-30T08:07:52.000Z</time>
      </trkpt>
      <trkpt lat="44.23214" lon="0.7577">
        <ele>162</ele>
        <time>2017-04-30T08:07:53.000Z</time>
      </trkpt>
      <trkpt lat="44.23218" lon="0.7577">
        <ele>163</ele>
        <time>2017-04-30T08:07:54.000Z</time>
      </trkpt>
      <trkpt lat="44.23222" lon="0.75769">
        <ele>163</ele>
        <time>2017-04-30T08:07:55.000Z</time>
      </trkpt>
      <trkpt lat="44.23226" lon="0.75768">
        <ele>163</ele>
        <time>2017-04-30T08:07:56.000Z</time>
      </trkpt>
      <trkpt lat="44.2323" lon="0.75768">
        <ele>164</ele>
        <time>2017-04-30T08:07:57.000Z</time>
      </trkpt>
      <trkpt lat="44.23234" lon="0.75767">
        <ele>165</ele>
        <time>2017-04-30T08:07:58.000Z</time>
      </trkpt>
      <trkpt lat="44.23239" lon="0.75766">
        <ele>164</ele>
        <time>2017-04-30T08:07:59.000Z</time>
      </trkpt>
      <trkpt lat="44.23244" lon="0.75764">
        <ele>164</ele>
        <time>2017-04-30T08:08:00.000Z</time>
      </trkpt>
      <trkpt lat="44.23251" lon="0.75763">
        <ele>164</ele>
        <time>2017-04-30T08:08:01.000Z</time>
      </trkpt>
      <trkpt lat="44.23257" lon="0.75762">
        <ele>163</ele>
        <time>2017-04-30T08:08:02.000Z</time>
      </trkpt>
      <trkpt lat="44.23262" lon="0.75761">
        <ele>162</ele>
        <time>2017-04-30T08:08:03.000Z</time>
      </trkpt>
      <trkpt lat="44.23267" lon="0.7576">
        <ele>161</ele>
        <time>2017-04-30T08:08:04.000Z</time>
      </trkpt>
      <trkpt lat="44.23272" lon="0.75759">
        <ele>160</ele>
        <time>2017-04-30T08:08:05.000Z</time>
      </trkpt>
      <trkpt lat="44.23278" lon="0.75758">
        <ele>159</ele>
        <time>2017-04-30T08:08:06.000Z</time>
      </trkpt>
      <trkpt lat="44.23282" lon="0.75758">
        <ele>159</ele>
        <time>2017-04-30T08:08:07.000Z</time>
      </trkpt>
      <trkpt lat="44.23286" lon="0.75757">
        <ele>158</ele>
        <time>2017-04-30T08:08:08.000Z</time>
      </trkpt>
      <trkpt lat="44.23289" lon="0.75755">
        <ele>157</ele>
        <time>2017-04-30T08:08:09.000Z</time>
      </trkpt>
      <trkpt lat="44.23292" lon="0.75752">
        <ele>157</ele>
        <time>2017-04-30T08:08:10.000Z</time>
      </trkpt>
      <trkpt lat="44.23295" lon="0.75749">
        <ele>157</ele>
        <time>2017-04-30T08:08:11.000Z</time>
      </trkpt>
      <trkpt lat="44.23297" lon="0.75744">
        <ele>157</ele>
        <time>2017-04-30T08:08:12.000Z</time>
      </trkpt>
      <trkpt lat="44.23301" lon="0.7574">
        <ele>157</ele>
        <time>2017-04-30T08:08:13.000Z</time>
      </trkpt>
      <trkpt lat="44.23305" lon="0.75736">
        <ele>157</ele>
        <time>2017-04-30T08:08:14.000Z</time>
      </trkpt>
      <trkpt lat="44.23309" lon="0.75732">
        <ele>157</ele>
        <time>2017-04-30T08:08:15.000Z</time>
      </trkpt>
      <trkpt lat="44.23313" lon="0.75729">
        <ele>157</ele>
        <time>2017-04-30T08:08:16.000Z</time>
      </trkpt>
      <trkpt lat="44.23316" lon="0.75725">
        <ele>157</ele>
        <time>2017-04-30T08:08:17.000Z</time>
      </trkpt>
      <trkpt lat="44.2332" lon="0.75723">
        <ele>157</ele>
        <time>2017-04-30T08:08:18.000Z</time>
      </trkpt>
      <trkpt lat="44.23323" lon="0.75721">
        <ele>157</ele>
        <time>2017-04-30T08:08:19.000Z</time>
      </trkpt>
      <trkpt lat="44.23327" lon="0.75719">
        <ele>156</ele>
        <time>2017-04-30T08:08:20.000Z</time>
      </trkpt>
      <trkpt lat="44.23331" lon="0.75717">
        <ele>155</ele>
        <time>2017-04-30T08:08:21.000Z</time>
      </trkpt>
      <trkpt lat="44.23335" lon="0.75718">
        <ele>155</ele>
        <time>2017-04-30T08:08:22.000Z</time>
      </trkpt>
      <trkpt lat="44.23339" lon="0.75719">
        <ele>156</ele>
        <time>2017-04-30T08:08:23.000Z</time>
      </trkpt>
      <trkpt lat="44.23341" lon="0.75721">
        <ele>160</ele>
        <time>2017-04-30T08:08:24.000Z</time>
      </trkpt>
      <trkpt lat="44.23343" lon="0.75721">
        <ele>160</ele>
        <time>2017-04-30T08:08:25.000Z</time>
      </trkpt>
      <trkpt lat="44.23345" lon="0.75721">
        <ele>160</ele>
        <time>2017-04-30T08:08:26.000Z</time>
      </trkpt>
      <trkpt lat="44.23347" lon="0.75722">
        <ele>159</ele>
        <time>2017-04-30T08:08:27.000Z</time>
      </trkpt>
      <trkpt lat="44.23349" lon="0.75722">
        <ele>159</ele>
        <time>2017-04-30T08:08:28.000Z</time>
      </trkpt>
      <trkpt lat="44.23351" lon="0.75722">
        <ele>158</ele>
        <time>2017-04-30T08:08:29.000Z</time>
      </trkpt>
      <trkpt lat="44.23354" lon="0.75723">
        <ele>158</ele>
        <time>2017-04-30T08:08:30.000Z</time>
      </trkpt>
      <trkpt lat="44.23356" lon="0.75723">
        <ele>159</ele>
        <time>2017-04-30T08:08:31.000Z</time>
      </trkpt>
      <trkpt lat="44.23359" lon="0.75723">
        <ele>158</ele>
        <time>2017-04-30T08:08:32.000Z</time>
      </trkpt>
      <trkpt lat="44.23361" lon="0.75723">
        <ele>158</ele>
        <time>2017-04-30T08:08:33.000Z</time>
      </trkpt>
      <trkpt lat="44.23363" lon="0.75725">
        <ele>157</ele>
        <time>2017-04-30T08:08:34.000Z</time>
      </trkpt>
      <trkpt lat="44.23365" lon="0.75726">
        <ele>158</ele>
        <time>2017-04-30T08:08:35.000Z</time>
      </trkpt>
      <trkpt lat="44.23366" lon="0.75727">
        <ele>158</ele>
        <time>2017-04-30T08:08:36.000Z</time>
      </trkpt>
      <trkpt lat="44.23368" lon="0.75729">
        <ele>158</ele>
        <time>2017-04-30T08:08:37.000Z</time>
      </trkpt>
      <trkpt lat="44.23369" lon="0.7573">
        <ele>158</ele>
        <time>2017-04-30T08:08:38.000Z</time>
      </trkpt>
      <trkpt lat="44.2337" lon="0.75732">
        <ele>159</ele>
        <time>2017-04-30T08:08:39.000Z</time>
      </trkpt>
      <trkpt lat="44.23372" lon="0.75733">
        <ele>159</ele>
        <time>2017-04-30T08:08:40.000Z</time>
      </trkpt>
      <trkpt lat="44.23375" lon="0.75734">
        <ele>159</ele>
        <time>2017-04-30T08:08:41.000Z</time>
      </trkpt>
      <trkpt lat="44.23377" lon="0.75734">
        <ele>159</ele>
        <time>2017-04-30T08:08:42.000Z</time>
      </trkpt>
      <trkpt lat="44.23379" lon="0.75736">
        <ele>159</ele>
        <time>2017-04-30T08:08:43.000Z</time>
      </trkpt>
      <trkpt lat="44.23384" lon="0.75737">
        <ele>158</ele>
        <time>2017-04-30T08:08:44.000Z</time>
      </trkpt>
      <trkpt lat="44.23387" lon="0.75738">
        <ele>159</ele>
        <time>2017-04-30T08:08:45.000Z</time>
      </trkpt>
      <trkpt lat="44.2339" lon="0.7574">
        <ele>158</ele>
        <time>2017-04-30T08:08:46.000Z</time>
      </trkpt>
      <trkpt lat="44.23393" lon="0.75743">
        <ele>158</ele>
        <time>2017-04-30T08:08:47.000Z</time>
      </trkpt>
      <trkpt lat="44.23397" lon="0.75748">
        <ele>157</ele>
        <time>2017-04-30T08:08:48.000Z</time>
      </trkpt>
      <trkpt lat="44.23401" lon="0.75751">
        <ele>157</ele>
        <time>2017-04-30T08:08:49.000Z</time>
      </trkpt>
      <trkpt lat="44.23404" lon="0.75754">
        <ele>157</ele>
        <time>2017-04-30T08:08:50.000Z</time>
      </trkpt>
      <trkpt lat="44.23407" lon="0.75755">
        <ele>157</ele>
        <time>2017-04-30T08:08:51.000Z</time>
      </trkpt>
      <trkpt lat="44.2341" lon="0.75758">
        <ele>157</ele>
        <time>2017-04-30T08:08:52.000Z</time>
      </trkpt>
      <trkpt lat="44.23413" lon="0.75759">
        <ele>156</ele>
        <time>2017-04-30T08:08:53.000Z</time>
      </trkpt>
      <trkpt lat="44.23416" lon="0.75761">
        <ele>156</ele>
        <time>2017-04-30T08:08:54.000Z</time>
      </trkpt>
      <trkpt lat="44.23419" lon="0.75762">
        <ele>156</ele>
        <time>2017-04-30T08:08:55.000Z</time>
      </trkpt>
      <trkpt lat="44.23422" lon="0.75762">
        <ele>158</ele>
        <time>2017-04-30T08:08:56.000Z</time>
      </trkpt>
      <trkpt lat="44.23425" lon="0.75762">
        <ele>159</ele>
        <time>2017-04-30T08:08:57.000Z</time>
      </trkpt>
      <trkpt lat="44.23429" lon="0.75762">
        <ele>160</ele>
        <time>2017-04-30T08:08:58.000Z</time>
      </trkpt>
      <trkpt lat="44.23431" lon="0.75761">
        <ele>162</ele>
        <time>2017-04-30T08:08:59.000Z</time>
      </trkpt>
      <trkpt lat="44.23432" lon="0.75762">
        <ele>161</ele>
        <time>2017-04-30T08:09:00.000Z</time>
      </trkpt>
      <trkpt lat="44.23434" lon="0.75762">
        <ele>162</ele>
        <time>2017-04-30T08:09:01.000Z</time>
      </trkpt>
      <trkpt lat="44.23436" lon="0.75762">
        <ele>161</ele>
        <time>2017-04-30T08:09:02.000Z</time>
      </trkpt>
      <trkpt lat="44.23436" lon="0.75762">
        <ele>158</ele>
        <time>2017-04-30T08:09:03.000Z</time>
      </trkpt>
      <trkpt lat="44.23435" lon="0.75762">
        <ele>159</ele>
        <time>2017-04-30T08:09:04.000Z</time>
      </trkpt>
      <trkpt lat="44.23436" lon="0.75762">
        <ele>159</ele>
        <time>2017-04-30T08:09:05.000Z</time>
      </trkpt>
      <trkpt lat="44.23436" lon="0.75762">
        <ele>158</ele>
        <time>2017-04-30T08:09:06.000Z</time>
      </trkpt>
      <trkpt lat="44.23438" lon="0.75762">
        <ele>157</ele>
        <time>2017-04-30T08:09:07.000Z</time>
      </trkpt>
      <trkpt lat="44.23439" lon="0.75763">
        <ele>156</ele>
        <time>2017-04-30T08:09:08.000Z</time>
      </trkpt>
      <trkpt lat="44.2344" lon="0.75763">
        <ele>156</ele>
        <time>2017-04-30T08:09:09.000Z</time>
      </trkpt>
      <trkpt lat="44.23441" lon="0.75763">
        <ele>155</ele>
        <time>2017-04-30T08:09:10.000Z</time>
      </trkpt>
      <trkpt lat="44.23442" lon="0.75763">
        <ele>156</ele>
        <time>2017-04-30T08:09:11.000Z</time>
      </trkpt>
      <trkpt lat="44.23443" lon="0.75762">
        <ele>156</ele>
        <time>2017-04-30T08:09:12.000Z</time>
      </trkpt>
      <trkpt lat="44.23444" lon="0.75762">
        <ele>157</ele>
        <time>2017-04-30T08:09:13.000Z</time>
      </trkpt>
      <trkpt lat="44.23445" lon="0.75762">
        <ele>157</ele>
        <time>2017-04-30T08:09:14.000Z</time>
      </trkpt>
      <trkpt lat="44.23447" lon="0.75762">
        <ele>156</ele>
        <time>2017-04-30T08:09:15.000Z</time>
      </trkpt>
      <trkpt lat="44.23448" lon="0.75762">
        <ele>157</ele>
        <time>2017-04-30T08:09:16.000Z</time>
      </trkpt>
      <trkpt lat="44.23449" lon="0.75762">
        <ele>157</ele>
        <time>2017-04-30T08:09:17.000Z</time>
      </trkpt>
      <trkpt lat="44.23449" lon="0.75761">
        <ele>157</ele>
        <time>2017-04-30T08:09:18.000Z</time>
      </trkpt>
      <trkpt lat="44.23449" lon="0.75761">
        <ele>157</ele>
        <time>2017-04-30T08:09:19.000Z</time>
      </trkpt>
      <trkpt lat="44.23449" lon="0.75761">
        <ele>157</ele>
        <time>2017-04-30T08:09:20.000Z</time>
      </trkpt>
      <trkpt lat="44.23449" lon="0.75761">
        <ele>157</ele>
        <time>2017-04-30T08:09:21.000Z</time>
      </trkpt>
      <trkpt lat="44.23449" lon="0.75761">
        <ele>157</ele>
        <time>2017-04-30T08:09:22.000Z</time>
      </trkpt>
      <trkpt lat="44.23449" lon="0.75761">
        <ele>157</ele>
        <time>2017-04-30T08:09:23.000Z</time>
      </trkpt>
      <trkpt lat="44.23449" lon="0.75761">
        <ele>157</ele>
        <time>2017-04-30T08:09:24.000Z</time>
      </trkpt>
      <trkpt lat="44.23448" lon="0.75761">
        <ele>156</ele>
        <time>2017-04-30T08:09:25.000Z</time>
      </trkpt>
      <trkpt lat="44.23449" lon="0.75762">
        <ele>155</ele>
        <time>2017-04-30T08:09:26.000Z</time>
      </trkpt>
      <trkpt lat="44.2345" lon="0.75762">
        <ele>154</ele>
        <time>2017-04-30T08:09:27.000Z</time>
      </trkpt>
      <trkpt lat="44.2345" lon="0.75762">
        <ele>155</ele>
        <time>2017-04-30T08:09:28.000Z</time>
      </trkpt>
      <trkpt lat="44.23451" lon="0.75762">
        <ele>155</ele>
        <time>2017-04-30T08:09:29.000Z</time>
      </trkpt>
      <trkpt lat="44.23451" lon="0.75762">
        <ele>156</ele>
        <time>2017-04-30T08:09:30.000Z</time>
      </trkpt>
      <trkpt lat="44.23451" lon="0.75762">
        <ele>156</ele>
        <time>2017-04-30T08:09:31.000Z</time>
      </trkpt>
      <trkpt lat="44.23451" lon="0.75762">
        <ele>156</ele>
        <time>2017-04-30T08:09:32.000Z</time>
      </trkpt>
      <trkpt lat="44.23451" lon="0.75762">
        <ele>156</ele>
        <time>2017-04-30T08:09:33.000Z</time>
      </trkpt>
      <trkpt lat="44.23451" lon="0.75762">
        <ele>156</ele>
        <time>2017-04-30T08:09:34.000Z</time>
      </trkpt>
      <trkpt lat="44.23451" lon="0.75762">
        <ele>155</ele>
        <time>2017-04-30T08:09:35.000Z</time>
      </trkpt>
      <trkpt lat="44.23451" lon="0.75762">
        <ele>155</ele>
        <time>2017-04-30T08:09:36.000Z</time>
      </trkpt>
      <trkpt lat="44.23451" lon="0.75762">
        <ele>155</ele>
        <time>2017-04-30T08:09:37.000Z</time>
      </trkpt>
      <trkpt lat="44.23451" lon="0.75762">
        <ele>155</ele>
        <time>2017-04-30T08:09:38.000Z</time>
      </trkpt>
      <trkpt lat="44.23451" lon="0.75762">
        <ele>155</ele>
        <time>2017-04-30T08:09:39.000Z</time>
      </trkpt>
      <trkpt lat="44.23451" lon="0.75762">
        <ele>155</ele>
        <time>2017-04-30T08:09:40.000Z</time>
      </trkpt>
      <trkpt lat="44.23451" lon="0.75762">
        <ele>155</ele>
        <time>2017-04-30T08:09:41.000Z</time>
      </trkpt>
      <trkpt lat="44.23451" lon="0.75762">
        <ele>155</ele>
        <time>2017-04-30T08:09:42.000Z</time>
      </trkpt>
      <trkpt lat="44.23451" lon="0.75762">
        <ele>155</ele>
        <time>2017-04-30T08:09:43.000Z</time>
      </trkpt>
      <trkpt lat="44.23451" lon="0.75762">
        <ele>156</ele>
        <time>2017-04-30T08:09:44.000Z</time>
      </trkpt>
      <trkpt lat="44.23452" lon="0.75762">
        <ele>156</ele>
        <time>2017-04-30T08:09:45.000Z</time>
      </trkpt>
      <trkpt lat="44.23453" lon="0.75763">
        <ele>157</ele>
        <time>2017-04-30T08:09:46.000Z</time>
      </trkpt>
      <trkpt lat="44.23455" lon="0.75763">
        <ele>157</ele>
        <time>2017-04-30T08:09:47.000Z</time>
      </trkpt>
      <trkpt lat="44.23456" lon="0.75763">
        <ele>158</ele>
        <time>2017-04-30T08:09:48.000Z</time>
      </trkpt>
      <trkpt lat="44.23458" lon="0.75764">
        <ele>158</ele>
        <time>2017-04-30T08:09:49.000Z</time>
      </trkpt>
      <trkpt lat="44.23459" lon="0.75765">
        <ele>158</ele>
        <time>2017-04-30T08:09:50.000Z</time>
      </trkpt>
      <trkpt lat="44.2346" lon="0.75765">
        <ele>159</ele>
        <time>2017-04-30T08:09:51.000Z</time>
      </trkpt>
      <trkpt lat="44.23462" lon="0.75765">
        <ele>159</ele>
        <time>2017-04-30T08:09:52.000Z</time>
      </trkpt>
      <trkpt lat="44.23463" lon="0.75766">
        <ele>159</ele>
        <time>2017-04-30T08:09:53.000Z</time>
      </trkpt>
      <trkpt lat="44.23463" lon="0.75765">
        <ele>159</ele>
        <time>2017-04-30T08:09:54.000Z</time>
      </trkpt>
      <trkpt lat="44.23463" lon="0.75766">
        <ele>159</ele>
        <time>2017-04-30T08:09:55.000Z</time>
      </trkpt>
      <trkpt lat="44.23463" lon="0.75765">
        <ele>158</ele>
        <time>2017-04-30T08:09:56.000Z</time>
      </trkpt>
      <trkpt lat="44.23463" lon="0.75765">
        <ele>159</ele>
        <time>2017-04-30T08:09:57.000Z</time>
      </trkpt>
      <trkpt lat="44.23464" lon="0.75766">
        <ele>159</ele>
        <time>2017-04-30T08:09:58.000Z</time>
      </trkpt>
      <trkpt lat="44.23465" lon="0.75767">
        <ele>157</ele>
        <time>2017-04-30T08:09:59.000Z</time>
      </trkpt>
      <trkpt lat="44.23466" lon="0.75767">
        <ele>157</ele>
        <time>2017-04-30T08:10:00.000Z</time>
      </trkpt>
      <trkpt lat="44.23467" lon="0.75768">
        <ele>157</ele>
        <time>2017-04-30T08:10:01.000Z</time>
      </trkpt>
      <trkpt lat="44.23469" lon="0.75769">
        <ele>157</ele>
        <time>2017-04-30T08:10:02.000Z</time>
      </trkpt>
      <trkpt lat="44.2347" lon="0.7577">
        <ele>157</ele>
        <time>2017-04-30T08:10:03.000Z</time>
      </trkpt>
      <trkpt lat="44.23471" lon="0.75771">
        <ele>157</ele>
        <time>2017-04-30T08:10:04.000Z</time>
      </trkpt>
      <trkpt lat="44.23474" lon="0.75772">
        <ele>157</ele>
        <time>2017-04-30T08:10:05.000Z</time>
      </trkpt>
      <trkpt lat="44.23476" lon="0.75774">
        <ele>157</ele>
        <time>2017-04-30T08:10:06.000Z</time>
      </trkpt>
      <trkpt lat="44.23478" lon="0.75776">
        <ele>157</ele>
        <time>2017-04-30T08:10:07.000Z</time>
      </trkpt>
      <trkpt lat="44.2348" lon="0.75778">
        <ele>157</ele>
        <time>2017-04-30T08:10:08.000Z</time>
      </trkpt>
      <trkpt lat="44.23483" lon="0.7578">
        <ele>156</ele>
        <time>2017-04-30T08:10:09.000Z</time>
      </trkpt>
      <trkpt lat="44.23485" lon="0.75784">
        <ele>156</ele>
        <time>2017-04-30T08:10:10.000Z</time>
      </trkpt>
      <trkpt lat="44.23488" lon="0.75788">
        <ele>155</ele>
        <time>2017-04-30T08:10:11.000Z</time>
      </trkpt>
      <trkpt lat="44.2349" lon="0.75793">
        <ele>155</ele>
        <time>2017-04-30T08:10:12.000Z</time>
      </trkpt>
      <trkpt lat="44.2349" lon="0.75798">
        <ele>155</ele>
        <time>2017-04-30T08:10:13.000Z</time>
      </trkpt>
      <trkpt lat="44.23489" lon="0.75805">
        <ele>157</ele>
        <time>2017-04-30T08:10:14.000Z</time>
      </trkpt>
      <trkpt lat="44.23489" lon="0.7581">
        <ele>157</ele>
        <time>2017-04-30T08:10:15.000Z</time>
      </trkpt>
      <trkpt lat="44.23487" lon="0.75816">
        <ele>157</ele>
        <time>2017-04-30T08:10:16.000Z</time>
      </trkpt>
      <trkpt lat="44.23486" lon="0.75821">
        <ele>157</ele>
        <time>2017-04-30T08:10:17.000Z</time>
      </trkpt>
      <trkpt lat="44.23485" lon="0.75826">
        <ele>157</ele>
        <time>2017-04-30T08:10:18.000Z</time>
      </trkpt>
      <trkpt lat="44.23484" lon="0.7583">
        <ele>157</ele>
        <time>2017-04-30T08:10:19.000Z</time>
      </trkpt>
      <trkpt lat="44.23483" lon="0.75834">
        <ele>157</ele>
        <time>2017-04-30T08:10:20.000Z</time>
      </trkpt>
      <trkpt lat="44.23482" lon="0.75839">
        <ele>157</ele>
        <time>2017-04-30T08:10:21.000Z</time>
      </trkpt>
      <trkpt lat="44.23481" lon="0.75843">
        <ele>157</ele>
        <time>2017-04-30T08:10:22.000Z</time>
      </trkpt>
      <trkpt lat="44.2348" lon="0.75847">
        <ele>157</ele>
        <time>2017-04-30T08:10:23.000Z</time>
      </trkpt>
      <trkpt lat="44.23479" lon="0.75851">
        <ele>157</ele>
        <time>2017-04-30T08:10:24.000Z</time>
      </trkpt>
      <trkpt lat="44.23479" lon="0.75856">
        <ele>157</ele>
        <time>2017-04-30T08:10:25.000Z</time>
      </trkpt>
      <trkpt lat="44.23478" lon="0.7586">
        <ele>157</ele>
        <time>2017-04-30T08:10:26.000Z</time>
      </trkpt>
      <trkpt lat="44.23477" lon="0.75864">
        <ele>157</ele>
        <time>2017-04-30T08:10:27.000Z</time>
      </trkpt>
      <trkpt lat="44.23477" lon="0.75868">
        <ele>157</ele>
        <time>2017-04-30T08:10:28.000Z</time>
      </trkpt>
      <trkpt lat="44.23476" lon="0.75872">
        <ele>157</ele>
        <time>2017-04-30T08:10:29.000Z</time>
      </trkpt>
      <trkpt lat="44.23476" lon="0.75876">
        <ele>157</ele>
        <time>2017-04-30T08:10:30.000Z</time>
      </trkpt>
      <trkpt lat="44.23475" lon="0.7588">
        <ele>157</ele>
        <time>2017-04-30T08:10:31.000Z</time>
      </trkpt>
      <trkpt lat="44.23474" lon="0.75884">
        <ele>157</ele>
        <time>2017-04-30T08:10:32.000Z</time>
      </trkpt>
      <trkpt lat="44.23474" lon="0.75889">
        <ele>157</ele>
        <time>2017-04-30T08:10:33.000Z</time>
      </trkpt>
      <trkpt lat="44.23473" lon="0.75893">
        <ele>157</ele>
        <time>2017-04-30T08:10:34.000Z</time>
      </trkpt>
      <trkpt lat="44.23472" lon="0.75896">
        <ele>157</ele>
        <time>2017-04-30T08:10:35.000Z</time>
      </trkpt>
      <trkpt lat="44.23471" lon="0.75899">
        <ele>158</ele>
        <time>2017-04-30T08:10:36.000Z</time>
      </trkpt>
      <trkpt lat="44.23469" lon="0.75902">
        <ele>158</ele>
        <time>2017-04-30T08:10:37.000Z</time>
      </trkpt>
      <trkpt lat="44.23466" lon="0.75903">
        <ele>159</ele>
        <time>2017-04-30T08:10:38.000Z</time>
      </trkpt>
      <trkpt lat="44.23463" lon="0.75904">
        <ele>160</ele>
        <time>2017-04-30T08:10:39.000Z</time>
      </trkpt>
      <trkpt lat="44.23461" lon="0.75904">
        <ele>160</ele>
        <time>2017-04-30T08:10:40.000Z</time>
      </trkpt>
      <trkpt lat="44.23458" lon="0.75904">
        <ele>160</ele>
        <time>2017-04-30T08:10:41.000Z</time>
      </trkpt>
      <trkpt lat="44.23455" lon="0.75904">
        <ele>160</ele>
        <time>2017-04-30T08:10:42.000Z</time>
      </trkpt>
      <trkpt lat="44.23452" lon="0.75905">
        <ele>161</ele>
        <time>2017-04-30T08:10:43.000Z</time>
      </trkpt>
      <trkpt lat="44.2345" lon="0.75906">
        <ele>161</ele>
        <time>2017-04-30T08:10:44.000Z</time>
      </trkpt>
      <trkpt lat="44.23447" lon="0.75908">
        <ele>161</ele>
        <time>2017-04-30T08:10:45.000Z</time>
      </trkpt>
      <trkpt lat="44.23445" lon="0.7591">
        <ele>161</ele>
        <time>2017-04-30T08:10:46.000Z</time>
      </trkpt>
      <trkpt lat="44.23443" lon="0.75913">
        <ele>161</ele>
        <time>2017-04-30T08:10:47.000Z</time>
      </trkpt>
      <trkpt lat="44.23441" lon="0.75916">
        <ele>161</ele>
        <time>2017-04-30T08:10:48.000Z</time>
      </trkpt>
      <trkpt lat="44.2344" lon="0.75919">
        <ele>161</ele>
        <time>2017-04-30T08:10:49.000Z</time>
      </trkpt>
      <trkpt lat="44.23439" lon="0.75923">
        <ele>161</ele>
        <time>2017-04-30T08:10:50.000Z</time>
      </trkpt>
      <trkpt lat="44.23438" lon="0.75926">
        <ele>161</ele>
        <time>2017-04-30T08:10:51.000Z</time>
      </trkpt>
      <trkpt lat="44.23437" lon="0.7593">
        <ele>161</ele>
        <time>2017-04-30T08:10:52.000Z</time>
      </trkpt>
      <trkpt lat="44.23437" lon="0.75933">
        <ele>161</ele>
        <time>2017-04-30T08:10:53.000Z</time>
      </trkpt>
      <trkpt lat="44.23436" lon="0.75937">
        <ele>161</ele>
        <time>2017-04-30T08:10:54.000Z</time>
      </trkpt>
      <trkpt lat="44.23435" lon="0.7594">
        <ele>161</ele>
        <time>2017-04-30T08:10:55.000Z</time>
      </trkpt>
      <trkpt lat="44.23435" lon="0.75944">
        <ele>161</ele>
        <time>2017-04-30T08:10:56.000Z</time>
      </trkpt>
      <trkpt lat="44.23434" lon="0.75947">
        <ele>161</ele>
        <time>2017-04-30T08:10:57.000Z</time>
      </trkpt>
      <trkpt lat="44.23433" lon="0.75951">
        <ele>161</ele>
        <time>2017-04-30T08:10:58.000Z</time>
      </trkpt>
      <trkpt lat="44.23432" lon="0.75955">
        <ele>161</ele>
        <time>2017-04-30T08:10:59.000Z</time>
      </trkpt>
      <trkpt lat="44.23432" lon="0.75958">
        <ele>161</ele>
        <time>2017-04-30T08:11:00.000Z</time>
      </trkpt>
      <trkpt lat="44.23431" lon="0.75962">
        <ele>161</ele>
        <time>2017-04-30T08:11:01.000Z</time>
      </trkpt>
      <trkpt lat="44.23429" lon="0.75967">
        <ele>162</ele>
        <time>2017-04-30T08:11:02.000Z</time>
      </trkpt>
      <trkpt lat="44.23428" lon="0.7597">
        <ele>161</ele>
        <time>2017-04-30T08:11:03.000Z</time>
      </trkpt>
      <trkpt lat="44.23427" lon="0.75974">
        <ele>161</ele>
        <time>2017-04-30T08:11:04.000Z</time>
      </trkpt>
      <trkpt lat="44.23426" lon="0.75978">
        <ele>161</ele>
        <time>2017-04-30T08:11:05.000Z</time>
      </trkpt>
      <trkpt lat="44.23424" lon="0.75982">
        <ele>160</ele>
        <time>2017-04-30T08:11:06.000Z</time>
      </trkpt>
      <trkpt lat="44.23423" lon="0.75985">
        <ele>160</ele>
        <time>2017-04-30T08:11:07.000Z</time>
      </trkpt>
      <trkpt lat="44.23421" lon="0.75989">
        <ele>161</ele>
        <time>2017-04-30T08:11:08.000Z</time>
      </trkpt>
      <trkpt lat="44.2342" lon="0.75992">
        <ele>161</ele>
        <time>2017-04-30T08:11:09.000Z</time>
      </trkpt>
      <trkpt lat="44.23419" lon="0.75995">
        <ele>161</ele>
        <time>2017-04-30T08:11:10.000Z</time>
      </trkpt>
      <trkpt lat="44.23418" lon="0.75999">
        <ele>161</ele>
        <time>2017-04-30T08:11:11.000Z</time>
      </trkpt>
      <trkpt lat="44.23416" lon="0.76003">
        <ele>162</ele>
        <time>2017-04-30T08:11:12.000Z</time>
      </trkpt>
      <trkpt lat="44.23415" lon="0.76008">
        <ele>163</ele>
        <time>2017-04-30T08:11:13.000Z</time>
      </trkpt>
      <trkpt lat="44.23414" lon="0.76012">
        <ele>163</ele>
        <time>2017-04-30T08:11:14.000Z</time>
      </trkpt>
      <trkpt lat="44.23413" lon="0.76016">
        <ele>163</ele>
        <time>2017-04-30T08:11:15.000Z</time>
      </trkpt>
      <trkpt lat="44.23412" lon="0.7602">
        <ele>164</ele>
        <time>2017-04-30T08:11:16.000Z</time>
      </trkpt>
      <trkpt lat="44.23411" lon="0.76024">
        <ele>164</ele>
        <time>2017-04-30T08:11:17.000Z</time>
      </trkpt>
      <trkpt lat="44.2341" lon="0.76029">
        <ele>164</ele>
        <time>2017-04-30T08:11:18.000Z</time>
      </trkpt>
      <trkpt lat="44.23409" lon="0.76033">
        <ele>164</ele>
        <time>2017-04-30T08:11:19.000Z</time>
      </trkpt>
      <trkpt lat="44.23408" lon="0.76038">
        <ele>164</ele>
        <time>2017-04-30T08:11:20.000Z</time>
      </trkpt>
      <trkpt lat="44.23408" lon="0.76042">
        <ele>164</ele>
        <time>2017-04-30T08:11:21.000Z</time>
      </trkpt>
      <trkpt lat="44.23407" lon="0.76047">
        <ele>165</ele>
        <time>2017-04-30T08:11:22.000Z</time>
      </trkpt>
      <trkpt lat="44.23406" lon="0.76051">
        <ele>165</ele>
        <time>2017-04-30T08:11:23.000Z</time>
      </trkpt>
      <trkpt lat="44.23405" lon="0.76056">
        <ele>165</ele>
        <time>2017-04-30T08:11:24.000Z</time>
      </trkpt>
      <trkpt lat="44.23405" lon="0.7606">
        <ele>165</ele>
        <time>2017-04-30T08:11:25.000Z</time>
      </trkpt>
      <trkpt lat="44.23404" lon="0.76065">
        <ele>165</ele>
        <time>2017-04-30T08:11:26.000Z</time>
      </trkpt>
      <trkpt lat="44.23403" lon="0.76069">
        <ele>165</ele>
        <time>2017-04-30T08:11:27.000Z</time>
      </trkpt>
      <trkpt lat="44.23402" lon="0.76074">
        <ele>165</ele>
        <time>2017-04-30T08:11:28.000Z</time>
      </trkpt>
      <trkpt lat="44.23401" lon="0.76079">
        <ele>165</ele>
        <time>2017-04-30T08:11:29.000Z</time>
      </trkpt>
      <trkpt lat="44.234" lon="0.76083">
        <ele>165</ele>
        <time>2017-04-30T08:11:30.000Z</time>
      </trkpt>
      <trkpt lat="44.23399" lon="0.76088">
        <ele>165</ele>
        <time>2017-04-30T08:11:31.000Z</time>
      </trkpt>
      <trkpt lat="44.23398" lon="0.76093">
        <ele>165</ele>
        <time>2017-04-30T08:11:32.000Z</time>
      </trkpt>
      <trkpt lat="44.23398" lon="0.76098">
        <ele>165</ele>
        <time>2017-04-30T08:11:33.000Z</time>
      </trkpt>
      <trkpt lat="44.23397" lon="0.76103">
        <ele>165</ele>
        <time>2017-04-30T08:11:34.000Z</time>
      </trkpt>
      <trkpt lat="44.23397" lon="0.76108">
        <ele>165</ele>
        <time>2017-04-30T08:11:35.000Z</time>
      </trkpt>
      <trkpt lat="44.23396" lon="0.76112">
        <ele>165</ele>
        <time>2017-04-30T08:11:36.000Z</time>
      </trkpt>
      <trkpt lat="44.23395" lon="0.76117">
        <ele>165</ele>
        <time>2017-04-30T08:11:37.000Z</time>
      </trkpt>
      <trkpt lat="44.23394" lon="0.76122">
        <ele>165</ele>
        <time>2017-04-30T08:11:38.000Z</time>
      </trkpt>
      <trkpt lat="44.23393" lon="0.76127">
        <ele>165</ele>
        <time>2017-04-30T08:11:39.000Z</time>
      </trkpt>
      <trkpt lat="44.23392" lon="0.76132">
        <ele>165</ele>
        <time>2017-04-30T08:11:40.000Z</time>
      </trkpt>
      <trkpt lat="44.23391" lon="0.76138">
        <ele>165</ele>
        <time>2017-04-30T08:11:41.000Z</time>
      </trkpt>
      <trkpt lat="44.2339" lon="0.76144">
        <ele>166</ele>
        <time>2017-04-30T08:11:42.000Z</time>
      </trkpt>
      <trkpt lat="44.23388" lon="0.7615">
        <ele>166</ele>
        <time>2017-04-30T08:11:43.000Z</time>
      </trkpt>
      <trkpt lat="44.23387" lon="0.76156">
        <ele>166</ele>
        <time>2017-04-30T08:11:44.000Z</time>
      </trkpt>
      <trkpt lat="44.23385" lon="0.76161">
        <ele>166</ele>
        <time>2017-04-30T08:11:45.000Z</time>
      </trkpt>
      <trkpt lat="44.23384" lon="0.76167">
        <ele>166</ele>
        <time>2017-04-30T08:11:46.000Z</time>
      </trkpt>
      <trkpt lat="44.23382" lon="0.76173">
        <ele>166</ele>
        <time>2017-04-30T08:11:47.000Z</time>
      </trkpt>
      <trkpt lat="44.23381" lon="0.76179">
        <ele>166</ele>
        <time>2017-04-30T08:11:48.000Z</time>
      </trkpt>
      <trkpt lat="44.23379" lon="0.76185">
        <ele>166</ele>
        <time>2017-04-30T08:11:49.000Z</time>
      </trkpt>
      <trkpt lat="44.23378" lon="0.76191">
        <ele>166</ele>
        <time>2017-04-30T08:11:50.000Z</time>
      </trkpt>
      <trkpt lat="44.23377" lon="0.76197">
        <ele>166</ele>
        <time>2017-04-30T08:11:51.000Z</time>
      </trkpt>
      <trkpt lat="44.23376" lon="0.76202">
        <ele>167</ele>
        <time>2017-04-30T08:11:52.000Z</time>
      </trkpt>
      <trkpt lat="44.23375" lon="0.76208">
        <ele>167</ele>
        <time>2017-04-30T08:11:53.000Z</time>
      </trkpt>
      <trkpt lat="44.23373" lon="0.76214">
        <ele>167</ele>
        <time>2017-04-30T08:11:54.000Z</time>
      </trkpt>
      <trkpt lat="44.23372" lon="0.76219">
        <ele>167</ele>
        <time>2017-04-30T08:11:55.000Z</time>
      </trkpt>
      <trkpt lat="44.23371" lon="0.76224">
        <ele>167</ele>
        <time>2017-04-30T08:11:56.000Z</time>
      </trkpt>
      <trkpt lat="44.2337" lon="0.76229">
        <ele>168</ele>
        <time>2017-04-30T08:11:57.000Z</time>
      </trkpt>
      <trkpt lat="44.23369" lon="0.76234">
        <ele>168</ele>
        <time>2017-04-30T08:11:58.000Z</time>
      </trkpt>
      <trkpt lat="44.23368" lon="0.76239">
        <ele>168</ele>
        <time>2017-04-30T08:11:59.000Z</time>
      </trkpt>
      <trkpt lat="44.23367" lon="0.76244">
        <ele>169</ele>
        <time>2017-04-30T08:12:00.000Z</time>
      </trkpt>
      <trkpt lat="44.23366" lon="0.7625">
        <ele>169</ele>
        <time>2017-04-30T08:12:01.000Z</time>
      </trkpt>
      <trkpt lat="44.23366" lon="0.76255">
        <ele>169</ele>
        <time>2017-04-30T08:12:02.000Z</time>
      </trkpt>
      <trkpt lat="44.23365" lon="0.76259">
        <ele>169</ele>
        <time>2017-04-30T08:12:03.000Z</time>
      </trkpt>
      <trkpt lat="44.23364" lon="0.76264">
        <ele>169</ele>
        <time>2017-04-30T08:12:04.000Z</time>
      </trkpt>
      <trkpt lat="44.23363" lon="0.76269">
        <ele>169</ele>
        <time>2017-04-30T08:12:05.000Z</time>
      </trkpt>
      <trkpt lat="44.23362" lon="0.76274">
        <ele>169</ele>
        <time>2017-04-30T08:12:06.000Z</time>
      </trkpt>
      <trkpt lat="44.23361" lon="0.76278">
        <ele>170</ele>
        <time>2017-04-30T08:12:07.000Z</time>
      </trkpt>
      <trkpt lat="44.23361" lon="0.76282">
        <ele>170</ele>
        <time>2017-04-30T08:12:08.000Z</time>
      </trkpt>
      <trkpt lat="44.23361" lon="0.76287">
        <ele>170</ele>
        <time>2017-04-30T08:12:09.000Z</time>
      </trkpt>
      <trkpt lat="44.2336" lon="0.76292">
        <ele>170</ele>
        <time>2017-04-30T08:12:10.000Z</time>
      </trkpt>
      <trkpt lat="44.2336" lon="0.76296">
        <ele>170</ele>
        <time>2017-04-30T08:12:11.000Z</time>
      </trkpt>
      <trkpt lat="44.23359" lon="0.76301">
        <ele>170</ele>
        <time>2017-04-30T08:12:12.000Z</time>
      </trkpt>
      <trkpt lat="44.23358" lon="0.76305">
        <ele>170</ele>
        <time>2017-04-30T08:12:13.000Z</time>
      </trkpt>
      <trkpt lat="44.23357" lon="0.7631">
        <ele>170</ele>
        <time>2017-04-30T08:12:14.000Z</time>
      </trkpt>
      <trkpt lat="44.23356" lon="0.76315">
        <ele>170</ele>
        <time>2017-04-30T08:12:15.000Z</time>
      </trkpt>
      <trkpt lat="44.23355" lon="0.7632">
        <ele>170</ele>
        <time>2017-04-30T08:12:16.000Z</time>
      </trkpt>
      <trkpt lat="44.23355" lon="0.76325">
        <ele>170</ele>
        <time>2017-04-30T08:12:17.000Z</time>
      </trkpt>
      <trkpt lat="44.23355" lon="0.7633">
        <ele>171</ele>
        <time>2017-04-30T08:12:18.000Z</time>
      </trkpt>
      <trkpt lat="44.23356" lon="0.76336">
        <ele>171</ele>
        <time>2017-04-30T08:12:19.000Z</time>
      </trkpt>
      <trkpt lat="44.23357" lon="0.76341">
        <ele>170</ele>
        <time>2017-04-30T08:12:20.000Z</time>
      </trkpt>
      <trkpt lat="44.23358" lon="0.76347">
        <ele>170</ele>
        <time>2017-04-30T08:12:21.000Z</time>
      </trkpt>
      <trkpt lat="44.23359" lon="0.76352">
        <ele>170</ele>
        <time>2017-04-30T08:12:22.000Z</time>
      </trkpt>
      <trkpt lat="44.2336" lon="0.76358">
        <ele>170</ele>
        <time>2017-04-30T08:12:23.000Z</time>
      </trkpt>
      <trkpt lat="44.23361" lon="0.76363">
        <ele>170</ele>
        <time>2017-04-30T08:12:24.000Z</time>
      </trkpt>
      <trkpt lat="44.23362" lon="0.76369">
        <ele>170</ele>
        <time>2017-04-30T08:12:25.000Z</time>
      </trkpt>
      <trkpt lat="44.23363" lon="0.76375">
        <ele>170</ele>
        <time>2017-04-30T08:12:26.000Z</time>
      </trkpt>
      <trkpt lat="44.23363" lon="0.76381">
        <ele>170</ele>
        <time>2017-04-30T08:12:27.000Z</time>
      </trkpt>
      <trkpt lat="44.23364" lon="0.76387">
        <ele>170</ele>
        <time>2017-04-30T08:12:28.000Z</time>
      </trkpt>
      <trkpt lat="44.23365" lon="0.76393">
        <ele>170</ele>
        <time>2017-04-30T08:12:29.000Z</time>
      </trkpt>
      <trkpt lat="44.23366" lon="0.76399">
        <ele>170</ele>
        <time>2017-04-30T08:12:30.000Z</time>
      </trkpt>
      <trkpt lat="44.23366" lon="0.76404">
        <ele>170</ele>
        <time>2017-04-30T08:12:31.000Z</time>
      </trkpt>
      <trkpt lat="44.23367" lon="0.7641">
        <ele>170</ele>
        <time>2017-04-30T08:12:32.000Z</time>
      </trkpt>
      <trkpt lat="44.23368" lon="0.76416">
        <ele>170</ele>
        <time>2017-04-30T08:12:33.000Z</time>
      </trkpt>
      <trkpt lat="44.23369" lon="0.76422">
        <ele>170</ele>
        <time>2017-04-30T08:12:34.000Z</time>
      </trkpt>
      <trkpt lat="44.2337" lon="0.76428">
        <ele>170</ele>
        <time>2017-04-30T08:12:35.000Z</time>
      </trkpt>
      <trkpt lat="44.23373" lon="0.76431">
        <ele>171</ele>
        <time>2017-04-30T08:12:36.000Z</time>
      </trkpt>
      <trkpt lat="44.23375" lon="0.76432">
        <ele>172</ele>
        <time>2017-04-30T08:12:37.000Z</time>
      </trkpt>
      <trkpt lat="44.23378" lon="0.7643">
        <ele>173</ele>
        <time>2017-04-30T08:12:38.000Z</time>
      </trkpt>
      <trkpt lat="44.2338" lon="0.76427">
        <ele>174</ele>
        <time>2017-04-30T08:12:39.000Z</time>
      </trkpt>
      <trkpt lat="44.23382" lon="0.76424">
        <ele>173</ele>
        <time>2017-04-30T08:12:40.000Z</time>
      </trkpt>
      <trkpt lat="44.23385" lon="0.76421">
        <ele>174</ele>
        <time>2017-04-30T08:12:41.000Z</time>
      </trkpt>
      <trkpt lat="44.23387" lon="0.76417">
        <ele>174</ele>
        <time>2017-04-30T08:12:42.000Z</time>
      </trkpt>
      <trkpt lat="44.2339" lon="0.76414">
        <ele>173</ele>
        <time>2017-04-30T08:12:43.000Z</time>
      </trkpt>
      <trkpt lat="44.23392" lon="0.76411">
        <ele>173</ele>
        <time>2017-04-30T08:12:44.000Z</time>
      </trkpt>
      <trkpt lat="44.23395" lon="0.76408">
        <ele>173</ele>
        <time>2017-04-30T08:12:45.000Z</time>
      </trkpt>
      <trkpt lat="44.23397" lon="0.76405">
        <ele>173</ele>
        <time>2017-04-30T08:12:46.000Z</time>
      </trkpt>
      <trkpt lat="44.234" lon="0.76401">
        <ele>173</ele>
        <time>2017-04-30T08:12:47.000Z</time>
      </trkpt>
      <trkpt lat="44.23403" lon="0.76398">
        <ele>173</ele>
        <time>2017-04-30T08:12:48.000Z</time>
      </trkpt>
      <trkpt lat="44.23405" lon="0.76395">
        <ele>173</ele>
        <time>2017-04-30T08:12:49.000Z</time>
      </trkpt>
      <trkpt lat="44.23408" lon="0.76391">
        <ele>172</ele>
        <time>2017-04-30T08:12:50.000Z</time>
      </trkpt>
      <trkpt lat="44.2341" lon="0.76387">
        <ele>172</ele>
        <time>2017-04-30T08:12:51.000Z</time>
      </trkpt>
      <trkpt lat="44.23413" lon="0.76384">
        <ele>172</ele>
        <time>2017-04-30T08:12:52.000Z</time>
      </trkpt>
      <trkpt lat="44.23416" lon="0.7638">
        <ele>172</ele>
        <time>2017-04-30T08:12:53.000Z</time>
      </trkpt>
      <trkpt lat="44.23419" lon="0.76376">
        <ele>172</ele>
        <time>2017-04-30T08:12:54.000Z</time>
      </trkpt>
      <trkpt lat="44.23422" lon="0.76372">
        <ele>172</ele>
        <time>2017-04-30T08:12:55.000Z</time>
      </trkpt>
      <trkpt lat="44.23425" lon="0.76368">
        <ele>171</ele>
        <time>2017-04-30T08:12:56.000Z</time>
      </trkpt>
      <trkpt lat="44.23429" lon="0.76363">
        <ele>171</ele>
        <time>2017-04-30T08:12:57.000Z</time>
      </trkpt>
      <trkpt lat="44.23432" lon="0.76359">
        <ele>171</ele>
        <time>2017-04-30T08:12:58.000Z</time>
      </trkpt>
      <trkpt lat="44.23435" lon="0.76357">
        <ele>171</ele>
        <time>2017-04-30T08:12:59.000Z</time>
      </trkpt>
      <trkpt lat="44.23439" lon="0.76354">
        <ele>171</ele>
        <time>2017-04-30T08:13:00.000Z</time>
      </trkpt>
      <trkpt lat="44.23443" lon="0.76353">
        <ele>170</ele>
        <time>2017-04-30T08:13:01.000Z</time>
      </trkpt>
      <trkpt lat="44.23447" lon="0.76352">
        <ele>171</ele>
        <time>2017-04-30T08:13:02.000Z</time>
      </trkpt>
      <trkpt lat="44.23451" lon="0.76352">
        <ele>171</ele>
        <time>2017-04-30T08:13:03.000Z</time>
      </trkpt>
      <trkpt lat="44.23455" lon="0.76352">
        <ele>171</ele>
        <time>2017-04-30T08:13:04.000Z</time>
      </trkpt>
      <trkpt lat="44.23458" lon="0.76352">
        <ele>171</ele>
        <time>2017-04-30T08:13:05.000Z</time>
      </trkpt>
      <trkpt lat="44.23462" lon="0.76352">
        <ele>171</ele>
        <time>2017-04-30T08:13:06.000Z</time>
      </trkpt>
      <trkpt lat="44.23466" lon="0.76353">
        <ele>171</ele>
        <time>2017-04-30T08:13:07.000Z</time>
      </trkpt>
      <trkpt lat="44.2347" lon="0.76353">
        <ele>171</ele>
        <time>2017-04-30T08:13:08.000Z</time>
      </trkpt>
      <trkpt lat="44.23473" lon="0.76353">
        <ele>171</ele>
        <time>2017-04-30T08:13:09.000Z</time>
      </trkpt>
      <trkpt lat="44.23477" lon="0.76354">
        <ele>171</ele>
        <time>2017-04-30T08:13:10.000Z</time>
      </trkpt>
      <trkpt lat="44.2348" lon="0.76354">
        <ele>171</ele>
        <time>2017-04-30T08:13:11.000Z</time>
      </trkpt>
      <trkpt lat="44.23484" lon="0.76354">
        <ele>172</ele>
        <time>2017-04-30T08:13:12.000Z</time>
      </trkpt>
      <trkpt lat="44.23487" lon="0.76354">
        <ele>171</ele>
        <time>2017-04-30T08:13:13.000Z</time>
      </trkpt>
      <trkpt lat="44.23491" lon="0.76354">
        <ele>171</ele>
        <time>2017-04-30T08:13:14.000Z</time>
      </trkpt>
      <trkpt lat="44.23494" lon="0.76354">
        <ele>172</ele>
        <time>2017-04-30T08:13:15.000Z</time>
      </trkpt>
      <trkpt lat="44.23498" lon="0.76354">
        <ele>172</ele>
        <time>2017-04-30T08:13:16.000Z</time>
      </trkpt>
      <trkpt lat="44.23501" lon="0.76354">
        <ele>171</ele>
        <time>2017-04-30T08:13:17.000Z</time>
      </trkpt>
      <trkpt lat="44.23505" lon="0.76354">
        <ele>171</ele>
        <time>2017-04-30T08:13:18.000Z</time>
      </trkpt>
      <trkpt lat="44.23509" lon="0.76354">
        <ele>171</ele>
        <time>2017-04-30T08:13:19.000Z</time>
      </trkpt>
      <trkpt lat="44.23513" lon="0.76354">
        <ele>171</ele>
        <time>2017-04-30T08:13:20.000Z</time>
      </trkpt>
      <trkpt lat="44.23517" lon="0.76354">
        <ele>171</ele>
        <time>2017-04-30T08:13:21.000Z</time>
      </trkpt>
      <trkpt lat="44.23521" lon="0.76354">
        <ele>171</ele>
        <time>2017-04-30T08:13:22.000Z</time>
      </trkpt>
      <trkpt lat="44.23525" lon="0.76354">
        <ele>171</ele>
        <time>2017-04-30T08:13:23.000Z</time>
      </trkpt>
      <trkpt lat="44.23528" lon="0.76354">
        <ele>172</ele>
        <time>2017-04-30T08:13:24.000Z</time>
      </trkpt>
      <trkpt lat="44.23532" lon="0.76355">
        <ele>171</ele>
        <time>2017-04-30T08:13:25.000Z</time>
      </trkpt>
      <trkpt lat="44.23536" lon="0.76355">
        <ele>171</ele>
        <time>2017-04-30T08:13:26.000Z</time>
      </trkpt>
      <trkpt lat="44.23539" lon="0.76355">
        <ele>171</ele>
        <time>2017-04-30T08:13:27.000Z</time>
      </trkpt>
      <trkpt lat="44.23543" lon="0.76355">
        <ele>171</ele>
        <time>2017-04-30T08:13:28.000Z</time>
      </trkpt>
      <trkpt lat="44.23547" lon="0.76355">
        <ele>171</ele>
        <time>2017-04-30T08:13:29.000Z</time>
      </trkpt>
      <trkpt lat="44.23551" lon="0.76354">
        <ele>171</ele>
        <time>2017-04-30T08:13:30.000Z</time>
      </trkpt>
      <trkpt lat="44.23555" lon="0.76353">
        <ele>171</ele>
        <time>2017-04-30T08:13:31.000Z</time>
      </trkpt>
      <trkpt lat="44.23559" lon="0.76353">
        <ele>171</ele>
        <time>2017-04-30T08:13:32.000Z</time>
      </trkpt>
      <trkpt lat="44.23563" lon="0.76352">
        <ele>171</ele>
        <time>2017-04-30T08:13:33.000Z</time>
      </trkpt>
      <trkpt lat="44.23568" lon="0.76351">
        <ele>171</ele>
        <time>2017-04-30T08:13:34.000Z</time>
      </trkpt>
      <trkpt lat="44.23572" lon="0.76351">
        <ele>171</ele>
        <time>2017-04-30T08:13:35.000Z</time>
      </trkpt>
      <trkpt lat="44.23576" lon="0.7635">
        <ele>171</ele>
        <time>2017-04-30T08:13:36.000Z</time>
      </trkpt>
      <trkpt lat="44.23581" lon="0.76349">
        <ele>171</ele>
        <time>2017-04-30T08:13:37.000Z</time>
      </trkpt>
      <trkpt lat="44.23585" lon="0.76348">
        <ele>171</ele>
        <time>2017-04-30T08:13:38.000Z</time>
      </trkpt>
      <trkpt lat="44.23589" lon="0.76347">
        <ele>171</ele>
        <time>2017-04-30T08:13:39.000Z</time>
      </trkpt>
      <trkpt lat="44.23593" lon="0.76346">
        <ele>172</ele>
        <time>2017-04-30T08:13:40.000Z</time>
      </trkpt>
      <trkpt lat="44.23598" lon="0.76345">
        <ele>172</ele>
        <time>2017-04-30T08:13:41.000Z</time>
      </trkpt>
      <trkpt lat="44.23602" lon="0.76345">
        <ele>172</ele>
        <time>2017-04-30T08:13:42.000Z</time>
      </trkpt>
      <trkpt lat="44.23606" lon="0.76344">
        <ele>172</ele>
        <time>2017-04-30T08:13:43.000Z</time>
      </trkpt>
      <trkpt lat="44.2361" lon="0.76343">
        <ele>173</ele>
        <time>2017-04-30T08:13:44.000Z</time>
      </trkpt>
      <trkpt lat="44.23614" lon="0.76342">
        <ele>173</ele>
        <time>2017-04-30T08:13:45.000Z</time>
      </trkpt>
      <trkpt lat="44.23618" lon="0.76341">
        <ele>173</ele>
        <time>2017-04-30T08:13:46.000Z</time>
      </trkpt>
      <trkpt lat="44.23622" lon="0.76341">
        <ele>173</ele>
        <time>2017-04-30T08:13:47.000Z</time>
      </trkpt>
      <trkpt lat="44.23625" lon="0.7634">
        <ele>173</ele>
        <time>2017-04-30T08:13:48.000Z</time>
      </trkpt>
      <trkpt lat="44.23628" lon="0.7634">
        <ele>174</ele>
        <time>2017-04-30T08:13:49.000Z</time>
      </trkpt>
      <trkpt lat="44.23632" lon="0.76339">
        <ele>174</ele>
        <time>2017-04-30T08:13:50.000Z</time>
      </trkpt>
      <trkpt lat="44.23635" lon="0.76339">
        <ele>175</ele>
        <time>2017-04-30T08:13:51.000Z</time>
      </trkpt>
      <trkpt lat="44.23638" lon="0.76339">
        <ele>175</ele>
        <time>2017-04-30T08:13:52.000Z</time>
      </trkpt>
      <trkpt lat="44.23641" lon="0.76339">
        <ele>176</ele>
        <time>2017-04-30T08:13:53.000Z</time>
      </trkpt>
      <trkpt lat="44.23641" lon="0.76339">
        <ele>176</ele>
        <time>2017-04-30T08:13:54.000Z</time>
      </trkpt>
      <trkpt lat="44.23648" lon="0.76339">
        <ele>177</ele>
        <time>2017-04-30T08:13:55.000Z</time>
      </trkpt>
      <trkpt lat="44.23652" lon="0.7634">
        <ele>177</ele>
        <time>2017-04-30T08:13:56.000Z</time>
      </trkpt>
      <trkpt lat="44.23655" lon="0.7634">
        <ele>177</ele>
        <time>2017-04-30T08:13:57.000Z</time>
      </trkpt>
      <trkpt lat="44.23658" lon="0.7634">
        <ele>177</ele>
        <time>2017-04-30T08:13:58.000Z</time>
      </trkpt>
      <trkpt lat="44.23662" lon="0.7634">
        <ele>177</ele>
        <time>2017-04-30T08:13:59.000Z</time>
      </trkpt>
      <trkpt lat="44.23666" lon="0.7634">
        <ele>178</ele>
        <time>2017-04-30T08:14:00.000Z</time>
      </trkpt>
      <trkpt lat="44.23669" lon="0.7634">
        <ele>178</ele>
        <time>2017-04-30T08:14:01.000Z</time>
      </trkpt>
      <trkpt lat="44.23671" lon="0.7634">
        <ele>179</ele>
        <time>2017-04-30T08:14:02.000Z</time>
      </trkpt>
      <trkpt lat="44.23675" lon="0.7634">
        <ele>179</ele>
        <time>2017-04-30T08:14:03.000Z</time>
      </trkpt>
      <trkpt lat="44.23678" lon="0.7634">
        <ele>179</ele>
        <time>2017-04-30T08:14:04.000Z</time>
      </trkpt>
      <trkpt lat="44.23681" lon="0.7634">
        <ele>180</ele>
        <time>2017-04-30T08:14:05.000Z</time>
      </trkpt>
      <trkpt lat="44.23684" lon="0.7634">
        <ele>180</ele>
        <time>2017-04-30T08:14:06.000Z</time>
      </trkpt>
      <trkpt lat="44.23687" lon="0.7634">
        <ele>181</ele>
        <time>2017-04-30T08:14:07.000Z</time>
      </trkpt>
      <trkpt lat="44.23692" lon="0.7634">
        <ele>181</ele>
        <time>2017-04-30T08:14:08.000Z</time>
      </trkpt>
      <trkpt lat="44.23696" lon="0.7634">
        <ele>181</ele>
        <time>2017-04-30T08:14:09.000Z</time>
      </trkpt>
      <trkpt lat="44.23699" lon="0.76341">
        <ele>181</ele>
        <time>2017-04-30T08:14:10.000Z</time>
      </trkpt>
      <trkpt lat="44.23702" lon="0.76341">
        <ele>181</ele>
        <time>2017-04-30T08:14:11.000Z</time>
      </trkpt>
      <trkpt lat="44.23707" lon="0.76341">
        <ele>180</ele>
        <time>2017-04-30T08:14:12.000Z</time>
      </trkpt>
      <trkpt lat="44.2371" lon="0.76342">
        <ele>180</ele>
        <time>2017-04-30T08:14:13.000Z</time>
      </trkpt>
      <trkpt lat="44.23714" lon="0.76343">
        <ele>180</ele>
        <time>2017-04-30T08:14:14.000Z</time>
      </trkpt>
      <trkpt lat="44.23717" lon="0.76343">
        <ele>181</ele>
        <time>2017-04-30T08:14:15.000Z</time>
      </trkpt>
      <trkpt lat="44.23719" lon="0.76344">
        <ele>181</ele>
        <time>2017-04-30T08:14:16.000Z</time>
      </trkpt>
      <trkpt lat="44.23723" lon="0.76344">
        <ele>181</ele>
        <time>2017-04-30T08:14:17.000Z</time>
      </trkpt>
      <trkpt lat="44.23726" lon="0.76346">
        <ele>180</ele>
        <time>2017-04-30T08:14:18.000Z</time>
      </trkpt>
      <trkpt lat="44.23729" lon="0.76348">
        <ele>180</ele>
        <time>2017-04-30T08:14:19.000Z</time>
      </trkpt>
      <trkpt lat="44.23732" lon="0.7635">
        <ele>180</ele>
        <time>2017-04-30T08:14:20.000Z</time>
      </trkpt>
      <trkpt lat="44.23736" lon="0.76354">
        <ele>180</ele>
        <time>2017-04-30T08:14:21.000Z</time>
      </trkpt>
      <trkpt lat="44.2374" lon="0.76358">
        <ele>179</ele>
        <time>2017-04-30T08:14:22.000Z</time>
      </trkpt>
      <trkpt lat="44.23743" lon="0.76361">
        <ele>179</ele>
        <time>2017-04-30T08:14:23.000Z</time>
      </trkpt>
      <trkpt lat="44.23747" lon="0.76366">
        <ele>179</ele>
        <time>2017-04-30T08:14:24.000Z</time>
      </trkpt>
      <trkpt lat="44.23751" lon="0.76371">
        <ele>178</ele>
        <time>2017-04-30T08:14:25.000Z</time>
      </trkpt>
      <trkpt lat="44.23755" lon="0.76376">
        <ele>178</ele>
        <time>2017-04-30T08:14:26.000Z</time>
      </trkpt>
      <trkpt lat="44.23759" lon="0.76381">
        <ele>178</ele>
        <time>2017-04-30T08:14:27.000Z</time>
      </trkpt>
      <trkpt lat="44.23762" lon="0.76387">
        <ele>178</ele>
        <time>2017-04-30T08:14:28.000Z</time>
      </trkpt>
      <trkpt lat="44.23766" lon="0.76392">
        <ele>178</ele>
        <time>2017-04-30T08:14:29.000Z</time>
      </trkpt>
      <trkpt lat="44.2377" lon="0.76397">
        <ele>178</ele>
        <time>2017-04-30T08:14:30.000Z</time>
      </trkpt>
      <trkpt lat="44.23773" lon="0.76403">
        <ele>178</ele>
        <time>2017-04-30T08:14:31.000Z</time>
      </trkpt>
      <trkpt lat="44.23776" lon="0.76408">
        <ele>178</ele>
        <time>2017-04-30T08:14:32.000Z</time>
      </trkpt>
      <trkpt lat="44.2378" lon="0.76414">
        <ele>178</ele>
        <time>2017-04-30T08:14:33.000Z</time>
      </trkpt>
      <trkpt lat="44.23783" lon="0.76419">
        <ele>177</ele>
        <time>2017-04-30T08:14:34.000Z</time>
      </trkpt>
      <trkpt lat="44.23786" lon="0.76424">
        <ele>177</ele>
        <time>2017-04-30T08:14:35.000Z</time>
      </trkpt>
      <trkpt lat="44.23789" lon="0.76429">
        <ele>177</ele>
        <time>2017-04-30T08:14:36.000Z</time>
      </trkpt>
      <trkpt lat="44.23792" lon="0.76434">
        <ele>177</ele>
        <time>2017-04-30T08:14:37.000Z</time>
      </trkpt>
      <trkpt lat="44.23794" lon="0.76439">
        <ele>177</ele>
        <time>2017-04-30T08:14:38.000Z</time>
      </trkpt>
      <trkpt lat="44.23796" lon="0.76444">
        <ele>177</ele>
        <time>2017-04-30T08:14:39.000Z</time>
      </trkpt>
      <trkpt lat="44.23799" lon="0.7645">
        <ele>176</ele>
        <time>2017-04-30T08:14:40.000Z</time>
      </trkpt>
      <trkpt lat="44.23801" lon="0.76455">
        <ele>176</ele>
        <time>2017-04-30T08:14:41.000Z</time>
      </trkpt>
      <trkpt lat="44.23803" lon="0.7646">
        <ele>176</ele>
        <time>2017-04-30T08:14:42.000Z</time>
      </trkpt>
      <trkpt lat="44.23805" lon="0.76465">
        <ele>176</ele>
        <time>2017-04-30T08:14:43.000Z</time>
      </trkpt>
      <trkpt lat="44.23808" lon="0.7647">
        <ele>175</ele>
        <time>2017-04-30T08:14:44.000Z</time>
      </trkpt>
      <trkpt lat="44.2381" lon="0.76475">
        <ele>175</ele>
        <time>2017-04-30T08:14:45.000Z</time>
      </trkpt>
      <trkpt lat="44.23812" lon="0.7648">
        <ele>175</ele>
        <time>2017-04-30T08:14:46.000Z</time>
      </trkpt>
      <trkpt lat="44.23814" lon="0.76485">
        <ele>176</ele>
        <time>2017-04-30T08:14:47.000Z</time>
      </trkpt>
      <trkpt lat="44.23817" lon="0.76489">
        <ele>176</ele>
        <time>2017-04-30T08:14:48.000Z</time>
      </trkpt>
      <trkpt lat="44.23819" lon="0.76493">
        <ele>177</ele>
        <time>2017-04-30T08:14:49.000Z</time>
      </trkpt>
      <trkpt lat="44.23821" lon="0.76496">
        <ele>177</ele>
        <time>2017-04-30T08:14:50.000Z</time>
      </trkpt>
      <trkpt lat="44.23823" lon="0.76499">
        <ele>177</ele>
        <time>2017-04-30T08:14:51.000Z</time>
      </trkpt>
      <trkpt lat="44.23825" lon="0.76502">
        <ele>178</ele>
        <time>2017-04-30T08:14:52.000Z</time>
      </trkpt>
      <trkpt lat="44.23827" lon="0.76505">
        <ele>178</ele>
        <time>2017-04-30T08:14:53.000Z</time>
      </trkpt>
      <trkpt lat="44.23829" lon="0.76509">
        <ele>178</ele>
        <time>2017-04-30T08:14:54.000Z</time>
      </trkpt>
      <trkpt lat="44.23831" lon="0.76513">
        <ele>179</ele>
        <time>2017-04-30T08:14:55.000Z</time>
      </trkpt>
      <trkpt lat="44.23833" lon="0.76517">
        <ele>179</ele>
        <time>2017-04-30T08:14:56.000Z</time>
      </trkpt>
      <trkpt lat="44.23835" lon="0.76521">
        <ele>180</ele>
        <time>2017-04-30T08:14:57.000Z</time>
      </trkpt>
      <trkpt lat="44.23837" lon="0.76525">
        <ele>180</ele>
        <time>2017-04-30T08:14:58.000Z</time>
      </trkpt>
      <trkpt lat="44.23839" lon="0.76528">
        <ele>181</ele>
        <time>2017-04-30T08:14:59.000Z</time>
      </trkpt>
      <trkpt lat="44.23841" lon="0.76531">
        <ele>182</ele>
        <time>2017-04-30T08:15:00.000Z</time>
      </trkpt>
      <trkpt lat="44.23843" lon="0.76535">
        <ele>181</ele>
        <time>2017-04-30T08:15:01.000Z</time>
      </trkpt>
      <trkpt lat="44.23845" lon="0.76538">
        <ele>181</ele>
        <time>2017-04-30T08:15:02.000Z</time>
      </trkpt>
      <trkpt lat="44.23847" lon="0.76542">
        <ele>180</ele>
        <time>2017-04-30T08:15:03.000Z</time>
      </trkpt>
      <trkpt lat="44.23848" lon="0.76547">
        <ele>180</ele>
        <time>2017-04-30T08:15:04.000Z</time>
      </trkpt>
      <trkpt lat="44.2385" lon="0.76552">
        <ele>180</ele>
        <time>2017-04-30T08:15:05.000Z</time>
      </trkpt>
      <trkpt lat="44.23853" lon="0.76557">
        <ele>180</ele>
        <time>2017-04-30T08:15:06.000Z</time>
      </trkpt>
      <trkpt lat="44.23854" lon="0.76561">
        <ele>181</ele>
        <time>2017-04-30T08:15:07.000Z</time>
      </trkpt>
      <trkpt lat="44.23856" lon="0.76565">
        <ele>181</ele>
        <time>2017-04-30T08:15:08.000Z</time>
      </trkpt>
      <trkpt lat="44.23858" lon="0.76569">
        <ele>180</ele>
        <time>2017-04-30T08:15:09.000Z</time>
      </trkpt>
      <trkpt lat="44.23861" lon="0.76573">
        <ele>180</ele>
        <time>2017-04-30T08:15:10.000Z</time>
      </trkpt>
      <trkpt lat="44.23863" lon="0.76578">
        <ele>179</ele>
        <time>2017-04-30T08:15:11.000Z</time>
      </trkpt>
      <trkpt lat="44.23866" lon="0.76582">
        <ele>179</ele>
        <time>2017-04-30T08:15:12.000Z</time>
      </trkpt>
      <trkpt lat="44.23868" lon="0.76587">
        <ele>180</ele>
        <time>2017-04-30T08:15:13.000Z</time>
      </trkpt>
      <trkpt lat="44.23871" lon="0.76591">
        <ele>180</ele>
        <time>2017-04-30T08:15:14.000Z</time>
      </trkpt>
      <trkpt lat="44.23874" lon="0.76596">
        <ele>181</ele>
        <time>2017-04-30T08:15:15.000Z</time>
      </trkpt>
      <trkpt lat="44.23877" lon="0.76602">
        <ele>180</ele>
        <time>2017-04-30T08:15:16.000Z</time>
      </trkpt>
      <trkpt lat="44.23881" lon="0.76608">
        <ele>180</ele>
        <time>2017-04-30T08:15:17.000Z</time>
      </trkpt>
      <trkpt lat="44.23886" lon="0.76615">
        <ele>180</ele>
        <time>2017-04-30T08:15:18.000Z</time>
      </trkpt>
      <trkpt lat="44.2389" lon="0.76621">
        <ele>179</ele>
        <time>2017-04-30T08:15:19.000Z</time>
      </trkpt>
      <trkpt lat="44.23894" lon="0.76627">
        <ele>178</ele>
        <time>2017-04-30T08:15:20.000Z</time>
      </trkpt>
      <trkpt lat="44.23898" lon="0.76633">
        <ele>178</ele>
        <time>2017-04-30T08:15:21.000Z</time>
      </trkpt>
      <trkpt lat="44.23903" lon="0.76638">
        <ele>178</ele>
        <time>2017-04-30T08:15:22.000Z</time>
      </trkpt>
      <trkpt lat="44.23907" lon="0.76644">
        <ele>178</ele>
        <time>2017-04-30T08:15:23.000Z</time>
      </trkpt>
      <trkpt lat="44.23911" lon="0.76649">
        <ele>178</ele>
        <time>2017-04-30T08:15:24.000Z</time>
      </trkpt>
      <trkpt lat="44.23916" lon="0.76653">
        <ele>178</ele>
        <time>2017-04-30T08:15:25.000Z</time>
      </trkpt>
      <trkpt lat="44.2392" lon="0.76658">
        <ele>178</ele>
        <time>2017-04-30T08:15:26.000Z</time>
      </trkpt>
      <trkpt lat="44.23924" lon="0.76662">
        <ele>178</ele>
        <time>2017-04-30T08:15:27.000Z</time>
      </trkpt>
      <trkpt lat="44.23929" lon="0.76665">
        <ele>178</ele>
        <time>2017-04-30T08:15:28.000Z</time>
      </trkpt>
      <trkpt lat="44.23933" lon="0.76669">
        <ele>178</ele>
        <time>2017-04-30T08:15:29.000Z</time>
      </trkpt>
      <trkpt lat="44.23937" lon="0.76673">
        <ele>178</ele>
        <time>2017-04-30T08:15:30.000Z</time>
      </trkpt>
      <trkpt lat="44.23941" lon="0.76677">
        <ele>178</ele>
        <time>2017-04-30T08:15:31.000Z</time>
      </trkpt>
      <trkpt lat="44.23945" lon="0.76681">
        <ele>178</ele>
        <time>2017-04-30T08:15:32.000Z</time>
      </trkpt>
      <trkpt lat="44.23948" lon="0.76684">
        <ele>179</ele>
        <time>2017-04-30T08:15:33.000Z</time>
      </trkpt>
      <trkpt lat="44.23951" lon="0.76686">
        <ele>180</ele>
        <time>2017-04-30T08:15:34.000Z</time>
      </trkpt>
      <trkpt lat="44.23952" lon="0.76688">
        <ele>179</ele>
        <time>2017-04-30T08:15:35.000Z</time>
      </trkpt>
      <trkpt lat="44.23953" lon="0.76689">
        <ele>178</ele>
        <time>2017-04-30T08:15:36.000Z</time>
      </trkpt>
      <trkpt lat="44.23954" lon="0.7669">
        <ele>177</ele>
        <time>2017-04-30T08:15:37.000Z</time>
      </trkpt>
      <trkpt lat="44.23954" lon="0.7669">
        <ele>178</ele>
        <time>2017-04-30T08:15:38.000Z</time>
      </trkpt>
      <trkpt lat="44.23955" lon="0.7669">
        <ele>178</ele>
        <time>2017-04-30T08:15:39.000Z</time>
      </trkpt>
      <trkpt lat="44.23956" lon="0.76691">
        <ele>178</ele>
        <time>2017-04-30T08:15:40.000Z</time>
      </trkpt>
      <trkpt lat="44.23957" lon="0.76692">
        <ele>178</ele>
        <time>2017-04-30T08:15:41.000Z</time>
      </trkpt>
      <trkpt lat="44.23958" lon="0.76693">
        <ele>178</ele>
        <time>2017-04-30T08:15:42.000Z</time>
      </trkpt>
      <trkpt lat="44.23959" lon="0.76694">
        <ele>178</ele>
        <time>2017-04-30T08:15:43.000Z</time>
      </trkpt>
      <trkpt lat="44.2396" lon="0.76694">
        <ele>178</ele>
        <time>2017-04-30T08:15:44.000Z</time>
      </trkpt>
      <trkpt lat="44.2396" lon="0.76694">
        <ele>179</ele>
        <time>2017-04-30T08:15:45.000Z</time>
      </trkpt>
      <trkpt lat="44.23961" lon="0.76695">
        <ele>179</ele>
        <time>2017-04-30T08:15:46.000Z</time>
      </trkpt>
      <trkpt lat="44.23962" lon="0.76697">
        <ele>178</ele>
        <time>2017-04-30T08:15:47.000Z</time>
      </trkpt>
      <trkpt lat="44.23964" lon="0.76699">
        <ele>178</ele>
        <time>2017-04-30T08:15:48.000Z</time>
      </trkpt>
      <trkpt lat="44.23965" lon="0.76701">
        <ele>179</ele>
        <time>2017-04-30T08:15:49.000Z</time>
      </trkpt>
      <trkpt lat="44.23967" lon="0.76703">
        <ele>179</ele>
        <time>2017-04-30T08:15:50.000Z</time>
      </trkpt>
      <trkpt lat="44.23968" lon="0.76705">
        <ele>179</ele>
        <time>2017-04-30T08:15:51.000Z</time>
      </trkpt>
      <trkpt lat="44.23971" lon="0.76707">
        <ele>178</ele>
        <time>2017-04-30T08:15:52.000Z</time>
      </trkpt>
      <trkpt lat="44.23974" lon="0.76711">
        <ele>176</ele>
        <time>2017-04-30T08:15:53.000Z</time>
      </trkpt>
      <trkpt lat="44.23977" lon="0.76714">
        <ele>176</ele>
        <time>2017-04-30T08:15:54.000Z</time>
      </trkpt>
      <trkpt lat="44.2398" lon="0.76717">
        <ele>176</ele>
        <time>2017-04-30T08:15:55.000Z</time>
      </trkpt>
      <trkpt lat="44.23983" lon="0.76719">
        <ele>176</ele>
        <time>2017-04-30T08:15:56.000Z</time>
      </trkpt>
      <trkpt lat="44.23986" lon="0.76722">
        <ele>176</ele>
        <time>2017-04-30T08:15:57.000Z</time>
      </trkpt>
      <trkpt lat="44.23989" lon="0.76725">
        <ele>176</ele>
        <time>2017-04-30T08:15:58.000Z</time>
      </trkpt>
      <trkpt lat="44.23992" lon="0.76728">
        <ele>177</ele>
        <time>2017-04-30T08:15:59.000Z</time>
      </trkpt>
      <trkpt lat="44.23996" lon="0.76731">
        <ele>178</ele>
        <time>2017-04-30T08:16:00.000Z</time>
      </trkpt>
      <trkpt lat="44.23999" lon="0.76734">
        <ele>178</ele>
        <time>2017-04-30T08:16:01.000Z</time>
      </trkpt>
      <trkpt lat="44.24003" lon="0.76737">
        <ele>178</ele>
        <time>2017-04-30T08:16:02.000Z</time>
      </trkpt>
      <trkpt lat="44.24006" lon="0.7674">
        <ele>179</ele>
        <time>2017-04-30T08:16:03.000Z</time>
      </trkpt>
      <trkpt lat="44.24009" lon="0.76743">
        <ele>179</ele>
        <time>2017-04-30T08:16:04.000Z</time>
      </trkpt>
      <trkpt lat="44.24012" lon="0.76746">
        <ele>179</ele>
        <time>2017-04-30T08:16:05.000Z</time>
      </trkpt>
      <trkpt lat="44.24015" lon="0.76749">
        <ele>180</ele>
        <time>2017-04-30T08:16:06.000Z</time>
      </trkpt>
      <trkpt lat="44.24017" lon="0.76752">
        <ele>180</ele>
        <time>2017-04-30T08:16:07.000Z</time>
      </trkpt>
      <trkpt lat="44.2402" lon="0.76755">
        <ele>181</ele>
        <time>2017-04-30T08:16:08.000Z</time>
      </trkpt>
      <trkpt lat="44.24023" lon="0.76757">
        <ele>182</ele>
        <time>2017-04-30T08:16:09.000Z</time>
      </trkpt>
      <trkpt lat="44.24026" lon="0.7676">
        <ele>183</ele>
        <time>2017-04-30T08:16:10.000Z</time>
      </trkpt>
      <trkpt lat="44.24029" lon="0.76763">
        <ele>184</ele>
        <time>2017-04-30T08:16:11.000Z</time>
      </trkpt>
      <trkpt lat="44.24032" lon="0.76766">
        <ele>184</ele>
        <time>2017-04-30T08:16:12.000Z</time>
      </trkpt>
      <trkpt lat="44.24035" lon="0.76769">
        <ele>184</ele>
        <time>2017-04-30T08:16:13.000Z</time>
      </trkpt>
      <trkpt lat="44.24038" lon="0.76773">
        <ele>185</ele>
        <time>2017-04-30T08:16:14.000Z</time>
      </trkpt>
      <trkpt lat="44.2404" lon="0.76776">
        <ele>186</ele>
        <time>2017-04-30T08:16:15.000Z</time>
      </trkpt>
      <trkpt lat="44.24043" lon="0.76778">
        <ele>187</ele>
        <time>2017-04-30T08:16:16.000Z</time>
      </trkpt>
      <trkpt lat="44.24045" lon="0.76781">
        <ele>188</ele>
        <time>2017-04-30T08:16:17.000Z</time>
      </trkpt>
      <trkpt lat="44.24047" lon="0.76785">
        <ele>189</ele>
        <time>2017-04-30T08:16:18.000Z</time>
      </trkpt>
      <trkpt lat="44.2405" lon="0.7679">
        <ele>189</ele>
        <time>2017-04-30T08:16:19.000Z</time>
      </trkpt>
      <trkpt lat="44.24052" lon="0.76793">
        <ele>189</ele>
        <time>2017-04-30T08:16:20.000Z</time>
      </trkpt>
      <trkpt lat="44.24054" lon="0.76796">
        <ele>189</ele>
        <time>2017-04-30T08:16:21.000Z</time>
      </trkpt>
      <trkpt lat="44.24056" lon="0.76799">
        <ele>190</ele>
        <time>2017-04-30T08:16:22.000Z</time>
      </trkpt>
      <trkpt lat="44.24058" lon="0.76802">
        <ele>191</ele>
        <time>2017-04-30T08:16:23.000Z</time>
      </trkpt>
      <trkpt lat="44.2406" lon="0.76805">
        <ele>192</ele>
        <time>2017-04-30T08:16:24.000Z</time>
      </trkpt>
      <trkpt lat="44.24062" lon="0.76809">
        <ele>191</ele>
        <time>2017-04-30T08:16:25.000Z</time>
      </trkpt>
      <trkpt lat="44.24064" lon="0.76811">
        <ele>192</ele>
        <time>2017-04-30T08:16:26.000Z</time>
      </trkpt>
      <trkpt lat="44.24064" lon="0.76813">
        <ele>193</ele>
        <time>2017-04-30T08:16:27.000Z</time>
      </trkpt>
      <trkpt lat="44.24066" lon="0.76815">
        <ele>193</ele>
        <time>2017-04-30T08:16:28.000Z</time>
      </trkpt>
      <trkpt lat="44.24069" lon="0.76817">
        <ele>192</ele>
        <time>2017-04-30T08:16:29.000Z</time>
      </trkpt>
      <trkpt lat="44.24071" lon="0.76819">
        <ele>193</ele>
        <time>2017-04-30T08:16:30.000Z</time>
      </trkpt>
      <trkpt lat="44.24073" lon="0.76822">
        <ele>193</ele>
        <time>2017-04-30T08:16:31.000Z</time>
      </trkpt>
      <trkpt lat="44.24074" lon="0.76825">
        <ele>196</ele>
        <time>2017-04-30T08:16:32.000Z</time>
      </trkpt>
      <trkpt lat="44.24074" lon="0.76829">
        <ele>197</ele>
        <time>2017-04-30T08:16:33.000Z</time>
      </trkpt>
      <trkpt lat="44.24074" lon="0.76832">
        <ele>197</ele>
        <time>2017-04-30T08:16:34.000Z</time>
      </trkpt>
      <trkpt lat="44.24076" lon="0.76834">
        <ele>198</ele>
        <time>2017-04-30T08:16:35.000Z</time>
      </trkpt>
      <trkpt lat="44.24076" lon="0.76837">
        <ele>199</ele>
        <time>2017-04-30T08:16:36.000Z</time>
      </trkpt>
      <trkpt lat="44.24077" lon="0.76841">
        <ele>199</ele>
        <time>2017-04-30T08:16:37.000Z</time>
      </trkpt>
      <trkpt lat="44.24081" lon="0.76844">
        <ele>200</ele>
        <time>2017-04-30T08:16:38.000Z</time>
      </trkpt>
      <trkpt lat="44.24083" lon="0.76849">
        <ele>199</ele>
        <time>2017-04-30T08:16:39.000Z</time>
      </trkpt>
      <trkpt lat="44.24085" lon="0.76853">
        <ele>198</ele>
        <time>2017-04-30T08:16:40.000Z</time>
      </trkpt>
      <trkpt lat="44.24087" lon="0.76857">
        <ele>198</ele>
        <time>2017-04-30T08:16:41.000Z</time>
      </trkpt>
      <trkpt lat="44.24089" lon="0.7686">
        <ele>198</ele>
        <time>2017-04-30T08:16:42.000Z</time>
      </trkpt>
      <trkpt lat="44.24091" lon="0.76863">
        <ele>198</ele>
        <time>2017-04-30T08:16:43.000Z</time>
      </trkpt>
      <trkpt lat="44.24093" lon="0.76868">
        <ele>198</ele>
        <time>2017-04-30T08:16:44.000Z</time>
      </trkpt>
      <trkpt lat="44.24096" lon="0.76872">
        <ele>196</ele>
        <time>2017-04-30T08:16:45.000Z</time>
      </trkpt>
      <trkpt lat="44.24099" lon="0.76875">
        <ele>197</ele>
        <time>2017-04-30T08:16:46.000Z</time>
      </trkpt>
      <trkpt lat="44.24101" lon="0.76879">
        <ele>197</ele>
        <time>2017-04-30T08:16:47.000Z</time>
      </trkpt>
      <trkpt lat="44.24103" lon="0.76883">
        <ele>195</ele>
        <time>2017-04-30T08:16:48.000Z</time>
      </trkpt>
      <trkpt lat="44.24105" lon="0.76885">
        <ele>195</ele>
        <time>2017-04-30T08:16:49.000Z</time>
      </trkpt>
      <trkpt lat="44.24107" lon="0.76886">
        <ele>194</ele>
        <time>2017-04-30T08:16:50.000Z</time>
      </trkpt>
      <trkpt lat="44.24109" lon="0.7688">
        <ele>199</ele>
        <time>2017-04-30T08:16:51.000Z</time>
      </trkpt>
      <trkpt lat="44.24111" lon="0.76879">
        <ele>197</ele>
        <time>2017-04-30T08:16:52.000Z</time>
      </trkpt>
      <trkpt lat="44.24113" lon="0.76876">
        <ele>200</ele>
        <time>2017-04-30T08:16:53.000Z</time>
      </trkpt>
      <trkpt lat="44.24117" lon="0.76873">
        <ele>198</ele>
        <time>2017-04-30T08:16:54.000Z</time>
      </trkpt>
      <trkpt lat="44.2412" lon="0.7687">
        <ele>198</ele>
        <time>2017-04-30T08:16:55.000Z</time>
      </trkpt>
      <trkpt lat="44.24123" lon="0.76867">
        <ele>199</ele>
        <time>2017-04-30T08:16:56.000Z</time>
      </trkpt>
      <trkpt lat="44.24126" lon="0.76863">
        <ele>199</ele>
        <time>2017-04-30T08:16:57.000Z</time>
      </trkpt>
      <trkpt lat="44.2413" lon="0.76858">
        <ele>199</ele>
        <time>2017-04-30T08:16:58.000Z</time>
      </trkpt>
      <trkpt lat="44.24134" lon="0.76854">
        <ele>199</ele>
        <time>2017-04-30T08:16:59.000Z</time>
      </trkpt>
      <trkpt lat="44.24138" lon="0.76849">
        <ele>200</ele>
        <time>2017-04-30T08:17:00.000Z</time>
      </trkpt>
      <trkpt lat="44.24141" lon="0.76844">
        <ele>200</ele>
        <time>2017-04-30T08:17:01.000Z</time>
      </trkpt>
      <trkpt lat="44.24146" lon="0.76839">
        <ele>201</ele>
        <time>2017-04-30T08:17:02.000Z</time>
      </trkpt>
      <trkpt lat="44.24151" lon="0.76837">
        <ele>199</ele>
        <time>2017-04-30T08:17:03.000Z</time>
      </trkpt>
      <trkpt lat="44.24155" lon="0.76835">
        <ele>199</ele>
        <time>2017-04-30T08:17:04.000Z</time>
      </trkpt>
      <trkpt lat="44.2416" lon="0.76833">
        <ele>199</ele>
        <time>2017-04-30T08:17:05.000Z</time>
      </trkpt>
      <trkpt lat="44.24164" lon="0.76831">
        <ele>200</ele>
        <time>2017-04-30T08:17:06.000Z</time>
      </trkpt>
      <trkpt lat="44.24169" lon="0.76828">
        <ele>199</ele>
        <time>2017-04-30T08:17:07.000Z</time>
      </trkpt>
      <trkpt lat="44.24174" lon="0.76825">
        <ele>198</ele>
        <time>2017-04-30T08:17:08.000Z</time>
      </trkpt>
      <trkpt lat="44.24181" lon="0.76817">
        <ele>196</ele>
        <time>2017-04-30T08:17:09.000Z</time>
      </trkpt>
      <trkpt lat="44.24185" lon="0.76812">
        <ele>195</ele>
        <time>2017-04-30T08:17:10.000Z</time>
      </trkpt>
      <trkpt lat="44.24188" lon="0.76806">
        <ele>195</ele>
        <time>2017-04-30T08:17:11.000Z</time>
      </trkpt>
      <trkpt lat="44.24193" lon="0.76802">
        <ele>194</ele>
        <time>2017-04-30T08:17:12.000Z</time>
      </trkpt>
      <trkpt lat="44.242" lon="0.76801">
        <ele>191</ele>
        <time>2017-04-30T08:17:13.000Z</time>
      </trkpt>
      <trkpt lat="44.24205" lon="0.76799">
        <ele>191</ele>
        <time>2017-04-30T08:17:14.000Z</time>
      </trkpt>
      <trkpt lat="44.24209" lon="0.76796">
        <ele>191</ele>
        <time>2017-04-30T08:17:15.000Z</time>
      </trkpt>
      <trkpt lat="44.24214" lon="0.76793">
        <ele>191</ele>
        <time>2017-04-30T08:17:16.000Z</time>
      </trkpt>
      <trkpt lat="44.24221" lon="0.7679">
        <ele>190</ele>
        <time>2017-04-30T08:17:17.000Z</time>
      </trkpt>
      <trkpt lat="44.24228" lon="0.76787">
        <ele>187</ele>
        <time>2017-04-30T08:17:18.000Z</time>
      </trkpt>
      <trkpt lat="44.24233" lon="0.76787">
        <ele>185</ele>
        <time>2017-04-30T08:17:19.000Z</time>
      </trkpt>
      <trkpt lat="44.2424" lon="0.76792">
        <ele>180</ele>
        <time>2017-04-30T08:17:20.000Z</time>
      </trkpt>
      <trkpt lat="44.24246" lon="0.76795">
        <ele>181</ele>
        <time>2017-04-30T08:17:21.000Z</time>
      </trkpt>
      <trkpt lat="44.24249" lon="0.76798">
        <ele>180</ele>
        <time>2017-04-30T08:17:22.000Z</time>
      </trkpt>
      <trkpt lat="44.24253" lon="0.76801">
        <ele>180</ele>
        <time>2017-04-30T08:17:23.000Z</time>
      </trkpt>
      <trkpt lat="44.24258" lon="0.76804">
        <ele>180</ele>
        <time>2017-04-30T08:17:24.000Z</time>
      </trkpt>
      <trkpt lat="44.24264" lon="0.76807">
        <ele>180</ele>
        <time>2017-04-30T08:17:25.000Z</time>
      </trkpt>
      <trkpt lat="44.24269" lon="0.76811">
        <ele>179</ele>
        <time>2017-04-30T08:17:26.000Z</time>
      </trkpt>
      <trkpt lat="44.24274" lon="0.76815">
        <ele>180</ele>
        <time>2017-04-30T08:17:27.000Z</time>
      </trkpt>
      <trkpt lat="44.24279" lon="0.76822">
        <ele>179</ele>
        <time>2017-04-30T08:17:28.000Z</time>
      </trkpt>
      <trkpt lat="44.24284" lon="0.76825">
        <ele>179</ele>
        <time>2017-04-30T08:17:29.000Z</time>
      </trkpt>
      <trkpt lat="44.24288" lon="0.76826">
        <ele>178</ele>
        <time>2017-04-30T08:17:30.000Z</time>
      </trkpt>
      <trkpt lat="44.2429" lon="0.76825">
        <ele>177</ele>
        <time>2017-04-30T08:17:31.000Z</time>
      </trkpt>
      <trkpt lat="44.24295" lon="0.76825">
        <ele>178</ele>
        <time>2017-04-30T08:17:32.000Z</time>
      </trkpt>
      <trkpt lat="44.243" lon="0.76825">
        <ele>177</ele>
        <time>2017-04-30T08:17:33.000Z</time>
      </trkpt>
      <trkpt lat="44.24303" lon="0.76824">
        <ele>178</ele>
        <time>2017-04-30T08:17:34.000Z</time>
      </trkpt>
      <trkpt lat="44.24309" lon="0.76819">
        <ele>181</ele>
        <time>2017-04-30T08:17:35.000Z</time>
      </trkpt>
      <trkpt lat="44.24314" lon="0.76816">
        <ele>182</ele>
        <time>2017-04-30T08:17:36.000Z</time>
      </trkpt>
      <trkpt lat="44.24318" lon="0.76813">
        <ele>184</ele>
        <time>2017-04-30T08:17:37.000Z</time>
      </trkpt>
      <trkpt lat="44.24322" lon="0.76811">
        <ele>184</ele>
        <time>2017-04-30T08:17:38.000Z</time>
      </trkpt>
      <trkpt lat="44.24326" lon="0.76808">
        <ele>184</ele>
        <time>2017-04-30T08:17:39.000Z</time>
      </trkpt>
      <trkpt lat="44.2433" lon="0.76806">
        <ele>184</ele>
        <time>2017-04-30T08:17:40.000Z</time>
      </trkpt>
      <trkpt lat="44.24334" lon="0.76801">
        <ele>185</ele>
        <time>2017-04-30T08:17:41.000Z</time>
      </trkpt>
      <trkpt lat="44.24338" lon="0.76797">
        <ele>185</ele>
        <time>2017-04-30T08:17:42.000Z</time>
      </trkpt>
      <trkpt lat="44.24341" lon="0.76794">
        <ele>185</ele>
        <time>2017-04-30T08:17:43.000Z</time>
      </trkpt>
      <trkpt lat="44.24344" lon="0.7679">
        <ele>186</ele>
        <time>2017-04-30T08:17:44.000Z</time>
      </trkpt>
      <trkpt lat="44.24348" lon="0.76787">
        <ele>186</ele>
        <time>2017-04-30T08:17:45.000Z</time>
      </trkpt>
      <trkpt lat="44.2435" lon="0.76783">
        <ele>187</ele>
        <time>2017-04-30T08:17:46.000Z</time>
      </trkpt>
      <trkpt lat="44.24354" lon="0.7678">
        <ele>188</ele>
        <time>2017-04-30T08:17:47.000Z</time>
      </trkpt>
      <trkpt lat="44.24357" lon="0.76775">
        <ele>188</ele>
        <time>2017-04-30T08:17:48.000Z</time>
      </trkpt>
      <trkpt lat="44.2436" lon="0.76771">
        <ele>188</ele>
        <time>2017-04-30T08:17:49.000Z</time>
      </trkpt>
      <trkpt lat="44.24364" lon="0.76766">
        <ele>186</ele>
        <time>2017-04-30T08:17:50.000Z</time>
      </trkpt>
      <trkpt lat="44.24368" lon="0.76761">
        <ele>185</ele>
        <time>2017-04-30T08:17:51.000Z</time>
      </trkpt>
      <trkpt lat="44.2437" lon="0.76757">
        <ele>184</ele>
        <time>2017-04-30T08:17:52.000Z</time>
      </trkpt>
      <trkpt lat="44.24374" lon="0.76752">
        <ele>184</ele>
        <time>2017-04-30T08:17:53.000Z</time>
      </trkpt>
      <trkpt lat="44.24378" lon="0.76746">
        <ele>184</ele>
        <time>2017-04-30T08:17:54.000Z</time>
      </trkpt>
      <trkpt lat="44.24381" lon="0.76741">
        <ele>183</ele>
        <time>2017-04-30T08:17:55.000Z</time>
      </trkpt>
      <trkpt lat="44.24385" lon="0.76735">
        <ele>183</ele>
        <time>2017-04-30T08:17:56.000Z</time>
      </trkpt>
      <trkpt lat="44.24389" lon="0.76729">
        <ele>181</ele>
        <time>2017-04-30T08:17:57.000Z</time>
      </trkpt>
      <trkpt lat="44.24394" lon="0.76722">
        <ele>179</ele>
        <time>2017-04-30T08:17:58.000Z</time>
      </trkpt>
      <trkpt lat="44.24399" lon="0.76715">
        <ele>177</ele>
        <time>2017-04-30T08:17:59.000Z</time>
      </trkpt>
      <trkpt lat="44.24404" lon="0.76708">
        <ele>175</ele>
        <time>2017-04-30T08:18:00.000Z</time>
      </trkpt>
      <trkpt lat="44.24409" lon="0.76701">
        <ele>175</ele>
        <time>2017-04-30T08:18:01.000Z</time>
      </trkpt>
      <trkpt lat="44.24413" lon="0.76695">
        <ele>174</ele>
        <time>2017-04-30T08:18:02.000Z</time>
      </trkpt>
      <trkpt lat="44.24418" lon="0.76688">
        <ele>174</ele>
        <time>2017-04-30T08:18:03.000Z</time>
      </trkpt>
      <trkpt lat="44.24422" lon="0.76682">
        <ele>173</ele>
        <time>2017-04-30T08:18:04.000Z</time>
      </trkpt>
      <trkpt lat="44.24427" lon="0.76676">
        <ele>173</ele>
        <time>2017-04-30T08:18:05.000Z</time>
      </trkpt>
      <trkpt lat="44.24431" lon="0.76671">
        <ele>172</ele>
        <time>2017-04-30T08:18:06.000Z</time>
      </trkpt>
      <trkpt lat="44.24435" lon="0.76665">
        <ele>172</ele>
        <time>2017-04-30T08:18:07.000Z</time>
      </trkpt>
      <trkpt lat="44.24439" lon="0.7666">
        <ele>172</ele>
        <time>2017-04-30T08:18:08.000Z</time>
      </trkpt>
      <trkpt lat="44.24443" lon="0.76655">
        <ele>172</ele>
        <time>2017-04-30T08:18:09.000Z</time>
      </trkpt>
      <trkpt lat="44.24446" lon="0.76651">
        <ele>172</ele>
        <time>2017-04-30T08:18:10.000Z</time>
      </trkpt>
      <trkpt lat="44.24449" lon="0.76648">
        <ele>172</ele>
        <time>2017-04-30T08:18:11.000Z</time>
      </trkpt>
      <trkpt lat="44.24451" lon="0.76645">
        <ele>171</ele>
        <time>2017-04-30T08:18:12.000Z</time>
      </trkpt>
      <trkpt lat="44.24451" lon="0.7664">
        <ele>173</ele>
        <time>2017-04-30T08:18:13.000Z</time>
      </trkpt>
      <trkpt lat="44.24452" lon="0.76637">
        <ele>173</ele>
        <time>2017-04-30T08:18:14.000Z</time>
      </trkpt>
      <trkpt lat="44.24454" lon="0.76635">
        <ele>174</ele>
        <time>2017-04-30T08:18:15.000Z</time>
      </trkpt>
      <trkpt lat="44.24456" lon="0.76637">
        <ele>174</ele>
        <time>2017-04-30T08:18:16.000Z</time>
      </trkpt>
      <trkpt lat="44.24457" lon="0.76638">
        <ele>174</ele>
        <time>2017-04-30T08:18:17.000Z</time>
      </trkpt>
      <trkpt lat="44.24458" lon="0.76638">
        <ele>175</ele>
        <time>2017-04-30T08:18:18.000Z</time>
      </trkpt>
      <trkpt lat="44.24458" lon="0.76637">
        <ele>176</ele>
        <time>2017-04-30T08:18:19.000Z</time>
      </trkpt>
      <trkpt lat="44.24458" lon="0.76638">
        <ele>176</ele>
        <time>2017-04-30T08:18:20.000Z</time>
      </trkpt>
      <trkpt lat="44.24459" lon="0.76639">
        <ele>176</ele>
        <time>2017-04-30T08:18:21.000Z</time>
      </trkpt>
      <trkpt lat="44.2446" lon="0.76639">
        <ele>178</ele>
        <time>2017-04-30T08:18:22.000Z</time>
      </trkpt>
      <trkpt lat="44.24462" lon="0.76639">
        <ele>178</ele>
        <time>2017-04-30T08:18:23.000Z</time>
      </trkpt>
      <trkpt lat="44.24463" lon="0.7664">
        <ele>178</ele>
        <time>2017-04-30T08:18:24.000Z</time>
      </trkpt>
      <trkpt lat="44.24464" lon="0.7664">
        <ele>179</ele>
        <time>2017-04-30T08:18:25.000Z</time>
      </trkpt>
      <trkpt lat="44.24464" lon="0.7664">
        <ele>179</ele>
        <time>2017-04-30T08:18:26.000Z</time>
      </trkpt>
      <trkpt lat="44.24464" lon="0.7664">
        <ele>181</ele>
        <time>2017-04-30T08:18:27.000Z</time>
      </trkpt>
      <trkpt lat="44.24465" lon="0.76641">
        <ele>181</ele>
        <time>2017-04-30T08:18:28.000Z</time>
      </trkpt>
      <trkpt lat="44.24465" lon="0.76643">
        <ele>181</ele>
        <time>2017-04-30T08:18:29.000Z</time>
      </trkpt>
      <trkpt lat="44.24464" lon="0.76644">
        <ele>182</ele>
        <time>2017-04-30T08:18:30.000Z</time>
      </trkpt>
      <trkpt lat="44.24464" lon="0.76646">
        <ele>182</ele>
        <time>2017-04-30T08:18:31.000Z</time>
      </trkpt>
      <trkpt lat="44.24464" lon="0.76648">
        <ele>183</ele>
        <time>2017-04-30T08:18:32.000Z</time>
      </trkpt>
      <trkpt lat="44.24464" lon="0.7665">
        <ele>184</ele>
        <time>2017-04-30T08:18:33.000Z</time>
      </trkpt>
      <trkpt lat="44.24464" lon="0.76652">
        <ele>184</ele>
        <time>2017-04-30T08:18:34.000Z</time>
      </trkpt>
      <trkpt lat="44.24465" lon="0.76656">
        <ele>184</ele>
        <time>2017-04-30T08:18:35.000Z</time>
      </trkpt>
      <trkpt lat="44.24465" lon="0.7666">
        <ele>184</ele>
        <time>2017-04-30T08:18:36.000Z</time>
      </trkpt>
      <trkpt lat="44.24465" lon="0.76662">
        <ele>184</ele>
        <time>2017-04-30T08:18:37.000Z</time>
      </trkpt>
      <trkpt lat="44.24468" lon="0.76664">
        <ele>184</ele>
        <time>2017-04-30T08:18:38.000Z</time>
      </trkpt>
      <trkpt lat="44.24469" lon="0.76666">
        <ele>183</ele>
        <time>2017-04-30T08:18:39.000Z</time>
      </trkpt>
      <trkpt lat="44.2447" lon="0.76668">
        <ele>183</ele>
        <time>2017-04-30T08:18:40.000Z</time>
      </trkpt>
      <trkpt lat="44.2447" lon="0.76671">
        <ele>183</ele>
        <time>2017-04-30T08:18:41.000Z</time>
      </trkpt>
      <trkpt lat="44.2447" lon="0.76673">
        <ele>184</ele>
        <time>2017-04-30T08:18:42.000Z</time>
      </trkpt>
      <trkpt lat="44.2447" lon="0.76675">
        <ele>184</ele>
        <time>2017-04-30T08:18:43.000Z</time>
      </trkpt>
      <trkpt lat="44.2447" lon="0.76679">
        <ele>183</ele>
        <time>2017-04-30T08:18:44.000Z</time>
      </trkpt>
      <trkpt lat="44.24471" lon="0.76682">
        <ele>182</ele>
        <time>2017-04-30T08:18:45.000Z</time>
      </trkpt>
      <trkpt lat="44.24471" lon="0.76686">
        <ele>182</ele>
        <time>2017-04-30T08:18:46.000Z</time>
      </trkpt>
      <trkpt lat="44.24471" lon="0.76689">
        <ele>181</ele>
        <time>2017-04-30T08:18:47.000Z</time>
      </trkpt>
      <trkpt lat="44.24472" lon="0.76692">
        <ele>179</ele>
        <time>2017-04-30T08:18:48.000Z</time>
      </trkpt>
      <trkpt lat="44.24472" lon="0.76695">
        <ele>178</ele>
        <time>2017-04-30T08:18:49.000Z</time>
      </trkpt>
      <trkpt lat="44.24472" lon="0.76698">
        <ele>177</ele>
        <time>2017-04-30T08:18:50.000Z</time>
      </trkpt>
      <trkpt lat="44.2447" lon="0.767">
        <ele>177</ele>
        <time>2017-04-30T08:18:51.000Z</time>
      </trkpt>
      <trkpt lat="44.24469" lon="0.76703">
        <ele>176</ele>
        <time>2017-04-30T08:18:52.000Z</time>
      </trkpt>
      <trkpt lat="44.24468" lon="0.76705">
        <ele>175</ele>
        <time>2017-04-30T08:18:53.000Z</time>
      </trkpt>
      <trkpt lat="44.24468" lon="0.76709">
        <ele>173</ele>
        <time>2017-04-30T08:18:54.000Z</time>
      </trkpt>
      <trkpt lat="44.24468" lon="0.76711">
        <ele>173</ele>
        <time>2017-04-30T08:18:55.000Z</time>
      </trkpt>
      <trkpt lat="44.24467" lon="0.76716">
        <ele>175</ele>
        <time>2017-04-30T08:18:56.000Z</time>
      </trkpt>
      <trkpt lat="44.24465" lon="0.76721">
        <ele>177</ele>
        <time>2017-04-30T08:18:57.000Z</time>
      </trkpt>
      <trkpt lat="44.24464" lon="0.76724">
        <ele>177</ele>
        <time>2017-04-30T08:18:58.000Z</time>
      </trkpt>
      <trkpt lat="44.24464" lon="0.76727">
        <ele>178</ele>
        <time>2017-04-30T08:18:59.000Z</time>
      </trkpt>
      <trkpt lat="44.24465" lon="0.76731">
        <ele>178</ele>
        <time>2017-04-30T08:19:00.000Z</time>
      </trkpt>
      <trkpt lat="44.24466" lon="0.76734">
        <ele>178</ele>
        <time>2017-04-30T08:19:01.000Z</time>
      </trkpt>
      <trkpt lat="44.24467" lon="0.76737">
        <ele>178</ele>
        <time>2017-04-30T08:19:02.000Z</time>
      </trkpt>
      <trkpt lat="44.24468" lon="0.76742">
        <ele>178</ele>
        <time>2017-04-30T08:19:03.000Z</time>
      </trkpt>
      <trkpt lat="44.24468" lon="0.76746">
        <ele>179</ele>
        <time>2017-04-30T08:19:04.000Z</time>
      </trkpt>
      <trkpt lat="44.24469" lon="0.7675">
        <ele>178</ele>
        <time>2017-04-30T08:19:05.000Z</time>
      </trkpt>
      <trkpt lat="44.2447" lon="0.76753">
        <ele>179</ele>
        <time>2017-04-30T08:19:06.000Z</time>
      </trkpt>
      <trkpt lat="44.24471" lon="0.76756">
        <ele>180</ele>
        <time>2017-04-30T08:19:07.000Z</time>
      </trkpt>
      <trkpt lat="44.24471" lon="0.7676">
        <ele>181</ele>
        <time>2017-04-30T08:19:08.000Z</time>
      </trkpt>
      <trkpt lat="44.24472" lon="0.76763">
        <ele>181</ele>
        <time>2017-04-30T08:19:09.000Z</time>
      </trkpt>
      <trkpt lat="44.24472" lon="0.76766">
        <ele>180</ele>
        <time>2017-04-30T08:19:10.000Z</time>
      </trkpt>
      <trkpt lat="44.24472" lon="0.76769">
        <ele>180</ele>
        <time>2017-04-30T08:19:11.000Z</time>
      </trkpt>
      <trkpt lat="44.24472" lon="0.76773">
        <ele>180</ele>
        <time>2017-04-30T08:19:12.000Z</time>
      </trkpt>
      <trkpt lat="44.24471" lon="0.76777">
        <ele>181</ele>
        <time>2017-04-30T08:19:13.000Z</time>
      </trkpt>
      <trkpt lat="44.24471" lon="0.7678">
        <ele>181</ele>
        <time>2017-04-30T08:19:14.000Z</time>
      </trkpt>
      <trkpt lat="44.24471" lon="0.76784">
        <ele>179</ele>
        <time>2017-04-30T08:19:15.000Z</time>
      </trkpt>
      <trkpt lat="44.24469" lon="0.76788">
        <ele>176</ele>
        <time>2017-04-30T08:19:16.000Z</time>
      </trkpt>
      <trkpt lat="44.24468" lon="0.76793">
        <ele>176</ele>
        <time>2017-04-30T08:19:17.000Z</time>
      </trkpt>
      <trkpt lat="44.24467" lon="0.76798">
        <ele>175</ele>
        <time>2017-04-30T08:19:18.000Z</time>
      </trkpt>
      <trkpt lat="44.24466" lon="0.76804">
        <ele>176</ele>
        <time>2017-04-30T08:19:19.000Z</time>
      </trkpt>
      <trkpt lat="44.24467" lon="0.76811">
        <ele>176</ele>
        <time>2017-04-30T08:19:20.000Z</time>
      </trkpt>
      <trkpt lat="44.24467" lon="0.76817">
        <ele>178</ele>
        <time>2017-04-30T08:19:21.000Z</time>
      </trkpt>
      <trkpt lat="44.24468" lon="0.76823">
        <ele>177</ele>
        <time>2017-04-30T08:19:22.000Z</time>
      </trkpt>
      <trkpt lat="44.24467" lon="0.76828">
        <ele>178</ele>
        <time>2017-04-30T08:19:23.000Z</time>
      </trkpt>
      <trkpt lat="44.24466" lon="0.76831">
        <ele>178</ele>
        <time>2017-04-30T08:19:24.000Z</time>
      </trkpt>
      <trkpt lat="44.24466" lon="0.76834">
        <ele>179</ele>
        <time>2017-04-30T08:19:25.000Z</time>
      </trkpt>
      <trkpt lat="44.24466" lon="0.76838">
        <ele>178</ele>
        <time>2017-04-30T08:19:26.000Z</time>
      </trkpt>
      <trkpt lat="44.24467" lon="0.7684">
        <ele>178</ele>
        <time>2017-04-30T08:19:27.000Z</time>
      </trkpt>
      <trkpt lat="44.24468" lon="0.76842">
        <ele>178</ele>
        <time>2017-04-30T08:19:28.000Z</time>
      </trkpt>
      <trkpt lat="44.24466" lon="0.76842">
        <ele>181</ele>
        <time>2017-04-30T08:19:29.000Z</time>
      </trkpt>
      <trkpt lat="44.24466" lon="0.76844">
        <ele>182</ele>
        <time>2017-04-30T08:19:30.000Z</time>
      </trkpt>
      <trkpt lat="44.24466" lon="0.76845">
        <ele>181</ele>
        <time>2017-04-30T08:19:31.000Z</time>
      </trkpt>
      <trkpt lat="44.24466" lon="0.76849">
        <ele>179</ele>
        <time>2017-04-30T08:19:32.000Z</time>
      </trkpt>
      <trkpt lat="44.24465" lon="0.76851">
        <ele>180</ele>
        <time>2017-04-30T08:19:33.000Z</time>
      </trkpt>
      <trkpt lat="44.24465" lon="0.76852">
        <ele>180</ele>
        <time>2017-04-30T08:19:34.000Z</time>
      </trkpt>
      <trkpt lat="44.24465" lon="0.76854">
        <ele>181</ele>
        <time>2017-04-30T08:19:35.000Z</time>
      </trkpt>
      <trkpt lat="44.24464" lon="0.76855">
        <ele>181</ele>
        <time>2017-04-30T08:19:36.000Z</time>
      </trkpt>
      <trkpt lat="44.24464" lon="0.76857">
        <ele>180</ele>
        <time>2017-04-30T08:19:37.000Z</time>
      </trkpt>
      <trkpt lat="44.24464" lon="0.76859">
        <ele>180</ele>
        <time>2017-04-30T08:19:38.000Z</time>
      </trkpt>
      <trkpt lat="44.24464" lon="0.7686">
        <ele>180</ele>
        <time>2017-04-30T08:19:39.000Z</time>
      </trkpt>
      <trkpt lat="44.24464" lon="0.7686">
        <ele>180</ele>
        <time>2017-04-30T08:19:40.000Z</time>
      </trkpt>
      <trkpt lat="44.24463" lon="0.76861">
        <ele>180</ele>
        <time>2017-04-30T08:19:41.000Z</time>
      </trkpt>
      <trkpt lat="44.24463" lon="0.76862">
        <ele>180</ele>
        <time>2017-04-30T08:19:42.000Z</time>
      </trkpt>
      <trkpt lat="44.24462" lon="0.76863">
        <ele>180</ele>
        <time>2017-04-30T08:19:43.000Z</time>
      </trkpt>
      <trkpt lat="44.24462" lon="0.76865">
        <ele>180</ele>
        <time>2017-04-30T08:19:44.000Z</time>
      </trkpt>
      <trkpt lat="44.24463" lon="0.76867">
        <ele>180</ele>
        <time>2017-04-30T08:19:45.000Z</time>
      </trkpt>
      <trkpt lat="44.24463" lon="0.76871">
        <ele>178</ele>
        <time>2017-04-30T08:19:46.000Z</time>
      </trkpt>
      <trkpt lat="44.24463" lon="0.76873">
        <ele>179</ele>
        <time>2017-04-30T08:19:47.000Z</time>
      </trkpt>
      <trkpt lat="44.24463" lon="0.76875">
        <ele>179</ele>
        <time>2017-04-30T08:19:48.000Z</time>
      </trkpt>
      <trkpt lat="44.24463" lon="0.76877">
        <ele>178</ele>
        <time>2017-04-30T08:19:49.000Z</time>
      </trkpt>
      <trkpt lat="44.24463" lon="0.76879">
        <ele>178</ele>
        <time>2017-04-30T08:19:50.000Z</time>
      </trkpt>
      <trkpt lat="44.24462" lon="0.76882">
        <ele>178</ele>
        <time>2017-04-30T08:19:51.000Z</time>
      </trkpt>
      <trkpt lat="44.24462" lon="0.76884">
        <ele>177</ele>
        <time>2017-04-30T08:19:52.000Z</time>
      </trkpt>
      <trkpt lat="44.24461" lon="0.76885">
        <ele>177</ele>
        <time>2017-04-30T08:19:53.000Z</time>
      </trkpt>
      <trkpt lat="44.24462" lon="0.76886">
        <ele>177</ele>
        <time>2017-04-30T08:19:54.000Z</time>
      </trkpt>
      <trkpt lat="44.24461" lon="0.76887">
        <ele>177</ele>
        <time>2017-04-30T08:19:55.000Z</time>
      </trkpt>
      <trkpt lat="44.2446" lon="0.76888">
        <ele>177</ele>
        <time>2017-04-30T08:19:56.000Z</time>
      </trkpt>
      <trkpt lat="44.24459" lon="0.7689">
        <ele>177</ele>
        <time>2017-04-30T08:19:57.000Z</time>
      </trkpt>
      <trkpt lat="44.24458" lon="0.76892">
        <ele>179</ele>
        <time>2017-04-30T08:19:58.000Z</time>
      </trkpt>
      <trkpt lat="44.24457" lon="0.76894">
        <ele>179</ele>
        <time>2017-04-30T08:19:59.000Z</time>
      </trkpt>
      <trkpt lat="44.24457" lon="0.76896">
        <ele>178</ele>
        <time>2017-04-30T08:20:00.000Z</time>
      </trkpt>
      <trkpt lat="44.24456" lon="0.76897">
        <ele>178</ele>
        <time>2017-04-30T08:20:01.000Z</time>
      </trkpt>
      <trkpt lat="44.24456" lon="0.76898">
        <ele>179</ele>
        <time>2017-04-30T08:20:02.000Z</time>
      </trkpt>
      <trkpt lat="44.24456" lon="0.76899">
        <ele>178</ele>
        <time>2017-04-30T08:20:03.000Z</time>
      </trkpt>
      <trkpt lat="44.24456" lon="0.76901">
        <ele>178</ele>
        <time>2017-04-30T08:20:04.000Z</time>
      </trkpt>
      <trkpt lat="44.24455" lon="0.76903">
        <ele>177</ele>
        <time>2017-04-30T08:20:05.000Z</time>
      </trkpt>
      <trkpt lat="44.24454" lon="0.76905">
        <ele>178</ele>
        <time>2017-04-30T08:20:06.000Z</time>
      </trkpt>
      <trkpt lat="44.24453" lon="0.76909">
        <ele>176</ele>
        <time>2017-04-30T08:20:07.000Z</time>
      </trkpt>
      <trkpt lat="44.24451" lon="0.76913">
        <ele>174</ele>
        <time>2017-04-30T08:20:08.000Z</time>
      </trkpt>
      <trkpt lat="44.24451" lon="0.76916">
        <ele>174</ele>
        <time>2017-04-30T08:20:09.000Z</time>
      </trkpt>
      <trkpt lat="44.2445" lon="0.76919">
        <ele>174</ele>
        <time>2017-04-30T08:20:10.000Z</time>
      </trkpt>
      <trkpt lat="44.2445" lon="0.76923">
        <ele>175</ele>
        <time>2017-04-30T08:20:11.000Z</time>
      </trkpt>
      <trkpt lat="44.24449" lon="0.76927">
        <ele>174</ele>
        <time>2017-04-30T08:20:12.000Z</time>
      </trkpt>
      <trkpt lat="44.2445" lon="0.76929">
        <ele>174</ele>
        <time>2017-04-30T08:20:13.000Z</time>
      </trkpt>
      <trkpt lat="44.2445" lon="0.76932">
        <ele>174</ele>
        <time>2017-04-30T08:20:14.000Z</time>
      </trkpt>
      <trkpt lat="44.24453" lon="0.76936">
        <ele>175</ele>
        <time>2017-04-30T08:20:15.000Z</time>
      </trkpt>
      <trkpt lat="44.24454" lon="0.7694">
        <ele>175</ele>
        <time>2017-04-30T08:20:16.000Z</time>
      </trkpt>
      <trkpt lat="44.24455" lon="0.76944">
        <ele>175</ele>
        <time>2017-04-30T08:20:17.000Z</time>
      </trkpt>
      <trkpt lat="44.24456" lon="0.76947">
        <ele>176</ele>
        <time>2017-04-30T08:20:18.000Z</time>
      </trkpt>
      <trkpt lat="44.24456" lon="0.76952">
        <ele>175</ele>
        <time>2017-04-30T08:20:19.000Z</time>
      </trkpt>
      <trkpt lat="44.24454" lon="0.76955">
        <ele>174</ele>
        <time>2017-04-30T08:20:20.000Z</time>
      </trkpt>
      <trkpt lat="44.24454" lon="0.76961">
        <ele>172</ele>
        <time>2017-04-30T08:20:21.000Z</time>
      </trkpt>
      <trkpt lat="44.24453" lon="0.76968">
        <ele>173</ele>
        <time>2017-04-30T08:20:22.000Z</time>
      </trkpt>
      <trkpt lat="44.24453" lon="0.76974">
        <ele>173</ele>
        <time>2017-04-30T08:20:23.000Z</time>
      </trkpt>
      <trkpt lat="44.24453" lon="0.7698">
        <ele>173</ele>
        <time>2017-04-30T08:20:24.000Z</time>
      </trkpt>
      <trkpt lat="44.24452" lon="0.76986">
        <ele>173</ele>
        <time>2017-04-30T08:20:25.000Z</time>
      </trkpt>
      <trkpt lat="44.24451" lon="0.76992">
        <ele>174</ele>
        <time>2017-04-30T08:20:26.000Z</time>
      </trkpt>
      <trkpt lat="44.2445" lon="0.76997">
        <ele>174</ele>
        <time>2017-04-30T08:20:27.000Z</time>
      </trkpt>
      <trkpt lat="44.24449" lon="0.77002">
        <ele>175</ele>
        <time>2017-04-30T08:20:28.000Z</time>
      </trkpt>
      <trkpt lat="44.24448" lon="0.77007">
        <ele>175</ele>
        <time>2017-04-30T08:20:29.000Z</time>
      </trkpt>
      <trkpt lat="44.24443" lon="0.77012">
        <ele>175</ele>
        <time>2017-04-30T08:20:30.000Z</time>
      </trkpt>
      <trkpt lat="44.24441" lon="0.77016">
        <ele>174</ele>
        <time>2017-04-30T08:20:31.000Z</time>
      </trkpt>
      <trkpt lat="44.24439" lon="0.77019">
        <ele>174</ele>
        <time>2017-04-30T08:20:32.000Z</time>
      </trkpt>
      <trkpt lat="44.24437" lon="0.77023">
        <ele>174</ele>
        <time>2017-04-30T08:20:33.000Z</time>
      </trkpt>
      <trkpt lat="44.24435" lon="0.77025">
        <ele>173</ele>
        <time>2017-04-30T08:20:34.000Z</time>
      </trkpt>
      <trkpt lat="44.24433" lon="0.77027">
        <ele>174</ele>
        <time>2017-04-30T08:20:35.000Z</time>
      </trkpt>
      <trkpt lat="44.24431" lon="0.77029">
        <ele>174</ele>
        <time>2017-04-30T08:20:36.000Z</time>
      </trkpt>
      <trkpt lat="44.24429" lon="0.77031">
        <ele>174</ele>
        <time>2017-04-30T08:20:37.000Z</time>
      </trkpt>
      <trkpt lat="44.24428" lon="0.77034">
        <ele>173</ele>
        <time>2017-04-30T08:20:38.000Z</time>
      </trkpt>
      <trkpt lat="44.24425" lon="0.77036">
        <ele>173</ele>
        <time>2017-04-30T08:20:39.000Z</time>
      </trkpt>
      <trkpt lat="44.24422" lon="0.77038">
        <ele>173</ele>
        <time>2017-04-30T08:20:40.000Z</time>
      </trkpt>
      <trkpt lat="44.2442" lon="0.77039">
        <ele>174</ele>
        <time>2017-04-30T08:20:41.000Z</time>
      </trkpt>
      <trkpt lat="44.24417" lon="0.77039">
        <ele>175</ele>
        <time>2017-04-30T08:20:42.000Z</time>
      </trkpt>
      <trkpt lat="44.24416" lon="0.77039">
        <ele>176</ele>
        <time>2017-04-30T08:20:43.000Z</time>
      </trkpt>
      <trkpt lat="44.24414" lon="0.77039">
        <ele>176</ele>
        <time>2017-04-30T08:20:44.000Z</time>
      </trkpt>
      <trkpt lat="44.24412" lon="0.7704">
        <ele>177</ele>
        <time>2017-04-30T08:20:45.000Z</time>
      </trkpt>
      <trkpt lat="44.24409" lon="0.7704">
        <ele>177</ele>
        <time>2017-04-30T08:20:46.000Z</time>
      </trkpt>
      <trkpt lat="44.24408" lon="0.7704">
        <ele>178</ele>
        <time>2017-04-30T08:20:47.000Z</time>
      </trkpt>
      <trkpt lat="44.24406" lon="0.7704">
        <ele>178</ele>
        <time>2017-04-30T08:20:48.000Z</time>
      </trkpt>
      <trkpt lat="44.24405" lon="0.77039">
        <ele>178</ele>
        <time>2017-04-30T08:20:49.000Z</time>
      </trkpt>
      <trkpt lat="44.24403" lon="0.77039">
        <ele>179</ele>
        <time>2017-04-30T08:20:50.000Z</time>
      </trkpt>
      <trkpt lat="44.24402" lon="0.77038">
        <ele>179</ele>
        <time>2017-04-30T08:20:51.000Z</time>
      </trkpt>
      <trkpt lat="44.24401" lon="0.77037">
        <ele>180</ele>
        <time>2017-04-30T08:20:52.000Z</time>
      </trkpt>
      <trkpt lat="44.244" lon="0.77036">
        <ele>180</ele>
        <time>2017-04-30T08:20:53.000Z</time>
      </trkpt>
      <trkpt lat="44.24399" lon="0.77035">
        <ele>181</ele>
        <time>2017-04-30T08:20:54.000Z</time>
      </trkpt>
      <trkpt lat="44.24397" lon="0.77035">
        <ele>181</ele>
        <time>2017-04-30T08:20:55.000Z</time>
      </trkpt>
      <trkpt lat="44.24396" lon="0.77035">
        <ele>181</ele>
        <time>2017-04-30T08:20:56.000Z</time>
      </trkpt>
      <trkpt lat="44.24395" lon="0.77034">
        <ele>181</ele>
        <time>2017-04-30T08:20:57.000Z</time>
      </trkpt>
      <trkpt lat="44.24394" lon="0.77033">
        <ele>181</ele>
        <time>2017-04-30T08:20:58.000Z</time>
      </trkpt>
      <trkpt lat="44.24393" lon="0.77032">
        <ele>182</ele>
        <time>2017-04-30T08:20:59.000Z</time>
      </trkpt>
      <trkpt lat="44.24391" lon="0.77032">
        <ele>182</ele>
        <time>2017-04-30T08:21:00.000Z</time>
      </trkpt>
      <trkpt lat="44.2439" lon="0.77031">
        <ele>182</ele>
        <time>2017-04-30T08:21:01.000Z</time>
      </trkpt>
      <trkpt lat="44.24389" lon="0.7703">
        <ele>182</ele>
        <time>2017-04-30T08:21:02.000Z</time>
      </trkpt>
      <trkpt lat="44.24387" lon="0.77029">
        <ele>182</ele>
        <time>2017-04-30T08:21:03.000Z</time>
      </trkpt>
      <trkpt lat="44.24385" lon="0.77028">
        <ele>182</ele>
        <time>2017-04-30T08:21:04.000Z</time>
      </trkpt>
      <trkpt lat="44.24385" lon="0.77027">
        <ele>183</ele>
        <time>2017-04-30T08:21:05.000Z</time>
      </trkpt>
      <trkpt lat="44.24384" lon="0.77026">
        <ele>183</ele>
        <time>2017-04-30T08:21:06.000Z</time>
      </trkpt>
      <trkpt lat="44.24383" lon="0.77025">
        <ele>184</ele>
        <time>2017-04-30T08:21:07.000Z</time>
      </trkpt>
      <trkpt lat="44.24382" lon="0.77025">
        <ele>183</ele>
        <time>2017-04-30T08:21:08.000Z</time>
      </trkpt>
      <trkpt lat="44.2438" lon="0.77023">
        <ele>183</ele>
        <time>2017-04-30T08:21:09.000Z</time>
      </trkpt>
      <trkpt lat="44.24379" lon="0.77022">
        <ele>182</ele>
        <time>2017-04-30T08:21:10.000Z</time>
      </trkpt>
      <trkpt lat="44.24377" lon="0.77021">
        <ele>182</ele>
        <time>2017-04-30T08:21:11.000Z</time>
      </trkpt>
      <trkpt lat="44.24376" lon="0.7702">
        <ele>183</ele>
        <time>2017-04-30T08:21:12.000Z</time>
      </trkpt>
      <trkpt lat="44.24374" lon="0.77019">
        <ele>184</ele>
        <time>2017-04-30T08:21:13.000Z</time>
      </trkpt>
      <trkpt lat="44.24373" lon="0.77018">
        <ele>185</ele>
        <time>2017-04-30T08:21:14.000Z</time>
      </trkpt>
      <trkpt lat="44.24371" lon="0.77018">
        <ele>185</ele>
        <time>2017-04-30T08:21:15.000Z</time>
      </trkpt>
      <trkpt lat="44.24369" lon="0.77017">
        <ele>184</ele>
        <time>2017-04-30T08:21:16.000Z</time>
      </trkpt>
      <trkpt lat="44.24367" lon="0.77017">
        <ele>185</ele>
        <time>2017-04-30T08:21:17.000Z</time>
      </trkpt>
      <trkpt lat="44.24365" lon="0.77017">
        <ele>185</ele>
        <time>2017-04-30T08:21:18.000Z</time>
      </trkpt>
      <trkpt lat="44.24362" lon="0.77017">
        <ele>185</ele>
        <time>2017-04-30T08:21:19.000Z</time>
      </trkpt>
      <trkpt lat="44.2436" lon="0.77018">
        <ele>185</ele>
        <time>2017-04-30T08:21:20.000Z</time>
      </trkpt>
      <trkpt lat="44.24358" lon="0.7702">
        <ele>185</ele>
        <time>2017-04-30T08:21:21.000Z</time>
      </trkpt>
      <trkpt lat="44.24356" lon="0.77023">
        <ele>185</ele>
        <time>2017-04-30T08:21:22.000Z</time>
      </trkpt>
      <trkpt lat="44.24353" lon="0.77026">
        <ele>184</ele>
        <time>2017-04-30T08:21:23.000Z</time>
      </trkpt>
      <trkpt lat="44.2435" lon="0.77028">
        <ele>184</ele>
        <time>2017-04-30T08:21:24.000Z</time>
      </trkpt>
      <trkpt lat="44.24347" lon="0.77031">
        <ele>185</ele>
        <time>2017-04-30T08:21:25.000Z</time>
      </trkpt>
      <trkpt lat="44.24344" lon="0.77032">
        <ele>184</ele>
        <time>2017-04-30T08:21:26.000Z</time>
      </trkpt>
      <trkpt lat="44.2434" lon="0.77034">
        <ele>186</ele>
        <time>2017-04-30T08:21:27.000Z</time>
      </trkpt>
      <trkpt lat="44.24337" lon="0.77036">
        <ele>186</ele>
        <time>2017-04-30T08:21:28.000Z</time>
      </trkpt>
      <trkpt lat="44.24335" lon="0.77039">
        <ele>186</ele>
        <time>2017-04-30T08:21:29.000Z</time>
      </trkpt>
      <trkpt lat="44.24332" lon="0.77041">
        <ele>186</ele>
        <time>2017-04-30T08:21:30.000Z</time>
      </trkpt>
      <trkpt lat="44.2433" lon="0.77045">
        <ele>188</ele>
        <time>2017-04-30T08:21:31.000Z</time>
      </trkpt>
      <trkpt lat="44.24327" lon="0.77048">
        <ele>188</ele>
        <time>2017-04-30T08:21:32.000Z</time>
      </trkpt>
      <trkpt lat="44.24325" lon="0.77051">
        <ele>188</ele>
        <time>2017-04-30T08:21:33.000Z</time>
      </trkpt>
      <trkpt lat="44.24322" lon="0.77055">
        <ele>189</ele>
        <time>2017-04-30T08:21:34.000Z</time>
      </trkpt>
      <trkpt lat="44.24319" lon="0.77057">
        <ele>189</ele>
        <time>2017-04-30T08:21:35.000Z</time>
      </trkpt>
      <trkpt lat="44.24314" lon="0.77055">
        <ele>193</ele>
        <time>2017-04-30T08:21:36.000Z</time>
      </trkpt>
      <trkpt lat="44.24309" lon="0.77056">
        <ele>194</ele>
        <time>2017-04-30T08:21:37.000Z</time>
      </trkpt>
      <trkpt lat="44.24304" lon="0.77057">
        <ele>195</ele>
        <time>2017-04-30T08:21:38.000Z</time>
      </trkpt>
      <trkpt lat="44.243" lon="0.7706">
        <ele>197</ele>
        <time>2017-04-30T08:21:39.000Z</time>
      </trkpt>
      <trkpt lat="44.24297" lon="0.77063">
        <ele>197</ele>
        <time>2017-04-30T08:21:40.000Z</time>
      </trkpt>
      <trkpt lat="44.24294" lon="0.77067">
        <ele>197</ele>
        <time>2017-04-30T08:21:41.000Z</time>
      </trkpt>
      <trkpt lat="44.24291" lon="0.77069">
        <ele>197</ele>
        <time>2017-04-30T08:21:42.000Z</time>
      </trkpt>
      <trkpt lat="44.24288" lon="0.77073">
        <ele>197</ele>
        <time>2017-04-30T08:21:43.000Z</time>
      </trkpt>
      <trkpt lat="44.24285" lon="0.77075">
        <ele>196</ele>
        <time>2017-04-30T08:21:44.000Z</time>
      </trkpt>
      <trkpt lat="44.24281" lon="0.77078">
        <ele>195</ele>
        <time>2017-04-30T08:21:45.000Z</time>
      </trkpt>
      <trkpt lat="44.24277" lon="0.77081">
        <ele>195</ele>
        <time>2017-04-30T08:21:46.000Z</time>
      </trkpt>
      <trkpt lat="44.24274" lon="0.77084">
        <ele>194</ele>
        <time>2017-04-30T08:21:47.000Z</time>
      </trkpt>
      <trkpt lat="44.24272" lon="0.77088">
        <ele>193</ele>
        <time>2017-04-30T08:21:48.000Z</time>
      </trkpt>
      <trkpt lat="44.24268" lon="0.77091">
        <ele>192</ele>
        <time>2017-04-30T08:21:49.000Z</time>
      </trkpt>
      <trkpt lat="44.24266" lon="0.77093">
        <ele>192</ele>
        <time>2017-04-30T08:21:50.000Z</time>
      </trkpt>
      <trkpt lat="44.24262" lon="0.77096">
        <ele>194</ele>
        <time>2017-04-30T08:21:51.000Z</time>
      </trkpt>
      <trkpt lat="44.24258" lon="0.77099">
        <ele>194</ele>
        <time>2017-04-30T08:21:52.000Z</time>
      </trkpt>
      <trkpt lat="44.24254" lon="0.77101">
        <ele>195</ele>
        <time>2017-04-30T08:21:53.000Z</time>
      </trkpt>
      <trkpt lat="44.2425" lon="0.77103">
        <ele>193</ele>
        <time>2017-04-30T08:21:54.000Z</time>
      </trkpt>
      <trkpt lat="44.24248" lon="0.77102">
        <ele>193</ele>
        <time>2017-04-30T08:21:55.000Z</time>
      </trkpt>
      <trkpt lat="44.24243" lon="0.77103">
        <ele>194</ele>
        <time>2017-04-30T08:21:56.000Z</time>
      </trkpt>
      <trkpt lat="44.24238" lon="0.77103">
        <ele>194</ele>
        <time>2017-04-30T08:21:57.000Z</time>
      </trkpt>
      <trkpt lat="44.24233" lon="0.77102">
        <ele>193</ele>
        <time>2017-04-30T08:21:58.000Z</time>
      </trkpt>
      <trkpt lat="44.24229" lon="0.77102">
        <ele>193</ele>
        <time>2017-04-30T08:21:59.000Z</time>
      </trkpt>
      <trkpt lat="44.24224" lon="0.771">
        <ele>192</ele>
        <time>2017-04-30T08:22:00.000Z</time>
      </trkpt>
      <trkpt lat="44.2422" lon="0.77101">
        <ele>193</ele>
        <time>2017-04-30T08:22:01.000Z</time>
      </trkpt>
      <trkpt lat="44.24216" lon="0.77102">
        <ele>192</ele>
        <time>2017-04-30T08:22:02.000Z</time>
      </trkpt>
      <trkpt lat="44.24215" lon="0.77105">
        <ele>191</ele>
        <time>2017-04-30T08:22:03.000Z</time>
      </trkpt>
      <trkpt lat="44.24213" lon="0.77108">
        <ele>191</ele>
        <time>2017-04-30T08:22:04.000Z</time>
      </trkpt>
      <trkpt lat="44.24211" lon="0.77111">
        <ele>191</ele>
        <time>2017-04-30T08:22:05.000Z</time>
      </trkpt>
      <trkpt lat="44.24211" lon="0.77115">
        <ele>190</ele>
        <time>2017-04-30T08:22:06.000Z</time>
      </trkpt>
      <trkpt lat="44.24209" lon="0.77118">
        <ele>190</ele>
        <time>2017-04-30T08:22:07.000Z</time>
      </trkpt>
      <trkpt lat="44.24208" lon="0.77121">
        <ele>191</ele>
        <time>2017-04-30T08:22:08.000Z</time>
      </trkpt>
      <trkpt lat="44.24206" lon="0.77124">
        <ele>191</ele>
        <time>2017-04-30T08:22:09.000Z</time>
      </trkpt>
      <trkpt lat="44.24205" lon="0.77127">
        <ele>191</ele>
        <time>2017-04-30T08:22:10.000Z</time>
      </trkpt>
      <trkpt lat="44.24203" lon="0.7713">
        <ele>191</ele>
        <time>2017-04-30T08:22:11.000Z</time>
      </trkpt>
      <trkpt lat="44.24202" lon="0.77133">
        <ele>191</ele>
        <time>2017-04-30T08:22:12.000Z</time>
      </trkpt>
      <trkpt lat="44.24201" lon="0.77137">
        <ele>190</ele>
        <time>2017-04-30T08:22:13.000Z</time>
      </trkpt>
      <trkpt lat="44.242" lon="0.7714">
        <ele>190</ele>
        <time>2017-04-30T08:22:14.000Z</time>
      </trkpt>
      <trkpt lat="44.24197" lon="0.77142">
        <ele>189</ele>
        <time>2017-04-30T08:22:15.000Z</time>
      </trkpt>
      <trkpt lat="44.24195" lon="0.77143">
        <ele>189</ele>
        <time>2017-04-30T08:22:16.000Z</time>
      </trkpt>
      <trkpt lat="44.24192" lon="0.77143">
        <ele>187</ele>
        <time>2017-04-30T08:22:17.000Z</time>
      </trkpt>
      <trkpt lat="44.24188" lon="0.77144">
        <ele>189</ele>
        <time>2017-04-30T08:22:18.000Z</time>
      </trkpt>
      <trkpt lat="44.24186" lon="0.77146">
        <ele>189</ele>
        <time>2017-04-30T08:22:19.000Z</time>
      </trkpt>
      <trkpt lat="44.24183" lon="0.77148">
        <ele>189</ele>
        <time>2017-04-30T08:22:20.000Z</time>
      </trkpt>
      <trkpt lat="44.24181" lon="0.7715">
        <ele>189</ele>
        <time>2017-04-30T08:22:21.000Z</time>
      </trkpt>
      <trkpt lat="44.24179" lon="0.77153">
        <ele>188</ele>
        <time>2017-04-30T08:22:22.000Z</time>
      </trkpt>
      <trkpt lat="44.24176" lon="0.77157">
        <ele>187</ele>
        <time>2017-04-30T08:22:23.000Z</time>
      </trkpt>
      <trkpt lat="44.24173" lon="0.77161">
        <ele>187</ele>
        <time>2017-04-30T08:22:24.000Z</time>
      </trkpt>
      <trkpt lat="44.24171" lon="0.77164">
        <ele>187</ele>
        <time>2017-04-30T08:22:25.000Z</time>
      </trkpt>
      <trkpt lat="44.24169" lon="0.77167">
        <ele>186</ele>
        <time>2017-04-30T08:22:26.000Z</time>
      </trkpt>
      <trkpt lat="44.24166" lon="0.77171">
        <ele>186</ele>
        <time>2017-04-30T08:22:27.000Z</time>
      </trkpt>
      <trkpt lat="44.24164" lon="0.77174">
        <ele>186</ele>
        <time>2017-04-30T08:22:28.000Z</time>
      </trkpt>
      <trkpt lat="44.24161" lon="0.77177">
        <ele>186</ele>
        <time>2017-04-30T08:22:29.000Z</time>
      </trkpt>
      <trkpt lat="44.24159" lon="0.77181">
        <ele>187</ele>
        <time>2017-04-30T08:22:30.000Z</time>
      </trkpt>
      <trkpt lat="44.24159" lon="0.77184">
        <ele>186</ele>
        <time>2017-04-30T08:22:31.000Z</time>
      </trkpt>
      <trkpt lat="44.2416" lon="0.77188">
        <ele>187</ele>
        <time>2017-04-30T08:22:32.000Z</time>
      </trkpt>
      <trkpt lat="44.24163" lon="0.77191">
        <ele>186</ele>
        <time>2017-04-30T08:22:33.000Z</time>
      </trkpt>
      <trkpt lat="44.24163" lon="0.77194">
        <ele>186</ele>
        <time>2017-04-30T08:22:34.000Z</time>
      </trkpt>
      <trkpt lat="44.24164" lon="0.77198">
        <ele>186</ele>
        <time>2017-04-30T08:22:35.000Z</time>
      </trkpt>
      <trkpt lat="44.24165" lon="0.77202">
        <ele>185</ele>
        <time>2017-04-30T08:22:36.000Z</time>
      </trkpt>
      <trkpt lat="44.24167" lon="0.77206">
        <ele>186</ele>
        <time>2017-04-30T08:22:37.000Z</time>
      </trkpt>
      <trkpt lat="44.24168" lon="0.77211">
        <ele>186</ele>
        <time>2017-04-30T08:22:38.000Z</time>
      </trkpt>
      <trkpt lat="44.24169" lon="0.77216">
        <ele>186</ele>
        <time>2017-04-30T08:22:39.000Z</time>
      </trkpt>
      <trkpt lat="44.24171" lon="0.7722">
        <ele>186</ele>
        <time>2017-04-30T08:22:40.000Z</time>
      </trkpt>
      <trkpt lat="44.24173" lon="0.77224">
        <ele>186</ele>
        <time>2017-04-30T08:22:41.000Z</time>
      </trkpt>
      <trkpt lat="44.24174" lon="0.77229">
        <ele>187</ele>
        <time>2017-04-30T08:22:42.000Z</time>
      </trkpt>
      <trkpt lat="44.24175" lon="0.77235">
        <ele>187</ele>
        <time>2017-04-30T08:22:43.000Z</time>
      </trkpt>
      <trkpt lat="44.24177" lon="0.7724">
        <ele>187</ele>
        <time>2017-04-30T08:22:44.000Z</time>
      </trkpt>
      <trkpt lat="44.24179" lon="0.77245">
        <ele>186</ele>
        <time>2017-04-30T08:22:45.000Z</time>
      </trkpt>
      <trkpt lat="44.2418" lon="0.7725">
        <ele>186</ele>
        <time>2017-04-30T08:22:46.000Z</time>
      </trkpt>
      <trkpt lat="44.24182" lon="0.77255">
        <ele>183</ele>
        <time>2017-04-30T08:22:47.000Z</time>
      </trkpt>
      <trkpt lat="44.24183" lon="0.77259">
        <ele>182</ele>
        <time>2017-04-30T08:22:48.000Z</time>
      </trkpt>
      <trkpt lat="44.24185" lon="0.77262">
        <ele>181</ele>
        <time>2017-04-30T08:22:49.000Z</time>
      </trkpt>
      <trkpt lat="44.24186" lon="0.77266">
        <ele>180</ele>
        <time>2017-04-30T08:22:50.000Z</time>
      </trkpt>
      <trkpt lat="44.24187" lon="0.77271">
        <ele>180</ele>
        <time>2017-04-30T08:22:51.000Z</time>
      </trkpt>
      <trkpt lat="44.24189" lon="0.77275">
        <ele>180</ele>
        <time>2017-04-30T08:22:52.000Z</time>
      </trkpt>
      <trkpt lat="44.24192" lon="0.77279">
        <ele>180</ele>
        <time>2017-04-30T08:22:53.000Z</time>
      </trkpt>
      <trkpt lat="44.24195" lon="0.77287">
        <ele>180</ele>
        <time>2017-04-30T08:22:54.000Z</time>
      </trkpt>
      <trkpt lat="44.24199" lon="0.77293">
        <ele>180</ele>
        <time>2017-04-30T08:22:55.000Z</time>
      </trkpt>
      <trkpt lat="44.24204" lon="0.77297">
        <ele>180</ele>
        <time>2017-04-30T08:22:56.000Z</time>
      </trkpt>
      <trkpt lat="44.24208" lon="0.77302">
        <ele>180</ele>
        <time>2017-04-30T08:22:57.000Z</time>
      </trkpt>
      <trkpt lat="44.24212" lon="0.77306">
        <ele>181</ele>
        <time>2017-04-30T08:22:58.000Z</time>
      </trkpt>
      <trkpt lat="44.24216" lon="0.7731">
        <ele>181</ele>
        <time>2017-04-30T08:22:59.000Z</time>
      </trkpt>
      <trkpt lat="44.2422" lon="0.77314">
        <ele>181</ele>
        <time>2017-04-30T08:23:00.000Z</time>
      </trkpt>
      <trkpt lat="44.24224" lon="0.77319">
        <ele>181</ele>
        <time>2017-04-30T08:23:01.000Z</time>
      </trkpt>
      <trkpt lat="44.24228" lon="0.77323">
        <ele>182</ele>
        <time>2017-04-30T08:23:02.000Z</time>
      </trkpt>
      <trkpt lat="44.24231" lon="0.77327">
        <ele>183</ele>
        <time>2017-04-30T08:23:03.000Z</time>
      </trkpt>
      <trkpt lat="44.24235" lon="0.77332">
        <ele>184</ele>
        <time>2017-04-30T08:23:04.000Z</time>
      </trkpt>
      <trkpt lat="44.24238" lon="0.77336">
        <ele>184</ele>
        <time>2017-04-30T08:23:05.000Z</time>
      </trkpt>
      <trkpt lat="44.24241" lon="0.7734">
        <ele>183</ele>
        <time>2017-04-30T08:23:06.000Z</time>
      </trkpt>
      <trkpt lat="44.24245" lon="0.77344">
        <ele>184</ele>
        <time>2017-04-30T08:23:07.000Z</time>
      </trkpt>
      <trkpt lat="44.24249" lon="0.77348">
        <ele>182</ele>
        <time>2017-04-30T08:23:08.000Z</time>
      </trkpt>
      <trkpt lat="44.24252" lon="0.77351">
        <ele>180</ele>
        <time>2017-04-30T08:23:09.000Z</time>
      </trkpt>
      <trkpt lat="44.24256" lon="0.77354">
        <ele>179</ele>
        <time>2017-04-30T08:23:10.000Z</time>
      </trkpt>
      <trkpt lat="44.2426" lon="0.77357">
        <ele>179</ele>
        <time>2017-04-30T08:23:11.000Z</time>
      </trkpt>
      <trkpt lat="44.24265" lon="0.77358">
        <ele>179</ele>
        <time>2017-04-30T08:23:12.000Z</time>
      </trkpt>
      <trkpt lat="44.2427" lon="0.77361">
        <ele>180</ele>
        <time>2017-04-30T08:23:13.000Z</time>
      </trkpt>
      <trkpt lat="44.24274" lon="0.77364">
        <ele>180</ele>
        <time>2017-04-30T08:23:14.000Z</time>
      </trkpt>
      <trkpt lat="44.24279" lon="0.77366">
        <ele>179</ele>
        <time>2017-04-30T08:23:15.000Z</time>
      </trkpt>
      <trkpt lat="44.24286" lon="0.77369">
        <ele>176</ele>
        <time>2017-04-30T08:23:16.000Z</time>
      </trkpt>
      <trkpt lat="44.24291" lon="0.77372">
        <ele>176</ele>
        <time>2017-04-30T08:23:17.000Z</time>
      </trkpt>
      <trkpt lat="44.24296" lon="0.77375">
        <ele>177</ele>
        <time>2017-04-30T08:23:18.000Z</time>
      </trkpt>
      <trkpt lat="44.24301" lon="0.77376">
        <ele>179</ele>
        <time>2017-04-30T08:23:19.000Z</time>
      </trkpt>
      <trkpt lat="44.24306" lon="0.77377">
        <ele>179</ele>
        <time>2017-04-30T08:23:20.000Z</time>
      </trkpt>
      <trkpt lat="44.24312" lon="0.77381">
        <ele>180</ele>
        <time>2017-04-30T08:23:21.000Z</time>
      </trkpt>
      <trkpt lat="44.24317" lon="0.77384">
        <ele>180</ele>
        <time>2017-04-30T08:23:22.000Z</time>
      </trkpt>
      <trkpt lat="44.24321" lon="0.77388">
        <ele>179</ele>
        <time>2017-04-30T08:23:23.000Z</time>
      </trkpt>
      <trkpt lat="44.24326" lon="0.77392">
        <ele>180</ele>
        <time>2017-04-30T08:23:24.000Z</time>
      </trkpt>
      <trkpt lat="44.24331" lon="0.77395">
        <ele>181</ele>
        <time>2017-04-30T08:23:25.000Z</time>
      </trkpt>
      <trkpt lat="44.24335" lon="0.77398">
        <ele>181</ele>
        <time>2017-04-30T08:23:26.000Z</time>
      </trkpt>
      <trkpt lat="44.24339" lon="0.774">
        <ele>181</ele>
        <time>2017-04-30T08:23:27.000Z</time>
      </trkpt>
      <trkpt lat="44.24343" lon="0.77401">
        <ele>182</ele>
        <time>2017-04-30T08:23:28.000Z</time>
      </trkpt>
      <trkpt lat="44.24347" lon="0.77401">
        <ele>184</ele>
        <time>2017-04-30T08:23:29.000Z</time>
      </trkpt>
      <trkpt lat="44.24351" lon="0.77399">
        <ele>186</ele>
        <time>2017-04-30T08:23:30.000Z</time>
      </trkpt>
      <trkpt lat="44.24352" lon="0.77397">
        <ele>186</ele>
        <time>2017-04-30T08:23:31.000Z</time>
      </trkpt>
      <trkpt lat="44.24358" lon="0.7739">
        <ele>182</ele>
        <time>2017-04-30T08:23:32.000Z</time>
      </trkpt>
      <trkpt lat="44.24361" lon="0.77387">
        <ele>183</ele>
        <time>2017-04-30T08:23:33.000Z</time>
      </trkpt>
      <trkpt lat="44.24363" lon="0.77383">
        <ele>183</ele>
        <time>2017-04-30T08:23:34.000Z</time>
      </trkpt>
      <trkpt lat="44.24367" lon="0.77381">
        <ele>184</ele>
        <time>2017-04-30T08:23:35.000Z</time>
      </trkpt>
      <trkpt lat="44.2437" lon="0.7738">
        <ele>184</ele>
        <time>2017-04-30T08:23:36.000Z</time>
      </trkpt>
      <trkpt lat="44.24374" lon="0.7738">
        <ele>183</ele>
        <time>2017-04-30T08:23:37.000Z</time>
      </trkpt>
      <trkpt lat="44.24377" lon="0.77381">
        <ele>185</ele>
        <time>2017-04-30T08:23:38.000Z</time>
      </trkpt>
      <trkpt lat="44.2438" lon="0.77382">
        <ele>184</ele>
        <time>2017-04-30T08:23:39.000Z</time>
      </trkpt>
      <trkpt lat="44.24382" lon="0.77383">
        <ele>184</ele>
        <time>2017-04-30T08:23:40.000Z</time>
      </trkpt>
      <trkpt lat="44.24386" lon="0.77385">
        <ele>185</ele>
        <time>2017-04-30T08:23:41.000Z</time>
      </trkpt>
      <trkpt lat="44.2439" lon="0.77386">
        <ele>186</ele>
        <time>2017-04-30T08:23:42.000Z</time>
      </trkpt>
      <trkpt lat="44.24394" lon="0.77387">
        <ele>188</ele>
        <time>2017-04-30T08:23:43.000Z</time>
      </trkpt>
      <trkpt lat="44.24397" lon="0.77388">
        <ele>188</ele>
        <time>2017-04-30T08:23:44.000Z</time>
      </trkpt>
      <trkpt lat="44.244" lon="0.77389">
        <ele>190</ele>
        <time>2017-04-30T08:23:45.000Z</time>
      </trkpt>
      <trkpt lat="44.24404" lon="0.7739">
        <ele>191</ele>
        <time>2017-04-30T08:23:46.000Z</time>
      </trkpt>
      <trkpt lat="44.24408" lon="0.77392">
        <ele>191</ele>
        <time>2017-04-30T08:23:47.000Z</time>
      </trkpt>
      <trkpt lat="44.24412" lon="0.77393">
        <ele>192</ele>
        <time>2017-04-30T08:23:48.000Z</time>
      </trkpt>
      <trkpt lat="44.24416" lon="0.77394">
        <ele>192</ele>
        <time>2017-04-30T08:23:49.000Z</time>
      </trkpt>
      <trkpt lat="44.24419" lon="0.77396">
        <ele>192</ele>
        <time>2017-04-30T08:23:50.000Z</time>
      </trkpt>
      <trkpt lat="44.24423" lon="0.77397">
        <ele>193</ele>
        <time>2017-04-30T08:23:51.000Z</time>
      </trkpt>
      <trkpt lat="44.24426" lon="0.77398">
        <ele>194</ele>
        <time>2017-04-30T08:23:52.000Z</time>
      </trkpt>
      <trkpt lat="44.2443" lon="0.77398">
        <ele>194</ele>
        <time>2017-04-30T08:23:53.000Z</time>
      </trkpt>
      <trkpt lat="44.24433" lon="0.77398">
        <ele>195</ele>
        <time>2017-04-30T08:23:54.000Z</time>
      </trkpt>
      <trkpt lat="44.24436" lon="0.77398">
        <ele>196</ele>
        <time>2017-04-30T08:23:55.000Z</time>
      </trkpt>
      <trkpt lat="44.24439" lon="0.77398">
        <ele>196</ele>
        <time>2017-04-30T08:23:56.000Z</time>
      </trkpt>
      <trkpt lat="44.24442" lon="0.77399">
        <ele>197</ele>
        <time>2017-04-30T08:23:57.000Z</time>
      </trkpt>
      <trkpt lat="44.24446" lon="0.77398">
        <ele>198</ele>
        <time>2017-04-30T08:23:58.000Z</time>
      </trkpt>
      <trkpt lat="44.24453" lon="0.77395">
        <ele>197</ele>
        <time>2017-04-30T08:23:59.000Z</time>
      </trkpt>
      <trkpt lat="44.24456" lon="0.77395">
        <ele>197</ele>
        <time>2017-04-30T08:24:00.000Z</time>
      </trkpt>
      <trkpt lat="44.24459" lon="0.77395">
        <ele>197</ele>
        <time>2017-04-30T08:24:01.000Z</time>
      </trkpt>
      <trkpt lat="44.24464" lon="0.77393">
        <ele>196</ele>
        <time>2017-04-30T08:24:02.000Z</time>
      </trkpt>
      <trkpt lat="44.24468" lon="0.77393">
        <ele>196</ele>
        <time>2017-04-30T08:24:03.000Z</time>
      </trkpt>
      <trkpt lat="44.24472" lon="0.77393">
        <ele>197</ele>
        <time>2017-04-30T08:24:04.000Z</time>
      </trkpt>
      <trkpt lat="44.24475" lon="0.77393">
        <ele>198</ele>
        <time>2017-04-30T08:24:05.000Z</time>
      </trkpt>
      <trkpt lat="44.24478" lon="0.77394">
        <ele>199</ele>
        <time>2017-04-30T08:24:06.000Z</time>
      </trkpt>
      <trkpt lat="44.24479" lon="0.77399">
        <ele>200</ele>
        <time>2017-04-30T08:24:07.000Z</time>
      </trkpt>
      <trkpt lat="44.24482" lon="0.77401">
        <ele>200</ele>
        <time>2017-04-30T08:24:08.000Z</time>
      </trkpt>
      <trkpt lat="44.24485" lon="0.77403">
        <ele>201</ele>
        <time>2017-04-30T08:24:09.000Z</time>
      </trkpt>
      <trkpt lat="44.24487" lon="0.77406">
        <ele>201</ele>
        <time>2017-04-30T08:24:10.000Z</time>
      </trkpt>
      <trkpt lat="44.2449" lon="0.77408">
        <ele>202</ele>
        <time>2017-04-30T08:24:11.000Z</time>
      </trkpt>
      <trkpt lat="44.24492" lon="0.7741">
        <ele>203</ele>
        <time>2017-04-30T08:24:12.000Z</time>
      </trkpt>
      <trkpt lat="44.24495" lon="0.77412">
        <ele>202</ele>
        <time>2017-04-30T08:24:13.000Z</time>
      </trkpt>
      <trkpt lat="44.24497" lon="0.77412">
        <ele>203</ele>
        <time>2017-04-30T08:24:14.000Z</time>
      </trkpt>
      <trkpt lat="44.24499" lon="0.7741">
        <ele>205</ele>
        <time>2017-04-30T08:24:15.000Z</time>
      </trkpt>
      <trkpt lat="44.24502" lon="0.77408">
        <ele>206</ele>
        <time>2017-04-30T08:24:16.000Z</time>
      </trkpt>
      <trkpt lat="44.24505" lon="0.77405">
        <ele>208</ele>
        <time>2017-04-30T08:24:17.000Z</time>
      </trkpt>
      <trkpt lat="44.24509" lon="0.77401">
        <ele>207</ele>
        <time>2017-04-30T08:24:18.000Z</time>
      </trkpt>
      <trkpt lat="44.24511" lon="0.77398">
        <ele>208</ele>
        <time>2017-04-30T08:24:19.000Z</time>
      </trkpt>
      <trkpt lat="44.24513" lon="0.77394">
        <ele>207</ele>
        <time>2017-04-30T08:24:20.000Z</time>
      </trkpt>
      <trkpt lat="44.24515" lon="0.77389">
        <ele>207</ele>
        <time>2017-04-30T08:24:21.000Z</time>
      </trkpt>
      <trkpt lat="44.24517" lon="0.77385">
        <ele>206</ele>
        <time>2017-04-30T08:24:22.000Z</time>
      </trkpt>
      <trkpt lat="44.2452" lon="0.77379">
        <ele>205</ele>
        <time>2017-04-30T08:24:23.000Z</time>
      </trkpt>
      <trkpt lat="44.24524" lon="0.77372">
        <ele>202</ele>
        <time>2017-04-30T08:24:24.000Z</time>
      </trkpt>
      <trkpt lat="44.24528" lon="0.77365">
        <ele>200</ele>
        <time>2017-04-30T08:24:25.000Z</time>
      </trkpt>
      <trkpt lat="44.2453" lon="0.7736">
        <ele>200</ele>
        <time>2017-04-30T08:24:26.000Z</time>
      </trkpt>
      <trkpt lat="44.24533" lon="0.77353">
        <ele>200</ele>
        <time>2017-04-30T08:24:27.000Z</time>
      </trkpt>
      <trkpt lat="44.24536" lon="0.77346">
        <ele>199</ele>
        <time>2017-04-30T08:24:28.000Z</time>
      </trkpt>
      <trkpt lat="44.24539" lon="0.77339">
        <ele>199</ele>
        <time>2017-04-30T08:24:29.000Z</time>
      </trkpt>
      <trkpt lat="44.24542" lon="0.77333">
        <ele>199</ele>
        <time>2017-04-30T08:24:30.000Z</time>
      </trkpt>
      <trkpt lat="44.24545" lon="0.77326">
        <ele>198</ele>
        <time>2017-04-30T08:24:31.000Z</time>
      </trkpt>
      <trkpt lat="44.24547" lon="0.77319">
        <ele>197</ele>
        <time>2017-04-30T08:24:32.000Z</time>
      </trkpt>
      <trkpt lat="44.24549" lon="0.77313">
        <ele>198</ele>
        <time>2017-04-30T08:24:33.000Z</time>
      </trkpt>
      <trkpt lat="44.2455" lon="0.77306">
        <ele>197</ele>
        <time>2017-04-30T08:24:34.000Z</time>
      </trkpt>
      <trkpt lat="44.24552" lon="0.773">
        <ele>196</ele>
        <time>2017-04-30T08:24:35.000Z</time>
      </trkpt>
      <trkpt lat="44.24553" lon="0.77293">
        <ele>197</ele>
        <time>2017-04-30T08:24:36.000Z</time>
      </trkpt>
      <trkpt lat="44.24555" lon="0.77285">
        <ele>197</ele>
        <time>2017-04-30T08:24:37.000Z</time>
      </trkpt>
      <trkpt lat="44.24556" lon="0.77279">
        <ele>197</ele>
        <time>2017-04-30T08:24:38.000Z</time>
      </trkpt>
      <trkpt lat="44.24558" lon="0.77273">
        <ele>197</ele>
        <time>2017-04-30T08:24:39.000Z</time>
      </trkpt>
      <trkpt lat="44.24561" lon="0.77264">
        <ele>196</ele>
        <time>2017-04-30T08:24:40.000Z</time>
      </trkpt>
      <trkpt lat="44.24563" lon="0.77256">
        <ele>195</ele>
        <time>2017-04-30T08:24:41.000Z</time>
      </trkpt>
      <trkpt lat="44.24566" lon="0.77247">
        <ele>193</ele>
        <time>2017-04-30T08:24:42.000Z</time>
      </trkpt>
      <trkpt lat="44.24569" lon="0.77239">
        <ele>192</ele>
        <time>2017-04-30T08:24:43.000Z</time>
      </trkpt>
      <trkpt lat="44.24571" lon="0.7723">
        <ele>194</ele>
        <time>2017-04-30T08:24:44.000Z</time>
      </trkpt>
      <trkpt lat="44.24574" lon="0.77223">
        <ele>194</ele>
        <time>2017-04-30T08:24:45.000Z</time>
      </trkpt>
      <trkpt lat="44.24577" lon="0.77216">
        <ele>195</ele>
        <time>2017-04-30T08:24:46.000Z</time>
      </trkpt>
      <trkpt lat="44.24582" lon="0.7721">
        <ele>195</ele>
        <time>2017-04-30T08:24:47.000Z</time>
      </trkpt>
      <trkpt lat="44.24586" lon="0.77205">
        <ele>195</ele>
        <time>2017-04-30T08:24:48.000Z</time>
      </trkpt>
      <trkpt lat="44.2459" lon="0.772">
        <ele>195</ele>
        <time>2017-04-30T08:24:49.000Z</time>
      </trkpt>
      <trkpt lat="44.24594" lon="0.77196">
        <ele>196</ele>
        <time>2017-04-30T08:24:50.000Z</time>
      </trkpt>
      <trkpt lat="44.24598" lon="0.77191">
        <ele>196</ele>
        <time>2017-04-30T08:24:51.000Z</time>
      </trkpt>
      <trkpt lat="44.24602" lon="0.77186">
        <ele>196</ele>
        <time>2017-04-30T08:24:52.000Z</time>
      </trkpt>
      <trkpt lat="44.24606" lon="0.77181">
        <ele>196</ele>
        <time>2017-04-30T08:24:53.000Z</time>
      </trkpt>
      <trkpt lat="44.2461" lon="0.77176">
        <ele>196</ele>
        <time>2017-04-30T08:24:54.000Z</time>
      </trkpt>
      <trkpt lat="44.24615" lon="0.7717">
        <ele>195</ele>
        <time>2017-04-30T08:24:55.000Z</time>
      </trkpt>
      <trkpt lat="44.24619" lon="0.77163">
        <ele>195</ele>
        <time>2017-04-30T08:24:56.000Z</time>
      </trkpt>
      <trkpt lat="44.2462" lon="0.77156">
        <ele>195</ele>
        <time>2017-04-30T08:24:57.000Z</time>
      </trkpt>
      <trkpt lat="44.24622" lon="0.77149">
        <ele>195</ele>
        <time>2017-04-30T08:24:58.000Z</time>
      </trkpt>
      <trkpt lat="44.24625" lon="0.77141">
        <ele>196</ele>
        <time>2017-04-30T08:24:59.000Z</time>
      </trkpt>
      <trkpt lat="44.24629" lon="0.77135">
        <ele>196</ele>
        <time>2017-04-30T08:25:00.000Z</time>
      </trkpt>
      <trkpt lat="44.24634" lon="0.77128">
        <ele>197</ele>
        <time>2017-04-30T08:25:01.000Z</time>
      </trkpt>
      <trkpt lat="44.24638" lon="0.77123">
        <ele>197</ele>
        <time>2017-04-30T08:25:02.000Z</time>
      </trkpt>
      <trkpt lat="44.24643" lon="0.77118">
        <ele>197</ele>
        <time>2017-04-30T08:25:03.000Z</time>
      </trkpt>
      <trkpt lat="44.24648" lon="0.77117">
        <ele>199</ele>
        <time>2017-04-30T08:25:04.000Z</time>
      </trkpt>
      <trkpt lat="44.24652" lon="0.77114">
        <ele>201</ele>
        <time>2017-04-30T08:25:05.000Z</time>
      </trkpt>
      <trkpt lat="44.24656" lon="0.77114">
        <ele>199</ele>
        <time>2017-04-30T08:25:06.000Z</time>
      </trkpt>
      <trkpt lat="44.24661" lon="0.77115">
        <ele>197</ele>
        <time>2017-04-30T08:25:07.000Z</time>
      </trkpt>
      <trkpt lat="44.24666" lon="0.77116">
        <ele>198</ele>
        <time>2017-04-30T08:25:08.000Z</time>
      </trkpt>
      <trkpt lat="44.24667" lon="0.77118">
        <ele>198</ele>
        <time>2017-04-30T08:25:09.000Z</time>
      </trkpt>
      <trkpt lat="44.2467" lon="0.77123">
        <ele>198</ele>
        <time>2017-04-30T08:25:10.000Z</time>
      </trkpt>
      <trkpt lat="44.24671" lon="0.7713">
        <ele>197</ele>
        <time>2017-04-30T08:25:11.000Z</time>
      </trkpt>
      <trkpt lat="44.24673" lon="0.77137">
        <ele>198</ele>
        <time>2017-04-30T08:25:12.000Z</time>
      </trkpt>
      <trkpt lat="44.24675" lon="0.7715">
        <ele>192</ele>
        <time>2017-04-30T08:25:13.000Z</time>
      </trkpt>
      <trkpt lat="44.24677" lon="0.77158">
        <ele>191</ele>
        <time>2017-04-30T08:25:14.000Z</time>
      </trkpt>
      <trkpt lat="44.24679" lon="0.77165">
        <ele>190</ele>
        <time>2017-04-30T08:25:15.000Z</time>
      </trkpt>
      <trkpt lat="44.24681" lon="0.77173">
        <ele>189</ele>
        <time>2017-04-30T08:25:16.000Z</time>
      </trkpt>
      <trkpt lat="44.24683" lon="0.77181">
        <ele>190</ele>
        <time>2017-04-30T08:25:17.000Z</time>
      </trkpt>
      <trkpt lat="44.24684" lon="0.77189">
        <ele>188</ele>
        <time>2017-04-30T08:25:18.000Z</time>
      </trkpt>
      <trkpt lat="44.24685" lon="0.77196">
        <ele>188</ele>
        <time>2017-04-30T08:25:19.000Z</time>
      </trkpt>
      <trkpt lat="44.24686" lon="0.77204">
        <ele>187</ele>
        <time>2017-04-30T08:25:20.000Z</time>
      </trkpt>
      <trkpt lat="44.24686" lon="0.77211">
        <ele>187</ele>
        <time>2017-04-30T08:25:21.000Z</time>
      </trkpt>
      <trkpt lat="44.24686" lon="0.77218">
        <ele>185</ele>
        <time>2017-04-30T08:25:22.000Z</time>
      </trkpt>
      <trkpt lat="44.24686" lon="0.77226">
        <ele>182</ele>
        <time>2017-04-30T08:25:23.000Z</time>
      </trkpt>
      <trkpt lat="44.24686" lon="0.77233">
        <ele>182</ele>
        <time>2017-04-30T08:25:24.000Z</time>
      </trkpt>
      <trkpt lat="44.24685" lon="0.7724">
        <ele>181</ele>
        <time>2017-04-30T08:25:25.000Z</time>
      </trkpt>
      <trkpt lat="44.24686" lon="0.77249">
        <ele>179</ele>
        <time>2017-04-30T08:25:26.000Z</time>
      </trkpt>
      <trkpt lat="44.24688" lon="0.77254">
        <ele>178</ele>
        <time>2017-04-30T08:25:27.000Z</time>
      </trkpt>
      <trkpt lat="44.24688" lon="0.7726">
        <ele>175</ele>
        <time>2017-04-30T08:25:28.000Z</time>
      </trkpt>
      <trkpt lat="44.24688" lon="0.77265">
        <ele>175</ele>
        <time>2017-04-30T08:25:29.000Z</time>
      </trkpt>
      <trkpt lat="44.24687" lon="0.77267">
        <ele>178</ele>
        <time>2017-04-30T08:25:30.000Z</time>
      </trkpt>
      <trkpt lat="44.24687" lon="0.77269">
        <ele>178</ele>
        <time>2017-04-30T08:25:31.000Z</time>
      </trkpt>
      <trkpt lat="44.24689" lon="0.7727">
        <ele>179</ele>
        <time>2017-04-30T08:25:32.000Z</time>
      </trkpt>
      <trkpt lat="44.24696" lon="0.77271">
        <ele>178</ele>
        <time>2017-04-30T08:25:33.000Z</time>
      </trkpt>
      <trkpt lat="44.24699" lon="0.77272">
        <ele>177</ele>
        <time>2017-04-30T08:25:34.000Z</time>
      </trkpt>
      <trkpt lat="44.24702" lon="0.77272">
        <ele>176</ele>
        <time>2017-04-30T08:25:35.000Z</time>
      </trkpt>
      <trkpt lat="44.24705" lon="0.77271">
        <ele>177</ele>
        <time>2017-04-30T08:25:36.000Z</time>
      </trkpt>
      <trkpt lat="44.24709" lon="0.7727">
        <ele>177</ele>
        <time>2017-04-30T08:25:37.000Z</time>
      </trkpt>
      <trkpt lat="44.24713" lon="0.77269">
        <ele>177</ele>
        <time>2017-04-30T08:25:38.000Z</time>
      </trkpt>
      <trkpt lat="44.24717" lon="0.77269">
        <ele>178</ele>
        <time>2017-04-30T08:25:39.000Z</time>
      </trkpt>
      <trkpt lat="44.24721" lon="0.77269">
        <ele>178</ele>
        <time>2017-04-30T08:25:40.000Z</time>
      </trkpt>
      <trkpt lat="44.24725" lon="0.7727">
        <ele>178</ele>
        <time>2017-04-30T08:25:41.000Z</time>
      </trkpt>
      <trkpt lat="44.24732" lon="0.7727">
        <ele>176</ele>
        <time>2017-04-30T08:25:42.000Z</time>
      </trkpt>
      <trkpt lat="44.24738" lon="0.77271">
        <ele>175</ele>
        <time>2017-04-30T08:25:43.000Z</time>
      </trkpt>
      <trkpt lat="44.24743" lon="0.77271">
        <ele>175</ele>
        <time>2017-04-30T08:25:44.000Z</time>
      </trkpt>
      <trkpt lat="44.24748" lon="0.77272">
        <ele>176</ele>
        <time>2017-04-30T08:25:45.000Z</time>
      </trkpt>
      <trkpt lat="44.24756" lon="0.77274">
        <ele>177</ele>
        <time>2017-04-30T08:25:46.000Z</time>
      </trkpt>
      <trkpt lat="44.24761" lon="0.77275">
        <ele>178</ele>
        <time>2017-04-30T08:25:47.000Z</time>
      </trkpt>
      <trkpt lat="44.24766" lon="0.77278">
        <ele>177</ele>
        <time>2017-04-30T08:25:48.000Z</time>
      </trkpt>
      <trkpt lat="44.24771" lon="0.7728">
        <ele>176</ele>
        <time>2017-04-30T08:25:49.000Z</time>
      </trkpt>
      <trkpt lat="44.24776" lon="0.77281">
        <ele>173</ele>
        <time>2017-04-30T08:25:50.000Z</time>
      </trkpt>
      <trkpt lat="44.24781" lon="0.77282">
        <ele>173</ele>
        <time>2017-04-30T08:25:51.000Z</time>
      </trkpt>
      <trkpt lat="44.24786" lon="0.77283">
        <ele>172</ele>
        <time>2017-04-30T08:25:52.000Z</time>
      </trkpt>
      <trkpt lat="44.24788" lon="0.77284">
        <ele>173</ele>
        <time>2017-04-30T08:25:53.000Z</time>
      </trkpt>
      <trkpt lat="44.24789" lon="0.77284">
        <ele>173</ele>
        <time>2017-04-30T08:25:54.000Z</time>
      </trkpt>
      <trkpt lat="44.24789" lon="0.77285">
        <ele>173</ele>
        <time>2017-04-30T08:25:55.000Z</time>
      </trkpt>
      <trkpt lat="44.2479" lon="0.77284">
        <ele>173</ele>
        <time>2017-04-30T08:25:56.000Z</time>
      </trkpt>
      <trkpt lat="44.24791" lon="0.77283">
        <ele>174</ele>
        <time>2017-04-30T08:25:57.000Z</time>
      </trkpt>
      <trkpt lat="44.24792" lon="0.77282">
        <ele>174</ele>
        <time>2017-04-30T08:25:58.000Z</time>
      </trkpt>
      <trkpt lat="44.24793" lon="0.77281">
        <ele>175</ele>
        <time>2017-04-30T08:25:59.000Z</time>
      </trkpt>
      <trkpt lat="44.24794" lon="0.77281">
        <ele>175</ele>
        <time>2017-04-30T08:26:00.000Z</time>
      </trkpt>
      <trkpt lat="44.24795" lon="0.7728">
        <ele>175</ele>
        <time>2017-04-30T08:26:01.000Z</time>
      </trkpt>
      <trkpt lat="44.24796" lon="0.77281">
        <ele>175</ele>
        <time>2017-04-30T08:26:02.000Z</time>
      </trkpt>
      <trkpt lat="44.24797" lon="0.77281">
        <ele>174</ele>
        <time>2017-04-30T08:26:03.000Z</time>
      </trkpt>
      <trkpt lat="44.24799" lon="0.77283">
        <ele>175</ele>
        <time>2017-04-30T08:26:04.000Z</time>
      </trkpt>
      <trkpt lat="44.24801" lon="0.77283">
        <ele>175</ele>
        <time>2017-04-30T08:26:05.000Z</time>
      </trkpt>
      <trkpt lat="44.24804" lon="0.77283">
        <ele>173</ele>
        <time>2017-04-30T08:26:06.000Z</time>
      </trkpt>
      <trkpt lat="44.24806" lon="0.77282">
        <ele>174</ele>
        <time>2017-04-30T08:26:07.000Z</time>
      </trkpt>
      <trkpt lat="44.24808" lon="0.77281">
        <ele>174</ele>
        <time>2017-04-30T08:26:08.000Z</time>
      </trkpt>
      <trkpt lat="44.24809" lon="0.7728">
        <ele>174</ele>
        <time>2017-04-30T08:26:09.000Z</time>
      </trkpt>
      <trkpt lat="44.24811" lon="0.77279">
        <ele>175</ele>
        <time>2017-04-30T08:26:10.000Z</time>
      </trkpt>
      <trkpt lat="44.24814" lon="0.77277">
        <ele>175</ele>
        <time>2017-04-30T08:26:11.000Z</time>
      </trkpt>
      <trkpt lat="44.24818" lon="0.77276">
        <ele>176</ele>
        <time>2017-04-30T08:26:12.000Z</time>
      </trkpt>
      <trkpt lat="44.24824" lon="0.77277">
        <ele>175</ele>
        <time>2017-04-30T08:26:13.000Z</time>
      </trkpt>
      <trkpt lat="44.24826" lon="0.77278">
        <ele>175</ele>
        <time>2017-04-30T08:26:14.000Z</time>
      </trkpt>
      <trkpt lat="44.24829" lon="0.77279">
        <ele>178</ele>
        <time>2017-04-30T08:26:15.000Z</time>
      </trkpt>
      <trkpt lat="44.24833" lon="0.77279">
        <ele>177</ele>
        <time>2017-04-30T08:26:16.000Z</time>
      </trkpt>
      <trkpt lat="44.24838" lon="0.77279">
        <ele>178</ele>
        <time>2017-04-30T08:26:17.000Z</time>
      </trkpt>
      <trkpt lat="44.24841" lon="0.77279">
        <ele>178</ele>
        <time>2017-04-30T08:26:18.000Z</time>
      </trkpt>
      <trkpt lat="44.24845" lon="0.7728">
        <ele>178</ele>
        <time>2017-04-30T08:26:19.000Z</time>
      </trkpt>
      <trkpt lat="44.24848" lon="0.77282">
        <ele>177</ele>
        <time>2017-04-30T08:26:20.000Z</time>
      </trkpt>
      <trkpt lat="44.2485" lon="0.77286">
        <ele>178</ele>
        <time>2017-04-30T08:26:21.000Z</time>
      </trkpt>
      <trkpt lat="44.2485" lon="0.7729">
        <ele>176</ele>
        <time>2017-04-30T08:26:22.000Z</time>
      </trkpt>
      <trkpt lat="44.24851" lon="0.77293">
        <ele>176</ele>
        <time>2017-04-30T08:26:23.000Z</time>
      </trkpt>
      <trkpt lat="44.24852" lon="0.77297">
        <ele>177</ele>
        <time>2017-04-30T08:26:24.000Z</time>
      </trkpt>
      <trkpt lat="44.24853" lon="0.77303">
        <ele>176</ele>
        <time>2017-04-30T08:26:25.000Z</time>
      </trkpt>
      <trkpt lat="44.24854" lon="0.7731">
        <ele>175</ele>
        <time>2017-04-30T08:26:26.000Z</time>
      </trkpt>
      <trkpt lat="44.24855" lon="0.77316">
        <ele>175</ele>
        <time>2017-04-30T08:26:27.000Z</time>
      </trkpt>
      <trkpt lat="44.24856" lon="0.77322">
        <ele>174</ele>
        <time>2017-04-30T08:26:28.000Z</time>
      </trkpt>
      <trkpt lat="44.24857" lon="0.77329">
        <ele>174</ele>
        <time>2017-04-30T08:26:29.000Z</time>
      </trkpt>
      <trkpt lat="44.24858" lon="0.77335">
        <ele>175</ele>
        <time>2017-04-30T08:26:30.000Z</time>
      </trkpt>
      <trkpt lat="44.24858" lon="0.77341">
        <ele>176</ele>
        <time>2017-04-30T08:26:31.000Z</time>
      </trkpt>
      <trkpt lat="44.24858" lon="0.77345">
        <ele>177</ele>
        <time>2017-04-30T08:26:32.000Z</time>
      </trkpt>
      <trkpt lat="44.24857" lon="0.77349">
        <ele>177</ele>
        <time>2017-04-30T08:26:33.000Z</time>
      </trkpt>
      <trkpt lat="44.24857" lon="0.77353">
        <ele>178</ele>
        <time>2017-04-30T08:26:34.000Z</time>
      </trkpt>
      <trkpt lat="44.24856" lon="0.77355">
        <ele>179</ele>
        <time>2017-04-30T08:26:35.000Z</time>
      </trkpt>
      <trkpt lat="44.24854" lon="0.77355">
        <ele>179</ele>
        <time>2017-04-30T08:26:36.000Z</time>
      </trkpt>
      <trkpt lat="44.24853" lon="0.77356">
        <ele>179</ele>
        <time>2017-04-30T08:26:37.000Z</time>
      </trkpt>
      <trkpt lat="44.24852" lon="0.77357">
        <ele>178</ele>
        <time>2017-04-30T08:26:38.000Z</time>
      </trkpt>
      <trkpt lat="44.24852" lon="0.77356">
        <ele>177</ele>
        <time>2017-04-30T08:26:39.000Z</time>
      </trkpt>
      <trkpt lat="44.24852" lon="0.77356">
        <ele>178</ele>
        <time>2017-04-30T08:26:40.000Z</time>
      </trkpt>
      <trkpt lat="44.24853" lon="0.77356">
        <ele>178</ele>
        <time>2017-04-30T08:26:41.000Z</time>
      </trkpt>
      <trkpt lat="44.24852" lon="0.77356">
        <ele>177</ele>
        <time>2017-04-30T08:26:42.000Z</time>
      </trkpt>
      <trkpt lat="44.24851" lon="0.77357">
        <ele>177</ele>
        <time>2017-04-30T08:26:43.000Z</time>
      </trkpt>
      <trkpt lat="44.2485" lon="0.77357">
        <ele>177</ele>
        <time>2017-04-30T08:26:44.000Z</time>
      </trkpt>
      <trkpt lat="44.24849" lon="0.77358">
        <ele>177</ele>
        <time>2017-04-30T08:26:45.000Z</time>
      </trkpt>
      <trkpt lat="44.24849" lon="0.77359">
        <ele>178</ele>
        <time>2017-04-30T08:26:46.000Z</time>
      </trkpt>
      <trkpt lat="44.24849" lon="0.77359">
        <ele>178</ele>
        <time>2017-04-30T08:26:47.000Z</time>
      </trkpt>
      <trkpt lat="44.24849" lon="0.77361">
        <ele>178</ele>
        <time>2017-04-30T08:26:48.000Z</time>
      </trkpt>
      <trkpt lat="44.24849" lon="0.77362">
        <ele>178</ele>
        <time>2017-04-30T08:26:49.000Z</time>
      </trkpt>
      <trkpt lat="44.2485" lon="0.77362">
        <ele>179</ele>
        <time>2017-04-30T08:26:50.000Z</time>
      </trkpt>
      <trkpt lat="44.2485" lon="0.77363">
        <ele>181</ele>
        <time>2017-04-30T08:26:51.000Z</time>
      </trkpt>
      <trkpt lat="44.2485" lon="0.77363">
        <ele>181</ele>
        <time>2017-04-30T08:26:52.000Z</time>
      </trkpt>
      <trkpt lat="44.2485" lon="0.77363">
        <ele>181</ele>
        <time>2017-04-30T08:26:53.000Z</time>
      </trkpt>
      <trkpt lat="44.24851" lon="0.77363">
        <ele>181</ele>
        <time>2017-04-30T08:26:54.000Z</time>
      </trkpt>
      <trkpt lat="44.24852" lon="0.77363">
        <ele>182</ele>
        <time>2017-04-30T08:26:55.000Z</time>
      </trkpt>
      <trkpt lat="44.24852" lon="0.77364">
        <ele>182</ele>
        <time>2017-04-30T08:26:56.000Z</time>
      </trkpt>
      <trkpt lat="44.24853" lon="0.77366">
        <ele>182</ele>
        <time>2017-04-30T08:26:57.000Z</time>
      </trkpt>
      <trkpt lat="44.24853" lon="0.77367">
        <ele>182</ele>
        <time>2017-04-30T08:26:58.000Z</time>
      </trkpt>
      <trkpt lat="44.24854" lon="0.77369">
        <ele>182</ele>
        <time>2017-04-30T08:26:59.000Z</time>
      </trkpt>
      <trkpt lat="44.24855" lon="0.77371">
        <ele>181</ele>
        <time>2017-04-30T08:27:00.000Z</time>
      </trkpt>
      <trkpt lat="44.24855" lon="0.77373">
        <ele>181</ele>
        <time>2017-04-30T08:27:01.000Z</time>
      </trkpt>
      <trkpt lat="44.24855" lon="0.77376">
        <ele>181</ele>
        <time>2017-04-30T08:27:02.000Z</time>
      </trkpt>
      <trkpt lat="44.24856" lon="0.77378">
        <ele>181</ele>
        <time>2017-04-30T08:27:03.000Z</time>
      </trkpt>
      <trkpt lat="44.24856" lon="0.77385">
        <ele>181</ele>
        <time>2017-04-30T08:27:04.000Z</time>
      </trkpt>
      <trkpt lat="44.24857" lon="0.77389">
        <ele>181</ele>
        <time>2017-04-30T08:27:05.000Z</time>
      </trkpt>
      <trkpt lat="44.24857" lon="0.77393">
        <ele>180</ele>
        <time>2017-04-30T08:27:06.000Z</time>
      </trkpt>
      <trkpt lat="44.24858" lon="0.774">
        <ele>178</ele>
        <time>2017-04-30T08:27:07.000Z</time>
      </trkpt>
      <trkpt lat="44.24859" lon="0.77405">
        <ele>178</ele>
        <time>2017-04-30T08:27:08.000Z</time>
      </trkpt>
      <trkpt lat="44.24859" lon="0.7741">
        <ele>177</ele>
        <time>2017-04-30T08:27:09.000Z</time>
      </trkpt>
      <trkpt lat="44.24859" lon="0.77415">
        <ele>178</ele>
        <time>2017-04-30T08:27:10.000Z</time>
      </trkpt>
      <trkpt lat="44.2486" lon="0.7742">
        <ele>178</ele>
        <time>2017-04-30T08:27:11.000Z</time>
      </trkpt>
      <trkpt lat="44.2486" lon="0.77424">
        <ele>178</ele>
        <time>2017-04-30T08:27:12.000Z</time>
      </trkpt>
      <trkpt lat="44.24859" lon="0.77427">
        <ele>178</ele>
        <time>2017-04-30T08:27:13.000Z</time>
      </trkpt>
      <trkpt lat="44.24858" lon="0.77428">
        <ele>177</ele>
        <time>2017-04-30T08:27:14.000Z</time>
      </trkpt>
      <trkpt lat="44.24857" lon="0.7743">
        <ele>175</ele>
        <time>2017-04-30T08:27:15.000Z</time>
      </trkpt>
      <trkpt lat="44.24854" lon="0.77432">
        <ele>174</ele>
        <time>2017-04-30T08:27:16.000Z</time>
      </trkpt>
      <trkpt lat="44.24852" lon="0.77431">
        <ele>174</ele>
        <time>2017-04-30T08:27:17.000Z</time>
      </trkpt>
      <trkpt lat="44.24849" lon="0.77432">
        <ele>175</ele>
        <time>2017-04-30T08:27:18.000Z</time>
      </trkpt>
      <trkpt lat="44.24846" lon="0.77431">
        <ele>175</ele>
        <time>2017-04-30T08:27:19.000Z</time>
      </trkpt>
      <trkpt lat="44.24841" lon="0.7743">
        <ele>176</ele>
        <time>2017-04-30T08:27:20.000Z</time>
      </trkpt>
      <trkpt lat="44.24838" lon="0.77429">
        <ele>176</ele>
        <time>2017-04-30T08:27:21.000Z</time>
      </trkpt>
      <trkpt lat="44.24834" lon="0.77427">
        <ele>176</ele>
        <time>2017-04-30T08:27:22.000Z</time>
      </trkpt>
      <trkpt lat="44.2483" lon="0.77426">
        <ele>176</ele>
        <time>2017-04-30T08:27:23.000Z</time>
      </trkpt>
      <trkpt lat="44.24826" lon="0.77423">
        <ele>177</ele>
        <time>2017-04-30T08:27:24.000Z</time>
      </trkpt>
      <trkpt lat="44.24823" lon="0.77421">
        <ele>177</ele>
        <time>2017-04-30T08:27:25.000Z</time>
      </trkpt>
      <trkpt lat="44.2482" lon="0.77421">
        <ele>178</ele>
        <time>2017-04-30T08:27:26.000Z</time>
      </trkpt>
      <trkpt lat="44.24818" lon="0.77421">
        <ele>180</ele>
        <time>2017-04-30T08:27:27.000Z</time>
      </trkpt>
      <trkpt lat="44.24817" lon="0.77427">
        <ele>182</ele>
        <time>2017-04-30T08:27:28.000Z</time>
      </trkpt>
      <trkpt lat="44.24815" lon="0.77432">
        <ele>180</ele>
        <time>2017-04-30T08:27:29.000Z</time>
      </trkpt>
      <trkpt lat="44.24812" lon="0.77436">
        <ele>181</ele>
        <time>2017-04-30T08:27:30.000Z</time>
      </trkpt>
      <trkpt lat="44.2481" lon="0.77441">
        <ele>182</ele>
        <time>2017-04-30T08:27:31.000Z</time>
      </trkpt>
      <trkpt lat="44.24809" lon="0.77445">
        <ele>180</ele>
        <time>2017-04-30T08:27:32.000Z</time>
      </trkpt>
      <trkpt lat="44.24807" lon="0.77449">
        <ele>181</ele>
        <time>2017-04-30T08:27:33.000Z</time>
      </trkpt>
      <trkpt lat="44.24805" lon="0.77453">
        <ele>181</ele>
        <time>2017-04-30T08:27:34.000Z</time>
      </trkpt>
      <trkpt lat="44.24804" lon="0.77456">
        <ele>181</ele>
        <time>2017-04-30T08:27:35.000Z</time>
      </trkpt>
      <trkpt lat="44.24802" lon="0.7746">
        <ele>181</ele>
        <time>2017-04-30T08:27:36.000Z</time>
      </trkpt>
      <trkpt lat="44.24799" lon="0.77464">
        <ele>180</ele>
        <time>2017-04-30T08:27:37.000Z</time>
      </trkpt>
      <trkpt lat="44.24796" lon="0.77468">
        <ele>180</ele>
        <time>2017-04-30T08:27:38.000Z</time>
      </trkpt>
      <trkpt lat="44.24794" lon="0.77471">
        <ele>180</ele>
        <time>2017-04-30T08:27:39.000Z</time>
      </trkpt>
      <trkpt lat="44.24792" lon="0.77475">
        <ele>181</ele>
        <time>2017-04-30T08:27:40.000Z</time>
      </trkpt>
      <trkpt lat="44.2479" lon="0.77478">
        <ele>180</ele>
        <time>2017-04-30T08:27:41.000Z</time>
      </trkpt>
      <trkpt lat="44.24788" lon="0.77481">
        <ele>180</ele>
        <time>2017-04-30T08:27:42.000Z</time>
      </trkpt>
      <trkpt lat="44.24786" lon="0.77485">
        <ele>180</ele>
        <time>2017-04-30T08:27:43.000Z</time>
      </trkpt>
      <trkpt lat="44.24784" lon="0.77489">
        <ele>181</ele>
        <time>2017-04-30T08:27:44.000Z</time>
      </trkpt>
      <trkpt lat="44.24782" lon="0.77493">
        <ele>181</ele>
        <time>2017-04-30T08:27:45.000Z</time>
      </trkpt>
      <trkpt lat="44.24779" lon="0.77497">
        <ele>181</ele>
        <time>2017-04-30T08:27:46.000Z</time>
      </trkpt>
      <trkpt lat="44.24778" lon="0.77501">
        <ele>180</ele>
        <time>2017-04-30T08:27:47.000Z</time>
      </trkpt>
      <trkpt lat="44.24776" lon="0.77504">
        <ele>180</ele>
        <time>2017-04-30T08:27:48.000Z</time>
      </trkpt>
      <trkpt lat="44.24773" lon="0.77508">
        <ele>180</ele>
        <time>2017-04-30T08:27:49.000Z</time>
      </trkpt>
      <trkpt lat="44.24769" lon="0.77513">
        <ele>180</ele>
        <time>2017-04-30T08:27:50.000Z</time>
      </trkpt>
      <trkpt lat="44.24767" lon="0.77517">
        <ele>180</ele>
        <time>2017-04-30T08:27:51.000Z</time>
      </trkpt>
      <trkpt lat="44.24764" lon="0.77522">
        <ele>180</ele>
        <time>2017-04-30T08:27:52.000Z</time>
      </trkpt>
      <trkpt lat="44.24762" lon="0.77526">
        <ele>180</ele>
        <time>2017-04-30T08:27:53.000Z</time>
      </trkpt>
      <trkpt lat="44.2476" lon="0.77531">
        <ele>179</ele>
        <time>2017-04-30T08:27:54.000Z</time>
      </trkpt>
      <trkpt lat="44.24758" lon="0.77534">
        <ele>179</ele>
        <time>2017-04-30T08:27:55.000Z</time>
      </trkpt>
      <trkpt lat="44.24757" lon="0.77538">
        <ele>178</ele>
        <time>2017-04-30T08:27:56.000Z</time>
      </trkpt>
      <trkpt lat="44.24756" lon="0.77542">
        <ele>178</ele>
        <time>2017-04-30T08:27:57.000Z</time>
      </trkpt>
      <trkpt lat="44.24754" lon="0.77547">
        <ele>178</ele>
        <time>2017-04-30T08:27:58.000Z</time>
      </trkpt>
      <trkpt lat="44.24752" lon="0.77552">
        <ele>176</ele>
        <time>2017-04-30T08:27:59.000Z</time>
      </trkpt>
      <trkpt lat="44.24751" lon="0.77556">
        <ele>175</ele>
        <time>2017-04-30T08:28:00.000Z</time>
      </trkpt>
      <trkpt lat="44.24748" lon="0.7756">
        <ele>175</ele>
        <time>2017-04-30T08:28:01.000Z</time>
      </trkpt>
      <trkpt lat="44.24747" lon="0.77564">
        <ele>174</ele>
        <time>2017-04-30T08:28:02.000Z</time>
      </trkpt>
      <trkpt lat="44.24745" lon="0.77569">
        <ele>173</ele>
        <time>2017-04-30T08:28:03.000Z</time>
      </trkpt>
      <trkpt lat="44.24743" lon="0.77573">
        <ele>173</ele>
        <time>2017-04-30T08:28:04.000Z</time>
      </trkpt>
      <trkpt lat="44.2474" lon="0.77578">
        <ele>173</ele>
        <time>2017-04-30T08:28:05.000Z</time>
      </trkpt>
      <trkpt lat="44.24738" lon="0.77582">
        <ele>173</ele>
        <time>2017-04-30T08:28:06.000Z</time>
      </trkpt>
      <trkpt lat="44.24735" lon="0.77587">
        <ele>173</ele>
        <time>2017-04-30T08:28:07.000Z</time>
      </trkpt>
      <trkpt lat="44.24733" lon="0.77591">
        <ele>173</ele>
        <time>2017-04-30T08:28:08.000Z</time>
      </trkpt>
      <trkpt lat="44.24729" lon="0.77596">
        <ele>173</ele>
        <time>2017-04-30T08:28:09.000Z</time>
      </trkpt>
      <trkpt lat="44.24727" lon="0.776">
        <ele>174</ele>
        <time>2017-04-30T08:28:10.000Z</time>
      </trkpt>
      <trkpt lat="44.24724" lon="0.77607">
        <ele>175</ele>
        <time>2017-04-30T08:28:11.000Z</time>
      </trkpt>
      <trkpt lat="44.24721" lon="0.77611">
        <ele>177</ele>
        <time>2017-04-30T08:28:12.000Z</time>
      </trkpt>
      <trkpt lat="44.24721" lon="0.77611">
        <ele>177</ele>
        <time>2017-04-30T08:28:13.000Z</time>
      </trkpt>
      <trkpt lat="44.2472" lon="0.77614">
        <ele>177</ele>
        <time>2017-04-30T08:28:14.000Z</time>
      </trkpt>
      <trkpt lat="44.24717" lon="0.77618">
        <ele>179</ele>
        <time>2017-04-30T08:28:15.000Z</time>
      </trkpt>
      <trkpt lat="44.24716" lon="0.7762">
        <ele>180</ele>
        <time>2017-04-30T08:28:16.000Z</time>
      </trkpt>
      <trkpt lat="44.24715" lon="0.77626">
        <ele>183</ele>
        <time>2017-04-30T08:28:17.000Z</time>
      </trkpt>
      <trkpt lat="44.24714" lon="0.7763">
        <ele>184</ele>
        <time>2017-04-30T08:28:18.000Z</time>
      </trkpt>
      <trkpt lat="44.24714" lon="0.7763">
        <ele>184</ele>
        <time>2017-04-30T08:28:19.000Z</time>
      </trkpt>
      <trkpt lat="44.24712" lon="0.77634">
        <ele>186</ele>
        <time>2017-04-30T08:28:20.000Z</time>
      </trkpt>
      <trkpt lat="44.24711" lon="0.77638">
        <ele>187</ele>
        <time>2017-04-30T08:28:21.000Z</time>
      </trkpt>
      <trkpt lat="44.24709" lon="0.77641">
        <ele>189</ele>
        <time>2017-04-30T08:28:22.000Z</time>
      </trkpt>
      <trkpt lat="44.24708" lon="0.77646">
        <ele>189</ele>
        <time>2017-04-30T08:28:23.000Z</time>
      </trkpt>
      <trkpt lat="44.24707" lon="0.7765">
        <ele>189</ele>
        <time>2017-04-30T08:28:24.000Z</time>
      </trkpt>
      <trkpt lat="44.24705" lon="0.77656">
        <ele>188</ele>
        <time>2017-04-30T08:28:25.000Z</time>
      </trkpt>
      <trkpt lat="44.24704" lon="0.7766">
        <ele>189</ele>
        <time>2017-04-30T08:28:26.000Z</time>
      </trkpt>
      <trkpt lat="44.24702" lon="0.77663">
        <ele>188</ele>
        <time>2017-04-30T08:28:27.000Z</time>
      </trkpt>
      <trkpt lat="44.247" lon="0.77666">
        <ele>188</ele>
        <time>2017-04-30T08:28:28.000Z</time>
      </trkpt>
      <trkpt lat="44.24698" lon="0.7767">
        <ele>188</ele>
        <time>2017-04-30T08:28:29.000Z</time>
      </trkpt>
      <trkpt lat="44.24698" lon="0.77673">
        <ele>189</ele>
        <time>2017-04-30T08:28:30.000Z</time>
      </trkpt>
      <trkpt lat="44.24696" lon="0.77676">
        <ele>189</ele>
        <time>2017-04-30T08:28:31.000Z</time>
      </trkpt>
      <trkpt lat="44.24695" lon="0.7768">
        <ele>189</ele>
        <time>2017-04-30T08:28:32.000Z</time>
      </trkpt>
      <trkpt lat="44.24693" lon="0.77684">
        <ele>189</ele>
        <time>2017-04-30T08:28:33.000Z</time>
      </trkpt>
      <trkpt lat="44.24692" lon="0.77687">
        <ele>189</ele>
        <time>2017-04-30T08:28:34.000Z</time>
      </trkpt>
      <trkpt lat="44.24691" lon="0.77692">
        <ele>189</ele>
        <time>2017-04-30T08:28:35.000Z</time>
      </trkpt>
      <trkpt lat="44.24689" lon="0.77696">
        <ele>189</ele>
        <time>2017-04-30T08:28:36.000Z</time>
      </trkpt>
      <trkpt lat="44.24689" lon="0.77699">
        <ele>189</ele>
        <time>2017-04-30T08:28:37.000Z</time>
      </trkpt>
      <trkpt lat="44.24688" lon="0.77703">
        <ele>189</ele>
        <time>2017-04-30T08:28:38.000Z</time>
      </trkpt>
      <trkpt lat="44.24688" lon="0.77708">
        <ele>189</ele>
        <time>2017-04-30T08:28:39.000Z</time>
      </trkpt>
      <trkpt lat="44.24688" lon="0.7771">
        <ele>190</ele>
        <time>2017-04-30T08:28:40.000Z</time>
      </trkpt>
      <trkpt lat="44.24687" lon="0.77714">
        <ele>190</ele>
        <time>2017-04-30T08:28:41.000Z</time>
      </trkpt>
      <trkpt lat="44.24686" lon="0.77718">
        <ele>189</ele>
        <time>2017-04-30T08:28:42.000Z</time>
      </trkpt>
      <trkpt lat="44.24686" lon="0.77723">
        <ele>188</ele>
        <time>2017-04-30T08:28:43.000Z</time>
      </trkpt>
      <trkpt lat="44.24684" lon="0.77728">
        <ele>187</ele>
        <time>2017-04-30T08:28:44.000Z</time>
      </trkpt>
      <trkpt lat="44.24683" lon="0.77732">
        <ele>186</ele>
        <time>2017-04-30T08:28:45.000Z</time>
      </trkpt>
      <trkpt lat="44.24682" lon="0.77736">
        <ele>185</ele>
        <time>2017-04-30T08:28:46.000Z</time>
      </trkpt>
      <trkpt lat="44.24681" lon="0.7774">
        <ele>186</ele>
        <time>2017-04-30T08:28:47.000Z</time>
      </trkpt>
      <trkpt lat="44.2468" lon="0.77743">
        <ele>186</ele>
        <time>2017-04-30T08:28:48.000Z</time>
      </trkpt>
      <trkpt lat="44.2468" lon="0.77746">
        <ele>186</ele>
        <time>2017-04-30T08:28:49.000Z</time>
      </trkpt>
      <trkpt lat="44.24678" lon="0.77749">
        <ele>185</ele>
        <time>2017-04-30T08:28:50.000Z</time>
      </trkpt>
      <trkpt lat="44.24676" lon="0.77753">
        <ele>185</ele>
        <time>2017-04-30T08:28:51.000Z</time>
      </trkpt>
      <trkpt lat="44.24674" lon="0.77756">
        <ele>185</ele>
        <time>2017-04-30T08:28:52.000Z</time>
      </trkpt>
      <trkpt lat="44.24672" lon="0.7776">
        <ele>186</ele>
        <time>2017-04-30T08:28:53.000Z</time>
      </trkpt>
      <trkpt lat="44.24671" lon="0.77762">
        <ele>186</ele>
        <time>2017-04-30T08:28:54.000Z</time>
      </trkpt>
      <trkpt lat="44.24669" lon="0.77765">
        <ele>187</ele>
        <time>2017-04-30T08:28:55.000Z</time>
      </trkpt>
      <trkpt lat="44.24667" lon="0.77768">
        <ele>187</ele>
        <time>2017-04-30T08:28:56.000Z</time>
      </trkpt>
      <trkpt lat="44.24666" lon="0.77771">
        <ele>188</ele>
        <time>2017-04-30T08:28:57.000Z</time>
      </trkpt>
      <trkpt lat="44.24663" lon="0.77774">
        <ele>189</ele>
        <time>2017-04-30T08:28:58.000Z</time>
      </trkpt>
      <trkpt lat="44.24661" lon="0.77778">
        <ele>189</ele>
        <time>2017-04-30T08:28:59.000Z</time>
      </trkpt>
      <trkpt lat="44.24659" lon="0.7778">
        <ele>189</ele>
        <time>2017-04-30T08:29:00.000Z</time>
      </trkpt>
      <trkpt lat="44.24657" lon="0.77784">
        <ele>189</ele>
        <time>2017-04-30T08:29:01.000Z</time>
      </trkpt>
      <trkpt lat="44.24656" lon="0.77787">
        <ele>189</ele>
        <time>2017-04-30T08:29:02.000Z</time>
      </trkpt>
      <trkpt lat="44.24654" lon="0.7779">
        <ele>189</ele>
        <time>2017-04-30T08:29:03.000Z</time>
      </trkpt>
      <trkpt lat="44.24652" lon="0.77793">
        <ele>189</ele>
        <time>2017-04-30T08:29:04.000Z</time>
      </trkpt>
      <trkpt lat="44.2465" lon="0.77796">
        <ele>189</ele>
        <time>2017-04-30T08:29:05.000Z</time>
      </trkpt>
      <trkpt lat="44.24647" lon="0.77807">
        <ele>189</ele>
        <time>2017-04-30T08:29:06.000Z</time>
      </trkpt>
      <trkpt lat="44.24647" lon="0.77807">
        <ele>189</ele>
        <time>2017-04-30T08:29:07.000Z</time>
      </trkpt>
      <trkpt lat="44.24646" lon="0.7781">
        <ele>189</ele>
        <time>2017-04-30T08:29:08.000Z</time>
      </trkpt>
      <trkpt lat="44.24644" lon="0.77816">
        <ele>189</ele>
        <time>2017-04-30T08:29:09.000Z</time>
      </trkpt>
      <trkpt lat="44.24642" lon="0.77819">
        <ele>190</ele>
        <time>2017-04-30T08:29:10.000Z</time>
      </trkpt>
      <trkpt lat="44.24641" lon="0.77821">
        <ele>191</ele>
        <time>2017-04-30T08:29:11.000Z</time>
      </trkpt>
      <trkpt lat="44.2464" lon="0.77825">
        <ele>192</ele>
        <time>2017-04-30T08:29:12.000Z</time>
      </trkpt>
      <trkpt lat="44.24639" lon="0.77829">
        <ele>191</ele>
        <time>2017-04-30T08:29:13.000Z</time>
      </trkpt>
      <trkpt lat="44.24637" lon="0.77833">
        <ele>191</ele>
        <time>2017-04-30T08:29:14.000Z</time>
      </trkpt>
      <trkpt lat="44.24635" lon="0.77839">
        <ele>191</ele>
        <time>2017-04-30T08:29:15.000Z</time>
      </trkpt>
      <trkpt lat="44.24634" lon="0.77844">
        <ele>192</ele>
        <time>2017-04-30T08:29:16.000Z</time>
      </trkpt>
      <trkpt lat="44.24633" lon="0.77849">
        <ele>190</ele>
        <time>2017-04-30T08:29:17.000Z</time>
      </trkpt>
      <trkpt lat="44.24632" lon="0.77853">
        <ele>189</ele>
        <time>2017-04-30T08:29:18.000Z</time>
      </trkpt>
      <trkpt lat="44.24631" lon="0.77856">
        <ele>189</ele>
        <time>2017-04-30T08:29:19.000Z</time>
      </trkpt>
      <trkpt lat="44.2463" lon="0.77859">
        <ele>189</ele>
        <time>2017-04-30T08:29:20.000Z</time>
      </trkpt>
      <trkpt lat="44.24629" lon="0.77863">
        <ele>189</ele>
        <time>2017-04-30T08:29:21.000Z</time>
      </trkpt>
      <trkpt lat="44.24627" lon="0.77867">
        <ele>189</ele>
        <time>2017-04-30T08:29:22.000Z</time>
      </trkpt>
      <trkpt lat="44.24625" lon="0.7787">
        <ele>189</ele>
        <time>2017-04-30T08:29:23.000Z</time>
      </trkpt>
      <trkpt lat="44.24624" lon="0.77873">
        <ele>189</ele>
        <time>2017-04-30T08:29:24.000Z</time>
      </trkpt>
      <trkpt lat="44.24623" lon="0.77876">
        <ele>189</ele>
        <time>2017-04-30T08:29:25.000Z</time>
      </trkpt>
      <trkpt lat="44.2462" lon="0.77879">
        <ele>189</ele>
        <time>2017-04-30T08:29:26.000Z</time>
      </trkpt>
      <trkpt lat="44.24618" lon="0.77881">
        <ele>190</ele>
        <time>2017-04-30T08:29:27.000Z</time>
      </trkpt>
      <trkpt lat="44.24616" lon="0.77879">
        <ele>193</ele>
        <time>2017-04-30T08:29:28.000Z</time>
      </trkpt>
      <trkpt lat="44.24616" lon="0.77879">
        <ele>193</ele>
        <time>2017-04-30T08:29:29.000Z</time>
      </trkpt>
      <trkpt lat="44.24613" lon="0.7788">
        <ele>193</ele>
        <time>2017-04-30T08:29:30.000Z</time>
      </trkpt>
      <trkpt lat="44.24612" lon="0.77879">
        <ele>191</ele>
        <time>2017-04-30T08:29:31.000Z</time>
      </trkpt>
      <trkpt lat="44.24609" lon="0.77878">
        <ele>191</ele>
        <time>2017-04-30T08:29:32.000Z</time>
      </trkpt>
      <trkpt lat="44.24608" lon="0.77876">
        <ele>191</ele>
        <time>2017-04-30T08:29:33.000Z</time>
      </trkpt>
      <trkpt lat="44.24606" lon="0.77874">
        <ele>190</ele>
        <time>2017-04-30T08:29:34.000Z</time>
      </trkpt>
      <trkpt lat="44.24603" lon="0.7787">
        <ele>190</ele>
        <time>2017-04-30T08:29:35.000Z</time>
      </trkpt>
      <trkpt lat="44.24601" lon="0.77866">
        <ele>191</ele>
        <time>2017-04-30T08:29:36.000Z</time>
      </trkpt>
      <trkpt lat="44.24601" lon="0.77866">
        <ele>191</ele>
        <time>2017-04-30T08:29:37.000Z</time>
      </trkpt>
      <trkpt lat="44.24598" lon="0.77862">
        <ele>191</ele>
        <time>2017-04-30T08:29:38.000Z</time>
      </trkpt>
      <trkpt lat="44.24596" lon="0.77858">
        <ele>192</ele>
        <time>2017-04-30T08:29:39.000Z</time>
      </trkpt>
      <trkpt lat="44.24595" lon="0.77854">
        <ele>192</ele>
        <time>2017-04-30T08:29:40.000Z</time>
      </trkpt>
      <trkpt lat="44.24593" lon="0.7785">
        <ele>193</ele>
        <time>2017-04-30T08:29:41.000Z</time>
      </trkpt>
      <trkpt lat="44.2459" lon="0.77845">
        <ele>193</ele>
        <time>2017-04-30T08:29:42.000Z</time>
      </trkpt>
      <trkpt lat="44.24585" lon="0.77836">
        <ele>194</ele>
        <time>2017-04-30T08:29:43.000Z</time>
      </trkpt>
      <trkpt lat="44.24585" lon="0.77836">
        <ele>194</ele>
        <time>2017-04-30T08:29:44.000Z</time>
      </trkpt>
      <trkpt lat="44.24583" lon="0.77831">
        <ele>195</ele>
        <time>2017-04-30T08:29:45.000Z</time>
      </trkpt>
      <trkpt lat="44.24581" lon="0.77828">
        <ele>196</ele>
        <time>2017-04-30T08:29:46.000Z</time>
      </trkpt>
      <trkpt lat="44.24578" lon="0.77824">
        <ele>197</ele>
        <time>2017-04-30T08:29:47.000Z</time>
      </trkpt>
      <trkpt lat="44.24576" lon="0.77821">
        <ele>198</ele>
        <time>2017-04-30T08:29:48.000Z</time>
      </trkpt>
      <trkpt lat="44.24573" lon="0.77819">
        <ele>198</ele>
        <time>2017-04-30T08:29:49.000Z</time>
      </trkpt>
      <trkpt lat="44.24571" lon="0.77817">
        <ele>198</ele>
        <time>2017-04-30T08:29:50.000Z</time>
      </trkpt>
      <trkpt lat="44.24569" lon="0.77814">
        <ele>199</ele>
        <time>2017-04-30T08:29:51.000Z</time>
      </trkpt>
      <trkpt lat="44.24566" lon="0.77812">
        <ele>200</ele>
        <time>2017-04-30T08:29:52.000Z</time>
      </trkpt>
      <trkpt lat="44.24565" lon="0.77809">
        <ele>200</ele>
        <time>2017-04-30T08:29:53.000Z</time>
      </trkpt>
      <trkpt lat="44.24564" lon="0.77806">
        <ele>201</ele>
        <time>2017-04-30T08:29:54.000Z</time>
      </trkpt>
      <trkpt lat="44.24563" lon="0.77804">
        <ele>201</ele>
        <time>2017-04-30T08:29:55.000Z</time>
      </trkpt>
      <trkpt lat="44.24561" lon="0.77802">
        <ele>201</ele>
        <time>2017-04-30T08:29:56.000Z</time>
      </trkpt>
      <trkpt lat="44.2456" lon="0.77799">
        <ele>201</ele>
        <time>2017-04-30T08:29:57.000Z</time>
      </trkpt>
      <trkpt lat="44.2456" lon="0.77797">
        <ele>201</ele>
        <time>2017-04-30T08:29:58.000Z</time>
      </trkpt>
      <trkpt lat="44.24557" lon="0.77795">
        <ele>202</ele>
        <time>2017-04-30T08:29:59.000Z</time>
      </trkpt>
      <trkpt lat="44.24555" lon="0.77793">
        <ele>202</ele>
        <time>2017-04-30T08:30:00.000Z</time>
      </trkpt>
      <trkpt lat="44.24552" lon="0.77793">
        <ele>203</ele>
        <time>2017-04-30T08:30:01.000Z</time>
      </trkpt>
      <trkpt lat="44.24551" lon="0.77792">
        <ele>203</ele>
        <time>2017-04-30T08:30:02.000Z</time>
      </trkpt>
      <trkpt lat="44.24548" lon="0.77793">
        <ele>202</ele>
        <time>2017-04-30T08:30:03.000Z</time>
      </trkpt>
      <trkpt lat="44.24544" lon="0.77794">
        <ele>201</ele>
        <time>2017-04-30T08:30:04.000Z</time>
      </trkpt>
      <trkpt lat="44.24541" lon="0.77796">
        <ele>201</ele>
        <time>2017-04-30T08:30:05.000Z</time>
      </trkpt>
      <trkpt lat="44.24538" lon="0.77797">
        <ele>201</ele>
        <time>2017-04-30T08:30:06.000Z</time>
      </trkpt>
      <trkpt lat="44.24536" lon="0.77798">
        <ele>202</ele>
        <time>2017-04-30T08:30:07.000Z</time>
      </trkpt>
      <trkpt lat="44.2453" lon="0.77798">
        <ele>202</ele>
        <time>2017-04-30T08:30:08.000Z</time>
      </trkpt>
      <trkpt lat="44.2453" lon="0.77798">
        <ele>202</ele>
        <time>2017-04-30T08:30:09.000Z</time>
      </trkpt>
      <trkpt lat="44.24527" lon="0.77798">
        <ele>203</ele>
        <time>2017-04-30T08:30:10.000Z</time>
      </trkpt>
      <trkpt lat="44.24523" lon="0.77799">
        <ele>203</ele>
        <time>2017-04-30T08:30:11.000Z</time>
      </trkpt>
      <trkpt lat="44.24518" lon="0.778">
        <ele>203</ele>
        <time>2017-04-30T08:30:12.000Z</time>
      </trkpt>
      <trkpt lat="44.24514" lon="0.77801">
        <ele>201</ele>
        <time>2017-04-30T08:30:13.000Z</time>
      </trkpt>
      <trkpt lat="44.2451" lon="0.77803">
        <ele>200</ele>
        <time>2017-04-30T08:30:14.000Z</time>
      </trkpt>
      <trkpt lat="44.24506" lon="0.77804">
        <ele>200</ele>
        <time>2017-04-30T08:30:15.000Z</time>
      </trkpt>
      <trkpt lat="44.24501" lon="0.77805">
        <ele>200</ele>
        <time>2017-04-30T08:30:16.000Z</time>
      </trkpt>
      <trkpt lat="44.24497" lon="0.77805">
        <ele>199</ele>
        <time>2017-04-30T08:30:17.000Z</time>
      </trkpt>
      <trkpt lat="44.24492" lon="0.77806">
        <ele>199</ele>
        <time>2017-04-30T08:30:18.000Z</time>
      </trkpt>
      <trkpt lat="44.24488" lon="0.77807">
        <ele>199</ele>
        <time>2017-04-30T08:30:19.000Z</time>
      </trkpt>
      <trkpt lat="44.24482" lon="0.77809">
        <ele>199</ele>
        <time>2017-04-30T08:30:20.000Z</time>
      </trkpt>
      <trkpt lat="44.24475" lon="0.77811">
        <ele>198</ele>
        <time>2017-04-30T08:30:21.000Z</time>
      </trkpt>
      <trkpt lat="44.24469" lon="0.77812">
        <ele>197</ele>
        <time>2017-04-30T08:30:22.000Z</time>
      </trkpt>
      <trkpt lat="44.24463" lon="0.77813">
        <ele>198</ele>
        <time>2017-04-30T08:30:23.000Z</time>
      </trkpt>
      <trkpt lat="44.24458" lon="0.77814">
        <ele>197</ele>
        <time>2017-04-30T08:30:24.000Z</time>
      </trkpt>
      <trkpt lat="44.24452" lon="0.77816">
        <ele>198</ele>
        <time>2017-04-30T08:30:25.000Z</time>
      </trkpt>
      <trkpt lat="44.24439" lon="0.77816">
        <ele>196</ele>
        <time>2017-04-30T08:30:26.000Z</time>
      </trkpt>
      <trkpt lat="44.24439" lon="0.77816">
        <ele>196</ele>
        <time>2017-04-30T08:30:27.000Z</time>
      </trkpt>
      <trkpt lat="44.24433" lon="0.77817">
        <ele>196</ele>
        <time>2017-04-30T08:30:28.000Z</time>
      </trkpt>
      <trkpt lat="44.24427" lon="0.77818">
        <ele>195</ele>
        <time>2017-04-30T08:30:29.000Z</time>
      </trkpt>
      <trkpt lat="44.2442" lon="0.77818">
        <ele>194</ele>
        <time>2017-04-30T08:30:30.000Z</time>
      </trkpt>
      <trkpt lat="44.24413" lon="0.77819">
        <ele>193</ele>
        <time>2017-04-30T08:30:31.000Z</time>
      </trkpt>
      <trkpt lat="44.24406" lon="0.77819">
        <ele>192</ele>
        <time>2017-04-30T08:30:32.000Z</time>
      </trkpt>
      <trkpt lat="44.24385" lon="0.77817">
        <ele>193</ele>
        <time>2017-04-30T08:30:33.000Z</time>
      </trkpt>
      <trkpt lat="44.24385" lon="0.77817">
        <ele>193</ele>
        <time>2017-04-30T08:30:34.000Z</time>
      </trkpt>
      <trkpt lat="44.24378" lon="0.77815">
        <ele>193</ele>
        <time>2017-04-30T08:30:35.000Z</time>
      </trkpt>
      <trkpt lat="44.24368" lon="0.77815">
        <ele>193</ele>
        <time>2017-04-30T08:30:36.000Z</time>
      </trkpt>
      <trkpt lat="44.24356" lon="0.77811">
        <ele>192</ele>
        <time>2017-04-30T08:30:37.000Z</time>
      </trkpt>
      <trkpt lat="44.24356" lon="0.77811">
        <ele>192</ele>
        <time>2017-04-30T08:30:38.000Z</time>
      </trkpt>
      <trkpt lat="44.2435" lon="0.77809">
        <ele>192</ele>
        <time>2017-04-30T08:30:39.000Z</time>
      </trkpt>
      <trkpt lat="44.24343" lon="0.77805">
        <ele>190</ele>
        <time>2017-04-30T08:30:40.000Z</time>
      </trkpt>
      <trkpt lat="44.24336" lon="0.77802">
        <ele>191</ele>
        <time>2017-04-30T08:30:41.000Z</time>
      </trkpt>
      <trkpt lat="44.2433" lon="0.77798">
        <ele>189</ele>
        <time>2017-04-30T08:30:42.000Z</time>
      </trkpt>
      <trkpt lat="44.24323" lon="0.77794">
        <ele>189</ele>
        <time>2017-04-30T08:30:43.000Z</time>
      </trkpt>
      <trkpt lat="44.24304" lon="0.7779">
        <ele>184</ele>
        <time>2017-04-30T08:30:44.000Z</time>
      </trkpt>
      <trkpt lat="44.24304" lon="0.7779">
        <ele>184</ele>
        <time>2017-04-30T08:30:45.000Z</time>
      </trkpt>
      <trkpt lat="44.24298" lon="0.77785">
        <ele>185</ele>
        <time>2017-04-30T08:30:46.000Z</time>
      </trkpt>
      <trkpt lat="44.24291" lon="0.77779">
        <ele>186</ele>
        <time>2017-04-30T08:30:47.000Z</time>
      </trkpt>
      <trkpt lat="44.24277" lon="0.77769">
        <ele>187</ele>
        <time>2017-04-30T08:30:48.000Z</time>
      </trkpt>
      <trkpt lat="44.24277" lon="0.77769">
        <ele>187</ele>
        <time>2017-04-30T08:30:49.000Z</time>
      </trkpt>
      <trkpt lat="44.24271" lon="0.77763">
        <ele>186</ele>
        <time>2017-04-30T08:30:50.000Z</time>
      </trkpt>
      <trkpt lat="44.24258" lon="0.77755">
        <ele>183</ele>
        <time>2017-04-30T08:30:51.000Z</time>
      </trkpt>
      <trkpt lat="44.24258" lon="0.77755">
        <ele>183</ele>
        <time>2017-04-30T08:30:52.000Z</time>
      </trkpt>
      <trkpt lat="44.24252" lon="0.77751">
        <ele>183</ele>
        <time>2017-04-30T08:30:53.000Z</time>
      </trkpt>
      <trkpt lat="44.24245" lon="0.77748">
        <ele>183</ele>
        <time>2017-04-30T08:30:54.000Z</time>
      </trkpt>
      <trkpt lat="44.24234" lon="0.7774">
        <ele>181</ele>
        <time>2017-04-30T08:30:55.000Z</time>
      </trkpt>
      <trkpt lat="44.24234" lon="0.7774">
        <ele>181</ele>
        <time>2017-04-30T08:30:56.000Z</time>
      </trkpt>
      <trkpt lat="44.24227" lon="0.77737">
        <ele>181</ele>
        <time>2017-04-30T08:30:57.000Z</time>
      </trkpt>
      <trkpt lat="44.2422" lon="0.77734">
        <ele>180</ele>
        <time>2017-04-30T08:30:58.000Z</time>
      </trkpt>
      <trkpt lat="44.24214" lon="0.77732">
        <ele>180</ele>
        <time>2017-04-30T08:30:59.000Z</time>
      </trkpt>
      <trkpt lat="44.24207" lon="0.77729">
        <ele>178</ele>
        <time>2017-04-30T08:31:00.000Z</time>
      </trkpt>
      <trkpt lat="44.24201" lon="0.77726">
        <ele>177</ele>
        <time>2017-04-30T08:31:01.000Z</time>
      </trkpt>
      <trkpt lat="44.24194" lon="0.77723">
        <ele>176</ele>
        <time>2017-04-30T08:31:02.000Z</time>
      </trkpt>
      <trkpt lat="44.24187" lon="0.7772">
        <ele>176</ele>
        <time>2017-04-30T08:31:03.000Z</time>
      </trkpt>
      <trkpt lat="44.24182" lon="0.77716">
        <ele>174</ele>
        <time>2017-04-30T08:31:04.000Z</time>
      </trkpt>
      <trkpt lat="44.24175" lon="0.77713">
        <ele>173</ele>
        <time>2017-04-30T08:31:05.000Z</time>
      </trkpt>
      <trkpt lat="44.24169" lon="0.7771">
        <ele>172</ele>
        <time>2017-04-30T08:31:06.000Z</time>
      </trkpt>
      <trkpt lat="44.24163" lon="0.77707">
        <ele>172</ele>
        <time>2017-04-30T08:31:07.000Z</time>
      </trkpt>
      <trkpt lat="44.24158" lon="0.77703">
        <ele>171</ele>
        <time>2017-04-30T08:31:08.000Z</time>
      </trkpt>
      <trkpt lat="44.24151" lon="0.777">
        <ele>171</ele>
        <time>2017-04-30T08:31:09.000Z</time>
      </trkpt>
      <trkpt lat="44.24145" lon="0.77696">
        <ele>170</ele>
        <time>2017-04-30T08:31:10.000Z</time>
      </trkpt>
      <trkpt lat="44.24139" lon="0.77694">
        <ele>170</ele>
        <time>2017-04-30T08:31:11.000Z</time>
      </trkpt>
      <trkpt lat="44.24133" lon="0.77691">
        <ele>169</ele>
        <time>2017-04-30T08:31:12.000Z</time>
      </trkpt>
      <trkpt lat="44.24127" lon="0.77689">
        <ele>169</ele>
        <time>2017-04-30T08:31:13.000Z</time>
      </trkpt>
      <trkpt lat="44.2412" lon="0.77687">
        <ele>169</ele>
        <time>2017-04-30T08:31:14.000Z</time>
      </trkpt>
      <trkpt lat="44.24114" lon="0.77685">
        <ele>168</ele>
        <time>2017-04-30T08:31:15.000Z</time>
      </trkpt>
      <trkpt lat="44.24108" lon="0.77684">
        <ele>168</ele>
        <time>2017-04-30T08:31:16.000Z</time>
      </trkpt>
      <trkpt lat="44.24102" lon="0.77684">
        <ele>168</ele>
        <time>2017-04-30T08:31:17.000Z</time>
      </trkpt>
      <trkpt lat="44.24095" lon="0.77684">
        <ele>168</ele>
        <time>2017-04-30T08:31:18.000Z</time>
      </trkpt>
      <trkpt lat="44.24089" lon="0.77685">
        <ele>168</ele>
        <time>2017-04-30T08:31:19.000Z</time>
      </trkpt>
      <trkpt lat="44.24083" lon="0.77686">
        <ele>168</ele>
        <time>2017-04-30T08:31:20.000Z</time>
      </trkpt>
      <trkpt lat="44.24077" lon="0.77687">
        <ele>168</ele>
        <time>2017-04-30T08:31:21.000Z</time>
      </trkpt>
      <trkpt lat="44.2407" lon="0.77687">
        <ele>167</ele>
        <time>2017-04-30T08:31:22.000Z</time>
      </trkpt>
      <trkpt lat="44.24064" lon="0.77688">
        <ele>167</ele>
        <time>2017-04-30T08:31:23.000Z</time>
      </trkpt>
      <trkpt lat="44.24052" lon="0.7769">
        <ele>167</ele>
        <time>2017-04-30T08:31:24.000Z</time>
      </trkpt>
      <trkpt lat="44.24052" lon="0.7769">
        <ele>167</ele>
        <time>2017-04-30T08:31:25.000Z</time>
      </trkpt>
      <trkpt lat="44.24046" lon="0.7769">
        <ele>167</ele>
        <time>2017-04-30T08:31:26.000Z</time>
      </trkpt>
      <trkpt lat="44.2404" lon="0.77691">
        <ele>167</ele>
        <time>2017-04-30T08:31:27.000Z</time>
      </trkpt>
      <trkpt lat="44.24035" lon="0.77692">
        <ele>167</ele>
        <time>2017-04-30T08:31:28.000Z</time>
      </trkpt>
      <trkpt lat="44.24029" lon="0.77693">
        <ele>167</ele>
        <time>2017-04-30T08:31:29.000Z</time>
      </trkpt>
      <trkpt lat="44.24023" lon="0.77693">
        <ele>167</ele>
        <time>2017-04-30T08:31:30.000Z</time>
      </trkpt>
      <trkpt lat="44.24017" lon="0.77694">
        <ele>167</ele>
        <time>2017-04-30T08:31:31.000Z</time>
      </trkpt>
      <trkpt lat="44.24011" lon="0.77695">
        <ele>167</ele>
        <time>2017-04-30T08:31:32.000Z</time>
      </trkpt>
      <trkpt lat="44.24005" lon="0.77696">
        <ele>166</ele>
        <time>2017-04-30T08:31:33.000Z</time>
      </trkpt>
      <trkpt lat="44.24" lon="0.77697">
        <ele>166</ele>
        <time>2017-04-30T08:31:34.000Z</time>
      </trkpt>
      <trkpt lat="44.23988" lon="0.77699">
        <ele>166</ele>
        <time>2017-04-30T08:31:35.000Z</time>
      </trkpt>
      <trkpt lat="44.23982" lon="0.777">
        <ele>166</ele>
        <time>2017-04-30T08:31:36.000Z</time>
      </trkpt>
      <trkpt lat="44.23977" lon="0.77701">
        <ele>166</ele>
        <time>2017-04-30T08:31:37.000Z</time>
      </trkpt>
      <trkpt lat="44.23977" lon="0.77701">
        <ele>166</ele>
        <time>2017-04-30T08:31:38.000Z</time>
      </trkpt>
      <trkpt lat="44.23965" lon="0.77704">
        <ele>166</ele>
        <time>2017-04-30T08:31:39.000Z</time>
      </trkpt>
      <trkpt lat="44.2396" lon="0.77705">
        <ele>165</ele>
        <time>2017-04-30T08:31:40.000Z</time>
      </trkpt>
      <trkpt lat="44.23954" lon="0.77706">
        <ele>165</ele>
        <time>2017-04-30T08:31:41.000Z</time>
      </trkpt>
      <trkpt lat="44.23954" lon="0.77706">
        <ele>165</ele>
        <time>2017-04-30T08:31:42.000Z</time>
      </trkpt>
      <trkpt lat="44.23948" lon="0.77707">
        <ele>165</ele>
        <time>2017-04-30T08:31:43.000Z</time>
      </trkpt>
      <trkpt lat="44.23943" lon="0.77708">
        <ele>165</ele>
        <time>2017-04-30T08:31:44.000Z</time>
      </trkpt>
      <trkpt lat="44.23937" lon="0.7771">
        <ele>165</ele>
        <time>2017-04-30T08:31:45.000Z</time>
      </trkpt>
      <trkpt lat="44.23932" lon="0.77711">
        <ele>165</ele>
        <time>2017-04-30T08:31:46.000Z</time>
      </trkpt>
      <trkpt lat="44.23926" lon="0.77712">
        <ele>165</ele>
        <time>2017-04-30T08:31:47.000Z</time>
      </trkpt>
      <trkpt lat="44.23921" lon="0.77713">
        <ele>165</ele>
        <time>2017-04-30T08:31:48.000Z</time>
      </trkpt>
      <trkpt lat="44.23915" lon="0.77714">
        <ele>165</ele>
        <time>2017-04-30T08:31:49.000Z</time>
      </trkpt>
      <trkpt lat="44.2391" lon="0.77716">
        <ele>165</ele>
        <time>2017-04-30T08:31:50.000Z</time>
      </trkpt>
      <trkpt lat="44.23905" lon="0.77717">
        <ele>165</ele>
        <time>2017-04-30T08:31:51.000Z</time>
      </trkpt>
      <trkpt lat="44.239" lon="0.77718">
        <ele>165</ele>
        <time>2017-04-30T08:31:52.000Z</time>
      </trkpt>
      <trkpt lat="44.23895" lon="0.77719">
        <ele>165</ele>
        <time>2017-04-30T08:31:53.000Z</time>
      </trkpt>
      <trkpt lat="44.2389" lon="0.7772">
        <ele>165</ele>
        <time>2017-04-30T08:31:54.000Z</time>
      </trkpt>
      <trkpt lat="44.23885" lon="0.77721">
        <ele>165</ele>
        <time>2017-04-30T08:31:55.000Z</time>
      </trkpt>
      <trkpt lat="44.2388" lon="0.77721">
        <ele>166</ele>
        <time>2017-04-30T08:31:56.000Z</time>
      </trkpt>
      <trkpt lat="44.23875" lon="0.77722">
        <ele>166</ele>
        <time>2017-04-30T08:31:57.000Z</time>
      </trkpt>
      <trkpt lat="44.23871" lon="0.77724">
        <ele>166</ele>
        <time>2017-04-30T08:31:58.000Z</time>
      </trkpt>
      <trkpt lat="44.23866" lon="0.77725">
        <ele>166</ele>
        <time>2017-04-30T08:31:59.000Z</time>
      </trkpt>
      <trkpt lat="44.23862" lon="0.77726">
        <ele>166</ele>
        <time>2017-04-30T08:32:00.000Z</time>
      </trkpt>
      <trkpt lat="44.23857" lon="0.77727">
        <ele>166</ele>
        <time>2017-04-30T08:32:01.000Z</time>
      </trkpt>
      <trkpt lat="44.23852" lon="0.77728">
        <ele>166</ele>
        <time>2017-04-30T08:32:02.000Z</time>
      </trkpt>
      <trkpt lat="44.23848" lon="0.77729">
        <ele>166</ele>
        <time>2017-04-30T08:32:03.000Z</time>
      </trkpt>
      <trkpt lat="44.23843" lon="0.77731">
        <ele>166</ele>
        <time>2017-04-30T08:32:04.000Z</time>
      </trkpt>
      <trkpt lat="44.23838" lon="0.77732">
        <ele>166</ele>
        <time>2017-04-30T08:32:05.000Z</time>
      </trkpt>
      <trkpt lat="44.23833" lon="0.77733">
        <ele>166</ele>
        <time>2017-04-30T08:32:06.000Z</time>
      </trkpt>
      <trkpt lat="44.23828" lon="0.77734">
        <ele>166</ele>
        <time>2017-04-30T08:32:07.000Z</time>
      </trkpt>
      <trkpt lat="44.23824" lon="0.77734">
        <ele>166</ele>
        <time>2017-04-30T08:32:08.000Z</time>
      </trkpt>
      <trkpt lat="44.23819" lon="0.77735">
        <ele>166</ele>
        <time>2017-04-30T08:32:09.000Z</time>
      </trkpt>
      <trkpt lat="44.23814" lon="0.77734">
        <ele>166</ele>
        <time>2017-04-30T08:32:10.000Z</time>
      </trkpt>
      <trkpt lat="44.23809" lon="0.77733">
        <ele>166</ele>
        <time>2017-04-30T08:32:11.000Z</time>
      </trkpt>
      <trkpt lat="44.23805" lon="0.77732">
        <ele>166</ele>
        <time>2017-04-30T08:32:12.000Z</time>
      </trkpt>
      <trkpt lat="44.238" lon="0.77731">
        <ele>167</ele>
        <time>2017-04-30T08:32:13.000Z</time>
      </trkpt>
      <trkpt lat="44.23796" lon="0.77729">
        <ele>167</ele>
        <time>2017-04-30T08:32:14.000Z</time>
      </trkpt>
      <trkpt lat="44.23791" lon="0.77728">
        <ele>167</ele>
        <time>2017-04-30T08:32:15.000Z</time>
      </trkpt>
      <trkpt lat="44.23787" lon="0.77726">
        <ele>167</ele>
        <time>2017-04-30T08:32:16.000Z</time>
      </trkpt>
      <trkpt lat="44.23783" lon="0.77724">
        <ele>167</ele>
        <time>2017-04-30T08:32:17.000Z</time>
      </trkpt>
      <trkpt lat="44.23779" lon="0.77722">
        <ele>167</ele>
        <time>2017-04-30T08:32:18.000Z</time>
      </trkpt>
      <trkpt lat="44.23774" lon="0.77719">
        <ele>167</ele>
        <time>2017-04-30T08:32:19.000Z</time>
      </trkpt>
      <trkpt lat="44.2377" lon="0.77717">
        <ele>167</ele>
        <time>2017-04-30T08:32:20.000Z</time>
      </trkpt>
      <trkpt lat="44.23766" lon="0.77715">
        <ele>167</ele>
        <time>2017-04-30T08:32:21.000Z</time>
      </trkpt>
      <trkpt lat="44.23762" lon="0.77713">
        <ele>168</ele>
        <time>2017-04-30T08:32:22.000Z</time>
      </trkpt>
      <trkpt lat="44.23759" lon="0.7771">
        <ele>168</ele>
        <time>2017-04-30T08:32:23.000Z</time>
      </trkpt>
      <trkpt lat="44.23755" lon="0.77708">
        <ele>168</ele>
        <time>2017-04-30T08:32:24.000Z</time>
      </trkpt>
      <trkpt lat="44.23751" lon="0.77705">
        <ele>168</ele>
        <time>2017-04-30T08:32:25.000Z</time>
      </trkpt>
      <trkpt lat="44.23745" lon="0.777">
        <ele>169</ele>
        <time>2017-04-30T08:32:26.000Z</time>
      </trkpt>
      <trkpt lat="44.23745" lon="0.777">
        <ele>169</ele>
        <time>2017-04-30T08:32:27.000Z</time>
      </trkpt>
      <trkpt lat="44.23742" lon="0.77697">
        <ele>169</ele>
        <time>2017-04-30T08:32:28.000Z</time>
      </trkpt>
      <trkpt lat="44.23739" lon="0.77694">
        <ele>169</ele>
        <time>2017-04-30T08:32:29.000Z</time>
      </trkpt>
      <trkpt lat="44.23736" lon="0.77691">
        <ele>169</ele>
        <time>2017-04-30T08:32:30.000Z</time>
      </trkpt>
      <trkpt lat="44.23732" lon="0.77689">
        <ele>169</ele>
        <time>2017-04-30T08:32:31.000Z</time>
      </trkpt>
      <trkpt lat="44.23729" lon="0.77685">
        <ele>168</ele>
        <time>2017-04-30T08:32:32.000Z</time>
      </trkpt>
      <trkpt lat="44.2372" lon="0.77679">
        <ele>168</ele>
        <time>2017-04-30T08:32:33.000Z</time>
      </trkpt>
      <trkpt lat="44.2372" lon="0.77679">
        <ele>168</ele>
        <time>2017-04-30T08:32:34.000Z</time>
      </trkpt>
      <trkpt lat="44.23715" lon="0.77675">
        <ele>167</ele>
        <time>2017-04-30T08:32:35.000Z</time>
      </trkpt>
      <trkpt lat="44.2371" lon="0.77672">
        <ele>167</ele>
        <time>2017-04-30T08:32:36.000Z</time>
      </trkpt>
      <trkpt lat="44.23705" lon="0.77669">
        <ele>166</ele>
        <time>2017-04-30T08:32:37.000Z</time>
      </trkpt>
      <trkpt lat="44.237" lon="0.77665">
        <ele>166</ele>
        <time>2017-04-30T08:32:38.000Z</time>
      </trkpt>
      <trkpt lat="44.23695" lon="0.77662">
        <ele>166</ele>
        <time>2017-04-30T08:32:39.000Z</time>
      </trkpt>
      <trkpt lat="44.23689" lon="0.77659">
        <ele>166</ele>
        <time>2017-04-30T08:32:40.000Z</time>
      </trkpt>
      <trkpt lat="44.23684" lon="0.77657">
        <ele>166</ele>
        <time>2017-04-30T08:32:41.000Z</time>
      </trkpt>
      <trkpt lat="44.23679" lon="0.77655">
        <ele>166</ele>
        <time>2017-04-30T08:32:42.000Z</time>
      </trkpt>
      <trkpt lat="44.23674" lon="0.77652">
        <ele>166</ele>
        <time>2017-04-30T08:32:43.000Z</time>
      </trkpt>
      <trkpt lat="44.2367" lon="0.7765">
        <ele>166</ele>
        <time>2017-04-30T08:32:44.000Z</time>
      </trkpt>
      <trkpt lat="44.23665" lon="0.77648">
        <ele>166</ele>
        <time>2017-04-30T08:32:45.000Z</time>
      </trkpt>
      <trkpt lat="44.2366" lon="0.77646">
        <ele>166</ele>
        <time>2017-04-30T08:32:46.000Z</time>
      </trkpt>
      <trkpt lat="44.23655" lon="0.77643">
        <ele>166</ele>
        <time>2017-04-30T08:32:47.000Z</time>
      </trkpt>
      <trkpt lat="44.23651" lon="0.77641">
        <ele>166</ele>
        <time>2017-04-30T08:32:48.000Z</time>
      </trkpt>
      <trkpt lat="44.23646" lon="0.77639">
        <ele>165</ele>
        <time>2017-04-30T08:32:49.000Z</time>
      </trkpt>
      <trkpt lat="44.23641" lon="0.77637">
        <ele>165</ele>
        <time>2017-04-30T08:32:50.000Z</time>
      </trkpt>
      <trkpt lat="44.23636" lon="0.77635">
        <ele>165</ele>
        <time>2017-04-30T08:32:51.000Z</time>
      </trkpt>
      <trkpt lat="44.23631" lon="0.77632">
        <ele>165</ele>
        <time>2017-04-30T08:32:52.000Z</time>
      </trkpt>
      <trkpt lat="44.23626" lon="0.7763">
        <ele>165</ele>
        <time>2017-04-30T08:32:53.000Z</time>
      </trkpt>
      <trkpt lat="44.23621" lon="0.77628">
        <ele>165</ele>
        <time>2017-04-30T08:32:54.000Z</time>
      </trkpt>
      <trkpt lat="44.23616" lon="0.77627">
        <ele>165</ele>
        <time>2017-04-30T08:32:55.000Z</time>
      </trkpt>
      <trkpt lat="44.2361" lon="0.77626">
        <ele>164</ele>
        <time>2017-04-30T08:32:56.000Z</time>
      </trkpt>
      <trkpt lat="44.23605" lon="0.77625">
        <ele>164</ele>
        <time>2017-04-30T08:32:57.000Z</time>
      </trkpt>
      <trkpt lat="44.23599" lon="0.77624">
        <ele>163</ele>
        <time>2017-04-30T08:32:58.000Z</time>
      </trkpt>
      <trkpt lat="44.23593" lon="0.77624">
        <ele>163</ele>
        <time>2017-04-30T08:32:59.000Z</time>
      </trkpt>
      <trkpt lat="44.23587" lon="0.77624">
        <ele>163</ele>
        <time>2017-04-30T08:33:00.000Z</time>
      </trkpt>
      <trkpt lat="44.2358" lon="0.77623">
        <ele>162</ele>
        <time>2017-04-30T08:33:01.000Z</time>
      </trkpt>
      <trkpt lat="44.23574" lon="0.77622">
        <ele>161</ele>
        <time>2017-04-30T08:33:02.000Z</time>
      </trkpt>
      <trkpt lat="44.23567" lon="0.7762">
        <ele>161</ele>
        <time>2017-04-30T08:33:03.000Z</time>
      </trkpt>
      <trkpt lat="44.23561" lon="0.77618">
        <ele>160</ele>
        <time>2017-04-30T08:33:04.000Z</time>
      </trkpt>
      <trkpt lat="44.23555" lon="0.77617">
        <ele>160</ele>
        <time>2017-04-30T08:33:05.000Z</time>
      </trkpt>
      <trkpt lat="44.23549" lon="0.77616">
        <ele>160</ele>
        <time>2017-04-30T08:33:06.000Z</time>
      </trkpt>
      <trkpt lat="44.23543" lon="0.77615">
        <ele>159</ele>
        <time>2017-04-30T08:33:07.000Z</time>
      </trkpt>
      <trkpt lat="44.23537" lon="0.77613">
        <ele>159</ele>
        <time>2017-04-30T08:33:08.000Z</time>
      </trkpt>
      <trkpt lat="44.23532" lon="0.77612">
        <ele>159</ele>
        <time>2017-04-30T08:33:09.000Z</time>
      </trkpt>
      <trkpt lat="44.23527" lon="0.77609">
        <ele>159</ele>
        <time>2017-04-30T08:33:10.000Z</time>
      </trkpt>
      <trkpt lat="44.23523" lon="0.77608">
        <ele>159</ele>
        <time>2017-04-30T08:33:11.000Z</time>
      </trkpt>
      <trkpt lat="44.23519" lon="0.77608">
        <ele>158</ele>
        <time>2017-04-30T08:33:12.000Z</time>
      </trkpt>
      <trkpt lat="44.23511" lon="0.77611">
        <ele>159</ele>
        <time>2017-04-30T08:33:13.000Z</time>
      </trkpt>
      <trkpt lat="44.23511" lon="0.77611">
        <ele>159</ele>
        <time>2017-04-30T08:33:14.000Z</time>
      </trkpt>
      <trkpt lat="44.23506" lon="0.77613">
        <ele>159</ele>
        <time>2017-04-30T08:33:15.000Z</time>
      </trkpt>
      <trkpt lat="44.23502" lon="0.77614">
        <ele>159</ele>
        <time>2017-04-30T08:33:16.000Z</time>
      </trkpt>
      <trkpt lat="44.23497" lon="0.77616">
        <ele>159</ele>
        <time>2017-04-30T08:33:17.000Z</time>
      </trkpt>
      <trkpt lat="44.23492" lon="0.77617">
        <ele>159</ele>
        <time>2017-04-30T08:33:18.000Z</time>
      </trkpt>
      <trkpt lat="44.23488" lon="0.77619">
        <ele>159</ele>
        <time>2017-04-30T08:33:19.000Z</time>
      </trkpt>
      <trkpt lat="44.23483" lon="0.7762">
        <ele>159</ele>
        <time>2017-04-30T08:33:20.000Z</time>
      </trkpt>
      <trkpt lat="44.23478" lon="0.77621">
        <ele>159</ele>
        <time>2017-04-30T08:33:21.000Z</time>
      </trkpt>
      <trkpt lat="44.23474" lon="0.77622">
        <ele>160</ele>
        <time>2017-04-30T08:33:22.000Z</time>
      </trkpt>
      <trkpt lat="44.23469" lon="0.77624">
        <ele>160</ele>
        <time>2017-04-30T08:33:23.000Z</time>
      </trkpt>
      <trkpt lat="44.23464" lon="0.77625">
        <ele>160</ele>
        <time>2017-04-30T08:33:24.000Z</time>
      </trkpt>
      <trkpt lat="44.2346" lon="0.77626">
        <ele>160</ele>
        <time>2017-04-30T08:33:25.000Z</time>
      </trkpt>
      <trkpt lat="44.23455" lon="0.77628">
        <ele>160</ele>
        <time>2017-04-30T08:33:26.000Z</time>
      </trkpt>
      <trkpt lat="44.23451" lon="0.77629">
        <ele>160</ele>
        <time>2017-04-30T08:33:27.000Z</time>
      </trkpt>
      <trkpt lat="44.23446" lon="0.7763">
        <ele>160</ele>
        <time>2017-04-30T08:33:28.000Z</time>
      </trkpt>
      <trkpt lat="44.23442" lon="0.77631">
        <ele>161</ele>
        <time>2017-04-30T08:33:29.000Z</time>
      </trkpt>
      <trkpt lat="44.23437" lon="0.77632">
        <ele>161</ele>
        <time>2017-04-30T08:33:30.000Z</time>
      </trkpt>
      <trkpt lat="44.23433" lon="0.77633">
        <ele>161</ele>
        <time>2017-04-30T08:33:31.000Z</time>
      </trkpt>
      <trkpt lat="44.23428" lon="0.77633">
        <ele>161</ele>
        <time>2017-04-30T08:33:32.000Z</time>
      </trkpt>
      <trkpt lat="44.23424" lon="0.77634">
        <ele>161</ele>
        <time>2017-04-30T08:33:33.000Z</time>
      </trkpt>
      <trkpt lat="44.2342" lon="0.77635">
        <ele>161</ele>
        <time>2017-04-30T08:33:34.000Z</time>
      </trkpt>
      <trkpt lat="44.23411" lon="0.77637">
        <ele>161</ele>
        <time>2017-04-30T08:33:35.000Z</time>
      </trkpt>
      <trkpt lat="44.23411" lon="0.77637">
        <ele>161</ele>
        <time>2017-04-30T08:33:36.000Z</time>
      </trkpt>
      <trkpt lat="44.23407" lon="0.77638">
        <ele>162</ele>
        <time>2017-04-30T08:33:37.000Z</time>
      </trkpt>
      <trkpt lat="44.23403" lon="0.77638">
        <ele>162</ele>
        <time>2017-04-30T08:33:38.000Z</time>
      </trkpt>
      <trkpt lat="44.23399" lon="0.77639">
        <ele>162</ele>
        <time>2017-04-30T08:33:39.000Z</time>
      </trkpt>
      <trkpt lat="44.23395" lon="0.77639">
        <ele>162</ele>
        <time>2017-04-30T08:33:40.000Z</time>
      </trkpt>
      <trkpt lat="44.23391" lon="0.7764">
        <ele>162</ele>
        <time>2017-04-30T08:33:41.000Z</time>
      </trkpt>
      <trkpt lat="44.23383" lon="0.77641">
        <ele>163</ele>
        <time>2017-04-30T08:33:42.000Z</time>
      </trkpt>
      <trkpt lat="44.23383" lon="0.77641">
        <ele>163</ele>
        <time>2017-04-30T08:33:43.000Z</time>
      </trkpt>
      <trkpt lat="44.23379" lon="0.77641">
        <ele>163</ele>
        <time>2017-04-30T08:33:44.000Z</time>
      </trkpt>
      <trkpt lat="44.23375" lon="0.77642">
        <ele>163</ele>
        <time>2017-04-30T08:33:45.000Z</time>
      </trkpt>
      <trkpt lat="44.23372" lon="0.77643">
        <ele>163</ele>
        <time>2017-04-30T08:33:46.000Z</time>
      </trkpt>
      <trkpt lat="44.23368" lon="0.77643">
        <ele>164</ele>
        <time>2017-04-30T08:33:47.000Z</time>
      </trkpt>
      <trkpt lat="44.23364" lon="0.77643">
        <ele>164</ele>
        <time>2017-04-30T08:33:48.000Z</time>
      </trkpt>
      <trkpt lat="44.2336" lon="0.77644">
        <ele>164</ele>
        <time>2017-04-30T08:33:49.000Z</time>
      </trkpt>
      <trkpt lat="44.23356" lon="0.77644">
        <ele>164</ele>
        <time>2017-04-30T08:33:50.000Z</time>
      </trkpt>
      <trkpt lat="44.23352" lon="0.77645">
        <ele>164</ele>
        <time>2017-04-30T08:33:51.000Z</time>
      </trkpt>
      <trkpt lat="44.23348" lon="0.77646">
        <ele>165</ele>
        <time>2017-04-30T08:33:52.000Z</time>
      </trkpt>
      <trkpt lat="44.23344" lon="0.77647">
        <ele>165</ele>
        <time>2017-04-30T08:33:53.000Z</time>
      </trkpt>
      <trkpt lat="44.2334" lon="0.77647">
        <ele>165</ele>
        <time>2017-04-30T08:33:54.000Z</time>
      </trkpt>
      <trkpt lat="44.23336" lon="0.77648">
        <ele>165</ele>
        <time>2017-04-30T08:33:55.000Z</time>
      </trkpt>
      <trkpt lat="44.23332" lon="0.77649">
        <ele>166</ele>
        <time>2017-04-30T08:33:56.000Z</time>
      </trkpt>
      <trkpt lat="44.23328" lon="0.7765">
        <ele>166</ele>
        <time>2017-04-30T08:33:57.000Z</time>
      </trkpt>
      <trkpt lat="44.23324" lon="0.77651">
        <ele>166</ele>
        <time>2017-04-30T08:33:58.000Z</time>
      </trkpt>
      <trkpt lat="44.2332" lon="0.77653">
        <ele>166</ele>
        <time>2017-04-30T08:33:59.000Z</time>
      </trkpt>
      <trkpt lat="44.23317" lon="0.77655">
        <ele>167</ele>
        <time>2017-04-30T08:34:00.000Z</time>
      </trkpt>
      <trkpt lat="44.23313" lon="0.77657">
        <ele>167</ele>
        <time>2017-04-30T08:34:01.000Z</time>
      </trkpt>
      <trkpt lat="44.2331" lon="0.77659">
        <ele>167</ele>
        <time>2017-04-30T08:34:02.000Z</time>
      </trkpt>
      <trkpt lat="44.23307" lon="0.77661">
        <ele>168</ele>
        <time>2017-04-30T08:34:03.000Z</time>
      </trkpt>
      <trkpt lat="44.23301" lon="0.77664">
        <ele>168</ele>
        <time>2017-04-30T08:34:04.000Z</time>
      </trkpt>
      <trkpt lat="44.23301" lon="0.77664">
        <ele>168</ele>
        <time>2017-04-30T08:34:05.000Z</time>
      </trkpt>
      <trkpt lat="44.23298" lon="0.77666">
        <ele>168</ele>
        <time>2017-04-30T08:34:06.000Z</time>
      </trkpt>
      <trkpt lat="44.23295" lon="0.77668">
        <ele>169</ele>
        <time>2017-04-30T08:34:07.000Z</time>
      </trkpt>
      <trkpt lat="44.23292" lon="0.7767">
        <ele>169</ele>
        <time>2017-04-30T08:34:08.000Z</time>
      </trkpt>
      <trkpt lat="44.23289" lon="0.77671">
        <ele>169</ele>
        <time>2017-04-30T08:34:09.000Z</time>
      </trkpt>
      <trkpt lat="44.23286" lon="0.77673">
        <ele>169</ele>
        <time>2017-04-30T08:34:10.000Z</time>
      </trkpt>
      <trkpt lat="44.23284" lon="0.77675">
        <ele>169</ele>
        <time>2017-04-30T08:34:11.000Z</time>
      </trkpt>
      <trkpt lat="44.2328" lon="0.77677">
        <ele>170</ele>
        <time>2017-04-30T08:34:12.000Z</time>
      </trkpt>
      <trkpt lat="44.23277" lon="0.77679">
        <ele>170</ele>
        <time>2017-04-30T08:34:13.000Z</time>
      </trkpt>
      <trkpt lat="44.23272" lon="0.77684">
        <ele>171</ele>
        <time>2017-04-30T08:34:14.000Z</time>
      </trkpt>
      <trkpt lat="44.23272" lon="0.77684">
        <ele>171</ele>
        <time>2017-04-30T08:34:15.000Z</time>
      </trkpt>
      <trkpt lat="44.2327" lon="0.77686">
        <ele>171</ele>
        <time>2017-04-30T08:34:16.000Z</time>
      </trkpt>
      <trkpt lat="44.23267" lon="0.77688">
        <ele>171</ele>
        <time>2017-04-30T08:34:17.000Z</time>
      </trkpt>
      <trkpt lat="44.23265" lon="0.7769">
        <ele>172</ele>
        <time>2017-04-30T08:34:18.000Z</time>
      </trkpt>
      <trkpt lat="44.23262" lon="0.77692">
        <ele>172</ele>
        <time>2017-04-30T08:34:19.000Z</time>
      </trkpt>
      <trkpt lat="44.2326" lon="0.77694">
        <ele>173</ele>
        <time>2017-04-30T08:34:20.000Z</time>
      </trkpt>
      <trkpt lat="44.23258" lon="0.77696">
        <ele>173</ele>
        <time>2017-04-30T08:34:21.000Z</time>
      </trkpt>
      <trkpt lat="44.23255" lon="0.77698">
        <ele>173</ele>
        <time>2017-04-30T08:34:22.000Z</time>
      </trkpt>
      <trkpt lat="44.23253" lon="0.777">
        <ele>173</ele>
        <time>2017-04-30T08:34:23.000Z</time>
      </trkpt>
      <trkpt lat="44.23251" lon="0.77702">
        <ele>174</ele>
        <time>2017-04-30T08:34:24.000Z</time>
      </trkpt>
      <trkpt lat="44.23249" lon="0.77704">
        <ele>174</ele>
        <time>2017-04-30T08:34:25.000Z</time>
      </trkpt>
      <trkpt lat="44.23247" lon="0.77706">
        <ele>175</ele>
        <time>2017-04-30T08:34:26.000Z</time>
      </trkpt>
      <trkpt lat="44.23244" lon="0.77709">
        <ele>175</ele>
        <time>2017-04-30T08:34:27.000Z</time>
      </trkpt>
      <trkpt lat="44.23242" lon="0.77711">
        <ele>175</ele>
        <time>2017-04-30T08:34:28.000Z</time>
      </trkpt>
      <trkpt lat="44.23239" lon="0.77714">
        <ele>176</ele>
        <time>2017-04-30T08:34:29.000Z</time>
      </trkpt>
      <trkpt lat="44.23237" lon="0.77716">
        <ele>177</ele>
        <time>2017-04-30T08:34:30.000Z</time>
      </trkpt>
      <trkpt lat="44.23235" lon="0.77718">
        <ele>178</ele>
        <time>2017-04-30T08:34:31.000Z</time>
      </trkpt>
      <trkpt lat="44.23233" lon="0.77721">
        <ele>178</ele>
        <time>2017-04-30T08:34:32.000Z</time>
      </trkpt>
      <trkpt lat="44.2323" lon="0.77723">
        <ele>178</ele>
        <time>2017-04-30T08:34:33.000Z</time>
      </trkpt>
      <trkpt lat="44.23228" lon="0.77725">
        <ele>179</ele>
        <time>2017-04-30T08:34:34.000Z</time>
      </trkpt>
      <trkpt lat="44.23226" lon="0.77728">
        <ele>180</ele>
        <time>2017-04-30T08:34:35.000Z</time>
      </trkpt>
      <trkpt lat="44.23224" lon="0.77731">
        <ele>181</ele>
        <time>2017-04-30T08:34:36.000Z</time>
      </trkpt>
      <trkpt lat="44.23222" lon="0.77734">
        <ele>181</ele>
        <time>2017-04-30T08:34:37.000Z</time>
      </trkpt>
      <trkpt lat="44.2322" lon="0.77737">
        <ele>182</ele>
        <time>2017-04-30T08:34:38.000Z</time>
      </trkpt>
      <trkpt lat="44.23217" lon="0.77739">
        <ele>182</ele>
        <time>2017-04-30T08:34:39.000Z</time>
      </trkpt>
      <trkpt lat="44.23215" lon="0.77742">
        <ele>182</ele>
        <time>2017-04-30T08:34:40.000Z</time>
      </trkpt>
      <trkpt lat="44.23213" lon="0.77745">
        <ele>183</ele>
        <time>2017-04-30T08:34:41.000Z</time>
      </trkpt>
      <trkpt lat="44.23211" lon="0.77748">
        <ele>183</ele>
        <time>2017-04-30T08:34:42.000Z</time>
      </trkpt>
      <trkpt lat="44.23208" lon="0.7775">
        <ele>184</ele>
        <time>2017-04-30T08:34:43.000Z</time>
      </trkpt>
      <trkpt lat="44.23204" lon="0.77756">
        <ele>184</ele>
        <time>2017-04-30T08:34:44.000Z</time>
      </trkpt>
      <trkpt lat="44.23204" lon="0.77756">
        <ele>184</ele>
        <time>2017-04-30T08:34:45.000Z</time>
      </trkpt>
      <trkpt lat="44.23201" lon="0.7776">
        <ele>184</ele>
        <time>2017-04-30T08:34:46.000Z</time>
      </trkpt>
      <trkpt lat="44.23198" lon="0.77762">
        <ele>183</ele>
        <time>2017-04-30T08:34:47.000Z</time>
      </trkpt>
      <trkpt lat="44.23195" lon="0.77765">
        <ele>183</ele>
        <time>2017-04-30T08:34:48.000Z</time>
      </trkpt>
      <trkpt lat="44.23193" lon="0.77768">
        <ele>183</ele>
        <time>2017-04-30T08:34:49.000Z</time>
      </trkpt>
      <trkpt lat="44.23188" lon="0.77772">
        <ele>184</ele>
        <time>2017-04-30T08:34:50.000Z</time>
      </trkpt>
      <trkpt lat="44.23185" lon="0.77774">
        <ele>185</ele>
        <time>2017-04-30T08:34:51.000Z</time>
      </trkpt>
      <trkpt lat="44.23185" lon="0.77774">
        <ele>185</ele>
        <time>2017-04-30T08:34:52.000Z</time>
      </trkpt>
      <trkpt lat="44.23183" lon="0.77775">
        <ele>185</ele>
        <time>2017-04-30T08:34:53.000Z</time>
      </trkpt>
      <trkpt lat="44.2318" lon="0.77777">
        <ele>185</ele>
        <time>2017-04-30T08:34:54.000Z</time>
      </trkpt>
      <trkpt lat="44.23178" lon="0.77778">
        <ele>185</ele>
        <time>2017-04-30T08:34:55.000Z</time>
      </trkpt>
      <trkpt lat="44.23177" lon="0.77779">
        <ele>186</ele>
        <time>2017-04-30T08:34:56.000Z</time>
      </trkpt>
      <trkpt lat="44.23175" lon="0.7778">
        <ele>186</ele>
        <time>2017-04-30T08:34:57.000Z</time>
      </trkpt>
      <trkpt lat="44.23173" lon="0.77782">
        <ele>186</ele>
        <time>2017-04-30T08:34:58.000Z</time>
      </trkpt>
      <trkpt lat="44.2317" lon="0.77783">
        <ele>186</ele>
        <time>2017-04-30T08:34:59.000Z</time>
      </trkpt>
      <trkpt lat="44.23168" lon="0.77785">
        <ele>186</ele>
        <time>2017-04-30T08:35:00.000Z</time>
      </trkpt>
      <trkpt lat="44.23165" lon="0.77786">
        <ele>184</ele>
        <time>2017-04-30T08:35:01.000Z</time>
      </trkpt>
      <trkpt lat="44.23162" lon="0.77787">
        <ele>184</ele>
        <time>2017-04-30T08:35:02.000Z</time>
      </trkpt>
      <trkpt lat="44.23155" lon="0.77793">
        <ele>183</ele>
        <time>2017-04-30T08:35:03.000Z</time>
      </trkpt>
      <trkpt lat="44.23152" lon="0.77795">
        <ele>183</ele>
        <time>2017-04-30T08:35:04.000Z</time>
      </trkpt>
      <trkpt lat="44.2315" lon="0.77797">
        <ele>183</ele>
        <time>2017-04-30T08:35:05.000Z</time>
      </trkpt>
      <trkpt lat="44.23147" lon="0.77798">
        <ele>183</ele>
        <time>2017-04-30T08:35:06.000Z</time>
      </trkpt>
      <trkpt lat="44.23147" lon="0.77798">
        <ele>183</ele>
        <time>2017-04-30T08:35:07.000Z</time>
      </trkpt>
      <trkpt lat="44.23145" lon="0.778">
        <ele>183</ele>
        <time>2017-04-30T08:35:08.000Z</time>
      </trkpt>
      <trkpt lat="44.23142" lon="0.77802">
        <ele>183</ele>
        <time>2017-04-30T08:35:09.000Z</time>
      </trkpt>
      <trkpt lat="44.23139" lon="0.77804">
        <ele>183</ele>
        <time>2017-04-30T08:35:10.000Z</time>
      </trkpt>
      <trkpt lat="44.23136" lon="0.77806">
        <ele>183</ele>
        <time>2017-04-30T08:35:11.000Z</time>
      </trkpt>
      <trkpt lat="44.23133" lon="0.77808">
        <ele>183</ele>
        <time>2017-04-30T08:35:12.000Z</time>
      </trkpt>
      <trkpt lat="44.2313" lon="0.7781">
        <ele>183</ele>
        <time>2017-04-30T08:35:13.000Z</time>
      </trkpt>
      <trkpt lat="44.23127" lon="0.77811">
        <ele>183</ele>
        <time>2017-04-30T08:35:14.000Z</time>
      </trkpt>
      <trkpt lat="44.23123" lon="0.77813">
        <ele>183</ele>
        <time>2017-04-30T08:35:15.000Z</time>
      </trkpt>
      <trkpt lat="44.23119" lon="0.77814">
        <ele>183</ele>
        <time>2017-04-30T08:35:16.000Z</time>
      </trkpt>
      <trkpt lat="44.23115" lon="0.77815">
        <ele>183</ele>
        <time>2017-04-30T08:35:17.000Z</time>
      </trkpt>
      <trkpt lat="44.23107" lon="0.77817">
        <ele>183</ele>
        <time>2017-04-30T08:35:18.000Z</time>
      </trkpt>
      <trkpt lat="44.23102" lon="0.77818">
        <ele>183</ele>
        <time>2017-04-30T08:35:19.000Z</time>
      </trkpt>
      <trkpt lat="44.23098" lon="0.77818">
        <ele>184</ele>
        <time>2017-04-30T08:35:20.000Z</time>
      </trkpt>
      <trkpt lat="44.23094" lon="0.77817">
        <ele>184</ele>
        <time>2017-04-30T08:35:21.000Z</time>
      </trkpt>
      <trkpt lat="44.2309" lon="0.77817">
        <ele>184</ele>
        <time>2017-04-30T08:35:22.000Z</time>
      </trkpt>
      <trkpt lat="44.23086" lon="0.77816">
        <ele>185</ele>
        <time>2017-04-30T08:35:23.000Z</time>
      </trkpt>
      <trkpt lat="44.23082" lon="0.77815">
        <ele>186</ele>
        <time>2017-04-30T08:35:24.000Z</time>
      </trkpt>
      <trkpt lat="44.23078" lon="0.77814">
        <ele>187</ele>
        <time>2017-04-30T08:35:25.000Z</time>
      </trkpt>
      <trkpt lat="44.23074" lon="0.77813">
        <ele>188</ele>
        <time>2017-04-30T08:35:26.000Z</time>
      </trkpt>
      <trkpt lat="44.2307" lon="0.77812">
        <ele>189</ele>
        <time>2017-04-30T08:35:27.000Z</time>
      </trkpt>
      <trkpt lat="44.23066" lon="0.77811">
        <ele>189</ele>
        <time>2017-04-30T08:35:28.000Z</time>
      </trkpt>
      <trkpt lat="44.23062" lon="0.77809">
        <ele>190</ele>
        <time>2017-04-30T08:35:29.000Z</time>
      </trkpt>
      <trkpt lat="44.23058" lon="0.77808">
        <ele>190</ele>
        <time>2017-04-30T08:35:30.000Z</time>
      </trkpt>
      <trkpt lat="44.23054" lon="0.77806">
        <ele>190</ele>
        <time>2017-04-30T08:35:31.000Z</time>
      </trkpt>
      <trkpt lat="44.23051" lon="0.77805">
        <ele>190</ele>
        <time>2017-04-30T08:35:32.000Z</time>
      </trkpt>
      <trkpt lat="44.23046" lon="0.77803">
        <ele>190</ele>
        <time>2017-04-30T08:35:33.000Z</time>
      </trkpt>
      <trkpt lat="44.23042" lon="0.77802">
        <ele>189</ele>
        <time>2017-04-30T08:35:34.000Z</time>
      </trkpt>
      <trkpt lat="44.23038" lon="0.77801">
        <ele>189</ele>
        <time>2017-04-30T08:35:35.000Z</time>
      </trkpt>
      <trkpt lat="44.23034" lon="0.778">
        <ele>189</ele>
        <time>2017-04-30T08:35:36.000Z</time>
      </trkpt>
      <trkpt lat="44.23031" lon="0.77799">
        <ele>189</ele>
        <time>2017-04-30T08:35:37.000Z</time>
      </trkpt>
      <trkpt lat="44.23027" lon="0.77798">
        <ele>189</ele>
        <time>2017-04-30T08:35:38.000Z</time>
      </trkpt>
      <trkpt lat="44.23024" lon="0.77798">
        <ele>190</ele>
        <time>2017-04-30T08:35:39.000Z</time>
      </trkpt>
      <trkpt lat="44.23021" lon="0.77798">
        <ele>190</ele>
        <time>2017-04-30T08:35:40.000Z</time>
      </trkpt>
      <trkpt lat="44.23019" lon="0.77797">
        <ele>190</ele>
        <time>2017-04-30T08:35:41.000Z</time>
      </trkpt>
      <trkpt lat="44.23015" lon="0.77795">
        <ele>190</ele>
        <time>2017-04-30T08:35:42.000Z</time>
      </trkpt>
      <trkpt lat="44.23013" lon="0.77792">
        <ele>191</ele>
        <time>2017-04-30T08:35:43.000Z</time>
      </trkpt>
      <trkpt lat="44.2301" lon="0.77788">
        <ele>192</ele>
        <time>2017-04-30T08:35:44.000Z</time>
      </trkpt>
      <trkpt lat="44.23008" lon="0.77785">
        <ele>193</ele>
        <time>2017-04-30T08:35:45.000Z</time>
      </trkpt>
      <trkpt lat="44.23005" lon="0.77781">
        <ele>194</ele>
        <time>2017-04-30T08:35:46.000Z</time>
      </trkpt>
      <trkpt lat="44.23003" lon="0.77779">
        <ele>195</ele>
        <time>2017-04-30T08:35:47.000Z</time>
      </trkpt>
      <trkpt lat="44.23" lon="0.77776">
        <ele>196</ele>
        <time>2017-04-30T08:35:48.000Z</time>
      </trkpt>
      <trkpt lat="44.22998" lon="0.77773">
        <ele>198</ele>
        <time>2017-04-30T08:35:49.000Z</time>
      </trkpt>
      <trkpt lat="44.22996" lon="0.7777">
        <ele>199</ele>
        <time>2017-04-30T08:35:50.000Z</time>
      </trkpt>
      <trkpt lat="44.22992" lon="0.77767">
        <ele>199</ele>
        <time>2017-04-30T08:35:51.000Z</time>
      </trkpt>
      <trkpt lat="44.2299" lon="0.77764">
        <ele>199</ele>
        <time>2017-04-30T08:35:52.000Z</time>
      </trkpt>
      <trkpt lat="44.22987" lon="0.77761">
        <ele>199</ele>
        <time>2017-04-30T08:35:53.000Z</time>
      </trkpt>
      <trkpt lat="44.22984" lon="0.77758">
        <ele>200</ele>
        <time>2017-04-30T08:35:54.000Z</time>
      </trkpt>
      <trkpt lat="44.22982" lon="0.77755">
        <ele>201</ele>
        <time>2017-04-30T08:35:55.000Z</time>
      </trkpt>
      <trkpt lat="44.22979" lon="0.77752">
        <ele>201</ele>
        <time>2017-04-30T08:35:56.000Z</time>
      </trkpt>
      <trkpt lat="44.22976" lon="0.77748">
        <ele>202</ele>
        <time>2017-04-30T08:35:57.000Z</time>
      </trkpt>
      <trkpt lat="44.22974" lon="0.77745">
        <ele>202</ele>
        <time>2017-04-30T08:35:58.000Z</time>
      </trkpt>
      <trkpt lat="44.22971" lon="0.77741">
        <ele>200</ele>
        <time>2017-04-30T08:35:59.000Z</time>
      </trkpt>
      <trkpt lat="44.22968" lon="0.77737">
        <ele>198</ele>
        <time>2017-04-30T08:36:00.000Z</time>
      </trkpt>
      <trkpt lat="44.22965" lon="0.77733">
        <ele>196</ele>
        <time>2017-04-30T08:36:01.000Z</time>
      </trkpt>
      <trkpt lat="44.22962" lon="0.77729">
        <ele>195</ele>
        <time>2017-04-30T08:36:02.000Z</time>
      </trkpt>
      <trkpt lat="44.22958" lon="0.77726">
        <ele>194</ele>
        <time>2017-04-30T08:36:03.000Z</time>
      </trkpt>
      <trkpt lat="44.22955" lon="0.77723">
        <ele>193</ele>
        <time>2017-04-30T08:36:04.000Z</time>
      </trkpt>
      <trkpt lat="44.22952" lon="0.77719">
        <ele>192</ele>
        <time>2017-04-30T08:36:05.000Z</time>
      </trkpt>
      <trkpt lat="44.22948" lon="0.77715">
        <ele>193</ele>
        <time>2017-04-30T08:36:06.000Z</time>
      </trkpt>
      <trkpt lat="44.22944" lon="0.77711">
        <ele>193</ele>
        <time>2017-04-30T08:36:07.000Z</time>
      </trkpt>
      <trkpt lat="44.2294" lon="0.77708">
        <ele>192</ele>
        <time>2017-04-30T08:36:08.000Z</time>
      </trkpt>
      <trkpt lat="44.22937" lon="0.77704">
        <ele>192</ele>
        <time>2017-04-30T08:36:09.000Z</time>
      </trkpt>
      <trkpt lat="44.22933" lon="0.77699">
        <ele>192</ele>
        <time>2017-04-30T08:36:10.000Z</time>
      </trkpt>
      <trkpt lat="44.22929" lon="0.77695">
        <ele>191</ele>
        <time>2017-04-30T08:36:11.000Z</time>
      </trkpt>
      <trkpt lat="44.22924" lon="0.77691">
        <ele>191</ele>
        <time>2017-04-30T08:36:12.000Z</time>
      </trkpt>
      <trkpt lat="44.2292" lon="0.77686">
        <ele>191</ele>
        <time>2017-04-30T08:36:13.000Z</time>
      </trkpt>
      <trkpt lat="44.22916" lon="0.77681">
        <ele>191</ele>
        <time>2017-04-30T08:36:14.000Z</time>
      </trkpt>
      <trkpt lat="44.22913" lon="0.77676">
        <ele>190</ele>
        <time>2017-04-30T08:36:15.000Z</time>
      </trkpt>
      <trkpt lat="44.22909" lon="0.7767">
        <ele>190</ele>
        <time>2017-04-30T08:36:16.000Z</time>
      </trkpt>
      <trkpt lat="44.22905" lon="0.77664">
        <ele>190</ele>
        <time>2017-04-30T08:36:17.000Z</time>
      </trkpt>
      <trkpt lat="44.22902" lon="0.77659">
        <ele>189</ele>
        <time>2017-04-30T08:36:18.000Z</time>
      </trkpt>
      <trkpt lat="44.22898" lon="0.77653">
        <ele>190</ele>
        <time>2017-04-30T08:36:19.000Z</time>
      </trkpt>
      <trkpt lat="44.22895" lon="0.77647">
        <ele>190</ele>
        <time>2017-04-30T08:36:20.000Z</time>
      </trkpt>
      <trkpt lat="44.22892" lon="0.77641">
        <ele>190</ele>
        <time>2017-04-30T08:36:21.000Z</time>
      </trkpt>
      <trkpt lat="44.22889" lon="0.77635">
        <ele>190</ele>
        <time>2017-04-30T08:36:22.000Z</time>
      </trkpt>
      <trkpt lat="44.22886" lon="0.77629">
        <ele>190</ele>
        <time>2017-04-30T08:36:23.000Z</time>
      </trkpt>
      <trkpt lat="44.22884" lon="0.77624">
        <ele>190</ele>
        <time>2017-04-30T08:36:24.000Z</time>
      </trkpt>
      <trkpt lat="44.22881" lon="0.77618">
        <ele>190</ele>
        <time>2017-04-30T08:36:25.000Z</time>
      </trkpt>
      <trkpt lat="44.22879" lon="0.77613">
        <ele>190</ele>
        <time>2017-04-30T08:36:26.000Z</time>
      </trkpt>
      <trkpt lat="44.22877" lon="0.77607">
        <ele>190</ele>
        <time>2017-04-30T08:36:27.000Z</time>
      </trkpt>
      <trkpt lat="44.22874" lon="0.77602">
        <ele>190</ele>
        <time>2017-04-30T08:36:28.000Z</time>
      </trkpt>
      <trkpt lat="44.22872" lon="0.77598">
        <ele>190</ele>
        <time>2017-04-30T08:36:29.000Z</time>
      </trkpt>
      <trkpt lat="44.22869" lon="0.77594">
        <ele>190</ele>
        <time>2017-04-30T08:36:30.000Z</time>
      </trkpt>
      <trkpt lat="44.22866" lon="0.7759">
        <ele>190</ele>
        <time>2017-04-30T08:36:31.000Z</time>
      </trkpt>
      <trkpt lat="44.22862" lon="0.77587">
        <ele>190</ele>
        <time>2017-04-30T08:36:32.000Z</time>
      </trkpt>
      <trkpt lat="44.22858" lon="0.77585">
        <ele>190</ele>
        <time>2017-04-30T08:36:33.000Z</time>
      </trkpt>
      <trkpt lat="44.22853" lon="0.77582">
        <ele>189</ele>
        <time>2017-04-30T08:36:34.000Z</time>
      </trkpt>
      <trkpt lat="44.22847" lon="0.7758">
        <ele>188</ele>
        <time>2017-04-30T08:36:35.000Z</time>
      </trkpt>
      <trkpt lat="44.22842" lon="0.77578">
        <ele>188</ele>
        <time>2017-04-30T08:36:36.000Z</time>
      </trkpt>
      <trkpt lat="44.22836" lon="0.77575">
        <ele>187</ele>
        <time>2017-04-30T08:36:37.000Z</time>
      </trkpt>
      <trkpt lat="44.22829" lon="0.77573">
        <ele>187</ele>
        <time>2017-04-30T08:36:38.000Z</time>
      </trkpt>
      <trkpt lat="44.22823" lon="0.77571">
        <ele>186</ele>
        <time>2017-04-30T08:36:39.000Z</time>
      </trkpt>
      <trkpt lat="44.22817" lon="0.77569">
        <ele>186</ele>
        <time>2017-04-30T08:36:40.000Z</time>
      </trkpt>
      <trkpt lat="44.2281" lon="0.77568">
        <ele>186</ele>
        <time>2017-04-30T08:36:41.000Z</time>
      </trkpt>
      <trkpt lat="44.22804" lon="0.77566">
        <ele>185</ele>
        <time>2017-04-30T08:36:42.000Z</time>
      </trkpt>
      <trkpt lat="44.22797" lon="0.77565">
        <ele>185</ele>
        <time>2017-04-30T08:36:43.000Z</time>
      </trkpt>
      <trkpt lat="44.22791" lon="0.77564">
        <ele>184</ele>
        <time>2017-04-30T08:36:44.000Z</time>
      </trkpt>
      <trkpt lat="44.22784" lon="0.77563">
        <ele>184</ele>
        <time>2017-04-30T08:36:45.000Z</time>
      </trkpt>
      <trkpt lat="44.22778" lon="0.77561">
        <ele>183</ele>
        <time>2017-04-30T08:36:46.000Z</time>
      </trkpt>
      <trkpt lat="44.22771" lon="0.7756">
        <ele>183</ele>
        <time>2017-04-30T08:36:47.000Z</time>
      </trkpt>
      <trkpt lat="44.22765" lon="0.77558">
        <ele>183</ele>
        <time>2017-04-30T08:36:48.000Z</time>
      </trkpt>
      <trkpt lat="44.22758" lon="0.77557">
        <ele>183</ele>
        <time>2017-04-30T08:36:49.000Z</time>
      </trkpt>
      <trkpt lat="44.22752" lon="0.77555">
        <ele>182</ele>
        <time>2017-04-30T08:36:50.000Z</time>
      </trkpt>
      <trkpt lat="44.22745" lon="0.77552">
        <ele>182</ele>
        <time>2017-04-30T08:36:51.000Z</time>
      </trkpt>
      <trkpt lat="44.22739" lon="0.77548">
        <ele>182</ele>
        <time>2017-04-30T08:36:52.000Z</time>
      </trkpt>
      <trkpt lat="44.22733" lon="0.77545">
        <ele>181</ele>
        <time>2017-04-30T08:36:53.000Z</time>
      </trkpt>
      <trkpt lat="44.22728" lon="0.77542">
        <ele>181</ele>
        <time>2017-04-30T08:36:54.000Z</time>
      </trkpt>
      <trkpt lat="44.22722" lon="0.77539">
        <ele>181</ele>
        <time>2017-04-30T08:36:55.000Z</time>
      </trkpt>
      <trkpt lat="44.22717" lon="0.77536">
        <ele>181</ele>
        <time>2017-04-30T08:36:56.000Z</time>
      </trkpt>
      <trkpt lat="44.22712" lon="0.77532">
        <ele>181</ele>
        <time>2017-04-30T08:36:57.000Z</time>
      </trkpt>
      <trkpt lat="44.22708" lon="0.77528">
        <ele>180</ele>
        <time>2017-04-30T08:36:58.000Z</time>
      </trkpt>
      <trkpt lat="44.22704" lon="0.77524">
        <ele>180</ele>
        <time>2017-04-30T08:36:59.000Z</time>
      </trkpt>
      <trkpt lat="44.227" lon="0.7752">
        <ele>180</ele>
        <time>2017-04-30T08:37:00.000Z</time>
      </trkpt>
      <trkpt lat="44.22696" lon="0.77515">
        <ele>179</ele>
        <time>2017-04-30T08:37:01.000Z</time>
      </trkpt>
      <trkpt lat="44.22692" lon="0.7751">
        <ele>179</ele>
        <time>2017-04-30T08:37:02.000Z</time>
      </trkpt>
      <trkpt lat="44.22688" lon="0.77504">
        <ele>179</ele>
        <time>2017-04-30T08:37:03.000Z</time>
      </trkpt>
      <trkpt lat="44.22684" lon="0.77499">
        <ele>178</ele>
        <time>2017-04-30T08:37:04.000Z</time>
      </trkpt>
      <trkpt lat="44.2268" lon="0.77493">
        <ele>178</ele>
        <time>2017-04-30T08:37:05.000Z</time>
      </trkpt>
      <trkpt lat="44.22676" lon="0.77488">
        <ele>178</ele>
        <time>2017-04-30T08:37:06.000Z</time>
      </trkpt>
      <trkpt lat="44.22672" lon="0.77482">
        <ele>178</ele>
        <time>2017-04-30T08:37:07.000Z</time>
      </trkpt>
      <trkpt lat="44.22668" lon="0.77476">
        <ele>177</ele>
        <time>2017-04-30T08:37:08.000Z</time>
      </trkpt>
      <trkpt lat="44.2266" lon="0.77465">
        <ele>177</ele>
        <time>2017-04-30T08:37:09.000Z</time>
      </trkpt>
      <trkpt lat="44.2266" lon="0.77465">
        <ele>177</ele>
        <time>2017-04-30T08:37:10.000Z</time>
      </trkpt>
      <trkpt lat="44.22656" lon="0.7746">
        <ele>177</ele>
        <time>2017-04-30T08:37:11.000Z</time>
      </trkpt>
      <trkpt lat="44.22652" lon="0.77455">
        <ele>176</ele>
        <time>2017-04-30T08:37:12.000Z</time>
      </trkpt>
      <trkpt lat="44.22648" lon="0.77449">
        <ele>176</ele>
        <time>2017-04-30T08:37:13.000Z</time>
      </trkpt>
      <trkpt lat="44.22644" lon="0.77443">
        <ele>176</ele>
        <time>2017-04-30T08:37:14.000Z</time>
      </trkpt>
      <trkpt lat="44.2264" lon="0.77437">
        <ele>175</ele>
        <time>2017-04-30T08:37:15.000Z</time>
      </trkpt>
      <trkpt lat="44.22635" lon="0.77431">
        <ele>175</ele>
        <time>2017-04-30T08:37:16.000Z</time>
      </trkpt>
      <trkpt lat="44.2263" lon="0.77426">
        <ele>175</ele>
        <time>2017-04-30T08:37:17.000Z</time>
      </trkpt>
      <trkpt lat="44.22624" lon="0.77423">
        <ele>175</ele>
        <time>2017-04-30T08:37:18.000Z</time>
      </trkpt>
      <trkpt lat="44.22617" lon="0.77422">
        <ele>174</ele>
        <time>2017-04-30T08:37:19.000Z</time>
      </trkpt>
      <trkpt lat="44.2261" lon="0.77422">
        <ele>173</ele>
        <time>2017-04-30T08:37:20.000Z</time>
      </trkpt>
      <trkpt lat="44.22603" lon="0.77421">
        <ele>173</ele>
        <time>2017-04-30T08:37:21.000Z</time>
      </trkpt>
      <trkpt lat="44.22596" lon="0.77421">
        <ele>172</ele>
        <time>2017-04-30T08:37:22.000Z</time>
      </trkpt>
      <trkpt lat="44.22588" lon="0.7742">
        <ele>171</ele>
        <time>2017-04-30T08:37:23.000Z</time>
      </trkpt>
      <trkpt lat="44.22581" lon="0.77419">
        <ele>171</ele>
        <time>2017-04-30T08:37:24.000Z</time>
      </trkpt>
      <trkpt lat="44.22574" lon="0.77419">
        <ele>170</ele>
        <time>2017-04-30T08:37:25.000Z</time>
      </trkpt>
      <trkpt lat="44.22567" lon="0.77418">
        <ele>170</ele>
        <time>2017-04-30T08:37:26.000Z</time>
      </trkpt>
      <trkpt lat="44.22559" lon="0.77418">
        <ele>169</ele>
        <time>2017-04-30T08:37:27.000Z</time>
      </trkpt>
      <trkpt lat="44.22553" lon="0.77417">
        <ele>169</ele>
        <time>2017-04-30T08:37:28.000Z</time>
      </trkpt>
      <trkpt lat="44.22546" lon="0.77416">
        <ele>169</ele>
        <time>2017-04-30T08:37:29.000Z</time>
      </trkpt>
      <trkpt lat="44.22539" lon="0.77415">
        <ele>168</ele>
        <time>2017-04-30T08:37:30.000Z</time>
      </trkpt>
      <trkpt lat="44.22532" lon="0.77415">
        <ele>168</ele>
        <time>2017-04-30T08:37:31.000Z</time>
      </trkpt>
      <trkpt lat="44.22524" lon="0.77414">
        <ele>167</ele>
        <time>2017-04-30T08:37:32.000Z</time>
      </trkpt>
      <trkpt lat="44.22517" lon="0.77414">
        <ele>167</ele>
        <time>2017-04-30T08:37:33.000Z</time>
      </trkpt>
      <trkpt lat="44.22509" lon="0.77413">
        <ele>166</ele>
        <time>2017-04-30T08:37:34.000Z</time>
      </trkpt>
      <trkpt lat="44.22502" lon="0.77413">
        <ele>166</ele>
        <time>2017-04-30T08:37:35.000Z</time>
      </trkpt>
      <trkpt lat="44.22494" lon="0.77414">
        <ele>165</ele>
        <time>2017-04-30T08:37:36.000Z</time>
      </trkpt>
      <trkpt lat="44.22487" lon="0.77414">
        <ele>165</ele>
        <time>2017-04-30T08:37:37.000Z</time>
      </trkpt>
      <trkpt lat="44.22479" lon="0.77414">
        <ele>165</ele>
        <time>2017-04-30T08:37:38.000Z</time>
      </trkpt>
      <trkpt lat="44.22471" lon="0.77414">
        <ele>164</ele>
        <time>2017-04-30T08:37:39.000Z</time>
      </trkpt>
      <trkpt lat="44.22464" lon="0.77414">
        <ele>164</ele>
        <time>2017-04-30T08:37:40.000Z</time>
      </trkpt>
      <trkpt lat="44.22457" lon="0.77415">
        <ele>163</ele>
        <time>2017-04-30T08:37:41.000Z</time>
      </trkpt>
      <trkpt lat="44.22449" lon="0.77415">
        <ele>163</ele>
        <time>2017-04-30T08:37:42.000Z</time>
      </trkpt>
      <trkpt lat="44.22442" lon="0.77416">
        <ele>163</ele>
        <time>2017-04-30T08:37:43.000Z</time>
      </trkpt>
      <trkpt lat="44.22435" lon="0.77416">
        <ele>163</ele>
        <time>2017-04-30T08:37:44.000Z</time>
      </trkpt>
      <trkpt lat="44.22429" lon="0.77417">
        <ele>162</ele>
        <time>2017-04-30T08:37:45.000Z</time>
      </trkpt>
      <trkpt lat="44.22422" lon="0.77418">
        <ele>162</ele>
        <time>2017-04-30T08:37:46.000Z</time>
      </trkpt>
      <trkpt lat="44.22416" lon="0.77418">
        <ele>161</ele>
        <time>2017-04-30T08:37:47.000Z</time>
      </trkpt>
      <trkpt lat="44.2241" lon="0.77418">
        <ele>161</ele>
        <time>2017-04-30T08:37:48.000Z</time>
      </trkpt>
      <trkpt lat="44.22404" lon="0.77418">
        <ele>161</ele>
        <time>2017-04-30T08:37:49.000Z</time>
      </trkpt>
      <trkpt lat="44.22397" lon="0.77418">
        <ele>160</ele>
        <time>2017-04-30T08:37:50.000Z</time>
      </trkpt>
      <trkpt lat="44.22392" lon="0.7742">
        <ele>160</ele>
        <time>2017-04-30T08:37:51.000Z</time>
      </trkpt>
      <trkpt lat="44.22388" lon="0.77423">
        <ele>159</ele>
        <time>2017-04-30T08:37:52.000Z</time>
      </trkpt>
      <trkpt lat="44.22385" lon="0.77427">
        <ele>159</ele>
        <time>2017-04-30T08:37:53.000Z</time>
      </trkpt>
      <trkpt lat="44.22384" lon="0.77433">
        <ele>159</ele>
        <time>2017-04-30T08:37:54.000Z</time>
      </trkpt>
      <trkpt lat="44.22384" lon="0.77439">
        <ele>158</ele>
        <time>2017-04-30T08:37:55.000Z</time>
      </trkpt>
      <trkpt lat="44.22384" lon="0.77445">
        <ele>157</ele>
        <time>2017-04-30T08:37:56.000Z</time>
      </trkpt>
      <trkpt lat="44.22384" lon="0.77451">
        <ele>157</ele>
        <time>2017-04-30T08:37:57.000Z</time>
      </trkpt>
      <trkpt lat="44.22382" lon="0.77455">
        <ele>156</ele>
        <time>2017-04-30T08:37:58.000Z</time>
      </trkpt>
      <trkpt lat="44.2238" lon="0.77457">
        <ele>155</ele>
        <time>2017-04-30T08:37:59.000Z</time>
      </trkpt>
      <trkpt lat="44.22376" lon="0.77458">
        <ele>157</ele>
        <time>2017-04-30T08:38:00.000Z</time>
      </trkpt>
      <trkpt lat="44.22372" lon="0.77459">
        <ele>158</ele>
        <time>2017-04-30T08:38:01.000Z</time>
      </trkpt>
      <trkpt lat="44.22368" lon="0.77459">
        <ele>158</ele>
        <time>2017-04-30T08:38:02.000Z</time>
      </trkpt>
      <trkpt lat="44.22364" lon="0.77456">
        <ele>157</ele>
        <time>2017-04-30T08:38:03.000Z</time>
      </trkpt>
      <trkpt lat="44.22359" lon="0.77453">
        <ele>157</ele>
        <time>2017-04-30T08:38:04.000Z</time>
      </trkpt>
      <trkpt lat="44.22354" lon="0.7745">
        <ele>157</ele>
        <time>2017-04-30T08:38:05.000Z</time>
      </trkpt>
      <trkpt lat="44.22348" lon="0.77447">
        <ele>157</ele>
        <time>2017-04-30T08:38:06.000Z</time>
      </trkpt>
      <trkpt lat="44.22342" lon="0.77444">
        <ele>157</ele>
        <time>2017-04-30T08:38:07.000Z</time>
      </trkpt>
      <trkpt lat="44.22336" lon="0.77442">
        <ele>157</ele>
        <time>2017-04-30T08:38:08.000Z</time>
      </trkpt>
      <trkpt lat="44.2233" lon="0.7744">
        <ele>157</ele>
        <time>2017-04-30T08:38:09.000Z</time>
      </trkpt>
      <trkpt lat="44.22325" lon="0.77438">
        <ele>157</ele>
        <time>2017-04-30T08:38:10.000Z</time>
      </trkpt>
      <trkpt lat="44.22319" lon="0.77437">
        <ele>157</ele>
        <time>2017-04-30T08:38:11.000Z</time>
      </trkpt>
      <trkpt lat="44.22313" lon="0.77435">
        <ele>157</ele>
        <time>2017-04-30T08:38:12.000Z</time>
      </trkpt>
      <trkpt lat="44.22307" lon="0.77434">
        <ele>157</ele>
        <time>2017-04-30T08:38:13.000Z</time>
      </trkpt>
      <trkpt lat="44.22301" lon="0.77433">
        <ele>157</ele>
        <time>2017-04-30T08:38:14.000Z</time>
      </trkpt>
      <trkpt lat="44.22295" lon="0.77433">
        <ele>157</ele>
        <time>2017-04-30T08:38:15.000Z</time>
      </trkpt>
      <trkpt lat="44.22289" lon="0.77433">
        <ele>157</ele>
        <time>2017-04-30T08:38:16.000Z</time>
      </trkpt>
      <trkpt lat="44.22283" lon="0.77433">
        <ele>157</ele>
        <time>2017-04-30T08:38:17.000Z</time>
      </trkpt>
      <trkpt lat="44.22277" lon="0.77434">
        <ele>157</ele>
        <time>2017-04-30T08:38:18.000Z</time>
      </trkpt>
      <trkpt lat="44.22271" lon="0.77436">
        <ele>157</ele>
        <time>2017-04-30T08:38:19.000Z</time>
      </trkpt>
      <trkpt lat="44.22265" lon="0.77437">
        <ele>157</ele>
        <time>2017-04-30T08:38:20.000Z</time>
      </trkpt>
      <trkpt lat="44.22259" lon="0.7744">
        <ele>157</ele>
        <time>2017-04-30T08:38:21.000Z</time>
      </trkpt>
      <trkpt lat="44.22253" lon="0.77442">
        <ele>157</ele>
        <time>2017-04-30T08:38:22.000Z</time>
      </trkpt>
      <trkpt lat="44.22248" lon="0.77445">
        <ele>157</ele>
        <time>2017-04-30T08:38:23.000Z</time>
      </trkpt>
      <trkpt lat="44.22241" lon="0.77447">
        <ele>156</ele>
        <time>2017-04-30T08:38:24.000Z</time>
      </trkpt>
      <trkpt lat="44.22235" lon="0.77449">
        <ele>156</ele>
        <time>2017-04-30T08:38:25.000Z</time>
      </trkpt>
      <trkpt lat="44.22229" lon="0.77451">
        <ele>156</ele>
        <time>2017-04-30T08:38:26.000Z</time>
      </trkpt>
      <trkpt lat="44.22223" lon="0.77453">
        <ele>156</ele>
        <time>2017-04-30T08:38:27.000Z</time>
      </trkpt>
      <trkpt lat="44.22217" lon="0.77455">
        <ele>156</ele>
        <time>2017-04-30T08:38:28.000Z</time>
      </trkpt>
      <trkpt lat="44.22211" lon="0.77457">
        <ele>156</ele>
        <time>2017-04-30T08:38:29.000Z</time>
      </trkpt>
      <trkpt lat="44.22204" lon="0.77458">
        <ele>156</ele>
        <time>2017-04-30T08:38:30.000Z</time>
      </trkpt>
      <trkpt lat="44.22198" lon="0.7746">
        <ele>156</ele>
        <time>2017-04-30T08:38:31.000Z</time>
      </trkpt>
      <trkpt lat="44.22192" lon="0.77461">
        <ele>156</ele>
        <time>2017-04-30T08:38:32.000Z</time>
      </trkpt>
      <trkpt lat="44.22186" lon="0.77462">
        <ele>156</ele>
        <time>2017-04-30T08:38:33.000Z</time>
      </trkpt>
      <trkpt lat="44.2218" lon="0.77462">
        <ele>156</ele>
        <time>2017-04-30T08:38:34.000Z</time>
      </trkpt>
      <trkpt lat="44.22173" lon="0.77463">
        <ele>156</ele>
        <time>2017-04-30T08:38:35.000Z</time>
      </trkpt>
      <trkpt lat="44.22167" lon="0.77463">
        <ele>156</ele>
        <time>2017-04-30T08:38:36.000Z</time>
      </trkpt>
      <trkpt lat="44.22161" lon="0.77462">
        <ele>156</ele>
        <time>2017-04-30T08:38:37.000Z</time>
      </trkpt>
      <trkpt lat="44.22155" lon="0.77462">
        <ele>156</ele>
        <time>2017-04-30T08:38:38.000Z</time>
      </trkpt>
      <trkpt lat="44.22149" lon="0.77462">
        <ele>155</ele>
        <time>2017-04-30T08:38:39.000Z</time>
      </trkpt>
      <trkpt lat="44.22143" lon="0.77462">
        <ele>155</ele>
        <time>2017-04-30T08:38:40.000Z</time>
      </trkpt>
      <trkpt lat="44.22137" lon="0.77463">
        <ele>155</ele>
        <time>2017-04-30T08:38:41.000Z</time>
      </trkpt>
      <trkpt lat="44.22132" lon="0.77464">
        <ele>155</ele>
        <time>2017-04-30T08:38:42.000Z</time>
      </trkpt>
      <trkpt lat="44.22126" lon="0.77465">
        <ele>155</ele>
        <time>2017-04-30T08:38:43.000Z</time>
      </trkpt>
      <trkpt lat="44.22119" lon="0.77466">
        <ele>155</ele>
        <time>2017-04-30T08:38:44.000Z</time>
      </trkpt>
      <trkpt lat="44.22112" lon="0.77467">
        <ele>154</ele>
        <time>2017-04-30T08:38:45.000Z</time>
      </trkpt>
      <trkpt lat="44.22105" lon="0.77468">
        <ele>154</ele>
        <time>2017-04-30T08:38:46.000Z</time>
      </trkpt>
      <trkpt lat="44.22097" lon="0.77468">
        <ele>153</ele>
        <time>2017-04-30T08:38:47.000Z</time>
      </trkpt>
      <trkpt lat="44.2209" lon="0.77467">
        <ele>154</ele>
        <time>2017-04-30T08:38:48.000Z</time>
      </trkpt>
      <trkpt lat="44.22082" lon="0.77466">
        <ele>154</ele>
        <time>2017-04-30T08:38:49.000Z</time>
      </trkpt>
      <trkpt lat="44.22075" lon="0.77465">
        <ele>154</ele>
        <time>2017-04-30T08:38:50.000Z</time>
      </trkpt>
      <trkpt lat="44.22068" lon="0.77464">
        <ele>154</ele>
        <time>2017-04-30T08:38:51.000Z</time>
      </trkpt>
      <trkpt lat="44.2206" lon="0.77463">
        <ele>153</ele>
        <time>2017-04-30T08:38:52.000Z</time>
      </trkpt>
      <trkpt lat="44.22052" lon="0.77461">
        <ele>153</ele>
        <time>2017-04-30T08:38:53.000Z</time>
      </trkpt>
      <trkpt lat="44.22045" lon="0.7746">
        <ele>153</ele>
        <time>2017-04-30T08:38:54.000Z</time>
      </trkpt>
      <trkpt lat="44.22037" lon="0.77458">
        <ele>153</ele>
        <time>2017-04-30T08:38:55.000Z</time>
      </trkpt>
      <trkpt lat="44.2203" lon="0.77457">
        <ele>153</ele>
        <time>2017-04-30T08:38:56.000Z</time>
      </trkpt>
      <trkpt lat="44.22022" lon="0.77455">
        <ele>153</ele>
        <time>2017-04-30T08:38:57.000Z</time>
      </trkpt>
      <trkpt lat="44.22015" lon="0.77453">
        <ele>153</ele>
        <time>2017-04-30T08:38:58.000Z</time>
      </trkpt>
      <trkpt lat="44.22008" lon="0.77451">
        <ele>153</ele>
        <time>2017-04-30T08:38:59.000Z</time>
      </trkpt>
      <trkpt lat="44.22001" lon="0.7745">
        <ele>152</ele>
        <time>2017-04-30T08:39:00.000Z</time>
      </trkpt>
      <trkpt lat="44.21994" lon="0.77449">
        <ele>152</ele>
        <time>2017-04-30T08:39:01.000Z</time>
      </trkpt>
      <trkpt lat="44.21987" lon="0.77449">
        <ele>152</ele>
        <time>2017-04-30T08:39:02.000Z</time>
      </trkpt>
      <trkpt lat="44.2198" lon="0.7745">
        <ele>152</ele>
        <time>2017-04-30T08:39:03.000Z</time>
      </trkpt>
      <trkpt lat="44.21973" lon="0.77451">
        <ele>152</ele>
        <time>2017-04-30T08:39:04.000Z</time>
      </trkpt>
      <trkpt lat="44.21966" lon="0.7745">
        <ele>152</ele>
        <time>2017-04-30T08:39:05.000Z</time>
      </trkpt>
      <trkpt lat="44.21959" lon="0.77446">
        <ele>151</ele>
        <time>2017-04-30T08:39:06.000Z</time>
      </trkpt>
      <trkpt lat="44.21954" lon="0.77442">
        <ele>151</ele>
        <time>2017-04-30T08:39:07.000Z</time>
      </trkpt>
      <trkpt lat="44.21948" lon="0.77438">
        <ele>151</ele>
        <time>2017-04-30T08:39:08.000Z</time>
      </trkpt>
      <trkpt lat="44.21942" lon="0.77434">
        <ele>151</ele>
        <time>2017-04-30T08:39:09.000Z</time>
      </trkpt>
      <trkpt lat="44.21937" lon="0.7743">
        <ele>150</ele>
        <time>2017-04-30T08:39:10.000Z</time>
      </trkpt>
      <trkpt lat="44.21931" lon="0.77426">
        <ele>150</ele>
        <time>2017-04-30T08:39:11.000Z</time>
      </trkpt>
      <trkpt lat="44.21926" lon="0.77422">
        <ele>150</ele>
        <time>2017-04-30T08:39:12.000Z</time>
      </trkpt>
      <trkpt lat="44.2192" lon="0.77418">
        <ele>150</ele>
        <time>2017-04-30T08:39:13.000Z</time>
      </trkpt>
      <trkpt lat="44.21915" lon="0.77414">
        <ele>150</ele>
        <time>2017-04-30T08:39:14.000Z</time>
      </trkpt>
      <trkpt lat="44.21909" lon="0.7741">
        <ele>150</ele>
        <time>2017-04-30T08:39:15.000Z</time>
      </trkpt>
      <trkpt lat="44.21904" lon="0.77406">
        <ele>150</ele>
        <time>2017-04-30T08:39:16.000Z</time>
      </trkpt>
      <trkpt lat="44.21899" lon="0.77402">
        <ele>150</ele>
        <time>2017-04-30T08:39:17.000Z</time>
      </trkpt>
      <trkpt lat="44.21894" lon="0.77398">
        <ele>150</ele>
        <time>2017-04-30T08:39:18.000Z</time>
      </trkpt>
      <trkpt lat="44.21889" lon="0.77393">
        <ele>151</ele>
        <time>2017-04-30T08:39:19.000Z</time>
      </trkpt>
      <trkpt lat="44.21884" lon="0.77389">
        <ele>151</ele>
        <time>2017-04-30T08:39:20.000Z</time>
      </trkpt>
      <trkpt lat="44.21879" lon="0.77385">
        <ele>151</ele>
        <time>2017-04-30T08:39:21.000Z</time>
      </trkpt>
      <trkpt lat="44.21875" lon="0.77381">
        <ele>151</ele>
        <time>2017-04-30T08:39:22.000Z</time>
      </trkpt>
      <trkpt lat="44.2187" lon="0.77377">
        <ele>151</ele>
        <time>2017-04-30T08:39:23.000Z</time>
      </trkpt>
      <trkpt lat="44.21865" lon="0.77373">
        <ele>151</ele>
        <time>2017-04-30T08:39:24.000Z</time>
      </trkpt>
      <trkpt lat="44.21861" lon="0.77369">
        <ele>151</ele>
        <time>2017-04-30T08:39:25.000Z</time>
      </trkpt>
      <trkpt lat="44.21856" lon="0.77366">
        <ele>151</ele>
        <time>2017-04-30T08:39:26.000Z</time>
      </trkpt>
      <trkpt lat="44.21851" lon="0.77362">
        <ele>151</ele>
        <time>2017-04-30T08:39:27.000Z</time>
      </trkpt>
      <trkpt lat="44.21847" lon="0.77358">
        <ele>151</ele>
        <time>2017-04-30T08:39:28.000Z</time>
      </trkpt>
      <trkpt lat="44.21843" lon="0.77355">
        <ele>152</ele>
        <time>2017-04-30T08:39:29.000Z</time>
      </trkpt>
      <trkpt lat="44.21838" lon="0.77353">
        <ele>152</ele>
        <time>2017-04-30T08:39:30.000Z</time>
      </trkpt>
      <trkpt lat="44.21834" lon="0.7735">
        <ele>152</ele>
        <time>2017-04-30T08:39:31.000Z</time>
      </trkpt>
      <trkpt lat="44.2183" lon="0.77349">
        <ele>152</ele>
        <time>2017-04-30T08:39:32.000Z</time>
      </trkpt>
      <trkpt lat="44.21826" lon="0.77347">
        <ele>152</ele>
        <time>2017-04-30T08:39:33.000Z</time>
      </trkpt>
      <trkpt lat="44.21823" lon="0.77345">
        <ele>153</ele>
        <time>2017-04-30T08:39:34.000Z</time>
      </trkpt>
      <trkpt lat="44.2182" lon="0.77343">
        <ele>153</ele>
        <time>2017-04-30T08:39:35.000Z</time>
      </trkpt>
      <trkpt lat="44.21818" lon="0.77341">
        <ele>153</ele>
        <time>2017-04-30T08:39:36.000Z</time>
      </trkpt>
      <trkpt lat="44.21815" lon="0.77339">
        <ele>154</ele>
        <time>2017-04-30T08:39:37.000Z</time>
      </trkpt>
      <trkpt lat="44.21812" lon="0.77337">
        <ele>154</ele>
        <time>2017-04-30T08:39:38.000Z</time>
      </trkpt>
      <trkpt lat="44.21809" lon="0.77335">
        <ele>155</ele>
        <time>2017-04-30T08:39:39.000Z</time>
      </trkpt>
      <trkpt lat="44.21805" lon="0.77332">
        <ele>155</ele>
        <time>2017-04-30T08:39:40.000Z</time>
      </trkpt>
      <trkpt lat="44.21802" lon="0.77329">
        <ele>155</ele>
        <time>2017-04-30T08:39:41.000Z</time>
      </trkpt>
      <trkpt lat="44.21799" lon="0.77326">
        <ele>155</ele>
        <time>2017-04-30T08:39:42.000Z</time>
      </trkpt>
      <trkpt lat="44.21796" lon="0.77323">
        <ele>155</ele>
        <time>2017-04-30T08:39:43.000Z</time>
      </trkpt>
      <trkpt lat="44.21793" lon="0.77319">
        <ele>155</ele>
        <time>2017-04-30T08:39:44.000Z</time>
      </trkpt>
      <trkpt lat="44.2179" lon="0.77316">
        <ele>156</ele>
        <time>2017-04-30T08:39:45.000Z</time>
      </trkpt>
      <trkpt lat="44.21787" lon="0.77314">
        <ele>156</ele>
        <time>2017-04-30T08:39:46.000Z</time>
      </trkpt>
      <trkpt lat="44.21783" lon="0.77312">
        <ele>156</ele>
        <time>2017-04-30T08:39:47.000Z</time>
      </trkpt>
      <trkpt lat="44.2178" lon="0.77311">
        <ele>157</ele>
        <time>2017-04-30T08:39:48.000Z</time>
      </trkpt>
      <trkpt lat="44.21777" lon="0.77309">
        <ele>157</ele>
        <time>2017-04-30T08:39:49.000Z</time>
      </trkpt>
      <trkpt lat="44.21773" lon="0.77307">
        <ele>157</ele>
        <time>2017-04-30T08:39:50.000Z</time>
      </trkpt>
      <trkpt lat="44.2177" lon="0.77306">
        <ele>158</ele>
        <time>2017-04-30T08:39:51.000Z</time>
      </trkpt>
      <trkpt lat="44.21766" lon="0.77305">
        <ele>158</ele>
        <time>2017-04-30T08:39:52.000Z</time>
      </trkpt>
      <trkpt lat="44.21763" lon="0.77304">
        <ele>158</ele>
        <time>2017-04-30T08:39:53.000Z</time>
      </trkpt>
      <trkpt lat="44.2176" lon="0.77304">
        <ele>158</ele>
        <time>2017-04-30T08:39:54.000Z</time>
      </trkpt>
      <trkpt lat="44.21757" lon="0.77304">
        <ele>159</ele>
        <time>2017-04-30T08:39:55.000Z</time>
      </trkpt>
      <trkpt lat="44.21755" lon="0.77304">
        <ele>159</ele>
        <time>2017-04-30T08:39:56.000Z</time>
      </trkpt>
      <trkpt lat="44.21752" lon="0.77304">
        <ele>160</ele>
        <time>2017-04-30T08:39:57.000Z</time>
      </trkpt>
      <trkpt lat="44.21749" lon="0.77304">
        <ele>160</ele>
        <time>2017-04-30T08:39:58.000Z</time>
      </trkpt>
      <trkpt lat="44.21746" lon="0.77304">
        <ele>160</ele>
        <time>2017-04-30T08:39:59.000Z</time>
      </trkpt>
      <trkpt lat="44.21743" lon="0.77303">
        <ele>160</ele>
        <time>2017-04-30T08:40:00.000Z</time>
      </trkpt>
      <trkpt lat="44.21739" lon="0.77303">
        <ele>159</ele>
        <time>2017-04-30T08:40:01.000Z</time>
      </trkpt>
      <trkpt lat="44.21735" lon="0.77302">
        <ele>159</ele>
        <time>2017-04-30T08:40:02.000Z</time>
      </trkpt>
      <trkpt lat="44.21731" lon="0.77301">
        <ele>159</ele>
        <time>2017-04-30T08:40:03.000Z</time>
      </trkpt>
      <trkpt lat="44.21727" lon="0.773">
        <ele>160</ele>
        <time>2017-04-30T08:40:04.000Z</time>
      </trkpt>
      <trkpt lat="44.21722" lon="0.773">
        <ele>159</ele>
        <time>2017-04-30T08:40:05.000Z</time>
      </trkpt>
      <trkpt lat="44.21718" lon="0.77299">
        <ele>159</ele>
        <time>2017-04-30T08:40:06.000Z</time>
      </trkpt>
      <trkpt lat="44.21714" lon="0.77298">
        <ele>159</ele>
        <time>2017-04-30T08:40:07.000Z</time>
      </trkpt>
      <trkpt lat="44.21709" lon="0.77298">
        <ele>159</ele>
        <time>2017-04-30T08:40:08.000Z</time>
      </trkpt>
      <trkpt lat="44.21704" lon="0.77297">
        <ele>159</ele>
        <time>2017-04-30T08:40:09.000Z</time>
      </trkpt>
      <trkpt lat="44.217" lon="0.77297">
        <ele>158</ele>
        <time>2017-04-30T08:40:10.000Z</time>
      </trkpt>
      <trkpt lat="44.21694" lon="0.77297">
        <ele>158</ele>
        <time>2017-04-30T08:40:11.000Z</time>
      </trkpt>
      <trkpt lat="44.21689" lon="0.77296">
        <ele>157</ele>
        <time>2017-04-30T08:40:12.000Z</time>
      </trkpt>
      <trkpt lat="44.21683" lon="0.77296">
        <ele>157</ele>
        <time>2017-04-30T08:40:13.000Z</time>
      </trkpt>
      <trkpt lat="44.21677" lon="0.77294">
        <ele>156</ele>
        <time>2017-04-30T08:40:14.000Z</time>
      </trkpt>
      <trkpt lat="44.21671" lon="0.77292">
        <ele>156</ele>
        <time>2017-04-30T08:40:15.000Z</time>
      </trkpt>
      <trkpt lat="44.21665" lon="0.7729">
        <ele>156</ele>
        <time>2017-04-30T08:40:16.000Z</time>
      </trkpt>
      <trkpt lat="44.21658" lon="0.77288">
        <ele>155</ele>
        <time>2017-04-30T08:40:17.000Z</time>
      </trkpt>
      <trkpt lat="44.21652" lon="0.77286">
        <ele>155</ele>
        <time>2017-04-30T08:40:18.000Z</time>
      </trkpt>
      <trkpt lat="44.21645" lon="0.77284">
        <ele>154</ele>
        <time>2017-04-30T08:40:19.000Z</time>
      </trkpt>
      <trkpt lat="44.21638" lon="0.77283">
        <ele>154</ele>
        <time>2017-04-30T08:40:20.000Z</time>
      </trkpt>
      <trkpt lat="44.21631" lon="0.77281">
        <ele>154</ele>
        <time>2017-04-30T08:40:21.000Z</time>
      </trkpt>
      <trkpt lat="44.21625" lon="0.77279">
        <ele>153</ele>
        <time>2017-04-30T08:40:22.000Z</time>
      </trkpt>
      <trkpt lat="44.21618" lon="0.77278">
        <ele>153</ele>
        <time>2017-04-30T08:40:23.000Z</time>
      </trkpt>
      <trkpt lat="44.21611" lon="0.77277">
        <ele>153</ele>
        <time>2017-04-30T08:40:24.000Z</time>
      </trkpt>
      <trkpt lat="44.21604" lon="0.77276">
        <ele>153</ele>
        <time>2017-04-30T08:40:25.000Z</time>
      </trkpt>
      <trkpt lat="44.21598" lon="0.77274">
        <ele>153</ele>
        <time>2017-04-30T08:40:26.000Z</time>
      </trkpt>
      <trkpt lat="44.21591" lon="0.77273">
        <ele>152</ele>
        <time>2017-04-30T08:40:27.000Z</time>
      </trkpt>
      <trkpt lat="44.21585" lon="0.77272">
        <ele>152</ele>
        <time>2017-04-30T08:40:28.000Z</time>
      </trkpt>
      <trkpt lat="44.21579" lon="0.77271">
        <ele>152</ele>
        <time>2017-04-30T08:40:29.000Z</time>
      </trkpt>
      <trkpt lat="44.21572" lon="0.7727">
        <ele>152</ele>
        <time>2017-04-30T08:40:30.000Z</time>
      </trkpt>
      <trkpt lat="44.21565" lon="0.7727">
        <ele>151</ele>
        <time>2017-04-30T08:40:31.000Z</time>
      </trkpt>
      <trkpt lat="44.21558" lon="0.77269">
        <ele>151</ele>
        <time>2017-04-30T08:40:32.000Z</time>
      </trkpt>
      <trkpt lat="44.21552" lon="0.77268">
        <ele>151</ele>
        <time>2017-04-30T08:40:33.000Z</time>
      </trkpt>
      <trkpt lat="44.21545" lon="0.77268">
        <ele>151</ele>
        <time>2017-04-30T08:40:34.000Z</time>
      </trkpt>
      <trkpt lat="44.21538" lon="0.77268">
        <ele>150</ele>
        <time>2017-04-30T08:40:35.000Z</time>
      </trkpt>
      <trkpt lat="44.21532" lon="0.77268">
        <ele>150</ele>
        <time>2017-04-30T08:40:36.000Z</time>
      </trkpt>
      <trkpt lat="44.21526" lon="0.77268">
        <ele>150</ele>
        <time>2017-04-30T08:40:37.000Z</time>
      </trkpt>
      <trkpt lat="44.2152" lon="0.77268">
        <ele>149</ele>
        <time>2017-04-30T08:40:38.000Z</time>
      </trkpt>
      <trkpt lat="44.21514" lon="0.77268">
        <ele>149</ele>
        <time>2017-04-30T08:40:39.000Z</time>
      </trkpt>
      <trkpt lat="44.21508" lon="0.7727">
        <ele>149</ele>
        <time>2017-04-30T08:40:40.000Z</time>
      </trkpt>
      <trkpt lat="44.21502" lon="0.7727">
        <ele>149</ele>
        <time>2017-04-30T08:40:41.000Z</time>
      </trkpt>
      <trkpt lat="44.21495" lon="0.77271">
        <ele>148</ele>
        <time>2017-04-30T08:40:42.000Z</time>
      </trkpt>
      <trkpt lat="44.21489" lon="0.77272">
        <ele>148</ele>
        <time>2017-04-30T08:40:43.000Z</time>
      </trkpt>
      <trkpt lat="44.21484" lon="0.77273">
        <ele>148</ele>
        <time>2017-04-30T08:40:44.000Z</time>
      </trkpt>
      <trkpt lat="44.2148" lon="0.77274">
        <ele>147</ele>
        <time>2017-04-30T08:40:45.000Z</time>
      </trkpt>
      <trkpt lat="44.21475" lon="0.77275">
        <ele>147</ele>
        <time>2017-04-30T08:40:46.000Z</time>
      </trkpt>
      <trkpt lat="44.21471" lon="0.77275">
        <ele>146</ele>
        <time>2017-04-30T08:40:47.000Z</time>
      </trkpt>
      <trkpt lat="44.21467" lon="0.77276">
        <ele>146</ele>
        <time>2017-04-30T08:40:48.000Z</time>
      </trkpt>
      <trkpt lat="44.21462" lon="0.77277">
        <ele>145</ele>
        <time>2017-04-30T08:40:49.000Z</time>
      </trkpt>
      <trkpt lat="44.21457" lon="0.77279">
        <ele>144</ele>
        <time>2017-04-30T08:40:50.000Z</time>
      </trkpt>
      <trkpt lat="44.21452" lon="0.77282">
        <ele>143</ele>
        <time>2017-04-30T08:40:51.000Z</time>
      </trkpt>
      <trkpt lat="44.21447" lon="0.77287">
        <ele>141</ele>
        <time>2017-04-30T08:40:52.000Z</time>
      </trkpt>
      <trkpt lat="44.21441" lon="0.77293">
        <ele>140</ele>
        <time>2017-04-30T08:40:53.000Z</time>
      </trkpt>
      <trkpt lat="44.21431" lon="0.773">
        <ele>139</ele>
        <time>2017-04-30T08:40:54.000Z</time>
      </trkpt>
      <trkpt lat="44.21424" lon="0.77307">
        <ele>138</ele>
        <time>2017-04-30T08:40:55.000Z</time>
      </trkpt>
      <trkpt lat="44.21415" lon="0.77312">
        <ele>137</ele>
        <time>2017-04-30T08:40:56.000Z</time>
      </trkpt>
      <trkpt lat="44.21407" lon="0.77316">
        <ele>136</ele>
        <time>2017-04-30T08:40:57.000Z</time>
      </trkpt>
      <trkpt lat="44.21391" lon="0.77326">
        <ele>136</ele>
        <time>2017-04-30T08:40:58.000Z</time>
      </trkpt>
      <trkpt lat="44.21391" lon="0.77326">
        <ele>136</ele>
        <time>2017-04-30T08:40:59.000Z</time>
      </trkpt>
      <trkpt lat="44.21384" lon="0.77331">
        <ele>135</ele>
        <time>2017-04-30T08:41:00.000Z</time>
      </trkpt>
      <trkpt lat="44.21377" lon="0.77337">
        <ele>135</ele>
        <time>2017-04-30T08:41:01.000Z</time>
      </trkpt>
      <trkpt lat="44.21371" lon="0.77344">
        <ele>134</ele>
        <time>2017-04-30T08:41:02.000Z</time>
      </trkpt>
      <trkpt lat="44.21365" lon="0.77352">
        <ele>133</ele>
        <time>2017-04-30T08:41:03.000Z</time>
      </trkpt>
      <trkpt lat="44.2136" lon="0.7736">
        <ele>132</ele>
        <time>2017-04-30T08:41:04.000Z</time>
      </trkpt>
      <trkpt lat="44.21355" lon="0.77369">
        <ele>131</ele>
        <time>2017-04-30T08:41:05.000Z</time>
      </trkpt>
      <trkpt lat="44.2135" lon="0.77378">
        <ele>131</ele>
        <time>2017-04-30T08:41:06.000Z</time>
      </trkpt>
      <trkpt lat="44.21344" lon="0.77387">
        <ele>130</ele>
        <time>2017-04-30T08:41:07.000Z</time>
      </trkpt>
      <trkpt lat="44.21338" lon="0.77396">
        <ele>129</ele>
        <time>2017-04-30T08:41:08.000Z</time>
      </trkpt>
      <trkpt lat="44.21333" lon="0.77404">
        <ele>128</ele>
        <time>2017-04-30T08:41:09.000Z</time>
      </trkpt>
      <trkpt lat="44.21328" lon="0.77412">
        <ele>128</ele>
        <time>2017-04-30T08:41:10.000Z</time>
      </trkpt>
      <trkpt lat="44.21322" lon="0.77419">
        <ele>127</ele>
        <time>2017-04-30T08:41:11.000Z</time>
      </trkpt>
      <trkpt lat="44.21316" lon="0.77425">
        <ele>126</ele>
        <time>2017-04-30T08:41:12.000Z</time>
      </trkpt>
      <trkpt lat="44.2131" lon="0.77431">
        <ele>126</ele>
        <time>2017-04-30T08:41:13.000Z</time>
      </trkpt>
      <trkpt lat="44.21303" lon="0.77437">
        <ele>125</ele>
        <time>2017-04-30T08:41:14.000Z</time>
      </trkpt>
      <trkpt lat="44.21296" lon="0.77442">
        <ele>124</ele>
        <time>2017-04-30T08:41:15.000Z</time>
      </trkpt>
      <trkpt lat="44.21289" lon="0.77446">
        <ele>123</ele>
        <time>2017-04-30T08:41:16.000Z</time>
      </trkpt>
      <trkpt lat="44.21282" lon="0.77451">
        <ele>122</ele>
        <time>2017-04-30T08:41:17.000Z</time>
      </trkpt>
      <trkpt lat="44.21275" lon="0.77454">
        <ele>121</ele>
        <time>2017-04-30T08:41:18.000Z</time>
      </trkpt>
      <trkpt lat="44.21268" lon="0.77457">
        <ele>120</ele>
        <time>2017-04-30T08:41:19.000Z</time>
      </trkpt>
      <trkpt lat="44.2126" lon="0.77461">
        <ele>118</ele>
        <time>2017-04-30T08:41:20.000Z</time>
      </trkpt>
      <trkpt lat="44.21253" lon="0.77463">
        <ele>117</ele>
        <time>2017-04-30T08:41:21.000Z</time>
      </trkpt>
      <trkpt lat="44.21246" lon="0.77466">
        <ele>115</ele>
        <time>2017-04-30T08:41:22.000Z</time>
      </trkpt>
      <trkpt lat="44.21238" lon="0.77468">
        <ele>114</ele>
        <time>2017-04-30T08:41:23.000Z</time>
      </trkpt>
      <trkpt lat="44.21232" lon="0.77469">
        <ele>113</ele>
        <time>2017-04-30T08:41:24.000Z</time>
      </trkpt>
      <trkpt lat="44.21226" lon="0.77471">
        <ele>112</ele>
        <time>2017-04-30T08:41:25.000Z</time>
      </trkpt>
      <trkpt lat="44.2122" lon="0.77471">
        <ele>112</ele>
        <time>2017-04-30T08:41:26.000Z</time>
      </trkpt>
      <trkpt lat="44.21207" lon="0.77474">
        <ele>109</ele>
        <time>2017-04-30T08:41:27.000Z</time>
      </trkpt>
      <trkpt lat="44.21207" lon="0.77474">
        <ele>109</ele>
        <time>2017-04-30T08:41:28.000Z</time>
      </trkpt>
      <trkpt lat="44.21199" lon="0.77477">
        <ele>108</ele>
        <time>2017-04-30T08:41:29.000Z</time>
      </trkpt>
      <trkpt lat="44.2119" lon="0.77479">
        <ele>107</ele>
        <time>2017-04-30T08:41:30.000Z</time>
      </trkpt>
      <trkpt lat="44.21181" lon="0.77482">
        <ele>106</ele>
        <time>2017-04-30T08:41:31.000Z</time>
      </trkpt>
      <trkpt lat="44.21173" lon="0.77484">
        <ele>105</ele>
        <time>2017-04-30T08:41:32.000Z</time>
      </trkpt>
      <trkpt lat="44.21164" lon="0.77486">
        <ele>104</ele>
        <time>2017-04-30T08:41:33.000Z</time>
      </trkpt>
      <trkpt lat="44.21155" lon="0.77487">
        <ele>103</ele>
        <time>2017-04-30T08:41:34.000Z</time>
      </trkpt>
      <trkpt lat="44.21145" lon="0.77489">
        <ele>101</ele>
        <time>2017-04-30T08:41:35.000Z</time>
      </trkpt>
      <trkpt lat="44.21136" lon="0.7749">
        <ele>100</ele>
        <time>2017-04-30T08:41:36.000Z</time>
      </trkpt>
      <trkpt lat="44.21126" lon="0.77491">
        <ele>98</ele>
        <time>2017-04-30T08:41:37.000Z</time>
      </trkpt>
      <trkpt lat="44.21107" lon="0.77493">
        <ele>96</ele>
        <time>2017-04-30T08:41:38.000Z</time>
      </trkpt>
      <trkpt lat="44.21107" lon="0.77493">
        <ele>96</ele>
        <time>2017-04-30T08:41:39.000Z</time>
      </trkpt>
      <trkpt lat="44.21099" lon="0.77494">
        <ele>95</ele>
        <time>2017-04-30T08:41:40.000Z</time>
      </trkpt>
      <trkpt lat="44.2109" lon="0.77494">
        <ele>94</ele>
        <time>2017-04-30T08:41:41.000Z</time>
      </trkpt>
      <trkpt lat="44.21081" lon="0.77494">
        <ele>93</ele>
        <time>2017-04-30T08:41:42.000Z</time>
      </trkpt>
      <trkpt lat="44.21071" lon="0.77493">
        <ele>92</ele>
        <time>2017-04-30T08:41:43.000Z</time>
      </trkpt>
      <trkpt lat="44.21061" lon="0.77491">
        <ele>91</ele>
        <time>2017-04-30T08:41:44.000Z</time>
      </trkpt>
      <trkpt lat="44.21051" lon="0.77489">
        <ele>89</ele>
        <time>2017-04-30T08:41:45.000Z</time>
      </trkpt>
      <trkpt lat="44.21041" lon="0.77488">
        <ele>87</ele>
        <time>2017-04-30T08:41:46.000Z</time>
      </trkpt>
      <trkpt lat="44.21031" lon="0.77488">
        <ele>86</ele>
        <time>2017-04-30T08:41:47.000Z</time>
      </trkpt>
      <trkpt lat="44.21022" lon="0.77488">
        <ele>84</ele>
        <time>2017-04-30T08:41:48.000Z</time>
      </trkpt>
      <trkpt lat="44.21012" lon="0.7749">
        <ele>83</ele>
        <time>2017-04-30T08:41:49.000Z</time>
      </trkpt>
      <trkpt lat="44.21002" lon="0.77492">
        <ele>82</ele>
        <time>2017-04-30T08:41:50.000Z</time>
      </trkpt>
      <trkpt lat="44.20992" lon="0.77495">
        <ele>81</ele>
        <time>2017-04-30T08:41:51.000Z</time>
      </trkpt>
      <trkpt lat="44.20982" lon="0.77499">
        <ele>80</ele>
        <time>2017-04-30T08:41:52.000Z</time>
      </trkpt>
      <trkpt lat="44.20972" lon="0.77503">
        <ele>79</ele>
        <time>2017-04-30T08:41:53.000Z</time>
      </trkpt>
      <trkpt lat="44.20962" lon="0.77508">
        <ele>78</ele>
        <time>2017-04-30T08:41:54.000Z</time>
      </trkpt>
      <trkpt lat="44.20951" lon="0.77512">
        <ele>76</ele>
        <time>2017-04-30T08:41:55.000Z</time>
      </trkpt>
      <trkpt lat="44.20941" lon="0.77517">
        <ele>76</ele>
        <time>2017-04-30T08:41:56.000Z</time>
      </trkpt>
      <trkpt lat="44.2093" lon="0.77521">
        <ele>75</ele>
        <time>2017-04-30T08:41:57.000Z</time>
      </trkpt>
      <trkpt lat="44.20919" lon="0.77524">
        <ele>73</ele>
        <time>2017-04-30T08:41:58.000Z</time>
      </trkpt>
      <trkpt lat="44.20908" lon="0.77526">
        <ele>72</ele>
        <time>2017-04-30T08:41:59.000Z</time>
      </trkpt>
      <trkpt lat="44.20897" lon="0.77528">
        <ele>71</ele>
        <time>2017-04-30T08:42:00.000Z</time>
      </trkpt>
      <trkpt lat="44.20885" lon="0.77531">
        <ele>70</ele>
        <time>2017-04-30T08:42:01.000Z</time>
      </trkpt>
      <trkpt lat="44.20874" lon="0.77534">
        <ele>69</ele>
        <time>2017-04-30T08:42:02.000Z</time>
      </trkpt>
      <trkpt lat="44.20864" lon="0.77537">
        <ele>69</ele>
        <time>2017-04-30T08:42:03.000Z</time>
      </trkpt>
      <trkpt lat="44.20853" lon="0.7754">
        <ele>68</ele>
        <time>2017-04-30T08:42:04.000Z</time>
      </trkpt>
      <trkpt lat="44.20843" lon="0.77542">
        <ele>68</ele>
        <time>2017-04-30T08:42:05.000Z</time>
      </trkpt>
      <trkpt lat="44.20833" lon="0.77545">
        <ele>68</ele>
        <time>2017-04-30T08:42:06.000Z</time>
      </trkpt>
      <trkpt lat="44.20824" lon="0.77549">
        <ele>67</ele>
        <time>2017-04-30T08:42:07.000Z</time>
      </trkpt>
      <trkpt lat="44.20815" lon="0.77552">
        <ele>67</ele>
        <time>2017-04-30T08:42:08.000Z</time>
      </trkpt>
      <trkpt lat="44.20806" lon="0.77555">
        <ele>67</ele>
        <time>2017-04-30T08:42:09.000Z</time>
      </trkpt>
      <trkpt lat="44.20798" lon="0.77558">
        <ele>66</ele>
        <time>2017-04-30T08:42:10.000Z</time>
      </trkpt>
      <trkpt lat="44.20791" lon="0.77562">
        <ele>66</ele>
        <time>2017-04-30T08:42:11.000Z</time>
      </trkpt>
      <trkpt lat="44.20776" lon="0.77569">
        <ele>65</ele>
        <time>2017-04-30T08:42:12.000Z</time>
      </trkpt>
      <trkpt lat="44.20776" lon="0.77569">
        <ele>65</ele>
        <time>2017-04-30T08:42:13.000Z</time>
      </trkpt>
      <trkpt lat="44.20762" lon="0.77577">
        <ele>65</ele>
        <time>2017-04-30T08:42:14.000Z</time>
      </trkpt>
      <trkpt lat="44.20762" lon="0.77577">
        <ele>65</ele>
        <time>2017-04-30T08:42:15.000Z</time>
      </trkpt>
      <trkpt lat="44.20755" lon="0.7758">
        <ele>66</ele>
        <time>2017-04-30T08:42:16.000Z</time>
      </trkpt>
      <trkpt lat="44.20748" lon="0.77584">
        <ele>66</ele>
        <time>2017-04-30T08:42:17.000Z</time>
      </trkpt>
      <trkpt lat="44.20742" lon="0.77587">
        <ele>66</ele>
        <time>2017-04-30T08:42:18.000Z</time>
      </trkpt>
      <trkpt lat="44.20737" lon="0.7759">
        <ele>66</ele>
        <time>2017-04-30T08:42:19.000Z</time>
      </trkpt>
      <trkpt lat="44.20731" lon="0.77593">
        <ele>67</ele>
        <time>2017-04-30T08:42:20.000Z</time>
      </trkpt>
      <trkpt lat="44.20725" lon="0.77596">
        <ele>66</ele>
        <time>2017-04-30T08:42:21.000Z</time>
      </trkpt>
      <trkpt lat="44.20718" lon="0.77599">
        <ele>66</ele>
        <time>2017-04-30T08:42:22.000Z</time>
      </trkpt>
      <trkpt lat="44.20712" lon="0.77603">
        <ele>66</ele>
        <time>2017-04-30T08:42:23.000Z</time>
      </trkpt>
      <trkpt lat="44.20705" lon="0.77606">
        <ele>66</ele>
        <time>2017-04-30T08:42:24.000Z</time>
      </trkpt>
      <trkpt lat="44.20694" lon="0.77613">
        <ele>66</ele>
        <time>2017-04-30T08:42:25.000Z</time>
      </trkpt>
      <trkpt lat="44.20687" lon="0.77615">
        <ele>66</ele>
        <time>2017-04-30T08:42:26.000Z</time>
      </trkpt>
      <trkpt lat="44.20681" lon="0.77618">
        <ele>65</ele>
        <time>2017-04-30T08:42:27.000Z</time>
      </trkpt>
      <trkpt lat="44.20674" lon="0.7762">
        <ele>66</ele>
        <time>2017-04-30T08:42:28.000Z</time>
      </trkpt>
      <trkpt lat="44.20667" lon="0.77622">
        <ele>65</ele>
        <time>2017-04-30T08:42:29.000Z</time>
      </trkpt>
      <trkpt lat="44.2066" lon="0.77622">
        <ele>65</ele>
        <time>2017-04-30T08:42:30.000Z</time>
      </trkpt>
      <trkpt lat="44.2066" lon="0.77622">
        <ele>65</ele>
        <time>2017-04-30T08:42:31.000Z</time>
      </trkpt>
      <trkpt lat="44.20654" lon="0.77623">
        <ele>65</ele>
        <time>2017-04-30T08:42:32.000Z</time>
      </trkpt>
      <trkpt lat="44.20647" lon="0.77624">
        <ele>65</ele>
        <time>2017-04-30T08:42:33.000Z</time>
      </trkpt>
      <trkpt lat="44.2064" lon="0.77625">
        <ele>65</ele>
        <time>2017-04-30T08:42:34.000Z</time>
      </trkpt>
      <trkpt lat="44.20634" lon="0.77625">
        <ele>65</ele>
        <time>2017-04-30T08:42:35.000Z</time>
      </trkpt>
      <trkpt lat="44.20622" lon="0.77627">
        <ele>65</ele>
        <time>2017-04-30T08:42:36.000Z</time>
      </trkpt>
      <trkpt lat="44.20622" lon="0.77627">
        <ele>65</ele>
        <time>2017-04-30T08:42:37.000Z</time>
      </trkpt>
      <trkpt lat="44.20616" lon="0.77628">
        <ele>65</ele>
        <time>2017-04-30T08:42:38.000Z</time>
      </trkpt>
      <trkpt lat="44.20611" lon="0.7763">
        <ele>65</ele>
        <time>2017-04-30T08:42:39.000Z</time>
      </trkpt>
      <trkpt lat="44.20606" lon="0.7763">
        <ele>65</ele>
        <time>2017-04-30T08:42:40.000Z</time>
      </trkpt>
      <trkpt lat="44.206" lon="0.77628">
        <ele>65</ele>
        <time>2017-04-30T08:42:41.000Z</time>
      </trkpt>
      <trkpt lat="44.20597" lon="0.77623">
        <ele>64</ele>
        <time>2017-04-30T08:42:42.000Z</time>
      </trkpt>
      <trkpt lat="44.20593" lon="0.77619">
        <ele>63</ele>
        <time>2017-04-30T08:42:43.000Z</time>
      </trkpt>
      <trkpt lat="44.20589" lon="0.77614">
        <ele>63</ele>
        <time>2017-04-30T08:42:44.000Z</time>
      </trkpt>
      <trkpt lat="44.20584" lon="0.77608">
        <ele>63</ele>
        <time>2017-04-30T08:42:45.000Z</time>
      </trkpt>
      <trkpt lat="44.2058" lon="0.77603">
        <ele>63</ele>
        <time>2017-04-30T08:42:46.000Z</time>
      </trkpt>
      <trkpt lat="44.2057" lon="0.77592">
        <ele>64</ele>
        <time>2017-04-30T08:42:47.000Z</time>
      </trkpt>
      <trkpt lat="44.2057" lon="0.77592">
        <ele>64</ele>
        <time>2017-04-30T08:42:48.000Z</time>
      </trkpt>
      <trkpt lat="44.20566" lon="0.77586">
        <ele>64</ele>
        <time>2017-04-30T08:42:49.000Z</time>
      </trkpt>
      <trkpt lat="44.20561" lon="0.7758">
        <ele>64</ele>
        <time>2017-04-30T08:42:50.000Z</time>
      </trkpt>
      <trkpt lat="44.20557" lon="0.77575">
        <ele>64</ele>
        <time>2017-04-30T08:42:51.000Z</time>
      </trkpt>
      <trkpt lat="44.20552" lon="0.77569">
        <ele>64</ele>
        <time>2017-04-30T08:42:52.000Z</time>
      </trkpt>
      <trkpt lat="44.20548" lon="0.77563">
        <ele>64</ele>
        <time>2017-04-30T08:42:53.000Z</time>
      </trkpt>
      <trkpt lat="44.20544" lon="0.77558">
        <ele>64</ele>
        <time>2017-04-30T08:42:54.000Z</time>
      </trkpt>
      <trkpt lat="44.20539" lon="0.77552">
        <ele>64</ele>
        <time>2017-04-30T08:42:55.000Z</time>
      </trkpt>
      <trkpt lat="44.20535" lon="0.77547">
        <ele>64</ele>
        <time>2017-04-30T08:42:56.000Z</time>
      </trkpt>
      <trkpt lat="44.2053" lon="0.77541">
        <ele>64</ele>
        <time>2017-04-30T08:42:57.000Z</time>
      </trkpt>
      <trkpt lat="44.20526" lon="0.77536">
        <ele>64</ele>
        <time>2017-04-30T08:42:58.000Z</time>
      </trkpt>
      <trkpt lat="44.20521" lon="0.77531">
        <ele>64</ele>
        <time>2017-04-30T08:42:59.000Z</time>
      </trkpt>
      <trkpt lat="44.20517" lon="0.77526">
        <ele>64</ele>
        <time>2017-04-30T08:43:00.000Z</time>
      </trkpt>
      <trkpt lat="44.20514" lon="0.7752">
        <ele>64</ele>
        <time>2017-04-30T08:43:01.000Z</time>
      </trkpt>
      <trkpt lat="44.20511" lon="0.77513">
        <ele>64</ele>
        <time>2017-04-30T08:43:02.000Z</time>
      </trkpt>
      <trkpt lat="44.20513" lon="0.77508">
        <ele>64</ele>
        <time>2017-04-30T08:43:03.000Z</time>
      </trkpt>
      <trkpt lat="44.20517" lon="0.77503">
        <ele>65</ele>
        <time>2017-04-30T08:43:04.000Z</time>
      </trkpt>
      <trkpt lat="44.20522" lon="0.77494">
        <ele>65</ele>
        <time>2017-04-30T08:43:05.000Z</time>
      </trkpt>
      <trkpt lat="44.20522" lon="0.77494">
        <ele>65</ele>
        <time>2017-04-30T08:43:06.000Z</time>
      </trkpt>
      <trkpt lat="44.20524" lon="0.7749">
        <ele>65</ele>
        <time>2017-04-30T08:43:07.000Z</time>
      </trkpt>
      <trkpt lat="44.20525" lon="0.77488">
        <ele>65</ele>
        <time>2017-04-30T08:43:08.000Z</time>
      </trkpt>
      <trkpt lat="44.20525" lon="0.77488">
        <ele>65</ele>
        <time>2017-04-30T08:43:09.000Z</time>
      </trkpt>
      <trkpt lat="44.20525" lon="0.77488">
        <ele>65</ele>
        <time>2017-04-30T08:43:10.000Z</time>
      </trkpt>
      <trkpt lat="44.20525" lon="0.77488">
        <ele>65</ele>
        <time>2017-04-30T08:43:11.000Z</time>
      </trkpt>
      <trkpt lat="44.20525" lon="0.77488">
        <ele>64</ele>
        <time>2017-04-30T08:43:12.000Z</time>
      </trkpt>
      <trkpt lat="44.20525" lon="0.77488">
        <ele>64</ele>
        <time>2017-04-30T08:43:13.000Z</time>
      </trkpt>
      <trkpt lat="44.20525" lon="0.77488">
        <ele>64</ele>
        <time>2017-04-30T08:43:14.000Z</time>
      </trkpt>
      <trkpt lat="44.20525" lon="0.77488">
        <ele>64</ele>
        <time>2017-04-30T08:43:15.000Z</time>
      </trkpt>
      <trkpt lat="44.20525" lon="0.77488">
        <ele>64</ele>
        <time>2017-04-30T08:43:16.000Z</time>
      </trkpt>
      <trkpt lat="44.20525" lon="0.77488">
        <ele>64</ele>
        <time>2017-04-30T08:43:17.000Z</time>
      </trkpt>
      <trkpt lat="44.20525" lon="0.77488">
        <ele>64</ele>
        <time>2017-04-30T08:43:18.000Z</time>
      </trkpt>
      <trkpt lat="44.20525" lon="0.77488">
        <ele>64</ele>
        <time>2017-04-30T08:43:19.000Z</time>
      </trkpt>
      <trkpt lat="44.20525" lon="0.77488">
        <ele>64</ele>
        <time>2017-04-30T08:43:20.000Z</time>
      </trkpt>
      <trkpt lat="44.20525" lon="0.77488">
        <ele>64</ele>
        <time>2017-04-30T08:43:21.000Z</time>
      </trkpt>
      <trkpt lat="44.20525" lon="0.77488">
        <ele>64</ele>
        <time>2017-04-30T08:43:22.000Z</time>
      </trkpt>
      <trkpt lat="44.20525" lon="0.77488">
        <ele>64</ele>
        <time>2017-04-30T08:43:23.000Z</time>
      </trkpt>
      <trkpt lat="44.20525" lon="0.77488">
        <ele>64</ele>
        <time>2017-04-30T08:43:24.000Z</time>
      </trkpt>
      <trkpt lat="44.20525" lon="0.77488">
        <ele>64</ele>
        <time>2017-04-30T08:43:25.000Z</time>
      </trkpt>
      <trkpt lat="44.20524" lon="0.77488">
        <ele>64</ele>
        <time>2017-04-30T08:43:26.000Z</time>
      </trkpt>
      <trkpt lat="44.20524" lon="0.77488">
        <ele>63</ele>
        <time>2017-04-30T08:43:27.000Z</time>
      </trkpt>
      <trkpt lat="44.20524" lon="0.77489">
        <ele>63</ele>
        <time>2017-04-30T08:43:28.000Z</time>
      </trkpt>
      <trkpt lat="44.20524" lon="0.77488">
        <ele>63</ele>
        <time>2017-04-30T08:43:29.000Z</time>
      </trkpt>
      <trkpt lat="44.20524" lon="0.77488">
        <ele>63</ele>
        <time>2017-04-30T08:43:30.000Z</time>
      </trkpt>
      <trkpt lat="44.20524" lon="0.77488">
        <ele>63</ele>
        <time>2017-04-30T08:43:31.000Z</time>
      </trkpt>
      <trkpt lat="44.20524" lon="0.77488">
        <ele>63</ele>
        <time>2017-04-30T08:43:32.000Z</time>
      </trkpt>
      <trkpt lat="44.20524" lon="0.77488">
        <ele>63</ele>
        <time>2017-04-30T08:43:33.000Z</time>
      </trkpt>
      <trkpt lat="44.20524" lon="0.77488">
        <ele>63</ele>
        <time>2017-04-30T08:43:34.000Z</time>
      </trkpt>
      <trkpt lat="44.20524" lon="0.77488">
        <ele>63</ele>
        <time>2017-04-30T08:43:35.000Z</time>
      </trkpt>
      <trkpt lat="44.20524" lon="0.77488">
        <ele>63</ele>
        <time>2017-04-30T08:43:36.000Z</time>
      </trkpt>
      <trkpt lat="44.20524" lon="0.77488">
        <ele>63</ele>
        <time>2017-04-30T08:43:37.000Z</time>
      </trkpt>
      <trkpt lat="44.20524" lon="0.77488">
        <ele>63</ele>
        <time>2017-04-30T08:43:38.000Z</time>
      </trkpt>
      <trkpt lat="44.20524" lon="0.77488">
        <ele>63</ele>
        <time>2017-04-30T08:43:39.000Z</time>
      </trkpt>
      <trkpt lat="44.20524" lon="0.77488">
        <ele>63</ele>
        <time>2017-04-30T08:43:40.000Z</time>
      </trkpt>
      <trkpt lat="44.20524" lon="0.77488">
        <ele>63</ele>
        <time>2017-04-30T08:43:41.000Z</time>
      </trkpt>
      <trkpt lat="44.20524" lon="0.77488">
        <ele>63</ele>
        <time>2017-04-30T08:43:42.000Z</time>
      </trkpt>
      <trkpt lat="44.20524" lon="0.77488">
        <ele>63</ele>
        <time>2017-04-30T08:43:43.000Z</time>
      </trkpt>
      <trkpt lat="44.20524" lon="0.77488">
        <ele>63</ele>
        <time>2017-04-30T08:43:44.000Z</time>
      </trkpt>
      <trkpt lat="44.20525" lon="0.77487">
        <ele>63</ele>
        <time>2017-04-30T08:43:45.000Z</time>
      </trkpt>
      <trkpt lat="44.20524" lon="0.77488">
        <ele>63</ele>
        <time>2017-04-30T08:43:46.000Z</time>
      </trkpt>
      <trkpt lat="44.20524" lon="0.77488">
        <ele>63</ele>
        <time>2017-04-30T08:43:47.000Z</time>
      </trkpt>
      <trkpt lat="44.20524" lon="0.77488">
        <ele>63</ele>
        <time>2017-04-30T08:43:48.000Z</time>
      </trkpt>
      <trkpt lat="44.20524" lon="0.77488">
        <ele>63</ele>
        <time>2017-04-30T08:43:49.000Z</time>
      </trkpt>
      <trkpt lat="44.20524" lon="0.77488">
        <ele>63</ele>
        <time>2017-04-30T08:43:50.000Z</time>
      </trkpt>
      <trkpt lat="44.20525" lon="0.77487">
        <ele>63</ele>
        <time>2017-04-30T08:43:51.000Z</time>
      </trkpt>
      <trkpt lat="44.20524" lon="0.77487">
        <ele>63</ele>
        <time>2017-04-30T08:43:52.000Z</time>
      </trkpt>
      <trkpt lat="44.20524" lon="0.77487">
        <ele>63</ele>
        <time>2017-04-30T08:43:53.000Z</time>
      </trkpt>
      <trkpt lat="44.20524" lon="0.77487">
        <ele>63</ele>
        <time>2017-04-30T08:43:54.000Z</time>
      </trkpt>
      <trkpt lat="44.20524" lon="0.77487">
        <ele>63</ele>
        <time>2017-04-30T08:43:55.000Z</time>
      </trkpt>
      <trkpt lat="44.20524" lon="0.77487">
        <ele>63</ele>
        <time>2017-04-30T08:43:56.000Z</time>
      </trkpt>
      <trkpt lat="44.20524" lon="0.77487">
        <ele>63</ele>
        <time>2017-04-30T08:43:57.000Z</time>
      </trkpt>
      <trkpt lat="44.20524" lon="0.77487">
        <ele>63</ele>
        <time>2017-04-30T08:43:58.000Z</time>
      </trkpt>
      <trkpt lat="44.20524" lon="0.77488">
        <ele>63</ele>
        <time>2017-04-30T08:43:59.000Z</time>
      </trkpt>
      <trkpt lat="44.20524" lon="0.77487">
        <ele>63</ele>
        <time>2017-04-30T08:44:00.000Z</time>
      </trkpt>
      <trkpt lat="44.20524" lon="0.77487">
        <ele>63</ele>
        <time>2017-04-30T08:44:01.000Z</time>
      </trkpt>
      <trkpt lat="44.20524" lon="0.77487">
        <ele>63</ele>
        <time>2017-04-30T08:44:02.000Z</time>
      </trkpt>
      <trkpt lat="44.20524" lon="0.77487">
        <ele>64</ele>
        <time>2017-04-30T08:44:03.000Z</time>
      </trkpt>
      <trkpt lat="44.20524" lon="0.77487">
        <ele>64</ele>
        <time>2017-04-30T08:44:04.000Z</time>
      </trkpt>
      <trkpt lat="44.20524" lon="0.77488">
        <ele>64</ele>
        <time>2017-04-30T08:44:05.000Z</time>
      </trkpt>
      <trkpt lat="44.20524" lon="0.77488">
        <ele>64</ele>
        <time>2017-04-30T08:44:06.000Z</time>
      </trkpt>
      <trkpt lat="44.20524" lon="0.77488">
        <ele>64</ele>
        <time>2017-04-30T08:44:07.000Z</time>
      </trkpt>
      <trkpt lat="44.20524" lon="0.77488">
        <ele>64</ele>
        <time>2017-04-30T08:44:08.000Z</time>
      </trkpt>
      <trkpt lat="44.20524" lon="0.77488">
        <ele>64</ele>
        <time>2017-04-30T08:44:09.000Z</time>
      </trkpt>
      <trkpt lat="44.20524" lon="0.77488">
        <ele>64</ele>
        <time>2017-04-30T08:44:10.000Z</time>
      </trkpt>
      <trkpt lat="44.20524" lon="0.77488">
        <ele>64</ele>
        <time>2017-04-30T08:44:11.000Z</time>
      </trkpt>
      <trkpt lat="44.20524" lon="0.77488">
        <ele>64</ele>
        <time>2017-04-30T08:44:12.000Z</time>
      </trkpt>
      <trkpt lat="44.20524" lon="0.77488">
        <ele>64</ele>
        <time>2017-04-30T08:44:13.000Z</time>
      </trkpt>
      <trkpt lat="44.20524" lon="0.77488">
        <ele>64</ele>
        <time>2017-04-30T08:44:14.000Z</time>
      </trkpt>
      <trkpt lat="44.20524" lon="0.77488">
        <ele>64</ele>
        <time>2017-04-30T08:44:15.000Z</time>
      </trkpt>
      <trkpt lat="44.20524" lon="0.77488">
        <ele>64</ele>
        <time>2017-04-30T08:44:16.000Z</time>
      </trkpt>
      <trkpt lat="44.20524" lon="0.77488">
        <ele>64</ele>
        <time>2017-04-30T08:44:17.000Z</time>
      </trkpt>
      <trkpt lat="44.20524" lon="0.77488">
        <ele>63</ele>
        <time>2017-04-30T08:44:18.000Z</time>
      </trkpt>
      <trkpt lat="44.20524" lon="0.77488">
        <ele>63</ele>
        <time>2017-04-30T08:44:19.000Z</time>
      </trkpt>
      <trkpt lat="44.20524" lon="0.77488">
        <ele>63</ele>
        <time>2017-04-30T08:44:20.000Z</time>
      </trkpt>
      <trkpt lat="44.20524" lon="0.77488">
        <ele>63</ele>
        <time>2017-04-30T08:44:21.000Z</time>
      </trkpt>
      <trkpt lat="44.20524" lon="0.77488">
        <ele>63</ele>
        <time>2017-04-30T08:44:22.000Z</time>
      </trkpt>
      <trkpt lat="44.20524" lon="0.77488">
        <ele>63</ele>
        <time>2017-04-30T08:44:23.000Z</time>
      </trkpt>
      <trkpt lat="44.20524" lon="0.77488">
        <ele>63</ele>
        <time>2017-04-30T08:44:24.000Z</time>
      </trkpt>
      <trkpt lat="44.20524" lon="0.77488">
        <ele>64</ele>
        <time>2017-04-30T08:44:25.000Z</time>
      </trkpt>
      <trkpt lat="44.20524" lon="0.77488">
        <ele>64</ele>
        <time>2017-04-30T08:44:26.000Z</time>
      </trkpt>
      <trkpt lat="44.20524" lon="0.77488">
        <ele>64</ele>
        <time>2017-04-30T08:44:27.000Z</time>
      </trkpt>
      <trkpt lat="44.20524" lon="0.77488">
        <ele>64</ele>
        <time>2017-04-30T08:44:28.000Z</time>
      </trkpt>
      <trkpt lat="44.20524" lon="0.77488">
        <ele>64</ele>
        <time>2017-04-30T08:44:29.000Z</time>
      </trkpt>
      <trkpt lat="44.20524" lon="0.77488">
        <ele>64</ele>
        <time>2017-04-30T08:44:30.000Z</time>
      </trkpt>
      <trkpt lat="44.20524" lon="0.77488">
        <ele>64</ele>
        <time>2017-04-30T08:44:31.000Z</time>
      </trkpt>
      <trkpt lat="44.20524" lon="0.77488">
        <ele>65</ele>
        <time>2017-04-30T08:44:32.000Z</time>
      </trkpt>
      <trkpt lat="44.20524" lon="0.77488">
        <ele>65</ele>
        <time>2017-04-30T08:44:33.000Z</time>
      </trkpt>
      <trkpt lat="44.20524" lon="0.77488">
        <ele>65</ele>
        <time>2017-04-30T08:44:34.000Z</time>
      </trkpt>
      <trkpt lat="44.20524" lon="0.77488">
        <ele>65</ele>
        <time>2017-04-30T08:44:35.000Z</time>
      </trkpt>
      <trkpt lat="44.20524" lon="0.77488">
        <ele>65</ele>
        <time>2017-04-30T08:44:36.000Z</time>
      </trkpt>
      <trkpt lat="44.20524" lon="0.77488">
        <ele>65</ele>
        <time>2017-04-30T08:44:37.000Z</time>
      </trkpt>
      <trkpt lat="44.20524" lon="0.77488">
        <ele>65</ele>
        <time>2017-04-30T08:44:38.000Z</time>
      </trkpt>
      <trkpt lat="44.20524" lon="0.77488">
        <ele>65</ele>
        <time>2017-04-30T08:44:39.000Z</time>
      </trkpt>
      <trkpt lat="44.20523" lon="0.77489">
        <ele>65</ele>
        <time>2017-04-30T08:44:40.000Z</time>
      </trkpt>
      <trkpt lat="44.20523" lon="0.77488">
        <ele>65</ele>
        <time>2017-04-30T08:44:41.000Z</time>
      </trkpt>
      <trkpt lat="44.20523" lon="0.77488">
        <ele>65</ele>
        <time>2017-04-30T08:44:42.000Z</time>
      </trkpt>
      <trkpt lat="44.20523" lon="0.77488">
        <ele>65</ele>
        <time>2017-04-30T08:44:43.000Z</time>
      </trkpt>
      <trkpt lat="44.20523" lon="0.77488">
        <ele>65</ele>
        <time>2017-04-30T08:44:44.000Z</time>
      </trkpt>
      <trkpt lat="44.20523" lon="0.77488">
        <ele>65</ele>
        <time>2017-04-30T08:44:45.000Z</time>
      </trkpt>
      <trkpt lat="44.20523" lon="0.77488">
        <ele>65</ele>
        <time>2017-04-30T08:44:46.000Z</time>
      </trkpt>
      <trkpt lat="44.20523" lon="0.77488">
        <ele>65</ele>
        <time>2017-04-30T08:44:47.000Z</time>
      </trkpt>
      <trkpt lat="44.20524" lon="0.77488">
        <ele>65</ele>
        <time>2017-04-30T08:44:48.000Z</time>
      </trkpt>
      <trkpt lat="44.20524" lon="0.77488">
        <ele>65</ele>
        <time>2017-04-30T08:44:49.000Z</time>
      </trkpt>
      <trkpt lat="44.20524" lon="0.77488">
        <ele>65</ele>
        <time>2017-04-30T08:44:50.000Z</time>
      </trkpt>
      <trkpt lat="44.20524" lon="0.77488">
        <ele>65</ele>
        <time>2017-04-30T08:44:51.000Z</time>
      </trkpt>
      <trkpt lat="44.20524" lon="0.77488">
        <ele>65</ele>
        <time>2017-04-30T08:44:52.000Z</time>
      </trkpt>
      <trkpt lat="44.20524" lon="0.77488">
        <ele>65</ele>
        <time>2017-04-30T08:44:53.000Z</time>
      </trkpt>
      <trkpt lat="44.20524" lon="0.77488">
        <ele>65</ele>
        <time>2017-04-30T08:44:54.000Z</time>
      </trkpt>
      <trkpt lat="44.20524" lon="0.77488">
        <ele>65</ele>
        <time>2017-04-30T08:44:55.000Z</time>
      </trkpt>
      <trkpt lat="44.20523" lon="0.77488">
        <ele>66</ele>
        <time>2017-04-30T08:44:56.000Z</time>
      </trkpt>
      <trkpt lat="44.20523" lon="0.77489">
        <ele>66</ele>
        <time>2017-04-30T08:44:57.000Z</time>
      </trkpt>
      <trkpt lat="44.20523" lon="0.77489">
        <ele>66</ele>
        <time>2017-04-30T08:44:58.000Z</time>
      </trkpt>
      <trkpt lat="44.20523" lon="0.77489">
        <ele>66</ele>
        <time>2017-04-30T08:44:59.000Z</time>
      </trkpt>
      <trkpt lat="44.20523" lon="0.77489">
        <ele>66</ele>
        <time>2017-04-30T08:45:00.000Z</time>
      </trkpt>
      <trkpt lat="44.20523" lon="0.77489">
        <ele>66</ele>
        <time>2017-04-30T08:45:01.000Z</time>
      </trkpt>
      <trkpt lat="44.20523" lon="0.77489">
        <ele>66</ele>
        <time>2017-04-30T08:45:02.000Z</time>
      </trkpt>
      <trkpt lat="44.20523" lon="0.77488">
        <ele>66</ele>
        <time>2017-04-30T08:45:03.000Z</time>
      </trkpt>
      <trkpt lat="44.20523" lon="0.77488">
        <ele>66</ele>
        <time>2017-04-30T08:45:04.000Z</time>
      </trkpt>
      <trkpt lat="44.20523" lon="0.77488">
        <ele>65</ele>
        <time>2017-04-30T08:45:05.000Z</time>
      </trkpt>
      <trkpt lat="44.20523" lon="0.77488">
        <ele>65</ele>
        <time>2017-04-30T08:45:06.000Z</time>
      </trkpt>
      <trkpt lat="44.20523" lon="0.77488">
        <ele>65</ele>
        <time>2017-04-30T08:45:07.000Z</time>
      </trkpt>
      <trkpt lat="44.20523" lon="0.77488">
        <ele>65</ele>
        <time>2017-04-30T08:45:08.000Z</time>
      </trkpt>
      <trkpt lat="44.20523" lon="0.77488">
        <ele>66</ele>
        <time>2017-04-30T08:45:09.000Z</time>
      </trkpt>
      <trkpt lat="44.20523" lon="0.77488">
        <ele>66</ele>
        <time>2017-04-30T08:45:10.000Z</time>
      </trkpt>
      <trkpt lat="44.20523" lon="0.77489">
        <ele>66</ele>
        <time>2017-04-30T08:45:11.000Z</time>
      </trkpt>
      <trkpt lat="44.20523" lon="0.77489">
        <ele>66</ele>
        <time>2017-04-30T08:45:12.000Z</time>
      </trkpt>
      <trkpt lat="44.20523" lon="0.77489">
        <ele>65</ele>
        <time>2017-04-30T08:45:13.000Z</time>
      </trkpt>
      <trkpt lat="44.20523" lon="0.77489">
        <ele>65</ele>
        <time>2017-04-30T08:45:14.000Z</time>
      </trkpt>
      <trkpt lat="44.20523" lon="0.77489">
        <ele>65</ele>
        <time>2017-04-30T08:45:15.000Z</time>
      </trkpt>
      <trkpt lat="44.20523" lon="0.77488">
        <ele>65</ele>
        <time>2017-04-30T08:45:16.000Z</time>
      </trkpt>
      <trkpt lat="44.20523" lon="0.77488">
        <ele>65</ele>
        <time>2017-04-30T08:45:17.000Z</time>
      </trkpt>
      <trkpt lat="44.20523" lon="0.77488">
        <ele>65</ele>
        <time>2017-04-30T08:45:18.000Z</time>
      </trkpt>
      <trkpt lat="44.20523" lon="0.77488">
        <ele>65</ele>
        <time>2017-04-30T08:45:19.000Z</time>
      </trkpt>
      <trkpt lat="44.20523" lon="0.77488">
        <ele>65</ele>
        <time>2017-04-30T08:45:20.000Z</time>
      </trkpt>
      <trkpt lat="44.20523" lon="0.77488">
        <ele>65</ele>
        <time>2017-04-30T08:45:21.000Z</time>
      </trkpt>
      <trkpt lat="44.20523" lon="0.77489">
        <ele>65</ele>
        <time>2017-04-30T08:45:22.000Z</time>
      </trkpt>
      <trkpt lat="44.20523" lon="0.77489">
        <ele>65</ele>
        <time>2017-04-30T08:45:23.000Z</time>
      </trkpt>
      <trkpt lat="44.20524" lon="0.77488">
        <ele>65</ele>
        <time>2017-04-30T08:45:24.000Z</time>
      </trkpt>
      <trkpt lat="44.20524" lon="0.77488">
        <ele>65</ele>
        <time>2017-04-30T08:45:25.000Z</time>
      </trkpt>
      <trkpt lat="44.20525" lon="0.77487">
        <ele>65</ele>
        <time>2017-04-30T08:45:26.000Z</time>
      </trkpt>
      <trkpt lat="44.20526" lon="0.77486">
        <ele>65</ele>
        <time>2017-04-30T08:45:27.000Z</time>
      </trkpt>
      <trkpt lat="44.20528" lon="0.77484">
        <ele>65</ele>
        <time>2017-04-30T08:45:28.000Z</time>
      </trkpt>
      <trkpt lat="44.2053" lon="0.77482">
        <ele>65</ele>
        <time>2017-04-30T08:45:29.000Z</time>
      </trkpt>
      <trkpt lat="44.20533" lon="0.77479">
        <ele>65</ele>
        <time>2017-04-30T08:45:30.000Z</time>
      </trkpt>
      <trkpt lat="44.20535" lon="0.77475">
        <ele>65</ele>
        <time>2017-04-30T08:45:31.000Z</time>
      </trkpt>
      <trkpt lat="44.20538" lon="0.77471">
        <ele>65</ele>
        <time>2017-04-30T08:45:32.000Z</time>
      </trkpt>
      <trkpt lat="44.20541" lon="0.77466">
        <ele>65</ele>
        <time>2017-04-30T08:45:33.000Z</time>
      </trkpt>
      <trkpt lat="44.20544" lon="0.77462">
        <ele>66</ele>
        <time>2017-04-30T08:45:34.000Z</time>
      </trkpt>
      <trkpt lat="44.20548" lon="0.77457">
        <ele>66</ele>
        <time>2017-04-30T08:45:35.000Z</time>
      </trkpt>
      <trkpt lat="44.20551" lon="0.77452">
        <ele>66</ele>
        <time>2017-04-30T08:45:36.000Z</time>
      </trkpt>
      <trkpt lat="44.20554" lon="0.77447">
        <ele>66</ele>
        <time>2017-04-30T08:45:37.000Z</time>
      </trkpt>
      <trkpt lat="44.20558" lon="0.77442">
        <ele>66</ele>
        <time>2017-04-30T08:45:38.000Z</time>
      </trkpt>
      <trkpt lat="44.20561" lon="0.77437">
        <ele>66</ele>
        <time>2017-04-30T08:45:39.000Z</time>
      </trkpt>
      <trkpt lat="44.20565" lon="0.77432">
        <ele>66</ele>
        <time>2017-04-30T08:45:40.000Z</time>
      </trkpt>
      <trkpt lat="44.20568" lon="0.77428">
        <ele>66</ele>
        <time>2017-04-30T08:45:41.000Z</time>
      </trkpt>
      <trkpt lat="44.20572" lon="0.77423">
        <ele>66</ele>
        <time>2017-04-30T08:45:42.000Z</time>
      </trkpt>
      <trkpt lat="44.20576" lon="0.77418">
        <ele>66</ele>
        <time>2017-04-30T08:45:43.000Z</time>
      </trkpt>
      <trkpt lat="44.20579" lon="0.77414">
        <ele>66</ele>
        <time>2017-04-30T08:45:44.000Z</time>
      </trkpt>
      <trkpt lat="44.20583" lon="0.77409">
        <ele>67</ele>
        <time>2017-04-30T08:45:45.000Z</time>
      </trkpt>
      <trkpt lat="44.20586" lon="0.77405">
        <ele>67</ele>
        <time>2017-04-30T08:45:46.000Z</time>
      </trkpt>
      <trkpt lat="44.20587" lon="0.77395">
        <ele>67</ele>
        <time>2017-04-30T08:45:47.000Z</time>
      </trkpt>
      <trkpt lat="44.20586" lon="0.77389">
        <ele>66</ele>
        <time>2017-04-30T08:45:48.000Z</time>
      </trkpt>
      <trkpt lat="44.20582" lon="0.77386">
        <ele>68</ele>
        <time>2017-04-30T08:45:49.000Z</time>
      </trkpt>
      <trkpt lat="44.20577" lon="0.77385">
        <ele>68</ele>
        <time>2017-04-30T08:45:50.000Z</time>
      </trkpt>
      <trkpt lat="44.20572" lon="0.77383">
        <ele>68</ele>
        <time>2017-04-30T08:45:51.000Z</time>
      </trkpt>
      <trkpt lat="44.20567" lon="0.7738">
        <ele>68</ele>
        <time>2017-04-30T08:45:52.000Z</time>
      </trkpt>
      <trkpt lat="44.20562" lon="0.77377">
        <ele>68</ele>
        <time>2017-04-30T08:45:53.000Z</time>
      </trkpt>
      <trkpt lat="44.20558" lon="0.77372">
        <ele>67</ele>
        <time>2017-04-30T08:45:54.000Z</time>
      </trkpt>
      <trkpt lat="44.20554" lon="0.77366">
        <ele>67</ele>
        <time>2017-04-30T08:45:55.000Z</time>
      </trkpt>
      <trkpt lat="44.20552" lon="0.77358">
        <ele>68</ele>
        <time>2017-04-30T08:45:56.000Z</time>
      </trkpt>
      <trkpt lat="44.20549" lon="0.77351">
        <ele>69</ele>
        <time>2017-04-30T08:45:57.000Z</time>
      </trkpt>
      <trkpt lat="44.20549" lon="0.77351">
        <ele>69</ele>
        <time>2017-04-30T08:45:58.000Z</time>
      </trkpt>
      <trkpt lat="44.20547" lon="0.77338">
        <ele>70</ele>
        <time>2017-04-30T08:45:59.000Z</time>
      </trkpt>
      <trkpt lat="44.20547" lon="0.77331">
        <ele>71</ele>
        <time>2017-04-30T08:46:00.000Z</time>
      </trkpt>
      <trkpt lat="44.20547" lon="0.77324">
        <ele>71</ele>
        <time>2017-04-30T08:46:01.000Z</time>
      </trkpt>
      <trkpt lat="44.20548" lon="0.77319">
        <ele>72</ele>
        <time>2017-04-30T08:46:02.000Z</time>
      </trkpt>
      <trkpt lat="44.20551" lon="0.77314">
        <ele>74</ele>
        <time>2017-04-30T08:46:03.000Z</time>
      </trkpt>
      <trkpt lat="44.20552" lon="0.77308">
        <ele>74</ele>
        <time>2017-04-30T08:46:04.000Z</time>
      </trkpt>
      <trkpt lat="44.20554" lon="0.77304">
        <ele>75</ele>
        <time>2017-04-30T08:46:05.000Z</time>
      </trkpt>
      <trkpt lat="44.20555" lon="0.773">
        <ele>75</ele>
        <time>2017-04-30T08:46:06.000Z</time>
      </trkpt>
      <trkpt lat="44.20556" lon="0.77296">
        <ele>75</ele>
        <time>2017-04-30T08:46:07.000Z</time>
      </trkpt>
      <trkpt lat="44.20557" lon="0.77292">
        <ele>76</ele>
        <time>2017-04-30T08:46:08.000Z</time>
      </trkpt>
      <trkpt lat="44.20558" lon="0.77289">
        <ele>76</ele>
        <time>2017-04-30T08:46:09.000Z</time>
      </trkpt>
      <trkpt lat="44.2056" lon="0.77286">
        <ele>76</ele>
        <time>2017-04-30T08:46:10.000Z</time>
      </trkpt>
      <trkpt lat="44.20561" lon="0.77282">
        <ele>76</ele>
        <time>2017-04-30T08:46:11.000Z</time>
      </trkpt>
      <trkpt lat="44.20562" lon="0.77278">
        <ele>76</ele>
        <time>2017-04-30T08:46:12.000Z</time>
      </trkpt>
      <trkpt lat="44.20562" lon="0.77275">
        <ele>76</ele>
        <time>2017-04-30T08:46:13.000Z</time>
      </trkpt>
      <trkpt lat="44.20563" lon="0.77271">
        <ele>76</ele>
        <time>2017-04-30T08:46:14.000Z</time>
      </trkpt>
      <trkpt lat="44.20564" lon="0.77268">
        <ele>76</ele>
        <time>2017-04-30T08:46:15.000Z</time>
      </trkpt>
      <trkpt lat="44.20565" lon="0.77265">
        <ele>77</ele>
        <time>2017-04-30T08:46:16.000Z</time>
      </trkpt>
      <trkpt lat="44.20565" lon="0.77262">
        <ele>77</ele>
        <time>2017-04-30T08:46:17.000Z</time>
      </trkpt>
      <trkpt lat="44.20566" lon="0.77258">
        <ele>77</ele>
        <time>2017-04-30T08:46:18.000Z</time>
      </trkpt>
      <trkpt lat="44.20566" lon="0.77254">
        <ele>78</ele>
        <time>2017-04-30T08:46:19.000Z</time>
      </trkpt>
      <trkpt lat="44.20567" lon="0.77251">
        <ele>79</ele>
        <time>2017-04-30T08:46:20.000Z</time>
      </trkpt>
      <trkpt lat="44.20567" lon="0.77248">
        <ele>79</ele>
        <time>2017-04-30T08:46:21.000Z</time>
      </trkpt>
      <trkpt lat="44.20568" lon="0.77244">
        <ele>80</ele>
        <time>2017-04-30T08:46:22.000Z</time>
      </trkpt>
      <trkpt lat="44.20568" lon="0.77241">
        <ele>80</ele>
        <time>2017-04-30T08:46:23.000Z</time>
      </trkpt>
      <trkpt lat="44.20569" lon="0.77238">
        <ele>81</ele>
        <time>2017-04-30T08:46:24.000Z</time>
      </trkpt>
      <trkpt lat="44.20569" lon="0.77234">
        <ele>81</ele>
        <time>2017-04-30T08:46:25.000Z</time>
      </trkpt>
      <trkpt lat="44.20569" lon="0.77231">
        <ele>82</ele>
        <time>2017-04-30T08:46:26.000Z</time>
      </trkpt>
      <trkpt lat="44.2057" lon="0.77227">
        <ele>82</ele>
        <time>2017-04-30T08:46:27.000Z</time>
      </trkpt>
      <trkpt lat="44.2057" lon="0.77224">
        <ele>82</ele>
        <time>2017-04-30T08:46:28.000Z</time>
      </trkpt>
      <trkpt lat="44.2057" lon="0.77221">
        <ele>83</ele>
        <time>2017-04-30T08:46:29.000Z</time>
      </trkpt>
      <trkpt lat="44.2057" lon="0.77218">
        <ele>83</ele>
        <time>2017-04-30T08:46:30.000Z</time>
      </trkpt>
      <trkpt lat="44.20571" lon="0.77214">
        <ele>83</ele>
        <time>2017-04-30T08:46:31.000Z</time>
      </trkpt>
      <trkpt lat="44.2057" lon="0.7721">
        <ele>83</ele>
        <time>2017-04-30T08:46:32.000Z</time>
      </trkpt>
      <trkpt lat="44.2057" lon="0.77208">
        <ele>84</ele>
        <time>2017-04-30T08:46:33.000Z</time>
      </trkpt>
      <trkpt lat="44.2057" lon="0.77205">
        <ele>84</ele>
        <time>2017-04-30T08:46:34.000Z</time>
      </trkpt>
      <trkpt lat="44.2057" lon="0.77201">
        <ele>84</ele>
        <time>2017-04-30T08:46:35.000Z</time>
      </trkpt>
      <trkpt lat="44.20571" lon="0.77197">
        <ele>84</ele>
        <time>2017-04-30T08:46:36.000Z</time>
      </trkpt>
      <trkpt lat="44.20571" lon="0.77193">
        <ele>84</ele>
        <time>2017-04-30T08:46:37.000Z</time>
      </trkpt>
      <trkpt lat="44.20571" lon="0.7719">
        <ele>84</ele>
        <time>2017-04-30T08:46:38.000Z</time>
      </trkpt>
      <trkpt lat="44.20571" lon="0.77186">
        <ele>84</ele>
        <time>2017-04-30T08:46:39.000Z</time>
      </trkpt>
      <trkpt lat="44.20572" lon="0.77182">
        <ele>84</ele>
        <time>2017-04-30T08:46:40.000Z</time>
      </trkpt>
      <trkpt lat="44.20572" lon="0.77178">
        <ele>84</ele>
        <time>2017-04-30T08:46:41.000Z</time>
      </trkpt>
      <trkpt lat="44.20572" lon="0.77175">
        <ele>83</ele>
        <time>2017-04-30T08:46:42.000Z</time>
      </trkpt>
      <trkpt lat="44.20572" lon="0.77171">
        <ele>83</ele>
        <time>2017-04-30T08:46:43.000Z</time>
      </trkpt>
      <trkpt lat="44.20572" lon="0.77168">
        <ele>84</ele>
        <time>2017-04-30T08:46:44.000Z</time>
      </trkpt>
      <trkpt lat="44.20572" lon="0.77164">
        <ele>84</ele>
        <time>2017-04-30T08:46:45.000Z</time>
      </trkpt>
      <trkpt lat="44.20573" lon="0.7716">
        <ele>84</ele>
        <time>2017-04-30T08:46:46.000Z</time>
      </trkpt>
      <trkpt lat="44.20574" lon="0.77156">
        <ele>83</ele>
        <time>2017-04-30T08:46:47.000Z</time>
      </trkpt>
      <trkpt lat="44.20574" lon="0.77152">
        <ele>83</ele>
        <time>2017-04-30T08:46:48.000Z</time>
      </trkpt>
      <trkpt lat="44.20574" lon="0.77148">
        <ele>84</ele>
        <time>2017-04-30T08:46:49.000Z</time>
      </trkpt>
      <trkpt lat="44.20575" lon="0.77144">
        <ele>84</ele>
        <time>2017-04-30T08:46:50.000Z</time>
      </trkpt>
      <trkpt lat="44.20575" lon="0.77139">
        <ele>83</ele>
        <time>2017-04-30T08:46:51.000Z</time>
      </trkpt>
      <trkpt lat="44.20576" lon="0.77135">
        <ele>83</ele>
        <time>2017-04-30T08:46:52.000Z</time>
      </trkpt>
      <trkpt lat="44.20576" lon="0.77131">
        <ele>84</ele>
        <time>2017-04-30T08:46:53.000Z</time>
      </trkpt>
      <trkpt lat="44.20577" lon="0.77127">
        <ele>84</ele>
        <time>2017-04-30T08:46:54.000Z</time>
      </trkpt>
      <trkpt lat="44.20577" lon="0.77123">
        <ele>84</ele>
        <time>2017-04-30T08:46:55.000Z</time>
      </trkpt>
      <trkpt lat="44.20577" lon="0.77119">
        <ele>84</ele>
        <time>2017-04-30T08:46:56.000Z</time>
      </trkpt>
      <trkpt lat="44.20578" lon="0.77115">
        <ele>84</ele>
        <time>2017-04-30T08:46:57.000Z</time>
      </trkpt>
      <trkpt lat="44.20578" lon="0.77111">
        <ele>85</ele>
        <time>2017-04-30T08:46:58.000Z</time>
      </trkpt>
      <trkpt lat="44.20579" lon="0.77107">
        <ele>85</ele>
        <time>2017-04-30T08:46:59.000Z</time>
      </trkpt>
      <trkpt lat="44.20579" lon="0.77103">
        <ele>85</ele>
        <time>2017-04-30T08:47:00.000Z</time>
      </trkpt>
      <trkpt lat="44.2058" lon="0.77098">
        <ele>85</ele>
        <time>2017-04-30T08:47:01.000Z</time>
      </trkpt>
      <trkpt lat="44.2058" lon="0.77094">
        <ele>85</ele>
        <time>2017-04-30T08:47:02.000Z</time>
      </trkpt>
      <trkpt lat="44.2058" lon="0.77094">
        <ele>85</ele>
        <time>2017-04-30T08:47:03.000Z</time>
      </trkpt>
      <trkpt lat="44.20581" lon="0.77089">
        <ele>86</ele>
        <time>2017-04-30T08:47:04.000Z</time>
      </trkpt>
      <trkpt lat="44.20581" lon="0.77083">
        <ele>86</ele>
        <time>2017-04-30T08:47:05.000Z</time>
      </trkpt>
      <trkpt lat="44.20581" lon="0.77079">
        <ele>87</ele>
        <time>2017-04-30T08:47:06.000Z</time>
      </trkpt>
      <trkpt lat="44.20581" lon="0.77075">
        <ele>87</ele>
        <time>2017-04-30T08:47:07.000Z</time>
      </trkpt>
      <trkpt lat="44.20581" lon="0.7707">
        <ele>87</ele>
        <time>2017-04-30T08:47:08.000Z</time>
      </trkpt>
      <trkpt lat="44.20581" lon="0.77066">
        <ele>86</ele>
        <time>2017-04-30T08:47:09.000Z</time>
      </trkpt>
      <trkpt lat="44.20581" lon="0.77062">
        <ele>86</ele>
        <time>2017-04-30T08:47:10.000Z</time>
      </trkpt>
      <trkpt lat="44.20581" lon="0.77057">
        <ele>86</ele>
        <time>2017-04-30T08:47:11.000Z</time>
      </trkpt>
      <trkpt lat="44.2058" lon="0.77053">
        <ele>86</ele>
        <time>2017-04-30T08:47:12.000Z</time>
      </trkpt>
      <trkpt lat="44.2058" lon="0.77049">
        <ele>87</ele>
        <time>2017-04-30T08:47:13.000Z</time>
      </trkpt>
      <trkpt lat="44.20579" lon="0.77044">
        <ele>87</ele>
        <time>2017-04-30T08:47:14.000Z</time>
      </trkpt>
      <trkpt lat="44.20578" lon="0.77039">
        <ele>87</ele>
        <time>2017-04-30T08:47:15.000Z</time>
      </trkpt>
      <trkpt lat="44.20578" lon="0.77035">
        <ele>86</ele>
        <time>2017-04-30T08:47:16.000Z</time>
      </trkpt>
      <trkpt lat="44.20577" lon="0.7703">
        <ele>86</ele>
        <time>2017-04-30T08:47:17.000Z</time>
      </trkpt>
      <trkpt lat="44.20576" lon="0.77026">
        <ele>87</ele>
        <time>2017-04-30T08:47:18.000Z</time>
      </trkpt>
      <trkpt lat="44.20575" lon="0.77022">
        <ele>87</ele>
        <time>2017-04-30T08:47:19.000Z</time>
      </trkpt>
      <trkpt lat="44.20574" lon="0.77017">
        <ele>87</ele>
        <time>2017-04-30T08:47:20.000Z</time>
      </trkpt>
      <trkpt lat="44.20573" lon="0.77013">
        <ele>87</ele>
        <time>2017-04-30T08:47:21.000Z</time>
      </trkpt>
      <trkpt lat="44.20572" lon="0.77009">
        <ele>87</ele>
        <time>2017-04-30T08:47:22.000Z</time>
      </trkpt>
      <trkpt lat="44.2057" lon="0.77005">
        <ele>87</ele>
        <time>2017-04-30T08:47:23.000Z</time>
      </trkpt>
      <trkpt lat="44.20567" lon="0.77001">
        <ele>87</ele>
        <time>2017-04-30T08:47:24.000Z</time>
      </trkpt>
      <trkpt lat="44.20567" lon="0.77001">
        <ele>88</ele>
        <time>2017-04-30T08:47:25.000Z</time>
      </trkpt>
      <trkpt lat="44.20562" lon="0.76995">
        <ele>88</ele>
        <time>2017-04-30T08:47:26.000Z</time>
      </trkpt>
      <trkpt lat="44.2056" lon="0.76991">
        <ele>88</ele>
        <time>2017-04-30T08:47:27.000Z</time>
      </trkpt>
      <trkpt lat="44.20558" lon="0.76987">
        <ele>88</ele>
        <time>2017-04-30T08:47:28.000Z</time>
      </trkpt>
      <trkpt lat="44.20555" lon="0.76984">
        <ele>88</ele>
        <time>2017-04-30T08:47:29.000Z</time>
      </trkpt>
      <trkpt lat="44.20553" lon="0.7698">
        <ele>88</ele>
        <time>2017-04-30T08:47:30.000Z</time>
      </trkpt>
      <trkpt lat="44.20551" lon="0.76977">
        <ele>88</ele>
        <time>2017-04-30T08:47:31.000Z</time>
      </trkpt>
      <trkpt lat="44.20549" lon="0.76973">
        <ele>88</ele>
        <time>2017-04-30T08:47:32.000Z</time>
      </trkpt>
      <trkpt lat="44.20547" lon="0.7697">
        <ele>89</ele>
        <time>2017-04-30T08:47:33.000Z</time>
      </trkpt>
      <trkpt lat="44.20544" lon="0.76966">
        <ele>89</ele>
        <time>2017-04-30T08:47:34.000Z</time>
      </trkpt>
      <trkpt lat="44.20542" lon="0.76963">
        <ele>89</ele>
        <time>2017-04-30T08:47:35.000Z</time>
      </trkpt>
      <trkpt lat="44.2054" lon="0.76959">
        <ele>89</ele>
        <time>2017-04-30T08:47:36.000Z</time>
      </trkpt>
      <trkpt lat="44.20538" lon="0.76955">
        <ele>89</ele>
        <time>2017-04-30T08:47:37.000Z</time>
      </trkpt>
      <trkpt lat="44.20536" lon="0.76951">
        <ele>90</ele>
        <time>2017-04-30T08:47:38.000Z</time>
      </trkpt>
      <trkpt lat="44.20534" lon="0.76948">
        <ele>90</ele>
        <time>2017-04-30T08:47:39.000Z</time>
      </trkpt>
      <trkpt lat="44.20532" lon="0.76944">
        <ele>90</ele>
        <time>2017-04-30T08:47:40.000Z</time>
      </trkpt>
      <trkpt lat="44.2053" lon="0.7694">
        <ele>90</ele>
        <time>2017-04-30T08:47:41.000Z</time>
      </trkpt>
      <trkpt lat="44.20528" lon="0.76937">
        <ele>90</ele>
        <time>2017-04-30T08:47:42.000Z</time>
      </trkpt>
      <trkpt lat="44.20526" lon="0.76933">
        <ele>89</ele>
        <time>2017-04-30T08:47:43.000Z</time>
      </trkpt>
      <trkpt lat="44.20524" lon="0.76929">
        <ele>89</ele>
        <time>2017-04-30T08:47:44.000Z</time>
      </trkpt>
      <trkpt lat="44.20523" lon="0.76925">
        <ele>89</ele>
        <time>2017-04-30T08:47:45.000Z</time>
      </trkpt>
      <trkpt lat="44.20522" lon="0.76921">
        <ele>89</ele>
        <time>2017-04-30T08:47:46.000Z</time>
      </trkpt>
      <trkpt lat="44.2052" lon="0.76918">
        <ele>89</ele>
        <time>2017-04-30T08:47:47.000Z</time>
      </trkpt>
      <trkpt lat="44.20519" lon="0.76914">
        <ele>89</ele>
        <time>2017-04-30T08:47:48.000Z</time>
      </trkpt>
      <trkpt lat="44.20517" lon="0.7691">
        <ele>89</ele>
        <time>2017-04-30T08:47:49.000Z</time>
      </trkpt>
      <trkpt lat="44.20515" lon="0.76907">
        <ele>89</ele>
        <time>2017-04-30T08:47:50.000Z</time>
      </trkpt>
      <trkpt lat="44.20513" lon="0.76903">
        <ele>89</ele>
        <time>2017-04-30T08:47:51.000Z</time>
      </trkpt>
      <trkpt lat="44.20512" lon="0.76899">
        <ele>90</ele>
        <time>2017-04-30T08:47:52.000Z</time>
      </trkpt>
      <trkpt lat="44.2051" lon="0.76895">
        <ele>89</ele>
        <time>2017-04-30T08:47:53.000Z</time>
      </trkpt>
      <trkpt lat="44.20508" lon="0.76891">
        <ele>90</ele>
        <time>2017-04-30T08:47:54.000Z</time>
      </trkpt>
      <trkpt lat="44.20506" lon="0.76887">
        <ele>90</ele>
        <time>2017-04-30T08:47:55.000Z</time>
      </trkpt>
      <trkpt lat="44.20504" lon="0.76884">
        <ele>89</ele>
        <time>2017-04-30T08:47:56.000Z</time>
      </trkpt>
      <trkpt lat="44.20503" lon="0.7688">
        <ele>89</ele>
        <time>2017-04-30T08:47:57.000Z</time>
      </trkpt>
      <trkpt lat="44.20501" lon="0.76876">
        <ele>90</ele>
        <time>2017-04-30T08:47:58.000Z</time>
      </trkpt>
      <trkpt lat="44.20499" lon="0.76872">
        <ele>89</ele>
        <time>2017-04-30T08:47:59.000Z</time>
      </trkpt>
      <trkpt lat="44.20497" lon="0.76869">
        <ele>90</ele>
        <time>2017-04-30T08:48:00.000Z</time>
      </trkpt>
      <trkpt lat="44.20495" lon="0.76865">
        <ele>90</ele>
        <time>2017-04-30T08:48:01.000Z</time>
      </trkpt>
      <trkpt lat="44.20493" lon="0.76861">
        <ele>90</ele>
        <time>2017-04-30T08:48:02.000Z</time>
      </trkpt>
      <trkpt lat="44.20491" lon="0.76858">
        <ele>90</ele>
        <time>2017-04-30T08:48:03.000Z</time>
      </trkpt>
      <trkpt lat="44.20488" lon="0.76854">
        <ele>90</ele>
        <time>2017-04-30T08:48:04.000Z</time>
      </trkpt>
      <trkpt lat="44.20486" lon="0.76851">
        <ele>90</ele>
        <time>2017-04-30T08:48:05.000Z</time>
      </trkpt>
      <trkpt lat="44.20484" lon="0.76848">
        <ele>90</ele>
        <time>2017-04-30T08:48:06.000Z</time>
      </trkpt>
      <trkpt lat="44.20481" lon="0.76844">
        <ele>90</ele>
        <time>2017-04-30T08:48:07.000Z</time>
      </trkpt>
      <trkpt lat="44.20479" lon="0.76841">
        <ele>90</ele>
        <time>2017-04-30T08:48:08.000Z</time>
      </trkpt>
      <trkpt lat="44.20476" lon="0.76838">
        <ele>90</ele>
        <time>2017-04-30T08:48:09.000Z</time>
      </trkpt>
      <trkpt lat="44.20474" lon="0.76835">
        <ele>90</ele>
        <time>2017-04-30T08:48:10.000Z</time>
      </trkpt>
      <trkpt lat="44.20471" lon="0.76832">
        <ele>90</ele>
        <time>2017-04-30T08:48:11.000Z</time>
      </trkpt>
      <trkpt lat="44.20468" lon="0.76829">
        <ele>90</ele>
        <time>2017-04-30T08:48:12.000Z</time>
      </trkpt>
      <trkpt lat="44.20466" lon="0.76827">
        <ele>90</ele>
        <time>2017-04-30T08:48:13.000Z</time>
      </trkpt>
      <trkpt lat="44.20463" lon="0.76824">
        <ele>90</ele>
        <time>2017-04-30T08:48:14.000Z</time>
      </trkpt>
      <trkpt lat="44.2046" lon="0.76821">
        <ele>90</ele>
        <time>2017-04-30T08:48:15.000Z</time>
      </trkpt>
      <trkpt lat="44.20458" lon="0.76819">
        <ele>91</ele>
        <time>2017-04-30T08:48:16.000Z</time>
      </trkpt>
      <trkpt lat="44.20455" lon="0.76816">
        <ele>91</ele>
        <time>2017-04-30T08:48:17.000Z</time>
      </trkpt>
      <trkpt lat="44.20453" lon="0.76813">
        <ele>90</ele>
        <time>2017-04-30T08:48:18.000Z</time>
      </trkpt>
      <trkpt lat="44.2045" lon="0.7681">
        <ele>91</ele>
        <time>2017-04-30T08:48:19.000Z</time>
      </trkpt>
      <trkpt lat="44.20448" lon="0.76807">
        <ele>91</ele>
        <time>2017-04-30T08:48:20.000Z</time>
      </trkpt>
      <trkpt lat="44.20445" lon="0.76804">
        <ele>91</ele>
        <time>2017-04-30T08:48:21.000Z</time>
      </trkpt>
      <trkpt lat="44.20443" lon="0.76801">
        <ele>92</ele>
        <time>2017-04-30T08:48:22.000Z</time>
      </trkpt>
      <trkpt lat="44.20441" lon="0.76798">
        <ele>92</ele>
        <time>2017-04-30T08:48:23.000Z</time>
      </trkpt>
      <trkpt lat="44.20439" lon="0.76795">
        <ele>92</ele>
        <time>2017-04-30T08:48:24.000Z</time>
      </trkpt>
      <trkpt lat="44.20436" lon="0.76792">
        <ele>92</ele>
        <time>2017-04-30T08:48:25.000Z</time>
      </trkpt>
      <trkpt lat="44.20434" lon="0.76789">
        <ele>92</ele>
        <time>2017-04-30T08:48:26.000Z</time>
      </trkpt>
      <trkpt lat="44.20432" lon="0.76786">
        <ele>92</ele>
        <time>2017-04-30T08:48:27.000Z</time>
      </trkpt>
      <trkpt lat="44.2043" lon="0.76783">
        <ele>93</ele>
        <time>2017-04-30T08:48:28.000Z</time>
      </trkpt>
      <trkpt lat="44.20427" lon="0.7678">
        <ele>93</ele>
        <time>2017-04-30T08:48:29.000Z</time>
      </trkpt>
      <trkpt lat="44.20425" lon="0.76777">
        <ele>93</ele>
        <time>2017-04-30T08:48:30.000Z</time>
      </trkpt>
      <trkpt lat="44.20423" lon="0.76774">
        <ele>93</ele>
        <time>2017-04-30T08:48:31.000Z</time>
      </trkpt>
      <trkpt lat="44.2042" lon="0.7677">
        <ele>93</ele>
        <time>2017-04-30T08:48:32.000Z</time>
      </trkpt>
      <trkpt lat="44.20418" lon="0.76767">
        <ele>93</ele>
        <time>2017-04-30T08:48:33.000Z</time>
      </trkpt>
      <trkpt lat="44.20415" lon="0.76764">
        <ele>93</ele>
        <time>2017-04-30T08:48:34.000Z</time>
      </trkpt>
      <trkpt lat="44.20413" lon="0.76761">
        <ele>93</ele>
        <time>2017-04-30T08:48:35.000Z</time>
      </trkpt>
      <trkpt lat="44.2041" lon="0.76757">
        <ele>93</ele>
        <time>2017-04-30T08:48:36.000Z</time>
      </trkpt>
      <trkpt lat="44.20407" lon="0.76754">
        <ele>93</ele>
        <time>2017-04-30T08:48:37.000Z</time>
      </trkpt>
      <trkpt lat="44.20405" lon="0.76751">
        <ele>93</ele>
        <time>2017-04-30T08:48:38.000Z</time>
      </trkpt>
      <trkpt lat="44.20402" lon="0.76748">
        <ele>93</ele>
        <time>2017-04-30T08:48:39.000Z</time>
      </trkpt>
      <trkpt lat="44.20399" lon="0.76744">
        <ele>94</ele>
        <time>2017-04-30T08:48:40.000Z</time>
      </trkpt>
      <trkpt lat="44.20396" lon="0.76741">
        <ele>94</ele>
        <time>2017-04-30T08:48:41.000Z</time>
      </trkpt>
      <trkpt lat="44.20393" lon="0.76737">
        <ele>94</ele>
        <time>2017-04-30T08:48:42.000Z</time>
      </trkpt>
      <trkpt lat="44.2039" lon="0.76734">
        <ele>94</ele>
        <time>2017-04-30T08:48:43.000Z</time>
      </trkpt>
      <trkpt lat="44.20386" lon="0.7673">
        <ele>94</ele>
        <time>2017-04-30T08:48:44.000Z</time>
      </trkpt>
      <trkpt lat="44.20383" lon="0.76726">
        <ele>94</ele>
        <time>2017-04-30T08:48:45.000Z</time>
      </trkpt>
      <trkpt lat="44.2038" lon="0.76722">
        <ele>94</ele>
        <time>2017-04-30T08:48:46.000Z</time>
      </trkpt>
      <trkpt lat="44.20376" lon="0.76719">
        <ele>94</ele>
        <time>2017-04-30T08:48:47.000Z</time>
      </trkpt>
      <trkpt lat="44.20373" lon="0.76715">
        <ele>94</ele>
        <time>2017-04-30T08:48:48.000Z</time>
      </trkpt>
      <trkpt lat="44.2037" lon="0.76712">
        <ele>94</ele>
        <time>2017-04-30T08:48:49.000Z</time>
      </trkpt>
      <trkpt lat="44.20367" lon="0.76708">
        <ele>94</ele>
        <time>2017-04-30T08:48:50.000Z</time>
      </trkpt>
      <trkpt lat="44.20364" lon="0.76704">
        <ele>95</ele>
        <time>2017-04-30T08:48:51.000Z</time>
      </trkpt>
      <trkpt lat="44.20361" lon="0.76701">
        <ele>95</ele>
        <time>2017-04-30T08:48:52.000Z</time>
      </trkpt>
      <trkpt lat="44.20357" lon="0.76697">
        <ele>95</ele>
        <time>2017-04-30T08:48:53.000Z</time>
      </trkpt>
      <trkpt lat="44.20354" lon="0.76693">
        <ele>95</ele>
        <time>2017-04-30T08:48:54.000Z</time>
      </trkpt>
      <trkpt lat="44.2035" lon="0.76689">
        <ele>94</ele>
        <time>2017-04-30T08:48:55.000Z</time>
      </trkpt>
      <trkpt lat="44.20347" lon="0.76685">
        <ele>94</ele>
        <time>2017-04-30T08:48:56.000Z</time>
      </trkpt>
      <trkpt lat="44.20344" lon="0.76681">
        <ele>94</ele>
        <time>2017-04-30T08:48:57.000Z</time>
      </trkpt>
      <trkpt lat="44.2034" lon="0.76676">
        <ele>94</ele>
        <time>2017-04-30T08:48:58.000Z</time>
      </trkpt>
      <trkpt lat="44.20337" lon="0.76671">
        <ele>94</ele>
        <time>2017-04-30T08:48:59.000Z</time>
      </trkpt>
      <trkpt lat="44.20335" lon="0.76665">
        <ele>94</ele>
        <time>2017-04-30T08:49:00.000Z</time>
      </trkpt>
      <trkpt lat="44.20337" lon="0.7666">
        <ele>95</ele>
        <time>2017-04-30T08:49:01.000Z</time>
      </trkpt>
      <trkpt lat="44.20339" lon="0.76656">
        <ele>96</ele>
        <time>2017-04-30T08:49:02.000Z</time>
      </trkpt>
      <trkpt lat="44.20342" lon="0.76652">
        <ele>96</ele>
        <time>2017-04-30T08:49:03.000Z</time>
      </trkpt>
      <trkpt lat="44.20345" lon="0.76649">
        <ele>96</ele>
        <time>2017-04-30T08:49:04.000Z</time>
      </trkpt>
      <trkpt lat="44.20346" lon="0.76645">
        <ele>96</ele>
        <time>2017-04-30T08:49:05.000Z</time>
      </trkpt>
      <trkpt lat="44.20348" lon="0.76642">
        <ele>96</ele>
        <time>2017-04-30T08:49:06.000Z</time>
      </trkpt>
      <trkpt lat="44.20349" lon="0.76639">
        <ele>96</ele>
        <time>2017-04-30T08:49:07.000Z</time>
      </trkpt>
      <trkpt lat="44.20351" lon="0.76636">
        <ele>96</ele>
        <time>2017-04-30T08:49:08.000Z</time>
      </trkpt>
      <trkpt lat="44.20353" lon="0.76633">
        <ele>96</ele>
        <time>2017-04-30T08:49:09.000Z</time>
      </trkpt>
      <trkpt lat="44.20354" lon="0.76629">
        <ele>97</ele>
        <time>2017-04-30T08:49:10.000Z</time>
      </trkpt>
      <trkpt lat="44.20356" lon="0.76627">
        <ele>97</ele>
        <time>2017-04-30T08:49:11.000Z</time>
      </trkpt>
      <trkpt lat="44.20357" lon="0.76624">
        <ele>97</ele>
        <time>2017-04-30T08:49:12.000Z</time>
      </trkpt>
      <trkpt lat="44.20358" lon="0.76621">
        <ele>97</ele>
        <time>2017-04-30T08:49:13.000Z</time>
      </trkpt>
      <trkpt lat="44.2036" lon="0.76618">
        <ele>97</ele>
        <time>2017-04-30T08:49:14.000Z</time>
      </trkpt>
      <trkpt lat="44.20361" lon="0.76616">
        <ele>98</ele>
        <time>2017-04-30T08:49:15.000Z</time>
      </trkpt>
      <trkpt lat="44.20362" lon="0.76613">
        <ele>98</ele>
        <time>2017-04-30T08:49:16.000Z</time>
      </trkpt>
      <trkpt lat="44.20363" lon="0.76611">
        <ele>98</ele>
        <time>2017-04-30T08:49:17.000Z</time>
      </trkpt>
      <trkpt lat="44.20364" lon="0.76608">
        <ele>98</ele>
        <time>2017-04-30T08:49:18.000Z</time>
      </trkpt>
      <trkpt lat="44.20365" lon="0.76606">
        <ele>99</ele>
        <time>2017-04-30T08:49:19.000Z</time>
      </trkpt>
      <trkpt lat="44.20366" lon="0.76603">
        <ele>99</ele>
        <time>2017-04-30T08:49:20.000Z</time>
      </trkpt>
      <trkpt lat="44.20368" lon="0.76601">
        <ele>99</ele>
        <time>2017-04-30T08:49:21.000Z</time>
      </trkpt>
      <trkpt lat="44.20369" lon="0.76599">
        <ele>99</ele>
        <time>2017-04-30T08:49:22.000Z</time>
      </trkpt>
      <trkpt lat="44.2037" lon="0.76597">
        <ele>100</ele>
        <time>2017-04-30T08:49:23.000Z</time>
      </trkpt>
      <trkpt lat="44.20371" lon="0.76594">
        <ele>100</ele>
        <time>2017-04-30T08:49:24.000Z</time>
      </trkpt>
      <trkpt lat="44.20373" lon="0.76592">
        <ele>100</ele>
        <time>2017-04-30T08:49:25.000Z</time>
      </trkpt>
      <trkpt lat="44.20374" lon="0.7659">
        <ele>101</ele>
        <time>2017-04-30T08:49:26.000Z</time>
      </trkpt>
      <trkpt lat="44.20375" lon="0.76588">
        <ele>101</ele>
        <time>2017-04-30T08:49:27.000Z</time>
      </trkpt>
      <trkpt lat="44.20376" lon="0.76586">
        <ele>101</ele>
        <time>2017-04-30T08:49:28.000Z</time>
      </trkpt>
      <trkpt lat="44.20377" lon="0.76585">
        <ele>102</ele>
        <time>2017-04-30T08:49:29.000Z</time>
      </trkpt>
      <trkpt lat="44.20379" lon="0.76583">
        <ele>102</ele>
        <time>2017-04-30T08:49:30.000Z</time>
      </trkpt>
      <trkpt lat="44.2038" lon="0.76582">
        <ele>103</ele>
        <time>2017-04-30T08:49:31.000Z</time>
      </trkpt>
      <trkpt lat="44.20381" lon="0.7658">
        <ele>103</ele>
        <time>2017-04-30T08:49:32.000Z</time>
      </trkpt>
      <trkpt lat="44.20382" lon="0.76578">
        <ele>103</ele>
        <time>2017-04-30T08:49:33.000Z</time>
      </trkpt>
      <trkpt lat="44.20383" lon="0.76576">
        <ele>103</ele>
        <time>2017-04-30T08:49:34.000Z</time>
      </trkpt>
      <trkpt lat="44.20384" lon="0.76575">
        <ele>104</ele>
        <time>2017-04-30T08:49:35.000Z</time>
      </trkpt>
      <trkpt lat="44.20386" lon="0.76573">
        <ele>104</ele>
        <time>2017-04-30T08:49:36.000Z</time>
      </trkpt>
      <trkpt lat="44.20387" lon="0.76572">
        <ele>104</ele>
        <time>2017-04-30T08:49:37.000Z</time>
      </trkpt>
      <trkpt lat="44.20388" lon="0.7657">
        <ele>105</ele>
        <time>2017-04-30T08:49:38.000Z</time>
      </trkpt>
      <trkpt lat="44.20389" lon="0.76568">
        <ele>105</ele>
        <time>2017-04-30T08:49:39.000Z</time>
      </trkpt>
      <trkpt lat="44.2039" lon="0.76567">
        <ele>106</ele>
        <time>2017-04-30T08:49:40.000Z</time>
      </trkpt>
      <trkpt lat="44.20391" lon="0.76565">
        <ele>106</ele>
        <time>2017-04-30T08:49:41.000Z</time>
      </trkpt>
      <trkpt lat="44.20392" lon="0.76563">
        <ele>106</ele>
        <time>2017-04-30T08:49:42.000Z</time>
      </trkpt>
      <trkpt lat="44.20393" lon="0.76561">
        <ele>106</ele>
        <time>2017-04-30T08:49:43.000Z</time>
      </trkpt>
      <trkpt lat="44.20394" lon="0.7656">
        <ele>106</ele>
        <time>2017-04-30T08:49:44.000Z</time>
      </trkpt>
      <trkpt lat="44.20395" lon="0.76558">
        <ele>107</ele>
        <time>2017-04-30T08:49:45.000Z</time>
      </trkpt>
      <trkpt lat="44.20396" lon="0.76557">
        <ele>107</ele>
        <time>2017-04-30T08:49:46.000Z</time>
      </trkpt>
      <trkpt lat="44.20397" lon="0.76556">
        <ele>108</ele>
        <time>2017-04-30T08:49:47.000Z</time>
      </trkpt>
      <trkpt lat="44.20398" lon="0.76554">
        <ele>108</ele>
        <time>2017-04-30T08:49:48.000Z</time>
      </trkpt>
      <trkpt lat="44.20399" lon="0.76553">
        <ele>108</ele>
        <time>2017-04-30T08:49:49.000Z</time>
      </trkpt>
      <trkpt lat="44.20401" lon="0.76551">
        <ele>109</ele>
        <time>2017-04-30T08:49:50.000Z</time>
      </trkpt>
      <trkpt lat="44.20402" lon="0.76549">
        <ele>109</ele>
        <time>2017-04-30T08:49:51.000Z</time>
      </trkpt>
      <trkpt lat="44.20403" lon="0.76548">
        <ele>110</ele>
        <time>2017-04-30T08:49:52.000Z</time>
      </trkpt>
      <trkpt lat="44.20404" lon="0.76546">
        <ele>110</ele>
        <time>2017-04-30T08:49:53.000Z</time>
      </trkpt>
      <trkpt lat="44.20405" lon="0.76545">
        <ele>110</ele>
        <time>2017-04-30T08:49:54.000Z</time>
      </trkpt>
      <trkpt lat="44.20406" lon="0.76543">
        <ele>110</ele>
        <time>2017-04-30T08:49:55.000Z</time>
      </trkpt>
      <trkpt lat="44.20408" lon="0.76542">
        <ele>111</ele>
        <time>2017-04-30T08:49:56.000Z</time>
      </trkpt>
      <trkpt lat="44.20409" lon="0.7654">
        <ele>111</ele>
        <time>2017-04-30T08:49:57.000Z</time>
      </trkpt>
      <trkpt lat="44.2041" lon="0.76537">
        <ele>111</ele>
        <time>2017-04-30T08:49:58.000Z</time>
      </trkpt>
      <trkpt lat="44.20411" lon="0.76535">
        <ele>111</ele>
        <time>2017-04-30T08:49:59.000Z</time>
      </trkpt>
      <trkpt lat="44.20411" lon="0.76534">
        <ele>111</ele>
        <time>2017-04-30T08:50:00.000Z</time>
      </trkpt>
      <trkpt lat="44.20412" lon="0.76532">
        <ele>111</ele>
        <time>2017-04-30T08:50:01.000Z</time>
      </trkpt>
      <trkpt lat="44.20413" lon="0.76529">
        <ele>112</ele>
        <time>2017-04-30T08:50:02.000Z</time>
      </trkpt>
      <trkpt lat="44.20414" lon="0.76527">
        <ele>112</ele>
        <time>2017-04-30T08:50:03.000Z</time>
      </trkpt>
      <trkpt lat="44.20415" lon="0.76525">
        <ele>112</ele>
        <time>2017-04-30T08:50:04.000Z</time>
      </trkpt>
      <trkpt lat="44.20416" lon="0.76523">
        <ele>112</ele>
        <time>2017-04-30T08:50:05.000Z</time>
      </trkpt>
      <trkpt lat="44.20416" lon="0.76521">
        <ele>112</ele>
        <time>2017-04-30T08:50:06.000Z</time>
      </trkpt>
      <trkpt lat="44.20417" lon="0.76518">
        <ele>112</ele>
        <time>2017-04-30T08:50:07.000Z</time>
      </trkpt>
      <trkpt lat="44.20417" lon="0.76515">
        <ele>112</ele>
        <time>2017-04-30T08:50:08.000Z</time>
      </trkpt>
      <trkpt lat="44.20418" lon="0.76512">
        <ele>112</ele>
        <time>2017-04-30T08:50:09.000Z</time>
      </trkpt>
      <trkpt lat="44.20418" lon="0.76509">
        <ele>113</ele>
        <time>2017-04-30T08:50:10.000Z</time>
      </trkpt>
      <trkpt lat="44.20419" lon="0.76506">
        <ele>113</ele>
        <time>2017-04-30T08:50:11.000Z</time>
      </trkpt>
      <trkpt lat="44.20419" lon="0.76503">
        <ele>113</ele>
        <time>2017-04-30T08:50:12.000Z</time>
      </trkpt>
      <trkpt lat="44.2042" lon="0.76501">
        <ele>113</ele>
        <time>2017-04-30T08:50:13.000Z</time>
      </trkpt>
      <trkpt lat="44.2042" lon="0.76498">
        <ele>113</ele>
        <time>2017-04-30T08:50:14.000Z</time>
      </trkpt>
      <trkpt lat="44.20421" lon="0.76495">
        <ele>113</ele>
        <time>2017-04-30T08:50:15.000Z</time>
      </trkpt>
      <trkpt lat="44.20421" lon="0.76492">
        <ele>114</ele>
        <time>2017-04-30T08:50:16.000Z</time>
      </trkpt>
      <trkpt lat="44.20422" lon="0.76489">
        <ele>114</ele>
        <time>2017-04-30T08:50:17.000Z</time>
      </trkpt>
      <trkpt lat="44.20422" lon="0.76487">
        <ele>114</ele>
        <time>2017-04-30T08:50:18.000Z</time>
      </trkpt>
      <trkpt lat="44.20422" lon="0.76484">
        <ele>114</ele>
        <time>2017-04-30T08:50:19.000Z</time>
      </trkpt>
      <trkpt lat="44.20422" lon="0.76482">
        <ele>114</ele>
        <time>2017-04-30T08:50:20.000Z</time>
      </trkpt>
      <trkpt lat="44.20423" lon="0.7648">
        <ele>114</ele>
        <time>2017-04-30T08:50:21.000Z</time>
      </trkpt>
      <trkpt lat="44.20423" lon="0.76477">
        <ele>114</ele>
        <time>2017-04-30T08:50:22.000Z</time>
      </trkpt>
      <trkpt lat="44.20424" lon="0.76475">
        <ele>115</ele>
        <time>2017-04-30T08:50:23.000Z</time>
      </trkpt>
      <trkpt lat="44.20424" lon="0.76472">
        <ele>115</ele>
        <time>2017-04-30T08:50:24.000Z</time>
      </trkpt>
      <trkpt lat="44.20424" lon="0.7647">
        <ele>115</ele>
        <time>2017-04-30T08:50:25.000Z</time>
      </trkpt>
      <trkpt lat="44.20425" lon="0.76467">
        <ele>115</ele>
        <time>2017-04-30T08:50:26.000Z</time>
      </trkpt>
      <trkpt lat="44.20425" lon="0.76464">
        <ele>115</ele>
        <time>2017-04-30T08:50:27.000Z</time>
      </trkpt>
      <trkpt lat="44.20425" lon="0.76462">
        <ele>115</ele>
        <time>2017-04-30T08:50:28.000Z</time>
      </trkpt>
      <trkpt lat="44.20426" lon="0.76459">
        <ele>115</ele>
        <time>2017-04-30T08:50:29.000Z</time>
      </trkpt>
      <trkpt lat="44.20426" lon="0.76457">
        <ele>116</ele>
        <time>2017-04-30T08:50:30.000Z</time>
      </trkpt>
      <trkpt lat="44.20426" lon="0.76454">
        <ele>116</ele>
        <time>2017-04-30T08:50:31.000Z</time>
      </trkpt>
      <trkpt lat="44.20427" lon="0.76452">
        <ele>116</ele>
        <time>2017-04-30T08:50:32.000Z</time>
      </trkpt>
      <trkpt lat="44.20427" lon="0.76449">
        <ele>116</ele>
        <time>2017-04-30T08:50:33.000Z</time>
      </trkpt>
      <trkpt lat="44.20428" lon="0.76446">
        <ele>116</ele>
        <time>2017-04-30T08:50:34.000Z</time>
      </trkpt>
      <trkpt lat="44.20428" lon="0.76444">
        <ele>116</ele>
        <time>2017-04-30T08:50:35.000Z</time>
      </trkpt>
      <trkpt lat="44.20429" lon="0.76441">
        <ele>117</ele>
        <time>2017-04-30T08:50:36.000Z</time>
      </trkpt>
      <trkpt lat="44.20429" lon="0.76439">
        <ele>117</ele>
        <time>2017-04-30T08:50:37.000Z</time>
      </trkpt>
      <trkpt lat="44.2043" lon="0.76437">
        <ele>117</ele>
        <time>2017-04-30T08:50:38.000Z</time>
      </trkpt>
      <trkpt lat="44.2043" lon="0.76434">
        <ele>117</ele>
        <time>2017-04-30T08:50:39.000Z</time>
      </trkpt>
      <trkpt lat="44.2043" lon="0.76432">
        <ele>117</ele>
        <time>2017-04-30T08:50:40.000Z</time>
      </trkpt>
      <trkpt lat="44.20431" lon="0.76429">
        <ele>117</ele>
        <time>2017-04-30T08:50:41.000Z</time>
      </trkpt>
      <trkpt lat="44.20431" lon="0.76427">
        <ele>117</ele>
        <time>2017-04-30T08:50:42.000Z</time>
      </trkpt>
      <trkpt lat="44.20432" lon="0.76424">
        <ele>117</ele>
        <time>2017-04-30T08:50:43.000Z</time>
      </trkpt>
      <trkpt lat="44.20432" lon="0.76421">
        <ele>118</ele>
        <time>2017-04-30T08:50:44.000Z</time>
      </trkpt>
      <trkpt lat="44.20433" lon="0.76418">
        <ele>118</ele>
        <time>2017-04-30T08:50:45.000Z</time>
      </trkpt>
      <trkpt lat="44.20433" lon="0.76415">
        <ele>118</ele>
        <time>2017-04-30T08:50:46.000Z</time>
      </trkpt>
      <trkpt lat="44.20434" lon="0.76412">
        <ele>118</ele>
        <time>2017-04-30T08:50:47.000Z</time>
      </trkpt>
      <trkpt lat="44.20434" lon="0.76409">
        <ele>118</ele>
        <time>2017-04-30T08:50:48.000Z</time>
      </trkpt>
      <trkpt lat="44.20434" lon="0.76406">
        <ele>118</ele>
        <time>2017-04-30T08:50:49.000Z</time>
      </trkpt>
      <trkpt lat="44.20434" lon="0.76402">
        <ele>119</ele>
        <time>2017-04-30T08:50:50.000Z</time>
      </trkpt>
      <trkpt lat="44.20434" lon="0.76399">
        <ele>119</ele>
        <time>2017-04-30T08:50:51.000Z</time>
      </trkpt>
      <trkpt lat="44.20434" lon="0.76395">
        <ele>119</ele>
        <time>2017-04-30T08:50:52.000Z</time>
      </trkpt>
      <trkpt lat="44.20434" lon="0.76392">
        <ele>119</ele>
        <time>2017-04-30T08:50:53.000Z</time>
      </trkpt>
      <trkpt lat="44.20434" lon="0.76389">
        <ele>119</ele>
        <time>2017-04-30T08:50:54.000Z</time>
      </trkpt>
      <trkpt lat="44.20433" lon="0.76385">
        <ele>119</ele>
        <time>2017-04-30T08:50:55.000Z</time>
      </trkpt>
      <trkpt lat="44.20433" lon="0.76381">
        <ele>119</ele>
        <time>2017-04-30T08:50:56.000Z</time>
      </trkpt>
      <trkpt lat="44.20432" lon="0.76377">
        <ele>119</ele>
        <time>2017-04-30T08:50:57.000Z</time>
      </trkpt>
      <trkpt lat="44.20432" lon="0.76373">
        <ele>119</ele>
        <time>2017-04-30T08:50:58.000Z</time>
      </trkpt>
      <trkpt lat="44.20431" lon="0.76368">
        <ele>119</ele>
        <time>2017-04-30T08:50:59.000Z</time>
      </trkpt>
      <trkpt lat="44.2043" lon="0.76363">
        <ele>119</ele>
        <time>2017-04-30T08:51:00.000Z</time>
      </trkpt>
      <trkpt lat="44.20429" lon="0.76358">
        <ele>119</ele>
        <time>2017-04-30T08:51:01.000Z</time>
      </trkpt>
      <trkpt lat="44.20428" lon="0.76353">
        <ele>119</ele>
        <time>2017-04-30T08:51:02.000Z</time>
      </trkpt>
      <trkpt lat="44.20427" lon="0.76348">
        <ele>119</ele>
        <time>2017-04-30T08:51:03.000Z</time>
      </trkpt>
      <trkpt lat="44.20426" lon="0.76343">
        <ele>119</ele>
        <time>2017-04-30T08:51:04.000Z</time>
      </trkpt>
      <trkpt lat="44.20424" lon="0.76338">
        <ele>119</ele>
        <time>2017-04-30T08:51:05.000Z</time>
      </trkpt>
      <trkpt lat="44.20423" lon="0.76333">
        <ele>119</ele>
        <time>2017-04-30T08:51:06.000Z</time>
      </trkpt>
      <trkpt lat="44.20422" lon="0.76329">
        <ele>119</ele>
        <time>2017-04-30T08:51:07.000Z</time>
      </trkpt>
      <trkpt lat="44.2042" lon="0.76324">
        <ele>119</ele>
        <time>2017-04-30T08:51:08.000Z</time>
      </trkpt>
      <trkpt lat="44.20419" lon="0.76319">
        <ele>119</ele>
        <time>2017-04-30T08:51:09.000Z</time>
      </trkpt>
      <trkpt lat="44.20418" lon="0.76314">
        <ele>120</ele>
        <time>2017-04-30T08:51:10.000Z</time>
      </trkpt>
      <trkpt lat="44.20416" lon="0.76309">
        <ele>120</ele>
        <time>2017-04-30T08:51:11.000Z</time>
      </trkpt>
      <trkpt lat="44.20415" lon="0.76304">
        <ele>120</ele>
        <time>2017-04-30T08:51:12.000Z</time>
      </trkpt>
      <trkpt lat="44.20415" lon="0.76299">
        <ele>120</ele>
        <time>2017-04-30T08:51:13.000Z</time>
      </trkpt>
      <trkpt lat="44.20414" lon="0.76294">
        <ele>120</ele>
        <time>2017-04-30T08:51:14.000Z</time>
      </trkpt>
      <trkpt lat="44.20413" lon="0.76289">
        <ele>120</ele>
        <time>2017-04-30T08:51:15.000Z</time>
      </trkpt>
      <trkpt lat="44.20413" lon="0.76284">
        <ele>121</ele>
        <time>2017-04-30T08:51:16.000Z</time>
      </trkpt>
      <trkpt lat="44.20413" lon="0.7628">
        <ele>121</ele>
        <time>2017-04-30T08:51:17.000Z</time>
      </trkpt>
      <trkpt lat="44.20413" lon="0.76275">
        <ele>121</ele>
        <time>2017-04-30T08:51:18.000Z</time>
      </trkpt>
      <trkpt lat="44.20412" lon="0.7627">
        <ele>121</ele>
        <time>2017-04-30T08:51:19.000Z</time>
      </trkpt>
      <trkpt lat="44.20412" lon="0.76266">
        <ele>121</ele>
        <time>2017-04-30T08:51:20.000Z</time>
      </trkpt>
      <trkpt lat="44.20413" lon="0.76262">
        <ele>122</ele>
        <time>2017-04-30T08:51:21.000Z</time>
      </trkpt>
      <trkpt lat="44.20413" lon="0.76257">
        <ele>122</ele>
        <time>2017-04-30T08:51:22.000Z</time>
      </trkpt>
      <trkpt lat="44.20413" lon="0.76253">
        <ele>122</ele>
        <time>2017-04-30T08:51:23.000Z</time>
      </trkpt>
      <trkpt lat="44.20413" lon="0.7625">
        <ele>123</ele>
        <time>2017-04-30T08:51:24.000Z</time>
      </trkpt>
      <trkpt lat="44.20413" lon="0.76246">
        <ele>123</ele>
        <time>2017-04-30T08:51:25.000Z</time>
      </trkpt>
      <trkpt lat="44.20413" lon="0.76243">
        <ele>123</ele>
        <time>2017-04-30T08:51:26.000Z</time>
      </trkpt>
      <trkpt lat="44.20413" lon="0.7624">
        <ele>124</ele>
        <time>2017-04-30T08:51:27.000Z</time>
      </trkpt>
      <trkpt lat="44.20413" lon="0.76237">
        <ele>124</ele>
        <time>2017-04-30T08:51:28.000Z</time>
      </trkpt>
      <trkpt lat="44.20413" lon="0.76235">
        <ele>125</ele>
        <time>2017-04-30T08:51:29.000Z</time>
      </trkpt>
      <trkpt lat="44.20412" lon="0.76231">
        <ele>125</ele>
        <time>2017-04-30T08:51:30.000Z</time>
      </trkpt>
      <trkpt lat="44.20412" lon="0.76229">
        <ele>126</ele>
        <time>2017-04-30T08:51:31.000Z</time>
      </trkpt>
      <trkpt lat="44.20412" lon="0.76225">
        <ele>126</ele>
        <time>2017-04-30T08:51:32.000Z</time>
      </trkpt>
      <trkpt lat="44.20412" lon="0.76223">
        <ele>127</ele>
        <time>2017-04-30T08:51:33.000Z</time>
      </trkpt>
      <trkpt lat="44.20412" lon="0.7622">
        <ele>127</ele>
        <time>2017-04-30T08:51:34.000Z</time>
      </trkpt>
      <trkpt lat="44.20412" lon="0.76217">
        <ele>127</ele>
        <time>2017-04-30T08:51:35.000Z</time>
      </trkpt>
      <trkpt lat="44.20411" lon="0.76214">
        <ele>127</ele>
        <time>2017-04-30T08:51:36.000Z</time>
      </trkpt>
      <trkpt lat="44.20411" lon="0.76211">
        <ele>127</ele>
        <time>2017-04-30T08:51:37.000Z</time>
      </trkpt>
      <trkpt lat="44.20411" lon="0.76209">
        <ele>127</ele>
        <time>2017-04-30T08:51:38.000Z</time>
      </trkpt>
      <trkpt lat="44.20411" lon="0.76206">
        <ele>127</ele>
        <time>2017-04-30T08:51:39.000Z</time>
      </trkpt>
      <trkpt lat="44.20411" lon="0.76203">
        <ele>127</ele>
        <time>2017-04-30T08:51:40.000Z</time>
      </trkpt>
      <trkpt lat="44.20411" lon="0.762">
        <ele>127</ele>
        <time>2017-04-30T08:51:41.000Z</time>
      </trkpt>
      <trkpt lat="44.20411" lon="0.76197">
        <ele>127</ele>
        <time>2017-04-30T08:51:42.000Z</time>
      </trkpt>
      <trkpt lat="44.20411" lon="0.76194">
        <ele>127</ele>
        <time>2017-04-30T08:51:43.000Z</time>
      </trkpt>
      <trkpt lat="44.20411" lon="0.76191">
        <ele>128</ele>
        <time>2017-04-30T08:51:44.000Z</time>
      </trkpt>
      <trkpt lat="44.20411" lon="0.76188">
        <ele>128</ele>
        <time>2017-04-30T08:51:45.000Z</time>
      </trkpt>
      <trkpt lat="44.20411" lon="0.76186">
        <ele>129</ele>
        <time>2017-04-30T08:51:46.000Z</time>
      </trkpt>
      <trkpt lat="44.20411" lon="0.76183">
        <ele>129</ele>
        <time>2017-04-30T08:51:47.000Z</time>
      </trkpt>
      <trkpt lat="44.20411" lon="0.7618">
        <ele>130</ele>
        <time>2017-04-30T08:51:48.000Z</time>
      </trkpt>
      <trkpt lat="44.20411" lon="0.76177">
        <ele>130</ele>
        <time>2017-04-30T08:51:49.000Z</time>
      </trkpt>
      <trkpt lat="44.20411" lon="0.76174">
        <ele>130</ele>
        <time>2017-04-30T08:51:50.000Z</time>
      </trkpt>
      <trkpt lat="44.20411" lon="0.7617">
        <ele>130</ele>
        <time>2017-04-30T08:51:51.000Z</time>
      </trkpt>
      <trkpt lat="44.20411" lon="0.76167">
        <ele>129</ele>
        <time>2017-04-30T08:51:52.000Z</time>
      </trkpt>
      <trkpt lat="44.20411" lon="0.76163">
        <ele>130</ele>
        <time>2017-04-30T08:51:53.000Z</time>
      </trkpt>
      <trkpt lat="44.20411" lon="0.76159">
        <ele>130</ele>
        <time>2017-04-30T08:51:54.000Z</time>
      </trkpt>
      <trkpt lat="44.2041" lon="0.76155">
        <ele>130</ele>
        <time>2017-04-30T08:51:55.000Z</time>
      </trkpt>
      <trkpt lat="44.2041" lon="0.76151">
        <ele>130</ele>
        <time>2017-04-30T08:51:56.000Z</time>
      </trkpt>
      <trkpt lat="44.2041" lon="0.76147">
        <ele>130</ele>
        <time>2017-04-30T08:51:57.000Z</time>
      </trkpt>
      <trkpt lat="44.2041" lon="0.76143">
        <ele>131</ele>
        <time>2017-04-30T08:51:58.000Z</time>
      </trkpt>
      <trkpt lat="44.2041" lon="0.76139">
        <ele>131</ele>
        <time>2017-04-30T08:51:59.000Z</time>
      </trkpt>
      <trkpt lat="44.2041" lon="0.76135">
        <ele>131</ele>
        <time>2017-04-30T08:52:00.000Z</time>
      </trkpt>
      <trkpt lat="44.20409" lon="0.76131">
        <ele>131</ele>
        <time>2017-04-30T08:52:01.000Z</time>
      </trkpt>
      <trkpt lat="44.20409" lon="0.76126">
        <ele>131</ele>
        <time>2017-04-30T08:52:02.000Z</time>
      </trkpt>
      <trkpt lat="44.20409" lon="0.76122">
        <ele>131</ele>
        <time>2017-04-30T08:52:03.000Z</time>
      </trkpt>
      <trkpt lat="44.20409" lon="0.76117">
        <ele>131</ele>
        <time>2017-04-30T08:52:04.000Z</time>
      </trkpt>
      <trkpt lat="44.20408" lon="0.76113">
        <ele>131</ele>
        <time>2017-04-30T08:52:05.000Z</time>
      </trkpt>
      <trkpt lat="44.20408" lon="0.76108">
        <ele>131</ele>
        <time>2017-04-30T08:52:06.000Z</time>
      </trkpt>
      <trkpt lat="44.20408" lon="0.76103">
        <ele>132</ele>
        <time>2017-04-30T08:52:07.000Z</time>
      </trkpt>
      <trkpt lat="44.20408" lon="0.76099">
        <ele>132</ele>
        <time>2017-04-30T08:52:08.000Z</time>
      </trkpt>
      <trkpt lat="44.20408" lon="0.76094">
        <ele>132</ele>
        <time>2017-04-30T08:52:09.000Z</time>
      </trkpt>
      <trkpt lat="44.20408" lon="0.7609">
        <ele>132</ele>
        <time>2017-04-30T08:52:10.000Z</time>
      </trkpt>
      <trkpt lat="44.20408" lon="0.76086">
        <ele>132</ele>
        <time>2017-04-30T08:52:11.000Z</time>
      </trkpt>
      <trkpt lat="44.20408" lon="0.76081">
        <ele>132</ele>
        <time>2017-04-30T08:52:12.000Z</time>
      </trkpt>
      <trkpt lat="44.20408" lon="0.76076">
        <ele>132</ele>
        <time>2017-04-30T08:52:13.000Z</time>
      </trkpt>
      <trkpt lat="44.20408" lon="0.76071">
        <ele>132</ele>
        <time>2017-04-30T08:52:14.000Z</time>
      </trkpt>
      <trkpt lat="44.20408" lon="0.76066">
        <ele>133</ele>
        <time>2017-04-30T08:52:15.000Z</time>
      </trkpt>
      <trkpt lat="44.20408" lon="0.76062">
        <ele>133</ele>
        <time>2017-04-30T08:52:16.000Z</time>
      </trkpt>
      <trkpt lat="44.20408" lon="0.76057">
        <ele>133</ele>
        <time>2017-04-30T08:52:17.000Z</time>
      </trkpt>
      <trkpt lat="44.20408" lon="0.76052">
        <ele>133</ele>
        <time>2017-04-30T08:52:18.000Z</time>
      </trkpt>
      <trkpt lat="44.20407" lon="0.76048">
        <ele>133</ele>
        <time>2017-04-30T08:52:19.000Z</time>
      </trkpt>
      <trkpt lat="44.20407" lon="0.76043">
        <ele>133</ele>
        <time>2017-04-30T08:52:20.000Z</time>
      </trkpt>
      <trkpt lat="44.20407" lon="0.76039">
        <ele>133</ele>
        <time>2017-04-30T08:52:21.000Z</time>
      </trkpt>
      <trkpt lat="44.20408" lon="0.76034">
        <ele>133</ele>
        <time>2017-04-30T08:52:22.000Z</time>
      </trkpt>
      <trkpt lat="44.20408" lon="0.7603">
        <ele>133</ele>
        <time>2017-04-30T08:52:23.000Z</time>
      </trkpt>
      <trkpt lat="44.20407" lon="0.76025">
        <ele>134</ele>
        <time>2017-04-30T08:52:24.000Z</time>
      </trkpt>
      <trkpt lat="44.20407" lon="0.7602">
        <ele>134</ele>
        <time>2017-04-30T08:52:25.000Z</time>
      </trkpt>
      <trkpt lat="44.20407" lon="0.76016">
        <ele>134</ele>
        <time>2017-04-30T08:52:26.000Z</time>
      </trkpt>
      <trkpt lat="44.20407" lon="0.76011">
        <ele>134</ele>
        <time>2017-04-30T08:52:27.000Z</time>
      </trkpt>
      <trkpt lat="44.20407" lon="0.76007">
        <ele>134</ele>
        <time>2017-04-30T08:52:28.000Z</time>
      </trkpt>
      <trkpt lat="44.20407" lon="0.76002">
        <ele>134</ele>
        <time>2017-04-30T08:52:29.000Z</time>
      </trkpt>
      <trkpt lat="44.20407" lon="0.75998">
        <ele>134</ele>
        <time>2017-04-30T08:52:30.000Z</time>
      </trkpt>
      <trkpt lat="44.20407" lon="0.75993">
        <ele>134</ele>
        <time>2017-04-30T08:52:31.000Z</time>
      </trkpt>
      <trkpt lat="44.20406" lon="0.75989">
        <ele>135</ele>
        <time>2017-04-30T08:52:32.000Z</time>
      </trkpt>
      <trkpt lat="44.20406" lon="0.75985">
        <ele>135</ele>
        <time>2017-04-30T08:52:33.000Z</time>
      </trkpt>
      <trkpt lat="44.20406" lon="0.7598">
        <ele>135</ele>
        <time>2017-04-30T08:52:34.000Z</time>
      </trkpt>
      <trkpt lat="44.20406" lon="0.75976">
        <ele>135</ele>
        <time>2017-04-30T08:52:35.000Z</time>
      </trkpt>
      <trkpt lat="44.20405" lon="0.75972">
        <ele>135</ele>
        <time>2017-04-30T08:52:36.000Z</time>
      </trkpt>
      <trkpt lat="44.20405" lon="0.75967">
        <ele>135</ele>
        <time>2017-04-30T08:52:37.000Z</time>
      </trkpt>
      <trkpt lat="44.20405" lon="0.75963">
        <ele>135</ele>
        <time>2017-04-30T08:52:38.000Z</time>
      </trkpt>
      <trkpt lat="44.20405" lon="0.75959">
        <ele>135</ele>
        <time>2017-04-30T08:52:39.000Z</time>
      </trkpt>
      <trkpt lat="44.20404" lon="0.75954">
        <ele>135</ele>
        <time>2017-04-30T08:52:40.000Z</time>
      </trkpt>
      <trkpt lat="44.20404" lon="0.7595">
        <ele>136</ele>
        <time>2017-04-30T08:52:41.000Z</time>
      </trkpt>
      <trkpt lat="44.20404" lon="0.75945">
        <ele>136</ele>
        <time>2017-04-30T08:52:42.000Z</time>
      </trkpt>
      <trkpt lat="44.20404" lon="0.75941">
        <ele>136</ele>
        <time>2017-04-30T08:52:43.000Z</time>
      </trkpt>
      <trkpt lat="44.20403" lon="0.75936">
        <ele>136</ele>
        <time>2017-04-30T08:52:44.000Z</time>
      </trkpt>
      <trkpt lat="44.20403" lon="0.75932">
        <ele>136</ele>
        <time>2017-04-30T08:52:45.000Z</time>
      </trkpt>
      <trkpt lat="44.20403" lon="0.75927">
        <ele>136</ele>
        <time>2017-04-30T08:52:46.000Z</time>
      </trkpt>
      <trkpt lat="44.20402" lon="0.75923">
        <ele>136</ele>
        <time>2017-04-30T08:52:47.000Z</time>
      </trkpt>
      <trkpt lat="44.20402" lon="0.75918">
        <ele>137</ele>
        <time>2017-04-30T08:52:48.000Z</time>
      </trkpt>
      <trkpt lat="44.20402" lon="0.75914">
        <ele>137</ele>
        <time>2017-04-30T08:52:49.000Z</time>
      </trkpt>
      <trkpt lat="44.20402" lon="0.75909">
        <ele>137</ele>
        <time>2017-04-30T08:52:50.000Z</time>
      </trkpt>
      <trkpt lat="44.20402" lon="0.75904">
        <ele>137</ele>
        <time>2017-04-30T08:52:51.000Z</time>
      </trkpt>
      <trkpt lat="44.20402" lon="0.759">
        <ele>137</ele>
        <time>2017-04-30T08:52:52.000Z</time>
      </trkpt>
      <trkpt lat="44.20401" lon="0.75896">
        <ele>137</ele>
        <time>2017-04-30T08:52:53.000Z</time>
      </trkpt>
      <trkpt lat="44.20401" lon="0.75892">
        <ele>137</ele>
        <time>2017-04-30T08:52:54.000Z</time>
      </trkpt>
      <trkpt lat="44.20401" lon="0.75888">
        <ele>137</ele>
        <time>2017-04-30T08:52:55.000Z</time>
      </trkpt>
      <trkpt lat="44.204" lon="0.75884">
        <ele>137</ele>
        <time>2017-04-30T08:52:56.000Z</time>
      </trkpt>
      <trkpt lat="44.20399" lon="0.7588">
        <ele>137</ele>
        <time>2017-04-30T08:52:57.000Z</time>
      </trkpt>
      <trkpt lat="44.20398" lon="0.75877">
        <ele>137</ele>
        <time>2017-04-30T08:52:58.000Z</time>
      </trkpt>
      <trkpt lat="44.20397" lon="0.75874">
        <ele>138</ele>
        <time>2017-04-30T08:52:59.000Z</time>
      </trkpt>
      <trkpt lat="44.20397" lon="0.7587">
        <ele>138</ele>
        <time>2017-04-30T08:53:00.000Z</time>
      </trkpt>
      <trkpt lat="44.20396" lon="0.75867">
        <ele>138</ele>
        <time>2017-04-30T08:53:01.000Z</time>
      </trkpt>
      <trkpt lat="44.20396" lon="0.75864">
        <ele>139</ele>
        <time>2017-04-30T08:53:02.000Z</time>
      </trkpt>
      <trkpt lat="44.20395" lon="0.7586">
        <ele>139</ele>
        <time>2017-04-30T08:53:03.000Z</time>
      </trkpt>
      <trkpt lat="44.20394" lon="0.75857">
        <ele>139</ele>
        <time>2017-04-30T08:53:04.000Z</time>
      </trkpt>
      <trkpt lat="44.20394" lon="0.75854">
        <ele>140</ele>
        <time>2017-04-30T08:53:05.000Z</time>
      </trkpt>
      <trkpt lat="44.20393" lon="0.75852">
        <ele>140</ele>
        <time>2017-04-30T08:53:06.000Z</time>
      </trkpt>
      <trkpt lat="44.20393" lon="0.75849">
        <ele>140</ele>
        <time>2017-04-30T08:53:07.000Z</time>
      </trkpt>
      <trkpt lat="44.20392" lon="0.75846">
        <ele>140</ele>
        <time>2017-04-30T08:53:08.000Z</time>
      </trkpt>
      <trkpt lat="44.20392" lon="0.75844">
        <ele>141</ele>
        <time>2017-04-30T08:53:09.000Z</time>
      </trkpt>
      <trkpt lat="44.20392" lon="0.75842">
        <ele>141</ele>
        <time>2017-04-30T08:53:10.000Z</time>
      </trkpt>
      <trkpt lat="44.20391" lon="0.7584">
        <ele>141</ele>
        <time>2017-04-30T08:53:11.000Z</time>
      </trkpt>
      <trkpt lat="44.20391" lon="0.75837">
        <ele>141</ele>
        <time>2017-04-30T08:53:12.000Z</time>
      </trkpt>
      <trkpt lat="44.20391" lon="0.75835">
        <ele>141</ele>
        <time>2017-04-30T08:53:13.000Z</time>
      </trkpt>
      <trkpt lat="44.20391" lon="0.75832">
        <ele>141</ele>
        <time>2017-04-30T08:53:14.000Z</time>
      </trkpt>
      <trkpt lat="44.20391" lon="0.7583">
        <ele>142</ele>
        <time>2017-04-30T08:53:15.000Z</time>
      </trkpt>
      <trkpt lat="44.20391" lon="0.75828">
        <ele>142</ele>
        <time>2017-04-30T08:53:16.000Z</time>
      </trkpt>
      <trkpt lat="44.20391" lon="0.75825">
        <ele>142</ele>
        <time>2017-04-30T08:53:17.000Z</time>
      </trkpt>
      <trkpt lat="44.20391" lon="0.75823">
        <ele>142</ele>
        <time>2017-04-30T08:53:18.000Z</time>
      </trkpt>
      <trkpt lat="44.20391" lon="0.75821">
        <ele>142</ele>
        <time>2017-04-30T08:53:19.000Z</time>
      </trkpt>
      <trkpt lat="44.20392" lon="0.75819">
        <ele>142</ele>
        <time>2017-04-30T08:53:20.000Z</time>
      </trkpt>
      <trkpt lat="44.20392" lon="0.75817">
        <ele>143</ele>
        <time>2017-04-30T08:53:21.000Z</time>
      </trkpt>
      <trkpt lat="44.20392" lon="0.75814">
        <ele>143</ele>
        <time>2017-04-30T08:53:22.000Z</time>
      </trkpt>
      <trkpt lat="44.20392" lon="0.75812">
        <ele>143</ele>
        <time>2017-04-30T08:53:23.000Z</time>
      </trkpt>
      <trkpt lat="44.20391" lon="0.75811">
        <ele>143</ele>
        <time>2017-04-30T08:53:24.000Z</time>
      </trkpt>
      <trkpt lat="44.20391" lon="0.7581">
        <ele>144</ele>
        <time>2017-04-30T08:53:25.000Z</time>
      </trkpt>
      <trkpt lat="44.2039" lon="0.75808">
        <ele>145</ele>
        <time>2017-04-30T08:53:26.000Z</time>
      </trkpt>
      <trkpt lat="44.2039" lon="0.75807">
        <ele>146</ele>
        <time>2017-04-30T08:53:27.000Z</time>
      </trkpt>
      <trkpt lat="44.20389" lon="0.75806">
        <ele>146</ele>
        <time>2017-04-30T08:53:28.000Z</time>
      </trkpt>
      <trkpt lat="44.20389" lon="0.75804">
        <ele>147</ele>
        <time>2017-04-30T08:53:29.000Z</time>
      </trkpt>
      <trkpt lat="44.20388" lon="0.75803">
        <ele>147</ele>
        <time>2017-04-30T08:53:30.000Z</time>
      </trkpt>
      <trkpt lat="44.20388" lon="0.75801">
        <ele>146</ele>
        <time>2017-04-30T08:53:31.000Z</time>
      </trkpt>
      <trkpt lat="44.20385" lon="0.75798">
        <ele>145</ele>
        <time>2017-04-30T08:53:32.000Z</time>
      </trkpt>
      <trkpt lat="44.20382" lon="0.75795">
        <ele>144</ele>
        <time>2017-04-30T08:53:33.000Z</time>
      </trkpt>
      <trkpt lat="44.2038" lon="0.75792">
        <ele>144</ele>
        <time>2017-04-30T08:53:34.000Z</time>
      </trkpt>
      <trkpt lat="44.20377" lon="0.75789">
        <ele>144</ele>
        <time>2017-04-30T08:53:35.000Z</time>
      </trkpt>
      <trkpt lat="44.20376" lon="0.75786">
        <ele>144</ele>
        <time>2017-04-30T08:53:36.000Z</time>
      </trkpt>
      <trkpt lat="44.20374" lon="0.75784">
        <ele>143</ele>
        <time>2017-04-30T08:53:37.000Z</time>
      </trkpt>
      <trkpt lat="44.20373" lon="0.75781">
        <ele>143</ele>
        <time>2017-04-30T08:53:38.000Z</time>
      </trkpt>
      <trkpt lat="44.20372" lon="0.7578">
        <ele>142</ele>
        <time>2017-04-30T08:53:39.000Z</time>
      </trkpt>
      <trkpt lat="44.2037" lon="0.75778">
        <ele>142</ele>
        <time>2017-04-30T08:53:40.000Z</time>
      </trkpt>
      <trkpt lat="44.20368" lon="0.75775">
        <ele>142</ele>
        <time>2017-04-30T08:53:41.000Z</time>
      </trkpt>
      <trkpt lat="44.20364" lon="0.75772">
        <ele>142</ele>
        <time>2017-04-30T08:53:42.000Z</time>
      </trkpt>
      <trkpt lat="44.20363" lon="0.75769">
        <ele>142</ele>
        <time>2017-04-30T08:53:43.000Z</time>
      </trkpt>
      <trkpt lat="44.20361" lon="0.75767">
        <ele>143</ele>
        <time>2017-04-30T08:53:44.000Z</time>
      </trkpt>
      <trkpt lat="44.20359" lon="0.75765">
        <ele>144</ele>
        <time>2017-04-30T08:53:45.000Z</time>
      </trkpt>
      <trkpt lat="44.20356" lon="0.75763">
        <ele>145</ele>
        <time>2017-04-30T08:53:46.000Z</time>
      </trkpt>
      <trkpt lat="44.20353" lon="0.75761">
        <ele>146</ele>
        <time>2017-04-30T08:53:47.000Z</time>
      </trkpt>
      <trkpt lat="44.20351" lon="0.7576">
        <ele>147</ele>
        <time>2017-04-30T08:53:48.000Z</time>
      </trkpt>
      <trkpt lat="44.20349" lon="0.7576">
        <ele>147</ele>
        <time>2017-04-30T08:53:49.000Z</time>
      </trkpt>
      <trkpt lat="44.20347" lon="0.75759">
        <ele>147</ele>
        <time>2017-04-30T08:53:50.000Z</time>
      </trkpt>
      <trkpt lat="44.20344" lon="0.75758">
        <ele>147</ele>
        <time>2017-04-30T08:53:51.000Z</time>
      </trkpt>
      <trkpt lat="44.20341" lon="0.75756">
        <ele>147</ele>
        <time>2017-04-30T08:53:52.000Z</time>
      </trkpt>
      <trkpt lat="44.20337" lon="0.75755">
        <ele>148</ele>
        <time>2017-04-30T08:53:53.000Z</time>
      </trkpt>
      <trkpt lat="44.20333" lon="0.75754">
        <ele>148</ele>
        <time>2017-04-30T08:53:54.000Z</time>
      </trkpt>
      <trkpt lat="44.20329" lon="0.75754">
        <ele>149</ele>
        <time>2017-04-30T08:53:55.000Z</time>
      </trkpt>
      <trkpt lat="44.20326" lon="0.75754">
        <ele>149</ele>
        <time>2017-04-30T08:53:56.000Z</time>
      </trkpt>
      <trkpt lat="44.20324" lon="0.75754">
        <ele>150</ele>
        <time>2017-04-30T08:53:57.000Z</time>
      </trkpt>
      <trkpt lat="44.20321" lon="0.75756">
        <ele>152</ele>
        <time>2017-04-30T08:53:58.000Z</time>
      </trkpt>
      <trkpt lat="44.20319" lon="0.75756">
        <ele>153</ele>
        <time>2017-04-30T08:53:59.000Z</time>
      </trkpt>
      <trkpt lat="44.20316" lon="0.75758">
        <ele>154</ele>
        <time>2017-04-30T08:54:00.000Z</time>
      </trkpt>
      <trkpt lat="44.20313" lon="0.7576">
        <ele>155</ele>
        <time>2017-04-30T08:54:01.000Z</time>
      </trkpt>
      <trkpt lat="44.2031" lon="0.75762">
        <ele>156</ele>
        <time>2017-04-30T08:54:02.000Z</time>
      </trkpt>
      <trkpt lat="44.20307" lon="0.75764">
        <ele>156</ele>
        <time>2017-04-30T08:54:03.000Z</time>
      </trkpt>
      <trkpt lat="44.20305" lon="0.75766">
        <ele>157</ele>
        <time>2017-04-30T08:54:04.000Z</time>
      </trkpt>
      <trkpt lat="44.20303" lon="0.75767">
        <ele>158</ele>
        <time>2017-04-30T08:54:05.000Z</time>
      </trkpt>
      <trkpt lat="44.20299" lon="0.7577">
        <ele>158</ele>
        <time>2017-04-30T08:54:06.000Z</time>
      </trkpt>
      <trkpt lat="44.20296" lon="0.75772">
        <ele>159</ele>
        <time>2017-04-30T08:54:07.000Z</time>
      </trkpt>
      <trkpt lat="44.20292" lon="0.75774">
        <ele>160</ele>
        <time>2017-04-30T08:54:08.000Z</time>
      </trkpt>
      <trkpt lat="44.20289" lon="0.75775">
        <ele>161</ele>
        <time>2017-04-30T08:54:09.000Z</time>
      </trkpt>
      <trkpt lat="44.20287" lon="0.75776">
        <ele>162</ele>
        <time>2017-04-30T08:54:10.000Z</time>
      </trkpt>
      <trkpt lat="44.20283" lon="0.75779">
        <ele>162</ele>
        <time>2017-04-30T08:54:11.000Z</time>
      </trkpt>
      <trkpt lat="44.20281" lon="0.75781">
        <ele>160</ele>
        <time>2017-04-30T08:54:12.000Z</time>
      </trkpt>
      <trkpt lat="44.20278" lon="0.75783">
        <ele>159</ele>
        <time>2017-04-30T08:54:13.000Z</time>
      </trkpt>
      <trkpt lat="44.20273" lon="0.75786">
        <ele>158</ele>
        <time>2017-04-30T08:54:14.000Z</time>
      </trkpt>
      <trkpt lat="44.2027" lon="0.75787">
        <ele>160</ele>
        <time>2017-04-30T08:54:15.000Z</time>
      </trkpt>
      <trkpt lat="44.20266" lon="0.75789">
        <ele>160</ele>
        <time>2017-04-30T08:54:16.000Z</time>
      </trkpt>
      <trkpt lat="44.20261" lon="0.75792">
        <ele>159</ele>
        <time>2017-04-30T08:54:17.000Z</time>
      </trkpt>
      <trkpt lat="44.20256" lon="0.75793">
        <ele>159</ele>
        <time>2017-04-30T08:54:18.000Z</time>
      </trkpt>
      <trkpt lat="44.20251" lon="0.75794">
        <ele>157</ele>
        <time>2017-04-30T08:54:19.000Z</time>
      </trkpt>
      <trkpt lat="44.20247" lon="0.75793">
        <ele>157</ele>
        <time>2017-04-30T08:54:20.000Z</time>
      </trkpt>
      <trkpt lat="44.20242" lon="0.75794">
        <ele>157</ele>
        <time>2017-04-30T08:54:21.000Z</time>
      </trkpt>
      <trkpt lat="44.20238" lon="0.75794">
        <ele>157</ele>
        <time>2017-04-30T08:54:22.000Z</time>
      </trkpt>
      <trkpt lat="44.20233" lon="0.75793">
        <ele>157</ele>
        <time>2017-04-30T08:54:23.000Z</time>
      </trkpt>
      <trkpt lat="44.20229" lon="0.75793">
        <ele>156</ele>
        <time>2017-04-30T08:54:24.000Z</time>
      </trkpt>
      <trkpt lat="44.20224" lon="0.75793">
        <ele>156</ele>
        <time>2017-04-30T08:54:25.000Z</time>
      </trkpt>
      <trkpt lat="44.20221" lon="0.75792">
        <ele>156</ele>
        <time>2017-04-30T08:54:26.000Z</time>
      </trkpt>
      <trkpt lat="44.20218" lon="0.7579">
        <ele>157</ele>
        <time>2017-04-30T08:54:27.000Z</time>
      </trkpt>
      <trkpt lat="44.20215" lon="0.75788">
        <ele>157</ele>
        <time>2017-04-30T08:54:28.000Z</time>
      </trkpt>
      <trkpt lat="44.20213" lon="0.75785">
        <ele>158</ele>
        <time>2017-04-30T08:54:29.000Z</time>
      </trkpt>
      <trkpt lat="44.20212" lon="0.75781">
        <ele>158</ele>
        <time>2017-04-30T08:54:30.000Z</time>
      </trkpt>
      <trkpt lat="44.20212" lon="0.75777">
        <ele>157</ele>
        <time>2017-04-30T08:54:31.000Z</time>
      </trkpt>
      <trkpt lat="44.20213" lon="0.75775">
        <ele>158</ele>
        <time>2017-04-30T08:54:32.000Z</time>
      </trkpt>
      <trkpt lat="44.20213" lon="0.75773">
        <ele>158</ele>
        <time>2017-04-30T08:54:33.000Z</time>
      </trkpt>
      <trkpt lat="44.20214" lon="0.75771">
        <ele>158</ele>
        <time>2017-04-30T08:54:34.000Z</time>
      </trkpt>
      <trkpt lat="44.20215" lon="0.75768">
        <ele>159</ele>
        <time>2017-04-30T08:54:35.000Z</time>
      </trkpt>
      <trkpt lat="44.20215" lon="0.75765">
        <ele>159</ele>
        <time>2017-04-30T08:54:36.000Z</time>
      </trkpt>
      <trkpt lat="44.20216" lon="0.75762">
        <ele>159</ele>
        <time>2017-04-30T08:54:37.000Z</time>
      </trkpt>
      <trkpt lat="44.20216" lon="0.75759">
        <ele>160</ele>
        <time>2017-04-30T08:54:38.000Z</time>
      </trkpt>
      <trkpt lat="44.20217" lon="0.75756">
        <ele>159</ele>
        <time>2017-04-30T08:54:39.000Z</time>
      </trkpt>
      <trkpt lat="44.20218" lon="0.75753">
        <ele>160</ele>
        <time>2017-04-30T08:54:40.000Z</time>
      </trkpt>
      <trkpt lat="44.20219" lon="0.75751">
        <ele>159</ele>
        <time>2017-04-30T08:54:41.000Z</time>
      </trkpt>
      <trkpt lat="44.2022" lon="0.75748">
        <ele>160</ele>
        <time>2017-04-30T08:54:42.000Z</time>
      </trkpt>
      <trkpt lat="44.20221" lon="0.75745">
        <ele>160</ele>
        <time>2017-04-30T08:54:43.000Z</time>
      </trkpt>
      <trkpt lat="44.20223" lon="0.75742">
        <ele>160</ele>
        <time>2017-04-30T08:54:44.000Z</time>
      </trkpt>
      <trkpt lat="44.20223" lon="0.7574">
        <ele>160</ele>
        <time>2017-04-30T08:54:45.000Z</time>
      </trkpt>
      <trkpt lat="44.20224" lon="0.75737">
        <ele>160</ele>
        <time>2017-04-30T08:54:46.000Z</time>
      </trkpt>
      <trkpt lat="44.20225" lon="0.75733">
        <ele>161</ele>
        <time>2017-04-30T08:54:47.000Z</time>
      </trkpt>
      <trkpt lat="44.20226" lon="0.7573">
        <ele>161</ele>
        <time>2017-04-30T08:54:48.000Z</time>
      </trkpt>
      <trkpt lat="44.20227" lon="0.75727">
        <ele>161</ele>
        <time>2017-04-30T08:54:49.000Z</time>
      </trkpt>
      <trkpt lat="44.20228" lon="0.75724">
        <ele>161</ele>
        <time>2017-04-30T08:54:50.000Z</time>
      </trkpt>
      <trkpt lat="44.20229" lon="0.75721">
        <ele>161</ele>
        <time>2017-04-30T08:54:51.000Z</time>
      </trkpt>
      <trkpt lat="44.20229" lon="0.75717">
        <ele>161</ele>
        <time>2017-04-30T08:54:52.000Z</time>
      </trkpt>
      <trkpt lat="44.2023" lon="0.75714">
        <ele>161</ele>
        <time>2017-04-30T08:54:53.000Z</time>
      </trkpt>
      <trkpt lat="44.20231" lon="0.7571">
        <ele>161</ele>
        <time>2017-04-30T08:54:54.000Z</time>
      </trkpt>
      <trkpt lat="44.20232" lon="0.75705">
        <ele>160</ele>
        <time>2017-04-30T08:54:55.000Z</time>
      </trkpt>
      <trkpt lat="44.20233" lon="0.75701">
        <ele>161</ele>
        <time>2017-04-30T08:54:56.000Z</time>
      </trkpt>
      <trkpt lat="44.20233" lon="0.75697">
        <ele>160</ele>
        <time>2017-04-30T08:54:57.000Z</time>
      </trkpt>
      <trkpt lat="44.20234" lon="0.75692">
        <ele>160</ele>
        <time>2017-04-30T08:54:58.000Z</time>
      </trkpt>
      <trkpt lat="44.20235" lon="0.75688">
        <ele>160</ele>
        <time>2017-04-30T08:54:59.000Z</time>
      </trkpt>
      <trkpt lat="44.20236" lon="0.75684">
        <ele>160</ele>
        <time>2017-04-30T08:55:00.000Z</time>
      </trkpt>
      <trkpt lat="44.20237" lon="0.7568">
        <ele>160</ele>
        <time>2017-04-30T08:55:01.000Z</time>
      </trkpt>
      <trkpt lat="44.20239" lon="0.75676">
        <ele>160</ele>
        <time>2017-04-30T08:55:02.000Z</time>
      </trkpt>
      <trkpt lat="44.2024" lon="0.75671">
        <ele>161</ele>
        <time>2017-04-30T08:55:03.000Z</time>
      </trkpt>
      <trkpt lat="44.20241" lon="0.75667">
        <ele>161</ele>
        <time>2017-04-30T08:55:04.000Z</time>
      </trkpt>
      <trkpt lat="44.20243" lon="0.75663">
        <ele>161</ele>
        <time>2017-04-30T08:55:05.000Z</time>
      </trkpt>
      <trkpt lat="44.20244" lon="0.7566">
        <ele>161</ele>
        <time>2017-04-30T08:55:06.000Z</time>
      </trkpt>
      <trkpt lat="44.20246" lon="0.75656">
        <ele>161</ele>
        <time>2017-04-30T08:55:07.000Z</time>
      </trkpt>
      <trkpt lat="44.20248" lon="0.75652">
        <ele>161</ele>
        <time>2017-04-30T08:55:08.000Z</time>
      </trkpt>
      <trkpt lat="44.20249" lon="0.75649">
        <ele>161</ele>
        <time>2017-04-30T08:55:09.000Z</time>
      </trkpt>
      <trkpt lat="44.20251" lon="0.75646">
        <ele>161</ele>
        <time>2017-04-30T08:55:10.000Z</time>
      </trkpt>
      <trkpt lat="44.20253" lon="0.75643">
        <ele>161</ele>
        <time>2017-04-30T08:55:11.000Z</time>
      </trkpt>
      <trkpt lat="44.20255" lon="0.7564">
        <ele>162</ele>
        <time>2017-04-30T08:55:12.000Z</time>
      </trkpt>
      <trkpt lat="44.20257" lon="0.75637">
        <ele>162</ele>
        <time>2017-04-30T08:55:13.000Z</time>
      </trkpt>
      <trkpt lat="44.20259" lon="0.75634">
        <ele>162</ele>
        <time>2017-04-30T08:55:14.000Z</time>
      </trkpt>
      <trkpt lat="44.20261" lon="0.7563">
        <ele>162</ele>
        <time>2017-04-30T08:55:15.000Z</time>
      </trkpt>
      <trkpt lat="44.20263" lon="0.75627">
        <ele>162</ele>
        <time>2017-04-30T08:55:16.000Z</time>
      </trkpt>
      <trkpt lat="44.20265" lon="0.75624">
        <ele>162</ele>
        <time>2017-04-30T08:55:17.000Z</time>
      </trkpt>
      <trkpt lat="44.20267" lon="0.7562">
        <ele>162</ele>
        <time>2017-04-30T08:55:18.000Z</time>
      </trkpt>
      <trkpt lat="44.2027" lon="0.75617">
        <ele>162</ele>
        <time>2017-04-30T08:55:19.000Z</time>
      </trkpt>
      <trkpt lat="44.20272" lon="0.75614">
        <ele>162</ele>
        <time>2017-04-30T08:55:20.000Z</time>
      </trkpt>
      <trkpt lat="44.20275" lon="0.75611">
        <ele>162</ele>
        <time>2017-04-30T08:55:21.000Z</time>
      </trkpt>
      <trkpt lat="44.20277" lon="0.75608">
        <ele>163</ele>
        <time>2017-04-30T08:55:22.000Z</time>
      </trkpt>
      <trkpt lat="44.2028" lon="0.75606">
        <ele>163</ele>
        <time>2017-04-30T08:55:23.000Z</time>
      </trkpt>
      <trkpt lat="44.20282" lon="0.75602">
        <ele>163</ele>
        <time>2017-04-30T08:55:24.000Z</time>
      </trkpt>
      <trkpt lat="44.20284" lon="0.75599">
        <ele>163</ele>
        <time>2017-04-30T08:55:25.000Z</time>
      </trkpt>
      <trkpt lat="44.20287" lon="0.75595">
        <ele>163</ele>
        <time>2017-04-30T08:55:26.000Z</time>
      </trkpt>
      <trkpt lat="44.20289" lon="0.75592">
        <ele>163</ele>
        <time>2017-04-30T08:55:27.000Z</time>
      </trkpt>
      <trkpt lat="44.20292" lon="0.75589">
        <ele>164</ele>
        <time>2017-04-30T08:55:28.000Z</time>
      </trkpt>
      <trkpt lat="44.20294" lon="0.75586">
        <ele>164</ele>
        <time>2017-04-30T08:55:29.000Z</time>
      </trkpt>
      <trkpt lat="44.20297" lon="0.75582">
        <ele>164</ele>
        <time>2017-04-30T08:55:30.000Z</time>
      </trkpt>
      <trkpt lat="44.20299" lon="0.75579">
        <ele>164</ele>
        <time>2017-04-30T08:55:31.000Z</time>
      </trkpt>
      <trkpt lat="44.20302" lon="0.75576">
        <ele>164</ele>
        <time>2017-04-30T08:55:32.000Z</time>
      </trkpt>
      <trkpt lat="44.20305" lon="0.75572">
        <ele>164</ele>
        <time>2017-04-30T08:55:33.000Z</time>
      </trkpt>
      <trkpt lat="44.20307" lon="0.75568">
        <ele>164</ele>
        <time>2017-04-30T08:55:34.000Z</time>
      </trkpt>
      <trkpt lat="44.2031" lon="0.75565">
        <ele>164</ele>
        <time>2017-04-30T08:55:35.000Z</time>
      </trkpt>
      <trkpt lat="44.20313" lon="0.75561">
        <ele>164</ele>
        <time>2017-04-30T08:55:36.000Z</time>
      </trkpt>
      <trkpt lat="44.20315" lon="0.75557">
        <ele>164</ele>
        <time>2017-04-30T08:55:37.000Z</time>
      </trkpt>
      <trkpt lat="44.20318" lon="0.75553">
        <ele>165</ele>
        <time>2017-04-30T08:55:38.000Z</time>
      </trkpt>
      <trkpt lat="44.2032" lon="0.75549">
        <ele>165</ele>
        <time>2017-04-30T08:55:39.000Z</time>
      </trkpt>
      <trkpt lat="44.20324" lon="0.75544">
        <ele>165</ele>
        <time>2017-04-30T08:55:40.000Z</time>
      </trkpt>
      <trkpt lat="44.20327" lon="0.7554">
        <ele>165</ele>
        <time>2017-04-30T08:55:41.000Z</time>
      </trkpt>
      <trkpt lat="44.2033" lon="0.75534">
        <ele>164</ele>
        <time>2017-04-30T08:55:42.000Z</time>
      </trkpt>
      <trkpt lat="44.20333" lon="0.75528">
        <ele>165</ele>
        <time>2017-04-30T08:55:43.000Z</time>
      </trkpt>
      <trkpt lat="44.20336" lon="0.7552">
        <ele>164</ele>
        <time>2017-04-30T08:55:44.000Z</time>
      </trkpt>
      <trkpt lat="44.20339" lon="0.75513">
        <ele>164</ele>
        <time>2017-04-30T08:55:45.000Z</time>
      </trkpt>
      <trkpt lat="44.20342" lon="0.75505">
        <ele>164</ele>
        <time>2017-04-30T08:55:46.000Z</time>
      </trkpt>
      <trkpt lat="44.20345" lon="0.75497">
        <ele>165</ele>
        <time>2017-04-30T08:55:47.000Z</time>
      </trkpt>
      <trkpt lat="44.20347" lon="0.75489">
        <ele>165</ele>
        <time>2017-04-30T08:55:48.000Z</time>
      </trkpt>
      <trkpt lat="44.20349" lon="0.75481">
        <ele>166</ele>
        <time>2017-04-30T08:55:49.000Z</time>
      </trkpt>
      <trkpt lat="44.20351" lon="0.75474">
        <ele>166</ele>
        <time>2017-04-30T08:55:50.000Z</time>
      </trkpt>
      <trkpt lat="44.20353" lon="0.75466">
        <ele>166</ele>
        <time>2017-04-30T08:55:51.000Z</time>
      </trkpt>
      <trkpt lat="44.20355" lon="0.75459">
        <ele>166</ele>
        <time>2017-04-30T08:55:52.000Z</time>
      </trkpt>
      <trkpt lat="44.20357" lon="0.75452">
        <ele>167</ele>
        <time>2017-04-30T08:55:53.000Z</time>
      </trkpt>
      <trkpt lat="44.20358" lon="0.75445">
        <ele>166</ele>
        <time>2017-04-30T08:55:54.000Z</time>
      </trkpt>
      <trkpt lat="44.2036" lon="0.75437">
        <ele>166</ele>
        <time>2017-04-30T08:55:55.000Z</time>
      </trkpt>
      <trkpt lat="44.20363" lon="0.75431">
        <ele>166</ele>
        <time>2017-04-30T08:55:56.000Z</time>
      </trkpt>
      <trkpt lat="44.20365" lon="0.75424">
        <ele>166</ele>
        <time>2017-04-30T08:55:57.000Z</time>
      </trkpt>
      <trkpt lat="44.20367" lon="0.75417">
        <ele>166</ele>
        <time>2017-04-30T08:55:58.000Z</time>
      </trkpt>
      <trkpt lat="44.20369" lon="0.7541">
        <ele>166</ele>
        <time>2017-04-30T08:55:59.000Z</time>
      </trkpt>
      <trkpt lat="44.20371" lon="0.75404">
        <ele>165</ele>
        <time>2017-04-30T08:56:00.000Z</time>
      </trkpt>
      <trkpt lat="44.20373" lon="0.75398">
        <ele>165</ele>
        <time>2017-04-30T08:56:01.000Z</time>
      </trkpt>
      <trkpt lat="44.20375" lon="0.75391">
        <ele>165</ele>
        <time>2017-04-30T08:56:02.000Z</time>
      </trkpt>
      <trkpt lat="44.20377" lon="0.75385">
        <ele>165</ele>
        <time>2017-04-30T08:56:03.000Z</time>
      </trkpt>
      <trkpt lat="44.2038" lon="0.75379">
        <ele>165</ele>
        <time>2017-04-30T08:56:04.000Z</time>
      </trkpt>
      <trkpt lat="44.20382" lon="0.75373">
        <ele>165</ele>
        <time>2017-04-30T08:56:05.000Z</time>
      </trkpt>
      <trkpt lat="44.20384" lon="0.75367">
        <ele>165</ele>
        <time>2017-04-30T08:56:06.000Z</time>
      </trkpt>
      <trkpt lat="44.20387" lon="0.75361">
        <ele>165</ele>
        <time>2017-04-30T08:56:07.000Z</time>
      </trkpt>
      <trkpt lat="44.20389" lon="0.75355">
        <ele>165</ele>
        <time>2017-04-30T08:56:08.000Z</time>
      </trkpt>
      <trkpt lat="44.20392" lon="0.75349">
        <ele>165</ele>
        <time>2017-04-30T08:56:09.000Z</time>
      </trkpt>
      <trkpt lat="44.20394" lon="0.75343">
        <ele>165</ele>
        <time>2017-04-30T08:56:10.000Z</time>
      </trkpt>
      <trkpt lat="44.20396" lon="0.75337">
        <ele>165</ele>
        <time>2017-04-30T08:56:11.000Z</time>
      </trkpt>
      <trkpt lat="44.20399" lon="0.75332">
        <ele>165</ele>
        <time>2017-04-30T08:56:12.000Z</time>
      </trkpt>
      <trkpt lat="44.20401" lon="0.75326">
        <ele>165</ele>
        <time>2017-04-30T08:56:13.000Z</time>
      </trkpt>
      <trkpt lat="44.20404" lon="0.7532">
        <ele>165</ele>
        <time>2017-04-30T08:56:14.000Z</time>
      </trkpt>
      <trkpt lat="44.20407" lon="0.75314">
        <ele>164</ele>
        <time>2017-04-30T08:56:15.000Z</time>
      </trkpt>
      <trkpt lat="44.20409" lon="0.75307">
        <ele>164</ele>
        <time>2017-04-30T08:56:16.000Z</time>
      </trkpt>
      <trkpt lat="44.20412" lon="0.75301">
        <ele>164</ele>
        <time>2017-04-30T08:56:17.000Z</time>
      </trkpt>
      <trkpt lat="44.20415" lon="0.75295">
        <ele>164</ele>
        <time>2017-04-30T08:56:18.000Z</time>
      </trkpt>
      <trkpt lat="44.20418" lon="0.75288">
        <ele>164</ele>
        <time>2017-04-30T08:56:19.000Z</time>
      </trkpt>
      <trkpt lat="44.20421" lon="0.75282">
        <ele>163</ele>
        <time>2017-04-30T08:56:20.000Z</time>
      </trkpt>
      <trkpt lat="44.20424" lon="0.75275">
        <ele>163</ele>
        <time>2017-04-30T08:56:21.000Z</time>
      </trkpt>
      <trkpt lat="44.20427" lon="0.75268">
        <ele>163</ele>
        <time>2017-04-30T08:56:22.000Z</time>
      </trkpt>
      <trkpt lat="44.2043" lon="0.75261">
        <ele>163</ele>
        <time>2017-04-30T08:56:23.000Z</time>
      </trkpt>
      <trkpt lat="44.20434" lon="0.75255">
        <ele>163</ele>
        <time>2017-04-30T08:56:24.000Z</time>
      </trkpt>
      <trkpt lat="44.20438" lon="0.75248">
        <ele>162</ele>
        <time>2017-04-30T08:56:25.000Z</time>
      </trkpt>
      <trkpt lat="44.20442" lon="0.75241">
        <ele>162</ele>
        <time>2017-04-30T08:56:26.000Z</time>
      </trkpt>
      <trkpt lat="44.20447" lon="0.75234">
        <ele>162</ele>
        <time>2017-04-30T08:56:27.000Z</time>
      </trkpt>
      <trkpt lat="44.20451" lon="0.75227">
        <ele>161</ele>
        <time>2017-04-30T08:56:28.000Z</time>
      </trkpt>
      <trkpt lat="44.20456" lon="0.75219">
        <ele>161</ele>
        <time>2017-04-30T08:56:29.000Z</time>
      </trkpt>
      <trkpt lat="44.2046" lon="0.75212">
        <ele>161</ele>
        <time>2017-04-30T08:56:30.000Z</time>
      </trkpt>
      <trkpt lat="44.20464" lon="0.75204">
        <ele>160</ele>
        <time>2017-04-30T08:56:31.000Z</time>
      </trkpt>
      <trkpt lat="44.20468" lon="0.75196">
        <ele>160</ele>
        <time>2017-04-30T08:56:32.000Z</time>
      </trkpt>
      <trkpt lat="44.20473" lon="0.75189">
        <ele>161</ele>
        <time>2017-04-30T08:56:33.000Z</time>
      </trkpt>
      <trkpt lat="44.20477" lon="0.75183">
        <ele>160</ele>
        <time>2017-04-30T08:56:34.000Z</time>
      </trkpt>
      <trkpt lat="44.20483" lon="0.75178">
        <ele>160</ele>
        <time>2017-04-30T08:56:35.000Z</time>
      </trkpt>
      <trkpt lat="44.20488" lon="0.75173">
        <ele>160</ele>
        <time>2017-04-30T08:56:36.000Z</time>
      </trkpt>
      <trkpt lat="44.20495" lon="0.75169">
        <ele>159</ele>
        <time>2017-04-30T08:56:37.000Z</time>
      </trkpt>
      <trkpt lat="44.205" lon="0.75164">
        <ele>159</ele>
        <time>2017-04-30T08:56:38.000Z</time>
      </trkpt>
      <trkpt lat="44.20505" lon="0.75158">
        <ele>160</ele>
        <time>2017-04-30T08:56:39.000Z</time>
      </trkpt>
      <trkpt lat="44.20509" lon="0.75153">
        <ele>160</ele>
        <time>2017-04-30T08:56:40.000Z</time>
      </trkpt>
      <trkpt lat="44.20513" lon="0.75149">
        <ele>161</ele>
        <time>2017-04-30T08:56:41.000Z</time>
      </trkpt>
      <trkpt lat="44.20516" lon="0.75145">
        <ele>161</ele>
        <time>2017-04-30T08:56:42.000Z</time>
      </trkpt>
      <trkpt lat="44.2052" lon="0.75141">
        <ele>162</ele>
        <time>2017-04-30T08:56:43.000Z</time>
      </trkpt>
      <trkpt lat="44.20523" lon="0.75137">
        <ele>162</ele>
        <time>2017-04-30T08:56:44.000Z</time>
      </trkpt>
      <trkpt lat="44.20526" lon="0.75134">
        <ele>162</ele>
        <time>2017-04-30T08:56:45.000Z</time>
      </trkpt>
      <trkpt lat="44.20529" lon="0.7513">
        <ele>162</ele>
        <time>2017-04-30T08:56:46.000Z</time>
      </trkpt>
      <trkpt lat="44.20532" lon="0.75126">
        <ele>163</ele>
        <time>2017-04-30T08:56:47.000Z</time>
      </trkpt>
      <trkpt lat="44.20535" lon="0.75123">
        <ele>163</ele>
        <time>2017-04-30T08:56:48.000Z</time>
      </trkpt>
      <trkpt lat="44.20538" lon="0.75119">
        <ele>163</ele>
        <time>2017-04-30T08:56:49.000Z</time>
      </trkpt>
      <trkpt lat="44.20541" lon="0.75115">
        <ele>163</ele>
        <time>2017-04-30T08:56:50.000Z</time>
      </trkpt>
      <trkpt lat="44.20544" lon="0.75111">
        <ele>163</ele>
        <time>2017-04-30T08:56:51.000Z</time>
      </trkpt>
      <trkpt lat="44.20547" lon="0.75107">
        <ele>163</ele>
        <time>2017-04-30T08:56:52.000Z</time>
      </trkpt>
      <trkpt lat="44.2055" lon="0.75103">
        <ele>163</ele>
        <time>2017-04-30T08:56:53.000Z</time>
      </trkpt>
      <trkpt lat="44.20553" lon="0.75099">
        <ele>164</ele>
        <time>2017-04-30T08:56:54.000Z</time>
      </trkpt>
      <trkpt lat="44.20556" lon="0.75095">
        <ele>164</ele>
        <time>2017-04-30T08:56:55.000Z</time>
      </trkpt>
      <trkpt lat="44.20558" lon="0.75091">
        <ele>164</ele>
        <time>2017-04-30T08:56:56.000Z</time>
      </trkpt>
      <trkpt lat="44.20561" lon="0.75087">
        <ele>164</ele>
        <time>2017-04-30T08:56:57.000Z</time>
      </trkpt>
      <trkpt lat="44.20563" lon="0.75084">
        <ele>165</ele>
        <time>2017-04-30T08:56:58.000Z</time>
      </trkpt>
      <trkpt lat="44.20566" lon="0.7508">
        <ele>165</ele>
        <time>2017-04-30T08:56:59.000Z</time>
      </trkpt>
      <trkpt lat="44.20569" lon="0.75076">
        <ele>165</ele>
        <time>2017-04-30T08:57:00.000Z</time>
      </trkpt>
      <trkpt lat="44.20571" lon="0.75073">
        <ele>165</ele>
        <time>2017-04-30T08:57:01.000Z</time>
      </trkpt>
      <trkpt lat="44.20574" lon="0.75069">
        <ele>165</ele>
        <time>2017-04-30T08:57:02.000Z</time>
      </trkpt>
      <trkpt lat="44.20577" lon="0.75065">
        <ele>165</ele>
        <time>2017-04-30T08:57:03.000Z</time>
      </trkpt>
      <trkpt lat="44.2058" lon="0.75062">
        <ele>165</ele>
        <time>2017-04-30T08:57:04.000Z</time>
      </trkpt>
      <trkpt lat="44.20583" lon="0.75058">
        <ele>165</ele>
        <time>2017-04-30T08:57:05.000Z</time>
      </trkpt>
      <trkpt lat="44.20585" lon="0.75054">
        <ele>165</ele>
        <time>2017-04-30T08:57:06.000Z</time>
      </trkpt>
      <trkpt lat="44.20588" lon="0.7505">
        <ele>165</ele>
        <time>2017-04-30T08:57:07.000Z</time>
      </trkpt>
      <trkpt lat="44.20591" lon="0.75046">
        <ele>164</ele>
        <time>2017-04-30T08:57:08.000Z</time>
      </trkpt>
      <trkpt lat="44.20594" lon="0.75042">
        <ele>164</ele>
        <time>2017-04-30T08:57:09.000Z</time>
      </trkpt>
      <trkpt lat="44.20598" lon="0.75038">
        <ele>164</ele>
        <time>2017-04-30T08:57:10.000Z</time>
      </trkpt>
      <trkpt lat="44.20601" lon="0.75034">
        <ele>164</ele>
        <time>2017-04-30T08:57:11.000Z</time>
      </trkpt>
      <trkpt lat="44.20604" lon="0.7503">
        <ele>164</ele>
        <time>2017-04-30T08:57:12.000Z</time>
      </trkpt>
      <trkpt lat="44.20608" lon="0.75025">
        <ele>164</ele>
        <time>2017-04-30T08:57:13.000Z</time>
      </trkpt>
      <trkpt lat="44.20612" lon="0.75021">
        <ele>164</ele>
        <time>2017-04-30T08:57:14.000Z</time>
      </trkpt>
      <trkpt lat="44.20615" lon="0.75017">
        <ele>163</ele>
        <time>2017-04-30T08:57:15.000Z</time>
      </trkpt>
      <trkpt lat="44.20619" lon="0.75013">
        <ele>163</ele>
        <time>2017-04-30T08:57:16.000Z</time>
      </trkpt>
      <trkpt lat="44.20621" lon="0.75008">
        <ele>163</ele>
        <time>2017-04-30T08:57:17.000Z</time>
      </trkpt>
      <trkpt lat="44.20622" lon="0.75003">
        <ele>163</ele>
        <time>2017-04-30T08:57:18.000Z</time>
      </trkpt>
      <trkpt lat="44.20622" lon="0.74998">
        <ele>163</ele>
        <time>2017-04-30T08:57:19.000Z</time>
      </trkpt>
      <trkpt lat="44.2062" lon="0.74992">
        <ele>162</ele>
        <time>2017-04-30T08:57:20.000Z</time>
      </trkpt>
      <trkpt lat="44.20618" lon="0.74987">
        <ele>162</ele>
        <time>2017-04-30T08:57:21.000Z</time>
      </trkpt>
      <trkpt lat="44.20616" lon="0.74981">
        <ele>162</ele>
        <time>2017-04-30T08:57:22.000Z</time>
      </trkpt>
      <trkpt lat="44.20615" lon="0.74975">
        <ele>162</ele>
        <time>2017-04-30T08:57:23.000Z</time>
      </trkpt>
      <trkpt lat="44.20613" lon="0.74969">
        <ele>161</ele>
        <time>2017-04-30T08:57:24.000Z</time>
      </trkpt>
      <trkpt lat="44.20611" lon="0.74963">
        <ele>161</ele>
        <time>2017-04-30T08:57:25.000Z</time>
      </trkpt>
      <trkpt lat="44.20609" lon="0.74957">
        <ele>161</ele>
        <time>2017-04-30T08:57:26.000Z</time>
      </trkpt>
      <trkpt lat="44.20607" lon="0.74952">
        <ele>161</ele>
        <time>2017-04-30T08:57:27.000Z</time>
      </trkpt>
      <trkpt lat="44.20605" lon="0.74946">
        <ele>162</ele>
        <time>2017-04-30T08:57:28.000Z</time>
      </trkpt>
      <trkpt lat="44.20603" lon="0.7494">
        <ele>162</ele>
        <time>2017-04-30T08:57:29.000Z</time>
      </trkpt>
      <trkpt lat="44.20601" lon="0.74935">
        <ele>162</ele>
        <time>2017-04-30T08:57:30.000Z</time>
      </trkpt>
      <trkpt lat="44.20599" lon="0.74929">
        <ele>162</ele>
        <time>2017-04-30T08:57:31.000Z</time>
      </trkpt>
      <trkpt lat="44.20597" lon="0.74924">
        <ele>162</ele>
        <time>2017-04-30T08:57:32.000Z</time>
      </trkpt>
      <trkpt lat="44.20595" lon="0.74918">
        <ele>162</ele>
        <time>2017-04-30T08:57:33.000Z</time>
      </trkpt>
      <trkpt lat="44.20593" lon="0.74913">
        <ele>162</ele>
        <time>2017-04-30T08:57:34.000Z</time>
      </trkpt>
      <trkpt lat="44.20591" lon="0.74907">
        <ele>162</ele>
        <time>2017-04-30T08:57:35.000Z</time>
      </trkpt>
      <trkpt lat="44.20589" lon="0.74902">
        <ele>162</ele>
        <time>2017-04-30T08:57:36.000Z</time>
      </trkpt>
      <trkpt lat="44.20586" lon="0.74896">
        <ele>162</ele>
        <time>2017-04-30T08:57:37.000Z</time>
      </trkpt>
      <trkpt lat="44.20584" lon="0.7489">
        <ele>163</ele>
        <time>2017-04-30T08:57:38.000Z</time>
      </trkpt>
      <trkpt lat="44.20581" lon="0.74884">
        <ele>163</ele>
        <time>2017-04-30T08:57:39.000Z</time>
      </trkpt>
      <trkpt lat="44.20578" lon="0.74878">
        <ele>163</ele>
        <time>2017-04-30T08:57:40.000Z</time>
      </trkpt>
      <trkpt lat="44.20575" lon="0.74872">
        <ele>164</ele>
        <time>2017-04-30T08:57:41.000Z</time>
      </trkpt>
      <trkpt lat="44.20573" lon="0.74866">
        <ele>164</ele>
        <time>2017-04-30T08:57:42.000Z</time>
      </trkpt>
      <trkpt lat="44.20571" lon="0.74861">
        <ele>164</ele>
        <time>2017-04-30T08:57:43.000Z</time>
      </trkpt>
      <trkpt lat="44.20569" lon="0.74855">
        <ele>164</ele>
        <time>2017-04-30T08:57:44.000Z</time>
      </trkpt>
      <trkpt lat="44.20568" lon="0.74849">
        <ele>164</ele>
        <time>2017-04-30T08:57:45.000Z</time>
      </trkpt>
      <trkpt lat="44.20566" lon="0.74843">
        <ele>164</ele>
        <time>2017-04-30T08:57:46.000Z</time>
      </trkpt>
      <trkpt lat="44.20565" lon="0.74837">
        <ele>164</ele>
        <time>2017-04-30T08:57:47.000Z</time>
      </trkpt>
      <trkpt lat="44.20563" lon="0.7483">
        <ele>163</ele>
        <time>2017-04-30T08:57:48.000Z</time>
      </trkpt>
      <trkpt lat="44.20562" lon="0.74824">
        <ele>163</ele>
        <time>2017-04-30T08:57:49.000Z</time>
      </trkpt>
      <trkpt lat="44.20561" lon="0.74817">
        <ele>163</ele>
        <time>2017-04-30T08:57:50.000Z</time>
      </trkpt>
      <trkpt lat="44.20559" lon="0.74811">
        <ele>163</ele>
        <time>2017-04-30T08:57:51.000Z</time>
      </trkpt>
      <trkpt lat="44.20559" lon="0.74804">
        <ele>163</ele>
        <time>2017-04-30T08:57:52.000Z</time>
      </trkpt>
      <trkpt lat="44.20558" lon="0.74797">
        <ele>163</ele>
        <time>2017-04-30T08:57:53.000Z</time>
      </trkpt>
      <trkpt lat="44.20557" lon="0.7479">
        <ele>163</ele>
        <time>2017-04-30T08:57:54.000Z</time>
      </trkpt>
      <trkpt lat="44.20556" lon="0.74784">
        <ele>163</ele>
        <time>2017-04-30T08:57:55.000Z</time>
      </trkpt>
      <trkpt lat="44.20556" lon="0.74777">
        <ele>162</ele>
        <time>2017-04-30T08:57:56.000Z</time>
      </trkpt>
      <trkpt lat="44.20555" lon="0.74771">
        <ele>162</ele>
        <time>2017-04-30T08:57:57.000Z</time>
      </trkpt>
      <trkpt lat="44.20554" lon="0.74765">
        <ele>162</ele>
        <time>2017-04-30T08:57:58.000Z</time>
      </trkpt>
      <trkpt lat="44.20554" lon="0.7476">
        <ele>162</ele>
        <time>2017-04-30T08:57:59.000Z</time>
      </trkpt>
      <trkpt lat="44.20553" lon="0.74753">
        <ele>162</ele>
        <time>2017-04-30T08:58:00.000Z</time>
      </trkpt>
      <trkpt lat="44.20553" lon="0.74747">
        <ele>161</ele>
        <time>2017-04-30T08:58:01.000Z</time>
      </trkpt>
      <trkpt lat="44.20552" lon="0.74741">
        <ele>161</ele>
        <time>2017-04-30T08:58:02.000Z</time>
      </trkpt>
      <trkpt lat="44.20552" lon="0.74734">
        <ele>161</ele>
        <time>2017-04-30T08:58:03.000Z</time>
      </trkpt>
      <trkpt lat="44.20551" lon="0.74727">
        <ele>161</ele>
        <time>2017-04-30T08:58:04.000Z</time>
      </trkpt>
      <trkpt lat="44.2055" lon="0.7472">
        <ele>161</ele>
        <time>2017-04-30T08:58:05.000Z</time>
      </trkpt>
      <trkpt lat="44.2055" lon="0.74713">
        <ele>161</ele>
        <time>2017-04-30T08:58:06.000Z</time>
      </trkpt>
      <trkpt lat="44.20549" lon="0.74706">
        <ele>161</ele>
        <time>2017-04-30T08:58:07.000Z</time>
      </trkpt>
      <trkpt lat="44.20548" lon="0.74699">
        <ele>160</ele>
        <time>2017-04-30T08:58:08.000Z</time>
      </trkpt>
      <trkpt lat="44.20548" lon="0.74692">
        <ele>160</ele>
        <time>2017-04-30T08:58:09.000Z</time>
      </trkpt>
      <trkpt lat="44.20547" lon="0.74686">
        <ele>160</ele>
        <time>2017-04-30T08:58:10.000Z</time>
      </trkpt>
      <trkpt lat="44.20546" lon="0.7468">
        <ele>160</ele>
        <time>2017-04-30T08:58:11.000Z</time>
      </trkpt>
      <trkpt lat="44.20546" lon="0.74674">
        <ele>160</ele>
        <time>2017-04-30T08:58:12.000Z</time>
      </trkpt>
      <trkpt lat="44.20545" lon="0.74667">
        <ele>160</ele>
        <time>2017-04-30T08:58:13.000Z</time>
      </trkpt>
      <trkpt lat="44.20544" lon="0.74661">
        <ele>159</ele>
        <time>2017-04-30T08:58:14.000Z</time>
      </trkpt>
      <trkpt lat="44.20542" lon="0.74655">
        <ele>159</ele>
        <time>2017-04-30T08:58:15.000Z</time>
      </trkpt>
      <trkpt lat="44.20539" lon="0.74651">
        <ele>159</ele>
        <time>2017-04-30T08:58:16.000Z</time>
      </trkpt>
      <trkpt lat="44.20537" lon="0.74648">
        <ele>158</ele>
        <time>2017-04-30T08:58:17.000Z</time>
      </trkpt>
      <trkpt lat="44.20534" lon="0.74644">
        <ele>158</ele>
        <time>2017-04-30T08:58:18.000Z</time>
      </trkpt>
      <trkpt lat="44.2053" lon="0.74641">
        <ele>157</ele>
        <time>2017-04-30T08:58:19.000Z</time>
      </trkpt>
      <trkpt lat="44.20527" lon="0.74638">
        <ele>157</ele>
        <time>2017-04-30T08:58:20.000Z</time>
      </trkpt>
      <trkpt lat="44.20524" lon="0.74634">
        <ele>157</ele>
        <time>2017-04-30T08:58:21.000Z</time>
      </trkpt>
      <trkpt lat="44.20521" lon="0.7463">
        <ele>156</ele>
        <time>2017-04-30T08:58:22.000Z</time>
      </trkpt>
      <trkpt lat="44.20519" lon="0.74627">
        <ele>156</ele>
        <time>2017-04-30T08:58:23.000Z</time>
      </trkpt>
      <trkpt lat="44.20517" lon="0.74624">
        <ele>155</ele>
        <time>2017-04-30T08:58:24.000Z</time>
      </trkpt>
      <trkpt lat="44.20515" lon="0.74621">
        <ele>155</ele>
        <time>2017-04-30T08:58:25.000Z</time>
      </trkpt>
      <trkpt lat="44.20513" lon="0.74618">
        <ele>155</ele>
        <time>2017-04-30T08:58:26.000Z</time>
      </trkpt>
      <trkpt lat="44.20511" lon="0.74615">
        <ele>154</ele>
        <time>2017-04-30T08:58:27.000Z</time>
      </trkpt>
      <trkpt lat="44.20508" lon="0.74612">
        <ele>153</ele>
        <time>2017-04-30T08:58:28.000Z</time>
      </trkpt>
      <trkpt lat="44.20506" lon="0.74609">
        <ele>153</ele>
        <time>2017-04-30T08:58:29.000Z</time>
      </trkpt>
      <trkpt lat="44.20503" lon="0.74605">
        <ele>152</ele>
        <time>2017-04-30T08:58:30.000Z</time>
      </trkpt>
      <trkpt lat="44.20501" lon="0.74602">
        <ele>152</ele>
        <time>2017-04-30T08:58:31.000Z</time>
      </trkpt>
      <trkpt lat="44.20498" lon="0.74598">
        <ele>151</ele>
        <time>2017-04-30T08:58:32.000Z</time>
      </trkpt>
      <trkpt lat="44.20495" lon="0.74593">
        <ele>151</ele>
        <time>2017-04-30T08:58:33.000Z</time>
      </trkpt>
      <trkpt lat="44.20493" lon="0.74588">
        <ele>151</ele>
        <time>2017-04-30T08:58:34.000Z</time>
      </trkpt>
      <trkpt lat="44.20493" lon="0.74581">
        <ele>150</ele>
        <time>2017-04-30T08:58:35.000Z</time>
      </trkpt>
      <trkpt lat="44.20493" lon="0.74574">
        <ele>149</ele>
        <time>2017-04-30T08:58:36.000Z</time>
      </trkpt>
      <trkpt lat="44.20494" lon="0.74567">
        <ele>149</ele>
        <time>2017-04-30T08:58:37.000Z</time>
      </trkpt>
      <trkpt lat="44.20494" lon="0.74558">
        <ele>148</ele>
        <time>2017-04-30T08:58:38.000Z</time>
      </trkpt>
      <trkpt lat="44.20494" lon="0.7455">
        <ele>148</ele>
        <time>2017-04-30T08:58:39.000Z</time>
      </trkpt>
      <trkpt lat="44.20495" lon="0.74541">
        <ele>148</ele>
        <time>2017-04-30T08:58:40.000Z</time>
      </trkpt>
      <trkpt lat="44.20496" lon="0.74533">
        <ele>148</ele>
        <time>2017-04-30T08:58:41.000Z</time>
      </trkpt>
      <trkpt lat="44.20496" lon="0.74524">
        <ele>148</ele>
        <time>2017-04-30T08:58:42.000Z</time>
      </trkpt>
      <trkpt lat="44.20497" lon="0.74515">
        <ele>148</ele>
        <time>2017-04-30T08:58:43.000Z</time>
      </trkpt>
      <trkpt lat="44.20497" lon="0.74508">
        <ele>147</ele>
        <time>2017-04-30T08:58:44.000Z</time>
      </trkpt>
      <trkpt lat="44.20497" lon="0.74502">
        <ele>148</ele>
        <time>2017-04-30T08:58:45.000Z</time>
      </trkpt>
      <trkpt lat="44.20497" lon="0.74498">
        <ele>147</ele>
        <time>2017-04-30T08:58:46.000Z</time>
      </trkpt>
      <trkpt lat="44.20497" lon="0.74494">
        <ele>147</ele>
        <time>2017-04-30T08:58:47.000Z</time>
      </trkpt>
      <trkpt lat="44.20497" lon="0.7449">
        <ele>146</ele>
        <time>2017-04-30T08:58:48.000Z</time>
      </trkpt>
      <trkpt lat="44.20496" lon="0.74487">
        <ele>146</ele>
        <time>2017-04-30T08:58:49.000Z</time>
      </trkpt>
      <trkpt lat="44.20495" lon="0.74483">
        <ele>145</ele>
        <time>2017-04-30T08:58:50.000Z</time>
      </trkpt>
      <trkpt lat="44.20492" lon="0.74476">
        <ele>145</ele>
        <time>2017-04-30T08:58:51.000Z</time>
      </trkpt>
      <trkpt lat="44.20491" lon="0.74471">
        <ele>144</ele>
        <time>2017-04-30T08:58:52.000Z</time>
      </trkpt>
      <trkpt lat="44.2049" lon="0.74464">
        <ele>143</ele>
        <time>2017-04-30T08:58:53.000Z</time>
      </trkpt>
      <trkpt lat="44.20488" lon="0.74457">
        <ele>143</ele>
        <time>2017-04-30T08:58:54.000Z</time>
      </trkpt>
      <trkpt lat="44.20485" lon="0.7445">
        <ele>142</ele>
        <time>2017-04-30T08:58:55.000Z</time>
      </trkpt>
      <trkpt lat="44.20481" lon="0.74444">
        <ele>140</ele>
        <time>2017-04-30T08:58:56.000Z</time>
      </trkpt>
      <trkpt lat="44.20479" lon="0.74437">
        <ele>138</ele>
        <time>2017-04-30T08:58:57.000Z</time>
      </trkpt>
      <trkpt lat="44.20476" lon="0.74431">
        <ele>137</ele>
        <time>2017-04-30T08:58:58.000Z</time>
      </trkpt>
      <trkpt lat="44.20472" lon="0.74425">
        <ele>136</ele>
        <time>2017-04-30T08:58:59.000Z</time>
      </trkpt>
      <trkpt lat="44.2047" lon="0.7442">
        <ele>134</ele>
        <time>2017-04-30T08:59:00.000Z</time>
      </trkpt>
      <trkpt lat="44.20467" lon="0.74415">
        <ele>133</ele>
        <time>2017-04-30T08:59:01.000Z</time>
      </trkpt>
      <trkpt lat="44.20462" lon="0.74408">
        <ele>132</ele>
        <time>2017-04-30T08:59:02.000Z</time>
      </trkpt>
      <trkpt lat="44.20459" lon="0.74402">
        <ele>131</ele>
        <time>2017-04-30T08:59:03.000Z</time>
      </trkpt>
      <trkpt lat="44.20452" lon="0.74396">
        <ele>129</ele>
        <time>2017-04-30T08:59:04.000Z</time>
      </trkpt>
      <trkpt lat="44.20448" lon="0.7439">
        <ele>128</ele>
        <time>2017-04-30T08:59:05.000Z</time>
      </trkpt>
      <trkpt lat="44.20447" lon="0.74381">
        <ele>125</ele>
        <time>2017-04-30T08:59:06.000Z</time>
      </trkpt>
      <trkpt lat="44.20446" lon="0.74373">
        <ele>122</ele>
        <time>2017-04-30T08:59:07.000Z</time>
      </trkpt>
      <trkpt lat="44.20444" lon="0.74364">
        <ele>121</ele>
        <time>2017-04-30T08:59:08.000Z</time>
      </trkpt>
      <trkpt lat="44.20443" lon="0.74357">
        <ele>120</ele>
        <time>2017-04-30T08:59:09.000Z</time>
      </trkpt>
      <trkpt lat="44.20442" lon="0.74348">
        <ele>117</ele>
        <time>2017-04-30T08:59:10.000Z</time>
      </trkpt>
      <trkpt lat="44.20441" lon="0.74338">
        <ele>115</ele>
        <time>2017-04-30T08:59:11.000Z</time>
      </trkpt>
      <trkpt lat="44.20439" lon="0.74329">
        <ele>114</ele>
        <time>2017-04-30T08:59:12.000Z</time>
      </trkpt>
      <trkpt lat="44.20438" lon="0.74321">
        <ele>112</ele>
        <time>2017-04-30T08:59:13.000Z</time>
      </trkpt>
      <trkpt lat="44.20436" lon="0.74312">
        <ele>111</ele>
        <time>2017-04-30T08:59:14.000Z</time>
      </trkpt>
      <trkpt lat="44.20435" lon="0.74304">
        <ele>112</ele>
        <time>2017-04-30T08:59:15.000Z</time>
      </trkpt>
      <trkpt lat="44.20434" lon="0.74295">
        <ele>111</ele>
        <time>2017-04-30T08:59:16.000Z</time>
      </trkpt>
      <trkpt lat="44.20434" lon="0.74287">
        <ele>111</ele>
        <time>2017-04-30T08:59:17.000Z</time>
      </trkpt>
      <trkpt lat="44.20432" lon="0.74279">
        <ele>111</ele>
        <time>2017-04-30T08:59:18.000Z</time>
      </trkpt>
      <trkpt lat="44.2043" lon="0.74271">
        <ele>110</ele>
        <time>2017-04-30T08:59:19.000Z</time>
      </trkpt>
      <trkpt lat="44.20428" lon="0.74264">
        <ele>112</ele>
        <time>2017-04-30T08:59:20.000Z</time>
      </trkpt>
      <trkpt lat="44.20426" lon="0.74258">
        <ele>112</ele>
        <time>2017-04-30T08:59:21.000Z</time>
      </trkpt>
      <trkpt lat="44.20424" lon="0.74251">
        <ele>112</ele>
        <time>2017-04-30T08:59:22.000Z</time>
      </trkpt>
      <trkpt lat="44.20423" lon="0.74245">
        <ele>110</ele>
        <time>2017-04-30T08:59:23.000Z</time>
      </trkpt>
      <trkpt lat="44.20421" lon="0.74237">
        <ele>110</ele>
        <time>2017-04-30T08:59:24.000Z</time>
      </trkpt>
      <trkpt lat="44.2042" lon="0.7423">
        <ele>107</ele>
        <time>2017-04-30T08:59:25.000Z</time>
      </trkpt>
      <trkpt lat="44.20418" lon="0.74224">
        <ele>107</ele>
        <time>2017-04-30T08:59:26.000Z</time>
      </trkpt>
      <trkpt lat="44.20415" lon="0.74216">
        <ele>107</ele>
        <time>2017-04-30T08:59:27.000Z</time>
      </trkpt>
      <trkpt lat="44.20412" lon="0.74207">
        <ele>108</ele>
        <time>2017-04-30T08:59:28.000Z</time>
      </trkpt>
      <trkpt lat="44.20411" lon="0.74199">
        <ele>110</ele>
        <time>2017-04-30T08:59:29.000Z</time>
      </trkpt>
      <trkpt lat="44.20407" lon="0.7419">
        <ele>112</ele>
        <time>2017-04-30T08:59:30.000Z</time>
      </trkpt>
      <trkpt lat="44.20404" lon="0.7418">
        <ele>112</ele>
        <time>2017-04-30T08:59:31.000Z</time>
      </trkpt>
      <trkpt lat="44.204" lon="0.74172">
        <ele>113</ele>
        <time>2017-04-30T08:59:32.000Z</time>
      </trkpt>
      <trkpt lat="44.20396" lon="0.74164">
        <ele>114</ele>
        <time>2017-04-30T08:59:33.000Z</time>
      </trkpt>
      <trkpt lat="44.20393" lon="0.74154">
        <ele>113</ele>
        <time>2017-04-30T08:59:34.000Z</time>
      </trkpt>
      <trkpt lat="44.2039" lon="0.74145">
        <ele>113</ele>
        <time>2017-04-30T08:59:35.000Z</time>
      </trkpt>
      <trkpt lat="44.20387" lon="0.74137">
        <ele>112</ele>
        <time>2017-04-30T08:59:36.000Z</time>
      </trkpt>
      <trkpt lat="44.20383" lon="0.74129">
        <ele>114</ele>
        <time>2017-04-30T08:59:37.000Z</time>
      </trkpt>
      <trkpt lat="44.2038" lon="0.74122">
        <ele>114</ele>
        <time>2017-04-30T08:59:38.000Z</time>
      </trkpt>
      <trkpt lat="44.20377" lon="0.74115">
        <ele>115</ele>
        <time>2017-04-30T08:59:39.000Z</time>
      </trkpt>
      <trkpt lat="44.20375" lon="0.74108">
        <ele>115</ele>
        <time>2017-04-30T08:59:40.000Z</time>
      </trkpt>
      <trkpt lat="44.20372" lon="0.74101">
        <ele>116</ele>
        <time>2017-04-30T08:59:41.000Z</time>
      </trkpt>
      <trkpt lat="44.2037" lon="0.74094">
        <ele>116</ele>
        <time>2017-04-30T08:59:42.000Z</time>
      </trkpt>
      <trkpt lat="44.20369" lon="0.74088">
        <ele>116</ele>
        <time>2017-04-30T08:59:43.000Z</time>
      </trkpt>
      <trkpt lat="44.20367" lon="0.74082">
        <ele>116</ele>
        <time>2017-04-30T08:59:44.000Z</time>
      </trkpt>
      <trkpt lat="44.20365" lon="0.74076">
        <ele>114</ele>
        <time>2017-04-30T08:59:45.000Z</time>
      </trkpt>
      <trkpt lat="44.20364" lon="0.74071">
        <ele>114</ele>
        <time>2017-04-30T08:59:46.000Z</time>
      </trkpt>
      <trkpt lat="44.20362" lon="0.74063">
        <ele>113</ele>
        <time>2017-04-30T08:59:47.000Z</time>
      </trkpt>
      <trkpt lat="44.2036" lon="0.74057">
        <ele>114</ele>
        <time>2017-04-30T08:59:48.000Z</time>
      </trkpt>
      <trkpt lat="44.20358" lon="0.7405">
        <ele>114</ele>
        <time>2017-04-30T08:59:49.000Z</time>
      </trkpt>
      <trkpt lat="44.20355" lon="0.74043">
        <ele>113</ele>
        <time>2017-04-30T08:59:50.000Z</time>
      </trkpt>
      <trkpt lat="44.20354" lon="0.74036">
        <ele>113</ele>
        <time>2017-04-30T08:59:51.000Z</time>
      </trkpt>
      <trkpt lat="44.20352" lon="0.74029">
        <ele>112</ele>
        <time>2017-04-30T08:59:52.000Z</time>
      </trkpt>
      <trkpt lat="44.20351" lon="0.74023">
        <ele>112</ele>
        <time>2017-04-30T08:59:53.000Z</time>
      </trkpt>
      <trkpt lat="44.2035" lon="0.74017">
        <ele>111</ele>
        <time>2017-04-30T08:59:54.000Z</time>
      </trkpt>
      <trkpt lat="44.20349" lon="0.74011">
        <ele>111</ele>
        <time>2017-04-30T08:59:55.000Z</time>
      </trkpt>
      <trkpt lat="44.20348" lon="0.74003">
        <ele>109</ele>
        <time>2017-04-30T08:59:56.000Z</time>
      </trkpt>
      <trkpt lat="44.20347" lon="0.73996">
        <ele>109</ele>
        <time>2017-04-30T08:59:57.000Z</time>
      </trkpt>
      <trkpt lat="44.20345" lon="0.73988">
        <ele>109</ele>
        <time>2017-04-30T08:59:58.000Z</time>
      </trkpt>
      <trkpt lat="44.20345" lon="0.73981">
        <ele>108</ele>
        <time>2017-04-30T08:59:59.000Z</time>
      </trkpt>
      <trkpt lat="44.20344" lon="0.73974">
        <ele>107</ele>
        <time>2017-04-30T09:00:00.000Z</time>
      </trkpt>
      <trkpt lat="44.20343" lon="0.73967">
        <ele>107</ele>
        <time>2017-04-30T09:00:01.000Z</time>
      </trkpt>
      <trkpt lat="44.20343" lon="0.7396">
        <ele>106</ele>
        <time>2017-04-30T09:00:02.000Z</time>
      </trkpt>
      <trkpt lat="44.20343" lon="0.73952">
        <ele>105</ele>
        <time>2017-04-30T09:00:03.000Z</time>
      </trkpt>
      <trkpt lat="44.20342" lon="0.73943">
        <ele>104</ele>
        <time>2017-04-30T09:00:04.000Z</time>
      </trkpt>
      <trkpt lat="44.20342" lon="0.73933">
        <ele>102</ele>
        <time>2017-04-30T09:00:05.000Z</time>
      </trkpt>
      <trkpt lat="44.2034" lon="0.73922">
        <ele>102</ele>
        <time>2017-04-30T09:00:06.000Z</time>
      </trkpt>
      <trkpt lat="44.20339" lon="0.73911">
        <ele>101</ele>
        <time>2017-04-30T09:00:07.000Z</time>
      </trkpt>
      <trkpt lat="44.20338" lon="0.739">
        <ele>100</ele>
        <time>2017-04-30T09:00:08.000Z</time>
      </trkpt>
      <trkpt lat="44.20336" lon="0.73887">
        <ele>99</ele>
        <time>2017-04-30T09:00:09.000Z</time>
      </trkpt>
      <trkpt lat="44.20336" lon="0.73872">
        <ele>99</ele>
        <time>2017-04-30T09:00:10.000Z</time>
      </trkpt>
      <trkpt lat="44.20336" lon="0.73855">
        <ele>99</ele>
        <time>2017-04-30T09:00:11.000Z</time>
      </trkpt>
      <trkpt lat="44.20337" lon="0.7384">
        <ele>98</ele>
        <time>2017-04-30T09:00:12.000Z</time>
      </trkpt>
      <trkpt lat="44.20339" lon="0.73824">
        <ele>95</ele>
        <time>2017-04-30T09:00:13.000Z</time>
      </trkpt>
      <trkpt lat="44.2034" lon="0.73809">
        <ele>95</ele>
        <time>2017-04-30T09:00:14.000Z</time>
      </trkpt>
      <trkpt lat="44.20341" lon="0.73793">
        <ele>93</ele>
        <time>2017-04-30T09:00:15.000Z</time>
      </trkpt>
      <trkpt lat="44.20344" lon="0.73775">
        <ele>91</ele>
        <time>2017-04-30T09:00:16.000Z</time>
      </trkpt>
      <trkpt lat="44.20345" lon="0.73757">
        <ele>91</ele>
        <time>2017-04-30T09:00:17.000Z</time>
      </trkpt>
      <trkpt lat="44.20345" lon="0.7374">
        <ele>90</ele>
        <time>2017-04-30T09:00:18.000Z</time>
      </trkpt>
      <trkpt lat="44.20343" lon="0.73724">
        <ele>89</ele>
        <time>2017-04-30T09:00:19.000Z</time>
      </trkpt>
      <trkpt lat="44.2034" lon="0.73708">
        <ele>90</ele>
        <time>2017-04-30T09:00:20.000Z</time>
      </trkpt>
      <trkpt lat="44.20338" lon="0.73693">
        <ele>89</ele>
        <time>2017-04-30T09:00:21.000Z</time>
      </trkpt>
      <trkpt lat="44.20336" lon="0.73678">
        <ele>89</ele>
        <time>2017-04-30T09:00:22.000Z</time>
      </trkpt>
      <trkpt lat="44.20333" lon="0.73665">
        <ele>90</ele>
        <time>2017-04-30T09:00:23.000Z</time>
      </trkpt>
      <trkpt lat="44.20332" lon="0.73652">
        <ele>89</ele>
        <time>2017-04-30T09:00:24.000Z</time>
      </trkpt>
      <trkpt lat="44.20337" lon="0.73643">
        <ele>89</ele>
        <time>2017-04-30T09:00:25.000Z</time>
      </trkpt>
      <trkpt lat="44.20339" lon="0.73633">
        <ele>89</ele>
        <time>2017-04-30T09:00:26.000Z</time>
      </trkpt>
      <trkpt lat="44.2034" lon="0.73621">
        <ele>89</ele>
        <time>2017-04-30T09:00:27.000Z</time>
      </trkpt>
      <trkpt lat="44.20341" lon="0.7361">
        <ele>88</ele>
        <time>2017-04-30T09:00:28.000Z</time>
      </trkpt>
      <trkpt lat="44.20341" lon="0.73599">
        <ele>87</ele>
        <time>2017-04-30T09:00:29.000Z</time>
      </trkpt>
      <trkpt lat="44.20341" lon="0.73589">
        <ele>88</ele>
        <time>2017-04-30T09:00:30.000Z</time>
      </trkpt>
      <trkpt lat="44.20341" lon="0.73578">
        <ele>88</ele>
        <time>2017-04-30T09:00:31.000Z</time>
      </trkpt>
      <trkpt lat="44.2034" lon="0.73568">
        <ele>89</ele>
        <time>2017-04-30T09:00:32.000Z</time>
      </trkpt>
      <trkpt lat="44.2034" lon="0.73558">
        <ele>89</ele>
        <time>2017-04-30T09:00:33.000Z</time>
      </trkpt>
      <trkpt lat="44.20339" lon="0.73548">
        <ele>89</ele>
        <time>2017-04-30T09:00:34.000Z</time>
      </trkpt>
      <trkpt lat="44.20336" lon="0.73538">
        <ele>88</ele>
        <time>2017-04-30T09:00:35.000Z</time>
      </trkpt>
      <trkpt lat="44.20332" lon="0.73528">
        <ele>88</ele>
        <time>2017-04-30T09:00:36.000Z</time>
      </trkpt>
      <trkpt lat="44.20324" lon="0.73519">
        <ele>86</ele>
        <time>2017-04-30T09:00:37.000Z</time>
      </trkpt>
      <trkpt lat="44.20318" lon="0.73511">
        <ele>86</ele>
        <time>2017-04-30T09:00:38.000Z</time>
      </trkpt>
      <trkpt lat="44.20313" lon="0.73504">
        <ele>87</ele>
        <time>2017-04-30T09:00:39.000Z</time>
      </trkpt>
      <trkpt lat="44.20306" lon="0.73496">
        <ele>86</ele>
        <time>2017-04-30T09:00:40.000Z</time>
      </trkpt>
      <trkpt lat="44.203" lon="0.73488">
        <ele>85</ele>
        <time>2017-04-30T09:00:41.000Z</time>
      </trkpt>
      <trkpt lat="44.20295" lon="0.73481">
        <ele>85</ele>
        <time>2017-04-30T09:00:42.000Z</time>
      </trkpt>
      <trkpt lat="44.2029" lon="0.73474">
        <ele>85</ele>
        <time>2017-04-30T09:00:43.000Z</time>
      </trkpt>
      <trkpt lat="44.20286" lon="0.73467">
        <ele>85</ele>
        <time>2017-04-30T09:00:44.000Z</time>
      </trkpt>
      <trkpt lat="44.20281" lon="0.73461">
        <ele>85</ele>
        <time>2017-04-30T09:00:45.000Z</time>
      </trkpt>
      <trkpt lat="44.20276" lon="0.73454">
        <ele>85</ele>
        <time>2017-04-30T09:00:46.000Z</time>
      </trkpt>
      <trkpt lat="44.20271" lon="0.73447">
        <ele>85</ele>
        <time>2017-04-30T09:00:47.000Z</time>
      </trkpt>
      <trkpt lat="44.20267" lon="0.7344">
        <ele>85</ele>
        <time>2017-04-30T09:00:48.000Z</time>
      </trkpt>
      <trkpt lat="44.20263" lon="0.73433">
        <ele>85</ele>
        <time>2017-04-30T09:00:49.000Z</time>
      </trkpt>
      <trkpt lat="44.2026" lon="0.73422">
        <ele>83</ele>
        <time>2017-04-30T09:00:50.000Z</time>
      </trkpt>
      <trkpt lat="44.20256" lon="0.73413">
        <ele>82</ele>
        <time>2017-04-30T09:00:51.000Z</time>
      </trkpt>
      <trkpt lat="44.2025" lon="0.73404">
        <ele>81</ele>
        <time>2017-04-30T09:00:52.000Z</time>
      </trkpt>
      <trkpt lat="44.20245" lon="0.73395">
        <ele>78</ele>
        <time>2017-04-30T09:00:53.000Z</time>
      </trkpt>
      <trkpt lat="44.2024" lon="0.73385">
        <ele>77</ele>
        <time>2017-04-30T09:00:54.000Z</time>
      </trkpt>
      <trkpt lat="44.20234" lon="0.73373">
        <ele>79</ele>
        <time>2017-04-30T09:00:55.000Z</time>
      </trkpt>
      <trkpt lat="44.2023" lon="0.73363">
        <ele>79</ele>
        <time>2017-04-30T09:00:56.000Z</time>
      </trkpt>
      <trkpt lat="44.20225" lon="0.73353">
        <ele>80</ele>
        <time>2017-04-30T09:00:57.000Z</time>
      </trkpt>
      <trkpt lat="44.20222" lon="0.73343">
        <ele>79</ele>
        <time>2017-04-30T09:00:58.000Z</time>
      </trkpt>
      <trkpt lat="44.20218" lon="0.73332">
        <ele>79</ele>
        <time>2017-04-30T09:00:59.000Z</time>
      </trkpt>
      <trkpt lat="44.20215" lon="0.73322">
        <ele>80</ele>
        <time>2017-04-30T09:01:00.000Z</time>
      </trkpt>
      <trkpt lat="44.20214" lon="0.73311">
        <ele>80</ele>
        <time>2017-04-30T09:01:01.000Z</time>
      </trkpt>
      <trkpt lat="44.20216" lon="0.73301">
        <ele>81</ele>
        <time>2017-04-30T09:01:02.000Z</time>
      </trkpt>
      <trkpt lat="44.20222" lon="0.73293">
        <ele>79</ele>
        <time>2017-04-30T09:01:03.000Z</time>
      </trkpt>
      <trkpt lat="44.20229" lon="0.73288">
        <ele>80</ele>
        <time>2017-04-30T09:01:04.000Z</time>
      </trkpt>
      <trkpt lat="44.20236" lon="0.73281">
        <ele>80</ele>
        <time>2017-04-30T09:01:05.000Z</time>
      </trkpt>
      <trkpt lat="44.20244" lon="0.73275">
        <ele>78</ele>
        <time>2017-04-30T09:01:06.000Z</time>
      </trkpt>
      <trkpt lat="44.20251" lon="0.7327">
        <ele>77</ele>
        <time>2017-04-30T09:01:07.000Z</time>
      </trkpt>
      <trkpt lat="44.20257" lon="0.73265">
        <ele>78</ele>
        <time>2017-04-30T09:01:08.000Z</time>
      </trkpt>
      <trkpt lat="44.20264" lon="0.73261">
        <ele>78</ele>
        <time>2017-04-30T09:01:09.000Z</time>
      </trkpt>
      <trkpt lat="44.20271" lon="0.73256">
        <ele>78</ele>
        <time>2017-04-30T09:01:10.000Z</time>
      </trkpt>
      <trkpt lat="44.20278" lon="0.73252">
        <ele>78</ele>
        <time>2017-04-30T09:01:11.000Z</time>
      </trkpt>
      <trkpt lat="44.20284" lon="0.73248">
        <ele>78</ele>
        <time>2017-04-30T09:01:12.000Z</time>
      </trkpt>
      <trkpt lat="44.20291" lon="0.73244">
        <ele>78</ele>
        <time>2017-04-30T09:01:13.000Z</time>
      </trkpt>
      <trkpt lat="44.20297" lon="0.7324">
        <ele>79</ele>
        <time>2017-04-30T09:01:14.000Z</time>
      </trkpt>
      <trkpt lat="44.20303" lon="0.73237">
        <ele>79</ele>
        <time>2017-04-30T09:01:15.000Z</time>
      </trkpt>
      <trkpt lat="44.20308" lon="0.73234">
        <ele>79</ele>
        <time>2017-04-30T09:01:16.000Z</time>
      </trkpt>
      <trkpt lat="44.20312" lon="0.7323">
        <ele>79</ele>
        <time>2017-04-30T09:01:17.000Z</time>
      </trkpt>
      <trkpt lat="44.20314" lon="0.73225">
        <ele>79</ele>
        <time>2017-04-30T09:01:18.000Z</time>
      </trkpt>
      <trkpt lat="44.20316" lon="0.7322">
        <ele>78</ele>
        <time>2017-04-30T09:01:19.000Z</time>
      </trkpt>
      <trkpt lat="44.20317" lon="0.73214">
        <ele>77</ele>
        <time>2017-04-30T09:01:20.000Z</time>
      </trkpt>
      <trkpt lat="44.20317" lon="0.73207">
        <ele>78</ele>
        <time>2017-04-30T09:01:21.000Z</time>
      </trkpt>
      <trkpt lat="44.20317" lon="0.732">
        <ele>78</ele>
        <time>2017-04-30T09:01:22.000Z</time>
      </trkpt>
      <trkpt lat="44.20317" lon="0.73192">
        <ele>78</ele>
        <time>2017-04-30T09:01:23.000Z</time>
      </trkpt>
      <trkpt lat="44.20316" lon="0.73185">
        <ele>78</ele>
        <time>2017-04-30T09:01:24.000Z</time>
      </trkpt>
      <trkpt lat="44.20316" lon="0.73177">
        <ele>78</ele>
        <time>2017-04-30T09:01:25.000Z</time>
      </trkpt>
      <trkpt lat="44.20316" lon="0.73169">
        <ele>78</ele>
        <time>2017-04-30T09:01:26.000Z</time>
      </trkpt>
      <trkpt lat="44.20317" lon="0.73161">
        <ele>79</ele>
        <time>2017-04-30T09:01:27.000Z</time>
      </trkpt>
      <trkpt lat="44.20317" lon="0.73153">
        <ele>79</ele>
        <time>2017-04-30T09:01:28.000Z</time>
      </trkpt>
      <trkpt lat="44.20317" lon="0.73146">
        <ele>79</ele>
        <time>2017-04-30T09:01:29.000Z</time>
      </trkpt>
      <trkpt lat="44.20316" lon="0.73139">
        <ele>79</ele>
        <time>2017-04-30T09:01:30.000Z</time>
      </trkpt>
      <trkpt lat="44.20316" lon="0.73132">
        <ele>79</ele>
        <time>2017-04-30T09:01:31.000Z</time>
      </trkpt>
      <trkpt lat="44.20315" lon="0.73125">
        <ele>80</ele>
        <time>2017-04-30T09:01:32.000Z</time>
      </trkpt>
      <trkpt lat="44.20313" lon="0.73119">
        <ele>81</ele>
        <time>2017-04-30T09:01:33.000Z</time>
      </trkpt>
      <trkpt lat="44.20312" lon="0.73112">
        <ele>81</ele>
        <time>2017-04-30T09:01:34.000Z</time>
      </trkpt>
      <trkpt lat="44.2031" lon="0.73105">
        <ele>81</ele>
        <time>2017-04-30T09:01:35.000Z</time>
      </trkpt>
      <trkpt lat="44.20309" lon="0.73099">
        <ele>82</ele>
        <time>2017-04-30T09:01:36.000Z</time>
      </trkpt>
      <trkpt lat="44.20312" lon="0.73093">
        <ele>81</ele>
        <time>2017-04-30T09:01:37.000Z</time>
      </trkpt>
      <trkpt lat="44.20315" lon="0.73089">
        <ele>81</ele>
        <time>2017-04-30T09:01:38.000Z</time>
      </trkpt>
      <trkpt lat="44.20319" lon="0.73085">
        <ele>80</ele>
        <time>2017-04-30T09:01:39.000Z</time>
      </trkpt>
      <trkpt lat="44.20323" lon="0.73083">
        <ele>80</ele>
        <time>2017-04-30T09:01:40.000Z</time>
      </trkpt>
      <trkpt lat="44.20327" lon="0.73081">
        <ele>81</ele>
        <time>2017-04-30T09:01:41.000Z</time>
      </trkpt>
      <trkpt lat="44.2033" lon="0.73079">
        <ele>82</ele>
        <time>2017-04-30T09:01:42.000Z</time>
      </trkpt>
      <trkpt lat="44.20334" lon="0.73077">
        <ele>82</ele>
        <time>2017-04-30T09:01:43.000Z</time>
      </trkpt>
      <trkpt lat="44.20338" lon="0.73076">
        <ele>82</ele>
        <time>2017-04-30T09:01:44.000Z</time>
      </trkpt>
      <trkpt lat="44.20342" lon="0.73074">
        <ele>82</ele>
        <time>2017-04-30T09:01:45.000Z</time>
      </trkpt>
      <trkpt lat="44.20346" lon="0.73072">
        <ele>82</ele>
        <time>2017-04-30T09:01:46.000Z</time>
      </trkpt>
      <trkpt lat="44.2035" lon="0.73071">
        <ele>83</ele>
        <time>2017-04-30T09:01:47.000Z</time>
      </trkpt>
      <trkpt lat="44.20353" lon="0.73069">
        <ele>83</ele>
        <time>2017-04-30T09:01:48.000Z</time>
      </trkpt>
      <trkpt lat="44.20357" lon="0.73068">
        <ele>83</ele>
        <time>2017-04-30T09:01:49.000Z</time>
      </trkpt>
      <trkpt lat="44.2036" lon="0.73067">
        <ele>83</ele>
        <time>2017-04-30T09:01:50.000Z</time>
      </trkpt>
      <trkpt lat="44.20363" lon="0.73066">
        <ele>83</ele>
        <time>2017-04-30T09:01:51.000Z</time>
      </trkpt>
      <trkpt lat="44.20366" lon="0.73065">
        <ele>84</ele>
        <time>2017-04-30T09:01:52.000Z</time>
      </trkpt>
      <trkpt lat="44.20369" lon="0.73064">
        <ele>84</ele>
        <time>2017-04-30T09:01:53.000Z</time>
      </trkpt>
      <trkpt lat="44.20372" lon="0.73063">
        <ele>85</ele>
        <time>2017-04-30T09:01:54.000Z</time>
      </trkpt>
      <trkpt lat="44.20374" lon="0.73062">
        <ele>85</ele>
        <time>2017-04-30T09:01:55.000Z</time>
      </trkpt>
      <trkpt lat="44.20377" lon="0.73061">
        <ele>85</ele>
        <time>2017-04-30T09:01:56.000Z</time>
      </trkpt>
      <trkpt lat="44.20379" lon="0.7306">
        <ele>86</ele>
        <time>2017-04-30T09:01:57.000Z</time>
      </trkpt>
      <trkpt lat="44.20382" lon="0.7306">
        <ele>86</ele>
        <time>2017-04-30T09:01:58.000Z</time>
      </trkpt>
      <trkpt lat="44.20384" lon="0.73059">
        <ele>86</ele>
        <time>2017-04-30T09:01:59.000Z</time>
      </trkpt>
      <trkpt lat="44.20386" lon="0.73058">
        <ele>86</ele>
        <time>2017-04-30T09:02:00.000Z</time>
      </trkpt>
      <trkpt lat="44.20389" lon="0.73057">
        <ele>87</ele>
        <time>2017-04-30T09:02:01.000Z</time>
      </trkpt>
      <trkpt lat="44.20391" lon="0.73056">
        <ele>87</ele>
        <time>2017-04-30T09:02:02.000Z</time>
      </trkpt>
      <trkpt lat="44.20393" lon="0.73056">
        <ele>87</ele>
        <time>2017-04-30T09:02:03.000Z</time>
      </trkpt>
      <trkpt lat="44.20395" lon="0.73055">
        <ele>88</ele>
        <time>2017-04-30T09:02:04.000Z</time>
      </trkpt>
      <trkpt lat="44.20397" lon="0.73054">
        <ele>88</ele>
        <time>2017-04-30T09:02:05.000Z</time>
      </trkpt>
      <trkpt lat="44.20399" lon="0.73054">
        <ele>88</ele>
        <time>2017-04-30T09:02:06.000Z</time>
      </trkpt>
      <trkpt lat="44.20401" lon="0.73053">
        <ele>88</ele>
        <time>2017-04-30T09:02:07.000Z</time>
      </trkpt>
      <trkpt lat="44.20403" lon="0.73052">
        <ele>89</ele>
        <time>2017-04-30T09:02:08.000Z</time>
      </trkpt>
      <trkpt lat="44.20405" lon="0.73052">
        <ele>89</ele>
        <time>2017-04-30T09:02:09.000Z</time>
      </trkpt>
      <trkpt lat="44.20407" lon="0.73051">
        <ele>89</ele>
        <time>2017-04-30T09:02:10.000Z</time>
      </trkpt>
      <trkpt lat="44.20408" lon="0.7305">
        <ele>89</ele>
        <time>2017-04-30T09:02:11.000Z</time>
      </trkpt>
      <trkpt lat="44.2041" lon="0.7305">
        <ele>90</ele>
        <time>2017-04-30T09:02:12.000Z</time>
      </trkpt>
      <trkpt lat="44.20412" lon="0.73049">
        <ele>90</ele>
        <time>2017-04-30T09:02:13.000Z</time>
      </trkpt>
      <trkpt lat="44.20414" lon="0.73048">
        <ele>90</ele>
        <time>2017-04-30T09:02:14.000Z</time>
      </trkpt>
      <trkpt lat="44.20416" lon="0.73048">
        <ele>90</ele>
        <time>2017-04-30T09:02:15.000Z</time>
      </trkpt>
      <trkpt lat="44.20418" lon="0.73047">
        <ele>90</ele>
        <time>2017-04-30T09:02:16.000Z</time>
      </trkpt>
      <trkpt lat="44.20419" lon="0.73046">
        <ele>91</ele>
        <time>2017-04-30T09:02:17.000Z</time>
      </trkpt>
      <trkpt lat="44.20421" lon="0.73046">
        <ele>91</ele>
        <time>2017-04-30T09:02:18.000Z</time>
      </trkpt>
      <trkpt lat="44.20423" lon="0.73045">
        <ele>91</ele>
        <time>2017-04-30T09:02:19.000Z</time>
      </trkpt>
      <trkpt lat="44.20425" lon="0.73045">
        <ele>91</ele>
        <time>2017-04-30T09:02:20.000Z</time>
      </trkpt>
      <trkpt lat="44.20427" lon="0.73044">
        <ele>92</ele>
        <time>2017-04-30T09:02:21.000Z</time>
      </trkpt>
      <trkpt lat="44.20428" lon="0.73044">
        <ele>92</ele>
        <time>2017-04-30T09:02:22.000Z</time>
      </trkpt>
      <trkpt lat="44.2043" lon="0.73043">
        <ele>92</ele>
        <time>2017-04-30T09:02:23.000Z</time>
      </trkpt>
      <trkpt lat="44.20432" lon="0.73042">
        <ele>92</ele>
        <time>2017-04-30T09:02:24.000Z</time>
      </trkpt>
      <trkpt lat="44.20434" lon="0.73041">
        <ele>92</ele>
        <time>2017-04-30T09:02:25.000Z</time>
      </trkpt>
      <trkpt lat="44.20436" lon="0.7304">
        <ele>93</ele>
        <time>2017-04-30T09:02:26.000Z</time>
      </trkpt>
      <trkpt lat="44.20438" lon="0.7304">
        <ele>93</ele>
        <time>2017-04-30T09:02:27.000Z</time>
      </trkpt>
      <trkpt lat="44.2044" lon="0.73039">
        <ele>93</ele>
        <time>2017-04-30T09:02:28.000Z</time>
      </trkpt>
      <trkpt lat="44.20442" lon="0.73038">
        <ele>93</ele>
        <time>2017-04-30T09:02:29.000Z</time>
      </trkpt>
      <trkpt lat="44.20444" lon="0.73037">
        <ele>93</ele>
        <time>2017-04-30T09:02:30.000Z</time>
      </trkpt>
      <trkpt lat="44.20445" lon="0.73037">
        <ele>94</ele>
        <time>2017-04-30T09:02:31.000Z</time>
      </trkpt>
      <trkpt lat="44.20447" lon="0.73036">
        <ele>94</ele>
        <time>2017-04-30T09:02:32.000Z</time>
      </trkpt>
      <trkpt lat="44.20449" lon="0.73035">
        <ele>94</ele>
        <time>2017-04-30T09:02:33.000Z</time>
      </trkpt>
      <trkpt lat="44.20451" lon="0.73034">
        <ele>94</ele>
        <time>2017-04-30T09:02:34.000Z</time>
      </trkpt>
      <trkpt lat="44.20453" lon="0.73033">
        <ele>94</ele>
        <time>2017-04-30T09:02:35.000Z</time>
      </trkpt>
      <trkpt lat="44.20455" lon="0.73033">
        <ele>95</ele>
        <time>2017-04-30T09:02:36.000Z</time>
      </trkpt>
      <trkpt lat="44.20457" lon="0.73032">
        <ele>95</ele>
        <time>2017-04-30T09:02:37.000Z</time>
      </trkpt>
      <trkpt lat="44.20458" lon="0.73032">
        <ele>95</ele>
        <time>2017-04-30T09:02:38.000Z</time>
      </trkpt>
      <trkpt lat="44.2046" lon="0.73031">
        <ele>95</ele>
        <time>2017-04-30T09:02:39.000Z</time>
      </trkpt>
      <trkpt lat="44.20462" lon="0.7303">
        <ele>95</ele>
        <time>2017-04-30T09:02:40.000Z</time>
      </trkpt>
      <trkpt lat="44.20463" lon="0.7303">
        <ele>96</ele>
        <time>2017-04-30T09:02:41.000Z</time>
      </trkpt>
      <trkpt lat="44.20465" lon="0.73029">
        <ele>96</ele>
        <time>2017-04-30T09:02:42.000Z</time>
      </trkpt>
      <trkpt lat="44.20467" lon="0.73029">
        <ele>96</ele>
        <time>2017-04-30T09:02:43.000Z</time>
      </trkpt>
      <trkpt lat="44.20468" lon="0.73028">
        <ele>96</ele>
        <time>2017-04-30T09:02:44.000Z</time>
      </trkpt>
      <trkpt lat="44.2047" lon="0.73028">
        <ele>97</ele>
        <time>2017-04-30T09:02:45.000Z</time>
      </trkpt>
      <trkpt lat="44.20471" lon="0.73027">
        <ele>97</ele>
        <time>2017-04-30T09:02:46.000Z</time>
      </trkpt>
      <trkpt lat="44.20473" lon="0.73027">
        <ele>97</ele>
        <time>2017-04-30T09:02:47.000Z</time>
      </trkpt>
      <trkpt lat="44.20474" lon="0.73026">
        <ele>98</ele>
        <time>2017-04-30T09:02:48.000Z</time>
      </trkpt>
      <trkpt lat="44.20476" lon="0.73026">
        <ele>98</ele>
        <time>2017-04-30T09:02:49.000Z</time>
      </trkpt>
      <trkpt lat="44.20477" lon="0.73025">
        <ele>98</ele>
        <time>2017-04-30T09:02:50.000Z</time>
      </trkpt>
      <trkpt lat="44.20479" lon="0.73025">
        <ele>98</ele>
        <time>2017-04-30T09:02:51.000Z</time>
      </trkpt>
      <trkpt lat="44.20481" lon="0.73024">
        <ele>98</ele>
        <time>2017-04-30T09:02:52.000Z</time>
      </trkpt>
      <trkpt lat="44.20482" lon="0.73023">
        <ele>99</ele>
        <time>2017-04-30T09:02:53.000Z</time>
      </trkpt>
      <trkpt lat="44.20484" lon="0.73023">
        <ele>99</ele>
        <time>2017-04-30T09:02:54.000Z</time>
      </trkpt>
      <trkpt lat="44.20485" lon="0.73022">
        <ele>99</ele>
        <time>2017-04-30T09:02:55.000Z</time>
      </trkpt>
      <trkpt lat="44.20486" lon="0.73021">
        <ele>99</ele>
        <time>2017-04-30T09:02:56.000Z</time>
      </trkpt>
      <trkpt lat="44.20488" lon="0.7302">
        <ele>99</ele>
        <time>2017-04-30T09:02:57.000Z</time>
      </trkpt>
      <trkpt lat="44.20489" lon="0.7302">
        <ele>100</ele>
        <time>2017-04-30T09:02:58.000Z</time>
      </trkpt>
      <trkpt lat="44.20491" lon="0.73019">
        <ele>100</ele>
        <time>2017-04-30T09:02:59.000Z</time>
      </trkpt>
      <trkpt lat="44.20492" lon="0.73019">
        <ele>100</ele>
        <time>2017-04-30T09:03:00.000Z</time>
      </trkpt>
      <trkpt lat="44.20494" lon="0.73018">
        <ele>100</ele>
        <time>2017-04-30T09:03:01.000Z</time>
      </trkpt>
      <trkpt lat="44.20495" lon="0.73018">
        <ele>100</ele>
        <time>2017-04-30T09:03:02.000Z</time>
      </trkpt>
      <trkpt lat="44.20497" lon="0.73018">
        <ele>100</ele>
        <time>2017-04-30T09:03:03.000Z</time>
      </trkpt>
      <trkpt lat="44.20498" lon="0.73017">
        <ele>101</ele>
        <time>2017-04-30T09:03:04.000Z</time>
      </trkpt>
      <trkpt lat="44.205" lon="0.73017">
        <ele>101</ele>
        <time>2017-04-30T09:03:05.000Z</time>
      </trkpt>
      <trkpt lat="44.20501" lon="0.73016">
        <ele>101</ele>
        <time>2017-04-30T09:03:06.000Z</time>
      </trkpt>
      <trkpt lat="44.20502" lon="0.73015">
        <ele>102</ele>
        <time>2017-04-30T09:03:07.000Z</time>
      </trkpt>
      <trkpt lat="44.20504" lon="0.73015">
        <ele>102</ele>
        <time>2017-04-30T09:03:08.000Z</time>
      </trkpt>
      <trkpt lat="44.20505" lon="0.73014">
        <ele>102</ele>
        <time>2017-04-30T09:03:09.000Z</time>
      </trkpt>
      <trkpt lat="44.20506" lon="0.73013">
        <ele>102</ele>
        <time>2017-04-30T09:03:10.000Z</time>
      </trkpt>
      <trkpt lat="44.20507" lon="0.73013">
        <ele>103</ele>
        <time>2017-04-30T09:03:11.000Z</time>
      </trkpt>
      <trkpt lat="44.20509" lon="0.73012">
        <ele>103</ele>
        <time>2017-04-30T09:03:12.000Z</time>
      </trkpt>
      <trkpt lat="44.2051" lon="0.73012">
        <ele>103</ele>
        <time>2017-04-30T09:03:13.000Z</time>
      </trkpt>
      <trkpt lat="44.20511" lon="0.73012">
        <ele>103</ele>
        <time>2017-04-30T09:03:14.000Z</time>
      </trkpt>
      <trkpt lat="44.20513" lon="0.73012">
        <ele>103</ele>
        <time>2017-04-30T09:03:15.000Z</time>
      </trkpt>
      <trkpt lat="44.20514" lon="0.73012">
        <ele>104</ele>
        <time>2017-04-30T09:03:16.000Z</time>
      </trkpt>
      <trkpt lat="44.20515" lon="0.73011">
        <ele>104</ele>
        <time>2017-04-30T09:03:17.000Z</time>
      </trkpt>
      <trkpt lat="44.20516" lon="0.73012">
        <ele>103</ele>
        <time>2017-04-30T09:03:18.000Z</time>
      </trkpt>
      <trkpt lat="44.20517" lon="0.73012">
        <ele>104</ele>
        <time>2017-04-30T09:03:19.000Z</time>
      </trkpt>
      <trkpt lat="44.20519" lon="0.73012">
        <ele>104</ele>
        <time>2017-04-30T09:03:20.000Z</time>
      </trkpt>
      <trkpt lat="44.2052" lon="0.73012">
        <ele>104</ele>
        <time>2017-04-30T09:03:21.000Z</time>
      </trkpt>
      <trkpt lat="44.20521" lon="0.73012">
        <ele>105</ele>
        <time>2017-04-30T09:03:22.000Z</time>
      </trkpt>
      <trkpt lat="44.20522" lon="0.73012">
        <ele>105</ele>
        <time>2017-04-30T09:03:23.000Z</time>
      </trkpt>
      <trkpt lat="44.20523" lon="0.73012">
        <ele>105</ele>
        <time>2017-04-30T09:03:24.000Z</time>
      </trkpt>
      <trkpt lat="44.20525" lon="0.73012">
        <ele>105</ele>
        <time>2017-04-30T09:03:25.000Z</time>
      </trkpt>
      <trkpt lat="44.20526" lon="0.73012">
        <ele>106</ele>
        <time>2017-04-30T09:03:26.000Z</time>
      </trkpt>
      <trkpt lat="44.20528" lon="0.73012">
        <ele>106</ele>
        <time>2017-04-30T09:03:27.000Z</time>
      </trkpt>
      <trkpt lat="44.20529" lon="0.73012">
        <ele>106</ele>
        <time>2017-04-30T09:03:28.000Z</time>
      </trkpt>
      <trkpt lat="44.2053" lon="0.73011">
        <ele>106</ele>
        <time>2017-04-30T09:03:29.000Z</time>
      </trkpt>
      <trkpt lat="44.20532" lon="0.73011">
        <ele>106</ele>
        <time>2017-04-30T09:03:30.000Z</time>
      </trkpt>
      <trkpt lat="44.20533" lon="0.73011">
        <ele>106</ele>
        <time>2017-04-30T09:03:31.000Z</time>
      </trkpt>
      <trkpt lat="44.20534" lon="0.73011">
        <ele>107</ele>
        <time>2017-04-30T09:03:32.000Z</time>
      </trkpt>
      <trkpt lat="44.20536" lon="0.73011">
        <ele>107</ele>
        <time>2017-04-30T09:03:33.000Z</time>
      </trkpt>
      <trkpt lat="44.20537" lon="0.73011">
        <ele>107</ele>
        <time>2017-04-30T09:03:34.000Z</time>
      </trkpt>
      <trkpt lat="44.20538" lon="0.73011">
        <ele>107</ele>
        <time>2017-04-30T09:03:35.000Z</time>
      </trkpt>
      <trkpt lat="44.2054" lon="0.73011">
        <ele>107</ele>
        <time>2017-04-30T09:03:36.000Z</time>
      </trkpt>
      <trkpt lat="44.20541" lon="0.73011">
        <ele>107</ele>
        <time>2017-04-30T09:03:37.000Z</time>
      </trkpt>
      <trkpt lat="44.20542" lon="0.73011">
        <ele>107</ele>
        <time>2017-04-30T09:03:38.000Z</time>
      </trkpt>
      <trkpt lat="44.20544" lon="0.73011">
        <ele>107</ele>
        <time>2017-04-30T09:03:39.000Z</time>
      </trkpt>
      <trkpt lat="44.20545" lon="0.73011">
        <ele>108</ele>
        <time>2017-04-30T09:03:40.000Z</time>
      </trkpt>
      <trkpt lat="44.20546" lon="0.73011">
        <ele>108</ele>
        <time>2017-04-30T09:03:41.000Z</time>
      </trkpt>
      <trkpt lat="44.20547" lon="0.73011">
        <ele>108</ele>
        <time>2017-04-30T09:03:42.000Z</time>
      </trkpt>
      <trkpt lat="44.20549" lon="0.73011">
        <ele>108</ele>
        <time>2017-04-30T09:03:43.000Z</time>
      </trkpt>
      <trkpt lat="44.2055" lon="0.73011">
        <ele>108</ele>
        <time>2017-04-30T09:03:44.000Z</time>
      </trkpt>
      <trkpt lat="44.20551" lon="0.7301">
        <ele>109</ele>
        <time>2017-04-30T09:03:45.000Z</time>
      </trkpt>
      <trkpt lat="44.20552" lon="0.7301">
        <ele>109</ele>
        <time>2017-04-30T09:03:46.000Z</time>
      </trkpt>
      <trkpt lat="44.20554" lon="0.7301">
        <ele>109</ele>
        <time>2017-04-30T09:03:47.000Z</time>
      </trkpt>
      <trkpt lat="44.20555" lon="0.7301">
        <ele>109</ele>
        <time>2017-04-30T09:03:48.000Z</time>
      </trkpt>
      <trkpt lat="44.20556" lon="0.7301">
        <ele>109</ele>
        <time>2017-04-30T09:03:49.000Z</time>
      </trkpt>
      <trkpt lat="44.20557" lon="0.7301">
        <ele>109</ele>
        <time>2017-04-30T09:03:50.000Z</time>
      </trkpt>
      <trkpt lat="44.20559" lon="0.7301">
        <ele>110</ele>
        <time>2017-04-30T09:03:51.000Z</time>
      </trkpt>
      <trkpt lat="44.2056" lon="0.7301">
        <ele>110</ele>
        <time>2017-04-30T09:03:52.000Z</time>
      </trkpt>
      <trkpt lat="44.20561" lon="0.73009">
        <ele>110</ele>
        <time>2017-04-30T09:03:53.000Z</time>
      </trkpt>
      <trkpt lat="44.20562" lon="0.73009">
        <ele>110</ele>
        <time>2017-04-30T09:03:54.000Z</time>
      </trkpt>
      <trkpt lat="44.20563" lon="0.73009">
        <ele>110</ele>
        <time>2017-04-30T09:03:55.000Z</time>
      </trkpt>
      <trkpt lat="44.20564" lon="0.73009">
        <ele>111</ele>
        <time>2017-04-30T09:03:56.000Z</time>
      </trkpt>
      <trkpt lat="44.20566" lon="0.73009">
        <ele>111</ele>
        <time>2017-04-30T09:03:57.000Z</time>
      </trkpt>
      <trkpt lat="44.20567" lon="0.73009">
        <ele>111</ele>
        <time>2017-04-30T09:03:58.000Z</time>
      </trkpt>
      <trkpt lat="44.20569" lon="0.73009">
        <ele>111</ele>
        <time>2017-04-30T09:03:59.000Z</time>
      </trkpt>
      <trkpt lat="44.2057" lon="0.73009">
        <ele>111</ele>
        <time>2017-04-30T09:04:00.000Z</time>
      </trkpt>
      <trkpt lat="44.20571" lon="0.73009">
        <ele>112</ele>
        <time>2017-04-30T09:04:01.000Z</time>
      </trkpt>
      <trkpt lat="44.20572" lon="0.73009">
        <ele>112</ele>
        <time>2017-04-30T09:04:02.000Z</time>
      </trkpt>
      <trkpt lat="44.20573" lon="0.73009">
        <ele>112</ele>
        <time>2017-04-30T09:04:03.000Z</time>
      </trkpt>
      <trkpt lat="44.20574" lon="0.73008">
        <ele>112</ele>
        <time>2017-04-30T09:04:04.000Z</time>
      </trkpt>
      <trkpt lat="44.20575" lon="0.73008">
        <ele>113</ele>
        <time>2017-04-30T09:04:05.000Z</time>
      </trkpt>
      <trkpt lat="44.20577" lon="0.73008">
        <ele>113</ele>
        <time>2017-04-30T09:04:06.000Z</time>
      </trkpt>
      <trkpt lat="44.20578" lon="0.73008">
        <ele>113</ele>
        <time>2017-04-30T09:04:07.000Z</time>
      </trkpt>
      <trkpt lat="44.20579" lon="0.73008">
        <ele>113</ele>
        <time>2017-04-30T09:04:08.000Z</time>
      </trkpt>
      <trkpt lat="44.2058" lon="0.73008">
        <ele>113</ele>
        <time>2017-04-30T09:04:09.000Z</time>
      </trkpt>
      <trkpt lat="44.20582" lon="0.73008">
        <ele>113</ele>
        <time>2017-04-30T09:04:10.000Z</time>
      </trkpt>
      <trkpt lat="44.20583" lon="0.73008">
        <ele>114</ele>
        <time>2017-04-30T09:04:11.000Z</time>
      </trkpt>
      <trkpt lat="44.20584" lon="0.73007">
        <ele>114</ele>
        <time>2017-04-30T09:04:12.000Z</time>
      </trkpt>
      <trkpt lat="44.20586" lon="0.73007">
        <ele>114</ele>
        <time>2017-04-30T09:04:13.000Z</time>
      </trkpt>
      <trkpt lat="44.20587" lon="0.73007">
        <ele>114</ele>
        <time>2017-04-30T09:04:14.000Z</time>
      </trkpt>
      <trkpt lat="44.20588" lon="0.73007">
        <ele>114</ele>
        <time>2017-04-30T09:04:15.000Z</time>
      </trkpt>
      <trkpt lat="44.2059" lon="0.73007">
        <ele>115</ele>
        <time>2017-04-30T09:04:16.000Z</time>
      </trkpt>
      <trkpt lat="44.20591" lon="0.73007">
        <ele>115</ele>
        <time>2017-04-30T09:04:17.000Z</time>
      </trkpt>
      <trkpt lat="44.20592" lon="0.73007">
        <ele>115</ele>
        <time>2017-04-30T09:04:18.000Z</time>
      </trkpt>
      <trkpt lat="44.20593" lon="0.73007">
        <ele>115</ele>
        <time>2017-04-30T09:04:19.000Z</time>
      </trkpt>
      <trkpt lat="44.20594" lon="0.73007">
        <ele>115</ele>
        <time>2017-04-30T09:04:20.000Z</time>
      </trkpt>
      <trkpt lat="44.20596" lon="0.73007">
        <ele>115</ele>
        <time>2017-04-30T09:04:21.000Z</time>
      </trkpt>
      <trkpt lat="44.20597" lon="0.73007">
        <ele>116</ele>
        <time>2017-04-30T09:04:22.000Z</time>
      </trkpt>
      <trkpt lat="44.20598" lon="0.73007">
        <ele>116</ele>
        <time>2017-04-30T09:04:23.000Z</time>
      </trkpt>
      <trkpt lat="44.20599" lon="0.73007">
        <ele>116</ele>
        <time>2017-04-30T09:04:24.000Z</time>
      </trkpt>
      <trkpt lat="44.206" lon="0.73007">
        <ele>116</ele>
        <time>2017-04-30T09:04:25.000Z</time>
      </trkpt>
      <trkpt lat="44.20601" lon="0.73007">
        <ele>116</ele>
        <time>2017-04-30T09:04:26.000Z</time>
      </trkpt>
      <trkpt lat="44.20603" lon="0.73007">
        <ele>117</ele>
        <time>2017-04-30T09:04:27.000Z</time>
      </trkpt>
      <trkpt lat="44.20604" lon="0.73007">
        <ele>117</ele>
        <time>2017-04-30T09:04:28.000Z</time>
      </trkpt>
      <trkpt lat="44.20605" lon="0.73007">
        <ele>117</ele>
        <time>2017-04-30T09:04:29.000Z</time>
      </trkpt>
      <trkpt lat="44.20606" lon="0.73007">
        <ele>117</ele>
        <time>2017-04-30T09:04:30.000Z</time>
      </trkpt>
      <trkpt lat="44.20607" lon="0.73007">
        <ele>117</ele>
        <time>2017-04-30T09:04:31.000Z</time>
      </trkpt>
      <trkpt lat="44.20608" lon="0.73007">
        <ele>118</ele>
        <time>2017-04-30T09:04:32.000Z</time>
      </trkpt>
      <trkpt lat="44.2061" lon="0.73007">
        <ele>118</ele>
        <time>2017-04-30T09:04:33.000Z</time>
      </trkpt>
      <trkpt lat="44.20611" lon="0.73007">
        <ele>118</ele>
        <time>2017-04-30T09:04:34.000Z</time>
      </trkpt>
      <trkpt lat="44.20612" lon="0.73007">
        <ele>118</ele>
        <time>2017-04-30T09:04:35.000Z</time>
      </trkpt>
      <trkpt lat="44.20613" lon="0.73007">
        <ele>119</ele>
        <time>2017-04-30T09:04:36.000Z</time>
      </trkpt>
      <trkpt lat="44.20614" lon="0.73007">
        <ele>119</ele>
        <time>2017-04-30T09:04:37.000Z</time>
      </trkpt>
      <trkpt lat="44.20615" lon="0.73007">
        <ele>119</ele>
        <time>2017-04-30T09:04:38.000Z</time>
      </trkpt>
      <trkpt lat="44.20616" lon="0.73007">
        <ele>119</ele>
        <time>2017-04-30T09:04:39.000Z</time>
      </trkpt>
      <trkpt lat="44.20617" lon="0.73007">
        <ele>120</ele>
        <time>2017-04-30T09:04:40.000Z</time>
      </trkpt>
      <trkpt lat="44.20618" lon="0.73007">
        <ele>120</ele>
        <time>2017-04-30T09:04:41.000Z</time>
      </trkpt>
      <trkpt lat="44.20619" lon="0.73007">
        <ele>120</ele>
        <time>2017-04-30T09:04:42.000Z</time>
      </trkpt>
      <trkpt lat="44.2062" lon="0.73007">
        <ele>120</ele>
        <time>2017-04-30T09:04:43.000Z</time>
      </trkpt>
      <trkpt lat="44.20621" lon="0.73007">
        <ele>121</ele>
        <time>2017-04-30T09:04:44.000Z</time>
      </trkpt>
      <trkpt lat="44.20622" lon="0.73007">
        <ele>121</ele>
        <time>2017-04-30T09:04:45.000Z</time>
      </trkpt>
      <trkpt lat="44.20624" lon="0.73007">
        <ele>121</ele>
        <time>2017-04-30T09:04:46.000Z</time>
      </trkpt>
      <trkpt lat="44.20625" lon="0.73007">
        <ele>121</ele>
        <time>2017-04-30T09:04:47.000Z</time>
      </trkpt>
      <trkpt lat="44.20626" lon="0.73007">
        <ele>121</ele>
        <time>2017-04-30T09:04:48.000Z</time>
      </trkpt>
      <trkpt lat="44.20627" lon="0.73006">
        <ele>122</ele>
        <time>2017-04-30T09:04:49.000Z</time>
      </trkpt>
      <trkpt lat="44.20628" lon="0.73006">
        <ele>122</ele>
        <time>2017-04-30T09:04:50.000Z</time>
      </trkpt>
      <trkpt lat="44.20629" lon="0.73006">
        <ele>122</ele>
        <time>2017-04-30T09:04:51.000Z</time>
      </trkpt>
      <trkpt lat="44.2063" lon="0.73006">
        <ele>122</ele>
        <time>2017-04-30T09:04:52.000Z</time>
      </trkpt>
      <trkpt lat="44.20631" lon="0.73006">
        <ele>123</ele>
        <time>2017-04-30T09:04:53.000Z</time>
      </trkpt>
      <trkpt lat="44.20632" lon="0.73005">
        <ele>123</ele>
        <time>2017-04-30T09:04:54.000Z</time>
      </trkpt>
      <trkpt lat="44.20633" lon="0.73005">
        <ele>123</ele>
        <time>2017-04-30T09:04:55.000Z</time>
      </trkpt>
      <trkpt lat="44.20634" lon="0.73005">
        <ele>124</ele>
        <time>2017-04-30T09:04:56.000Z</time>
      </trkpt>
      <trkpt lat="44.20635" lon="0.73005">
        <ele>124</ele>
        <time>2017-04-30T09:04:57.000Z</time>
      </trkpt>
      <trkpt lat="44.20636" lon="0.73006">
        <ele>124</ele>
        <time>2017-04-30T09:04:58.000Z</time>
      </trkpt>
      <trkpt lat="44.20637" lon="0.73006">
        <ele>125</ele>
        <time>2017-04-30T09:04:59.000Z</time>
      </trkpt>
      <trkpt lat="44.20638" lon="0.73006">
        <ele>125</ele>
        <time>2017-04-30T09:05:00.000Z</time>
      </trkpt>
      <trkpt lat="44.20639" lon="0.73006">
        <ele>125</ele>
        <time>2017-04-30T09:05:01.000Z</time>
      </trkpt>
      <trkpt lat="44.20641" lon="0.73007">
        <ele>125</ele>
        <time>2017-04-30T09:05:02.000Z</time>
      </trkpt>
      <trkpt lat="44.20642" lon="0.73008">
        <ele>125</ele>
        <time>2017-04-30T09:05:03.000Z</time>
      </trkpt>
      <trkpt lat="44.20643" lon="0.73008">
        <ele>125</ele>
        <time>2017-04-30T09:05:04.000Z</time>
      </trkpt>
      <trkpt lat="44.20644" lon="0.73008">
        <ele>125</ele>
        <time>2017-04-30T09:05:05.000Z</time>
      </trkpt>
      <trkpt lat="44.20645" lon="0.73008">
        <ele>126</ele>
        <time>2017-04-30T09:05:06.000Z</time>
      </trkpt>
      <trkpt lat="44.20646" lon="0.73009">
        <ele>126</ele>
        <time>2017-04-30T09:05:07.000Z</time>
      </trkpt>
      <trkpt lat="44.20647" lon="0.7301">
        <ele>126</ele>
        <time>2017-04-30T09:05:08.000Z</time>
      </trkpt>
      <trkpt lat="44.20648" lon="0.7301">
        <ele>126</ele>
        <time>2017-04-30T09:05:09.000Z</time>
      </trkpt>
      <trkpt lat="44.20649" lon="0.73009">
        <ele>126</ele>
        <time>2017-04-30T09:05:10.000Z</time>
      </trkpt>
      <trkpt lat="44.2065" lon="0.73008">
        <ele>127</ele>
        <time>2017-04-30T09:05:11.000Z</time>
      </trkpt>
      <trkpt lat="44.20652" lon="0.73008">
        <ele>127</ele>
        <time>2017-04-30T09:05:12.000Z</time>
      </trkpt>
      <trkpt lat="44.20653" lon="0.73007">
        <ele>127</ele>
        <time>2017-04-30T09:05:13.000Z</time>
      </trkpt>
      <trkpt lat="44.20654" lon="0.73005">
        <ele>127</ele>
        <time>2017-04-30T09:05:14.000Z</time>
      </trkpt>
      <trkpt lat="44.20654" lon="0.73004">
        <ele>127</ele>
        <time>2017-04-30T09:05:15.000Z</time>
      </trkpt>
      <trkpt lat="44.20655" lon="0.73003">
        <ele>128</ele>
        <time>2017-04-30T09:05:16.000Z</time>
      </trkpt>
      <trkpt lat="44.20656" lon="0.73002">
        <ele>128</ele>
        <time>2017-04-30T09:05:17.000Z</time>
      </trkpt>
      <trkpt lat="44.20657" lon="0.73001">
        <ele>128</ele>
        <time>2017-04-30T09:05:18.000Z</time>
      </trkpt>
      <trkpt lat="44.20657" lon="0.72999">
        <ele>129</ele>
        <time>2017-04-30T09:05:19.000Z</time>
      </trkpt>
      <trkpt lat="44.20658" lon="0.72998">
        <ele>129</ele>
        <time>2017-04-30T09:05:20.000Z</time>
      </trkpt>
      <trkpt lat="44.20658" lon="0.72997">
        <ele>130</ele>
        <time>2017-04-30T09:05:21.000Z</time>
      </trkpt>
      <trkpt lat="44.20659" lon="0.72996">
        <ele>130</ele>
        <time>2017-04-30T09:05:22.000Z</time>
      </trkpt>
      <trkpt lat="44.20659" lon="0.72994">
        <ele>130</ele>
        <time>2017-04-30T09:05:23.000Z</time>
      </trkpt>
      <trkpt lat="44.20659" lon="0.72992">
        <ele>130</ele>
        <time>2017-04-30T09:05:24.000Z</time>
      </trkpt>
      <trkpt lat="44.20659" lon="0.72991">
        <ele>131</ele>
        <time>2017-04-30T09:05:25.000Z</time>
      </trkpt>
      <trkpt lat="44.2066" lon="0.72989">
        <ele>131</ele>
        <time>2017-04-30T09:05:26.000Z</time>
      </trkpt>
      <trkpt lat="44.2066" lon="0.72987">
        <ele>131</ele>
        <time>2017-04-30T09:05:27.000Z</time>
      </trkpt>
      <trkpt lat="44.2066" lon="0.72986">
        <ele>131</ele>
        <time>2017-04-30T09:05:28.000Z</time>
      </trkpt>
      <trkpt lat="44.2066" lon="0.72984">
        <ele>131</ele>
        <time>2017-04-30T09:05:29.000Z</time>
      </trkpt>
      <trkpt lat="44.2066" lon="0.72983">
        <ele>132</ele>
        <time>2017-04-30T09:05:30.000Z</time>
      </trkpt>
      <trkpt lat="44.20661" lon="0.72981">
        <ele>132</ele>
        <time>2017-04-30T09:05:31.000Z</time>
      </trkpt>
      <trkpt lat="44.20661" lon="0.72979">
        <ele>131</ele>
        <time>2017-04-30T09:05:32.000Z</time>
      </trkpt>
      <trkpt lat="44.20661" lon="0.72978">
        <ele>132</ele>
        <time>2017-04-30T09:05:33.000Z</time>
      </trkpt>
      <trkpt lat="44.20661" lon="0.72976">
        <ele>133</ele>
        <time>2017-04-30T09:05:34.000Z</time>
      </trkpt>
      <trkpt lat="44.20662" lon="0.72975">
        <ele>133</ele>
        <time>2017-04-30T09:05:35.000Z</time>
      </trkpt>
      <trkpt lat="44.20662" lon="0.72973">
        <ele>133</ele>
        <time>2017-04-30T09:05:36.000Z</time>
      </trkpt>
      <trkpt lat="44.20663" lon="0.72971">
        <ele>133</ele>
        <time>2017-04-30T09:05:37.000Z</time>
      </trkpt>
      <trkpt lat="44.20663" lon="0.7297">
        <ele>133</ele>
        <time>2017-04-30T09:05:38.000Z</time>
      </trkpt>
      <trkpt lat="44.20663" lon="0.72968">
        <ele>133</ele>
        <time>2017-04-30T09:05:39.000Z</time>
      </trkpt>
      <trkpt lat="44.20664" lon="0.72966">
        <ele>134</ele>
        <time>2017-04-30T09:05:40.000Z</time>
      </trkpt>
      <trkpt lat="44.20664" lon="0.72965">
        <ele>134</ele>
        <time>2017-04-30T09:05:41.000Z</time>
      </trkpt>
      <trkpt lat="44.20664" lon="0.72963">
        <ele>135</ele>
        <time>2017-04-30T09:05:42.000Z</time>
      </trkpt>
      <trkpt lat="44.20664" lon="0.72962">
        <ele>135</ele>
        <time>2017-04-30T09:05:43.000Z</time>
      </trkpt>
      <trkpt lat="44.20665" lon="0.7296">
        <ele>135</ele>
        <time>2017-04-30T09:05:44.000Z</time>
      </trkpt>
      <trkpt lat="44.20665" lon="0.72958">
        <ele>135</ele>
        <time>2017-04-30T09:05:45.000Z</time>
      </trkpt>
      <trkpt lat="44.20666" lon="0.72956">
        <ele>135</ele>
        <time>2017-04-30T09:05:46.000Z</time>
      </trkpt>
      <trkpt lat="44.20666" lon="0.72954">
        <ele>135</ele>
        <time>2017-04-30T09:05:47.000Z</time>
      </trkpt>
      <trkpt lat="44.20667" lon="0.72953">
        <ele>136</ele>
        <time>2017-04-30T09:05:48.000Z</time>
      </trkpt>
      <trkpt lat="44.20668" lon="0.72951">
        <ele>136</ele>
        <time>2017-04-30T09:05:49.000Z</time>
      </trkpt>
      <trkpt lat="44.20668" lon="0.72949">
        <ele>136</ele>
        <time>2017-04-30T09:05:50.000Z</time>
      </trkpt>
      <trkpt lat="44.20669" lon="0.72947">
        <ele>136</ele>
        <time>2017-04-30T09:05:51.000Z</time>
      </trkpt>
      <trkpt lat="44.20669" lon="0.72945">
        <ele>137</ele>
        <time>2017-04-30T09:05:52.000Z</time>
      </trkpt>
      <trkpt lat="44.2067" lon="0.72943">
        <ele>137</ele>
        <time>2017-04-30T09:05:53.000Z</time>
      </trkpt>
      <trkpt lat="44.20671" lon="0.72941">
        <ele>137</ele>
        <time>2017-04-30T09:05:54.000Z</time>
      </trkpt>
      <trkpt lat="44.20671" lon="0.72939">
        <ele>137</ele>
        <time>2017-04-30T09:05:55.000Z</time>
      </trkpt>
      <trkpt lat="44.20672" lon="0.72937">
        <ele>137</ele>
        <time>2017-04-30T09:05:56.000Z</time>
      </trkpt>
      <trkpt lat="44.20673" lon="0.72936">
        <ele>137</ele>
        <time>2017-04-30T09:05:57.000Z</time>
      </trkpt>
      <trkpt lat="44.20673" lon="0.72933">
        <ele>138</ele>
        <time>2017-04-30T09:05:58.000Z</time>
      </trkpt>
      <trkpt lat="44.20674" lon="0.72931">
        <ele>138</ele>
        <time>2017-04-30T09:05:59.000Z</time>
      </trkpt>
      <trkpt lat="44.20674" lon="0.72929">
        <ele>138</ele>
        <time>2017-04-30T09:06:00.000Z</time>
      </trkpt>
      <trkpt lat="44.20675" lon="0.72927">
        <ele>138</ele>
        <time>2017-04-30T09:06:01.000Z</time>
      </trkpt>
      <trkpt lat="44.20675" lon="0.72924">
        <ele>138</ele>
        <time>2017-04-30T09:06:02.000Z</time>
      </trkpt>
      <trkpt lat="44.20676" lon="0.72922">
        <ele>138</ele>
        <time>2017-04-30T09:06:03.000Z</time>
      </trkpt>
      <trkpt lat="44.20678" lon="0.72921">
        <ele>138</ele>
        <time>2017-04-30T09:06:04.000Z</time>
      </trkpt>
      <trkpt lat="44.20679" lon="0.7292">
        <ele>138</ele>
        <time>2017-04-30T09:06:05.000Z</time>
      </trkpt>
      <trkpt lat="44.2068" lon="0.72921">
        <ele>139</ele>
        <time>2017-04-30T09:06:06.000Z</time>
      </trkpt>
      <trkpt lat="44.20681" lon="0.72922">
        <ele>140</ele>
        <time>2017-04-30T09:06:07.000Z</time>
      </trkpt>
      <trkpt lat="44.20682" lon="0.72924">
        <ele>140</ele>
        <time>2017-04-30T09:06:08.000Z</time>
      </trkpt>
      <trkpt lat="44.20683" lon="0.72925">
        <ele>140</ele>
        <time>2017-04-30T09:06:09.000Z</time>
      </trkpt>
      <trkpt lat="44.20683" lon="0.72926">
        <ele>141</ele>
        <time>2017-04-30T09:06:10.000Z</time>
      </trkpt>
      <trkpt lat="44.20682" lon="0.72928">
        <ele>141</ele>
        <time>2017-04-30T09:06:11.000Z</time>
      </trkpt>
      <trkpt lat="44.20682" lon="0.72929">
        <ele>141</ele>
        <time>2017-04-30T09:06:12.000Z</time>
      </trkpt>
      <trkpt lat="44.20682" lon="0.72931">
        <ele>141</ele>
        <time>2017-04-30T09:06:13.000Z</time>
      </trkpt>
      <trkpt lat="44.20682" lon="0.72934">
        <ele>141</ele>
        <time>2017-04-30T09:06:14.000Z</time>
      </trkpt>
      <trkpt lat="44.20682" lon="0.72936">
        <ele>142</ele>
        <time>2017-04-30T09:06:15.000Z</time>
      </trkpt>
      <trkpt lat="44.20683" lon="0.72939">
        <ele>142</ele>
        <time>2017-04-30T09:06:16.000Z</time>
      </trkpt>
      <trkpt lat="44.20684" lon="0.72941">
        <ele>142</ele>
        <time>2017-04-30T09:06:17.000Z</time>
      </trkpt>
      <trkpt lat="44.20684" lon="0.72943">
        <ele>142</ele>
        <time>2017-04-30T09:06:18.000Z</time>
      </trkpt>
      <trkpt lat="44.20685" lon="0.72946">
        <ele>142</ele>
        <time>2017-04-30T09:06:19.000Z</time>
      </trkpt>
      <trkpt lat="44.20685" lon="0.72948">
        <ele>142</ele>
        <time>2017-04-30T09:06:20.000Z</time>
      </trkpt>
      <trkpt lat="44.20686" lon="0.7295">
        <ele>142</ele>
        <time>2017-04-30T09:06:21.000Z</time>
      </trkpt>
      <trkpt lat="44.20687" lon="0.72952">
        <ele>143</ele>
        <time>2017-04-30T09:06:22.000Z</time>
      </trkpt>
      <trkpt lat="44.20688" lon="0.72953">
        <ele>142</ele>
        <time>2017-04-30T09:06:23.000Z</time>
      </trkpt>
      <trkpt lat="44.20688" lon="0.72955">
        <ele>143</ele>
        <time>2017-04-30T09:06:24.000Z</time>
      </trkpt>
      <trkpt lat="44.20689" lon="0.72957">
        <ele>144</ele>
        <time>2017-04-30T09:06:25.000Z</time>
      </trkpt>
      <trkpt lat="44.2069" lon="0.72958">
        <ele>144</ele>
        <time>2017-04-30T09:06:26.000Z</time>
      </trkpt>
      <trkpt lat="44.20691" lon="0.72959">
        <ele>144</ele>
        <time>2017-04-30T09:06:27.000Z</time>
      </trkpt>
      <trkpt lat="44.20692" lon="0.72961">
        <ele>145</ele>
        <time>2017-04-30T09:06:28.000Z</time>
      </trkpt>
      <trkpt lat="44.20693" lon="0.72962">
        <ele>146</ele>
        <time>2017-04-30T09:06:29.000Z</time>
      </trkpt>
      <trkpt lat="44.20694" lon="0.72963">
        <ele>146</ele>
        <time>2017-04-30T09:06:30.000Z</time>
      </trkpt>
      <trkpt lat="44.20695" lon="0.72964">
        <ele>146</ele>
        <time>2017-04-30T09:06:31.000Z</time>
      </trkpt>
      <trkpt lat="44.20696" lon="0.72965">
        <ele>147</ele>
        <time>2017-04-30T09:06:32.000Z</time>
      </trkpt>
      <trkpt lat="44.20698" lon="0.72966">
        <ele>147</ele>
        <time>2017-04-30T09:06:33.000Z</time>
      </trkpt>
      <trkpt lat="44.20698" lon="0.72966">
        <ele>147</ele>
        <time>2017-04-30T09:06:34.000Z</time>
      </trkpt>
      <trkpt lat="44.207" lon="0.72968">
        <ele>147</ele>
        <time>2017-04-30T09:06:35.000Z</time>
      </trkpt>
      <trkpt lat="44.20702" lon="0.72969">
        <ele>147</ele>
        <time>2017-04-30T09:06:36.000Z</time>
      </trkpt>
      <trkpt lat="44.20704" lon="0.7297">
        <ele>147</ele>
        <time>2017-04-30T09:06:37.000Z</time>
      </trkpt>
      <trkpt lat="44.20706" lon="0.72971">
        <ele>146</ele>
        <time>2017-04-30T09:06:38.000Z</time>
      </trkpt>
      <trkpt lat="44.20708" lon="0.72972">
        <ele>146</ele>
        <time>2017-04-30T09:06:39.000Z</time>
      </trkpt>
      <trkpt lat="44.2071" lon="0.72973">
        <ele>146</ele>
        <time>2017-04-30T09:06:40.000Z</time>
      </trkpt>
      <trkpt lat="44.20712" lon="0.72974">
        <ele>146</ele>
        <time>2017-04-30T09:06:41.000Z</time>
      </trkpt>
      <trkpt lat="44.20713" lon="0.72975">
        <ele>147</ele>
        <time>2017-04-30T09:06:42.000Z</time>
      </trkpt>
      <trkpt lat="44.20715" lon="0.72976">
        <ele>147</ele>
        <time>2017-04-30T09:06:43.000Z</time>
      </trkpt>
      <trkpt lat="44.20716" lon="0.72976">
        <ele>147</ele>
        <time>2017-04-30T09:06:44.000Z</time>
      </trkpt>
      <trkpt lat="44.20718" lon="0.72977">
        <ele>147</ele>
        <time>2017-04-30T09:06:45.000Z</time>
      </trkpt>
      <trkpt lat="44.2072" lon="0.72978">
        <ele>147</ele>
        <time>2017-04-30T09:06:46.000Z</time>
      </trkpt>
      <trkpt lat="44.20722" lon="0.72979">
        <ele>148</ele>
        <time>2017-04-30T09:06:47.000Z</time>
      </trkpt>
      <trkpt lat="44.20724" lon="0.72979">
        <ele>147</ele>
        <time>2017-04-30T09:06:48.000Z</time>
      </trkpt>
      <trkpt lat="44.20726" lon="0.72979">
        <ele>148</ele>
        <time>2017-04-30T09:06:49.000Z</time>
      </trkpt>
      <trkpt lat="44.20727" lon="0.7298">
        <ele>148</ele>
        <time>2017-04-30T09:06:50.000Z</time>
      </trkpt>
      <trkpt lat="44.20729" lon="0.7298">
        <ele>149</ele>
        <time>2017-04-30T09:06:51.000Z</time>
      </trkpt>
      <trkpt lat="44.2073" lon="0.7298">
        <ele>149</ele>
        <time>2017-04-30T09:06:52.000Z</time>
      </trkpt>
      <trkpt lat="44.20731" lon="0.72979">
        <ele>149</ele>
        <time>2017-04-30T09:06:53.000Z</time>
      </trkpt>
      <trkpt lat="44.20733" lon="0.72979">
        <ele>149</ele>
        <time>2017-04-30T09:06:54.000Z</time>
      </trkpt>
      <trkpt lat="44.20734" lon="0.72978">
        <ele>149</ele>
        <time>2017-04-30T09:06:55.000Z</time>
      </trkpt>
      <trkpt lat="44.20735" lon="0.72977">
        <ele>149</ele>
        <time>2017-04-30T09:06:56.000Z</time>
      </trkpt>
      <trkpt lat="44.20736" lon="0.72975">
        <ele>149</ele>
        <time>2017-04-30T09:06:57.000Z</time>
      </trkpt>
      <trkpt lat="44.20737" lon="0.72974">
        <ele>150</ele>
        <time>2017-04-30T09:06:58.000Z</time>
      </trkpt>
      <trkpt lat="44.20738" lon="0.72973">
        <ele>150</ele>
        <time>2017-04-30T09:06:59.000Z</time>
      </trkpt>
      <trkpt lat="44.20739" lon="0.72972">
        <ele>150</ele>
        <time>2017-04-30T09:07:00.000Z</time>
      </trkpt>
      <trkpt lat="44.2074" lon="0.7297">
        <ele>150</ele>
        <time>2017-04-30T09:07:01.000Z</time>
      </trkpt>
      <trkpt lat="44.2074" lon="0.72969">
        <ele>151</ele>
        <time>2017-04-30T09:07:02.000Z</time>
      </trkpt>
      <trkpt lat="44.20741" lon="0.72967">
        <ele>151</ele>
        <time>2017-04-30T09:07:03.000Z</time>
      </trkpt>
      <trkpt lat="44.20742" lon="0.72966">
        <ele>151</ele>
        <time>2017-04-30T09:07:04.000Z</time>
      </trkpt>
      <trkpt lat="44.20742" lon="0.72965">
        <ele>152</ele>
        <time>2017-04-30T09:07:05.000Z</time>
      </trkpt>
      <trkpt lat="44.20743" lon="0.72963">
        <ele>152</ele>
        <time>2017-04-30T09:07:06.000Z</time>
      </trkpt>
      <trkpt lat="44.20743" lon="0.72962">
        <ele>152</ele>
        <time>2017-04-30T09:07:07.000Z</time>
      </trkpt>
      <trkpt lat="44.20744" lon="0.7296">
        <ele>152</ele>
        <time>2017-04-30T09:07:08.000Z</time>
      </trkpt>
      <trkpt lat="44.20745" lon="0.72958">
        <ele>152</ele>
        <time>2017-04-30T09:07:09.000Z</time>
      </trkpt>
      <trkpt lat="44.20745" lon="0.72957">
        <ele>152</ele>
        <time>2017-04-30T09:07:10.000Z</time>
      </trkpt>
      <trkpt lat="44.20745" lon="0.72955">
        <ele>152</ele>
        <time>2017-04-30T09:07:11.000Z</time>
      </trkpt>
      <trkpt lat="44.20746" lon="0.72953">
        <ele>152</ele>
        <time>2017-04-30T09:07:12.000Z</time>
      </trkpt>
      <trkpt lat="44.20747" lon="0.72951">
        <ele>152</ele>
        <time>2017-04-30T09:07:13.000Z</time>
      </trkpt>
      <trkpt lat="44.20747" lon="0.72949">
        <ele>153</ele>
        <time>2017-04-30T09:07:14.000Z</time>
      </trkpt>
      <trkpt lat="44.20747" lon="0.72948">
        <ele>153</ele>
        <time>2017-04-30T09:07:15.000Z</time>
      </trkpt>
      <trkpt lat="44.20748" lon="0.72946">
        <ele>153</ele>
        <time>2017-04-30T09:07:16.000Z</time>
      </trkpt>
      <trkpt lat="44.20748" lon="0.72944">
        <ele>153</ele>
        <time>2017-04-30T09:07:17.000Z</time>
      </trkpt>
      <trkpt lat="44.20749" lon="0.72943">
        <ele>153</ele>
        <time>2017-04-30T09:07:18.000Z</time>
      </trkpt>
      <trkpt lat="44.2075" lon="0.72941">
        <ele>153</ele>
        <time>2017-04-30T09:07:19.000Z</time>
      </trkpt>
      <trkpt lat="44.2075" lon="0.72939">
        <ele>153</ele>
        <time>2017-04-30T09:07:20.000Z</time>
      </trkpt>
      <trkpt lat="44.20751" lon="0.72937">
        <ele>153</ele>
        <time>2017-04-30T09:07:21.000Z</time>
      </trkpt>
      <trkpt lat="44.20751" lon="0.72935">
        <ele>153</ele>
        <time>2017-04-30T09:07:22.000Z</time>
      </trkpt>
      <trkpt lat="44.20752" lon="0.72933">
        <ele>154</ele>
        <time>2017-04-30T09:07:23.000Z</time>
      </trkpt>
      <trkpt lat="44.20753" lon="0.72931">
        <ele>154</ele>
        <time>2017-04-30T09:07:24.000Z</time>
      </trkpt>
      <trkpt lat="44.20754" lon="0.72928">
        <ele>154</ele>
        <time>2017-04-30T09:07:25.000Z</time>
      </trkpt>
      <trkpt lat="44.20755" lon="0.72925">
        <ele>154</ele>
        <time>2017-04-30T09:07:26.000Z</time>
      </trkpt>
      <trkpt lat="44.20756" lon="0.72922">
        <ele>154</ele>
        <time>2017-04-30T09:07:27.000Z</time>
      </trkpt>
      <trkpt lat="44.20756" lon="0.72919">
        <ele>154</ele>
        <time>2017-04-30T09:07:28.000Z</time>
      </trkpt>
      <trkpt lat="44.20758" lon="0.72915">
        <ele>154</ele>
        <time>2017-04-30T09:07:29.000Z</time>
      </trkpt>
      <trkpt lat="44.20759" lon="0.72912">
        <ele>154</ele>
        <time>2017-04-30T09:07:30.000Z</time>
      </trkpt>
      <trkpt lat="44.2076" lon="0.72908">
        <ele>154</ele>
        <time>2017-04-30T09:07:31.000Z</time>
      </trkpt>
      <trkpt lat="44.20761" lon="0.72905">
        <ele>155</ele>
        <time>2017-04-30T09:07:32.000Z</time>
      </trkpt>
      <trkpt lat="44.20763" lon="0.72901">
        <ele>155</ele>
        <time>2017-04-30T09:07:33.000Z</time>
      </trkpt>
      <trkpt lat="44.20764" lon="0.72898">
        <ele>155</ele>
        <time>2017-04-30T09:07:34.000Z</time>
      </trkpt>
      <trkpt lat="44.20766" lon="0.72895">
        <ele>155</ele>
        <time>2017-04-30T09:07:35.000Z</time>
      </trkpt>
      <trkpt lat="44.20767" lon="0.72891">
        <ele>155</ele>
        <time>2017-04-30T09:07:36.000Z</time>
      </trkpt>
      <trkpt lat="44.20769" lon="0.72888">
        <ele>155</ele>
        <time>2017-04-30T09:07:37.000Z</time>
      </trkpt>
      <trkpt lat="44.20771" lon="0.72885">
        <ele>155</ele>
        <time>2017-04-30T09:07:38.000Z</time>
      </trkpt>
      <trkpt lat="44.20772" lon="0.72882">
        <ele>155</ele>
        <time>2017-04-30T09:07:39.000Z</time>
      </trkpt>
      <trkpt lat="44.20774" lon="0.72879">
        <ele>155</ele>
        <time>2017-04-30T09:07:40.000Z</time>
      </trkpt>
      <trkpt lat="44.20776" lon="0.72876">
        <ele>155</ele>
        <time>2017-04-30T09:07:41.000Z</time>
      </trkpt>
      <trkpt lat="44.20778" lon="0.72872">
        <ele>155</ele>
        <time>2017-04-30T09:07:42.000Z</time>
      </trkpt>
      <trkpt lat="44.2078" lon="0.72869">
        <ele>155</ele>
        <time>2017-04-30T09:07:43.000Z</time>
      </trkpt>
      <trkpt lat="44.20781" lon="0.72866">
        <ele>155</ele>
        <time>2017-04-30T09:07:44.000Z</time>
      </trkpt>
      <trkpt lat="44.20783" lon="0.72863">
        <ele>155</ele>
        <time>2017-04-30T09:07:45.000Z</time>
      </trkpt>
      <trkpt lat="44.20785" lon="0.7286">
        <ele>155</ele>
        <time>2017-04-30T09:07:46.000Z</time>
      </trkpt>
      <trkpt lat="44.20787" lon="0.72857">
        <ele>155</ele>
        <time>2017-04-30T09:07:47.000Z</time>
      </trkpt>
      <trkpt lat="44.20789" lon="0.72854">
        <ele>155</ele>
        <time>2017-04-30T09:07:48.000Z</time>
      </trkpt>
      <trkpt lat="44.20791" lon="0.72851">
        <ele>155</ele>
        <time>2017-04-30T09:07:49.000Z</time>
      </trkpt>
      <trkpt lat="44.20793" lon="0.72848">
        <ele>155</ele>
        <time>2017-04-30T09:07:50.000Z</time>
      </trkpt>
      <trkpt lat="44.20795" lon="0.72845">
        <ele>155</ele>
        <time>2017-04-30T09:07:51.000Z</time>
      </trkpt>
      <trkpt lat="44.20797" lon="0.72842">
        <ele>155</ele>
        <time>2017-04-30T09:07:52.000Z</time>
      </trkpt>
      <trkpt lat="44.208" lon="0.72839">
        <ele>155</ele>
        <time>2017-04-30T09:07:53.000Z</time>
      </trkpt>
      <trkpt lat="44.20802" lon="0.72836">
        <ele>155</ele>
        <time>2017-04-30T09:07:54.000Z</time>
      </trkpt>
      <trkpt lat="44.20804" lon="0.72833">
        <ele>155</ele>
        <time>2017-04-30T09:07:55.000Z</time>
      </trkpt>
      <trkpt lat="44.20806" lon="0.7283">
        <ele>155</ele>
        <time>2017-04-30T09:07:56.000Z</time>
      </trkpt>
      <trkpt lat="44.20808" lon="0.72826">
        <ele>155</ele>
        <time>2017-04-30T09:07:57.000Z</time>
      </trkpt>
      <trkpt lat="44.2081" lon="0.72823">
        <ele>155</ele>
        <time>2017-04-30T09:07:58.000Z</time>
      </trkpt>
      <trkpt lat="44.20812" lon="0.72819">
        <ele>155</ele>
        <time>2017-04-30T09:07:59.000Z</time>
      </trkpt>
      <trkpt lat="44.20815" lon="0.72816">
        <ele>155</ele>
        <time>2017-04-30T09:08:00.000Z</time>
      </trkpt>
      <trkpt lat="44.20817" lon="0.72812">
        <ele>155</ele>
        <time>2017-04-30T09:08:01.000Z</time>
      </trkpt>
      <trkpt lat="44.2082" lon="0.72809">
        <ele>155</ele>
        <time>2017-04-30T09:08:02.000Z</time>
      </trkpt>
      <trkpt lat="44.20822" lon="0.72805">
        <ele>156</ele>
        <time>2017-04-30T09:08:03.000Z</time>
      </trkpt>
      <trkpt lat="44.20824" lon="0.72801">
        <ele>156</ele>
        <time>2017-04-30T09:08:04.000Z</time>
      </trkpt>
      <trkpt lat="44.20827" lon="0.72798">
        <ele>156</ele>
        <time>2017-04-30T09:08:05.000Z</time>
      </trkpt>
      <trkpt lat="44.20829" lon="0.72794">
        <ele>156</ele>
        <time>2017-04-30T09:08:06.000Z</time>
      </trkpt>
      <trkpt lat="44.20831" lon="0.72791">
        <ele>156</ele>
        <time>2017-04-30T09:08:07.000Z</time>
      </trkpt>
      <trkpt lat="44.20834" lon="0.72787">
        <ele>156</ele>
        <time>2017-04-30T09:08:08.000Z</time>
      </trkpt>
      <trkpt lat="44.20836" lon="0.72783">
        <ele>156</ele>
        <time>2017-04-30T09:08:09.000Z</time>
      </trkpt>
      <trkpt lat="44.20838" lon="0.7278">
        <ele>156</ele>
        <time>2017-04-30T09:08:10.000Z</time>
      </trkpt>
      <trkpt lat="44.20841" lon="0.72777">
        <ele>156</ele>
        <time>2017-04-30T09:08:11.000Z</time>
      </trkpt>
      <trkpt lat="44.20843" lon="0.72773">
        <ele>157</ele>
        <time>2017-04-30T09:08:12.000Z</time>
      </trkpt>
      <trkpt lat="44.20845" lon="0.7277">
        <ele>157</ele>
        <time>2017-04-30T09:08:13.000Z</time>
      </trkpt>
      <trkpt lat="44.20847" lon="0.72767">
        <ele>157</ele>
        <time>2017-04-30T09:08:14.000Z</time>
      </trkpt>
      <trkpt lat="44.20849" lon="0.72763">
        <ele>157</ele>
        <time>2017-04-30T09:08:15.000Z</time>
      </trkpt>
      <trkpt lat="44.20851" lon="0.72759">
        <ele>157</ele>
        <time>2017-04-30T09:08:16.000Z</time>
      </trkpt>
      <trkpt lat="44.20852" lon="0.72754">
        <ele>157</ele>
        <time>2017-04-30T09:08:17.000Z</time>
      </trkpt>
      <trkpt lat="44.20854" lon="0.72748">
        <ele>157</ele>
        <time>2017-04-30T09:08:18.000Z</time>
      </trkpt>
      <trkpt lat="44.20855" lon="0.72742">
        <ele>157</ele>
        <time>2017-04-30T09:08:19.000Z</time>
      </trkpt>
      <trkpt lat="44.20857" lon="0.72736">
        <ele>156</ele>
        <time>2017-04-30T09:08:20.000Z</time>
      </trkpt>
      <trkpt lat="44.20858" lon="0.7273">
        <ele>156</ele>
        <time>2017-04-30T09:08:21.000Z</time>
      </trkpt>
      <trkpt lat="44.20859" lon="0.72723">
        <ele>156</ele>
        <time>2017-04-30T09:08:22.000Z</time>
      </trkpt>
      <trkpt lat="44.2086" lon="0.72716">
        <ele>156</ele>
        <time>2017-04-30T09:08:23.000Z</time>
      </trkpt>
      <trkpt lat="44.20862" lon="0.7271">
        <ele>156</ele>
        <time>2017-04-30T09:08:24.000Z</time>
      </trkpt>
      <trkpt lat="44.20863" lon="0.72703">
        <ele>156</ele>
        <time>2017-04-30T09:08:25.000Z</time>
      </trkpt>
      <trkpt lat="44.20864" lon="0.72696">
        <ele>156</ele>
        <time>2017-04-30T09:08:26.000Z</time>
      </trkpt>
      <trkpt lat="44.20865" lon="0.72688">
        <ele>156</ele>
        <time>2017-04-30T09:08:27.000Z</time>
      </trkpt>
      <trkpt lat="44.20867" lon="0.72681">
        <ele>156</ele>
        <time>2017-04-30T09:08:28.000Z</time>
      </trkpt>
      <trkpt lat="44.20869" lon="0.72673">
        <ele>156</ele>
        <time>2017-04-30T09:08:29.000Z</time>
      </trkpt>
      <trkpt lat="44.20871" lon="0.72665">
        <ele>156</ele>
        <time>2017-04-30T09:08:30.000Z</time>
      </trkpt>
      <trkpt lat="44.20872" lon="0.72657">
        <ele>156</ele>
        <time>2017-04-30T09:08:31.000Z</time>
      </trkpt>
      <trkpt lat="44.20874" lon="0.72649">
        <ele>156</ele>
        <time>2017-04-30T09:08:32.000Z</time>
      </trkpt>
      <trkpt lat="44.20876" lon="0.72641">
        <ele>156</ele>
        <time>2017-04-30T09:08:33.000Z</time>
      </trkpt>
      <trkpt lat="44.20878" lon="0.72634">
        <ele>156</ele>
        <time>2017-04-30T09:08:34.000Z</time>
      </trkpt>
      <trkpt lat="44.2088" lon="0.72626">
        <ele>155</ele>
        <time>2017-04-30T09:08:35.000Z</time>
      </trkpt>
      <trkpt lat="44.20882" lon="0.72618">
        <ele>155</ele>
        <time>2017-04-30T09:08:36.000Z</time>
      </trkpt>
      <trkpt lat="44.20883" lon="0.72611">
        <ele>155</ele>
        <time>2017-04-30T09:08:37.000Z</time>
      </trkpt>
      <trkpt lat="44.20884" lon="0.72604">
        <ele>155</ele>
        <time>2017-04-30T09:08:38.000Z</time>
      </trkpt>
      <trkpt lat="44.20885" lon="0.72598">
        <ele>155</ele>
        <time>2017-04-30T09:08:39.000Z</time>
      </trkpt>
      <trkpt lat="44.20886" lon="0.72594">
        <ele>155</ele>
        <time>2017-04-30T09:08:40.000Z</time>
      </trkpt>
      <trkpt lat="44.20889" lon="0.72592">
        <ele>155</ele>
        <time>2017-04-30T09:08:41.000Z</time>
      </trkpt>
      <trkpt lat="44.20892" lon="0.72591">
        <ele>156</ele>
        <time>2017-04-30T09:08:42.000Z</time>
      </trkpt>
      <trkpt lat="44.20894" lon="0.72592">
        <ele>156</ele>
        <time>2017-04-30T09:08:43.000Z</time>
      </trkpt>
      <trkpt lat="44.20895" lon="0.72593">
        <ele>157</ele>
        <time>2017-04-30T09:08:44.000Z</time>
      </trkpt>
      <trkpt lat="44.20897" lon="0.72596">
        <ele>158</ele>
        <time>2017-04-30T09:08:45.000Z</time>
      </trkpt>
      <trkpt lat="44.20899" lon="0.72597">
        <ele>158</ele>
        <time>2017-04-30T09:08:46.000Z</time>
      </trkpt>
      <trkpt lat="44.20901" lon="0.72599">
        <ele>158</ele>
        <time>2017-04-30T09:08:47.000Z</time>
      </trkpt>
      <trkpt lat="44.20904" lon="0.72601">
        <ele>158</ele>
        <time>2017-04-30T09:08:48.000Z</time>
      </trkpt>
      <trkpt lat="44.20906" lon="0.72602">
        <ele>158</ele>
        <time>2017-04-30T09:08:49.000Z</time>
      </trkpt>
      <trkpt lat="44.20909" lon="0.72604">
        <ele>158</ele>
        <time>2017-04-30T09:08:50.000Z</time>
      </trkpt>
      <trkpt lat="44.20911" lon="0.72606">
        <ele>159</ele>
        <time>2017-04-30T09:08:51.000Z</time>
      </trkpt>
      <trkpt lat="44.20914" lon="0.72608">
        <ele>159</ele>
        <time>2017-04-30T09:08:52.000Z</time>
      </trkpt>
      <trkpt lat="44.20916" lon="0.72609">
        <ele>160</ele>
        <time>2017-04-30T09:08:53.000Z</time>
      </trkpt>
      <trkpt lat="44.20919" lon="0.72611">
        <ele>159</ele>
        <time>2017-04-30T09:08:54.000Z</time>
      </trkpt>
      <trkpt lat="44.20921" lon="0.72613">
        <ele>160</ele>
        <time>2017-04-30T09:08:55.000Z</time>
      </trkpt>
      <trkpt lat="44.20924" lon="0.72615">
        <ele>160</ele>
        <time>2017-04-30T09:08:56.000Z</time>
      </trkpt>
      <trkpt lat="44.20926" lon="0.72617">
        <ele>160</ele>
        <time>2017-04-30T09:08:57.000Z</time>
      </trkpt>
      <trkpt lat="44.20929" lon="0.72619">
        <ele>160</ele>
        <time>2017-04-30T09:08:58.000Z</time>
      </trkpt>
      <trkpt lat="44.20932" lon="0.72621">
        <ele>160</ele>
        <time>2017-04-30T09:08:59.000Z</time>
      </trkpt>
      <trkpt lat="44.20934" lon="0.72623">
        <ele>160</ele>
        <time>2017-04-30T09:09:00.000Z</time>
      </trkpt>
      <trkpt lat="44.20937" lon="0.72625">
        <ele>160</ele>
        <time>2017-04-30T09:09:01.000Z</time>
      </trkpt>
      <trkpt lat="44.2094" lon="0.72627">
        <ele>160</ele>
        <time>2017-04-30T09:09:02.000Z</time>
      </trkpt>
      <trkpt lat="44.20942" lon="0.72629">
        <ele>160</ele>
        <time>2017-04-30T09:09:03.000Z</time>
      </trkpt>
      <trkpt lat="44.20945" lon="0.72631">
        <ele>160</ele>
        <time>2017-04-30T09:09:04.000Z</time>
      </trkpt>
      <trkpt lat="44.20947" lon="0.72633">
        <ele>160</ele>
        <time>2017-04-30T09:09:05.000Z</time>
      </trkpt>
      <trkpt lat="44.2095" lon="0.72635">
        <ele>160</ele>
        <time>2017-04-30T09:09:06.000Z</time>
      </trkpt>
      <trkpt lat="44.20952" lon="0.72637">
        <ele>161</ele>
        <time>2017-04-30T09:09:07.000Z</time>
      </trkpt>
      <trkpt lat="44.20955" lon="0.72639">
        <ele>161</ele>
        <time>2017-04-30T09:09:08.000Z</time>
      </trkpt>
      <trkpt lat="44.20957" lon="0.72641">
        <ele>161</ele>
        <time>2017-04-30T09:09:09.000Z</time>
      </trkpt>
      <trkpt lat="44.2096" lon="0.72643">
        <ele>161</ele>
        <time>2017-04-30T09:09:10.000Z</time>
      </trkpt>
      <trkpt lat="44.20963" lon="0.72645">
        <ele>161</ele>
        <time>2017-04-30T09:09:11.000Z</time>
      </trkpt>
      <trkpt lat="44.20965" lon="0.72647">
        <ele>161</ele>
        <time>2017-04-30T09:09:12.000Z</time>
      </trkpt>
      <trkpt lat="44.20968" lon="0.72649">
        <ele>161</ele>
        <time>2017-04-30T09:09:13.000Z</time>
      </trkpt>
      <trkpt lat="44.2097" lon="0.72651">
        <ele>162</ele>
        <time>2017-04-30T09:09:14.000Z</time>
      </trkpt>
      <trkpt lat="44.20973" lon="0.72653">
        <ele>162</ele>
        <time>2017-04-30T09:09:15.000Z</time>
      </trkpt>
      <trkpt lat="44.20976" lon="0.72655">
        <ele>162</ele>
        <time>2017-04-30T09:09:16.000Z</time>
      </trkpt>
      <trkpt lat="44.20978" lon="0.72657">
        <ele>162</ele>
        <time>2017-04-30T09:09:17.000Z</time>
      </trkpt>
      <trkpt lat="44.2098" lon="0.72659">
        <ele>162</ele>
        <time>2017-04-30T09:09:18.000Z</time>
      </trkpt>
      <trkpt lat="44.20983" lon="0.72661">
        <ele>162</ele>
        <time>2017-04-30T09:09:19.000Z</time>
      </trkpt>
      <trkpt lat="44.20986" lon="0.72663">
        <ele>162</ele>
        <time>2017-04-30T09:09:20.000Z</time>
      </trkpt>
      <trkpt lat="44.20988" lon="0.72665">
        <ele>163</ele>
        <time>2017-04-30T09:09:21.000Z</time>
      </trkpt>
      <trkpt lat="44.20991" lon="0.72667">
        <ele>163</ele>
        <time>2017-04-30T09:09:22.000Z</time>
      </trkpt>
      <trkpt lat="44.20993" lon="0.72669">
        <ele>163</ele>
        <time>2017-04-30T09:09:23.000Z</time>
      </trkpt>
      <trkpt lat="44.20996" lon="0.72671">
        <ele>163</ele>
        <time>2017-04-30T09:09:24.000Z</time>
      </trkpt>
      <trkpt lat="44.20999" lon="0.72673">
        <ele>163</ele>
        <time>2017-04-30T09:09:25.000Z</time>
      </trkpt>
      <trkpt lat="44.21001" lon="0.72675">
        <ele>163</ele>
        <time>2017-04-30T09:09:26.000Z</time>
      </trkpt>
      <trkpt lat="44.21004" lon="0.72677">
        <ele>163</ele>
        <time>2017-04-30T09:09:27.000Z</time>
      </trkpt>
      <trkpt lat="44.21006" lon="0.72679">
        <ele>164</ele>
        <time>2017-04-30T09:09:28.000Z</time>
      </trkpt>
      <trkpt lat="44.21009" lon="0.72681">
        <ele>164</ele>
        <time>2017-04-30T09:09:29.000Z</time>
      </trkpt>
      <trkpt lat="44.21011" lon="0.72682">
        <ele>164</ele>
        <time>2017-04-30T09:09:30.000Z</time>
      </trkpt>
      <trkpt lat="44.21014" lon="0.72684">
        <ele>164</ele>
        <time>2017-04-30T09:09:31.000Z</time>
      </trkpt>
      <trkpt lat="44.21016" lon="0.72686">
        <ele>164</ele>
        <time>2017-04-30T09:09:32.000Z</time>
      </trkpt>
      <trkpt lat="44.21018" lon="0.72688">
        <ele>165</ele>
        <time>2017-04-30T09:09:33.000Z</time>
      </trkpt>
      <trkpt lat="44.21021" lon="0.7269">
        <ele>165</ele>
        <time>2017-04-30T09:09:34.000Z</time>
      </trkpt>
      <trkpt lat="44.21023" lon="0.72692">
        <ele>165</ele>
        <time>2017-04-30T09:09:35.000Z</time>
      </trkpt>
      <trkpt lat="44.21025" lon="0.72694">
        <ele>165</ele>
        <time>2017-04-30T09:09:36.000Z</time>
      </trkpt>
      <trkpt lat="44.21028" lon="0.72695">
        <ele>165</ele>
        <time>2017-04-30T09:09:37.000Z</time>
      </trkpt>
      <trkpt lat="44.2103" lon="0.72696">
        <ele>166</ele>
        <time>2017-04-30T09:09:38.000Z</time>
      </trkpt>
      <trkpt lat="44.21032" lon="0.72695">
        <ele>166</ele>
        <time>2017-04-30T09:09:39.000Z</time>
      </trkpt>
      <trkpt lat="44.21034" lon="0.72693">
        <ele>166</ele>
        <time>2017-04-30T09:09:40.000Z</time>
      </trkpt>
      <trkpt lat="44.21036" lon="0.72691">
        <ele>166</ele>
        <time>2017-04-30T09:09:41.000Z</time>
      </trkpt>
      <trkpt lat="44.21039" lon="0.72688">
        <ele>166</ele>
        <time>2017-04-30T09:09:42.000Z</time>
      </trkpt>
      <trkpt lat="44.21041" lon="0.72684">
        <ele>166</ele>
        <time>2017-04-30T09:09:43.000Z</time>
      </trkpt>
      <trkpt lat="44.21043" lon="0.72681">
        <ele>166</ele>
        <time>2017-04-30T09:09:44.000Z</time>
      </trkpt>
      <trkpt lat="44.21046" lon="0.72678">
        <ele>166</ele>
        <time>2017-04-30T09:09:45.000Z</time>
      </trkpt>
      <trkpt lat="44.21048" lon="0.72674">
        <ele>166</ele>
        <time>2017-04-30T09:09:46.000Z</time>
      </trkpt>
      <trkpt lat="44.2105" lon="0.72671">
        <ele>166</ele>
        <time>2017-04-30T09:09:47.000Z</time>
      </trkpt>
      <trkpt lat="44.21052" lon="0.72668">
        <ele>166</ele>
        <time>2017-04-30T09:09:48.000Z</time>
      </trkpt>
      <trkpt lat="44.21054" lon="0.72665">
        <ele>166</ele>
        <time>2017-04-30T09:09:49.000Z</time>
      </trkpt>
      <trkpt lat="44.21056" lon="0.72662">
        <ele>166</ele>
        <time>2017-04-30T09:09:50.000Z</time>
      </trkpt>
      <trkpt lat="44.21058" lon="0.72658">
        <ele>166</ele>
        <time>2017-04-30T09:09:51.000Z</time>
      </trkpt>
      <trkpt lat="44.21061" lon="0.72654">
        <ele>166</ele>
        <time>2017-04-30T09:09:52.000Z</time>
      </trkpt>
      <trkpt lat="44.21063" lon="0.72651">
        <ele>166</ele>
        <time>2017-04-30T09:09:53.000Z</time>
      </trkpt>
      <trkpt lat="44.21065" lon="0.72648">
        <ele>166</ele>
        <time>2017-04-30T09:09:54.000Z</time>
      </trkpt>
      <trkpt lat="44.21067" lon="0.72643">
        <ele>166</ele>
        <time>2017-04-30T09:09:55.000Z</time>
      </trkpt>
      <trkpt lat="44.21069" lon="0.7264">
        <ele>166</ele>
        <time>2017-04-30T09:09:56.000Z</time>
      </trkpt>
      <trkpt lat="44.21072" lon="0.72636">
        <ele>166</ele>
        <time>2017-04-30T09:09:57.000Z</time>
      </trkpt>
      <trkpt lat="44.21074" lon="0.72632">
        <ele>166</ele>
        <time>2017-04-30T09:09:58.000Z</time>
      </trkpt>
      <trkpt lat="44.21077" lon="0.72628">
        <ele>166</ele>
        <time>2017-04-30T09:09:59.000Z</time>
      </trkpt>
      <trkpt lat="44.21079" lon="0.72624">
        <ele>166</ele>
        <time>2017-04-30T09:10:00.000Z</time>
      </trkpt>
      <trkpt lat="44.21082" lon="0.7262">
        <ele>166</ele>
        <time>2017-04-30T09:10:01.000Z</time>
      </trkpt>
      <trkpt lat="44.21085" lon="0.72616">
        <ele>166</ele>
        <time>2017-04-30T09:10:02.000Z</time>
      </trkpt>
      <trkpt lat="44.21088" lon="0.72611">
        <ele>166</ele>
        <time>2017-04-30T09:10:03.000Z</time>
      </trkpt>
      <trkpt lat="44.21091" lon="0.72606">
        <ele>166</ele>
        <time>2017-04-30T09:10:04.000Z</time>
      </trkpt>
      <trkpt lat="44.21095" lon="0.72602">
        <ele>166</ele>
        <time>2017-04-30T09:10:05.000Z</time>
      </trkpt>
      <trkpt lat="44.21099" lon="0.72597">
        <ele>165</ele>
        <time>2017-04-30T09:10:06.000Z</time>
      </trkpt>
      <trkpt lat="44.21104" lon="0.72592">
        <ele>165</ele>
        <time>2017-04-30T09:10:07.000Z</time>
      </trkpt>
      <trkpt lat="44.21109" lon="0.72589">
        <ele>165</ele>
        <time>2017-04-30T09:10:08.000Z</time>
      </trkpt>
      <trkpt lat="44.21114" lon="0.72586">
        <ele>165</ele>
        <time>2017-04-30T09:10:09.000Z</time>
      </trkpt>
      <trkpt lat="44.2112" lon="0.72582">
        <ele>165</ele>
        <time>2017-04-30T09:10:10.000Z</time>
      </trkpt>
      <trkpt lat="44.21125" lon="0.7258">
        <ele>165</ele>
        <time>2017-04-30T09:10:11.000Z</time>
      </trkpt>
      <trkpt lat="44.21131" lon="0.72578">
        <ele>165</ele>
        <time>2017-04-30T09:10:12.000Z</time>
      </trkpt>
      <trkpt lat="44.21137" lon="0.72576">
        <ele>165</ele>
        <time>2017-04-30T09:10:13.000Z</time>
      </trkpt>
      <trkpt lat="44.21143" lon="0.72575">
        <ele>165</ele>
        <time>2017-04-30T09:10:14.000Z</time>
      </trkpt>
      <trkpt lat="44.21148" lon="0.72575">
        <ele>165</ele>
        <time>2017-04-30T09:10:15.000Z</time>
      </trkpt>
      <trkpt lat="44.21154" lon="0.72576">
        <ele>165</ele>
        <time>2017-04-30T09:10:16.000Z</time>
      </trkpt>
      <trkpt lat="44.21159" lon="0.72577">
        <ele>165</ele>
        <time>2017-04-30T09:10:17.000Z</time>
      </trkpt>
      <trkpt lat="44.21165" lon="0.72577">
        <ele>165</ele>
        <time>2017-04-30T09:10:18.000Z</time>
      </trkpt>
      <trkpt lat="44.21171" lon="0.72578">
        <ele>165</ele>
        <time>2017-04-30T09:10:19.000Z</time>
      </trkpt>
      <trkpt lat="44.21176" lon="0.72579">
        <ele>165</ele>
        <time>2017-04-30T09:10:20.000Z</time>
      </trkpt>
      <trkpt lat="44.21182" lon="0.7258">
        <ele>165</ele>
        <time>2017-04-30T09:10:21.000Z</time>
      </trkpt>
      <trkpt lat="44.21188" lon="0.7258">
        <ele>166</ele>
        <time>2017-04-30T09:10:22.000Z</time>
      </trkpt>
      <trkpt lat="44.21194" lon="0.72581">
        <ele>166</ele>
        <time>2017-04-30T09:10:23.000Z</time>
      </trkpt>
      <trkpt lat="44.21199" lon="0.72582">
        <ele>166</ele>
        <time>2017-04-30T09:10:24.000Z</time>
      </trkpt>
      <trkpt lat="44.21205" lon="0.72582">
        <ele>166</ele>
        <time>2017-04-30T09:10:25.000Z</time>
      </trkpt>
      <trkpt lat="44.21211" lon="0.72582">
        <ele>166</ele>
        <time>2017-04-30T09:10:26.000Z</time>
      </trkpt>
      <trkpt lat="44.21217" lon="0.72582">
        <ele>166</ele>
        <time>2017-04-30T09:10:27.000Z</time>
      </trkpt>
      <trkpt lat="44.21223" lon="0.72582">
        <ele>166</ele>
        <time>2017-04-30T09:10:28.000Z</time>
      </trkpt>
      <trkpt lat="44.21228" lon="0.72582">
        <ele>166</ele>
        <time>2017-04-30T09:10:29.000Z</time>
      </trkpt>
      <trkpt lat="44.21234" lon="0.72582">
        <ele>166</ele>
        <time>2017-04-30T09:10:30.000Z</time>
      </trkpt>
      <trkpt lat="44.21239" lon="0.72583">
        <ele>167</ele>
        <time>2017-04-30T09:10:31.000Z</time>
      </trkpt>
      <trkpt lat="44.21244" lon="0.72582">
        <ele>167</ele>
        <time>2017-04-30T09:10:32.000Z</time>
      </trkpt>
      <trkpt lat="44.21249" lon="0.72581">
        <ele>167</ele>
        <time>2017-04-30T09:10:33.000Z</time>
      </trkpt>
      <trkpt lat="44.21252" lon="0.72578">
        <ele>167</ele>
        <time>2017-04-30T09:10:34.000Z</time>
      </trkpt>
      <trkpt lat="44.21254" lon="0.72574">
        <ele>168</ele>
        <time>2017-04-30T09:10:35.000Z</time>
      </trkpt>
      <trkpt lat="44.21253" lon="0.72571">
        <ele>168</ele>
        <time>2017-04-30T09:10:36.000Z</time>
      </trkpt>
      <trkpt lat="44.21252" lon="0.72567">
        <ele>168</ele>
        <time>2017-04-30T09:10:37.000Z</time>
      </trkpt>
      <trkpt lat="44.21252" lon="0.72562">
        <ele>168</ele>
        <time>2017-04-30T09:10:38.000Z</time>
      </trkpt>
      <trkpt lat="44.21252" lon="0.72558">
        <ele>168</ele>
        <time>2017-04-30T09:10:39.000Z</time>
      </trkpt>
      <trkpt lat="44.21253" lon="0.72553">
        <ele>168</ele>
        <time>2017-04-30T09:10:40.000Z</time>
      </trkpt>
      <trkpt lat="44.21254" lon="0.72548">
        <ele>168</ele>
        <time>2017-04-30T09:10:41.000Z</time>
      </trkpt>
      <trkpt lat="44.21255" lon="0.72543">
        <ele>168</ele>
        <time>2017-04-30T09:10:42.000Z</time>
      </trkpt>
      <trkpt lat="44.21256" lon="0.72537">
        <ele>168</ele>
        <time>2017-04-30T09:10:43.000Z</time>
      </trkpt>
      <trkpt lat="44.21257" lon="0.72531">
        <ele>168</ele>
        <time>2017-04-30T09:10:44.000Z</time>
      </trkpt>
      <trkpt lat="44.21258" lon="0.72525">
        <ele>168</ele>
        <time>2017-04-30T09:10:45.000Z</time>
      </trkpt>
      <trkpt lat="44.21259" lon="0.7252">
        <ele>167</ele>
        <time>2017-04-30T09:10:46.000Z</time>
      </trkpt>
      <trkpt lat="44.2126" lon="0.72514">
        <ele>167</ele>
        <time>2017-04-30T09:10:47.000Z</time>
      </trkpt>
      <trkpt lat="44.21261" lon="0.72508">
        <ele>167</ele>
        <time>2017-04-30T09:10:48.000Z</time>
      </trkpt>
      <trkpt lat="44.21263" lon="0.72502">
        <ele>167</ele>
        <time>2017-04-30T09:10:49.000Z</time>
      </trkpt>
      <trkpt lat="44.21263" lon="0.72496">
        <ele>167</ele>
        <time>2017-04-30T09:10:50.000Z</time>
      </trkpt>
      <trkpt lat="44.21263" lon="0.7249">
        <ele>166</ele>
        <time>2017-04-30T09:10:51.000Z</time>
      </trkpt>
      <trkpt lat="44.21262" lon="0.72483">
        <ele>166</ele>
        <time>2017-04-30T09:10:52.000Z</time>
      </trkpt>
      <trkpt lat="44.21263" lon="0.72477">
        <ele>166</ele>
        <time>2017-04-30T09:10:53.000Z</time>
      </trkpt>
      <trkpt lat="44.21264" lon="0.72471">
        <ele>166</ele>
        <time>2017-04-30T09:10:54.000Z</time>
      </trkpt>
      <trkpt lat="44.21266" lon="0.72464">
        <ele>166</ele>
        <time>2017-04-30T09:10:55.000Z</time>
      </trkpt>
      <trkpt lat="44.21268" lon="0.72457">
        <ele>166</ele>
        <time>2017-04-30T09:10:56.000Z</time>
      </trkpt>
      <trkpt lat="44.2127" lon="0.7245">
        <ele>166</ele>
        <time>2017-04-30T09:10:57.000Z</time>
      </trkpt>
      <trkpt lat="44.21273" lon="0.72443">
        <ele>165</ele>
        <time>2017-04-30T09:10:58.000Z</time>
      </trkpt>
      <trkpt lat="44.21275" lon="0.72435">
        <ele>165</ele>
        <time>2017-04-30T09:10:59.000Z</time>
      </trkpt>
      <trkpt lat="44.21278" lon="0.72427">
        <ele>165</ele>
        <time>2017-04-30T09:11:00.000Z</time>
      </trkpt>
      <trkpt lat="44.21281" lon="0.7242">
        <ele>165</ele>
        <time>2017-04-30T09:11:01.000Z</time>
      </trkpt>
      <trkpt lat="44.21283" lon="0.72412">
        <ele>165</ele>
        <time>2017-04-30T09:11:02.000Z</time>
      </trkpt>
      <trkpt lat="44.21286" lon="0.72405">
        <ele>164</ele>
        <time>2017-04-30T09:11:03.000Z</time>
      </trkpt>
      <trkpt lat="44.21289" lon="0.72397">
        <ele>164</ele>
        <time>2017-04-30T09:11:04.000Z</time>
      </trkpt>
      <trkpt lat="44.21292" lon="0.72388">
        <ele>164</ele>
        <time>2017-04-30T09:11:05.000Z</time>
      </trkpt>
      <trkpt lat="44.21294" lon="0.7238">
        <ele>164</ele>
        <time>2017-04-30T09:11:06.000Z</time>
      </trkpt>
      <trkpt lat="44.21297" lon="0.72372">
        <ele>164</ele>
        <time>2017-04-30T09:11:07.000Z</time>
      </trkpt>
      <trkpt lat="44.21299" lon="0.72365">
        <ele>163</ele>
        <time>2017-04-30T09:11:08.000Z</time>
      </trkpt>
      <trkpt lat="44.21301" lon="0.72358">
        <ele>163</ele>
        <time>2017-04-30T09:11:09.000Z</time>
      </trkpt>
      <trkpt lat="44.21301" lon="0.72354">
        <ele>162</ele>
        <time>2017-04-30T09:11:10.000Z</time>
      </trkpt>
      <trkpt lat="44.21301" lon="0.72351">
        <ele>162</ele>
        <time>2017-04-30T09:11:11.000Z</time>
      </trkpt>
      <trkpt lat="44.21299" lon="0.72349">
        <ele>161</ele>
        <time>2017-04-30T09:11:12.000Z</time>
      </trkpt>
      <trkpt lat="44.21297" lon="0.72348">
        <ele>161</ele>
        <time>2017-04-30T09:11:13.000Z</time>
      </trkpt>
      <trkpt lat="44.21294" lon="0.72348">
        <ele>161</ele>
        <time>2017-04-30T09:11:14.000Z</time>
      </trkpt>
      <trkpt lat="44.21289" lon="0.72348">
        <ele>161</ele>
        <time>2017-04-30T09:11:15.000Z</time>
      </trkpt>
      <trkpt lat="44.21284" lon="0.72348">
        <ele>161</ele>
        <time>2017-04-30T09:11:16.000Z</time>
      </trkpt>
      <trkpt lat="44.21279" lon="0.72349">
        <ele>161</ele>
        <time>2017-04-30T09:11:17.000Z</time>
      </trkpt>
      <trkpt lat="44.21273" lon="0.72349">
        <ele>161</ele>
        <time>2017-04-30T09:11:18.000Z</time>
      </trkpt>
      <trkpt lat="44.21268" lon="0.72349">
        <ele>161</ele>
        <time>2017-04-30T09:11:19.000Z</time>
      </trkpt>
      <trkpt lat="44.21262" lon="0.72349">
        <ele>160</ele>
        <time>2017-04-30T09:11:20.000Z</time>
      </trkpt>
      <trkpt lat="44.21257" lon="0.72349">
        <ele>160</ele>
        <time>2017-04-30T09:11:21.000Z</time>
      </trkpt>
      <trkpt lat="44.21251" lon="0.7235">
        <ele>160</ele>
        <time>2017-04-30T09:11:22.000Z</time>
      </trkpt>
      <trkpt lat="44.21245" lon="0.72351">
        <ele>159</ele>
        <time>2017-04-30T09:11:23.000Z</time>
      </trkpt>
      <trkpt lat="44.2124" lon="0.72351">
        <ele>159</ele>
        <time>2017-04-30T09:11:24.000Z</time>
      </trkpt>
      <trkpt lat="44.21234" lon="0.72351">
        <ele>159</ele>
        <time>2017-04-30T09:11:25.000Z</time>
      </trkpt>
      <trkpt lat="44.21227" lon="0.72352">
        <ele>158</ele>
        <time>2017-04-30T09:11:26.000Z</time>
      </trkpt>
      <trkpt lat="44.21221" lon="0.72351">
        <ele>158</ele>
        <time>2017-04-30T09:11:27.000Z</time>
      </trkpt>
      <trkpt lat="44.21215" lon="0.72351">
        <ele>158</ele>
        <time>2017-04-30T09:11:28.000Z</time>
      </trkpt>
      <trkpt lat="44.21208" lon="0.72349">
        <ele>158</ele>
        <time>2017-04-30T09:11:29.000Z</time>
      </trkpt>
      <trkpt lat="44.21202" lon="0.72348">
        <ele>158</ele>
        <time>2017-04-30T09:11:30.000Z</time>
      </trkpt>
      <trkpt lat="44.21195" lon="0.72345">
        <ele>158</ele>
        <time>2017-04-30T09:11:31.000Z</time>
      </trkpt>
      <trkpt lat="44.21189" lon="0.72342">
        <ele>158</ele>
        <time>2017-04-30T09:11:32.000Z</time>
      </trkpt>
      <trkpt lat="44.21184" lon="0.72338">
        <ele>159</ele>
        <time>2017-04-30T09:11:33.000Z</time>
      </trkpt>
      <trkpt lat="44.2118" lon="0.72335">
        <ele>159</ele>
        <time>2017-04-30T09:11:34.000Z</time>
      </trkpt>
      <trkpt lat="44.21175" lon="0.72331">
        <ele>159</ele>
        <time>2017-04-30T09:11:35.000Z</time>
      </trkpt>
      <trkpt lat="44.2117" lon="0.72328">
        <ele>160</ele>
        <time>2017-04-30T09:11:36.000Z</time>
      </trkpt>
      <trkpt lat="44.21167" lon="0.72324">
        <ele>160</ele>
        <time>2017-04-30T09:11:37.000Z</time>
      </trkpt>
      <trkpt lat="44.21163" lon="0.7232">
        <ele>162</ele>
        <time>2017-04-30T09:11:38.000Z</time>
      </trkpt>
      <trkpt lat="44.21159" lon="0.72315">
        <ele>162</ele>
        <time>2017-04-30T09:11:39.000Z</time>
      </trkpt>
      <trkpt lat="44.21155" lon="0.72311">
        <ele>162</ele>
        <time>2017-04-30T09:11:40.000Z</time>
      </trkpt>
      <trkpt lat="44.21151" lon="0.72307">
        <ele>163</ele>
        <time>2017-04-30T09:11:41.000Z</time>
      </trkpt>
      <trkpt lat="44.21148" lon="0.72303">
        <ele>163</ele>
        <time>2017-04-30T09:11:42.000Z</time>
      </trkpt>
      <trkpt lat="44.21144" lon="0.72301">
        <ele>164</ele>
        <time>2017-04-30T09:11:43.000Z</time>
      </trkpt>
      <trkpt lat="44.21141" lon="0.72298">
        <ele>165</ele>
        <time>2017-04-30T09:11:44.000Z</time>
      </trkpt>
      <trkpt lat="44.21137" lon="0.72294">
        <ele>165</ele>
        <time>2017-04-30T09:11:45.000Z</time>
      </trkpt>
      <trkpt lat="44.21134" lon="0.72291">
        <ele>166</ele>
        <time>2017-04-30T09:11:46.000Z</time>
      </trkpt>
      <trkpt lat="44.21131" lon="0.72288">
        <ele>167</ele>
        <time>2017-04-30T09:11:47.000Z</time>
      </trkpt>
      <trkpt lat="44.21128" lon="0.72284">
        <ele>167</ele>
        <time>2017-04-30T09:11:48.000Z</time>
      </trkpt>
      <trkpt lat="44.21125" lon="0.72281">
        <ele>166</ele>
        <time>2017-04-30T09:11:49.000Z</time>
      </trkpt>
      <trkpt lat="44.21121" lon="0.72279">
        <ele>167</ele>
        <time>2017-04-30T09:11:50.000Z</time>
      </trkpt>
      <trkpt lat="44.21119" lon="0.72276">
        <ele>168</ele>
        <time>2017-04-30T09:11:51.000Z</time>
      </trkpt>
      <trkpt lat="44.21116" lon="0.72273">
        <ele>168</ele>
        <time>2017-04-30T09:11:52.000Z</time>
      </trkpt>
      <trkpt lat="44.21112" lon="0.72267">
        <ele>166</ele>
        <time>2017-04-30T09:11:53.000Z</time>
      </trkpt>
      <trkpt lat="44.21103" lon="0.72259">
        <ele>164</ele>
        <time>2017-04-30T09:11:54.000Z</time>
      </trkpt>
      <trkpt lat="44.21096" lon="0.72252">
        <ele>162</ele>
        <time>2017-04-30T09:11:55.000Z</time>
      </trkpt>
      <trkpt lat="44.21089" lon="0.72245">
        <ele>161</ele>
        <time>2017-04-30T09:11:56.000Z</time>
      </trkpt>
      <trkpt lat="44.21083" lon="0.7224">
        <ele>159</ele>
        <time>2017-04-30T09:11:57.000Z</time>
      </trkpt>
      <trkpt lat="44.21077" lon="0.72235">
        <ele>159</ele>
        <time>2017-04-30T09:11:58.000Z</time>
      </trkpt>
      <trkpt lat="44.21072" lon="0.7223">
        <ele>159</ele>
        <time>2017-04-30T09:11:59.000Z</time>
      </trkpt>
      <trkpt lat="44.21066" lon="0.72226">
        <ele>159</ele>
        <time>2017-04-30T09:12:00.000Z</time>
      </trkpt>
      <trkpt lat="44.2106" lon="0.72222">
        <ele>160</ele>
        <time>2017-04-30T09:12:01.000Z</time>
      </trkpt>
      <trkpt lat="44.21056" lon="0.72218">
        <ele>160</ele>
        <time>2017-04-30T09:12:02.000Z</time>
      </trkpt>
      <trkpt lat="44.21051" lon="0.72213">
        <ele>160</ele>
        <time>2017-04-30T09:12:03.000Z</time>
      </trkpt>
      <trkpt lat="44.21048" lon="0.7221">
        <ele>160</ele>
        <time>2017-04-30T09:12:04.000Z</time>
      </trkpt>
      <trkpt lat="44.21044" lon="0.72205">
        <ele>161</ele>
        <time>2017-04-30T09:12:05.000Z</time>
      </trkpt>
      <trkpt lat="44.21039" lon="0.722">
        <ele>162</ele>
        <time>2017-04-30T09:12:06.000Z</time>
      </trkpt>
      <trkpt lat="44.21034" lon="0.72195">
        <ele>163</ele>
        <time>2017-04-30T09:12:07.000Z</time>
      </trkpt>
      <trkpt lat="44.21027" lon="0.72188">
        <ele>163</ele>
        <time>2017-04-30T09:12:08.000Z</time>
      </trkpt>
      <trkpt lat="44.21023" lon="0.72182">
        <ele>162</ele>
        <time>2017-04-30T09:12:09.000Z</time>
      </trkpt>
      <trkpt lat="44.21019" lon="0.72177">
        <ele>161</ele>
        <time>2017-04-30T09:12:10.000Z</time>
      </trkpt>
      <trkpt lat="44.21015" lon="0.72172">
        <ele>161</ele>
        <time>2017-04-30T09:12:11.000Z</time>
      </trkpt>
      <trkpt lat="44.21012" lon="0.72168">
        <ele>161</ele>
        <time>2017-04-30T09:12:12.000Z</time>
      </trkpt>
      <trkpt lat="44.21007" lon="0.72162">
        <ele>160</ele>
        <time>2017-04-30T09:12:13.000Z</time>
      </trkpt>
      <trkpt lat="44.21003" lon="0.72155">
        <ele>157</ele>
        <time>2017-04-30T09:12:14.000Z</time>
      </trkpt>
      <trkpt lat="44.21003" lon="0.72146">
        <ele>155</ele>
        <time>2017-04-30T09:12:15.000Z</time>
      </trkpt>
      <trkpt lat="44.21001" lon="0.72136">
        <ele>153</ele>
        <time>2017-04-30T09:12:16.000Z</time>
      </trkpt>
      <trkpt lat="44.20999" lon="0.72127">
        <ele>153</ele>
        <time>2017-04-30T09:12:17.000Z</time>
      </trkpt>
      <trkpt lat="44.20999" lon="0.72119">
        <ele>154</ele>
        <time>2017-04-30T09:12:18.000Z</time>
      </trkpt>
      <trkpt lat="44.20998" lon="0.7211">
        <ele>155</ele>
        <time>2017-04-30T09:12:19.000Z</time>
      </trkpt>
      <trkpt lat="44.20999" lon="0.72101">
        <ele>155</ele>
        <time>2017-04-30T09:12:20.000Z</time>
      </trkpt>
      <trkpt lat="44.20999" lon="0.72092">
        <ele>156</ele>
        <time>2017-04-30T09:12:21.000Z</time>
      </trkpt>
      <trkpt lat="44.21" lon="0.72083">
        <ele>156</ele>
        <time>2017-04-30T09:12:22.000Z</time>
      </trkpt>
      <trkpt lat="44.21001" lon="0.72074">
        <ele>155</ele>
        <time>2017-04-30T09:12:23.000Z</time>
      </trkpt>
      <trkpt lat="44.21003" lon="0.72065">
        <ele>155</ele>
        <time>2017-04-30T09:12:24.000Z</time>
      </trkpt>
      <trkpt lat="44.21004" lon="0.72056">
        <ele>155</ele>
        <time>2017-04-30T09:12:25.000Z</time>
      </trkpt>
      <trkpt lat="44.21007" lon="0.72048">
        <ele>155</ele>
        <time>2017-04-30T09:12:26.000Z</time>
      </trkpt>
      <trkpt lat="44.21008" lon="0.7204">
        <ele>155</ele>
        <time>2017-04-30T09:12:27.000Z</time>
      </trkpt>
      <trkpt lat="44.21009" lon="0.72033">
        <ele>155</ele>
        <time>2017-04-30T09:12:28.000Z</time>
      </trkpt>
      <trkpt lat="44.21006" lon="0.72028">
        <ele>154</ele>
        <time>2017-04-30T09:12:29.000Z</time>
      </trkpt>
      <trkpt lat="44.21004" lon="0.72026">
        <ele>154</ele>
        <time>2017-04-30T09:12:30.000Z</time>
      </trkpt>
      <trkpt lat="44.20999" lon="0.72025">
        <ele>154</ele>
        <time>2017-04-30T09:12:31.000Z</time>
      </trkpt>
      <trkpt lat="44.20995" lon="0.72029">
        <ele>155</ele>
        <time>2017-04-30T09:12:32.000Z</time>
      </trkpt>
      <trkpt lat="44.20991" lon="0.72032">
        <ele>156</ele>
        <time>2017-04-30T09:12:33.000Z</time>
      </trkpt>
      <trkpt lat="44.20986" lon="0.72034">
        <ele>155</ele>
        <time>2017-04-30T09:12:34.000Z</time>
      </trkpt>
      <trkpt lat="44.20982" lon="0.72037">
        <ele>155</ele>
        <time>2017-04-30T09:12:35.000Z</time>
      </trkpt>
      <trkpt lat="44.20977" lon="0.72039">
        <ele>155</ele>
        <time>2017-04-30T09:12:36.000Z</time>
      </trkpt>
      <trkpt lat="44.20972" lon="0.72043">
        <ele>155</ele>
        <time>2017-04-30T09:12:37.000Z</time>
      </trkpt>
      <trkpt lat="44.20967" lon="0.72046">
        <ele>154</ele>
        <time>2017-04-30T09:12:38.000Z</time>
      </trkpt>
      <trkpt lat="44.20962" lon="0.72049">
        <ele>154</ele>
        <time>2017-04-30T09:12:39.000Z</time>
      </trkpt>
      <trkpt lat="44.20957" lon="0.72052">
        <ele>154</ele>
        <time>2017-04-30T09:12:40.000Z</time>
      </trkpt>
      <trkpt lat="44.20952" lon="0.72055">
        <ele>154</ele>
        <time>2017-04-30T09:12:41.000Z</time>
      </trkpt>
      <trkpt lat="44.20947" lon="0.72059">
        <ele>154</ele>
        <time>2017-04-30T09:12:42.000Z</time>
      </trkpt>
      <trkpt lat="44.20943" lon="0.72062">
        <ele>154</ele>
        <time>2017-04-30T09:12:43.000Z</time>
      </trkpt>
      <trkpt lat="44.20938" lon="0.72066">
        <ele>154</ele>
        <time>2017-04-30T09:12:44.000Z</time>
      </trkpt>
      <trkpt lat="44.20933" lon="0.7207">
        <ele>153</ele>
        <time>2017-04-30T09:12:45.000Z</time>
      </trkpt>
      <trkpt lat="44.20927" lon="0.72074">
        <ele>153</ele>
        <time>2017-04-30T09:12:46.000Z</time>
      </trkpt>
      <trkpt lat="44.20922" lon="0.72078">
        <ele>153</ele>
        <time>2017-04-30T09:12:47.000Z</time>
      </trkpt>
      <trkpt lat="44.20916" lon="0.72082">
        <ele>153</ele>
        <time>2017-04-30T09:12:48.000Z</time>
      </trkpt>
      <trkpt lat="44.20909" lon="0.72085">
        <ele>152</ele>
        <time>2017-04-30T09:12:49.000Z</time>
      </trkpt>
      <trkpt lat="44.20902" lon="0.72087">
        <ele>151</ele>
        <time>2017-04-30T09:12:50.000Z</time>
      </trkpt>
      <trkpt lat="44.20895" lon="0.72087">
        <ele>151</ele>
        <time>2017-04-30T09:12:51.000Z</time>
      </trkpt>
      <trkpt lat="44.20888" lon="0.72086">
        <ele>150</ele>
        <time>2017-04-30T09:12:52.000Z</time>
      </trkpt>
      <trkpt lat="44.20881" lon="0.72084">
        <ele>149</ele>
        <time>2017-04-30T09:12:53.000Z</time>
      </trkpt>
      <trkpt lat="44.20876" lon="0.7208">
        <ele>150</ele>
        <time>2017-04-30T09:12:54.000Z</time>
      </trkpt>
      <trkpt lat="44.2087" lon="0.72076">
        <ele>150</ele>
        <time>2017-04-30T09:12:55.000Z</time>
      </trkpt>
      <trkpt lat="44.20865" lon="0.72072">
        <ele>150</ele>
        <time>2017-04-30T09:12:56.000Z</time>
      </trkpt>
      <trkpt lat="44.2086" lon="0.72068">
        <ele>150</ele>
        <time>2017-04-30T09:12:57.000Z</time>
      </trkpt>
      <trkpt lat="44.20854" lon="0.72065">
        <ele>150</ele>
        <time>2017-04-30T09:12:58.000Z</time>
      </trkpt>
      <trkpt lat="44.2085" lon="0.72061">
        <ele>151</ele>
        <time>2017-04-30T09:12:59.000Z</time>
      </trkpt>
      <trkpt lat="44.20845" lon="0.72058">
        <ele>151</ele>
        <time>2017-04-30T09:13:00.000Z</time>
      </trkpt>
      <trkpt lat="44.20839" lon="0.72055">
        <ele>150</ele>
        <time>2017-04-30T09:13:01.000Z</time>
      </trkpt>
      <trkpt lat="44.20834" lon="0.72051">
        <ele>150</ele>
        <time>2017-04-30T09:13:02.000Z</time>
      </trkpt>
      <trkpt lat="44.20829" lon="0.72046">
        <ele>150</ele>
        <time>2017-04-30T09:13:03.000Z</time>
      </trkpt>
      <trkpt lat="44.20824" lon="0.72042">
        <ele>150</ele>
        <time>2017-04-30T09:13:04.000Z</time>
      </trkpt>
      <trkpt lat="44.20819" lon="0.72036">
        <ele>150</ele>
        <time>2017-04-30T09:13:05.000Z</time>
      </trkpt>
      <trkpt lat="44.20815" lon="0.72028">
        <ele>150</ele>
        <time>2017-04-30T09:13:06.000Z</time>
      </trkpt>
      <trkpt lat="44.20812" lon="0.72021">
        <ele>150</ele>
        <time>2017-04-30T09:13:07.000Z</time>
      </trkpt>
      <trkpt lat="44.20809" lon="0.72014">
        <ele>150</ele>
        <time>2017-04-30T09:13:08.000Z</time>
      </trkpt>
      <trkpt lat="44.20806" lon="0.72007">
        <ele>151</ele>
        <time>2017-04-30T09:13:09.000Z</time>
      </trkpt>
      <trkpt lat="44.20804" lon="0.71999">
        <ele>151</ele>
        <time>2017-04-30T09:13:10.000Z</time>
      </trkpt>
      <trkpt lat="44.20801" lon="0.71993">
        <ele>152</ele>
        <time>2017-04-30T09:13:11.000Z</time>
      </trkpt>
      <trkpt lat="44.20798" lon="0.71988">
        <ele>151</ele>
        <time>2017-04-30T09:13:12.000Z</time>
      </trkpt>
      <trkpt lat="44.20794" lon="0.71983">
        <ele>152</ele>
        <time>2017-04-30T09:13:13.000Z</time>
      </trkpt>
      <trkpt lat="44.20792" lon="0.71979">
        <ele>153</ele>
        <time>2017-04-30T09:13:14.000Z</time>
      </trkpt>
      <trkpt lat="44.20789" lon="0.71975">
        <ele>153</ele>
        <time>2017-04-30T09:13:15.000Z</time>
      </trkpt>
      <trkpt lat="44.20786" lon="0.71972">
        <ele>153</ele>
        <time>2017-04-30T09:13:16.000Z</time>
      </trkpt>
      <trkpt lat="44.20783" lon="0.7197">
        <ele>154</ele>
        <time>2017-04-30T09:13:17.000Z</time>
      </trkpt>
      <trkpt lat="44.20779" lon="0.71968">
        <ele>154</ele>
        <time>2017-04-30T09:13:18.000Z</time>
      </trkpt>
      <trkpt lat="44.20775" lon="0.71969">
        <ele>155</ele>
        <time>2017-04-30T09:13:19.000Z</time>
      </trkpt>
      <trkpt lat="44.2077" lon="0.71973">
        <ele>154</ele>
        <time>2017-04-30T09:13:20.000Z</time>
      </trkpt>
      <trkpt lat="44.20766" lon="0.71978">
        <ele>157</ele>
        <time>2017-04-30T09:13:21.000Z</time>
      </trkpt>
      <trkpt lat="44.20761" lon="0.7198">
        <ele>158</ele>
        <time>2017-04-30T09:13:22.000Z</time>
      </trkpt>
      <trkpt lat="44.20757" lon="0.71983">
        <ele>158</ele>
        <time>2017-04-30T09:13:23.000Z</time>
      </trkpt>
      <trkpt lat="44.20754" lon="0.71986">
        <ele>158</ele>
        <time>2017-04-30T09:13:24.000Z</time>
      </trkpt>
      <trkpt lat="44.2075" lon="0.71989">
        <ele>157</ele>
        <time>2017-04-30T09:13:25.000Z</time>
      </trkpt>
      <trkpt lat="44.20746" lon="0.7199">
        <ele>157</ele>
        <time>2017-04-30T09:13:26.000Z</time>
      </trkpt>
      <trkpt lat="44.20742" lon="0.71993">
        <ele>157</ele>
        <time>2017-04-30T09:13:27.000Z</time>
      </trkpt>
      <trkpt lat="44.20739" lon="0.71995">
        <ele>156</ele>
        <time>2017-04-30T09:13:28.000Z</time>
      </trkpt>
      <trkpt lat="44.20735" lon="0.71997">
        <ele>156</ele>
        <time>2017-04-30T09:13:29.000Z</time>
      </trkpt>
      <trkpt lat="44.20732" lon="0.72">
        <ele>157</ele>
        <time>2017-04-30T09:13:30.000Z</time>
      </trkpt>
      <trkpt lat="44.20728" lon="0.72003">
        <ele>156</ele>
        <time>2017-04-30T09:13:31.000Z</time>
      </trkpt>
      <trkpt lat="44.20724" lon="0.72006">
        <ele>156</ele>
        <time>2017-04-30T09:13:32.000Z</time>
      </trkpt>
      <trkpt lat="44.2072" lon="0.72009">
        <ele>156</ele>
        <time>2017-04-30T09:13:33.000Z</time>
      </trkpt>
      <trkpt lat="44.20717" lon="0.72011">
        <ele>156</ele>
        <time>2017-04-30T09:13:34.000Z</time>
      </trkpt>
      <trkpt lat="44.20713" lon="0.72013">
        <ele>156</ele>
        <time>2017-04-30T09:13:35.000Z</time>
      </trkpt>
      <trkpt lat="44.20709" lon="0.72012">
        <ele>157</ele>
        <time>2017-04-30T09:13:36.000Z</time>
      </trkpt>
      <trkpt lat="44.20705" lon="0.72009">
        <ele>157</ele>
        <time>2017-04-30T09:13:37.000Z</time>
      </trkpt>
      <trkpt lat="44.20702" lon="0.72004">
        <ele>158</ele>
        <time>2017-04-30T09:13:38.000Z</time>
      </trkpt>
      <trkpt lat="44.207" lon="0.71998">
        <ele>158</ele>
        <time>2017-04-30T09:13:39.000Z</time>
      </trkpt>
      <trkpt lat="44.20698" lon="0.71993">
        <ele>158</ele>
        <time>2017-04-30T09:13:40.000Z</time>
      </trkpt>
      <trkpt lat="44.20695" lon="0.71987">
        <ele>158</ele>
        <time>2017-04-30T09:13:41.000Z</time>
      </trkpt>
      <trkpt lat="44.20693" lon="0.71981">
        <ele>158</ele>
        <time>2017-04-30T09:13:42.000Z</time>
      </trkpt>
      <trkpt lat="44.2069" lon="0.71975">
        <ele>158</ele>
        <time>2017-04-30T09:13:43.000Z</time>
      </trkpt>
      <trkpt lat="44.20688" lon="0.71969">
        <ele>158</ele>
        <time>2017-04-30T09:13:44.000Z</time>
      </trkpt>
      <trkpt lat="44.20685" lon="0.71963">
        <ele>158</ele>
        <time>2017-04-30T09:13:45.000Z</time>
      </trkpt>
      <trkpt lat="44.20682" lon="0.71957">
        <ele>158</ele>
        <time>2017-04-30T09:13:46.000Z</time>
      </trkpt>
      <trkpt lat="44.20679" lon="0.71951">
        <ele>158</ele>
        <time>2017-04-30T09:13:47.000Z</time>
      </trkpt>
      <trkpt lat="44.20676" lon="0.71945">
        <ele>158</ele>
        <time>2017-04-30T09:13:48.000Z</time>
      </trkpt>
      <trkpt lat="44.20674" lon="0.71939">
        <ele>158</ele>
        <time>2017-04-30T09:13:49.000Z</time>
      </trkpt>
      <trkpt lat="44.20671" lon="0.71933">
        <ele>158</ele>
        <time>2017-04-30T09:13:50.000Z</time>
      </trkpt>
      <trkpt lat="44.20668" lon="0.71927">
        <ele>158</ele>
        <time>2017-04-30T09:13:51.000Z</time>
      </trkpt>
      <trkpt lat="44.20666" lon="0.71921">
        <ele>158</ele>
        <time>2017-04-30T09:13:52.000Z</time>
      </trkpt>
      <trkpt lat="44.20663" lon="0.71915">
        <ele>158</ele>
        <time>2017-04-30T09:13:53.000Z</time>
      </trkpt>
      <trkpt lat="44.20661" lon="0.71909">
        <ele>159</ele>
        <time>2017-04-30T09:13:54.000Z</time>
      </trkpt>
      <trkpt lat="44.20659" lon="0.71904">
        <ele>159</ele>
        <time>2017-04-30T09:13:55.000Z</time>
      </trkpt>
      <trkpt lat="44.20656" lon="0.71898">
        <ele>159</ele>
        <time>2017-04-30T09:13:56.000Z</time>
      </trkpt>
      <trkpt lat="44.20654" lon="0.71893">
        <ele>159</ele>
        <time>2017-04-30T09:13:57.000Z</time>
      </trkpt>
      <trkpt lat="44.20652" lon="0.71888">
        <ele>159</ele>
        <time>2017-04-30T09:13:58.000Z</time>
      </trkpt>
      <trkpt lat="44.2065" lon="0.71883">
        <ele>160</ele>
        <time>2017-04-30T09:13:59.000Z</time>
      </trkpt>
      <trkpt lat="44.20648" lon="0.71879">
        <ele>160</ele>
        <time>2017-04-30T09:14:00.000Z</time>
      </trkpt>
      <trkpt lat="44.20646" lon="0.71874">
        <ele>160</ele>
        <time>2017-04-30T09:14:01.000Z</time>
      </trkpt>
      <trkpt lat="44.20644" lon="0.7187">
        <ele>160</ele>
        <time>2017-04-30T09:14:02.000Z</time>
      </trkpt>
      <trkpt lat="44.20642" lon="0.71865">
        <ele>161</ele>
        <time>2017-04-30T09:14:03.000Z</time>
      </trkpt>
      <trkpt lat="44.2064" lon="0.71861">
        <ele>161</ele>
        <time>2017-04-30T09:14:04.000Z</time>
      </trkpt>
      <trkpt lat="44.20639" lon="0.71857">
        <ele>161</ele>
        <time>2017-04-30T09:14:05.000Z</time>
      </trkpt>
      <trkpt lat="44.20637" lon="0.71852">
        <ele>161</ele>
        <time>2017-04-30T09:14:06.000Z</time>
      </trkpt>
      <trkpt lat="44.20635" lon="0.71848">
        <ele>161</ele>
        <time>2017-04-30T09:14:07.000Z</time>
      </trkpt>
      <trkpt lat="44.20633" lon="0.71844">
        <ele>162</ele>
        <time>2017-04-30T09:14:08.000Z</time>
      </trkpt>
      <trkpt lat="44.20631" lon="0.7184">
        <ele>162</ele>
        <time>2017-04-30T09:14:09.000Z</time>
      </trkpt>
      <trkpt lat="44.2063" lon="0.71835">
        <ele>162</ele>
        <time>2017-04-30T09:14:10.000Z</time>
      </trkpt>
      <trkpt lat="44.20628" lon="0.7183">
        <ele>162</ele>
        <time>2017-04-30T09:14:11.000Z</time>
      </trkpt>
      <trkpt lat="44.20626" lon="0.71826">
        <ele>163</ele>
        <time>2017-04-30T09:14:12.000Z</time>
      </trkpt>
      <trkpt lat="44.20624" lon="0.71821">
        <ele>163</ele>
        <time>2017-04-30T09:14:13.000Z</time>
      </trkpt>
      <trkpt lat="44.20623" lon="0.71817">
        <ele>163</ele>
        <time>2017-04-30T09:14:14.000Z</time>
      </trkpt>
      <trkpt lat="44.20621" lon="0.71812">
        <ele>163</ele>
        <time>2017-04-30T09:14:15.000Z</time>
      </trkpt>
      <trkpt lat="44.2062" lon="0.71808">
        <ele>164</ele>
        <time>2017-04-30T09:14:16.000Z</time>
      </trkpt>
      <trkpt lat="44.20619" lon="0.71804">
        <ele>164</ele>
        <time>2017-04-30T09:14:17.000Z</time>
      </trkpt>
      <trkpt lat="44.20617" lon="0.718">
        <ele>164</ele>
        <time>2017-04-30T09:14:18.000Z</time>
      </trkpt>
      <trkpt lat="44.20616" lon="0.71796">
        <ele>165</ele>
        <time>2017-04-30T09:14:19.000Z</time>
      </trkpt>
      <trkpt lat="44.20615" lon="0.71792">
        <ele>165</ele>
        <time>2017-04-30T09:14:20.000Z</time>
      </trkpt>
      <trkpt lat="44.20614" lon="0.71788">
        <ele>166</ele>
        <time>2017-04-30T09:14:21.000Z</time>
      </trkpt>
      <trkpt lat="44.20613" lon="0.71784">
        <ele>166</ele>
        <time>2017-04-30T09:14:22.000Z</time>
      </trkpt>
      <trkpt lat="44.20612" lon="0.71781">
        <ele>166</ele>
        <time>2017-04-30T09:14:23.000Z</time>
      </trkpt>
      <trkpt lat="44.20611" lon="0.71777">
        <ele>167</ele>
        <time>2017-04-30T09:14:24.000Z</time>
      </trkpt>
      <trkpt lat="44.2061" lon="0.71774">
        <ele>167</ele>
        <time>2017-04-30T09:14:25.000Z</time>
      </trkpt>
      <trkpt lat="44.20608" lon="0.7177">
        <ele>167</ele>
        <time>2017-04-30T09:14:26.000Z</time>
      </trkpt>
      <trkpt lat="44.20607" lon="0.71766">
        <ele>167</ele>
        <time>2017-04-30T09:14:27.000Z</time>
      </trkpt>
      <trkpt lat="44.20606" lon="0.71761">
        <ele>166</ele>
        <time>2017-04-30T09:14:28.000Z</time>
      </trkpt>
      <trkpt lat="44.20604" lon="0.71757">
        <ele>166</ele>
        <time>2017-04-30T09:14:29.000Z</time>
      </trkpt>
      <trkpt lat="44.20603" lon="0.71753">
        <ele>167</ele>
        <time>2017-04-30T09:14:30.000Z</time>
      </trkpt>
      <trkpt lat="44.20602" lon="0.71749">
        <ele>167</ele>
        <time>2017-04-30T09:14:31.000Z</time>
      </trkpt>
      <trkpt lat="44.20601" lon="0.71744">
        <ele>166</ele>
        <time>2017-04-30T09:14:32.000Z</time>
      </trkpt>
      <trkpt lat="44.20599" lon="0.71741">
        <ele>167</ele>
        <time>2017-04-30T09:14:33.000Z</time>
      </trkpt>
      <trkpt lat="44.20598" lon="0.71737">
        <ele>167</ele>
        <time>2017-04-30T09:14:34.000Z</time>
      </trkpt>
      <trkpt lat="44.20597" lon="0.71733">
        <ele>167</ele>
        <time>2017-04-30T09:14:35.000Z</time>
      </trkpt>
      <trkpt lat="44.20595" lon="0.71729">
        <ele>167</ele>
        <time>2017-04-30T09:14:36.000Z</time>
      </trkpt>
      <trkpt lat="44.20594" lon="0.71725">
        <ele>166</ele>
        <time>2017-04-30T09:14:37.000Z</time>
      </trkpt>
      <trkpt lat="44.20592" lon="0.7172">
        <ele>166</ele>
        <time>2017-04-30T09:14:38.000Z</time>
      </trkpt>
      <trkpt lat="44.20591" lon="0.71715">
        <ele>165</ele>
        <time>2017-04-30T09:14:39.000Z</time>
      </trkpt>
      <trkpt lat="44.20589" lon="0.71708">
        <ele>164</ele>
        <time>2017-04-30T09:14:40.000Z</time>
      </trkpt>
      <trkpt lat="44.20586" lon="0.717">
        <ele>162</ele>
        <time>2017-04-30T09:14:41.000Z</time>
      </trkpt>
      <trkpt lat="44.20584" lon="0.71693">
        <ele>161</ele>
        <time>2017-04-30T09:14:42.000Z</time>
      </trkpt>
      <trkpt lat="44.20582" lon="0.71687">
        <ele>160</ele>
        <time>2017-04-30T09:14:43.000Z</time>
      </trkpt>
      <trkpt lat="44.2058" lon="0.7168">
        <ele>160</ele>
        <time>2017-04-30T09:14:44.000Z</time>
      </trkpt>
      <trkpt lat="44.20577" lon="0.71672">
        <ele>160</ele>
        <time>2017-04-30T09:14:45.000Z</time>
      </trkpt>
      <trkpt lat="44.20574" lon="0.71664">
        <ele>160</ele>
        <time>2017-04-30T09:14:46.000Z</time>
      </trkpt>
      <trkpt lat="44.20572" lon="0.71657">
        <ele>160</ele>
        <time>2017-04-30T09:14:47.000Z</time>
      </trkpt>
      <trkpt lat="44.20569" lon="0.71649">
        <ele>159</ele>
        <time>2017-04-30T09:14:48.000Z</time>
      </trkpt>
      <trkpt lat="44.20568" lon="0.71639">
        <ele>158</ele>
        <time>2017-04-30T09:14:49.000Z</time>
      </trkpt>
      <trkpt lat="44.20563" lon="0.7163">
        <ele>158</ele>
        <time>2017-04-30T09:14:50.000Z</time>
      </trkpt>
      <trkpt lat="44.20559" lon="0.71618">
        <ele>156</ele>
        <time>2017-04-30T09:14:51.000Z</time>
      </trkpt>
      <trkpt lat="44.20555" lon="0.71608">
        <ele>156</ele>
        <time>2017-04-30T09:14:52.000Z</time>
      </trkpt>
      <trkpt lat="44.20548" lon="0.71597">
        <ele>156</ele>
        <time>2017-04-30T09:14:53.000Z</time>
      </trkpt>
      <trkpt lat="44.2054" lon="0.71585">
        <ele>157</ele>
        <time>2017-04-30T09:14:54.000Z</time>
      </trkpt>
      <trkpt lat="44.20536" lon="0.71575">
        <ele>156</ele>
        <time>2017-04-30T09:14:55.000Z</time>
      </trkpt>
      <trkpt lat="44.20531" lon="0.71566">
        <ele>155</ele>
        <time>2017-04-30T09:14:56.000Z</time>
      </trkpt>
      <trkpt lat="44.20526" lon="0.71557">
        <ele>156</ele>
        <time>2017-04-30T09:14:57.000Z</time>
      </trkpt>
      <trkpt lat="44.20521" lon="0.71548">
        <ele>156</ele>
        <time>2017-04-30T09:14:58.000Z</time>
      </trkpt>
      <trkpt lat="44.20516" lon="0.71539">
        <ele>157</ele>
        <time>2017-04-30T09:14:59.000Z</time>
      </trkpt>
      <trkpt lat="44.20512" lon="0.7153">
        <ele>157</ele>
        <time>2017-04-30T09:15:00.000Z</time>
      </trkpt>
      <trkpt lat="44.20508" lon="0.71522">
        <ele>157</ele>
        <time>2017-04-30T09:15:01.000Z</time>
      </trkpt>
      <trkpt lat="44.20503" lon="0.71513">
        <ele>157</ele>
        <time>2017-04-30T09:15:02.000Z</time>
      </trkpt>
      <trkpt lat="44.20499" lon="0.71505">
        <ele>157</ele>
        <time>2017-04-30T09:15:03.000Z</time>
      </trkpt>
      <trkpt lat="44.20495" lon="0.71496">
        <ele>156</ele>
        <time>2017-04-30T09:15:04.000Z</time>
      </trkpt>
      <trkpt lat="44.2049" lon="0.71487">
        <ele>156</ele>
        <time>2017-04-30T09:15:05.000Z</time>
      </trkpt>
      <trkpt lat="44.20486" lon="0.71478">
        <ele>155</ele>
        <time>2017-04-30T09:15:06.000Z</time>
      </trkpt>
      <trkpt lat="44.20483" lon="0.71469">
        <ele>155</ele>
        <time>2017-04-30T09:15:07.000Z</time>
      </trkpt>
      <trkpt lat="44.2048" lon="0.7146">
        <ele>155</ele>
        <time>2017-04-30T09:15:08.000Z</time>
      </trkpt>
      <trkpt lat="44.20477" lon="0.71452">
        <ele>154</ele>
        <time>2017-04-30T09:15:09.000Z</time>
      </trkpt>
      <trkpt lat="44.20475" lon="0.71444">
        <ele>154</ele>
        <time>2017-04-30T09:15:10.000Z</time>
      </trkpt>
      <trkpt lat="44.20472" lon="0.71436">
        <ele>153</ele>
        <time>2017-04-30T09:15:11.000Z</time>
      </trkpt>
      <trkpt lat="44.20469" lon="0.71428">
        <ele>153</ele>
        <time>2017-04-30T09:15:12.000Z</time>
      </trkpt>
      <trkpt lat="44.20466" lon="0.71421">
        <ele>153</ele>
        <time>2017-04-30T09:15:13.000Z</time>
      </trkpt>
      <trkpt lat="44.20463" lon="0.71414">
        <ele>153</ele>
        <time>2017-04-30T09:15:14.000Z</time>
      </trkpt>
      <trkpt lat="44.20461" lon="0.71407">
        <ele>154</ele>
        <time>2017-04-30T09:15:15.000Z</time>
      </trkpt>
      <trkpt lat="44.20458" lon="0.714">
        <ele>154</ele>
        <time>2017-04-30T09:15:16.000Z</time>
      </trkpt>
      <trkpt lat="44.20456" lon="0.71393">
        <ele>155</ele>
        <time>2017-04-30T09:15:17.000Z</time>
      </trkpt>
      <trkpt lat="44.20453" lon="0.71386">
        <ele>155</ele>
        <time>2017-04-30T09:15:18.000Z</time>
      </trkpt>
      <trkpt lat="44.20449" lon="0.71379">
        <ele>156</ele>
        <time>2017-04-30T09:15:19.000Z</time>
      </trkpt>
      <trkpt lat="44.20445" lon="0.71372">
        <ele>156</ele>
        <time>2017-04-30T09:15:20.000Z</time>
      </trkpt>
      <trkpt lat="44.20442" lon="0.71365">
        <ele>156</ele>
        <time>2017-04-30T09:15:21.000Z</time>
      </trkpt>
      <trkpt lat="44.20439" lon="0.71359">
        <ele>157</ele>
        <time>2017-04-30T09:15:22.000Z</time>
      </trkpt>
      <trkpt lat="44.20435" lon="0.71353">
        <ele>158</ele>
        <time>2017-04-30T09:15:23.000Z</time>
      </trkpt>
      <trkpt lat="44.20431" lon="0.71346">
        <ele>157</ele>
        <time>2017-04-30T09:15:24.000Z</time>
      </trkpt>
      <trkpt lat="44.20426" lon="0.71338">
        <ele>157</ele>
        <time>2017-04-30T09:15:25.000Z</time>
      </trkpt>
      <trkpt lat="44.20421" lon="0.71332">
        <ele>157</ele>
        <time>2017-04-30T09:15:26.000Z</time>
      </trkpt>
      <trkpt lat="44.20417" lon="0.71324">
        <ele>157</ele>
        <time>2017-04-30T09:15:27.000Z</time>
      </trkpt>
      <trkpt lat="44.20414" lon="0.71317">
        <ele>158</ele>
        <time>2017-04-30T09:15:28.000Z</time>
      </trkpt>
      <trkpt lat="44.20409" lon="0.71309">
        <ele>159</ele>
        <time>2017-04-30T09:15:29.000Z</time>
      </trkpt>
      <trkpt lat="44.20405" lon="0.71302">
        <ele>159</ele>
        <time>2017-04-30T09:15:30.000Z</time>
      </trkpt>
      <trkpt lat="44.20401" lon="0.71294">
        <ele>159</ele>
        <time>2017-04-30T09:15:31.000Z</time>
      </trkpt>
      <trkpt lat="44.20397" lon="0.71287">
        <ele>159</ele>
        <time>2017-04-30T09:15:32.000Z</time>
      </trkpt>
      <trkpt lat="44.20394" lon="0.71279">
        <ele>159</ele>
        <time>2017-04-30T09:15:33.000Z</time>
      </trkpt>
      <trkpt lat="44.20391" lon="0.71273">
        <ele>159</ele>
        <time>2017-04-30T09:15:34.000Z</time>
      </trkpt>
      <trkpt lat="44.20388" lon="0.71266">
        <ele>159</ele>
        <time>2017-04-30T09:15:35.000Z</time>
      </trkpt>
      <trkpt lat="44.20385" lon="0.7126">
        <ele>160</ele>
        <time>2017-04-30T09:15:36.000Z</time>
      </trkpt>
      <trkpt lat="44.20381" lon="0.71255">
        <ele>161</ele>
        <time>2017-04-30T09:15:37.000Z</time>
      </trkpt>
      <trkpt lat="44.20379" lon="0.71249">
        <ele>161</ele>
        <time>2017-04-30T09:15:38.000Z</time>
      </trkpt>
      <trkpt lat="44.20375" lon="0.71243">
        <ele>161</ele>
        <time>2017-04-30T09:15:39.000Z</time>
      </trkpt>
      <trkpt lat="44.20372" lon="0.71238">
        <ele>161</ele>
        <time>2017-04-30T09:15:40.000Z</time>
      </trkpt>
      <trkpt lat="44.20369" lon="0.71234">
        <ele>161</ele>
        <time>2017-04-30T09:15:41.000Z</time>
      </trkpt>
      <trkpt lat="44.20366" lon="0.71229">
        <ele>162</ele>
        <time>2017-04-30T09:15:42.000Z</time>
      </trkpt>
      <trkpt lat="44.20363" lon="0.71224">
        <ele>162</ele>
        <time>2017-04-30T09:15:43.000Z</time>
      </trkpt>
      <trkpt lat="44.2036" lon="0.7122">
        <ele>162</ele>
        <time>2017-04-30T09:15:44.000Z</time>
      </trkpt>
      <trkpt lat="44.20357" lon="0.71216">
        <ele>163</ele>
        <time>2017-04-30T09:15:45.000Z</time>
      </trkpt>
      <trkpt lat="44.20353" lon="0.71211">
        <ele>163</ele>
        <time>2017-04-30T09:15:46.000Z</time>
      </trkpt>
      <trkpt lat="44.20348" lon="0.71206">
        <ele>163</ele>
        <time>2017-04-30T09:15:47.000Z</time>
      </trkpt>
      <trkpt lat="44.20345" lon="0.71201">
        <ele>163</ele>
        <time>2017-04-30T09:15:48.000Z</time>
      </trkpt>
      <trkpt lat="44.20342" lon="0.71198">
        <ele>164</ele>
        <time>2017-04-30T09:15:49.000Z</time>
      </trkpt>
      <trkpt lat="44.20338" lon="0.71195">
        <ele>164</ele>
        <time>2017-04-30T09:15:50.000Z</time>
      </trkpt>
      <trkpt lat="44.20335" lon="0.71192">
        <ele>164</ele>
        <time>2017-04-30T09:15:51.000Z</time>
      </trkpt>
      <trkpt lat="44.20331" lon="0.71188">
        <ele>164</ele>
        <time>2017-04-30T09:15:52.000Z</time>
      </trkpt>
      <trkpt lat="44.20328" lon="0.71184">
        <ele>164</ele>
        <time>2017-04-30T09:15:53.000Z</time>
      </trkpt>
      <trkpt lat="44.20324" lon="0.71181">
        <ele>164</ele>
        <time>2017-04-30T09:15:54.000Z</time>
      </trkpt>
      <trkpt lat="44.2032" lon="0.71177">
        <ele>164</ele>
        <time>2017-04-30T09:15:55.000Z</time>
      </trkpt>
      <trkpt lat="44.20316" lon="0.71173">
        <ele>163</ele>
        <time>2017-04-30T09:15:56.000Z</time>
      </trkpt>
      <trkpt lat="44.20311" lon="0.71169">
        <ele>164</ele>
        <time>2017-04-30T09:15:57.000Z</time>
      </trkpt>
      <trkpt lat="44.20307" lon="0.71165">
        <ele>164</ele>
        <time>2017-04-30T09:15:58.000Z</time>
      </trkpt>
      <trkpt lat="44.20303" lon="0.71161">
        <ele>164</ele>
        <time>2017-04-30T09:15:59.000Z</time>
      </trkpt>
      <trkpt lat="44.20299" lon="0.71157">
        <ele>164</ele>
        <time>2017-04-30T09:16:00.000Z</time>
      </trkpt>
      <trkpt lat="44.20295" lon="0.71152">
        <ele>164</ele>
        <time>2017-04-30T09:16:01.000Z</time>
      </trkpt>
      <trkpt lat="44.20291" lon="0.71148">
        <ele>164</ele>
        <time>2017-04-30T09:16:02.000Z</time>
      </trkpt>
      <trkpt lat="44.20288" lon="0.71143">
        <ele>164</ele>
        <time>2017-04-30T09:16:03.000Z</time>
      </trkpt>
      <trkpt lat="44.20284" lon="0.71139">
        <ele>165</ele>
        <time>2017-04-30T09:16:04.000Z</time>
      </trkpt>
      <trkpt lat="44.20281" lon="0.71135">
        <ele>165</ele>
        <time>2017-04-30T09:16:05.000Z</time>
      </trkpt>
      <trkpt lat="44.20278" lon="0.71131">
        <ele>165</ele>
        <time>2017-04-30T09:16:06.000Z</time>
      </trkpt>
      <trkpt lat="44.20275" lon="0.71126">
        <ele>164</ele>
        <time>2017-04-30T09:16:07.000Z</time>
      </trkpt>
      <trkpt lat="44.20272" lon="0.71122">
        <ele>164</ele>
        <time>2017-04-30T09:16:08.000Z</time>
      </trkpt>
      <trkpt lat="44.20269" lon="0.71118">
        <ele>164</ele>
        <time>2017-04-30T09:16:09.000Z</time>
      </trkpt>
      <trkpt lat="44.20266" lon="0.71113">
        <ele>164</ele>
        <time>2017-04-30T09:16:10.000Z</time>
      </trkpt>
      <trkpt lat="44.20263" lon="0.71109">
        <ele>164</ele>
        <time>2017-04-30T09:16:11.000Z</time>
      </trkpt>
      <trkpt lat="44.2026" lon="0.71105">
        <ele>164</ele>
        <time>2017-04-30T09:16:12.000Z</time>
      </trkpt>
      <trkpt lat="44.20257" lon="0.711">
        <ele>164</ele>
        <time>2017-04-30T09:16:13.000Z</time>
      </trkpt>
      <trkpt lat="44.20254" lon="0.71096">
        <ele>164</ele>
        <time>2017-04-30T09:16:14.000Z</time>
      </trkpt>
      <trkpt lat="44.20251" lon="0.71092">
        <ele>165</ele>
        <time>2017-04-30T09:16:15.000Z</time>
      </trkpt>
      <trkpt lat="44.20248" lon="0.71087">
        <ele>165</ele>
        <time>2017-04-30T09:16:16.000Z</time>
      </trkpt>
      <trkpt lat="44.20245" lon="0.71083">
        <ele>165</ele>
        <time>2017-04-30T09:16:17.000Z</time>
      </trkpt>
      <trkpt lat="44.20242" lon="0.71079">
        <ele>165</ele>
        <time>2017-04-30T09:16:18.000Z</time>
      </trkpt>
      <trkpt lat="44.20239" lon="0.71075">
        <ele>165</ele>
        <time>2017-04-30T09:16:19.000Z</time>
      </trkpt>
      <trkpt lat="44.20237" lon="0.71071">
        <ele>165</ele>
        <time>2017-04-30T09:16:20.000Z</time>
      </trkpt>
      <trkpt lat="44.20234" lon="0.71067">
        <ele>165</ele>
        <time>2017-04-30T09:16:21.000Z</time>
      </trkpt>
      <trkpt lat="44.20231" lon="0.71063">
        <ele>165</ele>
        <time>2017-04-30T09:16:22.000Z</time>
      </trkpt>
      <trkpt lat="44.20228" lon="0.7106">
        <ele>165</ele>
        <time>2017-04-30T09:16:23.000Z</time>
      </trkpt>
      <trkpt lat="44.20225" lon="0.71056">
        <ele>165</ele>
        <time>2017-04-30T09:16:24.000Z</time>
      </trkpt>
      <trkpt lat="44.20222" lon="0.71052">
        <ele>165</ele>
        <time>2017-04-30T09:16:25.000Z</time>
      </trkpt>
      <trkpt lat="44.20218" lon="0.71048">
        <ele>164</ele>
        <time>2017-04-30T09:16:26.000Z</time>
      </trkpt>
      <trkpt lat="44.20215" lon="0.71043">
        <ele>163</ele>
        <time>2017-04-30T09:16:27.000Z</time>
      </trkpt>
      <trkpt lat="44.20211" lon="0.71039">
        <ele>163</ele>
        <time>2017-04-30T09:16:28.000Z</time>
      </trkpt>
      <trkpt lat="44.20207" lon="0.71034">
        <ele>163</ele>
        <time>2017-04-30T09:16:29.000Z</time>
      </trkpt>
      <trkpt lat="44.20203" lon="0.7103">
        <ele>163</ele>
        <time>2017-04-30T09:16:30.000Z</time>
      </trkpt>
      <trkpt lat="44.202" lon="0.71026">
        <ele>163</ele>
        <time>2017-04-30T09:16:31.000Z</time>
      </trkpt>
      <trkpt lat="44.20195" lon="0.71022">
        <ele>163</ele>
        <time>2017-04-30T09:16:32.000Z</time>
      </trkpt>
      <trkpt lat="44.20192" lon="0.71018">
        <ele>164</ele>
        <time>2017-04-30T09:16:33.000Z</time>
      </trkpt>
      <trkpt lat="44.20188" lon="0.71013">
        <ele>164</ele>
        <time>2017-04-30T09:16:34.000Z</time>
      </trkpt>
      <trkpt lat="44.20185" lon="0.71009">
        <ele>164</ele>
        <time>2017-04-30T09:16:35.000Z</time>
      </trkpt>
      <trkpt lat="44.20181" lon="0.71004">
        <ele>165</ele>
        <time>2017-04-30T09:16:36.000Z</time>
      </trkpt>
      <trkpt lat="44.20178" lon="0.70999">
        <ele>165</ele>
        <time>2017-04-30T09:16:37.000Z</time>
      </trkpt>
      <trkpt lat="44.20175" lon="0.70993">
        <ele>165</ele>
        <time>2017-04-30T09:16:38.000Z</time>
      </trkpt>
      <trkpt lat="44.20172" lon="0.70987">
        <ele>166</ele>
        <time>2017-04-30T09:16:39.000Z</time>
      </trkpt>
      <trkpt lat="44.20169" lon="0.70981">
        <ele>166</ele>
        <time>2017-04-30T09:16:40.000Z</time>
      </trkpt>
      <trkpt lat="44.20166" lon="0.70974">
        <ele>167</ele>
        <time>2017-04-30T09:16:41.000Z</time>
      </trkpt>
      <trkpt lat="44.20164" lon="0.70967">
        <ele>167</ele>
        <time>2017-04-30T09:16:42.000Z</time>
      </trkpt>
      <trkpt lat="44.20162" lon="0.70959">
        <ele>168</ele>
        <time>2017-04-30T09:16:43.000Z</time>
      </trkpt>
      <trkpt lat="44.20157" lon="0.70951">
        <ele>169</ele>
        <time>2017-04-30T09:16:44.000Z</time>
      </trkpt>
      <trkpt lat="44.2015" lon="0.70941">
        <ele>168</ele>
        <time>2017-04-30T09:16:45.000Z</time>
      </trkpt>
      <trkpt lat="44.20146" lon="0.70934">
        <ele>169</ele>
        <time>2017-04-30T09:16:46.000Z</time>
      </trkpt>
      <trkpt lat="44.20141" lon="0.70926">
        <ele>168</ele>
        <time>2017-04-30T09:16:47.000Z</time>
      </trkpt>
      <trkpt lat="44.20136" lon="0.70917">
        <ele>167</ele>
        <time>2017-04-30T09:16:48.000Z</time>
      </trkpt>
      <trkpt lat="44.20131" lon="0.70909">
        <ele>167</ele>
        <time>2017-04-30T09:16:49.000Z</time>
      </trkpt>
      <trkpt lat="44.20126" lon="0.70901">
        <ele>167</ele>
        <time>2017-04-30T09:16:50.000Z</time>
      </trkpt>
      <trkpt lat="44.2012" lon="0.70893">
        <ele>167</ele>
        <time>2017-04-30T09:16:51.000Z</time>
      </trkpt>
      <trkpt lat="44.20115" lon="0.70886">
        <ele>168</ele>
        <time>2017-04-30T09:16:52.000Z</time>
      </trkpt>
      <trkpt lat="44.20109" lon="0.70877">
        <ele>168</ele>
        <time>2017-04-30T09:16:53.000Z</time>
      </trkpt>
      <trkpt lat="44.20104" lon="0.70868">
        <ele>168</ele>
        <time>2017-04-30T09:16:54.000Z</time>
      </trkpt>
      <trkpt lat="44.201" lon="0.70862">
        <ele>167</ele>
        <time>2017-04-30T09:16:55.000Z</time>
      </trkpt>
      <trkpt lat="44.20098" lon="0.70858">
        <ele>165</ele>
        <time>2017-04-30T09:16:56.000Z</time>
      </trkpt>
      <trkpt lat="44.20098" lon="0.70858">
        <ele>160</ele>
        <time>2017-04-30T09:16:57.000Z</time>
      </trkpt>
      <trkpt lat="44.20097" lon="0.70859">
        <ele>160</ele>
        <time>2017-04-30T09:16:58.000Z</time>
      </trkpt>
      <trkpt lat="44.20096" lon="0.70859">
        <ele>161</ele>
        <time>2017-04-30T09:16:59.000Z</time>
      </trkpt>
      <trkpt lat="44.20096" lon="0.7086">
        <ele>161</ele>
        <time>2017-04-30T09:17:00.000Z</time>
      </trkpt>
      <trkpt lat="44.20095" lon="0.70862">
        <ele>161</ele>
        <time>2017-04-30T09:17:01.000Z</time>
      </trkpt>
      <trkpt lat="44.20093" lon="0.70864">
        <ele>161</ele>
        <time>2017-04-30T09:17:02.000Z</time>
      </trkpt>
      <trkpt lat="44.20092" lon="0.70866">
        <ele>161</ele>
        <time>2017-04-30T09:17:03.000Z</time>
      </trkpt>
      <trkpt lat="44.2009" lon="0.70868">
        <ele>162</ele>
        <time>2017-04-30T09:17:04.000Z</time>
      </trkpt>
      <trkpt lat="44.20086" lon="0.70872">
        <ele>163</ele>
        <time>2017-04-30T09:17:05.000Z</time>
      </trkpt>
      <trkpt lat="44.20083" lon="0.70876">
        <ele>163</ele>
        <time>2017-04-30T09:17:06.000Z</time>
      </trkpt>
      <trkpt lat="44.2008" lon="0.70883">
        <ele>165</ele>
        <time>2017-04-30T09:17:07.000Z</time>
      </trkpt>
      <trkpt lat="44.20075" lon="0.70888">
        <ele>164</ele>
        <time>2017-04-30T09:17:08.000Z</time>
      </trkpt>
      <trkpt lat="44.20071" lon="0.70892">
        <ele>164</ele>
        <time>2017-04-30T09:17:09.000Z</time>
      </trkpt>
      <trkpt lat="44.20067" lon="0.70897">
        <ele>164</ele>
        <time>2017-04-30T09:17:10.000Z</time>
      </trkpt>
      <trkpt lat="44.20063" lon="0.70902">
        <ele>164</ele>
        <time>2017-04-30T09:17:11.000Z</time>
      </trkpt>
      <trkpt lat="44.20059" lon="0.70908">
        <ele>164</ele>
        <time>2017-04-30T09:17:12.000Z</time>
      </trkpt>
      <trkpt lat="44.20057" lon="0.70914">
        <ele>164</ele>
        <time>2017-04-30T09:17:13.000Z</time>
      </trkpt>
      <trkpt lat="44.20054" lon="0.70918">
        <ele>164</ele>
        <time>2017-04-30T09:17:14.000Z</time>
      </trkpt>
      <trkpt lat="44.2005" lon="0.70922">
        <ele>166</ele>
        <time>2017-04-30T09:17:15.000Z</time>
      </trkpt>
      <trkpt lat="44.20043" lon="0.70921">
        <ele>166</ele>
        <time>2017-04-30T09:17:16.000Z</time>
      </trkpt>
      <trkpt lat="44.20039" lon="0.70922">
        <ele>167</ele>
        <time>2017-04-30T09:17:17.000Z</time>
      </trkpt>
      <trkpt lat="44.20036" lon="0.70923">
        <ele>168</ele>
        <time>2017-04-30T09:17:18.000Z</time>
      </trkpt>
      <trkpt lat="44.20032" lon="0.70924">
        <ele>168</ele>
        <time>2017-04-30T09:17:19.000Z</time>
      </trkpt>
      <trkpt lat="44.20027" lon="0.70924">
        <ele>168</ele>
        <time>2017-04-30T09:17:20.000Z</time>
      </trkpt>
      <trkpt lat="44.20021" lon="0.70926">
        <ele>169</ele>
        <time>2017-04-30T09:17:21.000Z</time>
      </trkpt>
      <trkpt lat="44.20015" lon="0.70927">
        <ele>170</ele>
        <time>2017-04-30T09:17:22.000Z</time>
      </trkpt>
      <trkpt lat="44.2001" lon="0.70928">
        <ele>171</ele>
        <time>2017-04-30T09:17:23.000Z</time>
      </trkpt>
      <trkpt lat="44.20004" lon="0.70928">
        <ele>170</ele>
        <time>2017-04-30T09:17:24.000Z</time>
      </trkpt>
      <trkpt lat="44.19998" lon="0.70929">
        <ele>172</ele>
        <time>2017-04-30T09:17:25.000Z</time>
      </trkpt>
      <trkpt lat="44.19992" lon="0.7093">
        <ele>173</ele>
        <time>2017-04-30T09:17:26.000Z</time>
      </trkpt>
      <trkpt lat="44.19986" lon="0.70931">
        <ele>174</ele>
        <time>2017-04-30T09:17:27.000Z</time>
      </trkpt>
      <trkpt lat="44.1998" lon="0.70932">
        <ele>176</ele>
        <time>2017-04-30T09:17:28.000Z</time>
      </trkpt>
      <trkpt lat="44.19975" lon="0.70932">
        <ele>177</ele>
        <time>2017-04-30T09:17:29.000Z</time>
      </trkpt>
      <trkpt lat="44.19969" lon="0.70933">
        <ele>177</ele>
        <time>2017-04-30T09:17:30.000Z</time>
      </trkpt>
      <trkpt lat="44.19962" lon="0.70932">
        <ele>175</ele>
        <time>2017-04-30T09:17:31.000Z</time>
      </trkpt>
      <trkpt lat="44.19957" lon="0.70929">
        <ele>173</ele>
        <time>2017-04-30T09:17:32.000Z</time>
      </trkpt>
      <trkpt lat="44.19956" lon="0.70921">
        <ele>172</ele>
        <time>2017-04-30T09:17:33.000Z</time>
      </trkpt>
      <trkpt lat="44.19953" lon="0.70918">
        <ele>172</ele>
        <time>2017-04-30T09:17:34.000Z</time>
      </trkpt>
      <trkpt lat="44.19952" lon="0.70915">
        <ele>171</ele>
        <time>2017-04-30T09:17:35.000Z</time>
      </trkpt>
      <trkpt lat="44.19952" lon="0.70912">
        <ele>170</ele>
        <time>2017-04-30T09:17:36.000Z</time>
      </trkpt>
      <trkpt lat="44.19951" lon="0.70909">
        <ele>168</ele>
        <time>2017-04-30T09:17:37.000Z</time>
      </trkpt>
      <trkpt lat="44.19951" lon="0.70906">
        <ele>168</ele>
        <time>2017-04-30T09:17:38.000Z</time>
      </trkpt>
      <trkpt lat="44.1995" lon="0.70903">
        <ele>167</ele>
        <time>2017-04-30T09:17:39.000Z</time>
      </trkpt>
      <trkpt lat="44.1995" lon="0.709">
        <ele>168</ele>
        <time>2017-04-30T09:17:40.000Z</time>
      </trkpt>
      <trkpt lat="44.19949" lon="0.70896">
        <ele>168</ele>
        <time>2017-04-30T09:17:41.000Z</time>
      </trkpt>
      <trkpt lat="44.19949" lon="0.70892">
        <ele>168</ele>
        <time>2017-04-30T09:17:42.000Z</time>
      </trkpt>
      <trkpt lat="44.19949" lon="0.70888">
        <ele>168</ele>
        <time>2017-04-30T09:17:43.000Z</time>
      </trkpt>
      <trkpt lat="44.19949" lon="0.70884">
        <ele>168</ele>
        <time>2017-04-30T09:17:44.000Z</time>
      </trkpt>
      <trkpt lat="44.1995" lon="0.7088">
        <ele>168</ele>
        <time>2017-04-30T09:17:45.000Z</time>
      </trkpt>
      <trkpt lat="44.19951" lon="0.70875">
        <ele>166</ele>
        <time>2017-04-30T09:17:46.000Z</time>
      </trkpt>
      <trkpt lat="44.19951" lon="0.7087">
        <ele>166</ele>
        <time>2017-04-30T09:17:47.000Z</time>
      </trkpt>
      <trkpt lat="44.19951" lon="0.70865">
        <ele>166</ele>
        <time>2017-04-30T09:17:48.000Z</time>
      </trkpt>
      <trkpt lat="44.19952" lon="0.7086">
        <ele>165</ele>
        <time>2017-04-30T09:17:49.000Z</time>
      </trkpt>
      <trkpt lat="44.19952" lon="0.70855">
        <ele>164</ele>
        <time>2017-04-30T09:17:50.000Z</time>
      </trkpt>
      <trkpt lat="44.19952" lon="0.70848">
        <ele>164</ele>
        <time>2017-04-30T09:17:51.000Z</time>
      </trkpt>
      <trkpt lat="44.19953" lon="0.70842">
        <ele>163</ele>
        <time>2017-04-30T09:17:52.000Z</time>
      </trkpt>
      <trkpt lat="44.19954" lon="0.70834">
        <ele>162</ele>
        <time>2017-04-30T09:17:53.000Z</time>
      </trkpt>
      <trkpt lat="44.19955" lon="0.70829">
        <ele>161</ele>
        <time>2017-04-30T09:17:54.000Z</time>
      </trkpt>
      <trkpt lat="44.19955" lon="0.70823">
        <ele>160</ele>
        <time>2017-04-30T09:17:55.000Z</time>
      </trkpt>
      <trkpt lat="44.19953" lon="0.70817">
        <ele>159</ele>
        <time>2017-04-30T09:17:56.000Z</time>
      </trkpt>
      <trkpt lat="44.1995" lon="0.70815">
        <ele>159</ele>
        <time>2017-04-30T09:17:57.000Z</time>
      </trkpt>
      <trkpt lat="44.19947" lon="0.7081">
        <ele>159</ele>
        <time>2017-04-30T09:17:58.000Z</time>
      </trkpt>
      <trkpt lat="44.19939" lon="0.70802">
        <ele>157</ele>
        <time>2017-04-30T09:17:59.000Z</time>
      </trkpt>
      <trkpt lat="44.19933" lon="0.70796">
        <ele>156</ele>
        <time>2017-04-30T09:18:00.000Z</time>
      </trkpt>
      <trkpt lat="44.19928" lon="0.70789">
        <ele>155</ele>
        <time>2017-04-30T09:18:01.000Z</time>
      </trkpt>
      <trkpt lat="44.19924" lon="0.70783">
        <ele>155</ele>
        <time>2017-04-30T09:18:02.000Z</time>
      </trkpt>
      <trkpt lat="44.1992" lon="0.70778">
        <ele>155</ele>
        <time>2017-04-30T09:18:03.000Z</time>
      </trkpt>
      <trkpt lat="44.19916" lon="0.70774">
        <ele>155</ele>
        <time>2017-04-30T09:18:04.000Z</time>
      </trkpt>
      <trkpt lat="44.19912" lon="0.70772">
        <ele>154</ele>
        <time>2017-04-30T09:18:05.000Z</time>
      </trkpt>
      <trkpt lat="44.19908" lon="0.70774">
        <ele>155</ele>
        <time>2017-04-30T09:18:06.000Z</time>
      </trkpt>
      <trkpt lat="44.19904" lon="0.70774">
        <ele>156</ele>
        <time>2017-04-30T09:18:07.000Z</time>
      </trkpt>
      <trkpt lat="44.19901" lon="0.70776">
        <ele>155</ele>
        <time>2017-04-30T09:18:08.000Z</time>
      </trkpt>
      <trkpt lat="44.19898" lon="0.70777">
        <ele>155</ele>
        <time>2017-04-30T09:18:09.000Z</time>
      </trkpt>
      <trkpt lat="44.19897" lon="0.7078">
        <ele>154</ele>
        <time>2017-04-30T09:18:10.000Z</time>
      </trkpt>
      <trkpt lat="44.19895" lon="0.70782">
        <ele>153</ele>
        <time>2017-04-30T09:18:11.000Z</time>
      </trkpt>
      <trkpt lat="44.19893" lon="0.70783">
        <ele>153</ele>
        <time>2017-04-30T09:18:12.000Z</time>
      </trkpt>
      <trkpt lat="44.19892" lon="0.70782">
        <ele>154</ele>
        <time>2017-04-30T09:18:13.000Z</time>
      </trkpt>
      <trkpt lat="44.19891" lon="0.70781">
        <ele>155</ele>
        <time>2017-04-30T09:18:14.000Z</time>
      </trkpt>
      <trkpt lat="44.1989" lon="0.70779">
        <ele>157</ele>
        <time>2017-04-30T09:18:15.000Z</time>
      </trkpt>
      <trkpt lat="44.19889" lon="0.70778">
        <ele>157</ele>
        <time>2017-04-30T09:18:16.000Z</time>
      </trkpt>
      <trkpt lat="44.19888" lon="0.70776">
        <ele>156</ele>
        <time>2017-04-30T09:18:17.000Z</time>
      </trkpt>
      <trkpt lat="44.19887" lon="0.70774">
        <ele>156</ele>
        <time>2017-04-30T09:18:18.000Z</time>
      </trkpt>
      <trkpt lat="44.19886" lon="0.70772">
        <ele>156</ele>
        <time>2017-04-30T09:18:19.000Z</time>
      </trkpt>
      <trkpt lat="44.19883" lon="0.7077">
        <ele>157</ele>
        <time>2017-04-30T09:18:20.000Z</time>
      </trkpt>
      <trkpt lat="44.19882" lon="0.70769">
        <ele>157</ele>
        <time>2017-04-30T09:18:21.000Z</time>
      </trkpt>
      <trkpt lat="44.19881" lon="0.70766">
        <ele>157</ele>
        <time>2017-04-30T09:18:22.000Z</time>
      </trkpt>
      <trkpt lat="44.19879" lon="0.70764">
        <ele>158</ele>
        <time>2017-04-30T09:18:23.000Z</time>
      </trkpt>
      <trkpt lat="44.19878" lon="0.70762">
        <ele>159</ele>
        <time>2017-04-30T09:18:24.000Z</time>
      </trkpt>
      <trkpt lat="44.19876" lon="0.7076">
        <ele>159</ele>
        <time>2017-04-30T09:18:25.000Z</time>
      </trkpt>
      <trkpt lat="44.19875" lon="0.70758">
        <ele>159</ele>
        <time>2017-04-30T09:18:26.000Z</time>
      </trkpt>
      <trkpt lat="44.19874" lon="0.70755">
        <ele>160</ele>
        <time>2017-04-30T09:18:27.000Z</time>
      </trkpt>
      <trkpt lat="44.19873" lon="0.70753">
        <ele>160</ele>
        <time>2017-04-30T09:18:28.000Z</time>
      </trkpt>
      <trkpt lat="44.19872" lon="0.70751">
        <ele>159</ele>
        <time>2017-04-30T09:18:29.000Z</time>
      </trkpt>
      <trkpt lat="44.1987" lon="0.70749">
        <ele>159</ele>
        <time>2017-04-30T09:18:30.000Z</time>
      </trkpt>
      <trkpt lat="44.19868" lon="0.70746">
        <ele>159</ele>
        <time>2017-04-30T09:18:31.000Z</time>
      </trkpt>
      <trkpt lat="44.19867" lon="0.70743">
        <ele>159</ele>
        <time>2017-04-30T09:18:32.000Z</time>
      </trkpt>
      <trkpt lat="44.19865" lon="0.70741">
        <ele>159</ele>
        <time>2017-04-30T09:18:33.000Z</time>
      </trkpt>
      <trkpt lat="44.19863" lon="0.70738">
        <ele>159</ele>
        <time>2017-04-30T09:18:34.000Z</time>
      </trkpt>
      <trkpt lat="44.19861" lon="0.70735">
        <ele>159</ele>
        <time>2017-04-30T09:18:35.000Z</time>
      </trkpt>
      <trkpt lat="44.1986" lon="0.70733">
        <ele>160</ele>
        <time>2017-04-30T09:18:36.000Z</time>
      </trkpt>
      <trkpt lat="44.19858" lon="0.7073">
        <ele>160</ele>
        <time>2017-04-30T09:18:37.000Z</time>
      </trkpt>
      <trkpt lat="44.19857" lon="0.70727">
        <ele>159</ele>
        <time>2017-04-30T09:18:38.000Z</time>
      </trkpt>
      <trkpt lat="44.19854" lon="0.70724">
        <ele>159</ele>
        <time>2017-04-30T09:18:39.000Z</time>
      </trkpt>
      <trkpt lat="44.19853" lon="0.70721">
        <ele>159</ele>
        <time>2017-04-30T09:18:40.000Z</time>
      </trkpt>
      <trkpt lat="44.1985" lon="0.70718">
        <ele>158</ele>
        <time>2017-04-30T09:18:41.000Z</time>
      </trkpt>
      <trkpt lat="44.19849" lon="0.70715">
        <ele>159</ele>
        <time>2017-04-30T09:18:42.000Z</time>
      </trkpt>
      <trkpt lat="44.19847" lon="0.70712">
        <ele>159</ele>
        <time>2017-04-30T09:18:43.000Z</time>
      </trkpt>
      <trkpt lat="44.19845" lon="0.70709">
        <ele>159</ele>
        <time>2017-04-30T09:18:44.000Z</time>
      </trkpt>
      <trkpt lat="44.19843" lon="0.70706">
        <ele>159</ele>
        <time>2017-04-30T09:18:45.000Z</time>
      </trkpt>
      <trkpt lat="44.19841" lon="0.70703">
        <ele>159</ele>
        <time>2017-04-30T09:18:46.000Z</time>
      </trkpt>
      <trkpt lat="44.19839" lon="0.707">
        <ele>160</ele>
        <time>2017-04-30T09:18:47.000Z</time>
      </trkpt>
      <trkpt lat="44.19838" lon="0.70698">
        <ele>160</ele>
        <time>2017-04-30T09:18:48.000Z</time>
      </trkpt>
      <trkpt lat="44.19836" lon="0.70695">
        <ele>160</ele>
        <time>2017-04-30T09:18:49.000Z</time>
      </trkpt>
      <trkpt lat="44.19835" lon="0.70693">
        <ele>160</ele>
        <time>2017-04-30T09:18:50.000Z</time>
      </trkpt>
      <trkpt lat="44.19833" lon="0.7069">
        <ele>160</ele>
        <time>2017-04-30T09:18:51.000Z</time>
      </trkpt>
      <trkpt lat="44.19831" lon="0.70687">
        <ele>160</ele>
        <time>2017-04-30T09:18:52.000Z</time>
      </trkpt>
      <trkpt lat="44.19829" lon="0.70685">
        <ele>161</ele>
        <time>2017-04-30T09:18:53.000Z</time>
      </trkpt>
      <trkpt lat="44.19828" lon="0.70683">
        <ele>161</ele>
        <time>2017-04-30T09:18:54.000Z</time>
      </trkpt>
      <trkpt lat="44.19826" lon="0.7068">
        <ele>161</ele>
        <time>2017-04-30T09:18:55.000Z</time>
      </trkpt>
      <trkpt lat="44.19823" lon="0.70677">
        <ele>160</ele>
        <time>2017-04-30T09:18:56.000Z</time>
      </trkpt>
      <trkpt lat="44.19821" lon="0.70674">
        <ele>160</ele>
        <time>2017-04-30T09:18:57.000Z</time>
      </trkpt>
      <trkpt lat="44.19819" lon="0.70671">
        <ele>160</ele>
        <time>2017-04-30T09:18:58.000Z</time>
      </trkpt>
      <trkpt lat="44.19817" lon="0.70669">
        <ele>160</ele>
        <time>2017-04-30T09:18:59.000Z</time>
      </trkpt>
      <trkpt lat="44.19816" lon="0.70666">
        <ele>161</ele>
        <time>2017-04-30T09:19:00.000Z</time>
      </trkpt>
      <trkpt lat="44.19814" lon="0.70663">
        <ele>161</ele>
        <time>2017-04-30T09:19:01.000Z</time>
      </trkpt>
      <trkpt lat="44.19813" lon="0.7066">
        <ele>161</ele>
        <time>2017-04-30T09:19:02.000Z</time>
      </trkpt>
      <trkpt lat="44.19812" lon="0.70657">
        <ele>161</ele>
        <time>2017-04-30T09:19:03.000Z</time>
      </trkpt>
      <trkpt lat="44.1981" lon="0.70654">
        <ele>161</ele>
        <time>2017-04-30T09:19:04.000Z</time>
      </trkpt>
      <trkpt lat="44.19809" lon="0.7065">
        <ele>161</ele>
        <time>2017-04-30T09:19:05.000Z</time>
      </trkpt>
      <trkpt lat="44.19808" lon="0.70647">
        <ele>160</ele>
        <time>2017-04-30T09:19:06.000Z</time>
      </trkpt>
      <trkpt lat="44.19805" lon="0.70645">
        <ele>160</ele>
        <time>2017-04-30T09:19:07.000Z</time>
      </trkpt>
      <trkpt lat="44.19803" lon="0.70642">
        <ele>158</ele>
        <time>2017-04-30T09:19:08.000Z</time>
      </trkpt>
      <trkpt lat="44.19801" lon="0.7064">
        <ele>159</ele>
        <time>2017-04-30T09:19:09.000Z</time>
      </trkpt>
      <trkpt lat="44.198" lon="0.70637">
        <ele>158</ele>
        <time>2017-04-30T09:19:10.000Z</time>
      </trkpt>
      <trkpt lat="44.19798" lon="0.70633">
        <ele>159</ele>
        <time>2017-04-30T09:19:11.000Z</time>
      </trkpt>
      <trkpt lat="44.19796" lon="0.70629">
        <ele>158</ele>
        <time>2017-04-30T09:19:12.000Z</time>
      </trkpt>
      <trkpt lat="44.19795" lon="0.70626">
        <ele>158</ele>
        <time>2017-04-30T09:19:13.000Z</time>
      </trkpt>
      <trkpt lat="44.19794" lon="0.70622">
        <ele>158</ele>
        <time>2017-04-30T09:19:14.000Z</time>
      </trkpt>
      <trkpt lat="44.19793" lon="0.70619">
        <ele>158</ele>
        <time>2017-04-30T09:19:15.000Z</time>
      </trkpt>
      <trkpt lat="44.19792" lon="0.70615">
        <ele>158</ele>
        <time>2017-04-30T09:19:16.000Z</time>
      </trkpt>
      <trkpt lat="44.19792" lon="0.70611">
        <ele>158</ele>
        <time>2017-04-30T09:19:17.000Z</time>
      </trkpt>
      <trkpt lat="44.19791" lon="0.70607">
        <ele>158</ele>
        <time>2017-04-30T09:19:18.000Z</time>
      </trkpt>
      <trkpt lat="44.1979" lon="0.70604">
        <ele>158</ele>
        <time>2017-04-30T09:19:19.000Z</time>
      </trkpt>
      <trkpt lat="44.19788" lon="0.706">
        <ele>158</ele>
        <time>2017-04-30T09:19:20.000Z</time>
      </trkpt>
      <trkpt lat="44.19787" lon="0.70596">
        <ele>158</ele>
        <time>2017-04-30T09:19:21.000Z</time>
      </trkpt>
      <trkpt lat="44.19786" lon="0.70593">
        <ele>158</ele>
        <time>2017-04-30T09:19:22.000Z</time>
      </trkpt>
      <trkpt lat="44.19785" lon="0.7059">
        <ele>158</ele>
        <time>2017-04-30T09:19:23.000Z</time>
      </trkpt>
      <trkpt lat="44.19784" lon="0.70586">
        <ele>158</ele>
        <time>2017-04-30T09:19:24.000Z</time>
      </trkpt>
      <trkpt lat="44.19782" lon="0.70583">
        <ele>158</ele>
        <time>2017-04-30T09:19:25.000Z</time>
      </trkpt>
      <trkpt lat="44.1978" lon="0.7058">
        <ele>158</ele>
        <time>2017-04-30T09:19:26.000Z</time>
      </trkpt>
      <trkpt lat="44.19778" lon="0.70577">
        <ele>158</ele>
        <time>2017-04-30T09:19:27.000Z</time>
      </trkpt>
      <trkpt lat="44.19776" lon="0.70572">
        <ele>158</ele>
        <time>2017-04-30T09:19:28.000Z</time>
      </trkpt>
      <trkpt lat="44.19774" lon="0.70568">
        <ele>158</ele>
        <time>2017-04-30T09:19:29.000Z</time>
      </trkpt>
      <trkpt lat="44.19771" lon="0.70563">
        <ele>158</ele>
        <time>2017-04-30T09:19:30.000Z</time>
      </trkpt>
      <trkpt lat="44.19769" lon="0.70558">
        <ele>157</ele>
        <time>2017-04-30T09:19:31.000Z</time>
      </trkpt>
      <trkpt lat="44.19766" lon="0.70553">
        <ele>157</ele>
        <time>2017-04-30T09:19:32.000Z</time>
      </trkpt>
      <trkpt lat="44.19763" lon="0.70547">
        <ele>156</ele>
        <time>2017-04-30T09:19:33.000Z</time>
      </trkpt>
      <trkpt lat="44.1976" lon="0.70541">
        <ele>156</ele>
        <time>2017-04-30T09:19:34.000Z</time>
      </trkpt>
      <trkpt lat="44.19757" lon="0.70534">
        <ele>156</ele>
        <time>2017-04-30T09:19:35.000Z</time>
      </trkpt>
      <trkpt lat="44.19754" lon="0.70528">
        <ele>155</ele>
        <time>2017-04-30T09:19:36.000Z</time>
      </trkpt>
      <trkpt lat="44.19751" lon="0.70523">
        <ele>155</ele>
        <time>2017-04-30T09:19:37.000Z</time>
      </trkpt>
      <trkpt lat="44.19748" lon="0.70518">
        <ele>154</ele>
        <time>2017-04-30T09:19:38.000Z</time>
      </trkpt>
      <trkpt lat="44.19745" lon="0.70513">
        <ele>154</ele>
        <time>2017-04-30T09:19:39.000Z</time>
      </trkpt>
      <trkpt lat="44.19742" lon="0.70507">
        <ele>154</ele>
        <time>2017-04-30T09:19:40.000Z</time>
      </trkpt>
      <trkpt lat="44.19739" lon="0.70501">
        <ele>153</ele>
        <time>2017-04-30T09:19:41.000Z</time>
      </trkpt>
      <trkpt lat="44.19736" lon="0.70494">
        <ele>153</ele>
        <time>2017-04-30T09:19:42.000Z</time>
      </trkpt>
      <trkpt lat="44.19733" lon="0.70486">
        <ele>152</ele>
        <time>2017-04-30T09:19:43.000Z</time>
      </trkpt>
      <trkpt lat="44.1973" lon="0.70479">
        <ele>151</ele>
        <time>2017-04-30T09:19:44.000Z</time>
      </trkpt>
      <trkpt lat="44.19728" lon="0.70472">
        <ele>151</ele>
        <time>2017-04-30T09:19:45.000Z</time>
      </trkpt>
      <trkpt lat="44.19727" lon="0.70466">
        <ele>151</ele>
        <time>2017-04-30T09:19:46.000Z</time>
      </trkpt>
      <trkpt lat="44.19725" lon="0.7046">
        <ele>150</ele>
        <time>2017-04-30T09:19:47.000Z</time>
      </trkpt>
      <trkpt lat="44.19723" lon="0.70455">
        <ele>149</ele>
        <time>2017-04-30T09:19:48.000Z</time>
      </trkpt>
      <trkpt lat="44.1972" lon="0.70452">
        <ele>150</ele>
        <time>2017-04-30T09:19:49.000Z</time>
      </trkpt>
      <trkpt lat="44.19715" lon="0.7045">
        <ele>150</ele>
        <time>2017-04-30T09:19:50.000Z</time>
      </trkpt>
      <trkpt lat="44.19712" lon="0.70449">
        <ele>151</ele>
        <time>2017-04-30T09:19:51.000Z</time>
      </trkpt>
      <trkpt lat="44.19708" lon="0.70448">
        <ele>151</ele>
        <time>2017-04-30T09:19:52.000Z</time>
      </trkpt>
      <trkpt lat="44.19703" lon="0.70449">
        <ele>152</ele>
        <time>2017-04-30T09:19:53.000Z</time>
      </trkpt>
      <trkpt lat="44.19698" lon="0.7045">
        <ele>152</ele>
        <time>2017-04-30T09:19:54.000Z</time>
      </trkpt>
      <trkpt lat="44.19693" lon="0.7045">
        <ele>152</ele>
        <time>2017-04-30T09:19:55.000Z</time>
      </trkpt>
      <trkpt lat="44.19688" lon="0.7045">
        <ele>153</ele>
        <time>2017-04-30T09:19:56.000Z</time>
      </trkpt>
      <trkpt lat="44.19683" lon="0.7045">
        <ele>154</ele>
        <time>2017-04-30T09:19:57.000Z</time>
      </trkpt>
      <trkpt lat="44.19676" lon="0.7045">
        <ele>156</ele>
        <time>2017-04-30T09:19:58.000Z</time>
      </trkpt>
      <trkpt lat="44.19671" lon="0.70449">
        <ele>158</ele>
        <time>2017-04-30T09:19:59.000Z</time>
      </trkpt>
      <trkpt lat="44.19666" lon="0.70449">
        <ele>159</ele>
        <time>2017-04-30T09:20:00.000Z</time>
      </trkpt>
      <trkpt lat="44.19662" lon="0.70447">
        <ele>161</ele>
        <time>2017-04-30T09:20:01.000Z</time>
      </trkpt>
      <trkpt lat="44.19657" lon="0.70444">
        <ele>162</ele>
        <time>2017-04-30T09:20:02.000Z</time>
      </trkpt>
      <trkpt lat="44.1965" lon="0.70441">
        <ele>162</ele>
        <time>2017-04-30T09:20:03.000Z</time>
      </trkpt>
      <trkpt lat="44.19645" lon="0.70439">
        <ele>163</ele>
        <time>2017-04-30T09:20:04.000Z</time>
      </trkpt>
      <trkpt lat="44.1964" lon="0.70434">
        <ele>163</ele>
        <time>2017-04-30T09:20:05.000Z</time>
      </trkpt>
      <trkpt lat="44.19633" lon="0.7043">
        <ele>163</ele>
        <time>2017-04-30T09:20:06.000Z</time>
      </trkpt>
      <trkpt lat="44.19627" lon="0.70426">
        <ele>163</ele>
        <time>2017-04-30T09:20:07.000Z</time>
      </trkpt>
      <trkpt lat="44.19622" lon="0.70421">
        <ele>163</ele>
        <time>2017-04-30T09:20:08.000Z</time>
      </trkpt>
      <trkpt lat="44.19616" lon="0.70417">
        <ele>163</ele>
        <time>2017-04-30T09:20:09.000Z</time>
      </trkpt>
      <trkpt lat="44.19611" lon="0.70414">
        <ele>163</ele>
        <time>2017-04-30T09:20:10.000Z</time>
      </trkpt>
      <trkpt lat="44.19605" lon="0.70411">
        <ele>163</ele>
        <time>2017-04-30T09:20:11.000Z</time>
      </trkpt>
      <trkpt lat="44.19598" lon="0.70406">
        <ele>160</ele>
        <time>2017-04-30T09:20:12.000Z</time>
      </trkpt>
      <trkpt lat="44.19593" lon="0.70401">
        <ele>160</ele>
        <time>2017-04-30T09:20:13.000Z</time>
      </trkpt>
      <trkpt lat="44.19584" lon="0.70394">
        <ele>158</ele>
        <time>2017-04-30T09:20:14.000Z</time>
      </trkpt>
      <trkpt lat="44.19577" lon="0.70387">
        <ele>157</ele>
        <time>2017-04-30T09:20:15.000Z</time>
      </trkpt>
      <trkpt lat="44.19573" lon="0.7038">
        <ele>154</ele>
        <time>2017-04-30T09:20:16.000Z</time>
      </trkpt>
      <trkpt lat="44.1957" lon="0.70372">
        <ele>153</ele>
        <time>2017-04-30T09:20:17.000Z</time>
      </trkpt>
      <trkpt lat="44.1957" lon="0.70364">
        <ele>149</ele>
        <time>2017-04-30T09:20:18.000Z</time>
      </trkpt>
      <trkpt lat="44.19569" lon="0.70356">
        <ele>149</ele>
        <time>2017-04-30T09:20:19.000Z</time>
      </trkpt>
      <trkpt lat="44.19568" lon="0.70348">
        <ele>148</ele>
        <time>2017-04-30T09:20:20.000Z</time>
      </trkpt>
      <trkpt lat="44.19566" lon="0.70338">
        <ele>148</ele>
        <time>2017-04-30T09:20:21.000Z</time>
      </trkpt>
      <trkpt lat="44.19565" lon="0.70329">
        <ele>147</ele>
        <time>2017-04-30T09:20:22.000Z</time>
      </trkpt>
      <trkpt lat="44.19564" lon="0.70321">
        <ele>147</ele>
        <time>2017-04-30T09:20:23.000Z</time>
      </trkpt>
      <trkpt lat="44.19563" lon="0.70312">
        <ele>147</ele>
        <time>2017-04-30T09:20:24.000Z</time>
      </trkpt>
      <trkpt lat="44.19562" lon="0.70304">
        <ele>146</ele>
        <time>2017-04-30T09:20:25.000Z</time>
      </trkpt>
      <trkpt lat="44.19562" lon="0.70295">
        <ele>146</ele>
        <time>2017-04-30T09:20:26.000Z</time>
      </trkpt>
      <trkpt lat="44.19561" lon="0.70287">
        <ele>146</ele>
        <time>2017-04-30T09:20:27.000Z</time>
      </trkpt>
      <trkpt lat="44.19559" lon="0.7028">
        <ele>146</ele>
        <time>2017-04-30T09:20:28.000Z</time>
      </trkpt>
      <trkpt lat="44.19556" lon="0.70272">
        <ele>145</ele>
        <time>2017-04-30T09:20:29.000Z</time>
      </trkpt>
      <trkpt lat="44.19553" lon="0.70266">
        <ele>145</ele>
        <time>2017-04-30T09:20:30.000Z</time>
      </trkpt>
      <trkpt lat="44.19548" lon="0.70262">
        <ele>145</ele>
        <time>2017-04-30T09:20:31.000Z</time>
      </trkpt>
      <trkpt lat="44.19543" lon="0.70257">
        <ele>146</ele>
        <time>2017-04-30T09:20:32.000Z</time>
      </trkpt>
      <trkpt lat="44.19539" lon="0.70252">
        <ele>145</ele>
        <time>2017-04-30T09:20:33.000Z</time>
      </trkpt>
      <trkpt lat="44.19534" lon="0.70245">
        <ele>144</ele>
        <time>2017-04-30T09:20:34.000Z</time>
      </trkpt>
      <trkpt lat="44.19531" lon="0.70237">
        <ele>144</ele>
        <time>2017-04-30T09:20:35.000Z</time>
      </trkpt>
      <trkpt lat="44.19527" lon="0.7023">
        <ele>144</ele>
        <time>2017-04-30T09:20:36.000Z</time>
      </trkpt>
      <trkpt lat="44.19524" lon="0.70223">
        <ele>144</ele>
        <time>2017-04-30T09:20:37.000Z</time>
      </trkpt>
      <trkpt lat="44.1952" lon="0.70218">
        <ele>144</ele>
        <time>2017-04-30T09:20:38.000Z</time>
      </trkpt>
      <trkpt lat="44.19514" lon="0.70215">
        <ele>145</ele>
        <time>2017-04-30T09:20:39.000Z</time>
      </trkpt>
      <trkpt lat="44.19508" lon="0.70212">
        <ele>145</ele>
        <time>2017-04-30T09:20:40.000Z</time>
      </trkpt>
      <trkpt lat="44.19502" lon="0.7021">
        <ele>146</ele>
        <time>2017-04-30T09:20:41.000Z</time>
      </trkpt>
      <trkpt lat="44.19496" lon="0.70208">
        <ele>146</ele>
        <time>2017-04-30T09:20:42.000Z</time>
      </trkpt>
      <trkpt lat="44.19488" lon="0.70206">
        <ele>145</ele>
        <time>2017-04-30T09:20:43.000Z</time>
      </trkpt>
      <trkpt lat="44.19481" lon="0.70204">
        <ele>144</ele>
        <time>2017-04-30T09:20:44.000Z</time>
      </trkpt>
      <trkpt lat="44.19473" lon="0.70202">
        <ele>143</ele>
        <time>2017-04-30T09:20:45.000Z</time>
      </trkpt>
      <trkpt lat="44.19466" lon="0.70201">
        <ele>142</ele>
        <time>2017-04-30T09:20:46.000Z</time>
      </trkpt>
      <trkpt lat="44.19459" lon="0.702">
        <ele>141</ele>
        <time>2017-04-30T09:20:47.000Z</time>
      </trkpt>
      <trkpt lat="44.19453" lon="0.702">
        <ele>141</ele>
        <time>2017-04-30T09:20:48.000Z</time>
      </trkpt>
      <trkpt lat="44.19449" lon="0.70198">
        <ele>140</ele>
        <time>2017-04-30T09:20:49.000Z</time>
      </trkpt>
      <trkpt lat="44.19445" lon="0.70196">
        <ele>139</ele>
        <time>2017-04-30T09:20:50.000Z</time>
      </trkpt>
      <trkpt lat="44.19442" lon="0.70192">
        <ele>139</ele>
        <time>2017-04-30T09:20:51.000Z</time>
      </trkpt>
      <trkpt lat="44.19442" lon="0.70188">
        <ele>139</ele>
        <time>2017-04-30T09:20:52.000Z</time>
      </trkpt>
      <trkpt lat="44.19442" lon="0.70183">
        <ele>139</ele>
        <time>2017-04-30T09:20:53.000Z</time>
      </trkpt>
      <trkpt lat="44.19444" lon="0.70178">
        <ele>139</ele>
        <time>2017-04-30T09:20:54.000Z</time>
      </trkpt>
      <trkpt lat="44.19446" lon="0.70172">
        <ele>139</ele>
        <time>2017-04-30T09:20:55.000Z</time>
      </trkpt>
      <trkpt lat="44.19449" lon="0.70165">
        <ele>139</ele>
        <time>2017-04-30T09:20:56.000Z</time>
      </trkpt>
      <trkpt lat="44.19453" lon="0.70157">
        <ele>137</ele>
        <time>2017-04-30T09:20:57.000Z</time>
      </trkpt>
      <trkpt lat="44.19456" lon="0.7015">
        <ele>136</ele>
        <time>2017-04-30T09:20:58.000Z</time>
      </trkpt>
      <trkpt lat="44.1946" lon="0.70143">
        <ele>135</ele>
        <time>2017-04-30T09:20:59.000Z</time>
      </trkpt>
      <trkpt lat="44.19463" lon="0.70137">
        <ele>133</ele>
        <time>2017-04-30T09:21:00.000Z</time>
      </trkpt>
      <trkpt lat="44.19466" lon="0.70131">
        <ele>132</ele>
        <time>2017-04-30T09:21:01.000Z</time>
      </trkpt>
      <trkpt lat="44.19469" lon="0.70125">
        <ele>131</ele>
        <time>2017-04-30T09:21:02.000Z</time>
      </trkpt>
      <trkpt lat="44.19472" lon="0.70118">
        <ele>130</ele>
        <time>2017-04-30T09:21:03.000Z</time>
      </trkpt>
      <trkpt lat="44.19475" lon="0.70111">
        <ele>129</ele>
        <time>2017-04-30T09:21:04.000Z</time>
      </trkpt>
      <trkpt lat="44.19479" lon="0.70104">
        <ele>128</ele>
        <time>2017-04-30T09:21:05.000Z</time>
      </trkpt>
      <trkpt lat="44.19482" lon="0.70097">
        <ele>127</ele>
        <time>2017-04-30T09:21:06.000Z</time>
      </trkpt>
      <trkpt lat="44.19485" lon="0.7009">
        <ele>125</ele>
        <time>2017-04-30T09:21:07.000Z</time>
      </trkpt>
      <trkpt lat="44.19487" lon="0.70082">
        <ele>124</ele>
        <time>2017-04-30T09:21:08.000Z</time>
      </trkpt>
      <trkpt lat="44.1949" lon="0.70076">
        <ele>122</ele>
        <time>2017-04-30T09:21:09.000Z</time>
      </trkpt>
      <trkpt lat="44.19493" lon="0.70069">
        <ele>121</ele>
        <time>2017-04-30T09:21:10.000Z</time>
      </trkpt>
      <trkpt lat="44.19495" lon="0.70062">
        <ele>120</ele>
        <time>2017-04-30T09:21:11.000Z</time>
      </trkpt>
      <trkpt lat="44.19498" lon="0.70055">
        <ele>119</ele>
        <time>2017-04-30T09:21:12.000Z</time>
      </trkpt>
      <trkpt lat="44.19501" lon="0.70048">
        <ele>118</ele>
        <time>2017-04-30T09:21:13.000Z</time>
      </trkpt>
      <trkpt lat="44.19503" lon="0.7004">
        <ele>117</ele>
        <time>2017-04-30T09:21:14.000Z</time>
      </trkpt>
      <trkpt lat="44.19506" lon="0.70032">
        <ele>116</ele>
        <time>2017-04-30T09:21:15.000Z</time>
      </trkpt>
      <trkpt lat="44.19508" lon="0.70023">
        <ele>115</ele>
        <time>2017-04-30T09:21:16.000Z</time>
      </trkpt>
      <trkpt lat="44.1951" lon="0.70016">
        <ele>114</ele>
        <time>2017-04-30T09:21:17.000Z</time>
      </trkpt>
      <trkpt lat="44.19512" lon="0.70009">
        <ele>113</ele>
        <time>2017-04-30T09:21:18.000Z</time>
      </trkpt>
      <trkpt lat="44.19513" lon="0.70002">
        <ele>112</ele>
        <time>2017-04-30T09:21:19.000Z</time>
      </trkpt>
      <trkpt lat="44.19514" lon="0.69996">
        <ele>111</ele>
        <time>2017-04-30T09:21:20.000Z</time>
      </trkpt>
      <trkpt lat="44.19515" lon="0.6999">
        <ele>110</ele>
        <time>2017-04-30T09:21:21.000Z</time>
      </trkpt>
      <trkpt lat="44.19516" lon="0.69984">
        <ele>109</ele>
        <time>2017-04-30T09:21:22.000Z</time>
      </trkpt>
      <trkpt lat="44.19516" lon="0.69978">
        <ele>108</ele>
        <time>2017-04-30T09:21:23.000Z</time>
      </trkpt>
      <trkpt lat="44.19517" lon="0.69971">
        <ele>107</ele>
        <time>2017-04-30T09:21:24.000Z</time>
      </trkpt>
      <trkpt lat="44.19517" lon="0.69964">
        <ele>106</ele>
        <time>2017-04-30T09:21:25.000Z</time>
      </trkpt>
      <trkpt lat="44.19518" lon="0.69957">
        <ele>105</ele>
        <time>2017-04-30T09:21:26.000Z</time>
      </trkpt>
      <trkpt lat="44.19518" lon="0.6995">
        <ele>104</ele>
        <time>2017-04-30T09:21:27.000Z</time>
      </trkpt>
      <trkpt lat="44.19518" lon="0.69944">
        <ele>103</ele>
        <time>2017-04-30T09:21:28.000Z</time>
      </trkpt>
      <trkpt lat="44.19518" lon="0.69937">
        <ele>102</ele>
        <time>2017-04-30T09:21:29.000Z</time>
      </trkpt>
      <trkpt lat="44.19518" lon="0.6993">
        <ele>100</ele>
        <time>2017-04-30T09:21:30.000Z</time>
      </trkpt>
      <trkpt lat="44.19518" lon="0.69923">
        <ele>99</ele>
        <time>2017-04-30T09:21:31.000Z</time>
      </trkpt>
      <trkpt lat="44.19518" lon="0.69916">
        <ele>98</ele>
        <time>2017-04-30T09:21:32.000Z</time>
      </trkpt>
      <trkpt lat="44.19518" lon="0.69908">
        <ele>97</ele>
        <time>2017-04-30T09:21:33.000Z</time>
      </trkpt>
      <trkpt lat="44.19518" lon="0.699">
        <ele>95</ele>
        <time>2017-04-30T09:21:34.000Z</time>
      </trkpt>
      <trkpt lat="44.19518" lon="0.69892">
        <ele>94</ele>
        <time>2017-04-30T09:21:35.000Z</time>
      </trkpt>
      <trkpt lat="44.19518" lon="0.69883">
        <ele>93</ele>
        <time>2017-04-30T09:21:36.000Z</time>
      </trkpt>
      <trkpt lat="44.19518" lon="0.69875">
        <ele>92</ele>
        <time>2017-04-30T09:21:37.000Z</time>
      </trkpt>
      <trkpt lat="44.19517" lon="0.69866">
        <ele>91</ele>
        <time>2017-04-30T09:21:38.000Z</time>
      </trkpt>
      <trkpt lat="44.19517" lon="0.69858">
        <ele>90</ele>
        <time>2017-04-30T09:21:39.000Z</time>
      </trkpt>
      <trkpt lat="44.19516" lon="0.6985">
        <ele>89</ele>
        <time>2017-04-30T09:21:40.000Z</time>
      </trkpt>
      <trkpt lat="44.19517" lon="0.69844">
        <ele>88</ele>
        <time>2017-04-30T09:21:41.000Z</time>
      </trkpt>
      <trkpt lat="44.19519" lon="0.69839">
        <ele>87</ele>
        <time>2017-04-30T09:21:42.000Z</time>
      </trkpt>
      <trkpt lat="44.19521" lon="0.69834">
        <ele>87</ele>
        <time>2017-04-30T09:21:43.000Z</time>
      </trkpt>
      <trkpt lat="44.19524" lon="0.6983">
        <ele>86</ele>
        <time>2017-04-30T09:21:44.000Z</time>
      </trkpt>
      <trkpt lat="44.19527" lon="0.69825">
        <ele>86</ele>
        <time>2017-04-30T09:21:45.000Z</time>
      </trkpt>
      <trkpt lat="44.1953" lon="0.6982">
        <ele>86</ele>
        <time>2017-04-30T09:21:46.000Z</time>
      </trkpt>
      <trkpt lat="44.19535" lon="0.69814">
        <ele>85</ele>
        <time>2017-04-30T09:21:47.000Z</time>
      </trkpt>
      <trkpt lat="44.1954" lon="0.69809">
        <ele>85</ele>
        <time>2017-04-30T09:21:48.000Z</time>
      </trkpt>
      <trkpt lat="44.19547" lon="0.69804">
        <ele>84</ele>
        <time>2017-04-30T09:21:49.000Z</time>
      </trkpt>
      <trkpt lat="44.19552" lon="0.69799">
        <ele>84</ele>
        <time>2017-04-30T09:21:50.000Z</time>
      </trkpt>
      <trkpt lat="44.19558" lon="0.69793">
        <ele>83</ele>
        <time>2017-04-30T09:21:51.000Z</time>
      </trkpt>
      <trkpt lat="44.19565" lon="0.69787">
        <ele>82</ele>
        <time>2017-04-30T09:21:52.000Z</time>
      </trkpt>
      <trkpt lat="44.19571" lon="0.6978">
        <ele>81</ele>
        <time>2017-04-30T09:21:53.000Z</time>
      </trkpt>
      <trkpt lat="44.19577" lon="0.69774">
        <ele>81</ele>
        <time>2017-04-30T09:21:54.000Z</time>
      </trkpt>
      <trkpt lat="44.19582" lon="0.69768">
        <ele>80</ele>
        <time>2017-04-30T09:21:55.000Z</time>
      </trkpt>
      <trkpt lat="44.19587" lon="0.69762">
        <ele>79</ele>
        <time>2017-04-30T09:21:56.000Z</time>
      </trkpt>
      <trkpt lat="44.19591" lon="0.69755">
        <ele>78</ele>
        <time>2017-04-30T09:21:57.000Z</time>
      </trkpt>
      <trkpt lat="44.19595" lon="0.69749">
        <ele>78</ele>
        <time>2017-04-30T09:21:58.000Z</time>
      </trkpt>
      <trkpt lat="44.196" lon="0.69742">
        <ele>77</ele>
        <time>2017-04-30T09:21:59.000Z</time>
      </trkpt>
      <trkpt lat="44.19604" lon="0.69736">
        <ele>77</ele>
        <time>2017-04-30T09:22:00.000Z</time>
      </trkpt>
      <trkpt lat="44.19608" lon="0.69731">
        <ele>76</ele>
        <time>2017-04-30T09:22:01.000Z</time>
      </trkpt>
      <trkpt lat="44.19612" lon="0.69726">
        <ele>76</ele>
        <time>2017-04-30T09:22:02.000Z</time>
      </trkpt>
      <trkpt lat="44.19614" lon="0.69721">
        <ele>76</ele>
        <time>2017-04-30T09:22:03.000Z</time>
      </trkpt>
      <trkpt lat="44.19615" lon="0.69715">
        <ele>76</ele>
        <time>2017-04-30T09:22:04.000Z</time>
      </trkpt>
      <trkpt lat="44.19616" lon="0.69708">
        <ele>76</ele>
        <time>2017-04-30T09:22:05.000Z</time>
      </trkpt>
      <trkpt lat="44.19616" lon="0.69701">
        <ele>76</ele>
        <time>2017-04-30T09:22:06.000Z</time>
      </trkpt>
      <trkpt lat="44.19616" lon="0.69694">
        <ele>75</ele>
        <time>2017-04-30T09:22:07.000Z</time>
      </trkpt>
      <trkpt lat="44.19614" lon="0.69687">
        <ele>75</ele>
        <time>2017-04-30T09:22:08.000Z</time>
      </trkpt>
      <trkpt lat="44.19613" lon="0.69679">
        <ele>75</ele>
        <time>2017-04-30T09:22:09.000Z</time>
      </trkpt>
      <trkpt lat="44.1961" lon="0.69671">
        <ele>74</ele>
        <time>2017-04-30T09:22:10.000Z</time>
      </trkpt>
      <trkpt lat="44.19606" lon="0.69663">
        <ele>73</ele>
        <time>2017-04-30T09:22:11.000Z</time>
      </trkpt>
      <trkpt lat="44.19601" lon="0.69654">
        <ele>73</ele>
        <time>2017-04-30T09:22:12.000Z</time>
      </trkpt>
      <trkpt lat="44.19595" lon="0.69646">
        <ele>73</ele>
        <time>2017-04-30T09:22:13.000Z</time>
      </trkpt>
      <trkpt lat="44.19589" lon="0.69639">
        <ele>72</ele>
        <time>2017-04-30T09:22:14.000Z</time>
      </trkpt>
      <trkpt lat="44.19583" lon="0.69631">
        <ele>72</ele>
        <time>2017-04-30T09:22:15.000Z</time>
      </trkpt>
      <trkpt lat="44.19577" lon="0.69623">
        <ele>71</ele>
        <time>2017-04-30T09:22:16.000Z</time>
      </trkpt>
      <trkpt lat="44.1957" lon="0.69616">
        <ele>71</ele>
        <time>2017-04-30T09:22:17.000Z</time>
      </trkpt>
      <trkpt lat="44.19565" lon="0.69607">
        <ele>70</ele>
        <time>2017-04-30T09:22:18.000Z</time>
      </trkpt>
      <trkpt lat="44.19559" lon="0.69597">
        <ele>70</ele>
        <time>2017-04-30T09:22:19.000Z</time>
      </trkpt>
      <trkpt lat="44.19554" lon="0.69588">
        <ele>70</ele>
        <time>2017-04-30T09:22:20.000Z</time>
      </trkpt>
      <trkpt lat="44.19551" lon="0.69576">
        <ele>70</ele>
        <time>2017-04-30T09:22:21.000Z</time>
      </trkpt>
      <trkpt lat="44.19547" lon="0.69565">
        <ele>70</ele>
        <time>2017-04-30T09:22:22.000Z</time>
      </trkpt>
      <trkpt lat="44.19543" lon="0.69555">
        <ele>70</ele>
        <time>2017-04-30T09:22:23.000Z</time>
      </trkpt>
      <trkpt lat="44.19538" lon="0.69546">
        <ele>70</ele>
        <time>2017-04-30T09:22:24.000Z</time>
      </trkpt>
      <trkpt lat="44.19533" lon="0.69537">
        <ele>70</ele>
        <time>2017-04-30T09:22:25.000Z</time>
      </trkpt>
      <trkpt lat="44.19527" lon="0.69529">
        <ele>70</ele>
        <time>2017-04-30T09:22:26.000Z</time>
      </trkpt>
      <trkpt lat="44.19521" lon="0.6952">
        <ele>70</ele>
        <time>2017-04-30T09:22:27.000Z</time>
      </trkpt>
      <trkpt lat="44.19515" lon="0.69513">
        <ele>70</ele>
        <time>2017-04-30T09:22:28.000Z</time>
      </trkpt>
      <trkpt lat="44.19509" lon="0.69506">
        <ele>71</ele>
        <time>2017-04-30T09:22:29.000Z</time>
      </trkpt>
      <trkpt lat="44.19504" lon="0.695">
        <ele>71</ele>
        <time>2017-04-30T09:22:30.000Z</time>
      </trkpt>
      <trkpt lat="44.19499" lon="0.69492">
        <ele>71</ele>
        <time>2017-04-30T09:22:31.000Z</time>
      </trkpt>
      <trkpt lat="44.19494" lon="0.69484">
        <ele>70</ele>
        <time>2017-04-30T09:22:32.000Z</time>
      </trkpt>
      <trkpt lat="44.19491" lon="0.69476">
        <ele>71</ele>
        <time>2017-04-30T09:22:33.000Z</time>
      </trkpt>
      <trkpt lat="44.19488" lon="0.69468">
        <ele>71</ele>
        <time>2017-04-30T09:22:34.000Z</time>
      </trkpt>
      <trkpt lat="44.19485" lon="0.69459">
        <ele>71</ele>
        <time>2017-04-30T09:22:35.000Z</time>
      </trkpt>
      <trkpt lat="44.19482" lon="0.69449">
        <ele>71</ele>
        <time>2017-04-30T09:22:36.000Z</time>
      </trkpt>
      <trkpt lat="44.1948" lon="0.6944">
        <ele>71</ele>
        <time>2017-04-30T09:22:37.000Z</time>
      </trkpt>
      <trkpt lat="44.19477" lon="0.69432">
        <ele>71</ele>
        <time>2017-04-30T09:22:38.000Z</time>
      </trkpt>
      <trkpt lat="44.19473" lon="0.69424">
        <ele>70</ele>
        <time>2017-04-30T09:22:39.000Z</time>
      </trkpt>
      <trkpt lat="44.19469" lon="0.69418">
        <ele>70</ele>
        <time>2017-04-30T09:22:40.000Z</time>
      </trkpt>
      <trkpt lat="44.19463" lon="0.69413">
        <ele>71</ele>
        <time>2017-04-30T09:22:41.000Z</time>
      </trkpt>
      <trkpt lat="44.19457" lon="0.69408">
        <ele>71</ele>
        <time>2017-04-30T09:22:42.000Z</time>
      </trkpt>
      <trkpt lat="44.19452" lon="0.69404">
        <ele>71</ele>
        <time>2017-04-30T09:22:43.000Z</time>
      </trkpt>
      <trkpt lat="44.19446" lon="0.69399">
        <ele>71</ele>
        <time>2017-04-30T09:22:44.000Z</time>
      </trkpt>
      <trkpt lat="44.19442" lon="0.69393">
        <ele>71</ele>
        <time>2017-04-30T09:22:45.000Z</time>
      </trkpt>
      <trkpt lat="44.19437" lon="0.69388">
        <ele>71</ele>
        <time>2017-04-30T09:22:46.000Z</time>
      </trkpt>
      <trkpt lat="44.19432" lon="0.69381">
        <ele>70</ele>
        <time>2017-04-30T09:22:47.000Z</time>
      </trkpt>
      <trkpt lat="44.19427" lon="0.69375">
        <ele>70</ele>
        <time>2017-04-30T09:22:48.000Z</time>
      </trkpt>
      <trkpt lat="44.19423" lon="0.69368">
        <ele>70</ele>
        <time>2017-04-30T09:22:49.000Z</time>
      </trkpt>
      <trkpt lat="44.19418" lon="0.69363">
        <ele>70</ele>
        <time>2017-04-30T09:22:50.000Z</time>
      </trkpt>
      <trkpt lat="44.19413" lon="0.69357">
        <ele>71</ele>
        <time>2017-04-30T09:22:51.000Z</time>
      </trkpt>
      <trkpt lat="44.19408" lon="0.69353">
        <ele>71</ele>
        <time>2017-04-30T09:22:52.000Z</time>
      </trkpt>
      <trkpt lat="44.19403" lon="0.6935">
        <ele>71</ele>
        <time>2017-04-30T09:22:53.000Z</time>
      </trkpt>
      <trkpt lat="44.19397" lon="0.69345">
        <ele>71</ele>
        <time>2017-04-30T09:22:54.000Z</time>
      </trkpt>
      <trkpt lat="44.19391" lon="0.69341">
        <ele>71</ele>
        <time>2017-04-30T09:22:55.000Z</time>
      </trkpt>
      <trkpt lat="44.19384" lon="0.69337">
        <ele>71</ele>
        <time>2017-04-30T09:22:56.000Z</time>
      </trkpt>
      <trkpt lat="44.19378" lon="0.69332">
        <ele>71</ele>
        <time>2017-04-30T09:22:57.000Z</time>
      </trkpt>
      <trkpt lat="44.19372" lon="0.69328">
        <ele>71</ele>
        <time>2017-04-30T09:22:58.000Z</time>
      </trkpt>
      <trkpt lat="44.19366" lon="0.69323">
        <ele>71</ele>
        <time>2017-04-30T09:22:59.000Z</time>
      </trkpt>
      <trkpt lat="44.1936" lon="0.69319">
        <ele>71</ele>
        <time>2017-04-30T09:23:00.000Z</time>
      </trkpt>
      <trkpt lat="44.19355" lon="0.69313">
        <ele>71</ele>
        <time>2017-04-30T09:23:01.000Z</time>
      </trkpt>
      <trkpt lat="44.19349" lon="0.69309">
        <ele>71</ele>
        <time>2017-04-30T09:23:02.000Z</time>
      </trkpt>
      <trkpt lat="44.19343" lon="0.69305">
        <ele>71</ele>
        <time>2017-04-30T09:23:03.000Z</time>
      </trkpt>
      <trkpt lat="44.19338" lon="0.693">
        <ele>71</ele>
        <time>2017-04-30T09:23:04.000Z</time>
      </trkpt>
      <trkpt lat="44.19333" lon="0.69296">
        <ele>71</ele>
        <time>2017-04-30T09:23:05.000Z</time>
      </trkpt>
      <trkpt lat="44.19328" lon="0.69291">
        <ele>72</ele>
        <time>2017-04-30T09:23:06.000Z</time>
      </trkpt>
      <trkpt lat="44.19323" lon="0.69287">
        <ele>72</ele>
        <time>2017-04-30T09:23:07.000Z</time>
      </trkpt>
      <trkpt lat="44.19318" lon="0.69282">
        <ele>73</ele>
        <time>2017-04-30T09:23:08.000Z</time>
      </trkpt>
      <trkpt lat="44.19314" lon="0.69278">
        <ele>74</ele>
        <time>2017-04-30T09:23:09.000Z</time>
      </trkpt>
      <trkpt lat="44.19309" lon="0.69273">
        <ele>74</ele>
        <time>2017-04-30T09:23:10.000Z</time>
      </trkpt>
      <trkpt lat="44.19305" lon="0.69269">
        <ele>74</ele>
        <time>2017-04-30T09:23:11.000Z</time>
      </trkpt>
      <trkpt lat="44.19301" lon="0.69264">
        <ele>73</ele>
        <time>2017-04-30T09:23:12.000Z</time>
      </trkpt>
      <trkpt lat="44.19296" lon="0.6926">
        <ele>73</ele>
        <time>2017-04-30T09:23:13.000Z</time>
      </trkpt>
      <trkpt lat="44.19292" lon="0.69255">
        <ele>73</ele>
        <time>2017-04-30T09:23:14.000Z</time>
      </trkpt>
      <trkpt lat="44.19287" lon="0.69249">
        <ele>72</ele>
        <time>2017-04-30T09:23:15.000Z</time>
      </trkpt>
      <trkpt lat="44.19282" lon="0.69243">
        <ele>72</ele>
        <time>2017-04-30T09:23:16.000Z</time>
      </trkpt>
      <trkpt lat="44.19278" lon="0.69237">
        <ele>72</ele>
        <time>2017-04-30T09:23:17.000Z</time>
      </trkpt>
      <trkpt lat="44.19273" lon="0.69231">
        <ele>72</ele>
        <time>2017-04-30T09:23:18.000Z</time>
      </trkpt>
      <trkpt lat="44.19268" lon="0.69224">
        <ele>72</ele>
        <time>2017-04-30T09:23:19.000Z</time>
      </trkpt>
      <trkpt lat="44.19262" lon="0.69217">
        <ele>71</ele>
        <time>2017-04-30T09:23:20.000Z</time>
      </trkpt>
      <trkpt lat="44.19257" lon="0.6921">
        <ele>71</ele>
        <time>2017-04-30T09:23:21.000Z</time>
      </trkpt>
      <trkpt lat="44.19252" lon="0.69203">
        <ele>71</ele>
        <time>2017-04-30T09:23:22.000Z</time>
      </trkpt>
      <trkpt lat="44.19247" lon="0.69195">
        <ele>71</ele>
        <time>2017-04-30T09:23:23.000Z</time>
      </trkpt>
      <trkpt lat="44.19242" lon="0.69187">
        <ele>71</ele>
        <time>2017-04-30T09:23:24.000Z</time>
      </trkpt>
      <trkpt lat="44.19237" lon="0.6918">
        <ele>71</ele>
        <time>2017-04-30T09:23:25.000Z</time>
      </trkpt>
      <trkpt lat="44.19232" lon="0.69172">
        <ele>71</ele>
        <time>2017-04-30T09:23:26.000Z</time>
      </trkpt>
      <trkpt lat="44.19227" lon="0.69164">
        <ele>71</ele>
        <time>2017-04-30T09:23:27.000Z</time>
      </trkpt>
      <trkpt lat="44.19222" lon="0.69156">
        <ele>70</ele>
        <time>2017-04-30T09:23:28.000Z</time>
      </trkpt>
      <trkpt lat="44.19217" lon="0.69148">
        <ele>70</ele>
        <time>2017-04-30T09:23:29.000Z</time>
      </trkpt>
      <trkpt lat="44.19212" lon="0.6914">
        <ele>70</ele>
        <time>2017-04-30T09:23:30.000Z</time>
      </trkpt>
      <trkpt lat="44.19207" lon="0.69131">
        <ele>69</ele>
        <time>2017-04-30T09:23:31.000Z</time>
      </trkpt>
      <trkpt lat="44.19202" lon="0.69122">
        <ele>69</ele>
        <time>2017-04-30T09:23:32.000Z</time>
      </trkpt>
      <trkpt lat="44.19197" lon="0.69114">
        <ele>69</ele>
        <time>2017-04-30T09:23:33.000Z</time>
      </trkpt>
      <trkpt lat="44.19192" lon="0.69105">
        <ele>69</ele>
        <time>2017-04-30T09:23:34.000Z</time>
      </trkpt>
      <trkpt lat="44.19187" lon="0.69097">
        <ele>68</ele>
        <time>2017-04-30T09:23:35.000Z</time>
      </trkpt>
      <trkpt lat="44.19182" lon="0.69089">
        <ele>68</ele>
        <time>2017-04-30T09:23:36.000Z</time>
      </trkpt>
      <trkpt lat="44.19178" lon="0.6908">
        <ele>68</ele>
        <time>2017-04-30T09:23:37.000Z</time>
      </trkpt>
      <trkpt lat="44.19173" lon="0.69071">
        <ele>68</ele>
        <time>2017-04-30T09:23:38.000Z</time>
      </trkpt>
      <trkpt lat="44.19169" lon="0.69062">
        <ele>67</ele>
        <time>2017-04-30T09:23:39.000Z</time>
      </trkpt>
      <trkpt lat="44.19166" lon="0.69053">
        <ele>67</ele>
        <time>2017-04-30T09:23:40.000Z</time>
      </trkpt>
      <trkpt lat="44.19164" lon="0.69043">
        <ele>67</ele>
        <time>2017-04-30T09:23:41.000Z</time>
      </trkpt>
      <trkpt lat="44.19162" lon="0.69034">
        <ele>66</ele>
        <time>2017-04-30T09:23:42.000Z</time>
      </trkpt>
      <trkpt lat="44.1916" lon="0.69024">
        <ele>66</ele>
        <time>2017-04-30T09:23:43.000Z</time>
      </trkpt>
      <trkpt lat="44.19157" lon="0.69016">
        <ele>66</ele>
        <time>2017-04-30T09:23:44.000Z</time>
      </trkpt>
      <trkpt lat="44.19154" lon="0.69007">
        <ele>66</ele>
        <time>2017-04-30T09:23:45.000Z</time>
      </trkpt>
      <trkpt lat="44.19151" lon="0.68999">
        <ele>66</ele>
        <time>2017-04-30T09:23:46.000Z</time>
      </trkpt>
      <trkpt lat="44.19149" lon="0.68991">
        <ele>66</ele>
        <time>2017-04-30T09:23:47.000Z</time>
      </trkpt>
      <trkpt lat="44.1915" lon="0.68983">
        <ele>66</ele>
        <time>2017-04-30T09:23:48.000Z</time>
      </trkpt>
      <trkpt lat="44.19151" lon="0.68975">
        <ele>65</ele>
        <time>2017-04-30T09:23:49.000Z</time>
      </trkpt>
      <trkpt lat="44.19153" lon="0.68968">
        <ele>65</ele>
        <time>2017-04-30T09:23:50.000Z</time>
      </trkpt>
      <trkpt lat="44.19157" lon="0.68959">
        <ele>65</ele>
        <time>2017-04-30T09:23:51.000Z</time>
      </trkpt>
      <trkpt lat="44.19161" lon="0.68949">
        <ele>65</ele>
        <time>2017-04-30T09:23:52.000Z</time>
      </trkpt>
      <trkpt lat="44.19165" lon="0.6894">
        <ele>64</ele>
        <time>2017-04-30T09:23:53.000Z</time>
      </trkpt>
      <trkpt lat="44.1917" lon="0.68931">
        <ele>65</ele>
        <time>2017-04-30T09:23:54.000Z</time>
      </trkpt>
      <trkpt lat="44.19174" lon="0.68922">
        <ele>65</ele>
        <time>2017-04-30T09:23:55.000Z</time>
      </trkpt>
      <trkpt lat="44.19179" lon="0.68913">
        <ele>65</ele>
        <time>2017-04-30T09:23:56.000Z</time>
      </trkpt>
      <trkpt lat="44.19183" lon="0.68905">
        <ele>65</ele>
        <time>2017-04-30T09:23:57.000Z</time>
      </trkpt>
      <trkpt lat="44.19187" lon="0.68896">
        <ele>65</ele>
        <time>2017-04-30T09:23:58.000Z</time>
      </trkpt>
      <trkpt lat="44.19191" lon="0.68888">
        <ele>65</ele>
        <time>2017-04-30T09:23:59.000Z</time>
      </trkpt>
      <trkpt lat="44.19195" lon="0.68879">
        <ele>65</ele>
        <time>2017-04-30T09:24:00.000Z</time>
      </trkpt>
      <trkpt lat="44.19199" lon="0.68872">
        <ele>65</ele>
        <time>2017-04-30T09:24:01.000Z</time>
      </trkpt>
      <trkpt lat="44.19202" lon="0.68865">
        <ele>65</ele>
        <time>2017-04-30T09:24:02.000Z</time>
      </trkpt>
      <trkpt lat="44.19203" lon="0.68857">
        <ele>65</ele>
        <time>2017-04-30T09:24:03.000Z</time>
      </trkpt>
      <trkpt lat="44.19202" lon="0.6885">
        <ele>65</ele>
        <time>2017-04-30T09:24:04.000Z</time>
      </trkpt>
      <trkpt lat="44.19198" lon="0.68849">
        <ele>67</ele>
        <time>2017-04-30T09:24:05.000Z</time>
      </trkpt>
      <trkpt lat="44.19194" lon="0.68844">
        <ele>67</ele>
        <time>2017-04-30T09:24:06.000Z</time>
      </trkpt>
      <trkpt lat="44.1919" lon="0.6884">
        <ele>66</ele>
        <time>2017-04-30T09:24:07.000Z</time>
      </trkpt>
      <trkpt lat="44.19185" lon="0.68837">
        <ele>66</ele>
        <time>2017-04-30T09:24:08.000Z</time>
      </trkpt>
      <trkpt lat="44.19179" lon="0.68833">
        <ele>66</ele>
        <time>2017-04-30T09:24:09.000Z</time>
      </trkpt>
      <trkpt lat="44.19173" lon="0.6883">
        <ele>66</ele>
        <time>2017-04-30T09:24:10.000Z</time>
      </trkpt>
      <trkpt lat="44.19167" lon="0.68826">
        <ele>66</ele>
        <time>2017-04-30T09:24:11.000Z</time>
      </trkpt>
      <trkpt lat="44.19161" lon="0.68822">
        <ele>66</ele>
        <time>2017-04-30T09:24:12.000Z</time>
      </trkpt>
      <trkpt lat="44.19154" lon="0.68818">
        <ele>66</ele>
        <time>2017-04-30T09:24:13.000Z</time>
      </trkpt>
      <trkpt lat="44.19148" lon="0.68814">
        <ele>66</ele>
        <time>2017-04-30T09:24:14.000Z</time>
      </trkpt>
      <trkpt lat="44.19142" lon="0.68809">
        <ele>66</ele>
        <time>2017-04-30T09:24:15.000Z</time>
      </trkpt>
      <trkpt lat="44.19136" lon="0.68803">
        <ele>66</ele>
        <time>2017-04-30T09:24:16.000Z</time>
      </trkpt>
      <trkpt lat="44.1913" lon="0.68798">
        <ele>65</ele>
        <time>2017-04-30T09:24:17.000Z</time>
      </trkpt>
      <trkpt lat="44.19124" lon="0.68792">
        <ele>66</ele>
        <time>2017-04-30T09:24:18.000Z</time>
      </trkpt>
      <trkpt lat="44.19118" lon="0.68785">
        <ele>65</ele>
        <time>2017-04-30T09:24:19.000Z</time>
      </trkpt>
      <trkpt lat="44.19113" lon="0.68777">
        <ele>65</ele>
        <time>2017-04-30T09:24:20.000Z</time>
      </trkpt>
      <trkpt lat="44.1911" lon="0.68768">
        <ele>66</ele>
        <time>2017-04-30T09:24:21.000Z</time>
      </trkpt>
      <trkpt lat="44.1911" lon="0.68758">
        <ele>67</ele>
        <time>2017-04-30T09:24:22.000Z</time>
      </trkpt>
      <trkpt lat="44.1911" lon="0.68748">
        <ele>67</ele>
        <time>2017-04-30T09:24:23.000Z</time>
      </trkpt>
      <trkpt lat="44.1911" lon="0.68738">
        <ele>67</ele>
        <time>2017-04-30T09:24:24.000Z</time>
      </trkpt>
      <trkpt lat="44.1911" lon="0.68728">
        <ele>67</ele>
        <time>2017-04-30T09:24:25.000Z</time>
      </trkpt>
      <trkpt lat="44.1911" lon="0.68718">
        <ele>67</ele>
        <time>2017-04-30T09:24:26.000Z</time>
      </trkpt>
      <trkpt lat="44.19111" lon="0.68708">
        <ele>67</ele>
        <time>2017-04-30T09:24:27.000Z</time>
      </trkpt>
      <trkpt lat="44.19112" lon="0.68698">
        <ele>67</ele>
        <time>2017-04-30T09:24:28.000Z</time>
      </trkpt>
      <trkpt lat="44.19112" lon="0.68689">
        <ele>67</ele>
        <time>2017-04-30T09:24:29.000Z</time>
      </trkpt>
      <trkpt lat="44.19112" lon="0.6868">
        <ele>67</ele>
        <time>2017-04-30T09:24:30.000Z</time>
      </trkpt>
      <trkpt lat="44.19112" lon="0.68672">
        <ele>67</ele>
        <time>2017-04-30T09:24:31.000Z</time>
      </trkpt>
      <trkpt lat="44.19112" lon="0.68665">
        <ele>67</ele>
        <time>2017-04-30T09:24:32.000Z</time>
      </trkpt>
      <trkpt lat="44.19111" lon="0.6866">
        <ele>67</ele>
        <time>2017-04-30T09:24:33.000Z</time>
      </trkpt>
      <trkpt lat="44.1911" lon="0.68657">
        <ele>67</ele>
        <time>2017-04-30T09:24:34.000Z</time>
      </trkpt>
      <trkpt lat="44.19109" lon="0.68655">
        <ele>67</ele>
        <time>2017-04-30T09:24:35.000Z</time>
      </trkpt>
      <trkpt lat="44.19109" lon="0.68652">
        <ele>67</ele>
        <time>2017-04-30T09:24:36.000Z</time>
      </trkpt>
      <trkpt lat="44.19109" lon="0.6865">
        <ele>67</ele>
        <time>2017-04-30T09:24:37.000Z</time>
      </trkpt>
      <trkpt lat="44.19107" lon="0.68649">
        <ele>68</ele>
        <time>2017-04-30T09:24:38.000Z</time>
      </trkpt>
      <trkpt lat="44.19106" lon="0.68646">
        <ele>68</ele>
        <time>2017-04-30T09:24:39.000Z</time>
      </trkpt>
      <trkpt lat="44.19104" lon="0.68642">
        <ele>68</ele>
        <time>2017-04-30T09:24:40.000Z</time>
      </trkpt>
      <trkpt lat="44.19103" lon="0.68637">
        <ele>68</ele>
        <time>2017-04-30T09:24:41.000Z</time>
      </trkpt>
      <trkpt lat="44.19101" lon="0.68632">
        <ele>68</ele>
        <time>2017-04-30T09:24:42.000Z</time>
      </trkpt>
      <trkpt lat="44.19099" lon="0.68625">
        <ele>69</ele>
        <time>2017-04-30T09:24:43.000Z</time>
      </trkpt>
      <trkpt lat="44.19095" lon="0.68618">
        <ele>69</ele>
        <time>2017-04-30T09:24:44.000Z</time>
      </trkpt>
      <trkpt lat="44.19092" lon="0.6861">
        <ele>68</ele>
        <time>2017-04-30T09:24:45.000Z</time>
      </trkpt>
      <trkpt lat="44.19089" lon="0.68603">
        <ele>68</ele>
        <time>2017-04-30T09:24:46.000Z</time>
      </trkpt>
      <trkpt lat="44.19085" lon="0.68596">
        <ele>68</ele>
        <time>2017-04-30T09:24:47.000Z</time>
      </trkpt>
      <trkpt lat="44.19081" lon="0.68589">
        <ele>67</ele>
        <time>2017-04-30T09:24:48.000Z</time>
      </trkpt>
      <trkpt lat="44.19077" lon="0.68583">
        <ele>68</ele>
        <time>2017-04-30T09:24:49.000Z</time>
      </trkpt>
      <trkpt lat="44.19072" lon="0.68576">
        <ele>68</ele>
        <time>2017-04-30T09:24:50.000Z</time>
      </trkpt>
      <trkpt lat="44.19068" lon="0.6857">
        <ele>68</ele>
        <time>2017-04-30T09:24:51.000Z</time>
      </trkpt>
      <trkpt lat="44.19064" lon="0.68564">
        <ele>67</ele>
        <time>2017-04-30T09:24:52.000Z</time>
      </trkpt>
      <trkpt lat="44.19059" lon="0.68558">
        <ele>68</ele>
        <time>2017-04-30T09:24:53.000Z</time>
      </trkpt>
      <trkpt lat="44.19055" lon="0.68553">
        <ele>67</ele>
        <time>2017-04-30T09:24:54.000Z</time>
      </trkpt>
      <trkpt lat="44.1905" lon="0.68547">
        <ele>67</ele>
        <time>2017-04-30T09:24:55.000Z</time>
      </trkpt>
      <trkpt lat="44.19045" lon="0.68541">
        <ele>68</ele>
        <time>2017-04-30T09:24:56.000Z</time>
      </trkpt>
      <trkpt lat="44.1904" lon="0.68535">
        <ele>68</ele>
        <time>2017-04-30T09:24:57.000Z</time>
      </trkpt>
      <trkpt lat="44.19036" lon="0.68528">
        <ele>68</ele>
        <time>2017-04-30T09:24:58.000Z</time>
      </trkpt>
      <trkpt lat="44.19031" lon="0.68522">
        <ele>68</ele>
        <time>2017-04-30T09:24:59.000Z</time>
      </trkpt>
      <trkpt lat="44.19027" lon="0.68516">
        <ele>68</ele>
        <time>2017-04-30T09:25:00.000Z</time>
      </trkpt>
      <trkpt lat="44.19021" lon="0.68509">
        <ele>68</ele>
        <time>2017-04-30T09:25:01.000Z</time>
      </trkpt>
      <trkpt lat="44.19017" lon="0.68503">
        <ele>68</ele>
        <time>2017-04-30T09:25:02.000Z</time>
      </trkpt>
      <trkpt lat="44.19012" lon="0.68496">
        <ele>68</ele>
        <time>2017-04-30T09:25:03.000Z</time>
      </trkpt>
      <trkpt lat="44.19007" lon="0.6849">
        <ele>68</ele>
        <time>2017-04-30T09:25:04.000Z</time>
      </trkpt>
      <trkpt lat="44.19002" lon="0.68483">
        <ele>68</ele>
        <time>2017-04-30T09:25:05.000Z</time>
      </trkpt>
      <trkpt lat="44.18997" lon="0.68476">
        <ele>68</ele>
        <time>2017-04-30T09:25:06.000Z</time>
      </trkpt>
      <trkpt lat="44.18992" lon="0.6847">
        <ele>69</ele>
        <time>2017-04-30T09:25:07.000Z</time>
      </trkpt>
      <trkpt lat="44.18988" lon="0.68463">
        <ele>69</ele>
        <time>2017-04-30T09:25:08.000Z</time>
      </trkpt>
      <trkpt lat="44.18983" lon="0.68455">
        <ele>69</ele>
        <time>2017-04-30T09:25:09.000Z</time>
      </trkpt>
      <trkpt lat="44.18979" lon="0.68447">
        <ele>68</ele>
        <time>2017-04-30T09:25:10.000Z</time>
      </trkpt>
      <trkpt lat="44.18974" lon="0.68439">
        <ele>68</ele>
        <time>2017-04-30T09:25:11.000Z</time>
      </trkpt>
      <trkpt lat="44.1897" lon="0.68431">
        <ele>67</ele>
        <time>2017-04-30T09:25:12.000Z</time>
      </trkpt>
      <trkpt lat="44.18965" lon="0.68423">
        <ele>67</ele>
        <time>2017-04-30T09:25:13.000Z</time>
      </trkpt>
      <trkpt lat="44.1896" lon="0.68415">
        <ele>67</ele>
        <time>2017-04-30T09:25:14.000Z</time>
      </trkpt>
      <trkpt lat="44.18955" lon="0.68408">
        <ele>68</ele>
        <time>2017-04-30T09:25:15.000Z</time>
      </trkpt>
      <trkpt lat="44.1895" lon="0.684">
        <ele>68</ele>
        <time>2017-04-30T09:25:16.000Z</time>
      </trkpt>
      <trkpt lat="44.18945" lon="0.68394">
        <ele>68</ele>
        <time>2017-04-30T09:25:17.000Z</time>
      </trkpt>
      <trkpt lat="44.1894" lon="0.68387">
        <ele>68</ele>
        <time>2017-04-30T09:25:18.000Z</time>
      </trkpt>
      <trkpt lat="44.18934" lon="0.68383">
        <ele>69</ele>
        <time>2017-04-30T09:25:19.000Z</time>
      </trkpt>
      <trkpt lat="44.18927" lon="0.68377">
        <ele>68</ele>
        <time>2017-04-30T09:25:20.000Z</time>
      </trkpt>
      <trkpt lat="44.18922" lon="0.68371">
        <ele>67</ele>
        <time>2017-04-30T09:25:21.000Z</time>
      </trkpt>
      <trkpt lat="44.18917" lon="0.68365">
        <ele>67</ele>
        <time>2017-04-30T09:25:22.000Z</time>
      </trkpt>
      <trkpt lat="44.18911" lon="0.68359">
        <ele>66</ele>
        <time>2017-04-30T09:25:23.000Z</time>
      </trkpt>
      <trkpt lat="44.18906" lon="0.68353">
        <ele>66</ele>
        <time>2017-04-30T09:25:24.000Z</time>
      </trkpt>
      <trkpt lat="44.18901" lon="0.68346">
        <ele>66</ele>
        <time>2017-04-30T09:25:25.000Z</time>
      </trkpt>
      <trkpt lat="44.18895" lon="0.6834">
        <ele>65</ele>
        <time>2017-04-30T09:25:26.000Z</time>
      </trkpt>
      <trkpt lat="44.1889" lon="0.68334">
        <ele>65</ele>
        <time>2017-04-30T09:25:27.000Z</time>
      </trkpt>
      <trkpt lat="44.18885" lon="0.68328">
        <ele>65</ele>
        <time>2017-04-30T09:25:28.000Z</time>
      </trkpt>
      <trkpt lat="44.1888" lon="0.68322">
        <ele>65</ele>
        <time>2017-04-30T09:25:29.000Z</time>
      </trkpt>
      <trkpt lat="44.18875" lon="0.68315">
        <ele>65</ele>
        <time>2017-04-30T09:25:30.000Z</time>
      </trkpt>
      <trkpt lat="44.1887" lon="0.68308">
        <ele>65</ele>
        <time>2017-04-30T09:25:31.000Z</time>
      </trkpt>
      <trkpt lat="44.18865" lon="0.68301">
        <ele>65</ele>
        <time>2017-04-30T09:25:32.000Z</time>
      </trkpt>
      <trkpt lat="44.18861" lon="0.68293">
        <ele>65</ele>
        <time>2017-04-30T09:25:33.000Z</time>
      </trkpt>
      <trkpt lat="44.18856" lon="0.68285">
        <ele>64</ele>
        <time>2017-04-30T09:25:34.000Z</time>
      </trkpt>
      <trkpt lat="44.18852" lon="0.68278">
        <ele>64</ele>
        <time>2017-04-30T09:25:35.000Z</time>
      </trkpt>
      <trkpt lat="44.18848" lon="0.6827">
        <ele>64</ele>
        <time>2017-04-30T09:25:36.000Z</time>
      </trkpt>
      <trkpt lat="44.18844" lon="0.68262">
        <ele>64</ele>
        <time>2017-04-30T09:25:37.000Z</time>
      </trkpt>
      <trkpt lat="44.18839" lon="0.68255">
        <ele>64</ele>
        <time>2017-04-30T09:25:38.000Z</time>
      </trkpt>
      <trkpt lat="44.18834" lon="0.68248">
        <ele>64</ele>
        <time>2017-04-30T09:25:39.000Z</time>
      </trkpt>
      <trkpt lat="44.18828" lon="0.68242">
        <ele>64</ele>
        <time>2017-04-30T09:25:40.000Z</time>
      </trkpt>
      <trkpt lat="44.18822" lon="0.68237">
        <ele>64</ele>
        <time>2017-04-30T09:25:41.000Z</time>
      </trkpt>
      <trkpt lat="44.18815" lon="0.68234">
        <ele>64</ele>
        <time>2017-04-30T09:25:42.000Z</time>
      </trkpt>
      <trkpt lat="44.18809" lon="0.68232">
        <ele>63</ele>
        <time>2017-04-30T09:25:43.000Z</time>
      </trkpt>
      <trkpt lat="44.18802" lon="0.68233">
        <ele>63</ele>
        <time>2017-04-30T09:25:44.000Z</time>
      </trkpt>
      <trkpt lat="44.18795" lon="0.68235">
        <ele>63</ele>
        <time>2017-04-30T09:25:45.000Z</time>
      </trkpt>
      <trkpt lat="44.18788" lon="0.68238">
        <ele>63</ele>
        <time>2017-04-30T09:25:46.000Z</time>
      </trkpt>
      <trkpt lat="44.18782" lon="0.68242">
        <ele>63</ele>
        <time>2017-04-30T09:25:47.000Z</time>
      </trkpt>
      <trkpt lat="44.18776" lon="0.68244">
        <ele>62</ele>
        <time>2017-04-30T09:25:48.000Z</time>
      </trkpt>
      <trkpt lat="44.18769" lon="0.68245">
        <ele>62</ele>
        <time>2017-04-30T09:25:49.000Z</time>
      </trkpt>
      <trkpt lat="44.18762" lon="0.68246">
        <ele>62</ele>
        <time>2017-04-30T09:25:50.000Z</time>
      </trkpt>
      <trkpt lat="44.18756" lon="0.68248">
        <ele>62</ele>
        <time>2017-04-30T09:25:51.000Z</time>
      </trkpt>
      <trkpt lat="44.1875" lon="0.6825">
        <ele>62</ele>
        <time>2017-04-30T09:25:52.000Z</time>
      </trkpt>
      <trkpt lat="44.18744" lon="0.68252">
        <ele>62</ele>
        <time>2017-04-30T09:25:53.000Z</time>
      </trkpt>
      <trkpt lat="44.18738" lon="0.68252">
        <ele>62</ele>
        <time>2017-04-30T09:25:54.000Z</time>
      </trkpt>
      <trkpt lat="44.18732" lon="0.6825">
        <ele>62</ele>
        <time>2017-04-30T09:25:55.000Z</time>
      </trkpt>
      <trkpt lat="44.18727" lon="0.68246">
        <ele>62</ele>
        <time>2017-04-30T09:25:56.000Z</time>
      </trkpt>
      <trkpt lat="44.18724" lon="0.68241">
        <ele>63</ele>
        <time>2017-04-30T09:25:57.000Z</time>
      </trkpt>
      <trkpt lat="44.18721" lon="0.68234">
        <ele>63</ele>
        <time>2017-04-30T09:25:58.000Z</time>
      </trkpt>
      <trkpt lat="44.18719" lon="0.68228">
        <ele>63</ele>
        <time>2017-04-30T09:25:59.000Z</time>
      </trkpt>
      <trkpt lat="44.18719" lon="0.68221">
        <ele>63</ele>
        <time>2017-04-30T09:26:00.000Z</time>
      </trkpt>
      <trkpt lat="44.18719" lon="0.68214">
        <ele>63</ele>
        <time>2017-04-30T09:26:01.000Z</time>
      </trkpt>
      <trkpt lat="44.18718" lon="0.68207">
        <ele>63</ele>
        <time>2017-04-30T09:26:02.000Z</time>
      </trkpt>
      <trkpt lat="44.18718" lon="0.68199">
        <ele>63</ele>
        <time>2017-04-30T09:26:03.000Z</time>
      </trkpt>
      <trkpt lat="44.18717" lon="0.68192">
        <ele>63</ele>
        <time>2017-04-30T09:26:04.000Z</time>
      </trkpt>
      <trkpt lat="44.18716" lon="0.68184">
        <ele>62</ele>
        <time>2017-04-30T09:26:05.000Z</time>
      </trkpt>
      <trkpt lat="44.18716" lon="0.68176">
        <ele>62</ele>
        <time>2017-04-30T09:26:06.000Z</time>
      </trkpt>
      <trkpt lat="44.18715" lon="0.68169">
        <ele>62</ele>
        <time>2017-04-30T09:26:07.000Z</time>
      </trkpt>
      <trkpt lat="44.18715" lon="0.68161">
        <ele>62</ele>
        <time>2017-04-30T09:26:08.000Z</time>
      </trkpt>
      <trkpt lat="44.18714" lon="0.68154">
        <ele>62</ele>
        <time>2017-04-30T09:26:09.000Z</time>
      </trkpt>
      <trkpt lat="44.18714" lon="0.68147">
        <ele>62</ele>
        <time>2017-04-30T09:26:10.000Z</time>
      </trkpt>
      <trkpt lat="44.18713" lon="0.68139">
        <ele>62</ele>
        <time>2017-04-30T09:26:11.000Z</time>
      </trkpt>
      <trkpt lat="44.18713" lon="0.68132">
        <ele>62</ele>
        <time>2017-04-30T09:26:12.000Z</time>
      </trkpt>
      <trkpt lat="44.18712" lon="0.68125">
        <ele>62</ele>
        <time>2017-04-30T09:26:13.000Z</time>
      </trkpt>
      <trkpt lat="44.18712" lon="0.68118">
        <ele>61</ele>
        <time>2017-04-30T09:26:14.000Z</time>
      </trkpt>
      <trkpt lat="44.18712" lon="0.68111">
        <ele>61</ele>
        <time>2017-04-30T09:26:15.000Z</time>
      </trkpt>
      <trkpt lat="44.18711" lon="0.68103">
        <ele>61</ele>
        <time>2017-04-30T09:26:16.000Z</time>
      </trkpt>
      <trkpt lat="44.18712" lon="0.68096">
        <ele>61</ele>
        <time>2017-04-30T09:26:17.000Z</time>
      </trkpt>
      <trkpt lat="44.18714" lon="0.68089">
        <ele>61</ele>
        <time>2017-04-30T09:26:18.000Z</time>
      </trkpt>
      <trkpt lat="44.18716" lon="0.68083">
        <ele>61</ele>
        <time>2017-04-30T09:26:19.000Z</time>
      </trkpt>
      <trkpt lat="44.18717" lon="0.68075">
        <ele>61</ele>
        <time>2017-04-30T09:26:20.000Z</time>
      </trkpt>
      <trkpt lat="44.18716" lon="0.68068">
        <ele>61</ele>
        <time>2017-04-30T09:26:21.000Z</time>
      </trkpt>
      <trkpt lat="44.18715" lon="0.6806">
        <ele>61</ele>
        <time>2017-04-30T09:26:22.000Z</time>
      </trkpt>
      <trkpt lat="44.18713" lon="0.68053">
        <ele>60</ele>
        <time>2017-04-30T09:26:23.000Z</time>
      </trkpt>
      <trkpt lat="44.18711" lon="0.68046">
        <ele>60</ele>
        <time>2017-04-30T09:26:24.000Z</time>
      </trkpt>
      <trkpt lat="44.1871" lon="0.68038">
        <ele>59</ele>
        <time>2017-04-30T09:26:25.000Z</time>
      </trkpt>
      <trkpt lat="44.18709" lon="0.68029">
        <ele>59</ele>
        <time>2017-04-30T09:26:26.000Z</time>
      </trkpt>
      <trkpt lat="44.18708" lon="0.68021">
        <ele>60</ele>
        <time>2017-04-30T09:26:27.000Z</time>
      </trkpt>
      <trkpt lat="44.18708" lon="0.68013">
        <ele>60</ele>
        <time>2017-04-30T09:26:28.000Z</time>
      </trkpt>
      <trkpt lat="44.18708" lon="0.68005">
        <ele>60</ele>
        <time>2017-04-30T09:26:29.000Z</time>
      </trkpt>
      <trkpt lat="44.18709" lon="0.67997">
        <ele>60</ele>
        <time>2017-04-30T09:26:30.000Z</time>
      </trkpt>
      <trkpt lat="44.18711" lon="0.6799">
        <ele>59</ele>
        <time>2017-04-30T09:26:31.000Z</time>
      </trkpt>
      <trkpt lat="44.18713" lon="0.67982">
        <ele>59</ele>
        <time>2017-04-30T09:26:32.000Z</time>
      </trkpt>
      <trkpt lat="44.18711" lon="0.67974">
        <ele>57</ele>
        <time>2017-04-30T09:26:33.000Z</time>
      </trkpt>
      <trkpt lat="44.18708" lon="0.67968">
        <ele>57</ele>
        <time>2017-04-30T09:26:34.000Z</time>
      </trkpt>
      <trkpt lat="44.18706" lon="0.67961">
        <ele>57</ele>
        <time>2017-04-30T09:26:35.000Z</time>
      </trkpt>
      <trkpt lat="44.18705" lon="0.67953">
        <ele>57</ele>
        <time>2017-04-30T09:26:36.000Z</time>
      </trkpt>
      <trkpt lat="44.18704" lon="0.67945">
        <ele>57</ele>
        <time>2017-04-30T09:26:37.000Z</time>
      </trkpt>
      <trkpt lat="44.18702" lon="0.67937">
        <ele>58</ele>
        <time>2017-04-30T09:26:38.000Z</time>
      </trkpt>
      <trkpt lat="44.18702" lon="0.67928">
        <ele>57</ele>
        <time>2017-04-30T09:26:39.000Z</time>
      </trkpt>
      <trkpt lat="44.18701" lon="0.67919">
        <ele>57</ele>
        <time>2017-04-30T09:26:40.000Z</time>
      </trkpt>
      <trkpt lat="44.18702" lon="0.67911">
        <ele>58</ele>
        <time>2017-04-30T09:26:41.000Z</time>
      </trkpt>
      <trkpt lat="44.18703" lon="0.67903">
        <ele>57</ele>
        <time>2017-04-30T09:26:42.000Z</time>
      </trkpt>
      <trkpt lat="44.18704" lon="0.67895">
        <ele>58</ele>
        <time>2017-04-30T09:26:43.000Z</time>
      </trkpt>
      <trkpt lat="44.18703" lon="0.67887">
        <ele>58</ele>
        <time>2017-04-30T09:26:44.000Z</time>
      </trkpt>
      <trkpt lat="44.18702" lon="0.6788">
        <ele>58</ele>
        <time>2017-04-30T09:26:45.000Z</time>
      </trkpt>
      <trkpt lat="44.18701" lon="0.67874">
        <ele>58</ele>
        <time>2017-04-30T09:26:46.000Z</time>
      </trkpt>
      <trkpt lat="44.18699" lon="0.67868">
        <ele>58</ele>
        <time>2017-04-30T09:26:47.000Z</time>
      </trkpt>
      <trkpt lat="44.18698" lon="0.67861">
        <ele>58</ele>
        <time>2017-04-30T09:26:48.000Z</time>
      </trkpt>
      <trkpt lat="44.18697" lon="0.67853">
        <ele>58</ele>
        <time>2017-04-30T09:26:49.000Z</time>
      </trkpt>
      <trkpt lat="44.18696" lon="0.67846">
        <ele>58</ele>
        <time>2017-04-30T09:26:50.000Z</time>
      </trkpt>
      <trkpt lat="44.18696" lon="0.67839">
        <ele>58</ele>
        <time>2017-04-30T09:26:51.000Z</time>
      </trkpt>
      <trkpt lat="44.18695" lon="0.67832">
        <ele>58</ele>
        <time>2017-04-30T09:26:52.000Z</time>
      </trkpt>
      <trkpt lat="44.18695" lon="0.67824">
        <ele>59</ele>
        <time>2017-04-30T09:26:53.000Z</time>
      </trkpt>
      <trkpt lat="44.18694" lon="0.67816">
        <ele>58</ele>
        <time>2017-04-30T09:26:54.000Z</time>
      </trkpt>
      <trkpt lat="44.18693" lon="0.67809">
        <ele>57</ele>
        <time>2017-04-30T09:26:55.000Z</time>
      </trkpt>
      <trkpt lat="44.18692" lon="0.67801">
        <ele>57</ele>
        <time>2017-04-30T09:26:56.000Z</time>
      </trkpt>
      <trkpt lat="44.18691" lon="0.67792">
        <ele>57</ele>
        <time>2017-04-30T09:26:57.000Z</time>
      </trkpt>
      <trkpt lat="44.1869" lon="0.67783">
        <ele>57</ele>
        <time>2017-04-30T09:26:58.000Z</time>
      </trkpt>
      <trkpt lat="44.18689" lon="0.67774">
        <ele>57</ele>
        <time>2017-04-30T09:26:59.000Z</time>
      </trkpt>
      <trkpt lat="44.18688" lon="0.67765">
        <ele>57</ele>
        <time>2017-04-30T09:27:00.000Z</time>
      </trkpt>
      <trkpt lat="44.18687" lon="0.67756">
        <ele>57</ele>
        <time>2017-04-30T09:27:01.000Z</time>
      </trkpt>
      <trkpt lat="44.18686" lon="0.67746">
        <ele>57</ele>
        <time>2017-04-30T09:27:02.000Z</time>
      </trkpt>
      <trkpt lat="44.18685" lon="0.67737">
        <ele>57</ele>
        <time>2017-04-30T09:27:03.000Z</time>
      </trkpt>
      <trkpt lat="44.18683" lon="0.67729">
        <ele>57</ele>
        <time>2017-04-30T09:27:04.000Z</time>
      </trkpt>
      <trkpt lat="44.18681" lon="0.6772">
        <ele>57</ele>
        <time>2017-04-30T09:27:05.000Z</time>
      </trkpt>
      <trkpt lat="44.18678" lon="0.67712">
        <ele>57</ele>
        <time>2017-04-30T09:27:06.000Z</time>
      </trkpt>
      <trkpt lat="44.18676" lon="0.67703">
        <ele>57</ele>
        <time>2017-04-30T09:27:07.000Z</time>
      </trkpt>
      <trkpt lat="44.18674" lon="0.67695">
        <ele>57</ele>
        <time>2017-04-30T09:27:08.000Z</time>
      </trkpt>
      <trkpt lat="44.18672" lon="0.67687">
        <ele>58</ele>
        <time>2017-04-30T09:27:09.000Z</time>
      </trkpt>
      <trkpt lat="44.1867" lon="0.67679">
        <ele>58</ele>
        <time>2017-04-30T09:27:10.000Z</time>
      </trkpt>
      <trkpt lat="44.18668" lon="0.67671">
        <ele>58</ele>
        <time>2017-04-30T09:27:11.000Z</time>
      </trkpt>
      <trkpt lat="44.18667" lon="0.67664">
        <ele>58</ele>
        <time>2017-04-30T09:27:12.000Z</time>
      </trkpt>
      <trkpt lat="44.18666" lon="0.67656">
        <ele>59</ele>
        <time>2017-04-30T09:27:13.000Z</time>
      </trkpt>
      <trkpt lat="44.18665" lon="0.67649">
        <ele>59</ele>
        <time>2017-04-30T09:27:14.000Z</time>
      </trkpt>
      <trkpt lat="44.18666" lon="0.67642">
        <ele>59</ele>
        <time>2017-04-30T09:27:15.000Z</time>
      </trkpt>
      <trkpt lat="44.18666" lon="0.67636">
        <ele>60</ele>
        <time>2017-04-30T09:27:16.000Z</time>
      </trkpt>
      <trkpt lat="44.18665" lon="0.67633">
        <ele>60</ele>
        <time>2017-04-30T09:27:17.000Z</time>
      </trkpt>
      <trkpt lat="44.18661" lon="0.67633">
        <ele>62</ele>
        <time>2017-04-30T09:27:18.000Z</time>
      </trkpt>
      <trkpt lat="44.18658" lon="0.67633">
        <ele>62</ele>
        <time>2017-04-30T09:27:19.000Z</time>
      </trkpt>
      <trkpt lat="44.18657" lon="0.67634">
        <ele>62</ele>
        <time>2017-04-30T09:27:20.000Z</time>
      </trkpt>
      <trkpt lat="44.18655" lon="0.67634">
        <ele>61</ele>
        <time>2017-04-30T09:27:21.000Z</time>
      </trkpt>
      <trkpt lat="44.18654" lon="0.67632">
        <ele>61</ele>
        <time>2017-04-30T09:27:22.000Z</time>
      </trkpt>
      <trkpt lat="44.18653" lon="0.67631">
        <ele>61</ele>
        <time>2017-04-30T09:27:23.000Z</time>
      </trkpt>
      <trkpt lat="44.18652" lon="0.67629">
        <ele>62</ele>
        <time>2017-04-30T09:27:24.000Z</time>
      </trkpt>
      <trkpt lat="44.18649" lon="0.67629">
        <ele>62</ele>
        <time>2017-04-30T09:27:25.000Z</time>
      </trkpt>
      <trkpt lat="44.18647" lon="0.67631">
        <ele>62</ele>
        <time>2017-04-30T09:27:26.000Z</time>
      </trkpt>
      <trkpt lat="44.18645" lon="0.67635">
        <ele>62</ele>
        <time>2017-04-30T09:27:27.000Z</time>
      </trkpt>
      <trkpt lat="44.18643" lon="0.67638">
        <ele>62</ele>
        <time>2017-04-30T09:27:28.000Z</time>
      </trkpt>
      <trkpt lat="44.18639" lon="0.67639">
        <ele>62</ele>
        <time>2017-04-30T09:27:29.000Z</time>
      </trkpt>
      <trkpt lat="44.18635" lon="0.67641">
        <ele>61</ele>
        <time>2017-04-30T09:27:30.000Z</time>
      </trkpt>
      <trkpt lat="44.18631" lon="0.67642">
        <ele>61</ele>
        <time>2017-04-30T09:27:31.000Z</time>
      </trkpt>
      <trkpt lat="44.18626" lon="0.67643">
        <ele>60</ele>
        <time>2017-04-30T09:27:32.000Z</time>
      </trkpt>
      <trkpt lat="44.18621" lon="0.67643">
        <ele>60</ele>
        <time>2017-04-30T09:27:33.000Z</time>
      </trkpt>
      <trkpt lat="44.18616" lon="0.67645">
        <ele>60</ele>
        <time>2017-04-30T09:27:34.000Z</time>
      </trkpt>
      <trkpt lat="44.18611" lon="0.67647">
        <ele>60</ele>
        <time>2017-04-30T09:27:35.000Z</time>
      </trkpt>
      <trkpt lat="44.18606" lon="0.67648">
        <ele>60</ele>
        <time>2017-04-30T09:27:36.000Z</time>
      </trkpt>
      <trkpt lat="44.18601" lon="0.67649">
        <ele>60</ele>
        <time>2017-04-30T09:27:37.000Z</time>
      </trkpt>
      <trkpt lat="44.18596" lon="0.6765">
        <ele>59</ele>
        <time>2017-04-30T09:27:38.000Z</time>
      </trkpt>
      <trkpt lat="44.18591" lon="0.67651">
        <ele>59</ele>
        <time>2017-04-30T09:27:39.000Z</time>
      </trkpt>
      <trkpt lat="44.18586" lon="0.67652">
        <ele>59</ele>
        <time>2017-04-30T09:27:40.000Z</time>
      </trkpt>
      <trkpt lat="44.18581" lon="0.67653">
        <ele>59</ele>
        <time>2017-04-30T09:27:41.000Z</time>
      </trkpt>
      <trkpt lat="44.18576" lon="0.67655">
        <ele>59</ele>
        <time>2017-04-30T09:27:42.000Z</time>
      </trkpt>
      <trkpt lat="44.18571" lon="0.67656">
        <ele>59</ele>
        <time>2017-04-30T09:27:43.000Z</time>
      </trkpt>
      <trkpt lat="44.18565" lon="0.67657">
        <ele>59</ele>
        <time>2017-04-30T09:27:44.000Z</time>
      </trkpt>
      <trkpt lat="44.1856" lon="0.67658">
        <ele>59</ele>
        <time>2017-04-30T09:27:45.000Z</time>
      </trkpt>
      <trkpt lat="44.18555" lon="0.6766">
        <ele>59</ele>
        <time>2017-04-30T09:27:46.000Z</time>
      </trkpt>
      <trkpt lat="44.1855" lon="0.67661">
        <ele>59</ele>
        <time>2017-04-30T09:27:47.000Z</time>
      </trkpt>
      <trkpt lat="44.18544" lon="0.67661">
        <ele>59</ele>
        <time>2017-04-30T09:27:48.000Z</time>
      </trkpt>
      <trkpt lat="44.18539" lon="0.67663">
        <ele>59</ele>
        <time>2017-04-30T09:27:49.000Z</time>
      </trkpt>
      <trkpt lat="44.18534" lon="0.67663">
        <ele>59</ele>
        <time>2017-04-30T09:27:50.000Z</time>
      </trkpt>
      <trkpt lat="44.1853" lon="0.67663">
        <ele>58</ele>
        <time>2017-04-30T09:27:51.000Z</time>
      </trkpt>
      <trkpt lat="44.18525" lon="0.67662">
        <ele>59</ele>
        <time>2017-04-30T09:27:52.000Z</time>
      </trkpt>
      <trkpt lat="44.1852" lon="0.6766">
        <ele>59</ele>
        <time>2017-04-30T09:27:53.000Z</time>
      </trkpt>
      <trkpt lat="44.18515" lon="0.6766">
        <ele>59</ele>
        <time>2017-04-30T09:27:54.000Z</time>
      </trkpt>
      <trkpt lat="44.1851" lon="0.6766">
        <ele>59</ele>
        <time>2017-04-30T09:27:55.000Z</time>
      </trkpt>
      <trkpt lat="44.18505" lon="0.67662">
        <ele>59</ele>
        <time>2017-04-30T09:27:56.000Z</time>
      </trkpt>
      <trkpt lat="44.18501" lon="0.67664">
        <ele>59</ele>
        <time>2017-04-30T09:27:57.000Z</time>
      </trkpt>
      <trkpt lat="44.18498" lon="0.67668">
        <ele>59</ele>
        <time>2017-04-30T09:27:58.000Z</time>
      </trkpt>
      <trkpt lat="44.18494" lon="0.67671">
        <ele>59</ele>
        <time>2017-04-30T09:27:59.000Z</time>
      </trkpt>
      <trkpt lat="44.1849" lon="0.67673">
        <ele>59</ele>
        <time>2017-04-30T09:28:00.000Z</time>
      </trkpt>
      <trkpt lat="44.18485" lon="0.67674">
        <ele>59</ele>
        <time>2017-04-30T09:28:01.000Z</time>
      </trkpt>
      <trkpt lat="44.18481" lon="0.67676">
        <ele>59</ele>
        <time>2017-04-30T09:28:02.000Z</time>
      </trkpt>
      <trkpt lat="44.18476" lon="0.67678">
        <ele>59</ele>
        <time>2017-04-30T09:28:03.000Z</time>
      </trkpt>
      <trkpt lat="44.18471" lon="0.67679">
        <ele>59</ele>
        <time>2017-04-30T09:28:04.000Z</time>
      </trkpt>
      <trkpt lat="44.18466" lon="0.6768">
        <ele>59</ele>
        <time>2017-04-30T09:28:05.000Z</time>
      </trkpt>
      <trkpt lat="44.18461" lon="0.67682">
        <ele>59</ele>
        <time>2017-04-30T09:28:06.000Z</time>
      </trkpt>
      <trkpt lat="44.18456" lon="0.67683">
        <ele>59</ele>
        <time>2017-04-30T09:28:07.000Z</time>
      </trkpt>
      <trkpt lat="44.1845" lon="0.67684">
        <ele>59</ele>
        <time>2017-04-30T09:28:08.000Z</time>
      </trkpt>
      <trkpt lat="44.18444" lon="0.67685">
        <ele>58</ele>
        <time>2017-04-30T09:28:09.000Z</time>
      </trkpt>
      <trkpt lat="44.18438" lon="0.67686">
        <ele>58</ele>
        <time>2017-04-30T09:28:10.000Z</time>
      </trkpt>
      <trkpt lat="44.18432" lon="0.6769">
        <ele>58</ele>
        <time>2017-04-30T09:28:11.000Z</time>
      </trkpt>
      <trkpt lat="44.18428" lon="0.67693">
        <ele>58</ele>
        <time>2017-04-30T09:28:12.000Z</time>
      </trkpt>
      <trkpt lat="44.18422" lon="0.67695">
        <ele>57</ele>
        <time>2017-04-30T09:28:13.000Z</time>
      </trkpt>
      <trkpt lat="44.18417" lon="0.67696">
        <ele>57</ele>
        <time>2017-04-30T09:28:14.000Z</time>
      </trkpt>
      <trkpt lat="44.18411" lon="0.67697">
        <ele>57</ele>
        <time>2017-04-30T09:28:15.000Z</time>
      </trkpt>
      <trkpt lat="44.18406" lon="0.67698">
        <ele>57</ele>
        <time>2017-04-30T09:28:16.000Z</time>
      </trkpt>
      <trkpt lat="44.184" lon="0.67699">
        <ele>57</ele>
        <time>2017-04-30T09:28:17.000Z</time>
      </trkpt>
      <trkpt lat="44.18395" lon="0.67699">
        <ele>57</ele>
        <time>2017-04-30T09:28:18.000Z</time>
      </trkpt>
      <trkpt lat="44.18391" lon="0.67698">
        <ele>58</ele>
        <time>2017-04-30T09:28:19.000Z</time>
      </trkpt>
      <trkpt lat="44.18387" lon="0.67699">
        <ele>58</ele>
        <time>2017-04-30T09:28:20.000Z</time>
      </trkpt>
      <trkpt lat="44.18383" lon="0.677">
        <ele>58</ele>
        <time>2017-04-30T09:28:21.000Z</time>
      </trkpt>
      <trkpt lat="44.18381" lon="0.67702">
        <ele>58</ele>
        <time>2017-04-30T09:28:22.000Z</time>
      </trkpt>
      <trkpt lat="44.18378" lon="0.67703">
        <ele>58</ele>
        <time>2017-04-30T09:28:23.000Z</time>
      </trkpt>
      <trkpt lat="44.18377" lon="0.67704">
        <ele>58</ele>
        <time>2017-04-30T09:28:24.000Z</time>
      </trkpt>
      <trkpt lat="44.18376" lon="0.67704">
        <ele>58</ele>
        <time>2017-04-30T09:28:25.000Z</time>
      </trkpt>
    </trkseg>
  </trk>
</gpx>